<?xml version="1.0" encoding="UTF-8" standalone="no" ?>
<gpx xmlns="http://www.topografix.com/GPX/1/1" xmlns:xsi="http://www.w3.org/2001/XMLSchema-instance" xsi:schemaLocation="http://www.topografix.com/GPX/1/1 http://www.topografix.com/GPX/1/1/gpx.xsd" version="1.1" creator="VisuGPX - https://www.visugpx.com">
  <metadata>
    <name>30/06/2016 Vaison - Beaume de Venise et retour</name>
    <desc><![CDATA[Itinéraire de vacances en vélo électrique (VTC).]]></desc>
  </metadata>
  <trk>
    <name><![CDATA[30/06/2016 Vaison - Beaume de Venise et retour_1]]></name>
    <trkseg>
      <trkpt lat="44.2343" lon="5.08963">
        <ele>220</ele>
        <time>2016-06-30T08:22:22.000Z</time>
      </trkpt>
      <trkpt lat="44.2343" lon="5.08963">
        <ele>220</ele>
        <time>2016-06-30T08:22:23.000Z</time>
      </trkpt>
      <trkpt lat="44.23429" lon="5.0896">
        <ele>220</ele>
        <time>2016-06-30T08:22:24.000Z</time>
      </trkpt>
      <trkpt lat="44.23429" lon="5.08957">
        <ele>220</ele>
        <time>2016-06-30T08:22:25.000Z</time>
      </trkpt>
      <trkpt lat="44.23428" lon="5.08953">
        <ele>220</ele>
        <time>2016-06-30T08:22:26.000Z</time>
      </trkpt>
      <trkpt lat="44.23427" lon="5.08949">
        <ele>220</ele>
        <time>2016-06-30T08:22:27.000Z</time>
      </trkpt>
      <trkpt lat="44.23426" lon="5.08945">
        <ele>220</ele>
        <time>2016-06-30T08:22:28.000Z</time>
      </trkpt>
      <trkpt lat="44.23424" lon="5.08941">
        <ele>220</ele>
        <time>2016-06-30T08:22:29.000Z</time>
      </trkpt>
      <trkpt lat="44.23423" lon="5.08937">
        <ele>220</ele>
        <time>2016-06-30T08:22:30.000Z</time>
      </trkpt>
      <trkpt lat="44.23421" lon="5.08933">
        <ele>220</ele>
        <time>2016-06-30T08:22:31.000Z</time>
      </trkpt>
      <trkpt lat="44.2342" lon="5.0893">
        <ele>220</ele>
        <time>2016-06-30T08:22:32.000Z</time>
      </trkpt>
      <trkpt lat="44.23418" lon="5.08927">
        <ele>220</ele>
        <time>2016-06-30T08:22:33.000Z</time>
      </trkpt>
      <trkpt lat="44.23417" lon="5.08924">
        <ele>220</ele>
        <time>2016-06-30T08:22:34.000Z</time>
      </trkpt>
      <trkpt lat="44.23415" lon="5.08921">
        <ele>220</ele>
        <time>2016-06-30T08:22:35.000Z</time>
      </trkpt>
      <trkpt lat="44.23414" lon="5.08919">
        <ele>220</ele>
        <time>2016-06-30T08:22:36.000Z</time>
      </trkpt>
      <trkpt lat="44.23412" lon="5.08917">
        <ele>219</ele>
        <time>2016-06-30T08:22:37.000Z</time>
      </trkpt>
      <trkpt lat="44.2341" lon="5.08915">
        <ele>219</ele>
        <time>2016-06-30T08:22:38.000Z</time>
      </trkpt>
      <trkpt lat="44.23407" lon="5.08913">
        <ele>218</ele>
        <time>2016-06-30T08:22:39.000Z</time>
      </trkpt>
      <trkpt lat="44.23404" lon="5.08911">
        <ele>217</ele>
        <time>2016-06-30T08:22:40.000Z</time>
      </trkpt>
      <trkpt lat="44.23401" lon="5.0891">
        <ele>216</ele>
        <time>2016-06-30T08:22:41.000Z</time>
      </trkpt>
      <trkpt lat="44.23397" lon="5.0891">
        <ele>216</ele>
        <time>2016-06-30T08:22:42.000Z</time>
      </trkpt>
      <trkpt lat="44.23393" lon="5.08911">
        <ele>215</ele>
        <time>2016-06-30T08:22:43.000Z</time>
      </trkpt>
      <trkpt lat="44.23389" lon="5.08912">
        <ele>216</ele>
        <time>2016-06-30T08:22:44.000Z</time>
      </trkpt>
      <trkpt lat="44.23385" lon="5.08915">
        <ele>216</ele>
        <time>2016-06-30T08:22:45.000Z</time>
      </trkpt>
      <trkpt lat="44.23381" lon="5.08918">
        <ele>215</ele>
        <time>2016-06-30T08:22:46.000Z</time>
      </trkpt>
      <trkpt lat="44.23378" lon="5.08922">
        <ele>215</ele>
        <time>2016-06-30T08:22:47.000Z</time>
      </trkpt>
      <trkpt lat="44.23374" lon="5.08925">
        <ele>215</ele>
        <time>2016-06-30T08:22:48.000Z</time>
      </trkpt>
      <trkpt lat="44.23371" lon="5.08929">
        <ele>215</ele>
        <time>2016-06-30T08:22:49.000Z</time>
      </trkpt>
      <trkpt lat="44.23369" lon="5.08932">
        <ele>215</ele>
        <time>2016-06-30T08:22:50.000Z</time>
      </trkpt>
      <trkpt lat="44.23366" lon="5.08935">
        <ele>215</ele>
        <time>2016-06-30T08:22:51.000Z</time>
      </trkpt>
      <trkpt lat="44.23363" lon="5.08937">
        <ele>215</ele>
        <time>2016-06-30T08:22:52.000Z</time>
      </trkpt>
      <trkpt lat="44.23361" lon="5.08938">
        <ele>214</ele>
        <time>2016-06-30T08:22:53.000Z</time>
      </trkpt>
      <trkpt lat="44.23359" lon="5.08937">
        <ele>214</ele>
        <time>2016-06-30T08:22:54.000Z</time>
      </trkpt>
      <trkpt lat="44.23357" lon="5.08937">
        <ele>213</ele>
        <time>2016-06-30T08:22:55.000Z</time>
      </trkpt>
      <trkpt lat="44.23356" lon="5.08936">
        <ele>214</ele>
        <time>2016-06-30T08:22:56.000Z</time>
      </trkpt>
      <trkpt lat="44.23353" lon="5.08936">
        <ele>213</ele>
        <time>2016-06-30T08:22:57.000Z</time>
      </trkpt>
      <trkpt lat="44.23352" lon="5.08934">
        <ele>212</ele>
        <time>2016-06-30T08:22:58.000Z</time>
      </trkpt>
      <trkpt lat="44.2335" lon="5.08932">
        <ele>212</ele>
        <time>2016-06-30T08:22:59.000Z</time>
      </trkpt>
      <trkpt lat="44.23349" lon="5.08928">
        <ele>212</ele>
        <time>2016-06-30T08:23:00.000Z</time>
      </trkpt>
      <trkpt lat="44.23348" lon="5.08925">
        <ele>212</ele>
        <time>2016-06-30T08:23:01.000Z</time>
      </trkpt>
      <trkpt lat="44.23345" lon="5.08923">
        <ele>212</ele>
        <time>2016-06-30T08:23:02.000Z</time>
      </trkpt>
      <trkpt lat="44.23342" lon="5.08921">
        <ele>211</ele>
        <time>2016-06-30T08:23:03.000Z</time>
      </trkpt>
      <trkpt lat="44.23338" lon="5.0892">
        <ele>211</ele>
        <time>2016-06-30T08:23:04.000Z</time>
      </trkpt>
      <trkpt lat="44.23334" lon="5.08921">
        <ele>211</ele>
        <time>2016-06-30T08:23:05.000Z</time>
      </trkpt>
      <trkpt lat="44.2333" lon="5.08922">
        <ele>211</ele>
        <time>2016-06-30T08:23:06.000Z</time>
      </trkpt>
      <trkpt lat="44.23326" lon="5.08924">
        <ele>211</ele>
        <time>2016-06-30T08:23:07.000Z</time>
      </trkpt>
      <trkpt lat="44.23322" lon="5.08926">
        <ele>211</ele>
        <time>2016-06-30T08:23:08.000Z</time>
      </trkpt>
      <trkpt lat="44.23318" lon="5.08929">
        <ele>211</ele>
        <time>2016-06-30T08:23:09.000Z</time>
      </trkpt>
      <trkpt lat="44.23314" lon="5.08931">
        <ele>211</ele>
        <time>2016-06-30T08:23:10.000Z</time>
      </trkpt>
      <trkpt lat="44.2331" lon="5.08934">
        <ele>211</ele>
        <time>2016-06-30T08:23:11.000Z</time>
      </trkpt>
      <trkpt lat="44.23306" lon="5.08937">
        <ele>211</ele>
        <time>2016-06-30T08:23:12.000Z</time>
      </trkpt>
      <trkpt lat="44.23302" lon="5.08939">
        <ele>211</ele>
        <time>2016-06-30T08:23:13.000Z</time>
      </trkpt>
      <trkpt lat="44.23298" lon="5.08942">
        <ele>212</ele>
        <time>2016-06-30T08:23:14.000Z</time>
      </trkpt>
      <trkpt lat="44.23293" lon="5.08944">
        <ele>212</ele>
        <time>2016-06-30T08:23:15.000Z</time>
      </trkpt>
      <trkpt lat="44.23289" lon="5.08946">
        <ele>212</ele>
        <time>2016-06-30T08:23:16.000Z</time>
      </trkpt>
      <trkpt lat="44.23285" lon="5.08948">
        <ele>211</ele>
        <time>2016-06-30T08:23:17.000Z</time>
      </trkpt>
      <trkpt lat="44.23281" lon="5.0895">
        <ele>211</ele>
        <time>2016-06-30T08:23:18.000Z</time>
      </trkpt>
      <trkpt lat="44.23277" lon="5.08952">
        <ele>211</ele>
        <time>2016-06-30T08:23:19.000Z</time>
      </trkpt>
      <trkpt lat="44.23272" lon="5.08954">
        <ele>211</ele>
        <time>2016-06-30T08:23:20.000Z</time>
      </trkpt>
      <trkpt lat="44.23268" lon="5.08955">
        <ele>212</ele>
        <time>2016-06-30T08:23:21.000Z</time>
      </trkpt>
      <trkpt lat="44.23264" lon="5.08957">
        <ele>212</ele>
        <time>2016-06-30T08:23:22.000Z</time>
      </trkpt>
      <trkpt lat="44.2326" lon="5.08958">
        <ele>212</ele>
        <time>2016-06-30T08:23:23.000Z</time>
      </trkpt>
      <trkpt lat="44.23256" lon="5.08959">
        <ele>212</ele>
        <time>2016-06-30T08:23:24.000Z</time>
      </trkpt>
      <trkpt lat="44.23251" lon="5.0896">
        <ele>212</ele>
        <time>2016-06-30T08:23:25.000Z</time>
      </trkpt>
      <trkpt lat="44.23247" lon="5.08961">
        <ele>212</ele>
        <time>2016-06-30T08:23:26.000Z</time>
      </trkpt>
      <trkpt lat="44.23243" lon="5.08962">
        <ele>212</ele>
        <time>2016-06-30T08:23:27.000Z</time>
      </trkpt>
      <trkpt lat="44.23239" lon="5.08963">
        <ele>212</ele>
        <time>2016-06-30T08:23:28.000Z</time>
      </trkpt>
      <trkpt lat="44.23234" lon="5.08964">
        <ele>212</ele>
        <time>2016-06-30T08:23:29.000Z</time>
      </trkpt>
      <trkpt lat="44.2323" lon="5.08964">
        <ele>212</ele>
        <time>2016-06-30T08:23:30.000Z</time>
      </trkpt>
      <trkpt lat="44.23225" lon="5.08964">
        <ele>212</ele>
        <time>2016-06-30T08:23:31.000Z</time>
      </trkpt>
      <trkpt lat="44.23221" lon="5.08964">
        <ele>212</ele>
        <time>2016-06-30T08:23:32.000Z</time>
      </trkpt>
      <trkpt lat="44.23216" lon="5.08964">
        <ele>212</ele>
        <time>2016-06-30T08:23:33.000Z</time>
      </trkpt>
      <trkpt lat="44.23212" lon="5.08964">
        <ele>212</ele>
        <time>2016-06-30T08:23:34.000Z</time>
      </trkpt>
      <trkpt lat="44.23208" lon="5.08964">
        <ele>212</ele>
        <time>2016-06-30T08:23:35.000Z</time>
      </trkpt>
      <trkpt lat="44.23203" lon="5.08963">
        <ele>212</ele>
        <time>2016-06-30T08:23:36.000Z</time>
      </trkpt>
      <trkpt lat="44.23199" lon="5.08963">
        <ele>212</ele>
        <time>2016-06-30T08:23:37.000Z</time>
      </trkpt>
      <trkpt lat="44.23195" lon="5.08962">
        <ele>212</ele>
        <time>2016-06-30T08:23:38.000Z</time>
      </trkpt>
      <trkpt lat="44.2319" lon="5.08961">
        <ele>213</ele>
        <time>2016-06-30T08:23:39.000Z</time>
      </trkpt>
      <trkpt lat="44.23186" lon="5.0896">
        <ele>213</ele>
        <time>2016-06-30T08:23:40.000Z</time>
      </trkpt>
      <trkpt lat="44.23181" lon="5.08959">
        <ele>213</ele>
        <time>2016-06-30T08:23:41.000Z</time>
      </trkpt>
      <trkpt lat="44.23177" lon="5.08958">
        <ele>213</ele>
        <time>2016-06-30T08:23:42.000Z</time>
      </trkpt>
      <trkpt lat="44.23173" lon="5.08957">
        <ele>213</ele>
        <time>2016-06-30T08:23:43.000Z</time>
      </trkpt>
      <trkpt lat="44.23168" lon="5.08956">
        <ele>213</ele>
        <time>2016-06-30T08:23:44.000Z</time>
      </trkpt>
      <trkpt lat="44.23164" lon="5.08955">
        <ele>213</ele>
        <time>2016-06-30T08:23:45.000Z</time>
      </trkpt>
      <trkpt lat="44.2316" lon="5.08954">
        <ele>213</ele>
        <time>2016-06-30T08:23:46.000Z</time>
      </trkpt>
      <trkpt lat="44.23156" lon="5.08953">
        <ele>213</ele>
        <time>2016-06-30T08:23:47.000Z</time>
      </trkpt>
      <trkpt lat="44.23152" lon="5.08951">
        <ele>213</ele>
        <time>2016-06-30T08:23:48.000Z</time>
      </trkpt>
      <trkpt lat="44.23148" lon="5.0895">
        <ele>213</ele>
        <time>2016-06-30T08:23:49.000Z</time>
      </trkpt>
      <trkpt lat="44.23144" lon="5.08949">
        <ele>213</ele>
        <time>2016-06-30T08:23:50.000Z</time>
      </trkpt>
      <trkpt lat="44.2314" lon="5.08948">
        <ele>213</ele>
        <time>2016-06-30T08:23:51.000Z</time>
      </trkpt>
      <trkpt lat="44.23136" lon="5.08946">
        <ele>213</ele>
        <time>2016-06-30T08:23:52.000Z</time>
      </trkpt>
      <trkpt lat="44.23132" lon="5.08945">
        <ele>213</ele>
        <time>2016-06-30T08:23:53.000Z</time>
      </trkpt>
      <trkpt lat="44.23128" lon="5.08944">
        <ele>213</ele>
        <time>2016-06-30T08:23:54.000Z</time>
      </trkpt>
      <trkpt lat="44.23125" lon="5.08942">
        <ele>213</ele>
        <time>2016-06-30T08:23:55.000Z</time>
      </trkpt>
      <trkpt lat="44.23121" lon="5.08941">
        <ele>213</ele>
        <time>2016-06-30T08:23:56.000Z</time>
      </trkpt>
      <trkpt lat="44.23117" lon="5.0894">
        <ele>213</ele>
        <time>2016-06-30T08:23:57.000Z</time>
      </trkpt>
      <trkpt lat="44.23113" lon="5.08938">
        <ele>213</ele>
        <time>2016-06-30T08:23:58.000Z</time>
      </trkpt>
      <trkpt lat="44.23109" lon="5.08937">
        <ele>213</ele>
        <time>2016-06-30T08:23:59.000Z</time>
      </trkpt>
      <trkpt lat="44.23105" lon="5.08936">
        <ele>213</ele>
        <time>2016-06-30T08:24:00.000Z</time>
      </trkpt>
      <trkpt lat="44.23101" lon="5.08934">
        <ele>213</ele>
        <time>2016-06-30T08:24:01.000Z</time>
      </trkpt>
      <trkpt lat="44.23097" lon="5.08933">
        <ele>213</ele>
        <time>2016-06-30T08:24:02.000Z</time>
      </trkpt>
      <trkpt lat="44.23093" lon="5.08932">
        <ele>213</ele>
        <time>2016-06-30T08:24:03.000Z</time>
      </trkpt>
      <trkpt lat="44.23089" lon="5.0893">
        <ele>214</ele>
        <time>2016-06-30T08:24:04.000Z</time>
      </trkpt>
      <trkpt lat="44.23085" lon="5.08929">
        <ele>214</ele>
        <time>2016-06-30T08:24:05.000Z</time>
      </trkpt>
      <trkpt lat="44.23081" lon="5.08928">
        <ele>214</ele>
        <time>2016-06-30T08:24:06.000Z</time>
      </trkpt>
      <trkpt lat="44.23077" lon="5.08926">
        <ele>214</ele>
        <time>2016-06-30T08:24:07.000Z</time>
      </trkpt>
      <trkpt lat="44.23073" lon="5.08925">
        <ele>214</ele>
        <time>2016-06-30T08:24:08.000Z</time>
      </trkpt>
      <trkpt lat="44.23069" lon="5.08924">
        <ele>214</ele>
        <time>2016-06-30T08:24:09.000Z</time>
      </trkpt>
      <trkpt lat="44.23065" lon="5.08923">
        <ele>214</ele>
        <time>2016-06-30T08:24:10.000Z</time>
      </trkpt>
      <trkpt lat="44.23061" lon="5.08921">
        <ele>214</ele>
        <time>2016-06-30T08:24:11.000Z</time>
      </trkpt>
      <trkpt lat="44.23057" lon="5.0892">
        <ele>214</ele>
        <time>2016-06-30T08:24:12.000Z</time>
      </trkpt>
      <trkpt lat="44.23053" lon="5.08918">
        <ele>214</ele>
        <time>2016-06-30T08:24:13.000Z</time>
      </trkpt>
      <trkpt lat="44.23048" lon="5.08917">
        <ele>214</ele>
        <time>2016-06-30T08:24:14.000Z</time>
      </trkpt>
      <trkpt lat="44.23044" lon="5.08916">
        <ele>214</ele>
        <time>2016-06-30T08:24:15.000Z</time>
      </trkpt>
      <trkpt lat="44.2304" lon="5.08914">
        <ele>214</ele>
        <time>2016-06-30T08:24:16.000Z</time>
      </trkpt>
      <trkpt lat="44.23035" lon="5.08913">
        <ele>214</ele>
        <time>2016-06-30T08:24:17.000Z</time>
      </trkpt>
      <trkpt lat="44.23031" lon="5.08911">
        <ele>214</ele>
        <time>2016-06-30T08:24:18.000Z</time>
      </trkpt>
      <trkpt lat="44.23027" lon="5.0891">
        <ele>214</ele>
        <time>2016-06-30T08:24:19.000Z</time>
      </trkpt>
      <trkpt lat="44.23023" lon="5.08908">
        <ele>214</ele>
        <time>2016-06-30T08:24:20.000Z</time>
      </trkpt>
      <trkpt lat="44.23019" lon="5.08906">
        <ele>214</ele>
        <time>2016-06-30T08:24:21.000Z</time>
      </trkpt>
      <trkpt lat="44.23014" lon="5.08905">
        <ele>214</ele>
        <time>2016-06-30T08:24:22.000Z</time>
      </trkpt>
      <trkpt lat="44.2301" lon="5.08903">
        <ele>214</ele>
        <time>2016-06-30T08:24:23.000Z</time>
      </trkpt>
      <trkpt lat="44.23006" lon="5.08901">
        <ele>214</ele>
        <time>2016-06-30T08:24:24.000Z</time>
      </trkpt>
      <trkpt lat="44.23002" lon="5.08899">
        <ele>214</ele>
        <time>2016-06-30T08:24:25.000Z</time>
      </trkpt>
      <trkpt lat="44.22998" lon="5.08897">
        <ele>214</ele>
        <time>2016-06-30T08:24:26.000Z</time>
      </trkpt>
      <trkpt lat="44.22994" lon="5.08895">
        <ele>214</ele>
        <time>2016-06-30T08:24:27.000Z</time>
      </trkpt>
      <trkpt lat="44.2299" lon="5.08893">
        <ele>214</ele>
        <time>2016-06-30T08:24:28.000Z</time>
      </trkpt>
      <trkpt lat="44.22986" lon="5.0889">
        <ele>214</ele>
        <time>2016-06-30T08:24:29.000Z</time>
      </trkpt>
      <trkpt lat="44.22982" lon="5.08888">
        <ele>214</ele>
        <time>2016-06-30T08:24:30.000Z</time>
      </trkpt>
      <trkpt lat="44.22979" lon="5.08886">
        <ele>214</ele>
        <time>2016-06-30T08:24:31.000Z</time>
      </trkpt>
      <trkpt lat="44.22975" lon="5.08883">
        <ele>214</ele>
        <time>2016-06-30T08:24:32.000Z</time>
      </trkpt>
      <trkpt lat="44.22972" lon="5.08881">
        <ele>214</ele>
        <time>2016-06-30T08:24:33.000Z</time>
      </trkpt>
      <trkpt lat="44.22968" lon="5.08878">
        <ele>214</ele>
        <time>2016-06-30T08:24:34.000Z</time>
      </trkpt>
      <trkpt lat="44.22965" lon="5.08876">
        <ele>214</ele>
        <time>2016-06-30T08:24:35.000Z</time>
      </trkpt>
      <trkpt lat="44.22961" lon="5.08873">
        <ele>214</ele>
        <time>2016-06-30T08:24:36.000Z</time>
      </trkpt>
      <trkpt lat="44.22958" lon="5.08871">
        <ele>215</ele>
        <time>2016-06-30T08:24:37.000Z</time>
      </trkpt>
      <trkpt lat="44.22954" lon="5.08868">
        <ele>215</ele>
        <time>2016-06-30T08:24:38.000Z</time>
      </trkpt>
      <trkpt lat="44.2295" lon="5.08865">
        <ele>215</ele>
        <time>2016-06-30T08:24:39.000Z</time>
      </trkpt>
      <trkpt lat="44.22947" lon="5.08862">
        <ele>215</ele>
        <time>2016-06-30T08:24:40.000Z</time>
      </trkpt>
      <trkpt lat="44.22943" lon="5.0886">
        <ele>215</ele>
        <time>2016-06-30T08:24:41.000Z</time>
      </trkpt>
      <trkpt lat="44.2294" lon="5.08857">
        <ele>215</ele>
        <time>2016-06-30T08:24:42.000Z</time>
      </trkpt>
      <trkpt lat="44.22936" lon="5.08854">
        <ele>215</ele>
        <time>2016-06-30T08:24:43.000Z</time>
      </trkpt>
      <trkpt lat="44.22933" lon="5.08852">
        <ele>215</ele>
        <time>2016-06-30T08:24:44.000Z</time>
      </trkpt>
      <trkpt lat="44.2293" lon="5.08849">
        <ele>215</ele>
        <time>2016-06-30T08:24:45.000Z</time>
      </trkpt>
      <trkpt lat="44.22926" lon="5.08847">
        <ele>215</ele>
        <time>2016-06-30T08:24:46.000Z</time>
      </trkpt>
      <trkpt lat="44.22923" lon="5.08844">
        <ele>215</ele>
        <time>2016-06-30T08:24:47.000Z</time>
      </trkpt>
      <trkpt lat="44.2292" lon="5.08842">
        <ele>215</ele>
        <time>2016-06-30T08:24:48.000Z</time>
      </trkpt>
      <trkpt lat="44.22917" lon="5.0884">
        <ele>214</ele>
        <time>2016-06-30T08:24:49.000Z</time>
      </trkpt>
      <trkpt lat="44.22914" lon="5.08837">
        <ele>214</ele>
        <time>2016-06-30T08:24:50.000Z</time>
      </trkpt>
      <trkpt lat="44.22911" lon="5.08835">
        <ele>214</ele>
        <time>2016-06-30T08:24:51.000Z</time>
      </trkpt>
      <trkpt lat="44.22908" lon="5.08831">
        <ele>214</ele>
        <time>2016-06-30T08:24:52.000Z</time>
      </trkpt>
      <trkpt lat="44.22906" lon="5.08827">
        <ele>214</ele>
        <time>2016-06-30T08:24:53.000Z</time>
      </trkpt>
      <trkpt lat="44.22904" lon="5.08823">
        <ele>214</ele>
        <time>2016-06-30T08:24:54.000Z</time>
      </trkpt>
      <trkpt lat="44.22903" lon="5.08819">
        <ele>213</ele>
        <time>2016-06-30T08:24:55.000Z</time>
      </trkpt>
      <trkpt lat="44.22901" lon="5.08815">
        <ele>213</ele>
        <time>2016-06-30T08:24:56.000Z</time>
      </trkpt>
      <trkpt lat="44.229" lon="5.08812">
        <ele>213</ele>
        <time>2016-06-30T08:24:57.000Z</time>
      </trkpt>
      <trkpt lat="44.22898" lon="5.08809">
        <ele>213</ele>
        <time>2016-06-30T08:24:58.000Z</time>
      </trkpt>
      <trkpt lat="44.22897" lon="5.08806">
        <ele>213</ele>
        <time>2016-06-30T08:24:59.000Z</time>
      </trkpt>
      <trkpt lat="44.22896" lon="5.08804">
        <ele>213</ele>
        <time>2016-06-30T08:25:00.000Z</time>
      </trkpt>
      <trkpt lat="44.22895" lon="5.08801">
        <ele>213</ele>
        <time>2016-06-30T08:25:01.000Z</time>
      </trkpt>
      <trkpt lat="44.22893" lon="5.08798">
        <ele>213</ele>
        <time>2016-06-30T08:25:02.000Z</time>
      </trkpt>
      <trkpt lat="44.22891" lon="5.08796">
        <ele>212</ele>
        <time>2016-06-30T08:25:03.000Z</time>
      </trkpt>
      <trkpt lat="44.22888" lon="5.08796">
        <ele>211</ele>
        <time>2016-06-30T08:25:04.000Z</time>
      </trkpt>
      <trkpt lat="44.22884" lon="5.08796">
        <ele>211</ele>
        <time>2016-06-30T08:25:05.000Z</time>
      </trkpt>
      <trkpt lat="44.22881" lon="5.08798">
        <ele>211</ele>
        <time>2016-06-30T08:25:06.000Z</time>
      </trkpt>
      <trkpt lat="44.22877" lon="5.088">
        <ele>211</ele>
        <time>2016-06-30T08:25:07.000Z</time>
      </trkpt>
      <trkpt lat="44.22874" lon="5.08801">
        <ele>211</ele>
        <time>2016-06-30T08:25:08.000Z</time>
      </trkpt>
      <trkpt lat="44.22871" lon="5.08803">
        <ele>211</ele>
        <time>2016-06-30T08:25:09.000Z</time>
      </trkpt>
      <trkpt lat="44.22867" lon="5.08805">
        <ele>211</ele>
        <time>2016-06-30T08:25:10.000Z</time>
      </trkpt>
      <trkpt lat="44.22863" lon="5.08807">
        <ele>211</ele>
        <time>2016-06-30T08:25:11.000Z</time>
      </trkpt>
      <trkpt lat="44.2286" lon="5.08809">
        <ele>212</ele>
        <time>2016-06-30T08:25:12.000Z</time>
      </trkpt>
      <trkpt lat="44.22856" lon="5.08811">
        <ele>212</ele>
        <time>2016-06-30T08:25:13.000Z</time>
      </trkpt>
      <trkpt lat="44.22852" lon="5.08813">
        <ele>212</ele>
        <time>2016-06-30T08:25:14.000Z</time>
      </trkpt>
      <trkpt lat="44.22849" lon="5.08814">
        <ele>212</ele>
        <time>2016-06-30T08:25:15.000Z</time>
      </trkpt>
      <trkpt lat="44.22845" lon="5.08816">
        <ele>212</ele>
        <time>2016-06-30T08:25:16.000Z</time>
      </trkpt>
      <trkpt lat="44.22841" lon="5.08816">
        <ele>212</ele>
        <time>2016-06-30T08:25:17.000Z</time>
      </trkpt>
      <trkpt lat="44.22837" lon="5.08817">
        <ele>213</ele>
        <time>2016-06-30T08:25:18.000Z</time>
      </trkpt>
      <trkpt lat="44.22833" lon="5.08818">
        <ele>213</ele>
        <time>2016-06-30T08:25:19.000Z</time>
      </trkpt>
      <trkpt lat="44.22829" lon="5.08818">
        <ele>213</ele>
        <time>2016-06-30T08:25:20.000Z</time>
      </trkpt>
      <trkpt lat="44.22825" lon="5.08818">
        <ele>214</ele>
        <time>2016-06-30T08:25:21.000Z</time>
      </trkpt>
      <trkpt lat="44.22821" lon="5.08818">
        <ele>214</ele>
        <time>2016-06-30T08:25:22.000Z</time>
      </trkpt>
      <trkpt lat="44.22818" lon="5.08818">
        <ele>214</ele>
        <time>2016-06-30T08:25:23.000Z</time>
      </trkpt>
      <trkpt lat="44.22814" lon="5.08818">
        <ele>214</ele>
        <time>2016-06-30T08:25:24.000Z</time>
      </trkpt>
      <trkpt lat="44.2281" lon="5.08818">
        <ele>215</ele>
        <time>2016-06-30T08:25:25.000Z</time>
      </trkpt>
      <trkpt lat="44.22807" lon="5.08818">
        <ele>215</ele>
        <time>2016-06-30T08:25:26.000Z</time>
      </trkpt>
      <trkpt lat="44.22803" lon="5.08818">
        <ele>215</ele>
        <time>2016-06-30T08:25:27.000Z</time>
      </trkpt>
      <trkpt lat="44.22799" lon="5.08818">
        <ele>215</ele>
        <time>2016-06-30T08:25:28.000Z</time>
      </trkpt>
      <trkpt lat="44.22796" lon="5.08818">
        <ele>215</ele>
        <time>2016-06-30T08:25:29.000Z</time>
      </trkpt>
      <trkpt lat="44.22792" lon="5.08818">
        <ele>215</ele>
        <time>2016-06-30T08:25:30.000Z</time>
      </trkpt>
      <trkpt lat="44.22789" lon="5.08818">
        <ele>215</ele>
        <time>2016-06-30T08:25:31.000Z</time>
      </trkpt>
      <trkpt lat="44.22786" lon="5.08818">
        <ele>215</ele>
        <time>2016-06-30T08:25:32.000Z</time>
      </trkpt>
      <trkpt lat="44.22782" lon="5.08818">
        <ele>216</ele>
        <time>2016-06-30T08:25:33.000Z</time>
      </trkpt>
      <trkpt lat="44.22779" lon="5.08817">
        <ele>216</ele>
        <time>2016-06-30T08:25:34.000Z</time>
      </trkpt>
      <trkpt lat="44.22775" lon="5.08817">
        <ele>216</ele>
        <time>2016-06-30T08:25:35.000Z</time>
      </trkpt>
      <trkpt lat="44.22772" lon="5.08817">
        <ele>216</ele>
        <time>2016-06-30T08:25:36.000Z</time>
      </trkpt>
      <trkpt lat="44.22768" lon="5.08817">
        <ele>216</ele>
        <time>2016-06-30T08:25:37.000Z</time>
      </trkpt>
      <trkpt lat="44.22765" lon="5.08817">
        <ele>217</ele>
        <time>2016-06-30T08:25:38.000Z</time>
      </trkpt>
      <trkpt lat="44.22761" lon="5.08818">
        <ele>217</ele>
        <time>2016-06-30T08:25:39.000Z</time>
      </trkpt>
      <trkpt lat="44.22758" lon="5.08818">
        <ele>217</ele>
        <time>2016-06-30T08:25:40.000Z</time>
      </trkpt>
      <trkpt lat="44.22754" lon="5.08818">
        <ele>217</ele>
        <time>2016-06-30T08:25:41.000Z</time>
      </trkpt>
      <trkpt lat="44.22751" lon="5.08818">
        <ele>217</ele>
        <time>2016-06-30T08:25:42.000Z</time>
      </trkpt>
      <trkpt lat="44.22747" lon="5.08818">
        <ele>218</ele>
        <time>2016-06-30T08:25:43.000Z</time>
      </trkpt>
      <trkpt lat="44.22743" lon="5.08818">
        <ele>218</ele>
        <time>2016-06-30T08:25:44.000Z</time>
      </trkpt>
      <trkpt lat="44.2274" lon="5.08818">
        <ele>218</ele>
        <time>2016-06-30T08:25:45.000Z</time>
      </trkpt>
      <trkpt lat="44.22736" lon="5.08818">
        <ele>218</ele>
        <time>2016-06-30T08:25:46.000Z</time>
      </trkpt>
      <trkpt lat="44.22732" lon="5.08818">
        <ele>218</ele>
        <time>2016-06-30T08:25:47.000Z</time>
      </trkpt>
      <trkpt lat="44.22729" lon="5.08818">
        <ele>218</ele>
        <time>2016-06-30T08:25:48.000Z</time>
      </trkpt>
      <trkpt lat="44.22725" lon="5.08818">
        <ele>219</ele>
        <time>2016-06-30T08:25:49.000Z</time>
      </trkpt>
      <trkpt lat="44.22721" lon="5.08818">
        <ele>219</ele>
        <time>2016-06-30T08:25:50.000Z</time>
      </trkpt>
      <trkpt lat="44.22718" lon="5.08818">
        <ele>219</ele>
        <time>2016-06-30T08:25:51.000Z</time>
      </trkpt>
      <trkpt lat="44.22714" lon="5.08818">
        <ele>219</ele>
        <time>2016-06-30T08:25:52.000Z</time>
      </trkpt>
      <trkpt lat="44.2271" lon="5.08819">
        <ele>219</ele>
        <time>2016-06-30T08:25:53.000Z</time>
      </trkpt>
      <trkpt lat="44.22707" lon="5.08819">
        <ele>219</ele>
        <time>2016-06-30T08:25:54.000Z</time>
      </trkpt>
      <trkpt lat="44.22703" lon="5.08819">
        <ele>220</ele>
        <time>2016-06-30T08:25:55.000Z</time>
      </trkpt>
      <trkpt lat="44.227" lon="5.08819">
        <ele>220</ele>
        <time>2016-06-30T08:25:56.000Z</time>
      </trkpt>
      <trkpt lat="44.22696" lon="5.08819">
        <ele>220</ele>
        <time>2016-06-30T08:25:57.000Z</time>
      </trkpt>
      <trkpt lat="44.22693" lon="5.0882">
        <ele>221</ele>
        <time>2016-06-30T08:25:58.000Z</time>
      </trkpt>
      <trkpt lat="44.2269" lon="5.08821">
        <ele>221</ele>
        <time>2016-06-30T08:25:59.000Z</time>
      </trkpt>
      <trkpt lat="44.22687" lon="5.08821">
        <ele>221</ele>
        <time>2016-06-30T08:26:00.000Z</time>
      </trkpt>
      <trkpt lat="44.22683" lon="5.08822">
        <ele>222</ele>
        <time>2016-06-30T08:26:01.000Z</time>
      </trkpt>
      <trkpt lat="44.22679" lon="5.08823">
        <ele>223</ele>
        <time>2016-06-30T08:26:02.000Z</time>
      </trkpt>
      <trkpt lat="44.22675" lon="5.08823">
        <ele>223</ele>
        <time>2016-06-30T08:26:03.000Z</time>
      </trkpt>
      <trkpt lat="44.22671" lon="5.08824">
        <ele>223</ele>
        <time>2016-06-30T08:26:04.000Z</time>
      </trkpt>
      <trkpt lat="44.22667" lon="5.08824">
        <ele>224</ele>
        <time>2016-06-30T08:26:05.000Z</time>
      </trkpt>
      <trkpt lat="44.22663" lon="5.08825">
        <ele>224</ele>
        <time>2016-06-30T08:26:06.000Z</time>
      </trkpt>
      <trkpt lat="44.22659" lon="5.08825">
        <ele>224</ele>
        <time>2016-06-30T08:26:07.000Z</time>
      </trkpt>
      <trkpt lat="44.22655" lon="5.08825">
        <ele>224</ele>
        <time>2016-06-30T08:26:08.000Z</time>
      </trkpt>
      <trkpt lat="44.22651" lon="5.08826">
        <ele>225</ele>
        <time>2016-06-30T08:26:09.000Z</time>
      </trkpt>
      <trkpt lat="44.22647" lon="5.08827">
        <ele>225</ele>
        <time>2016-06-30T08:26:10.000Z</time>
      </trkpt>
      <trkpt lat="44.22644" lon="5.08827">
        <ele>225</ele>
        <time>2016-06-30T08:26:11.000Z</time>
      </trkpt>
      <trkpt lat="44.2264" lon="5.08828">
        <ele>225</ele>
        <time>2016-06-30T08:26:12.000Z</time>
      </trkpt>
      <trkpt lat="44.22636" lon="5.08829">
        <ele>225</ele>
        <time>2016-06-30T08:26:13.000Z</time>
      </trkpt>
      <trkpt lat="44.22633" lon="5.08829">
        <ele>224</ele>
        <time>2016-06-30T08:26:14.000Z</time>
      </trkpt>
      <trkpt lat="44.22629" lon="5.08829">
        <ele>224</ele>
        <time>2016-06-30T08:26:15.000Z</time>
      </trkpt>
      <trkpt lat="44.22626" lon="5.0883">
        <ele>224</ele>
        <time>2016-06-30T08:26:16.000Z</time>
      </trkpt>
      <trkpt lat="44.22622" lon="5.08831">
        <ele>224</ele>
        <time>2016-06-30T08:26:17.000Z</time>
      </trkpt>
      <trkpt lat="44.22618" lon="5.08832">
        <ele>223</ele>
        <time>2016-06-30T08:26:18.000Z</time>
      </trkpt>
      <trkpt lat="44.22614" lon="5.08833">
        <ele>223</ele>
        <time>2016-06-30T08:26:19.000Z</time>
      </trkpt>
      <trkpt lat="44.2261" lon="5.08835">
        <ele>223</ele>
        <time>2016-06-30T08:26:20.000Z</time>
      </trkpt>
      <trkpt lat="44.22607" lon="5.08836">
        <ele>223</ele>
        <time>2016-06-30T08:26:21.000Z</time>
      </trkpt>
      <trkpt lat="44.22603" lon="5.08837">
        <ele>223</ele>
        <time>2016-06-30T08:26:22.000Z</time>
      </trkpt>
      <trkpt lat="44.22599" lon="5.08839">
        <ele>224</ele>
        <time>2016-06-30T08:26:23.000Z</time>
      </trkpt>
      <trkpt lat="44.22596" lon="5.08841">
        <ele>224</ele>
        <time>2016-06-30T08:26:24.000Z</time>
      </trkpt>
      <trkpt lat="44.22592" lon="5.08843">
        <ele>224</ele>
        <time>2016-06-30T08:26:25.000Z</time>
      </trkpt>
      <trkpt lat="44.22588" lon="5.08845">
        <ele>224</ele>
        <time>2016-06-30T08:26:26.000Z</time>
      </trkpt>
      <trkpt lat="44.22585" lon="5.08847">
        <ele>224</ele>
        <time>2016-06-30T08:26:27.000Z</time>
      </trkpt>
      <trkpt lat="44.22581" lon="5.08849">
        <ele>224</ele>
        <time>2016-06-30T08:26:28.000Z</time>
      </trkpt>
      <trkpt lat="44.22578" lon="5.08851">
        <ele>224</ele>
        <time>2016-06-30T08:26:29.000Z</time>
      </trkpt>
      <trkpt lat="44.22575" lon="5.08853">
        <ele>224</ele>
        <time>2016-06-30T08:26:30.000Z</time>
      </trkpt>
      <trkpt lat="44.22572" lon="5.08855">
        <ele>224</ele>
        <time>2016-06-30T08:26:31.000Z</time>
      </trkpt>
      <trkpt lat="44.2257" lon="5.08857">
        <ele>223</ele>
        <time>2016-06-30T08:26:32.000Z</time>
      </trkpt>
      <trkpt lat="44.22567" lon="5.08859">
        <ele>224</ele>
        <time>2016-06-30T08:26:33.000Z</time>
      </trkpt>
      <trkpt lat="44.22564" lon="5.08861">
        <ele>224</ele>
        <time>2016-06-30T08:26:34.000Z</time>
      </trkpt>
      <trkpt lat="44.22561" lon="5.08864">
        <ele>223</ele>
        <time>2016-06-30T08:26:35.000Z</time>
      </trkpt>
      <trkpt lat="44.22558" lon="5.08866">
        <ele>223</ele>
        <time>2016-06-30T08:26:36.000Z</time>
      </trkpt>
      <trkpt lat="44.22554" lon="5.08869">
        <ele>223</ele>
        <time>2016-06-30T08:26:37.000Z</time>
      </trkpt>
      <trkpt lat="44.2255" lon="5.08872">
        <ele>223</ele>
        <time>2016-06-30T08:26:38.000Z</time>
      </trkpt>
      <trkpt lat="44.22547" lon="5.08875">
        <ele>224</ele>
        <time>2016-06-30T08:26:39.000Z</time>
      </trkpt>
      <trkpt lat="44.22543" lon="5.08878">
        <ele>224</ele>
        <time>2016-06-30T08:26:40.000Z</time>
      </trkpt>
      <trkpt lat="44.22539" lon="5.08881">
        <ele>224</ele>
        <time>2016-06-30T08:26:41.000Z</time>
      </trkpt>
      <trkpt lat="44.22536" lon="5.08884">
        <ele>224</ele>
        <time>2016-06-30T08:26:42.000Z</time>
      </trkpt>
      <trkpt lat="44.22532" lon="5.08887">
        <ele>224</ele>
        <time>2016-06-30T08:26:43.000Z</time>
      </trkpt>
      <trkpt lat="44.22528" lon="5.0889">
        <ele>224</ele>
        <time>2016-06-30T08:26:44.000Z</time>
      </trkpt>
      <trkpt lat="44.22525" lon="5.08894">
        <ele>224</ele>
        <time>2016-06-30T08:26:45.000Z</time>
      </trkpt>
      <trkpt lat="44.22521" lon="5.08897">
        <ele>224</ele>
        <time>2016-06-30T08:26:46.000Z</time>
      </trkpt>
      <trkpt lat="44.22517" lon="5.08901">
        <ele>225</ele>
        <time>2016-06-30T08:26:47.000Z</time>
      </trkpt>
      <trkpt lat="44.22514" lon="5.08904">
        <ele>225</ele>
        <time>2016-06-30T08:26:48.000Z</time>
      </trkpt>
      <trkpt lat="44.22511" lon="5.08908">
        <ele>225</ele>
        <time>2016-06-30T08:26:49.000Z</time>
      </trkpt>
      <trkpt lat="44.22507" lon="5.08912">
        <ele>225</ele>
        <time>2016-06-30T08:26:50.000Z</time>
      </trkpt>
      <trkpt lat="44.22504" lon="5.08916">
        <ele>225</ele>
        <time>2016-06-30T08:26:51.000Z</time>
      </trkpt>
      <trkpt lat="44.22501" lon="5.0892">
        <ele>225</ele>
        <time>2016-06-30T08:26:52.000Z</time>
      </trkpt>
      <trkpt lat="44.22498" lon="5.08925">
        <ele>225</ele>
        <time>2016-06-30T08:26:53.000Z</time>
      </trkpt>
      <trkpt lat="44.22495" lon="5.08929">
        <ele>225</ele>
        <time>2016-06-30T08:26:54.000Z</time>
      </trkpt>
      <trkpt lat="44.22492" lon="5.08933">
        <ele>225</ele>
        <time>2016-06-30T08:26:55.000Z</time>
      </trkpt>
      <trkpt lat="44.22489" lon="5.08937">
        <ele>225</ele>
        <time>2016-06-30T08:26:56.000Z</time>
      </trkpt>
      <trkpt lat="44.22486" lon="5.08942">
        <ele>225</ele>
        <time>2016-06-30T08:26:57.000Z</time>
      </trkpt>
      <trkpt lat="44.22483" lon="5.08946">
        <ele>225</ele>
        <time>2016-06-30T08:26:58.000Z</time>
      </trkpt>
      <trkpt lat="44.2248" lon="5.0895">
        <ele>225</ele>
        <time>2016-06-30T08:26:59.000Z</time>
      </trkpt>
      <trkpt lat="44.22477" lon="5.08955">
        <ele>225</ele>
        <time>2016-06-30T08:27:00.000Z</time>
      </trkpt>
      <trkpt lat="44.22474" lon="5.08959">
        <ele>225</ele>
        <time>2016-06-30T08:27:01.000Z</time>
      </trkpt>
      <trkpt lat="44.22471" lon="5.08964">
        <ele>225</ele>
        <time>2016-06-30T08:27:02.000Z</time>
      </trkpt>
      <trkpt lat="44.22468" lon="5.08968">
        <ele>226</ele>
        <time>2016-06-30T08:27:03.000Z</time>
      </trkpt>
      <trkpt lat="44.22465" lon="5.08973">
        <ele>226</ele>
        <time>2016-06-30T08:27:04.000Z</time>
      </trkpt>
      <trkpt lat="44.22462" lon="5.08977">
        <ele>226</ele>
        <time>2016-06-30T08:27:05.000Z</time>
      </trkpt>
      <trkpt lat="44.22459" lon="5.08982">
        <ele>226</ele>
        <time>2016-06-30T08:27:06.000Z</time>
      </trkpt>
      <trkpt lat="44.22456" lon="5.08987">
        <ele>226</ele>
        <time>2016-06-30T08:27:07.000Z</time>
      </trkpt>
      <trkpt lat="44.22453" lon="5.08992">
        <ele>226</ele>
        <time>2016-06-30T08:27:08.000Z</time>
      </trkpt>
      <trkpt lat="44.2245" lon="5.08996">
        <ele>225</ele>
        <time>2016-06-30T08:27:09.000Z</time>
      </trkpt>
      <trkpt lat="44.22446" lon="5.09001">
        <ele>225</ele>
        <time>2016-06-30T08:27:10.000Z</time>
      </trkpt>
      <trkpt lat="44.22443" lon="5.09006">
        <ele>226</ele>
        <time>2016-06-30T08:27:11.000Z</time>
      </trkpt>
      <trkpt lat="44.2244" lon="5.0901">
        <ele>226</ele>
        <time>2016-06-30T08:27:12.000Z</time>
      </trkpt>
      <trkpt lat="44.22437" lon="5.09015">
        <ele>225</ele>
        <time>2016-06-30T08:27:13.000Z</time>
      </trkpt>
      <trkpt lat="44.22434" lon="5.09019">
        <ele>226</ele>
        <time>2016-06-30T08:27:14.000Z</time>
      </trkpt>
      <trkpt lat="44.22431" lon="5.09024">
        <ele>226</ele>
        <time>2016-06-30T08:27:15.000Z</time>
      </trkpt>
      <trkpt lat="44.22428" lon="5.09028">
        <ele>226</ele>
        <time>2016-06-30T08:27:16.000Z</time>
      </trkpt>
      <trkpt lat="44.22426" lon="5.09032">
        <ele>226</ele>
        <time>2016-06-30T08:27:17.000Z</time>
      </trkpt>
      <trkpt lat="44.22423" lon="5.09036">
        <ele>226</ele>
        <time>2016-06-30T08:27:18.000Z</time>
      </trkpt>
      <trkpt lat="44.2242" lon="5.09041">
        <ele>226</ele>
        <time>2016-06-30T08:27:19.000Z</time>
      </trkpt>
      <trkpt lat="44.22417" lon="5.09045">
        <ele>226</ele>
        <time>2016-06-30T08:27:20.000Z</time>
      </trkpt>
      <trkpt lat="44.22414" lon="5.0905">
        <ele>226</ele>
        <time>2016-06-30T08:27:21.000Z</time>
      </trkpt>
      <trkpt lat="44.22412" lon="5.09054">
        <ele>226</ele>
        <time>2016-06-30T08:27:22.000Z</time>
      </trkpt>
      <trkpt lat="44.22409" lon="5.09059">
        <ele>225</ele>
        <time>2016-06-30T08:27:23.000Z</time>
      </trkpt>
      <trkpt lat="44.22406" lon="5.09064">
        <ele>225</ele>
        <time>2016-06-30T08:27:24.000Z</time>
      </trkpt>
      <trkpt lat="44.22404" lon="5.09068">
        <ele>225</ele>
        <time>2016-06-30T08:27:25.000Z</time>
      </trkpt>
      <trkpt lat="44.22401" lon="5.09073">
        <ele>225</ele>
        <time>2016-06-30T08:27:26.000Z</time>
      </trkpt>
      <trkpt lat="44.22399" lon="5.09078">
        <ele>225</ele>
        <time>2016-06-30T08:27:27.000Z</time>
      </trkpt>
      <trkpt lat="44.22396" lon="5.09084">
        <ele>225</ele>
        <time>2016-06-30T08:27:28.000Z</time>
      </trkpt>
      <trkpt lat="44.22394" lon="5.09089">
        <ele>225</ele>
        <time>2016-06-30T08:27:29.000Z</time>
      </trkpt>
      <trkpt lat="44.22391" lon="5.09094">
        <ele>225</ele>
        <time>2016-06-30T08:27:30.000Z</time>
      </trkpt>
      <trkpt lat="44.22389" lon="5.09099">
        <ele>225</ele>
        <time>2016-06-30T08:27:31.000Z</time>
      </trkpt>
      <trkpt lat="44.22387" lon="5.09105">
        <ele>225</ele>
        <time>2016-06-30T08:27:32.000Z</time>
      </trkpt>
      <trkpt lat="44.22385" lon="5.0911">
        <ele>225</ele>
        <time>2016-06-30T08:27:33.000Z</time>
      </trkpt>
      <trkpt lat="44.22383" lon="5.09115">
        <ele>225</ele>
        <time>2016-06-30T08:27:34.000Z</time>
      </trkpt>
      <trkpt lat="44.22381" lon="5.09121">
        <ele>225</ele>
        <time>2016-06-30T08:27:35.000Z</time>
      </trkpt>
      <trkpt lat="44.22379" lon="5.09126">
        <ele>225</ele>
        <time>2016-06-30T08:27:36.000Z</time>
      </trkpt>
      <trkpt lat="44.22377" lon="5.09132">
        <ele>225</ele>
        <time>2016-06-30T08:27:37.000Z</time>
      </trkpt>
      <trkpt lat="44.22376" lon="5.09138">
        <ele>225</ele>
        <time>2016-06-30T08:27:38.000Z</time>
      </trkpt>
      <trkpt lat="44.22374" lon="5.09143">
        <ele>225</ele>
        <time>2016-06-30T08:27:39.000Z</time>
      </trkpt>
      <trkpt lat="44.22372" lon="5.09149">
        <ele>225</ele>
        <time>2016-06-30T08:27:40.000Z</time>
      </trkpt>
      <trkpt lat="44.2237" lon="5.09154">
        <ele>225</ele>
        <time>2016-06-30T08:27:41.000Z</time>
      </trkpt>
      <trkpt lat="44.22368" lon="5.0916">
        <ele>224</ele>
        <time>2016-06-30T08:27:42.000Z</time>
      </trkpt>
      <trkpt lat="44.22367" lon="5.09165">
        <ele>224</ele>
        <time>2016-06-30T08:27:43.000Z</time>
      </trkpt>
      <trkpt lat="44.22365" lon="5.09171">
        <ele>224</ele>
        <time>2016-06-30T08:27:44.000Z</time>
      </trkpt>
      <trkpt lat="44.22363" lon="5.09176">
        <ele>224</ele>
        <time>2016-06-30T08:27:45.000Z</time>
      </trkpt>
      <trkpt lat="44.22362" lon="5.09181">
        <ele>224</ele>
        <time>2016-06-30T08:27:46.000Z</time>
      </trkpt>
      <trkpt lat="44.2236" lon="5.09187">
        <ele>224</ele>
        <time>2016-06-30T08:27:47.000Z</time>
      </trkpt>
      <trkpt lat="44.22359" lon="5.09192">
        <ele>224</ele>
        <time>2016-06-30T08:27:48.000Z</time>
      </trkpt>
      <trkpt lat="44.22357" lon="5.09198">
        <ele>224</ele>
        <time>2016-06-30T08:27:49.000Z</time>
      </trkpt>
      <trkpt lat="44.22356" lon="5.09203">
        <ele>224</ele>
        <time>2016-06-30T08:27:50.000Z</time>
      </trkpt>
      <trkpt lat="44.22354" lon="5.09209">
        <ele>224</ele>
        <time>2016-06-30T08:27:51.000Z</time>
      </trkpt>
      <trkpt lat="44.22352" lon="5.09214">
        <ele>224</ele>
        <time>2016-06-30T08:27:52.000Z</time>
      </trkpt>
      <trkpt lat="44.2235" lon="5.0922">
        <ele>225</ele>
        <time>2016-06-30T08:27:53.000Z</time>
      </trkpt>
      <trkpt lat="44.22349" lon="5.09226">
        <ele>225</ele>
        <time>2016-06-30T08:27:54.000Z</time>
      </trkpt>
      <trkpt lat="44.22347" lon="5.09231">
        <ele>225</ele>
        <time>2016-06-30T08:27:55.000Z</time>
      </trkpt>
      <trkpt lat="44.22345" lon="5.09237">
        <ele>225</ele>
        <time>2016-06-30T08:27:56.000Z</time>
      </trkpt>
      <trkpt lat="44.22344" lon="5.09243">
        <ele>225</ele>
        <time>2016-06-30T08:27:57.000Z</time>
      </trkpt>
      <trkpt lat="44.22342" lon="5.09248">
        <ele>225</ele>
        <time>2016-06-30T08:27:58.000Z</time>
      </trkpt>
      <trkpt lat="44.2234" lon="5.09254">
        <ele>225</ele>
        <time>2016-06-30T08:27:59.000Z</time>
      </trkpt>
      <trkpt lat="44.22338" lon="5.0926">
        <ele>225</ele>
        <time>2016-06-30T08:28:00.000Z</time>
      </trkpt>
      <trkpt lat="44.22337" lon="5.09266">
        <ele>226</ele>
        <time>2016-06-30T08:28:01.000Z</time>
      </trkpt>
      <trkpt lat="44.22335" lon="5.09272">
        <ele>226</ele>
        <time>2016-06-30T08:28:02.000Z</time>
      </trkpt>
      <trkpt lat="44.22333" lon="5.09277">
        <ele>226</ele>
        <time>2016-06-30T08:28:03.000Z</time>
      </trkpt>
      <trkpt lat="44.22331" lon="5.09283">
        <ele>226</ele>
        <time>2016-06-30T08:28:04.000Z</time>
      </trkpt>
      <trkpt lat="44.22329" lon="5.09289">
        <ele>226</ele>
        <time>2016-06-30T08:28:05.000Z</time>
      </trkpt>
      <trkpt lat="44.22327" lon="5.09294">
        <ele>226</ele>
        <time>2016-06-30T08:28:06.000Z</time>
      </trkpt>
      <trkpt lat="44.22325" lon="5.09299">
        <ele>226</ele>
        <time>2016-06-30T08:28:07.000Z</time>
      </trkpt>
      <trkpt lat="44.22323" lon="5.09305">
        <ele>226</ele>
        <time>2016-06-30T08:28:08.000Z</time>
      </trkpt>
      <trkpt lat="44.2232" lon="5.0931">
        <ele>226</ele>
        <time>2016-06-30T08:28:09.000Z</time>
      </trkpt>
      <trkpt lat="44.22318" lon="5.09315">
        <ele>226</ele>
        <time>2016-06-30T08:28:10.000Z</time>
      </trkpt>
      <trkpt lat="44.22315" lon="5.0932">
        <ele>226</ele>
        <time>2016-06-30T08:28:11.000Z</time>
      </trkpt>
      <trkpt lat="44.22312" lon="5.09325">
        <ele>226</ele>
        <time>2016-06-30T08:28:12.000Z</time>
      </trkpt>
      <trkpt lat="44.22309" lon="5.09329">
        <ele>226</ele>
        <time>2016-06-30T08:28:13.000Z</time>
      </trkpt>
      <trkpt lat="44.22306" lon="5.09334">
        <ele>226</ele>
        <time>2016-06-30T08:28:14.000Z</time>
      </trkpt>
      <trkpt lat="44.22303" lon="5.09338">
        <ele>226</ele>
        <time>2016-06-30T08:28:15.000Z</time>
      </trkpt>
      <trkpt lat="44.223" lon="5.09342">
        <ele>226</ele>
        <time>2016-06-30T08:28:16.000Z</time>
      </trkpt>
      <trkpt lat="44.22297" lon="5.09346">
        <ele>226</ele>
        <time>2016-06-30T08:28:17.000Z</time>
      </trkpt>
      <trkpt lat="44.22293" lon="5.0935">
        <ele>226</ele>
        <time>2016-06-30T08:28:18.000Z</time>
      </trkpt>
      <trkpt lat="44.2229" lon="5.09354">
        <ele>226</ele>
        <time>2016-06-30T08:28:19.000Z</time>
      </trkpt>
      <trkpt lat="44.22287" lon="5.09358">
        <ele>226</ele>
        <time>2016-06-30T08:28:20.000Z</time>
      </trkpt>
      <trkpt lat="44.22283" lon="5.09362">
        <ele>227</ele>
        <time>2016-06-30T08:28:21.000Z</time>
      </trkpt>
      <trkpt lat="44.2228" lon="5.09366">
        <ele>227</ele>
        <time>2016-06-30T08:28:22.000Z</time>
      </trkpt>
      <trkpt lat="44.22276" lon="5.0937">
        <ele>227</ele>
        <time>2016-06-30T08:28:23.000Z</time>
      </trkpt>
      <trkpt lat="44.22273" lon="5.09373">
        <ele>227</ele>
        <time>2016-06-30T08:28:24.000Z</time>
      </trkpt>
      <trkpt lat="44.2227" lon="5.09377">
        <ele>227</ele>
        <time>2016-06-30T08:28:25.000Z</time>
      </trkpt>
      <trkpt lat="44.22266" lon="5.09381">
        <ele>227</ele>
        <time>2016-06-30T08:28:26.000Z</time>
      </trkpt>
      <trkpt lat="44.22263" lon="5.09385">
        <ele>227</ele>
        <time>2016-06-30T08:28:27.000Z</time>
      </trkpt>
      <trkpt lat="44.22259" lon="5.09388">
        <ele>227</ele>
        <time>2016-06-30T08:28:28.000Z</time>
      </trkpt>
      <trkpt lat="44.22256" lon="5.09392">
        <ele>227</ele>
        <time>2016-06-30T08:28:29.000Z</time>
      </trkpt>
      <trkpt lat="44.22253" lon="5.09396">
        <ele>227</ele>
        <time>2016-06-30T08:28:30.000Z</time>
      </trkpt>
      <trkpt lat="44.22249" lon="5.094">
        <ele>227</ele>
        <time>2016-06-30T08:28:31.000Z</time>
      </trkpt>
      <trkpt lat="44.22246" lon="5.09404">
        <ele>227</ele>
        <time>2016-06-30T08:28:32.000Z</time>
      </trkpt>
      <trkpt lat="44.22243" lon="5.09407">
        <ele>227</ele>
        <time>2016-06-30T08:28:33.000Z</time>
      </trkpt>
      <trkpt lat="44.22239" lon="5.09411">
        <ele>227</ele>
        <time>2016-06-30T08:28:34.000Z</time>
      </trkpt>
      <trkpt lat="44.22236" lon="5.09414">
        <ele>227</ele>
        <time>2016-06-30T08:28:35.000Z</time>
      </trkpt>
      <trkpt lat="44.22232" lon="5.09418">
        <ele>227</ele>
        <time>2016-06-30T08:28:36.000Z</time>
      </trkpt>
      <trkpt lat="44.22229" lon="5.09422">
        <ele>227</ele>
        <time>2016-06-30T08:28:37.000Z</time>
      </trkpt>
      <trkpt lat="44.22225" lon="5.09425">
        <ele>227</ele>
        <time>2016-06-30T08:28:38.000Z</time>
      </trkpt>
      <trkpt lat="44.22222" lon="5.09429">
        <ele>227</ele>
        <time>2016-06-30T08:28:39.000Z</time>
      </trkpt>
      <trkpt lat="44.22219" lon="5.09433">
        <ele>227</ele>
        <time>2016-06-30T08:28:40.000Z</time>
      </trkpt>
      <trkpt lat="44.22215" lon="5.09437">
        <ele>227</ele>
        <time>2016-06-30T08:28:41.000Z</time>
      </trkpt>
      <trkpt lat="44.22212" lon="5.0944">
        <ele>227</ele>
        <time>2016-06-30T08:28:42.000Z</time>
      </trkpt>
      <trkpt lat="44.22208" lon="5.09444">
        <ele>227</ele>
        <time>2016-06-30T08:28:43.000Z</time>
      </trkpt>
      <trkpt lat="44.22204" lon="5.09448">
        <ele>227</ele>
        <time>2016-06-30T08:28:44.000Z</time>
      </trkpt>
      <trkpt lat="44.22201" lon="5.09452">
        <ele>227</ele>
        <time>2016-06-30T08:28:45.000Z</time>
      </trkpt>
      <trkpt lat="44.22197" lon="5.09456">
        <ele>227</ele>
        <time>2016-06-30T08:28:46.000Z</time>
      </trkpt>
      <trkpt lat="44.22193" lon="5.0946">
        <ele>227</ele>
        <time>2016-06-30T08:28:47.000Z</time>
      </trkpt>
      <trkpt lat="44.22189" lon="5.09464">
        <ele>227</ele>
        <time>2016-06-30T08:28:48.000Z</time>
      </trkpt>
      <trkpt lat="44.22186" lon="5.09467">
        <ele>227</ele>
        <time>2016-06-30T08:28:49.000Z</time>
      </trkpt>
      <trkpt lat="44.22182" lon="5.09471">
        <ele>227</ele>
        <time>2016-06-30T08:28:50.000Z</time>
      </trkpt>
      <trkpt lat="44.22178" lon="5.09475">
        <ele>227</ele>
        <time>2016-06-30T08:28:51.000Z</time>
      </trkpt>
      <trkpt lat="44.22174" lon="5.09479">
        <ele>228</ele>
        <time>2016-06-30T08:28:52.000Z</time>
      </trkpt>
      <trkpt lat="44.22171" lon="5.09483">
        <ele>228</ele>
        <time>2016-06-30T08:28:53.000Z</time>
      </trkpt>
      <trkpt lat="44.22167" lon="5.09487">
        <ele>228</ele>
        <time>2016-06-30T08:28:54.000Z</time>
      </trkpt>
      <trkpt lat="44.22163" lon="5.09491">
        <ele>228</ele>
        <time>2016-06-30T08:28:55.000Z</time>
      </trkpt>
      <trkpt lat="44.22159" lon="5.09495">
        <ele>228</ele>
        <time>2016-06-30T08:28:56.000Z</time>
      </trkpt>
      <trkpt lat="44.22156" lon="5.09498">
        <ele>228</ele>
        <time>2016-06-30T08:28:57.000Z</time>
      </trkpt>
      <trkpt lat="44.22152" lon="5.09502">
        <ele>228</ele>
        <time>2016-06-30T08:28:58.000Z</time>
      </trkpt>
      <trkpt lat="44.22148" lon="5.09506">
        <ele>228</ele>
        <time>2016-06-30T08:28:59.000Z</time>
      </trkpt>
      <trkpt lat="44.22144" lon="5.0951">
        <ele>228</ele>
        <time>2016-06-30T08:29:00.000Z</time>
      </trkpt>
      <trkpt lat="44.22141" lon="5.09514">
        <ele>228</ele>
        <time>2016-06-30T08:29:01.000Z</time>
      </trkpt>
      <trkpt lat="44.22137" lon="5.09518">
        <ele>228</ele>
        <time>2016-06-30T08:29:02.000Z</time>
      </trkpt>
      <trkpt lat="44.22133" lon="5.09522">
        <ele>228</ele>
        <time>2016-06-30T08:29:03.000Z</time>
      </trkpt>
      <trkpt lat="44.22129" lon="5.09526">
        <ele>228</ele>
        <time>2016-06-30T08:29:04.000Z</time>
      </trkpt>
      <trkpt lat="44.22126" lon="5.0953">
        <ele>228</ele>
        <time>2016-06-30T08:29:05.000Z</time>
      </trkpt>
      <trkpt lat="44.22122" lon="5.09534">
        <ele>228</ele>
        <time>2016-06-30T08:29:06.000Z</time>
      </trkpt>
      <trkpt lat="44.22118" lon="5.09538">
        <ele>229</ele>
        <time>2016-06-30T08:29:07.000Z</time>
      </trkpt>
      <trkpt lat="44.22114" lon="5.09541">
        <ele>228</ele>
        <time>2016-06-30T08:29:08.000Z</time>
      </trkpt>
      <trkpt lat="44.22111" lon="5.09545">
        <ele>228</ele>
        <time>2016-06-30T08:29:09.000Z</time>
      </trkpt>
      <trkpt lat="44.22107" lon="5.09549">
        <ele>229</ele>
        <time>2016-06-30T08:29:10.000Z</time>
      </trkpt>
      <trkpt lat="44.22103" lon="5.09553">
        <ele>229</ele>
        <time>2016-06-30T08:29:11.000Z</time>
      </trkpt>
      <trkpt lat="44.221" lon="5.09556">
        <ele>229</ele>
        <time>2016-06-30T08:29:12.000Z</time>
      </trkpt>
      <trkpt lat="44.22096" lon="5.0956">
        <ele>229</ele>
        <time>2016-06-30T08:29:13.000Z</time>
      </trkpt>
      <trkpt lat="44.22092" lon="5.09564">
        <ele>229</ele>
        <time>2016-06-30T08:29:14.000Z</time>
      </trkpt>
      <trkpt lat="44.22088" lon="5.09567">
        <ele>229</ele>
        <time>2016-06-30T08:29:15.000Z</time>
      </trkpt>
      <trkpt lat="44.22085" lon="5.09571">
        <ele>229</ele>
        <time>2016-06-30T08:29:16.000Z</time>
      </trkpt>
      <trkpt lat="44.22081" lon="5.09574">
        <ele>229</ele>
        <time>2016-06-30T08:29:17.000Z</time>
      </trkpt>
      <trkpt lat="44.22078" lon="5.09578">
        <ele>229</ele>
        <time>2016-06-30T08:29:18.000Z</time>
      </trkpt>
      <trkpt lat="44.22074" lon="5.09581">
        <ele>229</ele>
        <time>2016-06-30T08:29:19.000Z</time>
      </trkpt>
      <trkpt lat="44.2207" lon="5.09585">
        <ele>229</ele>
        <time>2016-06-30T08:29:20.000Z</time>
      </trkpt>
      <trkpt lat="44.22067" lon="5.09588">
        <ele>229</ele>
        <time>2016-06-30T08:29:21.000Z</time>
      </trkpt>
      <trkpt lat="44.22063" lon="5.09592">
        <ele>229</ele>
        <time>2016-06-30T08:29:22.000Z</time>
      </trkpt>
      <trkpt lat="44.22059" lon="5.09595">
        <ele>229</ele>
        <time>2016-06-30T08:29:23.000Z</time>
      </trkpt>
      <trkpt lat="44.22056" lon="5.09598">
        <ele>229</ele>
        <time>2016-06-30T08:29:24.000Z</time>
      </trkpt>
      <trkpt lat="44.22052" lon="5.09602">
        <ele>229</ele>
        <time>2016-06-30T08:29:25.000Z</time>
      </trkpt>
      <trkpt lat="44.22049" lon="5.09605">
        <ele>229</ele>
        <time>2016-06-30T08:29:26.000Z</time>
      </trkpt>
      <trkpt lat="44.22045" lon="5.09608">
        <ele>229</ele>
        <time>2016-06-30T08:29:27.000Z</time>
      </trkpt>
      <trkpt lat="44.22041" lon="5.09611">
        <ele>229</ele>
        <time>2016-06-30T08:29:28.000Z</time>
      </trkpt>
      <trkpt lat="44.22038" lon="5.09615">
        <ele>229</ele>
        <time>2016-06-30T08:29:29.000Z</time>
      </trkpt>
      <trkpt lat="44.22034" lon="5.09618">
        <ele>229</ele>
        <time>2016-06-30T08:29:30.000Z</time>
      </trkpt>
      <trkpt lat="44.2203" lon="5.09621">
        <ele>229</ele>
        <time>2016-06-30T08:29:31.000Z</time>
      </trkpt>
      <trkpt lat="44.22027" lon="5.09625">
        <ele>229</ele>
        <time>2016-06-30T08:29:32.000Z</time>
      </trkpt>
      <trkpt lat="44.22023" lon="5.09628">
        <ele>229</ele>
        <time>2016-06-30T08:29:33.000Z</time>
      </trkpt>
      <trkpt lat="44.22019" lon="5.09632">
        <ele>229</ele>
        <time>2016-06-30T08:29:34.000Z</time>
      </trkpt>
      <trkpt lat="44.22016" lon="5.09635">
        <ele>229</ele>
        <time>2016-06-30T08:29:35.000Z</time>
      </trkpt>
      <trkpt lat="44.22012" lon="5.09638">
        <ele>229</ele>
        <time>2016-06-30T08:29:36.000Z</time>
      </trkpt>
      <trkpt lat="44.22008" lon="5.09641">
        <ele>230</ele>
        <time>2016-06-30T08:29:37.000Z</time>
      </trkpt>
      <trkpt lat="44.22005" lon="5.09644">
        <ele>230</ele>
        <time>2016-06-30T08:29:38.000Z</time>
      </trkpt>
      <trkpt lat="44.22001" lon="5.09648">
        <ele>230</ele>
        <time>2016-06-30T08:29:39.000Z</time>
      </trkpt>
      <trkpt lat="44.21998" lon="5.09651">
        <ele>230</ele>
        <time>2016-06-30T08:29:40.000Z</time>
      </trkpt>
      <trkpt lat="44.21994" lon="5.09654">
        <ele>230</ele>
        <time>2016-06-30T08:29:41.000Z</time>
      </trkpt>
      <trkpt lat="44.21991" lon="5.09657">
        <ele>230</ele>
        <time>2016-06-30T08:29:42.000Z</time>
      </trkpt>
      <trkpt lat="44.21987" lon="5.09659">
        <ele>230</ele>
        <time>2016-06-30T08:29:43.000Z</time>
      </trkpt>
      <trkpt lat="44.21983" lon="5.09662">
        <ele>230</ele>
        <time>2016-06-30T08:29:44.000Z</time>
      </trkpt>
      <trkpt lat="44.2198" lon="5.09665">
        <ele>230</ele>
        <time>2016-06-30T08:29:45.000Z</time>
      </trkpt>
      <trkpt lat="44.21976" lon="5.09668">
        <ele>230</ele>
        <time>2016-06-30T08:29:46.000Z</time>
      </trkpt>
      <trkpt lat="44.21972" lon="5.09671">
        <ele>230</ele>
        <time>2016-06-30T08:29:47.000Z</time>
      </trkpt>
      <trkpt lat="44.21969" lon="5.09674">
        <ele>230</ele>
        <time>2016-06-30T08:29:48.000Z</time>
      </trkpt>
      <trkpt lat="44.21965" lon="5.09677">
        <ele>230</ele>
        <time>2016-06-30T08:29:49.000Z</time>
      </trkpt>
      <trkpt lat="44.21961" lon="5.09679">
        <ele>230</ele>
        <time>2016-06-30T08:29:50.000Z</time>
      </trkpt>
      <trkpt lat="44.21957" lon="5.09681">
        <ele>230</ele>
        <time>2016-06-30T08:29:51.000Z</time>
      </trkpt>
      <trkpt lat="44.21953" lon="5.09684">
        <ele>230</ele>
        <time>2016-06-30T08:29:52.000Z</time>
      </trkpt>
      <trkpt lat="44.21949" lon="5.09686">
        <ele>230</ele>
        <time>2016-06-30T08:29:53.000Z</time>
      </trkpt>
      <trkpt lat="44.21945" lon="5.09689">
        <ele>230</ele>
        <time>2016-06-30T08:29:54.000Z</time>
      </trkpt>
      <trkpt lat="44.21942" lon="5.09692">
        <ele>230</ele>
        <time>2016-06-30T08:29:55.000Z</time>
      </trkpt>
      <trkpt lat="44.21938" lon="5.09695">
        <ele>230</ele>
        <time>2016-06-30T08:29:56.000Z</time>
      </trkpt>
      <trkpt lat="44.21935" lon="5.09699">
        <ele>230</ele>
        <time>2016-06-30T08:29:57.000Z</time>
      </trkpt>
      <trkpt lat="44.21932" lon="5.09703">
        <ele>230</ele>
        <time>2016-06-30T08:29:58.000Z</time>
      </trkpt>
      <trkpt lat="44.21929" lon="5.09707">
        <ele>230</ele>
        <time>2016-06-30T08:29:59.000Z</time>
      </trkpt>
      <trkpt lat="44.21926" lon="5.09711">
        <ele>230</ele>
        <time>2016-06-30T08:30:00.000Z</time>
      </trkpt>
      <trkpt lat="44.21923" lon="5.09714">
        <ele>230</ele>
        <time>2016-06-30T08:30:01.000Z</time>
      </trkpt>
      <trkpt lat="44.2192" lon="5.09717">
        <ele>230</ele>
        <time>2016-06-30T08:30:02.000Z</time>
      </trkpt>
      <trkpt lat="44.21918" lon="5.09719">
        <ele>231</ele>
        <time>2016-06-30T08:30:03.000Z</time>
      </trkpt>
      <trkpt lat="44.21914" lon="5.0972">
        <ele>231</ele>
        <time>2016-06-30T08:30:04.000Z</time>
      </trkpt>
      <trkpt lat="44.21911" lon="5.09719">
        <ele>231</ele>
        <time>2016-06-30T08:30:05.000Z</time>
      </trkpt>
      <trkpt lat="44.21907" lon="5.09719">
        <ele>231</ele>
        <time>2016-06-30T08:30:06.000Z</time>
      </trkpt>
      <trkpt lat="44.21903" lon="5.09719">
        <ele>231</ele>
        <time>2016-06-30T08:30:07.000Z</time>
      </trkpt>
      <trkpt lat="44.21899" lon="5.0972">
        <ele>230</ele>
        <time>2016-06-30T08:30:08.000Z</time>
      </trkpt>
      <trkpt lat="44.21894" lon="5.09722">
        <ele>230</ele>
        <time>2016-06-30T08:30:09.000Z</time>
      </trkpt>
      <trkpt lat="44.2189" lon="5.09724">
        <ele>230</ele>
        <time>2016-06-30T08:30:10.000Z</time>
      </trkpt>
      <trkpt lat="44.21886" lon="5.09727">
        <ele>231</ele>
        <time>2016-06-30T08:30:11.000Z</time>
      </trkpt>
      <trkpt lat="44.21881" lon="5.09729">
        <ele>231</ele>
        <time>2016-06-30T08:30:12.000Z</time>
      </trkpt>
      <trkpt lat="44.21876" lon="5.09731">
        <ele>231</ele>
        <time>2016-06-30T08:30:13.000Z</time>
      </trkpt>
      <trkpt lat="44.21872" lon="5.09732">
        <ele>231</ele>
        <time>2016-06-30T08:30:14.000Z</time>
      </trkpt>
      <trkpt lat="44.21867" lon="5.09734">
        <ele>231</ele>
        <time>2016-06-30T08:30:15.000Z</time>
      </trkpt>
      <trkpt lat="44.21862" lon="5.09735">
        <ele>231</ele>
        <time>2016-06-30T08:30:16.000Z</time>
      </trkpt>
      <trkpt lat="44.21858" lon="5.09737">
        <ele>231</ele>
        <time>2016-06-30T08:30:17.000Z</time>
      </trkpt>
      <trkpt lat="44.21854" lon="5.09739">
        <ele>231</ele>
        <time>2016-06-30T08:30:18.000Z</time>
      </trkpt>
      <trkpt lat="44.21849" lon="5.09741">
        <ele>231</ele>
        <time>2016-06-30T08:30:19.000Z</time>
      </trkpt>
      <trkpt lat="44.21845" lon="5.09743">
        <ele>231</ele>
        <time>2016-06-30T08:30:20.000Z</time>
      </trkpt>
      <trkpt lat="44.21841" lon="5.09745">
        <ele>231</ele>
        <time>2016-06-30T08:30:21.000Z</time>
      </trkpt>
      <trkpt lat="44.21837" lon="5.09747">
        <ele>231</ele>
        <time>2016-06-30T08:30:22.000Z</time>
      </trkpt>
      <trkpt lat="44.21833" lon="5.0975">
        <ele>231</ele>
        <time>2016-06-30T08:30:23.000Z</time>
      </trkpt>
      <trkpt lat="44.21828" lon="5.09752">
        <ele>231</ele>
        <time>2016-06-30T08:30:24.000Z</time>
      </trkpt>
      <trkpt lat="44.21824" lon="5.09755">
        <ele>232</ele>
        <time>2016-06-30T08:30:25.000Z</time>
      </trkpt>
      <trkpt lat="44.2182" lon="5.09757">
        <ele>232</ele>
        <time>2016-06-30T08:30:26.000Z</time>
      </trkpt>
      <trkpt lat="44.21816" lon="5.0976">
        <ele>231</ele>
        <time>2016-06-30T08:30:27.000Z</time>
      </trkpt>
      <trkpt lat="44.21812" lon="5.09762">
        <ele>231</ele>
        <time>2016-06-30T08:30:28.000Z</time>
      </trkpt>
      <trkpt lat="44.21807" lon="5.09765">
        <ele>231</ele>
        <time>2016-06-30T08:30:29.000Z</time>
      </trkpt>
      <trkpt lat="44.21803" lon="5.09767">
        <ele>232</ele>
        <time>2016-06-30T08:30:30.000Z</time>
      </trkpt>
      <trkpt lat="44.21799" lon="5.0977">
        <ele>232</ele>
        <time>2016-06-30T08:30:31.000Z</time>
      </trkpt>
      <trkpt lat="44.21795" lon="5.09772">
        <ele>232</ele>
        <time>2016-06-30T08:30:32.000Z</time>
      </trkpt>
      <trkpt lat="44.21792" lon="5.09774">
        <ele>232</ele>
        <time>2016-06-30T08:30:33.000Z</time>
      </trkpt>
      <trkpt lat="44.21788" lon="5.09777">
        <ele>232</ele>
        <time>2016-06-30T08:30:34.000Z</time>
      </trkpt>
      <trkpt lat="44.21784" lon="5.09779">
        <ele>232</ele>
        <time>2016-06-30T08:30:35.000Z</time>
      </trkpt>
      <trkpt lat="44.2178" lon="5.09782">
        <ele>232</ele>
        <time>2016-06-30T08:30:36.000Z</time>
      </trkpt>
      <trkpt lat="44.21776" lon="5.09784">
        <ele>232</ele>
        <time>2016-06-30T08:30:37.000Z</time>
      </trkpt>
      <trkpt lat="44.21772" lon="5.09787">
        <ele>232</ele>
        <time>2016-06-30T08:30:38.000Z</time>
      </trkpt>
      <trkpt lat="44.21768" lon="5.09789">
        <ele>232</ele>
        <time>2016-06-30T08:30:39.000Z</time>
      </trkpt>
      <trkpt lat="44.21765" lon="5.09792">
        <ele>232</ele>
        <time>2016-06-30T08:30:40.000Z</time>
      </trkpt>
      <trkpt lat="44.21761" lon="5.09794">
        <ele>232</ele>
        <time>2016-06-30T08:30:41.000Z</time>
      </trkpt>
      <trkpt lat="44.21757" lon="5.09796">
        <ele>232</ele>
        <time>2016-06-30T08:30:42.000Z</time>
      </trkpt>
      <trkpt lat="44.21753" lon="5.09799">
        <ele>232</ele>
        <time>2016-06-30T08:30:43.000Z</time>
      </trkpt>
      <trkpt lat="44.21749" lon="5.09802">
        <ele>232</ele>
        <time>2016-06-30T08:30:44.000Z</time>
      </trkpt>
      <trkpt lat="44.21746" lon="5.09804">
        <ele>232</ele>
        <time>2016-06-30T08:30:45.000Z</time>
      </trkpt>
      <trkpt lat="44.21742" lon="5.09807">
        <ele>232</ele>
        <time>2016-06-30T08:30:46.000Z</time>
      </trkpt>
      <trkpt lat="44.21738" lon="5.0981">
        <ele>232</ele>
        <time>2016-06-30T08:30:47.000Z</time>
      </trkpt>
      <trkpt lat="44.21735" lon="5.09812">
        <ele>233</ele>
        <time>2016-06-30T08:30:48.000Z</time>
      </trkpt>
      <trkpt lat="44.21731" lon="5.09815">
        <ele>233</ele>
        <time>2016-06-30T08:30:49.000Z</time>
      </trkpt>
      <trkpt lat="44.21727" lon="5.09817">
        <ele>233</ele>
        <time>2016-06-30T08:30:50.000Z</time>
      </trkpt>
      <trkpt lat="44.21724" lon="5.0982">
        <ele>233</ele>
        <time>2016-06-30T08:30:51.000Z</time>
      </trkpt>
      <trkpt lat="44.2172" lon="5.09822">
        <ele>233</ele>
        <time>2016-06-30T08:30:52.000Z</time>
      </trkpt>
      <trkpt lat="44.21716" lon="5.09825">
        <ele>233</ele>
        <time>2016-06-30T08:30:53.000Z</time>
      </trkpt>
      <trkpt lat="44.21713" lon="5.09827">
        <ele>233</ele>
        <time>2016-06-30T08:30:54.000Z</time>
      </trkpt>
      <trkpt lat="44.21709" lon="5.09829">
        <ele>233</ele>
        <time>2016-06-30T08:30:55.000Z</time>
      </trkpt>
      <trkpt lat="44.21706" lon="5.09832">
        <ele>233</ele>
        <time>2016-06-30T08:30:56.000Z</time>
      </trkpt>
      <trkpt lat="44.21702" lon="5.09834">
        <ele>233</ele>
        <time>2016-06-30T08:30:57.000Z</time>
      </trkpt>
      <trkpt lat="44.21699" lon="5.09837">
        <ele>234</ele>
        <time>2016-06-30T08:30:58.000Z</time>
      </trkpt>
      <trkpt lat="44.21695" lon="5.09839">
        <ele>234</ele>
        <time>2016-06-30T08:30:59.000Z</time>
      </trkpt>
      <trkpt lat="44.21692" lon="5.09841">
        <ele>234</ele>
        <time>2016-06-30T08:31:00.000Z</time>
      </trkpt>
      <trkpt lat="44.21688" lon="5.09844">
        <ele>234</ele>
        <time>2016-06-30T08:31:01.000Z</time>
      </trkpt>
      <trkpt lat="44.21685" lon="5.09846">
        <ele>234</ele>
        <time>2016-06-30T08:31:02.000Z</time>
      </trkpt>
      <trkpt lat="44.21681" lon="5.09848">
        <ele>234</ele>
        <time>2016-06-30T08:31:03.000Z</time>
      </trkpt>
      <trkpt lat="44.21677" lon="5.09851">
        <ele>235</ele>
        <time>2016-06-30T08:31:04.000Z</time>
      </trkpt>
      <trkpt lat="44.21674" lon="5.09853">
        <ele>235</ele>
        <time>2016-06-30T08:31:05.000Z</time>
      </trkpt>
      <trkpt lat="44.2167" lon="5.09855">
        <ele>235</ele>
        <time>2016-06-30T08:31:06.000Z</time>
      </trkpt>
      <trkpt lat="44.21667" lon="5.09857">
        <ele>236</ele>
        <time>2016-06-30T08:31:07.000Z</time>
      </trkpt>
      <trkpt lat="44.21663" lon="5.09859">
        <ele>236</ele>
        <time>2016-06-30T08:31:08.000Z</time>
      </trkpt>
      <trkpt lat="44.2166" lon="5.09861">
        <ele>236</ele>
        <time>2016-06-30T08:31:09.000Z</time>
      </trkpt>
      <trkpt lat="44.21656" lon="5.09863">
        <ele>236</ele>
        <time>2016-06-30T08:31:10.000Z</time>
      </trkpt>
      <trkpt lat="44.21653" lon="5.09865">
        <ele>236</ele>
        <time>2016-06-30T08:31:11.000Z</time>
      </trkpt>
      <trkpt lat="44.21649" lon="5.09867">
        <ele>236</ele>
        <time>2016-06-30T08:31:12.000Z</time>
      </trkpt>
      <trkpt lat="44.21646" lon="5.09869">
        <ele>237</ele>
        <time>2016-06-30T08:31:13.000Z</time>
      </trkpt>
      <trkpt lat="44.21643" lon="5.09872">
        <ele>237</ele>
        <time>2016-06-30T08:31:14.000Z</time>
      </trkpt>
      <trkpt lat="44.21639" lon="5.09874">
        <ele>237</ele>
        <time>2016-06-30T08:31:15.000Z</time>
      </trkpt>
      <trkpt lat="44.21637" lon="5.09876">
        <ele>237</ele>
        <time>2016-06-30T08:31:16.000Z</time>
      </trkpt>
      <trkpt lat="44.21633" lon="5.09878">
        <ele>237</ele>
        <time>2016-06-30T08:31:17.000Z</time>
      </trkpt>
      <trkpt lat="44.2163" lon="5.0988">
        <ele>237</ele>
        <time>2016-06-30T08:31:18.000Z</time>
      </trkpt>
      <trkpt lat="44.21627" lon="5.09882">
        <ele>237</ele>
        <time>2016-06-30T08:31:19.000Z</time>
      </trkpt>
      <trkpt lat="44.21624" lon="5.09884">
        <ele>238</ele>
        <time>2016-06-30T08:31:20.000Z</time>
      </trkpt>
      <trkpt lat="44.21621" lon="5.09886">
        <ele>238</ele>
        <time>2016-06-30T08:31:21.000Z</time>
      </trkpt>
      <trkpt lat="44.21618" lon="5.09889">
        <ele>238</ele>
        <time>2016-06-30T08:31:22.000Z</time>
      </trkpt>
      <trkpt lat="44.21615" lon="5.09892">
        <ele>238</ele>
        <time>2016-06-30T08:31:23.000Z</time>
      </trkpt>
      <trkpt lat="44.21611" lon="5.09894">
        <ele>236</ele>
        <time>2016-06-30T08:31:24.000Z</time>
      </trkpt>
      <trkpt lat="44.21607" lon="5.09898">
        <ele>236</ele>
        <time>2016-06-30T08:31:25.000Z</time>
      </trkpt>
      <trkpt lat="44.21602" lon="5.09902">
        <ele>236</ele>
        <time>2016-06-30T08:31:26.000Z</time>
      </trkpt>
      <trkpt lat="44.21598" lon="5.09906">
        <ele>236</ele>
        <time>2016-06-30T08:31:27.000Z</time>
      </trkpt>
      <trkpt lat="44.21594" lon="5.0991">
        <ele>236</ele>
        <time>2016-06-30T08:31:28.000Z</time>
      </trkpt>
      <trkpt lat="44.2159" lon="5.09914">
        <ele>236</ele>
        <time>2016-06-30T08:31:29.000Z</time>
      </trkpt>
      <trkpt lat="44.21586" lon="5.09917">
        <ele>236</ele>
        <time>2016-06-30T08:31:30.000Z</time>
      </trkpt>
      <trkpt lat="44.21582" lon="5.09921">
        <ele>236</ele>
        <time>2016-06-30T08:31:31.000Z</time>
      </trkpt>
      <trkpt lat="44.21578" lon="5.09925">
        <ele>236</ele>
        <time>2016-06-30T08:31:32.000Z</time>
      </trkpt>
      <trkpt lat="44.21575" lon="5.09928">
        <ele>236</ele>
        <time>2016-06-30T08:31:33.000Z</time>
      </trkpt>
      <trkpt lat="44.21571" lon="5.09931">
        <ele>236</ele>
        <time>2016-06-30T08:31:34.000Z</time>
      </trkpt>
      <trkpt lat="44.21568" lon="5.09934">
        <ele>236</ele>
        <time>2016-06-30T08:31:35.000Z</time>
      </trkpt>
      <trkpt lat="44.21564" lon="5.09937">
        <ele>236</ele>
        <time>2016-06-30T08:31:36.000Z</time>
      </trkpt>
      <trkpt lat="44.2156" lon="5.0994">
        <ele>236</ele>
        <time>2016-06-30T08:31:37.000Z</time>
      </trkpt>
      <trkpt lat="44.21557" lon="5.09943">
        <ele>236</ele>
        <time>2016-06-30T08:31:38.000Z</time>
      </trkpt>
      <trkpt lat="44.21553" lon="5.09946">
        <ele>236</ele>
        <time>2016-06-30T08:31:39.000Z</time>
      </trkpt>
      <trkpt lat="44.21549" lon="5.09949">
        <ele>235</ele>
        <time>2016-06-30T08:31:40.000Z</time>
      </trkpt>
      <trkpt lat="44.21545" lon="5.09952">
        <ele>235</ele>
        <time>2016-06-30T08:31:41.000Z</time>
      </trkpt>
      <trkpt lat="44.21541" lon="5.09955">
        <ele>236</ele>
        <time>2016-06-30T08:31:42.000Z</time>
      </trkpt>
      <trkpt lat="44.21538" lon="5.09958">
        <ele>236</ele>
        <time>2016-06-30T08:31:43.000Z</time>
      </trkpt>
      <trkpt lat="44.21534" lon="5.09961">
        <ele>236</ele>
        <time>2016-06-30T08:31:44.000Z</time>
      </trkpt>
      <trkpt lat="44.2153" lon="5.09964">
        <ele>236</ele>
        <time>2016-06-30T08:31:45.000Z</time>
      </trkpt>
      <trkpt lat="44.21526" lon="5.09966">
        <ele>237</ele>
        <time>2016-06-30T08:31:46.000Z</time>
      </trkpt>
      <trkpt lat="44.21521" lon="5.09968">
        <ele>237</ele>
        <time>2016-06-30T08:31:47.000Z</time>
      </trkpt>
      <trkpt lat="44.21517" lon="5.09971">
        <ele>237</ele>
        <time>2016-06-30T08:31:48.000Z</time>
      </trkpt>
      <trkpt lat="44.21514" lon="5.09973">
        <ele>237</ele>
        <time>2016-06-30T08:31:49.000Z</time>
      </trkpt>
      <trkpt lat="44.2151" lon="5.09975">
        <ele>237</ele>
        <time>2016-06-30T08:31:50.000Z</time>
      </trkpt>
      <trkpt lat="44.21506" lon="5.09977">
        <ele>237</ele>
        <time>2016-06-30T08:31:51.000Z</time>
      </trkpt>
      <trkpt lat="44.21502" lon="5.09979">
        <ele>237</ele>
        <time>2016-06-30T08:31:52.000Z</time>
      </trkpt>
      <trkpt lat="44.21498" lon="5.0998">
        <ele>237</ele>
        <time>2016-06-30T08:31:53.000Z</time>
      </trkpt>
      <trkpt lat="44.21494" lon="5.09982">
        <ele>237</ele>
        <time>2016-06-30T08:31:54.000Z</time>
      </trkpt>
      <trkpt lat="44.2149" lon="5.09983">
        <ele>237</ele>
        <time>2016-06-30T08:31:55.000Z</time>
      </trkpt>
      <trkpt lat="44.21486" lon="5.09985">
        <ele>237</ele>
        <time>2016-06-30T08:31:56.000Z</time>
      </trkpt>
      <trkpt lat="44.21482" lon="5.09986">
        <ele>237</ele>
        <time>2016-06-30T08:31:57.000Z</time>
      </trkpt>
      <trkpt lat="44.21479" lon="5.09988">
        <ele>237</ele>
        <time>2016-06-30T08:31:58.000Z</time>
      </trkpt>
      <trkpt lat="44.21475" lon="5.09989">
        <ele>237</ele>
        <time>2016-06-30T08:31:59.000Z</time>
      </trkpt>
      <trkpt lat="44.21471" lon="5.0999">
        <ele>237</ele>
        <time>2016-06-30T08:32:00.000Z</time>
      </trkpt>
      <trkpt lat="44.21468" lon="5.09991">
        <ele>237</ele>
        <time>2016-06-30T08:32:01.000Z</time>
      </trkpt>
      <trkpt lat="44.21464" lon="5.09993">
        <ele>237</ele>
        <time>2016-06-30T08:32:02.000Z</time>
      </trkpt>
      <trkpt lat="44.2146" lon="5.09994">
        <ele>237</ele>
        <time>2016-06-30T08:32:03.000Z</time>
      </trkpt>
      <trkpt lat="44.21456" lon="5.09995">
        <ele>238</ele>
        <time>2016-06-30T08:32:04.000Z</time>
      </trkpt>
      <trkpt lat="44.21452" lon="5.09996">
        <ele>238</ele>
        <time>2016-06-30T08:32:05.000Z</time>
      </trkpt>
      <trkpt lat="44.21448" lon="5.09998">
        <ele>238</ele>
        <time>2016-06-30T08:32:06.000Z</time>
      </trkpt>
      <trkpt lat="44.21444" lon="5.09999">
        <ele>238</ele>
        <time>2016-06-30T08:32:07.000Z</time>
      </trkpt>
      <trkpt lat="44.2144" lon="5.1">
        <ele>238</ele>
        <time>2016-06-30T08:32:08.000Z</time>
      </trkpt>
      <trkpt lat="44.21436" lon="5.10001">
        <ele>238</ele>
        <time>2016-06-30T08:32:09.000Z</time>
      </trkpt>
      <trkpt lat="44.21433" lon="5.10002">
        <ele>238</ele>
        <time>2016-06-30T08:32:10.000Z</time>
      </trkpt>
      <trkpt lat="44.21429" lon="5.10003">
        <ele>239</ele>
        <time>2016-06-30T08:32:11.000Z</time>
      </trkpt>
      <trkpt lat="44.21425" lon="5.10005">
        <ele>239</ele>
        <time>2016-06-30T08:32:12.000Z</time>
      </trkpt>
      <trkpt lat="44.21421" lon="5.10006">
        <ele>239</ele>
        <time>2016-06-30T08:32:13.000Z</time>
      </trkpt>
      <trkpt lat="44.21418" lon="5.10007">
        <ele>239</ele>
        <time>2016-06-30T08:32:14.000Z</time>
      </trkpt>
      <trkpt lat="44.21414" lon="5.10008">
        <ele>239</ele>
        <time>2016-06-30T08:32:15.000Z</time>
      </trkpt>
      <trkpt lat="44.21411" lon="5.10009">
        <ele>239</ele>
        <time>2016-06-30T08:32:16.000Z</time>
      </trkpt>
      <trkpt lat="44.21407" lon="5.1001">
        <ele>239</ele>
        <time>2016-06-30T08:32:17.000Z</time>
      </trkpt>
      <trkpt lat="44.21404" lon="5.10011">
        <ele>239</ele>
        <time>2016-06-30T08:32:18.000Z</time>
      </trkpt>
      <trkpt lat="44.214" lon="5.10012">
        <ele>239</ele>
        <time>2016-06-30T08:32:19.000Z</time>
      </trkpt>
      <trkpt lat="44.21397" lon="5.10013">
        <ele>239</ele>
        <time>2016-06-30T08:32:20.000Z</time>
      </trkpt>
      <trkpt lat="44.21393" lon="5.10014">
        <ele>239</ele>
        <time>2016-06-30T08:32:21.000Z</time>
      </trkpt>
      <trkpt lat="44.2139" lon="5.10015">
        <ele>239</ele>
        <time>2016-06-30T08:32:22.000Z</time>
      </trkpt>
      <trkpt lat="44.21387" lon="5.10016">
        <ele>239</ele>
        <time>2016-06-30T08:32:23.000Z</time>
      </trkpt>
      <trkpt lat="44.21383" lon="5.10017">
        <ele>239</ele>
        <time>2016-06-30T08:32:24.000Z</time>
      </trkpt>
      <trkpt lat="44.2138" lon="5.10018">
        <ele>240</ele>
        <time>2016-06-30T08:32:25.000Z</time>
      </trkpt>
      <trkpt lat="44.21377" lon="5.10019">
        <ele>240</ele>
        <time>2016-06-30T08:32:26.000Z</time>
      </trkpt>
      <trkpt lat="44.21374" lon="5.1002">
        <ele>240</ele>
        <time>2016-06-30T08:32:27.000Z</time>
      </trkpt>
      <trkpt lat="44.21371" lon="5.10021">
        <ele>240</ele>
        <time>2016-06-30T08:32:28.000Z</time>
      </trkpt>
      <trkpt lat="44.21368" lon="5.10021">
        <ele>240</ele>
        <time>2016-06-30T08:32:29.000Z</time>
      </trkpt>
      <trkpt lat="44.21364" lon="5.10022">
        <ele>240</ele>
        <time>2016-06-30T08:32:30.000Z</time>
      </trkpt>
      <trkpt lat="44.21361" lon="5.10023">
        <ele>240</ele>
        <time>2016-06-30T08:32:31.000Z</time>
      </trkpt>
      <trkpt lat="44.21358" lon="5.10024">
        <ele>240</ele>
        <time>2016-06-30T08:32:32.000Z</time>
      </trkpt>
      <trkpt lat="44.21355" lon="5.10025">
        <ele>241</ele>
        <time>2016-06-30T08:32:33.000Z</time>
      </trkpt>
      <trkpt lat="44.21351" lon="5.10026">
        <ele>241</ele>
        <time>2016-06-30T08:32:34.000Z</time>
      </trkpt>
      <trkpt lat="44.21347" lon="5.10027">
        <ele>241</ele>
        <time>2016-06-30T08:32:35.000Z</time>
      </trkpt>
      <trkpt lat="44.21343" lon="5.10028">
        <ele>241</ele>
        <time>2016-06-30T08:32:36.000Z</time>
      </trkpt>
      <trkpt lat="44.21339" lon="5.10029">
        <ele>241</ele>
        <time>2016-06-30T08:32:37.000Z</time>
      </trkpt>
      <trkpt lat="44.21335" lon="5.1003">
        <ele>241</ele>
        <time>2016-06-30T08:32:38.000Z</time>
      </trkpt>
      <trkpt lat="44.21331" lon="5.10031">
        <ele>242</ele>
        <time>2016-06-30T08:32:39.000Z</time>
      </trkpt>
      <trkpt lat="44.21327" lon="5.10032">
        <ele>242</ele>
        <time>2016-06-30T08:32:40.000Z</time>
      </trkpt>
      <trkpt lat="44.21323" lon="5.10033">
        <ele>242</ele>
        <time>2016-06-30T08:32:41.000Z</time>
      </trkpt>
      <trkpt lat="44.21319" lon="5.10034">
        <ele>242</ele>
        <time>2016-06-30T08:32:42.000Z</time>
      </trkpt>
      <trkpt lat="44.21315" lon="5.10035">
        <ele>242</ele>
        <time>2016-06-30T08:32:43.000Z</time>
      </trkpt>
      <trkpt lat="44.21311" lon="5.10036">
        <ele>242</ele>
        <time>2016-06-30T08:32:44.000Z</time>
      </trkpt>
      <trkpt lat="44.21307" lon="5.10036">
        <ele>242</ele>
        <time>2016-06-30T08:32:45.000Z</time>
      </trkpt>
      <trkpt lat="44.21303" lon="5.10037">
        <ele>242</ele>
        <time>2016-06-30T08:32:46.000Z</time>
      </trkpt>
      <trkpt lat="44.21299" lon="5.10038">
        <ele>242</ele>
        <time>2016-06-30T08:32:47.000Z</time>
      </trkpt>
      <trkpt lat="44.21295" lon="5.10038">
        <ele>243</ele>
        <time>2016-06-30T08:32:48.000Z</time>
      </trkpt>
      <trkpt lat="44.2129" lon="5.10039">
        <ele>243</ele>
        <time>2016-06-30T08:32:49.000Z</time>
      </trkpt>
      <trkpt lat="44.21285" lon="5.1004">
        <ele>243</ele>
        <time>2016-06-30T08:32:50.000Z</time>
      </trkpt>
      <trkpt lat="44.2128" lon="5.1004">
        <ele>243</ele>
        <time>2016-06-30T08:32:51.000Z</time>
      </trkpt>
      <trkpt lat="44.21275" lon="5.10041">
        <ele>243</ele>
        <time>2016-06-30T08:32:52.000Z</time>
      </trkpt>
      <trkpt lat="44.2127" lon="5.10041">
        <ele>243</ele>
        <time>2016-06-30T08:32:53.000Z</time>
      </trkpt>
      <trkpt lat="44.21265" lon="5.10042">
        <ele>244</ele>
        <time>2016-06-30T08:32:54.000Z</time>
      </trkpt>
      <trkpt lat="44.2126" lon="5.10042">
        <ele>244</ele>
        <time>2016-06-30T08:32:55.000Z</time>
      </trkpt>
      <trkpt lat="44.21255" lon="5.10043">
        <ele>244</ele>
        <time>2016-06-30T08:32:56.000Z</time>
      </trkpt>
      <trkpt lat="44.21249" lon="5.10043">
        <ele>244</ele>
        <time>2016-06-30T08:32:57.000Z</time>
      </trkpt>
      <trkpt lat="44.21244" lon="5.10044">
        <ele>244</ele>
        <time>2016-06-30T08:32:58.000Z</time>
      </trkpt>
      <trkpt lat="44.21239" lon="5.10045">
        <ele>244</ele>
        <time>2016-06-30T08:32:59.000Z</time>
      </trkpt>
      <trkpt lat="44.21234" lon="5.10045">
        <ele>244</ele>
        <time>2016-06-30T08:33:00.000Z</time>
      </trkpt>
      <trkpt lat="44.21228" lon="5.10046">
        <ele>244</ele>
        <time>2016-06-30T08:33:01.000Z</time>
      </trkpt>
      <trkpt lat="44.21223" lon="5.10046">
        <ele>244</ele>
        <time>2016-06-30T08:33:02.000Z</time>
      </trkpt>
      <trkpt lat="44.21218" lon="5.10047">
        <ele>244</ele>
        <time>2016-06-30T08:33:03.000Z</time>
      </trkpt>
      <trkpt lat="44.21213" lon="5.10047">
        <ele>244</ele>
        <time>2016-06-30T08:33:04.000Z</time>
      </trkpt>
      <trkpt lat="44.21208" lon="5.10048">
        <ele>244</ele>
        <time>2016-06-30T08:33:05.000Z</time>
      </trkpt>
      <trkpt lat="44.21202" lon="5.10049">
        <ele>244</ele>
        <time>2016-06-30T08:33:06.000Z</time>
      </trkpt>
      <trkpt lat="44.21197" lon="5.10049">
        <ele>244</ele>
        <time>2016-06-30T08:33:07.000Z</time>
      </trkpt>
      <trkpt lat="44.21192" lon="5.10051">
        <ele>244</ele>
        <time>2016-06-30T08:33:08.000Z</time>
      </trkpt>
      <trkpt lat="44.21187" lon="5.10052">
        <ele>245</ele>
        <time>2016-06-30T08:33:09.000Z</time>
      </trkpt>
      <trkpt lat="44.21182" lon="5.10054">
        <ele>245</ele>
        <time>2016-06-30T08:33:10.000Z</time>
      </trkpt>
      <trkpt lat="44.21177" lon="5.10057">
        <ele>245</ele>
        <time>2016-06-30T08:33:11.000Z</time>
      </trkpt>
      <trkpt lat="44.21172" lon="5.10059">
        <ele>245</ele>
        <time>2016-06-30T08:33:12.000Z</time>
      </trkpt>
      <trkpt lat="44.21167" lon="5.10063">
        <ele>245</ele>
        <time>2016-06-30T08:33:13.000Z</time>
      </trkpt>
      <trkpt lat="44.21163" lon="5.10066">
        <ele>245</ele>
        <time>2016-06-30T08:33:14.000Z</time>
      </trkpt>
      <trkpt lat="44.21158" lon="5.1007">
        <ele>245</ele>
        <time>2016-06-30T08:33:15.000Z</time>
      </trkpt>
      <trkpt lat="44.21153" lon="5.10074">
        <ele>245</ele>
        <time>2016-06-30T08:33:16.000Z</time>
      </trkpt>
      <trkpt lat="44.21149" lon="5.10078">
        <ele>245</ele>
        <time>2016-06-30T08:33:17.000Z</time>
      </trkpt>
      <trkpt lat="44.21145" lon="5.10082">
        <ele>245</ele>
        <time>2016-06-30T08:33:18.000Z</time>
      </trkpt>
      <trkpt lat="44.21141" lon="5.10086">
        <ele>245</ele>
        <time>2016-06-30T08:33:19.000Z</time>
      </trkpt>
      <trkpt lat="44.21137" lon="5.10091">
        <ele>245</ele>
        <time>2016-06-30T08:33:20.000Z</time>
      </trkpt>
      <trkpt lat="44.21132" lon="5.10095">
        <ele>245</ele>
        <time>2016-06-30T08:33:21.000Z</time>
      </trkpt>
      <trkpt lat="44.21128" lon="5.10099">
        <ele>245</ele>
        <time>2016-06-30T08:33:22.000Z</time>
      </trkpt>
      <trkpt lat="44.21124" lon="5.10103">
        <ele>245</ele>
        <time>2016-06-30T08:33:23.000Z</time>
      </trkpt>
      <trkpt lat="44.21121" lon="5.10107">
        <ele>245</ele>
        <time>2016-06-30T08:33:24.000Z</time>
      </trkpt>
      <trkpt lat="44.21117" lon="5.1011">
        <ele>245</ele>
        <time>2016-06-30T08:33:25.000Z</time>
      </trkpt>
      <trkpt lat="44.21113" lon="5.10114">
        <ele>245</ele>
        <time>2016-06-30T08:33:26.000Z</time>
      </trkpt>
      <trkpt lat="44.2111" lon="5.10118">
        <ele>245</ele>
        <time>2016-06-30T08:33:27.000Z</time>
      </trkpt>
      <trkpt lat="44.21106" lon="5.10122">
        <ele>245</ele>
        <time>2016-06-30T08:33:28.000Z</time>
      </trkpt>
      <trkpt lat="44.21102" lon="5.10125">
        <ele>245</ele>
        <time>2016-06-30T08:33:29.000Z</time>
      </trkpt>
      <trkpt lat="44.21099" lon="5.10129">
        <ele>245</ele>
        <time>2016-06-30T08:33:30.000Z</time>
      </trkpt>
      <trkpt lat="44.21095" lon="5.10133">
        <ele>245</ele>
        <time>2016-06-30T08:33:31.000Z</time>
      </trkpt>
      <trkpt lat="44.21092" lon="5.10136">
        <ele>245</ele>
        <time>2016-06-30T08:33:32.000Z</time>
      </trkpt>
      <trkpt lat="44.21088" lon="5.1014">
        <ele>245</ele>
        <time>2016-06-30T08:33:33.000Z</time>
      </trkpt>
      <trkpt lat="44.21085" lon="5.10143">
        <ele>245</ele>
        <time>2016-06-30T08:33:34.000Z</time>
      </trkpt>
      <trkpt lat="44.21081" lon="5.10147">
        <ele>245</ele>
        <time>2016-06-30T08:33:35.000Z</time>
      </trkpt>
      <trkpt lat="44.21078" lon="5.10151">
        <ele>245</ele>
        <time>2016-06-30T08:33:36.000Z</time>
      </trkpt>
      <trkpt lat="44.21074" lon="5.10154">
        <ele>245</ele>
        <time>2016-06-30T08:33:37.000Z</time>
      </trkpt>
      <trkpt lat="44.21071" lon="5.10158">
        <ele>246</ele>
        <time>2016-06-30T08:33:38.000Z</time>
      </trkpt>
      <trkpt lat="44.21068" lon="5.10162">
        <ele>246</ele>
        <time>2016-06-30T08:33:39.000Z</time>
      </trkpt>
      <trkpt lat="44.21065" lon="5.10166">
        <ele>246</ele>
        <time>2016-06-30T08:33:40.000Z</time>
      </trkpt>
      <trkpt lat="44.21062" lon="5.1017">
        <ele>246</ele>
        <time>2016-06-30T08:33:41.000Z</time>
      </trkpt>
      <trkpt lat="44.21059" lon="5.10173">
        <ele>246</ele>
        <time>2016-06-30T08:33:42.000Z</time>
      </trkpt>
      <trkpt lat="44.21056" lon="5.10177">
        <ele>246</ele>
        <time>2016-06-30T08:33:43.000Z</time>
      </trkpt>
      <trkpt lat="44.21053" lon="5.10181">
        <ele>246</ele>
        <time>2016-06-30T08:33:44.000Z</time>
      </trkpt>
      <trkpt lat="44.2105" lon="5.10185">
        <ele>246</ele>
        <time>2016-06-30T08:33:45.000Z</time>
      </trkpt>
      <trkpt lat="44.21047" lon="5.10189">
        <ele>247</ele>
        <time>2016-06-30T08:33:46.000Z</time>
      </trkpt>
      <trkpt lat="44.21044" lon="5.10193">
        <ele>247</ele>
        <time>2016-06-30T08:33:47.000Z</time>
      </trkpt>
      <trkpt lat="44.21041" lon="5.10197">
        <ele>247</ele>
        <time>2016-06-30T08:33:48.000Z</time>
      </trkpt>
      <trkpt lat="44.21039" lon="5.10201">
        <ele>247</ele>
        <time>2016-06-30T08:33:49.000Z</time>
      </trkpt>
      <trkpt lat="44.21036" lon="5.10205">
        <ele>247</ele>
        <time>2016-06-30T08:33:50.000Z</time>
      </trkpt>
      <trkpt lat="44.21033" lon="5.10209">
        <ele>247</ele>
        <time>2016-06-30T08:33:51.000Z</time>
      </trkpt>
      <trkpt lat="44.21031" lon="5.10213">
        <ele>247</ele>
        <time>2016-06-30T08:33:52.000Z</time>
      </trkpt>
      <trkpt lat="44.21028" lon="5.10217">
        <ele>247</ele>
        <time>2016-06-30T08:33:53.000Z</time>
      </trkpt>
      <trkpt lat="44.21025" lon="5.10221">
        <ele>247</ele>
        <time>2016-06-30T08:33:54.000Z</time>
      </trkpt>
      <trkpt lat="44.21022" lon="5.10225">
        <ele>247</ele>
        <time>2016-06-30T08:33:55.000Z</time>
      </trkpt>
      <trkpt lat="44.21019" lon="5.10229">
        <ele>248</ele>
        <time>2016-06-30T08:33:56.000Z</time>
      </trkpt>
      <trkpt lat="44.21016" lon="5.10233">
        <ele>248</ele>
        <time>2016-06-30T08:33:57.000Z</time>
      </trkpt>
      <trkpt lat="44.21014" lon="5.10236">
        <ele>248</ele>
        <time>2016-06-30T08:33:58.000Z</time>
      </trkpt>
      <trkpt lat="44.21011" lon="5.1024">
        <ele>248</ele>
        <time>2016-06-30T08:33:59.000Z</time>
      </trkpt>
      <trkpt lat="44.21008" lon="5.10243">
        <ele>248</ele>
        <time>2016-06-30T08:34:00.000Z</time>
      </trkpt>
      <trkpt lat="44.21005" lon="5.10246">
        <ele>248</ele>
        <time>2016-06-30T08:34:01.000Z</time>
      </trkpt>
      <trkpt lat="44.21003" lon="5.1025">
        <ele>248</ele>
        <time>2016-06-30T08:34:02.000Z</time>
      </trkpt>
      <trkpt lat="44.21" lon="5.10253">
        <ele>248</ele>
        <time>2016-06-30T08:34:03.000Z</time>
      </trkpt>
      <trkpt lat="44.20998" lon="5.10256">
        <ele>249</ele>
        <time>2016-06-30T08:34:04.000Z</time>
      </trkpt>
      <trkpt lat="44.20995" lon="5.10259">
        <ele>249</ele>
        <time>2016-06-30T08:34:05.000Z</time>
      </trkpt>
      <trkpt lat="44.20992" lon="5.10262">
        <ele>249</ele>
        <time>2016-06-30T08:34:06.000Z</time>
      </trkpt>
      <trkpt lat="44.20989" lon="5.10265">
        <ele>249</ele>
        <time>2016-06-30T08:34:07.000Z</time>
      </trkpt>
      <trkpt lat="44.20987" lon="5.10267">
        <ele>250</ele>
        <time>2016-06-30T08:34:08.000Z</time>
      </trkpt>
      <trkpt lat="44.20984" lon="5.1027">
        <ele>250</ele>
        <time>2016-06-30T08:34:09.000Z</time>
      </trkpt>
      <trkpt lat="44.20981" lon="5.10273">
        <ele>250</ele>
        <time>2016-06-30T08:34:10.000Z</time>
      </trkpt>
      <trkpt lat="44.20978" lon="5.10275">
        <ele>250</ele>
        <time>2016-06-30T08:34:11.000Z</time>
      </trkpt>
      <trkpt lat="44.20975" lon="5.10278">
        <ele>251</ele>
        <time>2016-06-30T08:34:12.000Z</time>
      </trkpt>
      <trkpt lat="44.20973" lon="5.10281">
        <ele>251</ele>
        <time>2016-06-30T08:34:13.000Z</time>
      </trkpt>
      <trkpt lat="44.2097" lon="5.10283">
        <ele>251</ele>
        <time>2016-06-30T08:34:14.000Z</time>
      </trkpt>
      <trkpt lat="44.20967" lon="5.10285">
        <ele>251</ele>
        <time>2016-06-30T08:34:15.000Z</time>
      </trkpt>
      <trkpt lat="44.20965" lon="5.10288">
        <ele>251</ele>
        <time>2016-06-30T08:34:16.000Z</time>
      </trkpt>
      <trkpt lat="44.20962" lon="5.1029">
        <ele>252</ele>
        <time>2016-06-30T08:34:17.000Z</time>
      </trkpt>
      <trkpt lat="44.2096" lon="5.10293">
        <ele>252</ele>
        <time>2016-06-30T08:34:18.000Z</time>
      </trkpt>
      <trkpt lat="44.20957" lon="5.10296">
        <ele>253</ele>
        <time>2016-06-30T08:34:19.000Z</time>
      </trkpt>
      <trkpt lat="44.20954" lon="5.10298">
        <ele>253</ele>
        <time>2016-06-30T08:34:20.000Z</time>
      </trkpt>
      <trkpt lat="44.20952" lon="5.10301">
        <ele>253</ele>
        <time>2016-06-30T08:34:21.000Z</time>
      </trkpt>
      <trkpt lat="44.20949" lon="5.10304">
        <ele>253</ele>
        <time>2016-06-30T08:34:22.000Z</time>
      </trkpt>
      <trkpt lat="44.20946" lon="5.10307">
        <ele>254</ele>
        <time>2016-06-30T08:34:23.000Z</time>
      </trkpt>
      <trkpt lat="44.20943" lon="5.1031">
        <ele>254</ele>
        <time>2016-06-30T08:34:24.000Z</time>
      </trkpt>
      <trkpt lat="44.2094" lon="5.10313">
        <ele>254</ele>
        <time>2016-06-30T08:34:25.000Z</time>
      </trkpt>
      <trkpt lat="44.20937" lon="5.10317">
        <ele>254</ele>
        <time>2016-06-30T08:34:26.000Z</time>
      </trkpt>
      <trkpt lat="44.20934" lon="5.1032">
        <ele>254</ele>
        <time>2016-06-30T08:34:27.000Z</time>
      </trkpt>
      <trkpt lat="44.20931" lon="5.10323">
        <ele>254</ele>
        <time>2016-06-30T08:34:28.000Z</time>
      </trkpt>
      <trkpt lat="44.20928" lon="5.10327">
        <ele>254</ele>
        <time>2016-06-30T08:34:29.000Z</time>
      </trkpt>
      <trkpt lat="44.20925" lon="5.1033">
        <ele>254</ele>
        <time>2016-06-30T08:34:30.000Z</time>
      </trkpt>
      <trkpt lat="44.20922" lon="5.10333">
        <ele>254</ele>
        <time>2016-06-30T08:34:31.000Z</time>
      </trkpt>
      <trkpt lat="44.2092" lon="5.10336">
        <ele>254</ele>
        <time>2016-06-30T08:34:32.000Z</time>
      </trkpt>
      <trkpt lat="44.20917" lon="5.10339">
        <ele>254</ele>
        <time>2016-06-30T08:34:33.000Z</time>
      </trkpt>
      <trkpt lat="44.20914" lon="5.10342">
        <ele>254</ele>
        <time>2016-06-30T08:34:34.000Z</time>
      </trkpt>
      <trkpt lat="44.20912" lon="5.10345">
        <ele>254</ele>
        <time>2016-06-30T08:34:35.000Z</time>
      </trkpt>
      <trkpt lat="44.20909" lon="5.10348">
        <ele>255</ele>
        <time>2016-06-30T08:34:36.000Z</time>
      </trkpt>
      <trkpt lat="44.20907" lon="5.10351">
        <ele>255</ele>
        <time>2016-06-30T08:34:37.000Z</time>
      </trkpt>
      <trkpt lat="44.20905" lon="5.10354">
        <ele>255</ele>
        <time>2016-06-30T08:34:38.000Z</time>
      </trkpt>
      <trkpt lat="44.20903" lon="5.10357">
        <ele>255</ele>
        <time>2016-06-30T08:34:39.000Z</time>
      </trkpt>
      <trkpt lat="44.209" lon="5.1036">
        <ele>255</ele>
        <time>2016-06-30T08:34:40.000Z</time>
      </trkpt>
      <trkpt lat="44.20898" lon="5.10364">
        <ele>255</ele>
        <time>2016-06-30T08:34:41.000Z</time>
      </trkpt>
      <trkpt lat="44.20895" lon="5.10367">
        <ele>255</ele>
        <time>2016-06-30T08:34:42.000Z</time>
      </trkpt>
      <trkpt lat="44.20893" lon="5.1037">
        <ele>255</ele>
        <time>2016-06-30T08:34:43.000Z</time>
      </trkpt>
      <trkpt lat="44.2089" lon="5.10373">
        <ele>255</ele>
        <time>2016-06-30T08:34:44.000Z</time>
      </trkpt>
      <trkpt lat="44.20888" lon="5.10376">
        <ele>255</ele>
        <time>2016-06-30T08:34:45.000Z</time>
      </trkpt>
      <trkpt lat="44.20885" lon="5.10379">
        <ele>255</ele>
        <time>2016-06-30T08:34:46.000Z</time>
      </trkpt>
      <trkpt lat="44.20883" lon="5.10382">
        <ele>255</ele>
        <time>2016-06-30T08:34:47.000Z</time>
      </trkpt>
      <trkpt lat="44.2088" lon="5.10385">
        <ele>255</ele>
        <time>2016-06-30T08:34:48.000Z</time>
      </trkpt>
      <trkpt lat="44.20878" lon="5.10388">
        <ele>255</ele>
        <time>2016-06-30T08:34:49.000Z</time>
      </trkpt>
      <trkpt lat="44.20875" lon="5.10391">
        <ele>255</ele>
        <time>2016-06-30T08:34:50.000Z</time>
      </trkpt>
      <trkpt lat="44.20872" lon="5.10394">
        <ele>255</ele>
        <time>2016-06-30T08:34:51.000Z</time>
      </trkpt>
      <trkpt lat="44.2087" lon="5.10397">
        <ele>255</ele>
        <time>2016-06-30T08:34:52.000Z</time>
      </trkpt>
      <trkpt lat="44.20867" lon="5.104">
        <ele>255</ele>
        <time>2016-06-30T08:34:53.000Z</time>
      </trkpt>
      <trkpt lat="44.20864" lon="5.10404">
        <ele>255</ele>
        <time>2016-06-30T08:34:54.000Z</time>
      </trkpt>
      <trkpt lat="44.20862" lon="5.10407">
        <ele>255</ele>
        <time>2016-06-30T08:34:55.000Z</time>
      </trkpt>
      <trkpt lat="44.20859" lon="5.1041">
        <ele>254</ele>
        <time>2016-06-30T08:34:56.000Z</time>
      </trkpt>
      <trkpt lat="44.20856" lon="5.10413">
        <ele>254</ele>
        <time>2016-06-30T08:34:57.000Z</time>
      </trkpt>
      <trkpt lat="44.20852" lon="5.10417">
        <ele>254</ele>
        <time>2016-06-30T08:34:58.000Z</time>
      </trkpt>
      <trkpt lat="44.20849" lon="5.10421">
        <ele>254</ele>
        <time>2016-06-30T08:34:59.000Z</time>
      </trkpt>
      <trkpt lat="44.20846" lon="5.10425">
        <ele>254</ele>
        <time>2016-06-30T08:35:00.000Z</time>
      </trkpt>
      <trkpt lat="44.20842" lon="5.10428">
        <ele>254</ele>
        <time>2016-06-30T08:35:01.000Z</time>
      </trkpt>
      <trkpt lat="44.20838" lon="5.10432">
        <ele>254</ele>
        <time>2016-06-30T08:35:02.000Z</time>
      </trkpt>
      <trkpt lat="44.20834" lon="5.10436">
        <ele>254</ele>
        <time>2016-06-30T08:35:03.000Z</time>
      </trkpt>
      <trkpt lat="44.2083" lon="5.10439">
        <ele>254</ele>
        <time>2016-06-30T08:35:04.000Z</time>
      </trkpt>
      <trkpt lat="44.20826" lon="5.10443">
        <ele>254</ele>
        <time>2016-06-30T08:35:05.000Z</time>
      </trkpt>
      <trkpt lat="44.20821" lon="5.10446">
        <ele>254</ele>
        <time>2016-06-30T08:35:06.000Z</time>
      </trkpt>
      <trkpt lat="44.20817" lon="5.10449">
        <ele>253</ele>
        <time>2016-06-30T08:35:07.000Z</time>
      </trkpt>
      <trkpt lat="44.20813" lon="5.10452">
        <ele>253</ele>
        <time>2016-06-30T08:35:08.000Z</time>
      </trkpt>
      <trkpt lat="44.20808" lon="5.10455">
        <ele>253</ele>
        <time>2016-06-30T08:35:09.000Z</time>
      </trkpt>
      <trkpt lat="44.20804" lon="5.10458">
        <ele>253</ele>
        <time>2016-06-30T08:35:10.000Z</time>
      </trkpt>
      <trkpt lat="44.208" lon="5.1046">
        <ele>253</ele>
        <time>2016-06-30T08:35:11.000Z</time>
      </trkpt>
      <trkpt lat="44.20795" lon="5.10463">
        <ele>253</ele>
        <time>2016-06-30T08:35:12.000Z</time>
      </trkpt>
      <trkpt lat="44.20791" lon="5.10466">
        <ele>253</ele>
        <time>2016-06-30T08:35:13.000Z</time>
      </trkpt>
      <trkpt lat="44.20787" lon="5.10468">
        <ele>253</ele>
        <time>2016-06-30T08:35:14.000Z</time>
      </trkpt>
      <trkpt lat="44.20782" lon="5.10471">
        <ele>253</ele>
        <time>2016-06-30T08:35:15.000Z</time>
      </trkpt>
      <trkpt lat="44.20778" lon="5.10473">
        <ele>253</ele>
        <time>2016-06-30T08:35:16.000Z</time>
      </trkpt>
      <trkpt lat="44.20774" lon="5.10476">
        <ele>253</ele>
        <time>2016-06-30T08:35:17.000Z</time>
      </trkpt>
      <trkpt lat="44.2077" lon="5.10478">
        <ele>253</ele>
        <time>2016-06-30T08:35:18.000Z</time>
      </trkpt>
      <trkpt lat="44.20765" lon="5.10481">
        <ele>253</ele>
        <time>2016-06-30T08:35:19.000Z</time>
      </trkpt>
      <trkpt lat="44.20762" lon="5.10483">
        <ele>254</ele>
        <time>2016-06-30T08:35:20.000Z</time>
      </trkpt>
      <trkpt lat="44.20758" lon="5.10485">
        <ele>253</ele>
        <time>2016-06-30T08:35:21.000Z</time>
      </trkpt>
      <trkpt lat="44.20754" lon="5.10488">
        <ele>253</ele>
        <time>2016-06-30T08:35:22.000Z</time>
      </trkpt>
      <trkpt lat="44.2075" lon="5.1049">
        <ele>253</ele>
        <time>2016-06-30T08:35:23.000Z</time>
      </trkpt>
      <trkpt lat="44.20746" lon="5.10493">
        <ele>253</ele>
        <time>2016-06-30T08:35:24.000Z</time>
      </trkpt>
      <trkpt lat="44.20742" lon="5.10495">
        <ele>253</ele>
        <time>2016-06-30T08:35:25.000Z</time>
      </trkpt>
      <trkpt lat="44.20739" lon="5.10497">
        <ele>253</ele>
        <time>2016-06-30T08:35:26.000Z</time>
      </trkpt>
      <trkpt lat="44.20735" lon="5.10499">
        <ele>253</ele>
        <time>2016-06-30T08:35:27.000Z</time>
      </trkpt>
      <trkpt lat="44.20731" lon="5.10501">
        <ele>253</ele>
        <time>2016-06-30T08:35:28.000Z</time>
      </trkpt>
      <trkpt lat="44.20728" lon="5.10503">
        <ele>253</ele>
        <time>2016-06-30T08:35:29.000Z</time>
      </trkpt>
      <trkpt lat="44.20724" lon="5.10505">
        <ele>253</ele>
        <time>2016-06-30T08:35:30.000Z</time>
      </trkpt>
      <trkpt lat="44.20721" lon="5.10507">
        <ele>253</ele>
        <time>2016-06-30T08:35:31.000Z</time>
      </trkpt>
      <trkpt lat="44.20718" lon="5.10509">
        <ele>253</ele>
        <time>2016-06-30T08:35:32.000Z</time>
      </trkpt>
      <trkpt lat="44.20716" lon="5.1051">
        <ele>253</ele>
        <time>2016-06-30T08:35:33.000Z</time>
      </trkpt>
      <trkpt lat="44.20715" lon="5.10511">
        <ele>253</ele>
        <time>2016-06-30T08:35:34.000Z</time>
      </trkpt>
      <trkpt lat="44.20713" lon="5.10511">
        <ele>253</ele>
        <time>2016-06-30T08:35:35.000Z</time>
      </trkpt>
      <trkpt lat="44.20713" lon="5.10512">
        <ele>253</ele>
        <time>2016-06-30T08:35:36.000Z</time>
      </trkpt>
      <trkpt lat="44.20712" lon="5.10512">
        <ele>253</ele>
        <time>2016-06-30T08:35:37.000Z</time>
      </trkpt>
      <trkpt lat="44.20712" lon="5.10512">
        <ele>253</ele>
        <time>2016-06-30T08:35:38.000Z</time>
      </trkpt>
      <trkpt lat="44.20712" lon="5.10512">
        <ele>252</ele>
        <time>2016-06-30T08:35:39.000Z</time>
      </trkpt>
      <trkpt lat="44.20712" lon="5.10512">
        <ele>252</ele>
        <time>2016-06-30T08:35:40.000Z</time>
      </trkpt>
      <trkpt lat="44.20712" lon="5.10511">
        <ele>252</ele>
        <time>2016-06-30T08:35:41.000Z</time>
      </trkpt>
      <trkpt lat="44.20712" lon="5.10512">
        <ele>252</ele>
        <time>2016-06-30T08:35:42.000Z</time>
      </trkpt>
      <trkpt lat="44.20712" lon="5.10512">
        <ele>252</ele>
        <time>2016-06-30T08:35:43.000Z</time>
      </trkpt>
      <trkpt lat="44.20712" lon="5.10512">
        <ele>252</ele>
        <time>2016-06-30T08:35:44.000Z</time>
      </trkpt>
      <trkpt lat="44.20712" lon="5.10512">
        <ele>252</ele>
        <time>2016-06-30T08:35:45.000Z</time>
      </trkpt>
      <trkpt lat="44.20712" lon="5.10512">
        <ele>252</ele>
        <time>2016-06-30T08:35:46.000Z</time>
      </trkpt>
      <trkpt lat="44.20712" lon="5.10512">
        <ele>252</ele>
        <time>2016-06-30T08:35:47.000Z</time>
      </trkpt>
      <trkpt lat="44.20712" lon="5.10512">
        <ele>252</ele>
        <time>2016-06-30T08:35:48.000Z</time>
      </trkpt>
      <trkpt lat="44.20712" lon="5.10512">
        <ele>252</ele>
        <time>2016-06-30T08:35:49.000Z</time>
      </trkpt>
      <trkpt lat="44.20712" lon="5.10512">
        <ele>252</ele>
        <time>2016-06-30T08:35:50.000Z</time>
      </trkpt>
      <trkpt lat="44.20712" lon="5.10512">
        <ele>252</ele>
        <time>2016-06-30T08:35:51.000Z</time>
      </trkpt>
      <trkpt lat="44.20712" lon="5.10512">
        <ele>252</ele>
        <time>2016-06-30T08:35:52.000Z</time>
      </trkpt>
      <trkpt lat="44.20712" lon="5.10512">
        <ele>252</ele>
        <time>2016-06-30T08:35:53.000Z</time>
      </trkpt>
      <trkpt lat="44.20712" lon="5.10512">
        <ele>253</ele>
        <time>2016-06-30T08:35:54.000Z</time>
      </trkpt>
      <trkpt lat="44.20712" lon="5.10512">
        <ele>253</ele>
        <time>2016-06-30T08:35:55.000Z</time>
      </trkpt>
      <trkpt lat="44.20712" lon="5.10512">
        <ele>253</ele>
        <time>2016-06-30T08:35:56.000Z</time>
      </trkpt>
      <trkpt lat="44.20712" lon="5.10512">
        <ele>253</ele>
        <time>2016-06-30T08:35:57.000Z</time>
      </trkpt>
      <trkpt lat="44.20712" lon="5.10513">
        <ele>253</ele>
        <time>2016-06-30T08:35:58.000Z</time>
      </trkpt>
      <trkpt lat="44.20712" lon="5.10513">
        <ele>253</ele>
        <time>2016-06-30T08:35:59.000Z</time>
      </trkpt>
      <trkpt lat="44.20712" lon="5.10513">
        <ele>253</ele>
        <time>2016-06-30T08:36:00.000Z</time>
      </trkpt>
      <trkpt lat="44.20712" lon="5.10512">
        <ele>252</ele>
        <time>2016-06-30T08:36:01.000Z</time>
      </trkpt>
      <trkpt lat="44.20712" lon="5.10512">
        <ele>252</ele>
        <time>2016-06-30T08:36:02.000Z</time>
      </trkpt>
      <trkpt lat="44.20712" lon="5.10512">
        <ele>253</ele>
        <time>2016-06-30T08:36:03.000Z</time>
      </trkpt>
      <trkpt lat="44.20712" lon="5.10512">
        <ele>253</ele>
        <time>2016-06-30T08:36:04.000Z</time>
      </trkpt>
      <trkpt lat="44.20712" lon="5.10512">
        <ele>253</ele>
        <time>2016-06-30T08:36:05.000Z</time>
      </trkpt>
      <trkpt lat="44.20712" lon="5.10512">
        <ele>253</ele>
        <time>2016-06-30T08:36:06.000Z</time>
      </trkpt>
      <trkpt lat="44.20712" lon="5.10512">
        <ele>253</ele>
        <time>2016-06-30T08:36:07.000Z</time>
      </trkpt>
      <trkpt lat="44.20713" lon="5.10512">
        <ele>253</ele>
        <time>2016-06-30T08:36:08.000Z</time>
      </trkpt>
      <trkpt lat="44.20713" lon="5.10512">
        <ele>253</ele>
        <time>2016-06-30T08:36:09.000Z</time>
      </trkpt>
      <trkpt lat="44.20712" lon="5.10512">
        <ele>253</ele>
        <time>2016-06-30T08:36:10.000Z</time>
      </trkpt>
      <trkpt lat="44.20712" lon="5.10512">
        <ele>253</ele>
        <time>2016-06-30T08:36:11.000Z</time>
      </trkpt>
      <trkpt lat="44.20712" lon="5.10512">
        <ele>253</ele>
        <time>2016-06-30T08:36:12.000Z</time>
      </trkpt>
      <trkpt lat="44.20712" lon="5.10512">
        <ele>253</ele>
        <time>2016-06-30T08:36:13.000Z</time>
      </trkpt>
      <trkpt lat="44.20712" lon="5.10512">
        <ele>253</ele>
        <time>2016-06-30T08:36:14.000Z</time>
      </trkpt>
      <trkpt lat="44.20711" lon="5.10513">
        <ele>253</ele>
        <time>2016-06-30T08:36:15.000Z</time>
      </trkpt>
      <trkpt lat="44.2071" lon="5.10514">
        <ele>253</ele>
        <time>2016-06-30T08:36:16.000Z</time>
      </trkpt>
      <trkpt lat="44.20709" lon="5.10516">
        <ele>253</ele>
        <time>2016-06-30T08:36:17.000Z</time>
      </trkpt>
      <trkpt lat="44.20707" lon="5.10518">
        <ele>253</ele>
        <time>2016-06-30T08:36:18.000Z</time>
      </trkpt>
      <trkpt lat="44.20705" lon="5.1052">
        <ele>254</ele>
        <time>2016-06-30T08:36:19.000Z</time>
      </trkpt>
      <trkpt lat="44.20703" lon="5.10521">
        <ele>254</ele>
        <time>2016-06-30T08:36:20.000Z</time>
      </trkpt>
      <trkpt lat="44.20701" lon="5.10523">
        <ele>254</ele>
        <time>2016-06-30T08:36:21.000Z</time>
      </trkpt>
      <trkpt lat="44.20698" lon="5.10525">
        <ele>255</ele>
        <time>2016-06-30T08:36:22.000Z</time>
      </trkpt>
      <trkpt lat="44.20695" lon="5.10527">
        <ele>255</ele>
        <time>2016-06-30T08:36:23.000Z</time>
      </trkpt>
      <trkpt lat="44.20692" lon="5.10529">
        <ele>255</ele>
        <time>2016-06-30T08:36:24.000Z</time>
      </trkpt>
      <trkpt lat="44.20689" lon="5.10531">
        <ele>255</ele>
        <time>2016-06-30T08:36:25.000Z</time>
      </trkpt>
      <trkpt lat="44.20685" lon="5.10533">
        <ele>255</ele>
        <time>2016-06-30T08:36:26.000Z</time>
      </trkpt>
      <trkpt lat="44.20682" lon="5.10535">
        <ele>255</ele>
        <time>2016-06-30T08:36:27.000Z</time>
      </trkpt>
      <trkpt lat="44.20679" lon="5.10537">
        <ele>256</ele>
        <time>2016-06-30T08:36:28.000Z</time>
      </trkpt>
      <trkpt lat="44.20676" lon="5.10539">
        <ele>256</ele>
        <time>2016-06-30T08:36:29.000Z</time>
      </trkpt>
      <trkpt lat="44.20672" lon="5.10541">
        <ele>256</ele>
        <time>2016-06-30T08:36:30.000Z</time>
      </trkpt>
      <trkpt lat="44.20669" lon="5.10542">
        <ele>256</ele>
        <time>2016-06-30T08:36:31.000Z</time>
      </trkpt>
      <trkpt lat="44.20666" lon="5.10544">
        <ele>256</ele>
        <time>2016-06-30T08:36:32.000Z</time>
      </trkpt>
      <trkpt lat="44.20663" lon="5.10546">
        <ele>256</ele>
        <time>2016-06-30T08:36:33.000Z</time>
      </trkpt>
      <trkpt lat="44.20659" lon="5.10548">
        <ele>256</ele>
        <time>2016-06-30T08:36:34.000Z</time>
      </trkpt>
      <trkpt lat="44.20656" lon="5.1055">
        <ele>256</ele>
        <time>2016-06-30T08:36:35.000Z</time>
      </trkpt>
      <trkpt lat="44.20653" lon="5.10552">
        <ele>256</ele>
        <time>2016-06-30T08:36:36.000Z</time>
      </trkpt>
      <trkpt lat="44.20649" lon="5.10554">
        <ele>256</ele>
        <time>2016-06-30T08:36:37.000Z</time>
      </trkpt>
      <trkpt lat="44.20645" lon="5.10557">
        <ele>256</ele>
        <time>2016-06-30T08:36:38.000Z</time>
      </trkpt>
      <trkpt lat="44.20642" lon="5.10559">
        <ele>256</ele>
        <time>2016-06-30T08:36:39.000Z</time>
      </trkpt>
      <trkpt lat="44.20638" lon="5.10561">
        <ele>256</ele>
        <time>2016-06-30T08:36:40.000Z</time>
      </trkpt>
      <trkpt lat="44.20635" lon="5.10563">
        <ele>256</ele>
        <time>2016-06-30T08:36:41.000Z</time>
      </trkpt>
      <trkpt lat="44.20631" lon="5.10566">
        <ele>256</ele>
        <time>2016-06-30T08:36:42.000Z</time>
      </trkpt>
      <trkpt lat="44.20627" lon="5.10568">
        <ele>255</ele>
        <time>2016-06-30T08:36:43.000Z</time>
      </trkpt>
      <trkpt lat="44.20624" lon="5.1057">
        <ele>256</ele>
        <time>2016-06-30T08:36:44.000Z</time>
      </trkpt>
      <trkpt lat="44.2062" lon="5.10572">
        <ele>256</ele>
        <time>2016-06-30T08:36:45.000Z</time>
      </trkpt>
      <trkpt lat="44.20617" lon="5.10574">
        <ele>256</ele>
        <time>2016-06-30T08:36:46.000Z</time>
      </trkpt>
      <trkpt lat="44.20613" lon="5.10576">
        <ele>256</ele>
        <time>2016-06-30T08:36:47.000Z</time>
      </trkpt>
      <trkpt lat="44.2061" lon="5.10579">
        <ele>256</ele>
        <time>2016-06-30T08:36:48.000Z</time>
      </trkpt>
      <trkpt lat="44.20606" lon="5.10581">
        <ele>257</ele>
        <time>2016-06-30T08:36:49.000Z</time>
      </trkpt>
      <trkpt lat="44.20602" lon="5.10583">
        <ele>257</ele>
        <time>2016-06-30T08:36:50.000Z</time>
      </trkpt>
      <trkpt lat="44.20599" lon="5.10585">
        <ele>256</ele>
        <time>2016-06-30T08:36:51.000Z</time>
      </trkpt>
      <trkpt lat="44.20595" lon="5.10587">
        <ele>256</ele>
        <time>2016-06-30T08:36:52.000Z</time>
      </trkpt>
      <trkpt lat="44.20591" lon="5.1059">
        <ele>257</ele>
        <time>2016-06-30T08:36:53.000Z</time>
      </trkpt>
      <trkpt lat="44.20587" lon="5.10592">
        <ele>257</ele>
        <time>2016-06-30T08:36:54.000Z</time>
      </trkpt>
      <trkpt lat="44.20584" lon="5.10594">
        <ele>257</ele>
        <time>2016-06-30T08:36:55.000Z</time>
      </trkpt>
      <trkpt lat="44.2058" lon="5.10596">
        <ele>257</ele>
        <time>2016-06-30T08:36:56.000Z</time>
      </trkpt>
      <trkpt lat="44.20576" lon="5.10599">
        <ele>257</ele>
        <time>2016-06-30T08:36:57.000Z</time>
      </trkpt>
      <trkpt lat="44.20573" lon="5.10601">
        <ele>257</ele>
        <time>2016-06-30T08:36:58.000Z</time>
      </trkpt>
      <trkpt lat="44.20569" lon="5.10603">
        <ele>257</ele>
        <time>2016-06-30T08:36:59.000Z</time>
      </trkpt>
      <trkpt lat="44.20565" lon="5.10605">
        <ele>258</ele>
        <time>2016-06-30T08:37:00.000Z</time>
      </trkpt>
      <trkpt lat="44.20562" lon="5.10608">
        <ele>258</ele>
        <time>2016-06-30T08:37:01.000Z</time>
      </trkpt>
      <trkpt lat="44.20558" lon="5.1061">
        <ele>258</ele>
        <time>2016-06-30T08:37:02.000Z</time>
      </trkpt>
      <trkpt lat="44.20555" lon="5.10612">
        <ele>258</ele>
        <time>2016-06-30T08:37:03.000Z</time>
      </trkpt>
      <trkpt lat="44.20551" lon="5.10614">
        <ele>258</ele>
        <time>2016-06-30T08:37:04.000Z</time>
      </trkpt>
      <trkpt lat="44.20547" lon="5.10616">
        <ele>258</ele>
        <time>2016-06-30T08:37:05.000Z</time>
      </trkpt>
      <trkpt lat="44.20544" lon="5.10618">
        <ele>258</ele>
        <time>2016-06-30T08:37:06.000Z</time>
      </trkpt>
      <trkpt lat="44.2054" lon="5.10621">
        <ele>258</ele>
        <time>2016-06-30T08:37:07.000Z</time>
      </trkpt>
      <trkpt lat="44.20536" lon="5.10623">
        <ele>258</ele>
        <time>2016-06-30T08:37:08.000Z</time>
      </trkpt>
      <trkpt lat="44.20533" lon="5.10625">
        <ele>259</ele>
        <time>2016-06-30T08:37:09.000Z</time>
      </trkpt>
      <trkpt lat="44.20529" lon="5.10628">
        <ele>259</ele>
        <time>2016-06-30T08:37:10.000Z</time>
      </trkpt>
      <trkpt lat="44.20525" lon="5.1063">
        <ele>259</ele>
        <time>2016-06-30T08:37:11.000Z</time>
      </trkpt>
      <trkpt lat="44.20522" lon="5.10632">
        <ele>259</ele>
        <time>2016-06-30T08:37:12.000Z</time>
      </trkpt>
      <trkpt lat="44.20518" lon="5.10634">
        <ele>259</ele>
        <time>2016-06-30T08:37:13.000Z</time>
      </trkpt>
      <trkpt lat="44.20514" lon="5.10637">
        <ele>259</ele>
        <time>2016-06-30T08:37:14.000Z</time>
      </trkpt>
      <trkpt lat="44.2051" lon="5.10639">
        <ele>259</ele>
        <time>2016-06-30T08:37:15.000Z</time>
      </trkpt>
      <trkpt lat="44.20506" lon="5.10641">
        <ele>260</ele>
        <time>2016-06-30T08:37:16.000Z</time>
      </trkpt>
      <trkpt lat="44.20502" lon="5.10644">
        <ele>260</ele>
        <time>2016-06-30T08:37:17.000Z</time>
      </trkpt>
      <trkpt lat="44.20498" lon="5.10646">
        <ele>259</ele>
        <time>2016-06-30T08:37:18.000Z</time>
      </trkpt>
      <trkpt lat="44.20495" lon="5.10648">
        <ele>259</ele>
        <time>2016-06-30T08:37:19.000Z</time>
      </trkpt>
      <trkpt lat="44.20491" lon="5.10651">
        <ele>259</ele>
        <time>2016-06-30T08:37:20.000Z</time>
      </trkpt>
      <trkpt lat="44.20487" lon="5.10653">
        <ele>259</ele>
        <time>2016-06-30T08:37:21.000Z</time>
      </trkpt>
      <trkpt lat="44.20483" lon="5.10655">
        <ele>259</ele>
        <time>2016-06-30T08:37:22.000Z</time>
      </trkpt>
      <trkpt lat="44.20479" lon="5.10657">
        <ele>259</ele>
        <time>2016-06-30T08:37:23.000Z</time>
      </trkpt>
      <trkpt lat="44.20475" lon="5.1066">
        <ele>259</ele>
        <time>2016-06-30T08:37:24.000Z</time>
      </trkpt>
      <trkpt lat="44.20471" lon="5.10662">
        <ele>258</ele>
        <time>2016-06-30T08:37:25.000Z</time>
      </trkpt>
      <trkpt lat="44.20467" lon="5.10665">
        <ele>258</ele>
        <time>2016-06-30T08:37:26.000Z</time>
      </trkpt>
      <trkpt lat="44.20463" lon="5.10668">
        <ele>258</ele>
        <time>2016-06-30T08:37:27.000Z</time>
      </trkpt>
      <trkpt lat="44.2046" lon="5.10671">
        <ele>258</ele>
        <time>2016-06-30T08:37:28.000Z</time>
      </trkpt>
      <trkpt lat="44.20456" lon="5.10674">
        <ele>258</ele>
        <time>2016-06-30T08:37:29.000Z</time>
      </trkpt>
      <trkpt lat="44.20452" lon="5.10677">
        <ele>258</ele>
        <time>2016-06-30T08:37:30.000Z</time>
      </trkpt>
      <trkpt lat="44.20448" lon="5.10681">
        <ele>258</ele>
        <time>2016-06-30T08:37:31.000Z</time>
      </trkpt>
      <trkpt lat="44.20445" lon="5.10685">
        <ele>258</ele>
        <time>2016-06-30T08:37:32.000Z</time>
      </trkpt>
      <trkpt lat="44.20441" lon="5.10689">
        <ele>258</ele>
        <time>2016-06-30T08:37:33.000Z</time>
      </trkpt>
      <trkpt lat="44.20438" lon="5.10694">
        <ele>258</ele>
        <time>2016-06-30T08:37:34.000Z</time>
      </trkpt>
      <trkpt lat="44.20434" lon="5.10698">
        <ele>258</ele>
        <time>2016-06-30T08:37:35.000Z</time>
      </trkpt>
      <trkpt lat="44.20431" lon="5.10702">
        <ele>258</ele>
        <time>2016-06-30T08:37:36.000Z</time>
      </trkpt>
      <trkpt lat="44.20427" lon="5.10707">
        <ele>258</ele>
        <time>2016-06-30T08:37:37.000Z</time>
      </trkpt>
      <trkpt lat="44.20424" lon="5.10711">
        <ele>258</ele>
        <time>2016-06-30T08:37:38.000Z</time>
      </trkpt>
      <trkpt lat="44.20421" lon="5.10716">
        <ele>258</ele>
        <time>2016-06-30T08:37:39.000Z</time>
      </trkpt>
      <trkpt lat="44.20418" lon="5.1072">
        <ele>258</ele>
        <time>2016-06-30T08:37:40.000Z</time>
      </trkpt>
      <trkpt lat="44.20415" lon="5.10725">
        <ele>258</ele>
        <time>2016-06-30T08:37:41.000Z</time>
      </trkpt>
      <trkpt lat="44.20412" lon="5.1073">
        <ele>257</ele>
        <time>2016-06-30T08:37:42.000Z</time>
      </trkpt>
      <trkpt lat="44.20409" lon="5.10734">
        <ele>258</ele>
        <time>2016-06-30T08:37:43.000Z</time>
      </trkpt>
      <trkpt lat="44.20406" lon="5.10739">
        <ele>257</ele>
        <time>2016-06-30T08:37:44.000Z</time>
      </trkpt>
      <trkpt lat="44.20403" lon="5.10743">
        <ele>257</ele>
        <time>2016-06-30T08:37:45.000Z</time>
      </trkpt>
      <trkpt lat="44.204" lon="5.10748">
        <ele>257</ele>
        <time>2016-06-30T08:37:46.000Z</time>
      </trkpt>
      <trkpt lat="44.20397" lon="5.10752">
        <ele>257</ele>
        <time>2016-06-30T08:37:47.000Z</time>
      </trkpt>
      <trkpt lat="44.20395" lon="5.10757">
        <ele>257</ele>
        <time>2016-06-30T08:37:48.000Z</time>
      </trkpt>
      <trkpt lat="44.20392" lon="5.10761">
        <ele>257</ele>
        <time>2016-06-30T08:37:49.000Z</time>
      </trkpt>
      <trkpt lat="44.20389" lon="5.10766">
        <ele>257</ele>
        <time>2016-06-30T08:37:50.000Z</time>
      </trkpt>
      <trkpt lat="44.20386" lon="5.1077">
        <ele>257</ele>
        <time>2016-06-30T08:37:51.000Z</time>
      </trkpt>
      <trkpt lat="44.20383" lon="5.10774">
        <ele>257</ele>
        <time>2016-06-30T08:37:52.000Z</time>
      </trkpt>
      <trkpt lat="44.20381" lon="5.10778">
        <ele>257</ele>
        <time>2016-06-30T08:37:53.000Z</time>
      </trkpt>
      <trkpt lat="44.20378" lon="5.10782">
        <ele>257</ele>
        <time>2016-06-30T08:37:54.000Z</time>
      </trkpt>
      <trkpt lat="44.20376" lon="5.10787">
        <ele>257</ele>
        <time>2016-06-30T08:37:55.000Z</time>
      </trkpt>
      <trkpt lat="44.20373" lon="5.10791">
        <ele>257</ele>
        <time>2016-06-30T08:37:56.000Z</time>
      </trkpt>
      <trkpt lat="44.2037" lon="5.10795">
        <ele>257</ele>
        <time>2016-06-30T08:37:57.000Z</time>
      </trkpt>
      <trkpt lat="44.20367" lon="5.108">
        <ele>257</ele>
        <time>2016-06-30T08:37:58.000Z</time>
      </trkpt>
      <trkpt lat="44.20365" lon="5.10804">
        <ele>258</ele>
        <time>2016-06-30T08:37:59.000Z</time>
      </trkpt>
      <trkpt lat="44.20362" lon="5.10808">
        <ele>258</ele>
        <time>2016-06-30T08:38:00.000Z</time>
      </trkpt>
      <trkpt lat="44.20359" lon="5.10812">
        <ele>258</ele>
        <time>2016-06-30T08:38:01.000Z</time>
      </trkpt>
      <trkpt lat="44.20356" lon="5.10816">
        <ele>258</ele>
        <time>2016-06-30T08:38:02.000Z</time>
      </trkpt>
      <trkpt lat="44.20354" lon="5.10821">
        <ele>258</ele>
        <time>2016-06-30T08:38:03.000Z</time>
      </trkpt>
      <trkpt lat="44.20351" lon="5.10825">
        <ele>258</ele>
        <time>2016-06-30T08:38:04.000Z</time>
      </trkpt>
      <trkpt lat="44.20348" lon="5.10829">
        <ele>258</ele>
        <time>2016-06-30T08:38:05.000Z</time>
      </trkpt>
      <trkpt lat="44.20346" lon="5.10833">
        <ele>258</ele>
        <time>2016-06-30T08:38:06.000Z</time>
      </trkpt>
      <trkpt lat="44.20343" lon="5.10837">
        <ele>258</ele>
        <time>2016-06-30T08:38:07.000Z</time>
      </trkpt>
      <trkpt lat="44.2034" lon="5.10841">
        <ele>258</ele>
        <time>2016-06-30T08:38:08.000Z</time>
      </trkpt>
      <trkpt lat="44.20338" lon="5.10845">
        <ele>258</ele>
        <time>2016-06-30T08:38:09.000Z</time>
      </trkpt>
      <trkpt lat="44.20335" lon="5.10849">
        <ele>258</ele>
        <time>2016-06-30T08:38:10.000Z</time>
      </trkpt>
      <trkpt lat="44.20332" lon="5.10853">
        <ele>258</ele>
        <time>2016-06-30T08:38:11.000Z</time>
      </trkpt>
      <trkpt lat="44.2033" lon="5.10857">
        <ele>258</ele>
        <time>2016-06-30T08:38:12.000Z</time>
      </trkpt>
      <trkpt lat="44.20327" lon="5.10861">
        <ele>258</ele>
        <time>2016-06-30T08:38:13.000Z</time>
      </trkpt>
      <trkpt lat="44.20325" lon="5.10864">
        <ele>258</ele>
        <time>2016-06-30T08:38:14.000Z</time>
      </trkpt>
      <trkpt lat="44.20323" lon="5.10868">
        <ele>258</ele>
        <time>2016-06-30T08:38:15.000Z</time>
      </trkpt>
      <trkpt lat="44.2032" lon="5.10872">
        <ele>258</ele>
        <time>2016-06-30T08:38:16.000Z</time>
      </trkpt>
      <trkpt lat="44.20317" lon="5.10876">
        <ele>258</ele>
        <time>2016-06-30T08:38:17.000Z</time>
      </trkpt>
      <trkpt lat="44.20315" lon="5.1088">
        <ele>258</ele>
        <time>2016-06-30T08:38:18.000Z</time>
      </trkpt>
      <trkpt lat="44.20312" lon="5.10884">
        <ele>258</ele>
        <time>2016-06-30T08:38:19.000Z</time>
      </trkpt>
      <trkpt lat="44.20309" lon="5.10887">
        <ele>258</ele>
        <time>2016-06-30T08:38:20.000Z</time>
      </trkpt>
      <trkpt lat="44.20306" lon="5.10891">
        <ele>258</ele>
        <time>2016-06-30T08:38:21.000Z</time>
      </trkpt>
      <trkpt lat="44.20303" lon="5.10895">
        <ele>258</ele>
        <time>2016-06-30T08:38:22.000Z</time>
      </trkpt>
      <trkpt lat="44.20301" lon="5.10899">
        <ele>258</ele>
        <time>2016-06-30T08:38:23.000Z</time>
      </trkpt>
      <trkpt lat="44.20298" lon="5.10903">
        <ele>258</ele>
        <time>2016-06-30T08:38:24.000Z</time>
      </trkpt>
      <trkpt lat="44.20295" lon="5.10908">
        <ele>258</ele>
        <time>2016-06-30T08:38:25.000Z</time>
      </trkpt>
      <trkpt lat="44.20292" lon="5.10912">
        <ele>258</ele>
        <time>2016-06-30T08:38:26.000Z</time>
      </trkpt>
      <trkpt lat="44.20289" lon="5.10916">
        <ele>258</ele>
        <time>2016-06-30T08:38:27.000Z</time>
      </trkpt>
      <trkpt lat="44.20286" lon="5.1092">
        <ele>258</ele>
        <time>2016-06-30T08:38:28.000Z</time>
      </trkpt>
      <trkpt lat="44.20283" lon="5.10924">
        <ele>258</ele>
        <time>2016-06-30T08:38:29.000Z</time>
      </trkpt>
      <trkpt lat="44.2028" lon="5.10928">
        <ele>258</ele>
        <time>2016-06-30T08:38:30.000Z</time>
      </trkpt>
      <trkpt lat="44.20277" lon="5.10932">
        <ele>258</ele>
        <time>2016-06-30T08:38:31.000Z</time>
      </trkpt>
      <trkpt lat="44.20274" lon="5.10936">
        <ele>259</ele>
        <time>2016-06-30T08:38:32.000Z</time>
      </trkpt>
      <trkpt lat="44.20271" lon="5.1094">
        <ele>259</ele>
        <time>2016-06-30T08:38:33.000Z</time>
      </trkpt>
      <trkpt lat="44.20268" lon="5.10944">
        <ele>259</ele>
        <time>2016-06-30T08:38:34.000Z</time>
      </trkpt>
      <trkpt lat="44.20265" lon="5.10948">
        <ele>259</ele>
        <time>2016-06-30T08:38:35.000Z</time>
      </trkpt>
      <trkpt lat="44.20263" lon="5.10952">
        <ele>259</ele>
        <time>2016-06-30T08:38:36.000Z</time>
      </trkpt>
      <trkpt lat="44.2026" lon="5.10956">
        <ele>259</ele>
        <time>2016-06-30T08:38:37.000Z</time>
      </trkpt>
      <trkpt lat="44.20257" lon="5.1096">
        <ele>259</ele>
        <time>2016-06-30T08:38:38.000Z</time>
      </trkpt>
      <trkpt lat="44.20254" lon="5.10964">
        <ele>259</ele>
        <time>2016-06-30T08:38:39.000Z</time>
      </trkpt>
      <trkpt lat="44.20251" lon="5.10967">
        <ele>259</ele>
        <time>2016-06-30T08:38:40.000Z</time>
      </trkpt>
      <trkpt lat="44.20249" lon="5.10971">
        <ele>259</ele>
        <time>2016-06-30T08:38:41.000Z</time>
      </trkpt>
      <trkpt lat="44.20246" lon="5.10975">
        <ele>259</ele>
        <time>2016-06-30T08:38:42.000Z</time>
      </trkpt>
      <trkpt lat="44.20243" lon="5.10979">
        <ele>259</ele>
        <time>2016-06-30T08:38:43.000Z</time>
      </trkpt>
      <trkpt lat="44.2024" lon="5.10983">
        <ele>259</ele>
        <time>2016-06-30T08:38:44.000Z</time>
      </trkpt>
      <trkpt lat="44.20238" lon="5.10987">
        <ele>259</ele>
        <time>2016-06-30T08:38:45.000Z</time>
      </trkpt>
      <trkpt lat="44.20235" lon="5.10991">
        <ele>259</ele>
        <time>2016-06-30T08:38:46.000Z</time>
      </trkpt>
      <trkpt lat="44.20232" lon="5.10995">
        <ele>259</ele>
        <time>2016-06-30T08:38:47.000Z</time>
      </trkpt>
      <trkpt lat="44.20229" lon="5.10999">
        <ele>259</ele>
        <time>2016-06-30T08:38:48.000Z</time>
      </trkpt>
      <trkpt lat="44.20226" lon="5.11003">
        <ele>259</ele>
        <time>2016-06-30T08:38:49.000Z</time>
      </trkpt>
      <trkpt lat="44.20224" lon="5.11007">
        <ele>259</ele>
        <time>2016-06-30T08:38:50.000Z</time>
      </trkpt>
      <trkpt lat="44.20221" lon="5.11011">
        <ele>260</ele>
        <time>2016-06-30T08:38:51.000Z</time>
      </trkpt>
      <trkpt lat="44.20218" lon="5.11015">
        <ele>260</ele>
        <time>2016-06-30T08:38:52.000Z</time>
      </trkpt>
      <trkpt lat="44.20215" lon="5.11019">
        <ele>260</ele>
        <time>2016-06-30T08:38:53.000Z</time>
      </trkpt>
      <trkpt lat="44.20212" lon="5.11023">
        <ele>260</ele>
        <time>2016-06-30T08:38:54.000Z</time>
      </trkpt>
      <trkpt lat="44.20209" lon="5.11026">
        <ele>260</ele>
        <time>2016-06-30T08:38:55.000Z</time>
      </trkpt>
      <trkpt lat="44.20206" lon="5.11031">
        <ele>260</ele>
        <time>2016-06-30T08:38:56.000Z</time>
      </trkpt>
      <trkpt lat="44.20204" lon="5.11035">
        <ele>260</ele>
        <time>2016-06-30T08:38:57.000Z</time>
      </trkpt>
      <trkpt lat="44.20201" lon="5.11039">
        <ele>260</ele>
        <time>2016-06-30T08:38:58.000Z</time>
      </trkpt>
      <trkpt lat="44.20198" lon="5.11043">
        <ele>260</ele>
        <time>2016-06-30T08:38:59.000Z</time>
      </trkpt>
      <trkpt lat="44.20195" lon="5.11047">
        <ele>260</ele>
        <time>2016-06-30T08:39:00.000Z</time>
      </trkpt>
      <trkpt lat="44.20192" lon="5.11051">
        <ele>260</ele>
        <time>2016-06-30T08:39:01.000Z</time>
      </trkpt>
      <trkpt lat="44.20189" lon="5.11055">
        <ele>260</ele>
        <time>2016-06-30T08:39:02.000Z</time>
      </trkpt>
      <trkpt lat="44.20186" lon="5.11059">
        <ele>260</ele>
        <time>2016-06-30T08:39:03.000Z</time>
      </trkpt>
      <trkpt lat="44.20182" lon="5.11064">
        <ele>260</ele>
        <time>2016-06-30T08:39:04.000Z</time>
      </trkpt>
      <trkpt lat="44.20179" lon="5.11068">
        <ele>260</ele>
        <time>2016-06-30T08:39:05.000Z</time>
      </trkpt>
      <trkpt lat="44.20176" lon="5.11072">
        <ele>260</ele>
        <time>2016-06-30T08:39:06.000Z</time>
      </trkpt>
      <trkpt lat="44.20173" lon="5.11077">
        <ele>261</ele>
        <time>2016-06-30T08:39:07.000Z</time>
      </trkpt>
      <trkpt lat="44.2017" lon="5.11081">
        <ele>261</ele>
        <time>2016-06-30T08:39:08.000Z</time>
      </trkpt>
      <trkpt lat="44.20167" lon="5.11085">
        <ele>261</ele>
        <time>2016-06-30T08:39:09.000Z</time>
      </trkpt>
      <trkpt lat="44.20163" lon="5.1109">
        <ele>261</ele>
        <time>2016-06-30T08:39:10.000Z</time>
      </trkpt>
      <trkpt lat="44.2016" lon="5.11094">
        <ele>261</ele>
        <time>2016-06-30T08:39:11.000Z</time>
      </trkpt>
      <trkpt lat="44.20157" lon="5.11098">
        <ele>261</ele>
        <time>2016-06-30T08:39:12.000Z</time>
      </trkpt>
      <trkpt lat="44.20154" lon="5.11102">
        <ele>261</ele>
        <time>2016-06-30T08:39:13.000Z</time>
      </trkpt>
      <trkpt lat="44.20151" lon="5.11106">
        <ele>261</ele>
        <time>2016-06-30T08:39:14.000Z</time>
      </trkpt>
      <trkpt lat="44.20148" lon="5.11111">
        <ele>261</ele>
        <time>2016-06-30T08:39:15.000Z</time>
      </trkpt>
      <trkpt lat="44.20145" lon="5.11115">
        <ele>261</ele>
        <time>2016-06-30T08:39:16.000Z</time>
      </trkpt>
      <trkpt lat="44.20142" lon="5.11119">
        <ele>262</ele>
        <time>2016-06-30T08:39:17.000Z</time>
      </trkpt>
      <trkpt lat="44.20139" lon="5.11123">
        <ele>262</ele>
        <time>2016-06-30T08:39:18.000Z</time>
      </trkpt>
      <trkpt lat="44.20136" lon="5.11128">
        <ele>262</ele>
        <time>2016-06-30T08:39:19.000Z</time>
      </trkpt>
      <trkpt lat="44.20133" lon="5.11132">
        <ele>262</ele>
        <time>2016-06-30T08:39:20.000Z</time>
      </trkpt>
      <trkpt lat="44.2013" lon="5.11136">
        <ele>262</ele>
        <time>2016-06-30T08:39:21.000Z</time>
      </trkpt>
      <trkpt lat="44.20127" lon="5.1114">
        <ele>262</ele>
        <time>2016-06-30T08:39:22.000Z</time>
      </trkpt>
      <trkpt lat="44.20124" lon="5.11145">
        <ele>262</ele>
        <time>2016-06-30T08:39:23.000Z</time>
      </trkpt>
      <trkpt lat="44.20121" lon="5.11149">
        <ele>262</ele>
        <time>2016-06-30T08:39:24.000Z</time>
      </trkpt>
      <trkpt lat="44.20118" lon="5.11153">
        <ele>263</ele>
        <time>2016-06-30T08:39:25.000Z</time>
      </trkpt>
      <trkpt lat="44.20115" lon="5.11157">
        <ele>263</ele>
        <time>2016-06-30T08:39:26.000Z</time>
      </trkpt>
      <trkpt lat="44.20112" lon="5.11161">
        <ele>263</ele>
        <time>2016-06-30T08:39:27.000Z</time>
      </trkpt>
      <trkpt lat="44.20109" lon="5.11165">
        <ele>263</ele>
        <time>2016-06-30T08:39:28.000Z</time>
      </trkpt>
      <trkpt lat="44.20106" lon="5.1117">
        <ele>263</ele>
        <time>2016-06-30T08:39:29.000Z</time>
      </trkpt>
      <trkpt lat="44.20103" lon="5.11174">
        <ele>263</ele>
        <time>2016-06-30T08:39:30.000Z</time>
      </trkpt>
      <trkpt lat="44.20099" lon="5.11179">
        <ele>263</ele>
        <time>2016-06-30T08:39:31.000Z</time>
      </trkpt>
      <trkpt lat="44.20096" lon="5.11183">
        <ele>263</ele>
        <time>2016-06-30T08:39:32.000Z</time>
      </trkpt>
      <trkpt lat="44.20093" lon="5.11187">
        <ele>263</ele>
        <time>2016-06-30T08:39:33.000Z</time>
      </trkpt>
      <trkpt lat="44.2009" lon="5.11192">
        <ele>263</ele>
        <time>2016-06-30T08:39:34.000Z</time>
      </trkpt>
      <trkpt lat="44.20087" lon="5.11196">
        <ele>263</ele>
        <time>2016-06-30T08:39:35.000Z</time>
      </trkpt>
      <trkpt lat="44.20084" lon="5.112">
        <ele>263</ele>
        <time>2016-06-30T08:39:36.000Z</time>
      </trkpt>
      <trkpt lat="44.20081" lon="5.11204">
        <ele>264</ele>
        <time>2016-06-30T08:39:37.000Z</time>
      </trkpt>
      <trkpt lat="44.20078" lon="5.11208">
        <ele>264</ele>
        <time>2016-06-30T08:39:38.000Z</time>
      </trkpt>
      <trkpt lat="44.20075" lon="5.11211">
        <ele>264</ele>
        <time>2016-06-30T08:39:39.000Z</time>
      </trkpt>
      <trkpt lat="44.20072" lon="5.11215">
        <ele>264</ele>
        <time>2016-06-30T08:39:40.000Z</time>
      </trkpt>
      <trkpt lat="44.20069" lon="5.11218">
        <ele>264</ele>
        <time>2016-06-30T08:39:41.000Z</time>
      </trkpt>
      <trkpt lat="44.20066" lon="5.11222">
        <ele>264</ele>
        <time>2016-06-30T08:39:42.000Z</time>
      </trkpt>
      <trkpt lat="44.20062" lon="5.11225">
        <ele>264</ele>
        <time>2016-06-30T08:39:43.000Z</time>
      </trkpt>
      <trkpt lat="44.20059" lon="5.11229">
        <ele>264</ele>
        <time>2016-06-30T08:39:44.000Z</time>
      </trkpt>
      <trkpt lat="44.20056" lon="5.11232">
        <ele>264</ele>
        <time>2016-06-30T08:39:45.000Z</time>
      </trkpt>
      <trkpt lat="44.20053" lon="5.11236">
        <ele>264</ele>
        <time>2016-06-30T08:39:46.000Z</time>
      </trkpt>
      <trkpt lat="44.2005" lon="5.11239">
        <ele>264</ele>
        <time>2016-06-30T08:39:47.000Z</time>
      </trkpt>
      <trkpt lat="44.20047" lon="5.11243">
        <ele>264</ele>
        <time>2016-06-30T08:39:48.000Z</time>
      </trkpt>
      <trkpt lat="44.20044" lon="5.11247">
        <ele>264</ele>
        <time>2016-06-30T08:39:49.000Z</time>
      </trkpt>
      <trkpt lat="44.20041" lon="5.1125">
        <ele>264</ele>
        <time>2016-06-30T08:39:50.000Z</time>
      </trkpt>
      <trkpt lat="44.20037" lon="5.11254">
        <ele>264</ele>
        <time>2016-06-30T08:39:51.000Z</time>
      </trkpt>
      <trkpt lat="44.20034" lon="5.11257">
        <ele>264</ele>
        <time>2016-06-30T08:39:52.000Z</time>
      </trkpt>
      <trkpt lat="44.20031" lon="5.11261">
        <ele>264</ele>
        <time>2016-06-30T08:39:53.000Z</time>
      </trkpt>
      <trkpt lat="44.20028" lon="5.11264">
        <ele>264</ele>
        <time>2016-06-30T08:39:54.000Z</time>
      </trkpt>
      <trkpt lat="44.20025" lon="5.11268">
        <ele>264</ele>
        <time>2016-06-30T08:39:55.000Z</time>
      </trkpt>
      <trkpt lat="44.20021" lon="5.11271">
        <ele>264</ele>
        <time>2016-06-30T08:39:56.000Z</time>
      </trkpt>
      <trkpt lat="44.20018" lon="5.11275">
        <ele>265</ele>
        <time>2016-06-30T08:39:57.000Z</time>
      </trkpt>
      <trkpt lat="44.20015" lon="5.11278">
        <ele>265</ele>
        <time>2016-06-30T08:39:58.000Z</time>
      </trkpt>
      <trkpt lat="44.20012" lon="5.11282">
        <ele>265</ele>
        <time>2016-06-30T08:39:59.000Z</time>
      </trkpt>
      <trkpt lat="44.20009" lon="5.11285">
        <ele>265</ele>
        <time>2016-06-30T08:40:00.000Z</time>
      </trkpt>
      <trkpt lat="44.20006" lon="5.11288">
        <ele>265</ele>
        <time>2016-06-30T08:40:01.000Z</time>
      </trkpt>
      <trkpt lat="44.20002" lon="5.11292">
        <ele>265</ele>
        <time>2016-06-30T08:40:02.000Z</time>
      </trkpt>
      <trkpt lat="44.19999" lon="5.11295">
        <ele>265</ele>
        <time>2016-06-30T08:40:03.000Z</time>
      </trkpt>
      <trkpt lat="44.19996" lon="5.11299">
        <ele>265</ele>
        <time>2016-06-30T08:40:04.000Z</time>
      </trkpt>
      <trkpt lat="44.19993" lon="5.11303">
        <ele>265</ele>
        <time>2016-06-30T08:40:05.000Z</time>
      </trkpt>
      <trkpt lat="44.1999" lon="5.11307">
        <ele>265</ele>
        <time>2016-06-30T08:40:06.000Z</time>
      </trkpt>
      <trkpt lat="44.19987" lon="5.1131">
        <ele>266</ele>
        <time>2016-06-30T08:40:07.000Z</time>
      </trkpt>
      <trkpt lat="44.19984" lon="5.11314">
        <ele>266</ele>
        <time>2016-06-30T08:40:08.000Z</time>
      </trkpt>
      <trkpt lat="44.1998" lon="5.11318">
        <ele>266</ele>
        <time>2016-06-30T08:40:09.000Z</time>
      </trkpt>
      <trkpt lat="44.19978" lon="5.11322">
        <ele>266</ele>
        <time>2016-06-30T08:40:10.000Z</time>
      </trkpt>
      <trkpt lat="44.19975" lon="5.11326">
        <ele>266</ele>
        <time>2016-06-30T08:40:11.000Z</time>
      </trkpt>
      <trkpt lat="44.19972" lon="5.1133">
        <ele>266</ele>
        <time>2016-06-30T08:40:12.000Z</time>
      </trkpt>
      <trkpt lat="44.19969" lon="5.11333">
        <ele>266</ele>
        <time>2016-06-30T08:40:13.000Z</time>
      </trkpt>
      <trkpt lat="44.19966" lon="5.11337">
        <ele>266</ele>
        <time>2016-06-30T08:40:14.000Z</time>
      </trkpt>
      <trkpt lat="44.19963" lon="5.11341">
        <ele>266</ele>
        <time>2016-06-30T08:40:15.000Z</time>
      </trkpt>
      <trkpt lat="44.1996" lon="5.11346">
        <ele>266</ele>
        <time>2016-06-30T08:40:16.000Z</time>
      </trkpt>
      <trkpt lat="44.19957" lon="5.1135">
        <ele>267</ele>
        <time>2016-06-30T08:40:17.000Z</time>
      </trkpt>
      <trkpt lat="44.19954" lon="5.11354">
        <ele>267</ele>
        <time>2016-06-30T08:40:18.000Z</time>
      </trkpt>
      <trkpt lat="44.19952" lon="5.11359">
        <ele>267</ele>
        <time>2016-06-30T08:40:19.000Z</time>
      </trkpt>
      <trkpt lat="44.19949" lon="5.11363">
        <ele>267</ele>
        <time>2016-06-30T08:40:20.000Z</time>
      </trkpt>
      <trkpt lat="44.19946" lon="5.11367">
        <ele>267</ele>
        <time>2016-06-30T08:40:21.000Z</time>
      </trkpt>
      <trkpt lat="44.19943" lon="5.11371">
        <ele>267</ele>
        <time>2016-06-30T08:40:22.000Z</time>
      </trkpt>
      <trkpt lat="44.19941" lon="5.11376">
        <ele>267</ele>
        <time>2016-06-30T08:40:23.000Z</time>
      </trkpt>
      <trkpt lat="44.19938" lon="5.1138">
        <ele>267</ele>
        <time>2016-06-30T08:40:24.000Z</time>
      </trkpt>
      <trkpt lat="44.19935" lon="5.11384">
        <ele>268</ele>
        <time>2016-06-30T08:40:25.000Z</time>
      </trkpt>
      <trkpt lat="44.19933" lon="5.11389">
        <ele>268</ele>
        <time>2016-06-30T08:40:26.000Z</time>
      </trkpt>
      <trkpt lat="44.1993" lon="5.11393">
        <ele>268</ele>
        <time>2016-06-30T08:40:27.000Z</time>
      </trkpt>
      <trkpt lat="44.19928" lon="5.11398">
        <ele>268</ele>
        <time>2016-06-30T08:40:28.000Z</time>
      </trkpt>
      <trkpt lat="44.19925" lon="5.11402">
        <ele>268</ele>
        <time>2016-06-30T08:40:29.000Z</time>
      </trkpt>
      <trkpt lat="44.19923" lon="5.11407">
        <ele>268</ele>
        <time>2016-06-30T08:40:30.000Z</time>
      </trkpt>
      <trkpt lat="44.19921" lon="5.11411">
        <ele>268</ele>
        <time>2016-06-30T08:40:31.000Z</time>
      </trkpt>
      <trkpt lat="44.19918" lon="5.11416">
        <ele>268</ele>
        <time>2016-06-30T08:40:32.000Z</time>
      </trkpt>
      <trkpt lat="44.19916" lon="5.1142">
        <ele>269</ele>
        <time>2016-06-30T08:40:33.000Z</time>
      </trkpt>
      <trkpt lat="44.19913" lon="5.11425">
        <ele>269</ele>
        <time>2016-06-30T08:40:34.000Z</time>
      </trkpt>
      <trkpt lat="44.19911" lon="5.1143">
        <ele>269</ele>
        <time>2016-06-30T08:40:35.000Z</time>
      </trkpt>
      <trkpt lat="44.19909" lon="5.11434">
        <ele>269</ele>
        <time>2016-06-30T08:40:36.000Z</time>
      </trkpt>
      <trkpt lat="44.19907" lon="5.11438">
        <ele>269</ele>
        <time>2016-06-30T08:40:37.000Z</time>
      </trkpt>
      <trkpt lat="44.19904" lon="5.11443">
        <ele>269</ele>
        <time>2016-06-30T08:40:38.000Z</time>
      </trkpt>
      <trkpt lat="44.19902" lon="5.11447">
        <ele>270</ele>
        <time>2016-06-30T08:40:39.000Z</time>
      </trkpt>
      <trkpt lat="44.199" lon="5.11451">
        <ele>270</ele>
        <time>2016-06-30T08:40:40.000Z</time>
      </trkpt>
      <trkpt lat="44.19897" lon="5.11455">
        <ele>270</ele>
        <time>2016-06-30T08:40:41.000Z</time>
      </trkpt>
      <trkpt lat="44.19895" lon="5.1146">
        <ele>270</ele>
        <time>2016-06-30T08:40:42.000Z</time>
      </trkpt>
      <trkpt lat="44.19893" lon="5.11464">
        <ele>270</ele>
        <time>2016-06-30T08:40:43.000Z</time>
      </trkpt>
      <trkpt lat="44.1989" lon="5.11468">
        <ele>270</ele>
        <time>2016-06-30T08:40:44.000Z</time>
      </trkpt>
      <trkpt lat="44.19888" lon="5.11473">
        <ele>270</ele>
        <time>2016-06-30T08:40:45.000Z</time>
      </trkpt>
      <trkpt lat="44.19885" lon="5.11477">
        <ele>270</ele>
        <time>2016-06-30T08:40:46.000Z</time>
      </trkpt>
      <trkpt lat="44.19882" lon="5.11482">
        <ele>270</ele>
        <time>2016-06-30T08:40:47.000Z</time>
      </trkpt>
      <trkpt lat="44.19879" lon="5.11487">
        <ele>270</ele>
        <time>2016-06-30T08:40:48.000Z</time>
      </trkpt>
      <trkpt lat="44.19876" lon="5.11492">
        <ele>271</ele>
        <time>2016-06-30T08:40:49.000Z</time>
      </trkpt>
      <trkpt lat="44.19874" lon="5.11497">
        <ele>271</ele>
        <time>2016-06-30T08:40:50.000Z</time>
      </trkpt>
      <trkpt lat="44.19871" lon="5.11501">
        <ele>271</ele>
        <time>2016-06-30T08:40:51.000Z</time>
      </trkpt>
      <trkpt lat="44.19868" lon="5.11506">
        <ele>271</ele>
        <time>2016-06-30T08:40:52.000Z</time>
      </trkpt>
      <trkpt lat="44.19866" lon="5.1151">
        <ele>272</ele>
        <time>2016-06-30T08:40:53.000Z</time>
      </trkpt>
      <trkpt lat="44.19863" lon="5.11515">
        <ele>272</ele>
        <time>2016-06-30T08:40:54.000Z</time>
      </trkpt>
      <trkpt lat="44.19861" lon="5.11519">
        <ele>273</ele>
        <time>2016-06-30T08:40:55.000Z</time>
      </trkpt>
      <trkpt lat="44.19859" lon="5.11523">
        <ele>274</ele>
        <time>2016-06-30T08:40:56.000Z</time>
      </trkpt>
      <trkpt lat="44.19857" lon="5.11527">
        <ele>273</ele>
        <time>2016-06-30T08:40:57.000Z</time>
      </trkpt>
      <trkpt lat="44.19854" lon="5.11531">
        <ele>273</ele>
        <time>2016-06-30T08:40:58.000Z</time>
      </trkpt>
      <trkpt lat="44.19851" lon="5.11535">
        <ele>273</ele>
        <time>2016-06-30T08:40:59.000Z</time>
      </trkpt>
      <trkpt lat="44.19848" lon="5.11539">
        <ele>274</ele>
        <time>2016-06-30T08:41:00.000Z</time>
      </trkpt>
      <trkpt lat="44.19846" lon="5.11543">
        <ele>273</ele>
        <time>2016-06-30T08:41:01.000Z</time>
      </trkpt>
      <trkpt lat="44.19843" lon="5.11548">
        <ele>273</ele>
        <time>2016-06-30T08:41:02.000Z</time>
      </trkpt>
      <trkpt lat="44.1984" lon="5.11552">
        <ele>273</ele>
        <time>2016-06-30T08:41:03.000Z</time>
      </trkpt>
      <trkpt lat="44.19837" lon="5.11556">
        <ele>273</ele>
        <time>2016-06-30T08:41:04.000Z</time>
      </trkpt>
      <trkpt lat="44.19834" lon="5.1156">
        <ele>273</ele>
        <time>2016-06-30T08:41:05.000Z</time>
      </trkpt>
      <trkpt lat="44.19831" lon="5.11564">
        <ele>273</ele>
        <time>2016-06-30T08:41:06.000Z</time>
      </trkpt>
      <trkpt lat="44.19827" lon="5.11568">
        <ele>273</ele>
        <time>2016-06-30T08:41:07.000Z</time>
      </trkpt>
      <trkpt lat="44.19824" lon="5.11572">
        <ele>272</ele>
        <time>2016-06-30T08:41:08.000Z</time>
      </trkpt>
      <trkpt lat="44.19821" lon="5.11576">
        <ele>272</ele>
        <time>2016-06-30T08:41:09.000Z</time>
      </trkpt>
      <trkpt lat="44.19818" lon="5.11579">
        <ele>272</ele>
        <time>2016-06-30T08:41:10.000Z</time>
      </trkpt>
      <trkpt lat="44.19815" lon="5.11583">
        <ele>272</ele>
        <time>2016-06-30T08:41:11.000Z</time>
      </trkpt>
      <trkpt lat="44.19812" lon="5.11587">
        <ele>272</ele>
        <time>2016-06-30T08:41:12.000Z</time>
      </trkpt>
      <trkpt lat="44.19809" lon="5.11591">
        <ele>272</ele>
        <time>2016-06-30T08:41:13.000Z</time>
      </trkpt>
      <trkpt lat="44.19806" lon="5.11595">
        <ele>272</ele>
        <time>2016-06-30T08:41:14.000Z</time>
      </trkpt>
      <trkpt lat="44.19803" lon="5.11598">
        <ele>272</ele>
        <time>2016-06-30T08:41:15.000Z</time>
      </trkpt>
      <trkpt lat="44.198" lon="5.11602">
        <ele>272</ele>
        <time>2016-06-30T08:41:16.000Z</time>
      </trkpt>
      <trkpt lat="44.19797" lon="5.11606">
        <ele>272</ele>
        <time>2016-06-30T08:41:17.000Z</time>
      </trkpt>
      <trkpt lat="44.19793" lon="5.11609">
        <ele>272</ele>
        <time>2016-06-30T08:41:18.000Z</time>
      </trkpt>
      <trkpt lat="44.1979" lon="5.11613">
        <ele>272</ele>
        <time>2016-06-30T08:41:19.000Z</time>
      </trkpt>
      <trkpt lat="44.19787" lon="5.11616">
        <ele>272</ele>
        <time>2016-06-30T08:41:20.000Z</time>
      </trkpt>
      <trkpt lat="44.19784" lon="5.1162">
        <ele>272</ele>
        <time>2016-06-30T08:41:21.000Z</time>
      </trkpt>
      <trkpt lat="44.19781" lon="5.11623">
        <ele>272</ele>
        <time>2016-06-30T08:41:22.000Z</time>
      </trkpt>
      <trkpt lat="44.19778" lon="5.11627">
        <ele>272</ele>
        <time>2016-06-30T08:41:23.000Z</time>
      </trkpt>
      <trkpt lat="44.19774" lon="5.1163">
        <ele>272</ele>
        <time>2016-06-30T08:41:24.000Z</time>
      </trkpt>
      <trkpt lat="44.19771" lon="5.11633">
        <ele>272</ele>
        <time>2016-06-30T08:41:25.000Z</time>
      </trkpt>
      <trkpt lat="44.19767" lon="5.11637">
        <ele>272</ele>
        <time>2016-06-30T08:41:26.000Z</time>
      </trkpt>
      <trkpt lat="44.19764" lon="5.1164">
        <ele>272</ele>
        <time>2016-06-30T08:41:27.000Z</time>
      </trkpt>
      <trkpt lat="44.1976" lon="5.11644">
        <ele>272</ele>
        <time>2016-06-30T08:41:28.000Z</time>
      </trkpt>
      <trkpt lat="44.19757" lon="5.11647">
        <ele>273</ele>
        <time>2016-06-30T08:41:29.000Z</time>
      </trkpt>
      <trkpt lat="44.19753" lon="5.1165">
        <ele>273</ele>
        <time>2016-06-30T08:41:30.000Z</time>
      </trkpt>
      <trkpt lat="44.1975" lon="5.11654">
        <ele>273</ele>
        <time>2016-06-30T08:41:31.000Z</time>
      </trkpt>
      <trkpt lat="44.19746" lon="5.11657">
        <ele>273</ele>
        <time>2016-06-30T08:41:32.000Z</time>
      </trkpt>
      <trkpt lat="44.19743" lon="5.1166">
        <ele>273</ele>
        <time>2016-06-30T08:41:33.000Z</time>
      </trkpt>
      <trkpt lat="44.19739" lon="5.11663">
        <ele>273</ele>
        <time>2016-06-30T08:41:34.000Z</time>
      </trkpt>
      <trkpt lat="44.19735" lon="5.11666">
        <ele>272</ele>
        <time>2016-06-30T08:41:35.000Z</time>
      </trkpt>
      <trkpt lat="44.19732" lon="5.11669">
        <ele>272</ele>
        <time>2016-06-30T08:41:36.000Z</time>
      </trkpt>
      <trkpt lat="44.19728" lon="5.11672">
        <ele>272</ele>
        <time>2016-06-30T08:41:37.000Z</time>
      </trkpt>
      <trkpt lat="44.19725" lon="5.11675">
        <ele>272</ele>
        <time>2016-06-30T08:41:38.000Z</time>
      </trkpt>
      <trkpt lat="44.19721" lon="5.11679">
        <ele>271</ele>
        <time>2016-06-30T08:41:39.000Z</time>
      </trkpt>
      <trkpt lat="44.19718" lon="5.11682">
        <ele>272</ele>
        <time>2016-06-30T08:41:40.000Z</time>
      </trkpt>
      <trkpt lat="44.19714" lon="5.11685">
        <ele>271</ele>
        <time>2016-06-30T08:41:41.000Z</time>
      </trkpt>
      <trkpt lat="44.19711" lon="5.11688">
        <ele>272</ele>
        <time>2016-06-30T08:41:42.000Z</time>
      </trkpt>
      <trkpt lat="44.19707" lon="5.11691">
        <ele>272</ele>
        <time>2016-06-30T08:41:43.000Z</time>
      </trkpt>
      <trkpt lat="44.19704" lon="5.11695">
        <ele>271</ele>
        <time>2016-06-30T08:41:44.000Z</time>
      </trkpt>
      <trkpt lat="44.197" lon="5.11698">
        <ele>272</ele>
        <time>2016-06-30T08:41:45.000Z</time>
      </trkpt>
      <trkpt lat="44.19697" lon="5.11701">
        <ele>271</ele>
        <time>2016-06-30T08:41:46.000Z</time>
      </trkpt>
      <trkpt lat="44.19693" lon="5.11704">
        <ele>271</ele>
        <time>2016-06-30T08:41:47.000Z</time>
      </trkpt>
      <trkpt lat="44.19689" lon="5.11707">
        <ele>271</ele>
        <time>2016-06-30T08:41:48.000Z</time>
      </trkpt>
      <trkpt lat="44.19686" lon="5.11711">
        <ele>271</ele>
        <time>2016-06-30T08:41:49.000Z</time>
      </trkpt>
      <trkpt lat="44.19682" lon="5.11714">
        <ele>271</ele>
        <time>2016-06-30T08:41:50.000Z</time>
      </trkpt>
      <trkpt lat="44.19679" lon="5.11717">
        <ele>271</ele>
        <time>2016-06-30T08:41:51.000Z</time>
      </trkpt>
      <trkpt lat="44.19675" lon="5.11721">
        <ele>271</ele>
        <time>2016-06-30T08:41:52.000Z</time>
      </trkpt>
      <trkpt lat="44.19671" lon="5.11724">
        <ele>271</ele>
        <time>2016-06-30T08:41:53.000Z</time>
      </trkpt>
      <trkpt lat="44.19668" lon="5.11727">
        <ele>271</ele>
        <time>2016-06-30T08:41:54.000Z</time>
      </trkpt>
      <trkpt lat="44.19664" lon="5.1173">
        <ele>271</ele>
        <time>2016-06-30T08:41:55.000Z</time>
      </trkpt>
      <trkpt lat="44.1966" lon="5.11734">
        <ele>271</ele>
        <time>2016-06-30T08:41:56.000Z</time>
      </trkpt>
      <trkpt lat="44.19657" lon="5.11737">
        <ele>271</ele>
        <time>2016-06-30T08:41:57.000Z</time>
      </trkpt>
      <trkpt lat="44.19653" lon="5.11741">
        <ele>271</ele>
        <time>2016-06-30T08:41:58.000Z</time>
      </trkpt>
      <trkpt lat="44.19649" lon="5.11744">
        <ele>271</ele>
        <time>2016-06-30T08:41:59.000Z</time>
      </trkpt>
      <trkpt lat="44.19646" lon="5.11748">
        <ele>271</ele>
        <time>2016-06-30T08:42:00.000Z</time>
      </trkpt>
      <trkpt lat="44.19642" lon="5.11751">
        <ele>271</ele>
        <time>2016-06-30T08:42:01.000Z</time>
      </trkpt>
      <trkpt lat="44.19638" lon="5.11754">
        <ele>272</ele>
        <time>2016-06-30T08:42:02.000Z</time>
      </trkpt>
      <trkpt lat="44.19634" lon="5.11757">
        <ele>272</ele>
        <time>2016-06-30T08:42:03.000Z</time>
      </trkpt>
      <trkpt lat="44.1963" lon="5.1176">
        <ele>272</ele>
        <time>2016-06-30T08:42:04.000Z</time>
      </trkpt>
      <trkpt lat="44.19627" lon="5.11763">
        <ele>272</ele>
        <time>2016-06-30T08:42:05.000Z</time>
      </trkpt>
      <trkpt lat="44.19623" lon="5.11766">
        <ele>272</ele>
        <time>2016-06-30T08:42:06.000Z</time>
      </trkpt>
      <trkpt lat="44.19619" lon="5.1177">
        <ele>273</ele>
        <time>2016-06-30T08:42:07.000Z</time>
      </trkpt>
      <trkpt lat="44.19615" lon="5.11773">
        <ele>272</ele>
        <time>2016-06-30T08:42:08.000Z</time>
      </trkpt>
      <trkpt lat="44.19611" lon="5.11776">
        <ele>272</ele>
        <time>2016-06-30T08:42:09.000Z</time>
      </trkpt>
      <trkpt lat="44.19607" lon="5.11779">
        <ele>272</ele>
        <time>2016-06-30T08:42:10.000Z</time>
      </trkpt>
      <trkpt lat="44.19603" lon="5.11782">
        <ele>272</ele>
        <time>2016-06-30T08:42:11.000Z</time>
      </trkpt>
      <trkpt lat="44.19599" lon="5.11784">
        <ele>272</ele>
        <time>2016-06-30T08:42:12.000Z</time>
      </trkpt>
      <trkpt lat="44.19595" lon="5.11787">
        <ele>272</ele>
        <time>2016-06-30T08:42:13.000Z</time>
      </trkpt>
      <trkpt lat="44.1959" lon="5.11789">
        <ele>272</ele>
        <time>2016-06-30T08:42:14.000Z</time>
      </trkpt>
      <trkpt lat="44.19586" lon="5.11791">
        <ele>273</ele>
        <time>2016-06-30T08:42:15.000Z</time>
      </trkpt>
      <trkpt lat="44.19582" lon="5.11793">
        <ele>273</ele>
        <time>2016-06-30T08:42:16.000Z</time>
      </trkpt>
      <trkpt lat="44.19577" lon="5.11794">
        <ele>273</ele>
        <time>2016-06-30T08:42:17.000Z</time>
      </trkpt>
      <trkpt lat="44.19573" lon="5.11796">
        <ele>273</ele>
        <time>2016-06-30T08:42:18.000Z</time>
      </trkpt>
      <trkpt lat="44.19568" lon="5.11797">
        <ele>273</ele>
        <time>2016-06-30T08:42:19.000Z</time>
      </trkpt>
      <trkpt lat="44.19563" lon="5.11798">
        <ele>273</ele>
        <time>2016-06-30T08:42:20.000Z</time>
      </trkpt>
      <trkpt lat="44.19559" lon="5.11798">
        <ele>274</ele>
        <time>2016-06-30T08:42:21.000Z</time>
      </trkpt>
      <trkpt lat="44.19554" lon="5.11799">
        <ele>274</ele>
        <time>2016-06-30T08:42:22.000Z</time>
      </trkpt>
      <trkpt lat="44.1955" lon="5.118">
        <ele>274</ele>
        <time>2016-06-30T08:42:23.000Z</time>
      </trkpt>
      <trkpt lat="44.19545" lon="5.118">
        <ele>275</ele>
        <time>2016-06-30T08:42:24.000Z</time>
      </trkpt>
      <trkpt lat="44.1954" lon="5.11801">
        <ele>275</ele>
        <time>2016-06-30T08:42:25.000Z</time>
      </trkpt>
      <trkpt lat="44.19535" lon="5.11802">
        <ele>275</ele>
        <time>2016-06-30T08:42:26.000Z</time>
      </trkpt>
      <trkpt lat="44.19531" lon="5.11802">
        <ele>275</ele>
        <time>2016-06-30T08:42:27.000Z</time>
      </trkpt>
      <trkpt lat="44.19526" lon="5.11803">
        <ele>276</ele>
        <time>2016-06-30T08:42:28.000Z</time>
      </trkpt>
      <trkpt lat="44.19522" lon="5.11803">
        <ele>276</ele>
        <time>2016-06-30T08:42:29.000Z</time>
      </trkpt>
      <trkpt lat="44.19518" lon="5.11804">
        <ele>277</ele>
        <time>2016-06-30T08:42:30.000Z</time>
      </trkpt>
      <trkpt lat="44.19514" lon="5.11805">
        <ele>277</ele>
        <time>2016-06-30T08:42:31.000Z</time>
      </trkpt>
      <trkpt lat="44.19509" lon="5.11806">
        <ele>278</ele>
        <time>2016-06-30T08:42:32.000Z</time>
      </trkpt>
      <trkpt lat="44.19505" lon="5.11807">
        <ele>277</ele>
        <time>2016-06-30T08:42:33.000Z</time>
      </trkpt>
      <trkpt lat="44.195" lon="5.11808">
        <ele>278</ele>
        <time>2016-06-30T08:42:34.000Z</time>
      </trkpt>
      <trkpt lat="44.19495" lon="5.1181">
        <ele>278</ele>
        <time>2016-06-30T08:42:35.000Z</time>
      </trkpt>
      <trkpt lat="44.1949" lon="5.11811">
        <ele>278</ele>
        <time>2016-06-30T08:42:36.000Z</time>
      </trkpt>
      <trkpt lat="44.19486" lon="5.11813">
        <ele>278</ele>
        <time>2016-06-30T08:42:37.000Z</time>
      </trkpt>
      <trkpt lat="44.19481" lon="5.11815">
        <ele>279</ele>
        <time>2016-06-30T08:42:38.000Z</time>
      </trkpt>
      <trkpt lat="44.19477" lon="5.11818">
        <ele>279</ele>
        <time>2016-06-30T08:42:39.000Z</time>
      </trkpt>
      <trkpt lat="44.19472" lon="5.1182">
        <ele>280</ele>
        <time>2016-06-30T08:42:40.000Z</time>
      </trkpt>
      <trkpt lat="44.19468" lon="5.11823">
        <ele>280</ele>
        <time>2016-06-30T08:42:41.000Z</time>
      </trkpt>
      <trkpt lat="44.19463" lon="5.11825">
        <ele>280</ele>
        <time>2016-06-30T08:42:42.000Z</time>
      </trkpt>
      <trkpt lat="44.19459" lon="5.11828">
        <ele>282</ele>
        <time>2016-06-30T08:42:43.000Z</time>
      </trkpt>
      <trkpt lat="44.19456" lon="5.11831">
        <ele>282</ele>
        <time>2016-06-30T08:42:44.000Z</time>
      </trkpt>
      <trkpt lat="44.19452" lon="5.11834">
        <ele>283</ele>
        <time>2016-06-30T08:42:45.000Z</time>
      </trkpt>
      <trkpt lat="44.19449" lon="5.11837">
        <ele>284</ele>
        <time>2016-06-30T08:42:46.000Z</time>
      </trkpt>
      <trkpt lat="44.19445" lon="5.11839">
        <ele>284</ele>
        <time>2016-06-30T08:42:47.000Z</time>
      </trkpt>
      <trkpt lat="44.19441" lon="5.11842">
        <ele>285</ele>
        <time>2016-06-30T08:42:48.000Z</time>
      </trkpt>
      <trkpt lat="44.19437" lon="5.11845">
        <ele>286</ele>
        <time>2016-06-30T08:42:49.000Z</time>
      </trkpt>
      <trkpt lat="44.19434" lon="5.11848">
        <ele>287</ele>
        <time>2016-06-30T08:42:50.000Z</time>
      </trkpt>
      <trkpt lat="44.1943" lon="5.11851">
        <ele>288</ele>
        <time>2016-06-30T08:42:51.000Z</time>
      </trkpt>
      <trkpt lat="44.19426" lon="5.11853">
        <ele>289</ele>
        <time>2016-06-30T08:42:52.000Z</time>
      </trkpt>
      <trkpt lat="44.19423" lon="5.11856">
        <ele>290</ele>
        <time>2016-06-30T08:42:53.000Z</time>
      </trkpt>
      <trkpt lat="44.19419" lon="5.11858">
        <ele>290</ele>
        <time>2016-06-30T08:42:54.000Z</time>
      </trkpt>
      <trkpt lat="44.19416" lon="5.11861">
        <ele>292</ele>
        <time>2016-06-30T08:42:55.000Z</time>
      </trkpt>
      <trkpt lat="44.19413" lon="5.11863">
        <ele>293</ele>
        <time>2016-06-30T08:42:56.000Z</time>
      </trkpt>
      <trkpt lat="44.1941" lon="5.11866">
        <ele>295</ele>
        <time>2016-06-30T08:42:57.000Z</time>
      </trkpt>
      <trkpt lat="44.19407" lon="5.11868">
        <ele>296</ele>
        <time>2016-06-30T08:42:58.000Z</time>
      </trkpt>
      <trkpt lat="44.19404" lon="5.11871">
        <ele>298</ele>
        <time>2016-06-30T08:42:59.000Z</time>
      </trkpt>
      <trkpt lat="44.19401" lon="5.11873">
        <ele>299</ele>
        <time>2016-06-30T08:43:00.000Z</time>
      </trkpt>
      <trkpt lat="44.19398" lon="5.11875">
        <ele>300</ele>
        <time>2016-06-30T08:43:01.000Z</time>
      </trkpt>
      <trkpt lat="44.19395" lon="5.11877">
        <ele>302</ele>
        <time>2016-06-30T08:43:02.000Z</time>
      </trkpt>
      <trkpt lat="44.19392" lon="5.11878">
        <ele>302</ele>
        <time>2016-06-30T08:43:03.000Z</time>
      </trkpt>
      <trkpt lat="44.19389" lon="5.1188">
        <ele>304</ele>
        <time>2016-06-30T08:43:04.000Z</time>
      </trkpt>
      <trkpt lat="44.19386" lon="5.11881">
        <ele>305</ele>
        <time>2016-06-30T08:43:05.000Z</time>
      </trkpt>
      <trkpt lat="44.19383" lon="5.11883">
        <ele>307</ele>
        <time>2016-06-30T08:43:06.000Z</time>
      </trkpt>
      <trkpt lat="44.19381" lon="5.11885">
        <ele>309</ele>
        <time>2016-06-30T08:43:07.000Z</time>
      </trkpt>
      <trkpt lat="44.19378" lon="5.11886">
        <ele>309</ele>
        <time>2016-06-30T08:43:08.000Z</time>
      </trkpt>
      <trkpt lat="44.19374" lon="5.11888">
        <ele>309</ele>
        <time>2016-06-30T08:43:09.000Z</time>
      </trkpt>
      <trkpt lat="44.1937" lon="5.11889">
        <ele>309</ele>
        <time>2016-06-30T08:43:10.000Z</time>
      </trkpt>
      <trkpt lat="44.19366" lon="5.11891">
        <ele>308</ele>
        <time>2016-06-30T08:43:11.000Z</time>
      </trkpt>
      <trkpt lat="44.19361" lon="5.11892">
        <ele>308</ele>
        <time>2016-06-30T08:43:12.000Z</time>
      </trkpt>
      <trkpt lat="44.19357" lon="5.11895">
        <ele>308</ele>
        <time>2016-06-30T08:43:13.000Z</time>
      </trkpt>
      <trkpt lat="44.19352" lon="5.11898">
        <ele>307</ele>
        <time>2016-06-30T08:43:14.000Z</time>
      </trkpt>
      <trkpt lat="44.19347" lon="5.119">
        <ele>306</ele>
        <time>2016-06-30T08:43:15.000Z</time>
      </trkpt>
      <trkpt lat="44.19342" lon="5.11903">
        <ele>303</ele>
        <time>2016-06-30T08:43:16.000Z</time>
      </trkpt>
      <trkpt lat="44.19336" lon="5.11905">
        <ele>302</ele>
        <time>2016-06-30T08:43:17.000Z</time>
      </trkpt>
      <trkpt lat="44.1933" lon="5.11908">
        <ele>298</ele>
        <time>2016-06-30T08:43:18.000Z</time>
      </trkpt>
      <trkpt lat="44.19324" lon="5.11911">
        <ele>297</ele>
        <time>2016-06-30T08:43:19.000Z</time>
      </trkpt>
      <trkpt lat="44.19318" lon="5.11914">
        <ele>297</ele>
        <time>2016-06-30T08:43:20.000Z</time>
      </trkpt>
      <trkpt lat="44.19313" lon="5.11917">
        <ele>298</ele>
        <time>2016-06-30T08:43:21.000Z</time>
      </trkpt>
      <trkpt lat="44.19308" lon="5.1192">
        <ele>298</ele>
        <time>2016-06-30T08:43:22.000Z</time>
      </trkpt>
      <trkpt lat="44.19303" lon="5.11922">
        <ele>295</ele>
        <time>2016-06-30T08:43:23.000Z</time>
      </trkpt>
      <trkpt lat="44.19297" lon="5.11925">
        <ele>293</ele>
        <time>2016-06-30T08:43:24.000Z</time>
      </trkpt>
      <trkpt lat="44.19291" lon="5.11927">
        <ele>291</ele>
        <time>2016-06-30T08:43:25.000Z</time>
      </trkpt>
      <trkpt lat="44.19286" lon="5.11929">
        <ele>291</ele>
        <time>2016-06-30T08:43:26.000Z</time>
      </trkpt>
      <trkpt lat="44.19281" lon="5.11932">
        <ele>290</ele>
        <time>2016-06-30T08:43:27.000Z</time>
      </trkpt>
      <trkpt lat="44.19276" lon="5.11934">
        <ele>290</ele>
        <time>2016-06-30T08:43:28.000Z</time>
      </trkpt>
      <trkpt lat="44.19272" lon="5.11936">
        <ele>290</ele>
        <time>2016-06-30T08:43:29.000Z</time>
      </trkpt>
      <trkpt lat="44.19267" lon="5.11938">
        <ele>290</ele>
        <time>2016-06-30T08:43:30.000Z</time>
      </trkpt>
      <trkpt lat="44.19263" lon="5.1194">
        <ele>290</ele>
        <time>2016-06-30T08:43:31.000Z</time>
      </trkpt>
      <trkpt lat="44.19258" lon="5.11941">
        <ele>290</ele>
        <time>2016-06-30T08:43:32.000Z</time>
      </trkpt>
      <trkpt lat="44.19254" lon="5.11943">
        <ele>290</ele>
        <time>2016-06-30T08:43:33.000Z</time>
      </trkpt>
      <trkpt lat="44.19249" lon="5.11944">
        <ele>290</ele>
        <time>2016-06-30T08:43:34.000Z</time>
      </trkpt>
      <trkpt lat="44.19245" lon="5.11946">
        <ele>290</ele>
        <time>2016-06-30T08:43:35.000Z</time>
      </trkpt>
      <trkpt lat="44.19241" lon="5.11947">
        <ele>290</ele>
        <time>2016-06-30T08:43:36.000Z</time>
      </trkpt>
      <trkpt lat="44.19236" lon="5.11949">
        <ele>290</ele>
        <time>2016-06-30T08:43:37.000Z</time>
      </trkpt>
      <trkpt lat="44.19232" lon="5.11951">
        <ele>289</ele>
        <time>2016-06-30T08:43:38.000Z</time>
      </trkpt>
      <trkpt lat="44.19228" lon="5.11952">
        <ele>289</ele>
        <time>2016-06-30T08:43:39.000Z</time>
      </trkpt>
      <trkpt lat="44.19223" lon="5.11954">
        <ele>290</ele>
        <time>2016-06-30T08:43:40.000Z</time>
      </trkpt>
      <trkpt lat="44.19219" lon="5.11955">
        <ele>289</ele>
        <time>2016-06-30T08:43:41.000Z</time>
      </trkpt>
      <trkpt lat="44.19215" lon="5.11957">
        <ele>289</ele>
        <time>2016-06-30T08:43:42.000Z</time>
      </trkpt>
      <trkpt lat="44.19211" lon="5.11958">
        <ele>289</ele>
        <time>2016-06-30T08:43:43.000Z</time>
      </trkpt>
      <trkpt lat="44.19207" lon="5.1196">
        <ele>289</ele>
        <time>2016-06-30T08:43:44.000Z</time>
      </trkpt>
      <trkpt lat="44.19203" lon="5.11961">
        <ele>289</ele>
        <time>2016-06-30T08:43:45.000Z</time>
      </trkpt>
      <trkpt lat="44.19199" lon="5.11962">
        <ele>289</ele>
        <time>2016-06-30T08:43:46.000Z</time>
      </trkpt>
      <trkpt lat="44.19195" lon="5.11964">
        <ele>289</ele>
        <time>2016-06-30T08:43:47.000Z</time>
      </trkpt>
      <trkpt lat="44.19191" lon="5.11965">
        <ele>288</ele>
        <time>2016-06-30T08:43:48.000Z</time>
      </trkpt>
      <trkpt lat="44.19187" lon="5.11967">
        <ele>288</ele>
        <time>2016-06-30T08:43:49.000Z</time>
      </trkpt>
      <trkpt lat="44.19182" lon="5.11969">
        <ele>288</ele>
        <time>2016-06-30T08:43:50.000Z</time>
      </trkpt>
      <trkpt lat="44.19178" lon="5.1197">
        <ele>288</ele>
        <time>2016-06-30T08:43:51.000Z</time>
      </trkpt>
      <trkpt lat="44.19174" lon="5.11972">
        <ele>288</ele>
        <time>2016-06-30T08:43:52.000Z</time>
      </trkpt>
      <trkpt lat="44.1917" lon="5.11973">
        <ele>288</ele>
        <time>2016-06-30T08:43:53.000Z</time>
      </trkpt>
      <trkpt lat="44.19166" lon="5.11975">
        <ele>288</ele>
        <time>2016-06-30T08:43:54.000Z</time>
      </trkpt>
      <trkpt lat="44.19162" lon="5.11976">
        <ele>288</ele>
        <time>2016-06-30T08:43:55.000Z</time>
      </trkpt>
      <trkpt lat="44.19158" lon="5.11978">
        <ele>288</ele>
        <time>2016-06-30T08:43:56.000Z</time>
      </trkpt>
      <trkpt lat="44.19153" lon="5.1198">
        <ele>288</ele>
        <time>2016-06-30T08:43:57.000Z</time>
      </trkpt>
      <trkpt lat="44.19149" lon="5.11981">
        <ele>288</ele>
        <time>2016-06-30T08:43:58.000Z</time>
      </trkpt>
      <trkpt lat="44.19145" lon="5.11983">
        <ele>288</ele>
        <time>2016-06-30T08:43:59.000Z</time>
      </trkpt>
      <trkpt lat="44.19141" lon="5.11984">
        <ele>288</ele>
        <time>2016-06-30T08:44:00.000Z</time>
      </trkpt>
      <trkpt lat="44.19136" lon="5.11986">
        <ele>288</ele>
        <time>2016-06-30T08:44:01.000Z</time>
      </trkpt>
      <trkpt lat="44.19132" lon="5.11987">
        <ele>288</ele>
        <time>2016-06-30T08:44:02.000Z</time>
      </trkpt>
      <trkpt lat="44.19128" lon="5.11988">
        <ele>288</ele>
        <time>2016-06-30T08:44:03.000Z</time>
      </trkpt>
      <trkpt lat="44.19123" lon="5.1199">
        <ele>288</ele>
        <time>2016-06-30T08:44:04.000Z</time>
      </trkpt>
      <trkpt lat="44.19119" lon="5.11991">
        <ele>288</ele>
        <time>2016-06-30T08:44:05.000Z</time>
      </trkpt>
      <trkpt lat="44.19115" lon="5.11993">
        <ele>288</ele>
        <time>2016-06-30T08:44:06.000Z</time>
      </trkpt>
      <trkpt lat="44.19111" lon="5.11994">
        <ele>288</ele>
        <time>2016-06-30T08:44:07.000Z</time>
      </trkpt>
      <trkpt lat="44.19107" lon="5.11995">
        <ele>288</ele>
        <time>2016-06-30T08:44:08.000Z</time>
      </trkpt>
      <trkpt lat="44.19103" lon="5.11997">
        <ele>288</ele>
        <time>2016-06-30T08:44:09.000Z</time>
      </trkpt>
      <trkpt lat="44.19099" lon="5.11998">
        <ele>288</ele>
        <time>2016-06-30T08:44:10.000Z</time>
      </trkpt>
      <trkpt lat="44.19094" lon="5.11999">
        <ele>288</ele>
        <time>2016-06-30T08:44:11.000Z</time>
      </trkpt>
      <trkpt lat="44.1909" lon="5.12">
        <ele>288</ele>
        <time>2016-06-30T08:44:12.000Z</time>
      </trkpt>
      <trkpt lat="44.19086" lon="5.12001">
        <ele>288</ele>
        <time>2016-06-30T08:44:13.000Z</time>
      </trkpt>
      <trkpt lat="44.19081" lon="5.12002">
        <ele>288</ele>
        <time>2016-06-30T08:44:14.000Z</time>
      </trkpt>
      <trkpt lat="44.19077" lon="5.12003">
        <ele>288</ele>
        <time>2016-06-30T08:44:15.000Z</time>
      </trkpt>
      <trkpt lat="44.19072" lon="5.12004">
        <ele>288</ele>
        <time>2016-06-30T08:44:16.000Z</time>
      </trkpt>
      <trkpt lat="44.19068" lon="5.12005">
        <ele>288</ele>
        <time>2016-06-30T08:44:17.000Z</time>
      </trkpt>
      <trkpt lat="44.19064" lon="5.12006">
        <ele>288</ele>
        <time>2016-06-30T08:44:18.000Z</time>
      </trkpt>
      <trkpt lat="44.19059" lon="5.12008">
        <ele>289</ele>
        <time>2016-06-30T08:44:19.000Z</time>
      </trkpt>
      <trkpt lat="44.19055" lon="5.12009">
        <ele>289</ele>
        <time>2016-06-30T08:44:20.000Z</time>
      </trkpt>
      <trkpt lat="44.19051" lon="5.1201">
        <ele>289</ele>
        <time>2016-06-30T08:44:21.000Z</time>
      </trkpt>
      <trkpt lat="44.19047" lon="5.12011">
        <ele>289</ele>
        <time>2016-06-30T08:44:22.000Z</time>
      </trkpt>
      <trkpt lat="44.19043" lon="5.12012">
        <ele>289</ele>
        <time>2016-06-30T08:44:23.000Z</time>
      </trkpt>
      <trkpt lat="44.19039" lon="5.12014">
        <ele>289</ele>
        <time>2016-06-30T08:44:24.000Z</time>
      </trkpt>
      <trkpt lat="44.19035" lon="5.12015">
        <ele>289</ele>
        <time>2016-06-30T08:44:25.000Z</time>
      </trkpt>
      <trkpt lat="44.19031" lon="5.12016">
        <ele>289</ele>
        <time>2016-06-30T08:44:26.000Z</time>
      </trkpt>
      <trkpt lat="44.19026" lon="5.12018">
        <ele>289</ele>
        <time>2016-06-30T08:44:27.000Z</time>
      </trkpt>
      <trkpt lat="44.19022" lon="5.12019">
        <ele>289</ele>
        <time>2016-06-30T08:44:28.000Z</time>
      </trkpt>
      <trkpt lat="44.19018" lon="5.1202">
        <ele>289</ele>
        <time>2016-06-30T08:44:29.000Z</time>
      </trkpt>
      <trkpt lat="44.19014" lon="5.12022">
        <ele>289</ele>
        <time>2016-06-30T08:44:30.000Z</time>
      </trkpt>
      <trkpt lat="44.1901" lon="5.12023">
        <ele>289</ele>
        <time>2016-06-30T08:44:31.000Z</time>
      </trkpt>
      <trkpt lat="44.19006" lon="5.12024">
        <ele>289</ele>
        <time>2016-06-30T08:44:32.000Z</time>
      </trkpt>
      <trkpt lat="44.19001" lon="5.12026">
        <ele>289</ele>
        <time>2016-06-30T08:44:33.000Z</time>
      </trkpt>
      <trkpt lat="44.18997" lon="5.12027">
        <ele>290</ele>
        <time>2016-06-30T08:44:34.000Z</time>
      </trkpt>
      <trkpt lat="44.18993" lon="5.12029">
        <ele>290</ele>
        <time>2016-06-30T08:44:35.000Z</time>
      </trkpt>
      <trkpt lat="44.18988" lon="5.1203">
        <ele>290</ele>
        <time>2016-06-30T08:44:36.000Z</time>
      </trkpt>
      <trkpt lat="44.18983" lon="5.12032">
        <ele>290</ele>
        <time>2016-06-30T08:44:37.000Z</time>
      </trkpt>
      <trkpt lat="44.18979" lon="5.12033">
        <ele>290</ele>
        <time>2016-06-30T08:44:38.000Z</time>
      </trkpt>
      <trkpt lat="44.18974" lon="5.12035">
        <ele>290</ele>
        <time>2016-06-30T08:44:39.000Z</time>
      </trkpt>
      <trkpt lat="44.1897" lon="5.12036">
        <ele>290</ele>
        <time>2016-06-30T08:44:40.000Z</time>
      </trkpt>
      <trkpt lat="44.18965" lon="5.12037">
        <ele>290</ele>
        <time>2016-06-30T08:44:41.000Z</time>
      </trkpt>
      <trkpt lat="44.18961" lon="5.12039">
        <ele>290</ele>
        <time>2016-06-30T08:44:42.000Z</time>
      </trkpt>
      <trkpt lat="44.18956" lon="5.1204">
        <ele>290</ele>
        <time>2016-06-30T08:44:43.000Z</time>
      </trkpt>
      <trkpt lat="44.18952" lon="5.12042">
        <ele>291</ele>
        <time>2016-06-30T08:44:44.000Z</time>
      </trkpt>
      <trkpt lat="44.18948" lon="5.12043">
        <ele>291</ele>
        <time>2016-06-30T08:44:45.000Z</time>
      </trkpt>
      <trkpt lat="44.18943" lon="5.12044">
        <ele>291</ele>
        <time>2016-06-30T08:44:46.000Z</time>
      </trkpt>
      <trkpt lat="44.18939" lon="5.12046">
        <ele>291</ele>
        <time>2016-06-30T08:44:47.000Z</time>
      </trkpt>
      <trkpt lat="44.18935" lon="5.12047">
        <ele>291</ele>
        <time>2016-06-30T08:44:48.000Z</time>
      </trkpt>
      <trkpt lat="44.1893" lon="5.12048">
        <ele>291</ele>
        <time>2016-06-30T08:44:49.000Z</time>
      </trkpt>
      <trkpt lat="44.18926" lon="5.1205">
        <ele>291</ele>
        <time>2016-06-30T08:44:50.000Z</time>
      </trkpt>
      <trkpt lat="44.18922" lon="5.12051">
        <ele>291</ele>
        <time>2016-06-30T08:44:51.000Z</time>
      </trkpt>
      <trkpt lat="44.18917" lon="5.12052">
        <ele>292</ele>
        <time>2016-06-30T08:44:52.000Z</time>
      </trkpt>
      <trkpt lat="44.18913" lon="5.12054">
        <ele>292</ele>
        <time>2016-06-30T08:44:53.000Z</time>
      </trkpt>
      <trkpt lat="44.18908" lon="5.12055">
        <ele>292</ele>
        <time>2016-06-30T08:44:54.000Z</time>
      </trkpt>
      <trkpt lat="44.18904" lon="5.12056">
        <ele>292</ele>
        <time>2016-06-30T08:44:55.000Z</time>
      </trkpt>
      <trkpt lat="44.189" lon="5.12058">
        <ele>292</ele>
        <time>2016-06-30T08:44:56.000Z</time>
      </trkpt>
      <trkpt lat="44.18895" lon="5.1206">
        <ele>293</ele>
        <time>2016-06-30T08:44:57.000Z</time>
      </trkpt>
      <trkpt lat="44.18891" lon="5.12061">
        <ele>293</ele>
        <time>2016-06-30T08:44:58.000Z</time>
      </trkpt>
      <trkpt lat="44.18886" lon="5.12062">
        <ele>293</ele>
        <time>2016-06-30T08:44:59.000Z</time>
      </trkpt>
      <trkpt lat="44.18882" lon="5.12064">
        <ele>293</ele>
        <time>2016-06-30T08:45:00.000Z</time>
      </trkpt>
      <trkpt lat="44.18877" lon="5.12065">
        <ele>293</ele>
        <time>2016-06-30T08:45:01.000Z</time>
      </trkpt>
      <trkpt lat="44.18873" lon="5.12067">
        <ele>293</ele>
        <time>2016-06-30T08:45:02.000Z</time>
      </trkpt>
      <trkpt lat="44.18868" lon="5.12068">
        <ele>293</ele>
        <time>2016-06-30T08:45:03.000Z</time>
      </trkpt>
      <trkpt lat="44.18864" lon="5.12069">
        <ele>293</ele>
        <time>2016-06-30T08:45:04.000Z</time>
      </trkpt>
      <trkpt lat="44.1886" lon="5.12071">
        <ele>293</ele>
        <time>2016-06-30T08:45:05.000Z</time>
      </trkpt>
      <trkpt lat="44.18856" lon="5.12072">
        <ele>293</ele>
        <time>2016-06-30T08:45:06.000Z</time>
      </trkpt>
      <trkpt lat="44.18852" lon="5.12073">
        <ele>293</ele>
        <time>2016-06-30T08:45:07.000Z</time>
      </trkpt>
      <trkpt lat="44.18848" lon="5.12075">
        <ele>293</ele>
        <time>2016-06-30T08:45:08.000Z</time>
      </trkpt>
      <trkpt lat="44.18844" lon="5.12076">
        <ele>293</ele>
        <time>2016-06-30T08:45:09.000Z</time>
      </trkpt>
      <trkpt lat="44.1884" lon="5.12077">
        <ele>293</ele>
        <time>2016-06-30T08:45:10.000Z</time>
      </trkpt>
      <trkpt lat="44.18836" lon="5.12079">
        <ele>293</ele>
        <time>2016-06-30T08:45:11.000Z</time>
      </trkpt>
      <trkpt lat="44.18832" lon="5.1208">
        <ele>294</ele>
        <time>2016-06-30T08:45:12.000Z</time>
      </trkpt>
      <trkpt lat="44.18828" lon="5.12081">
        <ele>294</ele>
        <time>2016-06-30T08:45:13.000Z</time>
      </trkpt>
      <trkpt lat="44.18825" lon="5.12083">
        <ele>294</ele>
        <time>2016-06-30T08:45:14.000Z</time>
      </trkpt>
      <trkpt lat="44.18821" lon="5.12084">
        <ele>294</ele>
        <time>2016-06-30T08:45:15.000Z</time>
      </trkpt>
      <trkpt lat="44.18817" lon="5.12086">
        <ele>294</ele>
        <time>2016-06-30T08:45:16.000Z</time>
      </trkpt>
      <trkpt lat="44.18813" lon="5.12087">
        <ele>294</ele>
        <time>2016-06-30T08:45:17.000Z</time>
      </trkpt>
      <trkpt lat="44.18809" lon="5.12088">
        <ele>294</ele>
        <time>2016-06-30T08:45:18.000Z</time>
      </trkpt>
      <trkpt lat="44.18805" lon="5.1209">
        <ele>294</ele>
        <time>2016-06-30T08:45:19.000Z</time>
      </trkpt>
      <trkpt lat="44.18801" lon="5.12092">
        <ele>294</ele>
        <time>2016-06-30T08:45:20.000Z</time>
      </trkpt>
      <trkpt lat="44.18797" lon="5.12093">
        <ele>294</ele>
        <time>2016-06-30T08:45:21.000Z</time>
      </trkpt>
      <trkpt lat="44.18794" lon="5.12095">
        <ele>294</ele>
        <time>2016-06-30T08:45:22.000Z</time>
      </trkpt>
      <trkpt lat="44.1879" lon="5.12097">
        <ele>294</ele>
        <time>2016-06-30T08:45:23.000Z</time>
      </trkpt>
      <trkpt lat="44.18786" lon="5.12099">
        <ele>294</ele>
        <time>2016-06-30T08:45:24.000Z</time>
      </trkpt>
      <trkpt lat="44.18782" lon="5.12101">
        <ele>294</ele>
        <time>2016-06-30T08:45:25.000Z</time>
      </trkpt>
      <trkpt lat="44.18778" lon="5.12104">
        <ele>294</ele>
        <time>2016-06-30T08:45:26.000Z</time>
      </trkpt>
      <trkpt lat="44.18775" lon="5.12106">
        <ele>294</ele>
        <time>2016-06-30T08:45:27.000Z</time>
      </trkpt>
      <trkpt lat="44.18771" lon="5.12109">
        <ele>294</ele>
        <time>2016-06-30T08:45:28.000Z</time>
      </trkpt>
      <trkpt lat="44.18767" lon="5.12111">
        <ele>294</ele>
        <time>2016-06-30T08:45:29.000Z</time>
      </trkpt>
      <trkpt lat="44.18763" lon="5.12114">
        <ele>294</ele>
        <time>2016-06-30T08:45:30.000Z</time>
      </trkpt>
      <trkpt lat="44.18759" lon="5.12117">
        <ele>294</ele>
        <time>2016-06-30T08:45:31.000Z</time>
      </trkpt>
      <trkpt lat="44.18755" lon="5.1212">
        <ele>294</ele>
        <time>2016-06-30T08:45:32.000Z</time>
      </trkpt>
      <trkpt lat="44.18752" lon="5.12123">
        <ele>294</ele>
        <time>2016-06-30T08:45:33.000Z</time>
      </trkpt>
      <trkpt lat="44.18748" lon="5.12125">
        <ele>294</ele>
        <time>2016-06-30T08:45:34.000Z</time>
      </trkpt>
      <trkpt lat="44.18744" lon="5.12128">
        <ele>294</ele>
        <time>2016-06-30T08:45:35.000Z</time>
      </trkpt>
      <trkpt lat="44.1874" lon="5.12131">
        <ele>294</ele>
        <time>2016-06-30T08:45:36.000Z</time>
      </trkpt>
      <trkpt lat="44.18736" lon="5.12134">
        <ele>294</ele>
        <time>2016-06-30T08:45:37.000Z</time>
      </trkpt>
      <trkpt lat="44.18733" lon="5.12136">
        <ele>294</ele>
        <time>2016-06-30T08:45:38.000Z</time>
      </trkpt>
      <trkpt lat="44.18729" lon="5.12139">
        <ele>294</ele>
        <time>2016-06-30T08:45:39.000Z</time>
      </trkpt>
      <trkpt lat="44.18725" lon="5.12142">
        <ele>294</ele>
        <time>2016-06-30T08:45:40.000Z</time>
      </trkpt>
      <trkpt lat="44.18721" lon="5.12144">
        <ele>294</ele>
        <time>2016-06-30T08:45:41.000Z</time>
      </trkpt>
      <trkpt lat="44.18718" lon="5.12147">
        <ele>295</ele>
        <time>2016-06-30T08:45:42.000Z</time>
      </trkpt>
      <trkpt lat="44.18714" lon="5.1215">
        <ele>295</ele>
        <time>2016-06-30T08:45:43.000Z</time>
      </trkpt>
      <trkpt lat="44.18711" lon="5.12152">
        <ele>295</ele>
        <time>2016-06-30T08:45:44.000Z</time>
      </trkpt>
      <trkpt lat="44.18707" lon="5.12155">
        <ele>295</ele>
        <time>2016-06-30T08:45:45.000Z</time>
      </trkpt>
      <trkpt lat="44.18703" lon="5.12158">
        <ele>295</ele>
        <time>2016-06-30T08:45:46.000Z</time>
      </trkpt>
      <trkpt lat="44.18699" lon="5.1216">
        <ele>295</ele>
        <time>2016-06-30T08:45:47.000Z</time>
      </trkpt>
      <trkpt lat="44.18695" lon="5.12163">
        <ele>295</ele>
        <time>2016-06-30T08:45:48.000Z</time>
      </trkpt>
      <trkpt lat="44.18692" lon="5.12166">
        <ele>295</ele>
        <time>2016-06-30T08:45:49.000Z</time>
      </trkpt>
      <trkpt lat="44.18688" lon="5.12169">
        <ele>295</ele>
        <time>2016-06-30T08:45:50.000Z</time>
      </trkpt>
      <trkpt lat="44.18684" lon="5.12171">
        <ele>295</ele>
        <time>2016-06-30T08:45:51.000Z</time>
      </trkpt>
      <trkpt lat="44.1868" lon="5.12174">
        <ele>295</ele>
        <time>2016-06-30T08:45:52.000Z</time>
      </trkpt>
      <trkpt lat="44.18677" lon="5.12177">
        <ele>295</ele>
        <time>2016-06-30T08:45:53.000Z</time>
      </trkpt>
      <trkpt lat="44.18673" lon="5.1218">
        <ele>296</ele>
        <time>2016-06-30T08:45:54.000Z</time>
      </trkpt>
      <trkpt lat="44.1867" lon="5.12182">
        <ele>296</ele>
        <time>2016-06-30T08:45:55.000Z</time>
      </trkpt>
      <trkpt lat="44.18666" lon="5.12185">
        <ele>296</ele>
        <time>2016-06-30T08:45:56.000Z</time>
      </trkpt>
      <trkpt lat="44.18663" lon="5.12187">
        <ele>296</ele>
        <time>2016-06-30T08:45:57.000Z</time>
      </trkpt>
      <trkpt lat="44.18659" lon="5.1219">
        <ele>296</ele>
        <time>2016-06-30T08:45:58.000Z</time>
      </trkpt>
      <trkpt lat="44.18656" lon="5.12192">
        <ele>296</ele>
        <time>2016-06-30T08:45:59.000Z</time>
      </trkpt>
      <trkpt lat="44.18652" lon="5.12195">
        <ele>296</ele>
        <time>2016-06-30T08:46:00.000Z</time>
      </trkpt>
      <trkpt lat="44.18649" lon="5.12198">
        <ele>296</ele>
        <time>2016-06-30T08:46:01.000Z</time>
      </trkpt>
      <trkpt lat="44.18645" lon="5.122">
        <ele>296</ele>
        <time>2016-06-30T08:46:02.000Z</time>
      </trkpt>
      <trkpt lat="44.18642" lon="5.12203">
        <ele>296</ele>
        <time>2016-06-30T08:46:03.000Z</time>
      </trkpt>
      <trkpt lat="44.18638" lon="5.12205">
        <ele>296</ele>
        <time>2016-06-30T08:46:04.000Z</time>
      </trkpt>
      <trkpt lat="44.18634" lon="5.12208">
        <ele>296</ele>
        <time>2016-06-30T08:46:05.000Z</time>
      </trkpt>
      <trkpt lat="44.18631" lon="5.12211">
        <ele>296</ele>
        <time>2016-06-30T08:46:06.000Z</time>
      </trkpt>
      <trkpt lat="44.18627" lon="5.12213">
        <ele>296</ele>
        <time>2016-06-30T08:46:07.000Z</time>
      </trkpt>
      <trkpt lat="44.18624" lon="5.12216">
        <ele>296</ele>
        <time>2016-06-30T08:46:08.000Z</time>
      </trkpt>
      <trkpt lat="44.1862" lon="5.12218">
        <ele>296</ele>
        <time>2016-06-30T08:46:09.000Z</time>
      </trkpt>
      <trkpt lat="44.18617" lon="5.12221">
        <ele>296</ele>
        <time>2016-06-30T08:46:10.000Z</time>
      </trkpt>
      <trkpt lat="44.18613" lon="5.12223">
        <ele>296</ele>
        <time>2016-06-30T08:46:11.000Z</time>
      </trkpt>
      <trkpt lat="44.1861" lon="5.12226">
        <ele>296</ele>
        <time>2016-06-30T08:46:12.000Z</time>
      </trkpt>
      <trkpt lat="44.18606" lon="5.12229">
        <ele>296</ele>
        <time>2016-06-30T08:46:13.000Z</time>
      </trkpt>
      <trkpt lat="44.18602" lon="5.12231">
        <ele>297</ele>
        <time>2016-06-30T08:46:14.000Z</time>
      </trkpt>
      <trkpt lat="44.18599" lon="5.12234">
        <ele>297</ele>
        <time>2016-06-30T08:46:15.000Z</time>
      </trkpt>
      <trkpt lat="44.18595" lon="5.12236">
        <ele>297</ele>
        <time>2016-06-30T08:46:16.000Z</time>
      </trkpt>
      <trkpt lat="44.18591" lon="5.12239">
        <ele>297</ele>
        <time>2016-06-30T08:46:17.000Z</time>
      </trkpt>
      <trkpt lat="44.18587" lon="5.12242">
        <ele>297</ele>
        <time>2016-06-30T08:46:18.000Z</time>
      </trkpt>
      <trkpt lat="44.18584" lon="5.12245">
        <ele>297</ele>
        <time>2016-06-30T08:46:19.000Z</time>
      </trkpt>
      <trkpt lat="44.1858" lon="5.12247">
        <ele>297</ele>
        <time>2016-06-30T08:46:20.000Z</time>
      </trkpt>
      <trkpt lat="44.18576" lon="5.1225">
        <ele>297</ele>
        <time>2016-06-30T08:46:21.000Z</time>
      </trkpt>
      <trkpt lat="44.18573" lon="5.12252">
        <ele>297</ele>
        <time>2016-06-30T08:46:22.000Z</time>
      </trkpt>
      <trkpt lat="44.18569" lon="5.12255">
        <ele>297</ele>
        <time>2016-06-30T08:46:23.000Z</time>
      </trkpt>
      <trkpt lat="44.18566" lon="5.12257">
        <ele>297</ele>
        <time>2016-06-30T08:46:24.000Z</time>
      </trkpt>
      <trkpt lat="44.18563" lon="5.1226">
        <ele>297</ele>
        <time>2016-06-30T08:46:25.000Z</time>
      </trkpt>
      <trkpt lat="44.18559" lon="5.12263">
        <ele>297</ele>
        <time>2016-06-30T08:46:26.000Z</time>
      </trkpt>
      <trkpt lat="44.18556" lon="5.12265">
        <ele>297</ele>
        <time>2016-06-30T08:46:27.000Z</time>
      </trkpt>
      <trkpt lat="44.18552" lon="5.12268">
        <ele>297</ele>
        <time>2016-06-30T08:46:28.000Z</time>
      </trkpt>
      <trkpt lat="44.18548" lon="5.1227">
        <ele>298</ele>
        <time>2016-06-30T08:46:29.000Z</time>
      </trkpt>
      <trkpt lat="44.18545" lon="5.12273">
        <ele>298</ele>
        <time>2016-06-30T08:46:30.000Z</time>
      </trkpt>
      <trkpt lat="44.18541" lon="5.12275">
        <ele>298</ele>
        <time>2016-06-30T08:46:31.000Z</time>
      </trkpt>
      <trkpt lat="44.18537" lon="5.12278">
        <ele>298</ele>
        <time>2016-06-30T08:46:32.000Z</time>
      </trkpt>
      <trkpt lat="44.18534" lon="5.12281">
        <ele>298</ele>
        <time>2016-06-30T08:46:33.000Z</time>
      </trkpt>
      <trkpt lat="44.1853" lon="5.12283">
        <ele>298</ele>
        <time>2016-06-30T08:46:34.000Z</time>
      </trkpt>
      <trkpt lat="44.18526" lon="5.12286">
        <ele>298</ele>
        <time>2016-06-30T08:46:35.000Z</time>
      </trkpt>
      <trkpt lat="44.18523" lon="5.12288">
        <ele>298</ele>
        <time>2016-06-30T08:46:36.000Z</time>
      </trkpt>
      <trkpt lat="44.18519" lon="5.12291">
        <ele>299</ele>
        <time>2016-06-30T08:46:37.000Z</time>
      </trkpt>
      <trkpt lat="44.18516" lon="5.12293">
        <ele>299</ele>
        <time>2016-06-30T08:46:38.000Z</time>
      </trkpt>
      <trkpt lat="44.18512" lon="5.12296">
        <ele>299</ele>
        <time>2016-06-30T08:46:39.000Z</time>
      </trkpt>
      <trkpt lat="44.18509" lon="5.12298">
        <ele>299</ele>
        <time>2016-06-30T08:46:40.000Z</time>
      </trkpt>
      <trkpt lat="44.18506" lon="5.12301">
        <ele>299</ele>
        <time>2016-06-30T08:46:41.000Z</time>
      </trkpt>
      <trkpt lat="44.18503" lon="5.12303">
        <ele>299</ele>
        <time>2016-06-30T08:46:42.000Z</time>
      </trkpt>
      <trkpt lat="44.185" lon="5.12305">
        <ele>299</ele>
        <time>2016-06-30T08:46:43.000Z</time>
      </trkpt>
      <trkpt lat="44.18497" lon="5.12308">
        <ele>299</ele>
        <time>2016-06-30T08:46:44.000Z</time>
      </trkpt>
      <trkpt lat="44.18494" lon="5.1231">
        <ele>299</ele>
        <time>2016-06-30T08:46:45.000Z</time>
      </trkpt>
      <trkpt lat="44.18491" lon="5.12313">
        <ele>299</ele>
        <time>2016-06-30T08:46:46.000Z</time>
      </trkpt>
      <trkpt lat="44.18487" lon="5.12315">
        <ele>299</ele>
        <time>2016-06-30T08:46:47.000Z</time>
      </trkpt>
      <trkpt lat="44.18484" lon="5.12318">
        <ele>300</ele>
        <time>2016-06-30T08:46:48.000Z</time>
      </trkpt>
      <trkpt lat="44.18481" lon="5.12321">
        <ele>300</ele>
        <time>2016-06-30T08:46:49.000Z</time>
      </trkpt>
      <trkpt lat="44.18478" lon="5.12324">
        <ele>300</ele>
        <time>2016-06-30T08:46:50.000Z</time>
      </trkpt>
      <trkpt lat="44.18475" lon="5.12326">
        <ele>300</ele>
        <time>2016-06-30T08:46:51.000Z</time>
      </trkpt>
      <trkpt lat="44.18472" lon="5.12329">
        <ele>300</ele>
        <time>2016-06-30T08:46:52.000Z</time>
      </trkpt>
      <trkpt lat="44.18469" lon="5.12332">
        <ele>301</ele>
        <time>2016-06-30T08:46:53.000Z</time>
      </trkpt>
      <trkpt lat="44.18467" lon="5.12335">
        <ele>301</ele>
        <time>2016-06-30T08:46:54.000Z</time>
      </trkpt>
      <trkpt lat="44.18464" lon="5.12338">
        <ele>301</ele>
        <time>2016-06-30T08:46:55.000Z</time>
      </trkpt>
      <trkpt lat="44.18461" lon="5.12342">
        <ele>301</ele>
        <time>2016-06-30T08:46:56.000Z</time>
      </trkpt>
      <trkpt lat="44.18459" lon="5.12345">
        <ele>301</ele>
        <time>2016-06-30T08:46:57.000Z</time>
      </trkpt>
      <trkpt lat="44.18456" lon="5.12348">
        <ele>301</ele>
        <time>2016-06-30T08:46:58.000Z</time>
      </trkpt>
      <trkpt lat="44.18453" lon="5.12352">
        <ele>301</ele>
        <time>2016-06-30T08:46:59.000Z</time>
      </trkpt>
      <trkpt lat="44.1845" lon="5.12355">
        <ele>301</ele>
        <time>2016-06-30T08:47:00.000Z</time>
      </trkpt>
      <trkpt lat="44.18448" lon="5.12359">
        <ele>301</ele>
        <time>2016-06-30T08:47:01.000Z</time>
      </trkpt>
      <trkpt lat="44.18445" lon="5.12362">
        <ele>301</ele>
        <time>2016-06-30T08:47:02.000Z</time>
      </trkpt>
      <trkpt lat="44.18442" lon="5.12365">
        <ele>302</ele>
        <time>2016-06-30T08:47:03.000Z</time>
      </trkpt>
      <trkpt lat="44.1844" lon="5.12369">
        <ele>302</ele>
        <time>2016-06-30T08:47:04.000Z</time>
      </trkpt>
      <trkpt lat="44.18437" lon="5.12372">
        <ele>302</ele>
        <time>2016-06-30T08:47:05.000Z</time>
      </trkpt>
      <trkpt lat="44.18434" lon="5.12376">
        <ele>302</ele>
        <time>2016-06-30T08:47:06.000Z</time>
      </trkpt>
      <trkpt lat="44.18431" lon="5.12379">
        <ele>302</ele>
        <time>2016-06-30T08:47:07.000Z</time>
      </trkpt>
      <trkpt lat="44.18428" lon="5.12383">
        <ele>302</ele>
        <time>2016-06-30T08:47:08.000Z</time>
      </trkpt>
      <trkpt lat="44.18425" lon="5.12387">
        <ele>302</ele>
        <time>2016-06-30T08:47:09.000Z</time>
      </trkpt>
      <trkpt lat="44.18422" lon="5.12391">
        <ele>302</ele>
        <time>2016-06-30T08:47:10.000Z</time>
      </trkpt>
      <trkpt lat="44.18419" lon="5.12395">
        <ele>302</ele>
        <time>2016-06-30T08:47:11.000Z</time>
      </trkpt>
      <trkpt lat="44.18416" lon="5.12399">
        <ele>302</ele>
        <time>2016-06-30T08:47:12.000Z</time>
      </trkpt>
      <trkpt lat="44.18413" lon="5.12402">
        <ele>303</ele>
        <time>2016-06-30T08:47:13.000Z</time>
      </trkpt>
      <trkpt lat="44.18411" lon="5.12406">
        <ele>303</ele>
        <time>2016-06-30T08:47:14.000Z</time>
      </trkpt>
      <trkpt lat="44.18408" lon="5.12409">
        <ele>303</ele>
        <time>2016-06-30T08:47:15.000Z</time>
      </trkpt>
      <trkpt lat="44.18405" lon="5.12413">
        <ele>303</ele>
        <time>2016-06-30T08:47:16.000Z</time>
      </trkpt>
      <trkpt lat="44.18403" lon="5.12416">
        <ele>303</ele>
        <time>2016-06-30T08:47:17.000Z</time>
      </trkpt>
      <trkpt lat="44.184" lon="5.1242">
        <ele>303</ele>
        <time>2016-06-30T08:47:18.000Z</time>
      </trkpt>
      <trkpt lat="44.18397" lon="5.12423">
        <ele>303</ele>
        <time>2016-06-30T08:47:19.000Z</time>
      </trkpt>
      <trkpt lat="44.18395" lon="5.12426">
        <ele>303</ele>
        <time>2016-06-30T08:47:20.000Z</time>
      </trkpt>
      <trkpt lat="44.18392" lon="5.12429">
        <ele>303</ele>
        <time>2016-06-30T08:47:21.000Z</time>
      </trkpt>
      <trkpt lat="44.18389" lon="5.12433">
        <ele>303</ele>
        <time>2016-06-30T08:47:22.000Z</time>
      </trkpt>
      <trkpt lat="44.18387" lon="5.12436">
        <ele>303</ele>
        <time>2016-06-30T08:47:23.000Z</time>
      </trkpt>
      <trkpt lat="44.18384" lon="5.12439">
        <ele>303</ele>
        <time>2016-06-30T08:47:24.000Z</time>
      </trkpt>
      <trkpt lat="44.18381" lon="5.12443">
        <ele>302</ele>
        <time>2016-06-30T08:47:25.000Z</time>
      </trkpt>
      <trkpt lat="44.18378" lon="5.12447">
        <ele>302</ele>
        <time>2016-06-30T08:47:26.000Z</time>
      </trkpt>
      <trkpt lat="44.18375" lon="5.12451">
        <ele>302</ele>
        <time>2016-06-30T08:47:27.000Z</time>
      </trkpt>
      <trkpt lat="44.18371" lon="5.12454">
        <ele>302</ele>
        <time>2016-06-30T08:47:28.000Z</time>
      </trkpt>
      <trkpt lat="44.18368" lon="5.12459">
        <ele>303</ele>
        <time>2016-06-30T08:47:29.000Z</time>
      </trkpt>
      <trkpt lat="44.18365" lon="5.12463">
        <ele>303</ele>
        <time>2016-06-30T08:47:30.000Z</time>
      </trkpt>
      <trkpt lat="44.18361" lon="5.12467">
        <ele>303</ele>
        <time>2016-06-30T08:47:31.000Z</time>
      </trkpt>
      <trkpt lat="44.18357" lon="5.12472">
        <ele>303</ele>
        <time>2016-06-30T08:47:32.000Z</time>
      </trkpt>
      <trkpt lat="44.18354" lon="5.12476">
        <ele>303</ele>
        <time>2016-06-30T08:47:33.000Z</time>
      </trkpt>
      <trkpt lat="44.18351" lon="5.1248">
        <ele>303</ele>
        <time>2016-06-30T08:47:34.000Z</time>
      </trkpt>
      <trkpt lat="44.18348" lon="5.12484">
        <ele>303</ele>
        <time>2016-06-30T08:47:35.000Z</time>
      </trkpt>
      <trkpt lat="44.18344" lon="5.12488">
        <ele>303</ele>
        <time>2016-06-30T08:47:36.000Z</time>
      </trkpt>
      <trkpt lat="44.18341" lon="5.12492">
        <ele>304</ele>
        <time>2016-06-30T08:47:37.000Z</time>
      </trkpt>
      <trkpt lat="44.18338" lon="5.12496">
        <ele>304</ele>
        <time>2016-06-30T08:47:38.000Z</time>
      </trkpt>
      <trkpt lat="44.18335" lon="5.125">
        <ele>304</ele>
        <time>2016-06-30T08:47:39.000Z</time>
      </trkpt>
      <trkpt lat="44.18331" lon="5.12504">
        <ele>304</ele>
        <time>2016-06-30T08:47:40.000Z</time>
      </trkpt>
      <trkpt lat="44.18328" lon="5.12508">
        <ele>304</ele>
        <time>2016-06-30T08:47:41.000Z</time>
      </trkpt>
      <trkpt lat="44.18325" lon="5.12513">
        <ele>304</ele>
        <time>2016-06-30T08:47:42.000Z</time>
      </trkpt>
      <trkpt lat="44.18321" lon="5.12517">
        <ele>304</ele>
        <time>2016-06-30T08:47:43.000Z</time>
      </trkpt>
      <trkpt lat="44.18318" lon="5.12521">
        <ele>305</ele>
        <time>2016-06-30T08:47:44.000Z</time>
      </trkpt>
      <trkpt lat="44.18315" lon="5.12525">
        <ele>305</ele>
        <time>2016-06-30T08:47:45.000Z</time>
      </trkpt>
      <trkpt lat="44.18311" lon="5.12529">
        <ele>305</ele>
        <time>2016-06-30T08:47:46.000Z</time>
      </trkpt>
      <trkpt lat="44.18308" lon="5.12534">
        <ele>305</ele>
        <time>2016-06-30T08:47:47.000Z</time>
      </trkpt>
      <trkpt lat="44.18305" lon="5.12538">
        <ele>305</ele>
        <time>2016-06-30T08:47:48.000Z</time>
      </trkpt>
      <trkpt lat="44.18302" lon="5.12542">
        <ele>305</ele>
        <time>2016-06-30T08:47:49.000Z</time>
      </trkpt>
      <trkpt lat="44.18298" lon="5.12546">
        <ele>305</ele>
        <time>2016-06-30T08:47:50.000Z</time>
      </trkpt>
      <trkpt lat="44.18295" lon="5.1255">
        <ele>305</ele>
        <time>2016-06-30T08:47:51.000Z</time>
      </trkpt>
      <trkpt lat="44.18292" lon="5.12555">
        <ele>305</ele>
        <time>2016-06-30T08:47:52.000Z</time>
      </trkpt>
      <trkpt lat="44.18288" lon="5.12559">
        <ele>305</ele>
        <time>2016-06-30T08:47:53.000Z</time>
      </trkpt>
      <trkpt lat="44.18285" lon="5.12563">
        <ele>305</ele>
        <time>2016-06-30T08:47:54.000Z</time>
      </trkpt>
      <trkpt lat="44.18282" lon="5.12567">
        <ele>305</ele>
        <time>2016-06-30T08:47:55.000Z</time>
      </trkpt>
      <trkpt lat="44.18279" lon="5.12571">
        <ele>306</ele>
        <time>2016-06-30T08:47:56.000Z</time>
      </trkpt>
      <trkpt lat="44.18276" lon="5.12575">
        <ele>306</ele>
        <time>2016-06-30T08:47:57.000Z</time>
      </trkpt>
      <trkpt lat="44.18273" lon="5.12579">
        <ele>306</ele>
        <time>2016-06-30T08:47:58.000Z</time>
      </trkpt>
      <trkpt lat="44.18269" lon="5.12583">
        <ele>306</ele>
        <time>2016-06-30T08:47:59.000Z</time>
      </trkpt>
      <trkpt lat="44.18266" lon="5.12587">
        <ele>306</ele>
        <time>2016-06-30T08:48:00.000Z</time>
      </trkpt>
      <trkpt lat="44.18263" lon="5.1259">
        <ele>306</ele>
        <time>2016-06-30T08:48:01.000Z</time>
      </trkpt>
      <trkpt lat="44.1826" lon="5.12594">
        <ele>306</ele>
        <time>2016-06-30T08:48:02.000Z</time>
      </trkpt>
      <trkpt lat="44.18257" lon="5.12598">
        <ele>306</ele>
        <time>2016-06-30T08:48:03.000Z</time>
      </trkpt>
      <trkpt lat="44.18254" lon="5.12602">
        <ele>306</ele>
        <time>2016-06-30T08:48:04.000Z</time>
      </trkpt>
      <trkpt lat="44.18251" lon="5.12607">
        <ele>306</ele>
        <time>2016-06-30T08:48:05.000Z</time>
      </trkpt>
      <trkpt lat="44.18248" lon="5.12611">
        <ele>306</ele>
        <time>2016-06-30T08:48:06.000Z</time>
      </trkpt>
      <trkpt lat="44.18245" lon="5.12615">
        <ele>306</ele>
        <time>2016-06-30T08:48:07.000Z</time>
      </trkpt>
      <trkpt lat="44.18241" lon="5.12619">
        <ele>306</ele>
        <time>2016-06-30T08:48:08.000Z</time>
      </trkpt>
      <trkpt lat="44.18238" lon="5.12623">
        <ele>306</ele>
        <time>2016-06-30T08:48:09.000Z</time>
      </trkpt>
      <trkpt lat="44.18235" lon="5.12627">
        <ele>306</ele>
        <time>2016-06-30T08:48:10.000Z</time>
      </trkpt>
      <trkpt lat="44.18231" lon="5.1263">
        <ele>306</ele>
        <time>2016-06-30T08:48:11.000Z</time>
      </trkpt>
      <trkpt lat="44.18228" lon="5.12634">
        <ele>306</ele>
        <time>2016-06-30T08:48:12.000Z</time>
      </trkpt>
      <trkpt lat="44.18225" lon="5.12638">
        <ele>306</ele>
        <time>2016-06-30T08:48:13.000Z</time>
      </trkpt>
      <trkpt lat="44.18222" lon="5.12641">
        <ele>306</ele>
        <time>2016-06-30T08:48:14.000Z</time>
      </trkpt>
      <trkpt lat="44.18218" lon="5.12645">
        <ele>306</ele>
        <time>2016-06-30T08:48:15.000Z</time>
      </trkpt>
      <trkpt lat="44.18215" lon="5.12648">
        <ele>306</ele>
        <time>2016-06-30T08:48:16.000Z</time>
      </trkpt>
      <trkpt lat="44.18211" lon="5.12651">
        <ele>306</ele>
        <time>2016-06-30T08:48:17.000Z</time>
      </trkpt>
      <trkpt lat="44.18208" lon="5.12654">
        <ele>306</ele>
        <time>2016-06-30T08:48:18.000Z</time>
      </trkpt>
      <trkpt lat="44.18204" lon="5.12657">
        <ele>306</ele>
        <time>2016-06-30T08:48:19.000Z</time>
      </trkpt>
      <trkpt lat="44.18201" lon="5.12659">
        <ele>307</ele>
        <time>2016-06-30T08:48:20.000Z</time>
      </trkpt>
      <trkpt lat="44.18198" lon="5.12662">
        <ele>307</ele>
        <time>2016-06-30T08:48:21.000Z</time>
      </trkpt>
      <trkpt lat="44.18195" lon="5.12664">
        <ele>308</ele>
        <time>2016-06-30T08:48:22.000Z</time>
      </trkpt>
      <trkpt lat="44.18191" lon="5.12666">
        <ele>308</ele>
        <time>2016-06-30T08:48:23.000Z</time>
      </trkpt>
      <trkpt lat="44.18188" lon="5.12668">
        <ele>309</ele>
        <time>2016-06-30T08:48:24.000Z</time>
      </trkpt>
      <trkpt lat="44.18185" lon="5.12669">
        <ele>310</ele>
        <time>2016-06-30T08:48:25.000Z</time>
      </trkpt>
      <trkpt lat="44.18182" lon="5.12671">
        <ele>311</ele>
        <time>2016-06-30T08:48:26.000Z</time>
      </trkpt>
      <trkpt lat="44.18179" lon="5.12673">
        <ele>312</ele>
        <time>2016-06-30T08:48:27.000Z</time>
      </trkpt>
      <trkpt lat="44.18175" lon="5.12675">
        <ele>311</ele>
        <time>2016-06-30T08:48:28.000Z</time>
      </trkpt>
      <trkpt lat="44.18171" lon="5.12677">
        <ele>310</ele>
        <time>2016-06-30T08:48:29.000Z</time>
      </trkpt>
      <trkpt lat="44.18167" lon="5.12679">
        <ele>309</ele>
        <time>2016-06-30T08:48:30.000Z</time>
      </trkpt>
      <trkpt lat="44.18162" lon="5.12681">
        <ele>308</ele>
        <time>2016-06-30T08:48:31.000Z</time>
      </trkpt>
      <trkpt lat="44.18158" lon="5.12683">
        <ele>308</ele>
        <time>2016-06-30T08:48:32.000Z</time>
      </trkpt>
      <trkpt lat="44.18153" lon="5.12685">
        <ele>308</ele>
        <time>2016-06-30T08:48:33.000Z</time>
      </trkpt>
      <trkpt lat="44.18149" lon="5.12687">
        <ele>309</ele>
        <time>2016-06-30T08:48:34.000Z</time>
      </trkpt>
      <trkpt lat="44.18145" lon="5.12688">
        <ele>310</ele>
        <time>2016-06-30T08:48:35.000Z</time>
      </trkpt>
      <trkpt lat="44.1814" lon="5.1269">
        <ele>310</ele>
        <time>2016-06-30T08:48:36.000Z</time>
      </trkpt>
      <trkpt lat="44.18135" lon="5.12692">
        <ele>311</ele>
        <time>2016-06-30T08:48:37.000Z</time>
      </trkpt>
      <trkpt lat="44.1813" lon="5.12693">
        <ele>310</ele>
        <time>2016-06-30T08:48:38.000Z</time>
      </trkpt>
      <trkpt lat="44.18125" lon="5.12695">
        <ele>310</ele>
        <time>2016-06-30T08:48:39.000Z</time>
      </trkpt>
      <trkpt lat="44.1812" lon="5.12696">
        <ele>310</ele>
        <time>2016-06-30T08:48:40.000Z</time>
      </trkpt>
      <trkpt lat="44.18116" lon="5.12698">
        <ele>310</ele>
        <time>2016-06-30T08:48:41.000Z</time>
      </trkpt>
      <trkpt lat="44.18111" lon="5.127">
        <ele>311</ele>
        <time>2016-06-30T08:48:42.000Z</time>
      </trkpt>
      <trkpt lat="44.18106" lon="5.12702">
        <ele>311</ele>
        <time>2016-06-30T08:48:43.000Z</time>
      </trkpt>
      <trkpt lat="44.18101" lon="5.12704">
        <ele>312</ele>
        <time>2016-06-30T08:48:44.000Z</time>
      </trkpt>
      <trkpt lat="44.18097" lon="5.12706">
        <ele>311</ele>
        <time>2016-06-30T08:48:45.000Z</time>
      </trkpt>
      <trkpt lat="44.18092" lon="5.12708">
        <ele>312</ele>
        <time>2016-06-30T08:48:46.000Z</time>
      </trkpt>
      <trkpt lat="44.18087" lon="5.1271">
        <ele>312</ele>
        <time>2016-06-30T08:48:47.000Z</time>
      </trkpt>
      <trkpt lat="44.18082" lon="5.12711">
        <ele>312</ele>
        <time>2016-06-30T08:48:48.000Z</time>
      </trkpt>
      <trkpt lat="44.18078" lon="5.12713">
        <ele>313</ele>
        <time>2016-06-30T08:48:49.000Z</time>
      </trkpt>
      <trkpt lat="44.18073" lon="5.12715">
        <ele>313</ele>
        <time>2016-06-30T08:48:50.000Z</time>
      </trkpt>
      <trkpt lat="44.18069" lon="5.12716">
        <ele>313</ele>
        <time>2016-06-30T08:48:51.000Z</time>
      </trkpt>
      <trkpt lat="44.18065" lon="5.12718">
        <ele>313</ele>
        <time>2016-06-30T08:48:52.000Z</time>
      </trkpt>
      <trkpt lat="44.1806" lon="5.1272">
        <ele>311</ele>
        <time>2016-06-30T08:48:53.000Z</time>
      </trkpt>
      <trkpt lat="44.18055" lon="5.12722">
        <ele>310</ele>
        <time>2016-06-30T08:48:54.000Z</time>
      </trkpt>
      <trkpt lat="44.1805" lon="5.12724">
        <ele>310</ele>
        <time>2016-06-30T08:48:55.000Z</time>
      </trkpt>
      <trkpt lat="44.18046" lon="5.12726">
        <ele>310</ele>
        <time>2016-06-30T08:48:56.000Z</time>
      </trkpt>
      <trkpt lat="44.18041" lon="5.12728">
        <ele>311</ele>
        <time>2016-06-30T08:48:57.000Z</time>
      </trkpt>
      <trkpt lat="44.18036" lon="5.1273">
        <ele>311</ele>
        <time>2016-06-30T08:48:58.000Z</time>
      </trkpt>
      <trkpt lat="44.18031" lon="5.12732">
        <ele>311</ele>
        <time>2016-06-30T08:48:59.000Z</time>
      </trkpt>
      <trkpt lat="44.18026" lon="5.12735">
        <ele>311</ele>
        <time>2016-06-30T08:49:00.000Z</time>
      </trkpt>
      <trkpt lat="44.18021" lon="5.12737">
        <ele>311</ele>
        <time>2016-06-30T08:49:01.000Z</time>
      </trkpt>
      <trkpt lat="44.18016" lon="5.12739">
        <ele>311</ele>
        <time>2016-06-30T08:49:02.000Z</time>
      </trkpt>
      <trkpt lat="44.18011" lon="5.12741">
        <ele>311</ele>
        <time>2016-06-30T08:49:03.000Z</time>
      </trkpt>
      <trkpt lat="44.18006" lon="5.12743">
        <ele>310</ele>
        <time>2016-06-30T08:49:04.000Z</time>
      </trkpt>
      <trkpt lat="44.18001" lon="5.12745">
        <ele>310</ele>
        <time>2016-06-30T08:49:05.000Z</time>
      </trkpt>
      <trkpt lat="44.17996" lon="5.12747">
        <ele>310</ele>
        <time>2016-06-30T08:49:06.000Z</time>
      </trkpt>
      <trkpt lat="44.17991" lon="5.1275">
        <ele>310</ele>
        <time>2016-06-30T08:49:07.000Z</time>
      </trkpt>
      <trkpt lat="44.17986" lon="5.12752">
        <ele>310</ele>
        <time>2016-06-30T08:49:08.000Z</time>
      </trkpt>
      <trkpt lat="44.17981" lon="5.12754">
        <ele>310</ele>
        <time>2016-06-30T08:49:09.000Z</time>
      </trkpt>
      <trkpt lat="44.17976" lon="5.12756">
        <ele>310</ele>
        <time>2016-06-30T08:49:10.000Z</time>
      </trkpt>
      <trkpt lat="44.17971" lon="5.12758">
        <ele>310</ele>
        <time>2016-06-30T08:49:11.000Z</time>
      </trkpt>
      <trkpt lat="44.17966" lon="5.12761">
        <ele>310</ele>
        <time>2016-06-30T08:49:12.000Z</time>
      </trkpt>
      <trkpt lat="44.17961" lon="5.12763">
        <ele>310</ele>
        <time>2016-06-30T08:49:13.000Z</time>
      </trkpt>
      <trkpt lat="44.17956" lon="5.12765">
        <ele>310</ele>
        <time>2016-06-30T08:49:14.000Z</time>
      </trkpt>
      <trkpt lat="44.17951" lon="5.12767">
        <ele>310</ele>
        <time>2016-06-30T08:49:15.000Z</time>
      </trkpt>
      <trkpt lat="44.17946" lon="5.12769">
        <ele>311</ele>
        <time>2016-06-30T08:49:16.000Z</time>
      </trkpt>
      <trkpt lat="44.17942" lon="5.12772">
        <ele>311</ele>
        <time>2016-06-30T08:49:17.000Z</time>
      </trkpt>
      <trkpt lat="44.17937" lon="5.12774">
        <ele>311</ele>
        <time>2016-06-30T08:49:18.000Z</time>
      </trkpt>
      <trkpt lat="44.17932" lon="5.12776">
        <ele>311</ele>
        <time>2016-06-30T08:49:19.000Z</time>
      </trkpt>
      <trkpt lat="44.17928" lon="5.12778">
        <ele>311</ele>
        <time>2016-06-30T08:49:20.000Z</time>
      </trkpt>
      <trkpt lat="44.17923" lon="5.1278">
        <ele>312</ele>
        <time>2016-06-30T08:49:21.000Z</time>
      </trkpt>
      <trkpt lat="44.17919" lon="5.12782">
        <ele>312</ele>
        <time>2016-06-30T08:49:22.000Z</time>
      </trkpt>
      <trkpt lat="44.17915" lon="5.12784">
        <ele>312</ele>
        <time>2016-06-30T08:49:23.000Z</time>
      </trkpt>
      <trkpt lat="44.1791" lon="5.12786">
        <ele>312</ele>
        <time>2016-06-30T08:49:24.000Z</time>
      </trkpt>
      <trkpt lat="44.17906" lon="5.12788">
        <ele>312</ele>
        <time>2016-06-30T08:49:25.000Z</time>
      </trkpt>
      <trkpt lat="44.17901" lon="5.1279">
        <ele>312</ele>
        <time>2016-06-30T08:49:26.000Z</time>
      </trkpt>
      <trkpt lat="44.17897" lon="5.12792">
        <ele>312</ele>
        <time>2016-06-30T08:49:27.000Z</time>
      </trkpt>
      <trkpt lat="44.17893" lon="5.12793">
        <ele>312</ele>
        <time>2016-06-30T08:49:28.000Z</time>
      </trkpt>
      <trkpt lat="44.17888" lon="5.12795">
        <ele>312</ele>
        <time>2016-06-30T08:49:29.000Z</time>
      </trkpt>
      <trkpt lat="44.17884" lon="5.12797">
        <ele>312</ele>
        <time>2016-06-30T08:49:30.000Z</time>
      </trkpt>
      <trkpt lat="44.17879" lon="5.12799">
        <ele>312</ele>
        <time>2016-06-30T08:49:31.000Z</time>
      </trkpt>
      <trkpt lat="44.17874" lon="5.12801">
        <ele>313</ele>
        <time>2016-06-30T08:49:32.000Z</time>
      </trkpt>
      <trkpt lat="44.17869" lon="5.12804">
        <ele>313</ele>
        <time>2016-06-30T08:49:33.000Z</time>
      </trkpt>
      <trkpt lat="44.17865" lon="5.12806">
        <ele>313</ele>
        <time>2016-06-30T08:49:34.000Z</time>
      </trkpt>
      <trkpt lat="44.1786" lon="5.12808">
        <ele>313</ele>
        <time>2016-06-30T08:49:35.000Z</time>
      </trkpt>
      <trkpt lat="44.17856" lon="5.1281">
        <ele>313</ele>
        <time>2016-06-30T08:49:36.000Z</time>
      </trkpt>
      <trkpt lat="44.17851" lon="5.12812">
        <ele>314</ele>
        <time>2016-06-30T08:49:37.000Z</time>
      </trkpt>
      <trkpt lat="44.17847" lon="5.12814">
        <ele>314</ele>
        <time>2016-06-30T08:49:38.000Z</time>
      </trkpt>
      <trkpt lat="44.17842" lon="5.12816">
        <ele>313</ele>
        <time>2016-06-30T08:49:39.000Z</time>
      </trkpt>
      <trkpt lat="44.17838" lon="5.12818">
        <ele>313</ele>
        <time>2016-06-30T08:49:40.000Z</time>
      </trkpt>
      <trkpt lat="44.17834" lon="5.1282">
        <ele>313</ele>
        <time>2016-06-30T08:49:41.000Z</time>
      </trkpt>
      <trkpt lat="44.17829" lon="5.12822">
        <ele>314</ele>
        <time>2016-06-30T08:49:42.000Z</time>
      </trkpt>
      <trkpt lat="44.17825" lon="5.12824">
        <ele>314</ele>
        <time>2016-06-30T08:49:43.000Z</time>
      </trkpt>
      <trkpt lat="44.17821" lon="5.12825">
        <ele>314</ele>
        <time>2016-06-30T08:49:44.000Z</time>
      </trkpt>
      <trkpt lat="44.17817" lon="5.12827">
        <ele>315</ele>
        <time>2016-06-30T08:49:45.000Z</time>
      </trkpt>
      <trkpt lat="44.17813" lon="5.12829">
        <ele>315</ele>
        <time>2016-06-30T08:49:46.000Z</time>
      </trkpt>
      <trkpt lat="44.17808" lon="5.1283">
        <ele>315</ele>
        <time>2016-06-30T08:49:47.000Z</time>
      </trkpt>
      <trkpt lat="44.17804" lon="5.12832">
        <ele>314</ele>
        <time>2016-06-30T08:49:48.000Z</time>
      </trkpt>
      <trkpt lat="44.17799" lon="5.12834">
        <ele>314</ele>
        <time>2016-06-30T08:49:49.000Z</time>
      </trkpt>
      <trkpt lat="44.17794" lon="5.12836">
        <ele>314</ele>
        <time>2016-06-30T08:49:50.000Z</time>
      </trkpt>
      <trkpt lat="44.17789" lon="5.12838">
        <ele>314</ele>
        <time>2016-06-30T08:49:51.000Z</time>
      </trkpt>
      <trkpt lat="44.17785" lon="5.1284">
        <ele>314</ele>
        <time>2016-06-30T08:49:52.000Z</time>
      </trkpt>
      <trkpt lat="44.17781" lon="5.12842">
        <ele>314</ele>
        <time>2016-06-30T08:49:53.000Z</time>
      </trkpt>
      <trkpt lat="44.17776" lon="5.12844">
        <ele>314</ele>
        <time>2016-06-30T08:49:54.000Z</time>
      </trkpt>
      <trkpt lat="44.17772" lon="5.12846">
        <ele>314</ele>
        <time>2016-06-30T08:49:55.000Z</time>
      </trkpt>
      <trkpt lat="44.17768" lon="5.12847">
        <ele>314</ele>
        <time>2016-06-30T08:49:56.000Z</time>
      </trkpt>
      <trkpt lat="44.17764" lon="5.12849">
        <ele>314</ele>
        <time>2016-06-30T08:49:57.000Z</time>
      </trkpt>
      <trkpt lat="44.17759" lon="5.12851">
        <ele>314</ele>
        <time>2016-06-30T08:49:58.000Z</time>
      </trkpt>
      <trkpt lat="44.17755" lon="5.12853">
        <ele>314</ele>
        <time>2016-06-30T08:49:59.000Z</time>
      </trkpt>
      <trkpt lat="44.1775" lon="5.12855">
        <ele>314</ele>
        <time>2016-06-30T08:50:00.000Z</time>
      </trkpt>
      <trkpt lat="44.17746" lon="5.12857">
        <ele>315</ele>
        <time>2016-06-30T08:50:01.000Z</time>
      </trkpt>
      <trkpt lat="44.17742" lon="5.12859">
        <ele>315</ele>
        <time>2016-06-30T08:50:02.000Z</time>
      </trkpt>
      <trkpt lat="44.17738" lon="5.12861">
        <ele>315</ele>
        <time>2016-06-30T08:50:03.000Z</time>
      </trkpt>
      <trkpt lat="44.17733" lon="5.12863">
        <ele>315</ele>
        <time>2016-06-30T08:50:04.000Z</time>
      </trkpt>
      <trkpt lat="44.17729" lon="5.12865">
        <ele>315</ele>
        <time>2016-06-30T08:50:05.000Z</time>
      </trkpt>
      <trkpt lat="44.17724" lon="5.12867">
        <ele>315</ele>
        <time>2016-06-30T08:50:06.000Z</time>
      </trkpt>
      <trkpt lat="44.1772" lon="5.12868">
        <ele>315</ele>
        <time>2016-06-30T08:50:07.000Z</time>
      </trkpt>
      <trkpt lat="44.17716" lon="5.1287">
        <ele>315</ele>
        <time>2016-06-30T08:50:08.000Z</time>
      </trkpt>
      <trkpt lat="44.17712" lon="5.12872">
        <ele>315</ele>
        <time>2016-06-30T08:50:09.000Z</time>
      </trkpt>
      <trkpt lat="44.17707" lon="5.12874">
        <ele>316</ele>
        <time>2016-06-30T08:50:10.000Z</time>
      </trkpt>
      <trkpt lat="44.17703" lon="5.12876">
        <ele>316</ele>
        <time>2016-06-30T08:50:11.000Z</time>
      </trkpt>
      <trkpt lat="44.17699" lon="5.12878">
        <ele>316</ele>
        <time>2016-06-30T08:50:12.000Z</time>
      </trkpt>
      <trkpt lat="44.17694" lon="5.12879">
        <ele>316</ele>
        <time>2016-06-30T08:50:13.000Z</time>
      </trkpt>
      <trkpt lat="44.1769" lon="5.12881">
        <ele>316</ele>
        <time>2016-06-30T08:50:14.000Z</time>
      </trkpt>
      <trkpt lat="44.17686" lon="5.12883">
        <ele>317</ele>
        <time>2016-06-30T08:50:15.000Z</time>
      </trkpt>
      <trkpt lat="44.17682" lon="5.12885">
        <ele>317</ele>
        <time>2016-06-30T08:50:16.000Z</time>
      </trkpt>
      <trkpt lat="44.17678" lon="5.12887">
        <ele>317</ele>
        <time>2016-06-30T08:50:17.000Z</time>
      </trkpt>
      <trkpt lat="44.17674" lon="5.12889">
        <ele>318</ele>
        <time>2016-06-30T08:50:18.000Z</time>
      </trkpt>
      <trkpt lat="44.1767" lon="5.1289">
        <ele>318</ele>
        <time>2016-06-30T08:50:19.000Z</time>
      </trkpt>
      <trkpt lat="44.17666" lon="5.12892">
        <ele>318</ele>
        <time>2016-06-30T08:50:20.000Z</time>
      </trkpt>
      <trkpt lat="44.17662" lon="5.12894">
        <ele>319</ele>
        <time>2016-06-30T08:50:21.000Z</time>
      </trkpt>
      <trkpt lat="44.17658" lon="5.12896">
        <ele>320</ele>
        <time>2016-06-30T08:50:22.000Z</time>
      </trkpt>
      <trkpt lat="44.17653" lon="5.12898">
        <ele>319</ele>
        <time>2016-06-30T08:50:23.000Z</time>
      </trkpt>
      <trkpt lat="44.17649" lon="5.12899">
        <ele>320</ele>
        <time>2016-06-30T08:50:24.000Z</time>
      </trkpt>
      <trkpt lat="44.17645" lon="5.12901">
        <ele>320</ele>
        <time>2016-06-30T08:50:25.000Z</time>
      </trkpt>
      <trkpt lat="44.17641" lon="5.12903">
        <ele>320</ele>
        <time>2016-06-30T08:50:26.000Z</time>
      </trkpt>
      <trkpt lat="44.17637" lon="5.12905">
        <ele>320</ele>
        <time>2016-06-30T08:50:27.000Z</time>
      </trkpt>
      <trkpt lat="44.17632" lon="5.12907">
        <ele>320</ele>
        <time>2016-06-30T08:50:28.000Z</time>
      </trkpt>
      <trkpt lat="44.17628" lon="5.12909">
        <ele>321</ele>
        <time>2016-06-30T08:50:29.000Z</time>
      </trkpt>
      <trkpt lat="44.17624" lon="5.12911">
        <ele>321</ele>
        <time>2016-06-30T08:50:30.000Z</time>
      </trkpt>
      <trkpt lat="44.1762" lon="5.12913">
        <ele>321</ele>
        <time>2016-06-30T08:50:31.000Z</time>
      </trkpt>
      <trkpt lat="44.17616" lon="5.12914">
        <ele>321</ele>
        <time>2016-06-30T08:50:32.000Z</time>
      </trkpt>
      <trkpt lat="44.17612" lon="5.12916">
        <ele>322</ele>
        <time>2016-06-30T08:50:33.000Z</time>
      </trkpt>
      <trkpt lat="44.17608" lon="5.12918">
        <ele>322</ele>
        <time>2016-06-30T08:50:34.000Z</time>
      </trkpt>
      <trkpt lat="44.17604" lon="5.12919">
        <ele>322</ele>
        <time>2016-06-30T08:50:35.000Z</time>
      </trkpt>
      <trkpt lat="44.176" lon="5.12921">
        <ele>322</ele>
        <time>2016-06-30T08:50:36.000Z</time>
      </trkpt>
      <trkpt lat="44.17595" lon="5.12923">
        <ele>322</ele>
        <time>2016-06-30T08:50:37.000Z</time>
      </trkpt>
      <trkpt lat="44.17591" lon="5.12925">
        <ele>322</ele>
        <time>2016-06-30T08:50:38.000Z</time>
      </trkpt>
      <trkpt lat="44.17588" lon="5.12926">
        <ele>322</ele>
        <time>2016-06-30T08:50:39.000Z</time>
      </trkpt>
      <trkpt lat="44.17584" lon="5.12928">
        <ele>321</ele>
        <time>2016-06-30T08:50:40.000Z</time>
      </trkpt>
      <trkpt lat="44.1758" lon="5.12928">
        <ele>320</ele>
        <time>2016-06-30T08:50:41.000Z</time>
      </trkpt>
      <trkpt lat="44.17577" lon="5.12927">
        <ele>320</ele>
        <time>2016-06-30T08:50:42.000Z</time>
      </trkpt>
      <trkpt lat="44.17575" lon="5.12924">
        <ele>319</ele>
        <time>2016-06-30T08:50:43.000Z</time>
      </trkpt>
      <trkpt lat="44.17574" lon="5.12919">
        <ele>319</ele>
        <time>2016-06-30T08:50:44.000Z</time>
      </trkpt>
      <trkpt lat="44.17574" lon="5.12913">
        <ele>320</ele>
        <time>2016-06-30T08:50:45.000Z</time>
      </trkpt>
      <trkpt lat="44.17575" lon="5.12907">
        <ele>320</ele>
        <time>2016-06-30T08:50:46.000Z</time>
      </trkpt>
      <trkpt lat="44.17576" lon="5.12901">
        <ele>320</ele>
        <time>2016-06-30T08:50:47.000Z</time>
      </trkpt>
      <trkpt lat="44.17578" lon="5.12896">
        <ele>321</ele>
        <time>2016-06-30T08:50:48.000Z</time>
      </trkpt>
      <trkpt lat="44.17579" lon="5.1289">
        <ele>320</ele>
        <time>2016-06-30T08:50:49.000Z</time>
      </trkpt>
      <trkpt lat="44.1758" lon="5.12884">
        <ele>321</ele>
        <time>2016-06-30T08:50:50.000Z</time>
      </trkpt>
      <trkpt lat="44.17582" lon="5.12878">
        <ele>320</ele>
        <time>2016-06-30T08:50:51.000Z</time>
      </trkpt>
      <trkpt lat="44.17583" lon="5.12873">
        <ele>320</ele>
        <time>2016-06-30T08:50:52.000Z</time>
      </trkpt>
      <trkpt lat="44.17584" lon="5.12867">
        <ele>320</ele>
        <time>2016-06-30T08:50:53.000Z</time>
      </trkpt>
      <trkpt lat="44.17586" lon="5.12862">
        <ele>320</ele>
        <time>2016-06-30T08:50:54.000Z</time>
      </trkpt>
      <trkpt lat="44.17587" lon="5.12856">
        <ele>320</ele>
        <time>2016-06-30T08:50:55.000Z</time>
      </trkpt>
      <trkpt lat="44.17588" lon="5.12851">
        <ele>320</ele>
        <time>2016-06-30T08:50:56.000Z</time>
      </trkpt>
      <trkpt lat="44.1759" lon="5.12845">
        <ele>321</ele>
        <time>2016-06-30T08:50:57.000Z</time>
      </trkpt>
      <trkpt lat="44.17591" lon="5.1284">
        <ele>321</ele>
        <time>2016-06-30T08:50:58.000Z</time>
      </trkpt>
      <trkpt lat="44.17592" lon="5.12834">
        <ele>321</ele>
        <time>2016-06-30T08:50:59.000Z</time>
      </trkpt>
      <trkpt lat="44.17593" lon="5.12828">
        <ele>321</ele>
        <time>2016-06-30T08:51:00.000Z</time>
      </trkpt>
      <trkpt lat="44.17595" lon="5.12823">
        <ele>321</ele>
        <time>2016-06-30T08:51:01.000Z</time>
      </trkpt>
      <trkpt lat="44.17596" lon="5.12817">
        <ele>321</ele>
        <time>2016-06-30T08:51:02.000Z</time>
      </trkpt>
      <trkpt lat="44.17597" lon="5.12811">
        <ele>321</ele>
        <time>2016-06-30T08:51:03.000Z</time>
      </trkpt>
      <trkpt lat="44.17598" lon="5.12805">
        <ele>321</ele>
        <time>2016-06-30T08:51:04.000Z</time>
      </trkpt>
      <trkpt lat="44.176" lon="5.12798">
        <ele>322</ele>
        <time>2016-06-30T08:51:05.000Z</time>
      </trkpt>
      <trkpt lat="44.17601" lon="5.12791">
        <ele>322</ele>
        <time>2016-06-30T08:51:06.000Z</time>
      </trkpt>
      <trkpt lat="44.17603" lon="5.12785">
        <ele>322</ele>
        <time>2016-06-30T08:51:07.000Z</time>
      </trkpt>
      <trkpt lat="44.17605" lon="5.12778">
        <ele>322</ele>
        <time>2016-06-30T08:51:08.000Z</time>
      </trkpt>
      <trkpt lat="44.17606" lon="5.12772">
        <ele>322</ele>
        <time>2016-06-30T08:51:09.000Z</time>
      </trkpt>
      <trkpt lat="44.17607" lon="5.12765">
        <ele>322</ele>
        <time>2016-06-30T08:51:10.000Z</time>
      </trkpt>
      <trkpt lat="44.17609" lon="5.12759">
        <ele>323</ele>
        <time>2016-06-30T08:51:11.000Z</time>
      </trkpt>
      <trkpt lat="44.1761" lon="5.12753">
        <ele>323</ele>
        <time>2016-06-30T08:51:12.000Z</time>
      </trkpt>
      <trkpt lat="44.17611" lon="5.12747">
        <ele>323</ele>
        <time>2016-06-30T08:51:13.000Z</time>
      </trkpt>
      <trkpt lat="44.17612" lon="5.12742">
        <ele>323</ele>
        <time>2016-06-30T08:51:14.000Z</time>
      </trkpt>
      <trkpt lat="44.17613" lon="5.12736">
        <ele>324</ele>
        <time>2016-06-30T08:51:15.000Z</time>
      </trkpt>
      <trkpt lat="44.17614" lon="5.1273">
        <ele>324</ele>
        <time>2016-06-30T08:51:16.000Z</time>
      </trkpt>
      <trkpt lat="44.17616" lon="5.12724">
        <ele>324</ele>
        <time>2016-06-30T08:51:17.000Z</time>
      </trkpt>
      <trkpt lat="44.17617" lon="5.12719">
        <ele>324</ele>
        <time>2016-06-30T08:51:18.000Z</time>
      </trkpt>
      <trkpt lat="44.17618" lon="5.12713">
        <ele>325</ele>
        <time>2016-06-30T08:51:19.000Z</time>
      </trkpt>
      <trkpt lat="44.1762" lon="5.12707">
        <ele>325</ele>
        <time>2016-06-30T08:51:20.000Z</time>
      </trkpt>
      <trkpt lat="44.17621" lon="5.12701">
        <ele>325</ele>
        <time>2016-06-30T08:51:21.000Z</time>
      </trkpt>
      <trkpt lat="44.17622" lon="5.12695">
        <ele>325</ele>
        <time>2016-06-30T08:51:22.000Z</time>
      </trkpt>
      <trkpt lat="44.17623" lon="5.12689">
        <ele>326</ele>
        <time>2016-06-30T08:51:23.000Z</time>
      </trkpt>
      <trkpt lat="44.17624" lon="5.12682">
        <ele>325</ele>
        <time>2016-06-30T08:51:24.000Z</time>
      </trkpt>
      <trkpt lat="44.17626" lon="5.12676">
        <ele>325</ele>
        <time>2016-06-30T08:51:25.000Z</time>
      </trkpt>
      <trkpt lat="44.17628" lon="5.1267">
        <ele>325</ele>
        <time>2016-06-30T08:51:26.000Z</time>
      </trkpt>
      <trkpt lat="44.17631" lon="5.12664">
        <ele>325</ele>
        <time>2016-06-30T08:51:27.000Z</time>
      </trkpt>
      <trkpt lat="44.17634" lon="5.12658">
        <ele>324</ele>
        <time>2016-06-30T08:51:28.000Z</time>
      </trkpt>
      <trkpt lat="44.17637" lon="5.12652">
        <ele>325</ele>
        <time>2016-06-30T08:51:29.000Z</time>
      </trkpt>
      <trkpt lat="44.1764" lon="5.12647">
        <ele>326</ele>
        <time>2016-06-30T08:51:30.000Z</time>
      </trkpt>
      <trkpt lat="44.17643" lon="5.12641">
        <ele>326</ele>
        <time>2016-06-30T08:51:31.000Z</time>
      </trkpt>
      <trkpt lat="44.17646" lon="5.12635">
        <ele>326</ele>
        <time>2016-06-30T08:51:32.000Z</time>
      </trkpt>
      <trkpt lat="44.17649" lon="5.12629">
        <ele>327</ele>
        <time>2016-06-30T08:51:33.000Z</time>
      </trkpt>
      <trkpt lat="44.17652" lon="5.12624">
        <ele>327</ele>
        <time>2016-06-30T08:51:34.000Z</time>
      </trkpt>
      <trkpt lat="44.17655" lon="5.12618">
        <ele>328</ele>
        <time>2016-06-30T08:51:35.000Z</time>
      </trkpt>
      <trkpt lat="44.17658" lon="5.12613">
        <ele>328</ele>
        <time>2016-06-30T08:51:36.000Z</time>
      </trkpt>
      <trkpt lat="44.17662" lon="5.12609">
        <ele>328</ele>
        <time>2016-06-30T08:51:37.000Z</time>
      </trkpt>
      <trkpt lat="44.17666" lon="5.12606">
        <ele>329</ele>
        <time>2016-06-30T08:51:38.000Z</time>
      </trkpt>
      <trkpt lat="44.1767" lon="5.12603">
        <ele>329</ele>
        <time>2016-06-30T08:51:39.000Z</time>
      </trkpt>
      <trkpt lat="44.17675" lon="5.12601">
        <ele>330</ele>
        <time>2016-06-30T08:51:40.000Z</time>
      </trkpt>
      <trkpt lat="44.17679" lon="5.12598">
        <ele>330</ele>
        <time>2016-06-30T08:51:41.000Z</time>
      </trkpt>
      <trkpt lat="44.17684" lon="5.12597">
        <ele>330</ele>
        <time>2016-06-30T08:51:42.000Z</time>
      </trkpt>
      <trkpt lat="44.17688" lon="5.12595">
        <ele>330</ele>
        <time>2016-06-30T08:51:43.000Z</time>
      </trkpt>
      <trkpt lat="44.17692" lon="5.12594">
        <ele>331</ele>
        <time>2016-06-30T08:51:44.000Z</time>
      </trkpt>
      <trkpt lat="44.17696" lon="5.12593">
        <ele>331</ele>
        <time>2016-06-30T08:51:45.000Z</time>
      </trkpt>
      <trkpt lat="44.177" lon="5.12592">
        <ele>332</ele>
        <time>2016-06-30T08:51:46.000Z</time>
      </trkpt>
      <trkpt lat="44.17703" lon="5.12591">
        <ele>332</ele>
        <time>2016-06-30T08:51:47.000Z</time>
      </trkpt>
      <trkpt lat="44.17707" lon="5.12589">
        <ele>332</ele>
        <time>2016-06-30T08:51:48.000Z</time>
      </trkpt>
      <trkpt lat="44.1771" lon="5.12587">
        <ele>332</ele>
        <time>2016-06-30T08:51:49.000Z</time>
      </trkpt>
      <trkpt lat="44.17713" lon="5.12585">
        <ele>333</ele>
        <time>2016-06-30T08:51:50.000Z</time>
      </trkpt>
      <trkpt lat="44.17717" lon="5.12582">
        <ele>333</ele>
        <time>2016-06-30T08:51:51.000Z</time>
      </trkpt>
      <trkpt lat="44.1772" lon="5.1258">
        <ele>334</ele>
        <time>2016-06-30T08:51:52.000Z</time>
      </trkpt>
      <trkpt lat="44.17724" lon="5.12577">
        <ele>335</ele>
        <time>2016-06-30T08:51:53.000Z</time>
      </trkpt>
      <trkpt lat="44.17727" lon="5.12574">
        <ele>336</ele>
        <time>2016-06-30T08:51:54.000Z</time>
      </trkpt>
      <trkpt lat="44.17731" lon="5.12572">
        <ele>337</ele>
        <time>2016-06-30T08:51:55.000Z</time>
      </trkpt>
      <trkpt lat="44.17735" lon="5.12569">
        <ele>338</ele>
        <time>2016-06-30T08:51:56.000Z</time>
      </trkpt>
      <trkpt lat="44.17739" lon="5.12567">
        <ele>338</ele>
        <time>2016-06-30T08:51:57.000Z</time>
      </trkpt>
      <trkpt lat="44.17743" lon="5.12563">
        <ele>337</ele>
        <time>2016-06-30T08:51:58.000Z</time>
      </trkpt>
      <trkpt lat="44.17747" lon="5.12559">
        <ele>338</ele>
        <time>2016-06-30T08:51:59.000Z</time>
      </trkpt>
      <trkpt lat="44.17751" lon="5.12556">
        <ele>339</ele>
        <time>2016-06-30T08:52:00.000Z</time>
      </trkpt>
      <trkpt lat="44.17755" lon="5.12552">
        <ele>339</ele>
        <time>2016-06-30T08:52:01.000Z</time>
      </trkpt>
      <trkpt lat="44.17759" lon="5.12548">
        <ele>340</ele>
        <time>2016-06-30T08:52:02.000Z</time>
      </trkpt>
      <trkpt lat="44.17763" lon="5.12544">
        <ele>340</ele>
        <time>2016-06-30T08:52:03.000Z</time>
      </trkpt>
      <trkpt lat="44.17767" lon="5.1254">
        <ele>340</ele>
        <time>2016-06-30T08:52:04.000Z</time>
      </trkpt>
      <trkpt lat="44.1777" lon="5.12535">
        <ele>341</ele>
        <time>2016-06-30T08:52:05.000Z</time>
      </trkpt>
      <trkpt lat="44.17774" lon="5.12531">
        <ele>341</ele>
        <time>2016-06-30T08:52:06.000Z</time>
      </trkpt>
      <trkpt lat="44.17776" lon="5.12526">
        <ele>340</ele>
        <time>2016-06-30T08:52:07.000Z</time>
      </trkpt>
      <trkpt lat="44.17779" lon="5.1252">
        <ele>341</ele>
        <time>2016-06-30T08:52:08.000Z</time>
      </trkpt>
      <trkpt lat="44.1778" lon="5.12514">
        <ele>340</ele>
        <time>2016-06-30T08:52:09.000Z</time>
      </trkpt>
      <trkpt lat="44.17783" lon="5.12509">
        <ele>340</ele>
        <time>2016-06-30T08:52:10.000Z</time>
      </trkpt>
      <trkpt lat="44.17785" lon="5.12503">
        <ele>339</ele>
        <time>2016-06-30T08:52:11.000Z</time>
      </trkpt>
      <trkpt lat="44.17786" lon="5.12497">
        <ele>339</ele>
        <time>2016-06-30T08:52:12.000Z</time>
      </trkpt>
      <trkpt lat="44.17787" lon="5.12491">
        <ele>340</ele>
        <time>2016-06-30T08:52:13.000Z</time>
      </trkpt>
      <trkpt lat="44.17787" lon="5.12484">
        <ele>340</ele>
        <time>2016-06-30T08:52:14.000Z</time>
      </trkpt>
      <trkpt lat="44.17787" lon="5.12477">
        <ele>340</ele>
        <time>2016-06-30T08:52:15.000Z</time>
      </trkpt>
      <trkpt lat="44.17787" lon="5.12471">
        <ele>340</ele>
        <time>2016-06-30T08:52:16.000Z</time>
      </trkpt>
      <trkpt lat="44.17786" lon="5.12465">
        <ele>340</ele>
        <time>2016-06-30T08:52:17.000Z</time>
      </trkpt>
      <trkpt lat="44.17784" lon="5.1246">
        <ele>340</ele>
        <time>2016-06-30T08:52:18.000Z</time>
      </trkpt>
      <trkpt lat="44.17782" lon="5.12454">
        <ele>340</ele>
        <time>2016-06-30T08:52:19.000Z</time>
      </trkpt>
      <trkpt lat="44.1778" lon="5.12449">
        <ele>340</ele>
        <time>2016-06-30T08:52:20.000Z</time>
      </trkpt>
      <trkpt lat="44.17777" lon="5.12444">
        <ele>340</ele>
        <time>2016-06-30T08:52:21.000Z</time>
      </trkpt>
      <trkpt lat="44.17774" lon="5.12439">
        <ele>341</ele>
        <time>2016-06-30T08:52:22.000Z</time>
      </trkpt>
      <trkpt lat="44.17771" lon="5.12434">
        <ele>341</ele>
        <time>2016-06-30T08:52:23.000Z</time>
      </trkpt>
      <trkpt lat="44.17768" lon="5.12429">
        <ele>341</ele>
        <time>2016-06-30T08:52:24.000Z</time>
      </trkpt>
      <trkpt lat="44.17764" lon="5.12424">
        <ele>341</ele>
        <time>2016-06-30T08:52:25.000Z</time>
      </trkpt>
      <trkpt lat="44.1776" lon="5.12419">
        <ele>340</ele>
        <time>2016-06-30T08:52:26.000Z</time>
      </trkpt>
      <trkpt lat="44.17755" lon="5.12413">
        <ele>340</ele>
        <time>2016-06-30T08:52:27.000Z</time>
      </trkpt>
      <trkpt lat="44.1775" lon="5.12407">
        <ele>339</ele>
        <time>2016-06-30T08:52:28.000Z</time>
      </trkpt>
      <trkpt lat="44.17746" lon="5.12401">
        <ele>339</ele>
        <time>2016-06-30T08:52:29.000Z</time>
      </trkpt>
      <trkpt lat="44.17741" lon="5.12395">
        <ele>339</ele>
        <time>2016-06-30T08:52:30.000Z</time>
      </trkpt>
      <trkpt lat="44.17736" lon="5.12388">
        <ele>338</ele>
        <time>2016-06-30T08:52:31.000Z</time>
      </trkpt>
      <trkpt lat="44.17731" lon="5.12381">
        <ele>337</ele>
        <time>2016-06-30T08:52:32.000Z</time>
      </trkpt>
      <trkpt lat="44.17727" lon="5.12374">
        <ele>336</ele>
        <time>2016-06-30T08:52:33.000Z</time>
      </trkpt>
      <trkpt lat="44.17723" lon="5.12366">
        <ele>336</ele>
        <time>2016-06-30T08:52:34.000Z</time>
      </trkpt>
      <trkpt lat="44.17719" lon="5.12359">
        <ele>335</ele>
        <time>2016-06-30T08:52:35.000Z</time>
      </trkpt>
      <trkpt lat="44.17714" lon="5.12352">
        <ele>334</ele>
        <time>2016-06-30T08:52:36.000Z</time>
      </trkpt>
      <trkpt lat="44.1771" lon="5.12344">
        <ele>333</ele>
        <time>2016-06-30T08:52:37.000Z</time>
      </trkpt>
      <trkpt lat="44.17705" lon="5.12337">
        <ele>333</ele>
        <time>2016-06-30T08:52:38.000Z</time>
      </trkpt>
      <trkpt lat="44.17701" lon="5.12329">
        <ele>332</ele>
        <time>2016-06-30T08:52:39.000Z</time>
      </trkpt>
      <trkpt lat="44.17696" lon="5.12321">
        <ele>331</ele>
        <time>2016-06-30T08:52:40.000Z</time>
      </trkpt>
      <trkpt lat="44.17691" lon="5.12312">
        <ele>331</ele>
        <time>2016-06-30T08:52:41.000Z</time>
      </trkpt>
      <trkpt lat="44.17686" lon="5.12303">
        <ele>331</ele>
        <time>2016-06-30T08:52:42.000Z</time>
      </trkpt>
      <trkpt lat="44.17681" lon="5.12294">
        <ele>330</ele>
        <time>2016-06-30T08:52:43.000Z</time>
      </trkpt>
      <trkpt lat="44.17676" lon="5.12285">
        <ele>330</ele>
        <time>2016-06-30T08:52:44.000Z</time>
      </trkpt>
      <trkpt lat="44.17671" lon="5.12276">
        <ele>329</ele>
        <time>2016-06-30T08:52:45.000Z</time>
      </trkpt>
      <trkpt lat="44.17666" lon="5.12267">
        <ele>329</ele>
        <time>2016-06-30T08:52:46.000Z</time>
      </trkpt>
      <trkpt lat="44.17661" lon="5.12259">
        <ele>328</ele>
        <time>2016-06-30T08:52:47.000Z</time>
      </trkpt>
      <trkpt lat="44.17655" lon="5.12251">
        <ele>327</ele>
        <time>2016-06-30T08:52:48.000Z</time>
      </trkpt>
      <trkpt lat="44.17649" lon="5.12244">
        <ele>326</ele>
        <time>2016-06-30T08:52:49.000Z</time>
      </trkpt>
      <trkpt lat="44.17642" lon="5.12238">
        <ele>325</ele>
        <time>2016-06-30T08:52:50.000Z</time>
      </trkpt>
      <trkpt lat="44.17635" lon="5.12231">
        <ele>325</ele>
        <time>2016-06-30T08:52:51.000Z</time>
      </trkpt>
      <trkpt lat="44.17628" lon="5.12226">
        <ele>324</ele>
        <time>2016-06-30T08:52:52.000Z</time>
      </trkpt>
      <trkpt lat="44.17621" lon="5.12221">
        <ele>324</ele>
        <time>2016-06-30T08:52:53.000Z</time>
      </trkpt>
      <trkpt lat="44.17614" lon="5.12217">
        <ele>324</ele>
        <time>2016-06-30T08:52:54.000Z</time>
      </trkpt>
      <trkpt lat="44.17606" lon="5.12214">
        <ele>323</ele>
        <time>2016-06-30T08:52:55.000Z</time>
      </trkpt>
      <trkpt lat="44.17598" lon="5.12211">
        <ele>323</ele>
        <time>2016-06-30T08:52:56.000Z</time>
      </trkpt>
      <trkpt lat="44.17591" lon="5.12208">
        <ele>323</ele>
        <time>2016-06-30T08:52:57.000Z</time>
      </trkpt>
      <trkpt lat="44.17584" lon="5.12206">
        <ele>322</ele>
        <time>2016-06-30T08:52:58.000Z</time>
      </trkpt>
      <trkpt lat="44.17577" lon="5.12204">
        <ele>322</ele>
        <time>2016-06-30T08:52:59.000Z</time>
      </trkpt>
      <trkpt lat="44.1757" lon="5.12201">
        <ele>321</ele>
        <time>2016-06-30T08:53:00.000Z</time>
      </trkpt>
      <trkpt lat="44.17564" lon="5.12197">
        <ele>320</ele>
        <time>2016-06-30T08:53:01.000Z</time>
      </trkpt>
      <trkpt lat="44.17559" lon="5.12192">
        <ele>319</ele>
        <time>2016-06-30T08:53:02.000Z</time>
      </trkpt>
      <trkpt lat="44.17556" lon="5.12186">
        <ele>318</ele>
        <time>2016-06-30T08:53:03.000Z</time>
      </trkpt>
      <trkpt lat="44.17554" lon="5.12178">
        <ele>318</ele>
        <time>2016-06-30T08:53:04.000Z</time>
      </trkpt>
      <trkpt lat="44.17556" lon="5.1217">
        <ele>319</ele>
        <time>2016-06-30T08:53:05.000Z</time>
      </trkpt>
      <trkpt lat="44.1756" lon="5.12163">
        <ele>319</ele>
        <time>2016-06-30T08:53:06.000Z</time>
      </trkpt>
      <trkpt lat="44.17565" lon="5.12157">
        <ele>319</ele>
        <time>2016-06-30T08:53:07.000Z</time>
      </trkpt>
      <trkpt lat="44.17572" lon="5.12154">
        <ele>319</ele>
        <time>2016-06-30T08:53:08.000Z</time>
      </trkpt>
      <trkpt lat="44.17579" lon="5.12154">
        <ele>318</ele>
        <time>2016-06-30T08:53:09.000Z</time>
      </trkpt>
      <trkpt lat="44.17586" lon="5.12155">
        <ele>318</ele>
        <time>2016-06-30T08:53:10.000Z</time>
      </trkpt>
      <trkpt lat="44.17593" lon="5.12156">
        <ele>318</ele>
        <time>2016-06-30T08:53:11.000Z</time>
      </trkpt>
      <trkpt lat="44.17601" lon="5.12158">
        <ele>317</ele>
        <time>2016-06-30T08:53:12.000Z</time>
      </trkpt>
      <trkpt lat="44.17608" lon="5.12161">
        <ele>317</ele>
        <time>2016-06-30T08:53:13.000Z</time>
      </trkpt>
      <trkpt lat="44.17616" lon="5.12163">
        <ele>317</ele>
        <time>2016-06-30T08:53:14.000Z</time>
      </trkpt>
      <trkpt lat="44.17623" lon="5.12165">
        <ele>316</ele>
        <time>2016-06-30T08:53:15.000Z</time>
      </trkpt>
      <trkpt lat="44.17632" lon="5.12167">
        <ele>316</ele>
        <time>2016-06-30T08:53:16.000Z</time>
      </trkpt>
      <trkpt lat="44.1764" lon="5.12169">
        <ele>315</ele>
        <time>2016-06-30T08:53:17.000Z</time>
      </trkpt>
      <trkpt lat="44.17648" lon="5.1217">
        <ele>314</ele>
        <time>2016-06-30T08:53:18.000Z</time>
      </trkpt>
      <trkpt lat="44.17657" lon="5.12171">
        <ele>314</ele>
        <time>2016-06-30T08:53:19.000Z</time>
      </trkpt>
      <trkpt lat="44.17665" lon="5.1217">
        <ele>313</ele>
        <time>2016-06-30T08:53:20.000Z</time>
      </trkpt>
      <trkpt lat="44.17673" lon="5.12169">
        <ele>313</ele>
        <time>2016-06-30T08:53:21.000Z</time>
      </trkpt>
      <trkpt lat="44.17681" lon="5.12165">
        <ele>312</ele>
        <time>2016-06-30T08:53:22.000Z</time>
      </trkpt>
      <trkpt lat="44.17689" lon="5.1216">
        <ele>311</ele>
        <time>2016-06-30T08:53:23.000Z</time>
      </trkpt>
      <trkpt lat="44.17696" lon="5.12154">
        <ele>310</ele>
        <time>2016-06-30T08:53:24.000Z</time>
      </trkpt>
      <trkpt lat="44.17703" lon="5.12146">
        <ele>310</ele>
        <time>2016-06-30T08:53:25.000Z</time>
      </trkpt>
      <trkpt lat="44.1771" lon="5.12138">
        <ele>309</ele>
        <time>2016-06-30T08:53:26.000Z</time>
      </trkpt>
      <trkpt lat="44.17716" lon="5.12129">
        <ele>308</ele>
        <time>2016-06-30T08:53:27.000Z</time>
      </trkpt>
      <trkpt lat="44.17721" lon="5.12118">
        <ele>307</ele>
        <time>2016-06-30T08:53:28.000Z</time>
      </trkpt>
      <trkpt lat="44.17724" lon="5.12107">
        <ele>307</ele>
        <time>2016-06-30T08:53:29.000Z</time>
      </trkpt>
      <trkpt lat="44.17727" lon="5.12095">
        <ele>306</ele>
        <time>2016-06-30T08:53:30.000Z</time>
      </trkpt>
      <trkpt lat="44.17728" lon="5.12083">
        <ele>306</ele>
        <time>2016-06-30T08:53:31.000Z</time>
      </trkpt>
      <trkpt lat="44.17729" lon="5.12071">
        <ele>305</ele>
        <time>2016-06-30T08:53:32.000Z</time>
      </trkpt>
      <trkpt lat="44.17728" lon="5.12059">
        <ele>305</ele>
        <time>2016-06-30T08:53:33.000Z</time>
      </trkpt>
      <trkpt lat="44.17728" lon="5.12047">
        <ele>305</ele>
        <time>2016-06-30T08:53:34.000Z</time>
      </trkpt>
      <trkpt lat="44.17727" lon="5.12035">
        <ele>304</ele>
        <time>2016-06-30T08:53:35.000Z</time>
      </trkpt>
      <trkpt lat="44.17727" lon="5.12023">
        <ele>304</ele>
        <time>2016-06-30T08:53:36.000Z</time>
      </trkpt>
      <trkpt lat="44.17726" lon="5.12012">
        <ele>304</ele>
        <time>2016-06-30T08:53:37.000Z</time>
      </trkpt>
      <trkpt lat="44.17725" lon="5.12001">
        <ele>304</ele>
        <time>2016-06-30T08:53:38.000Z</time>
      </trkpt>
      <trkpt lat="44.17724" lon="5.1199">
        <ele>304</ele>
        <time>2016-06-30T08:53:39.000Z</time>
      </trkpt>
      <trkpt lat="44.17723" lon="5.11979">
        <ele>304</ele>
        <time>2016-06-30T08:53:40.000Z</time>
      </trkpt>
      <trkpt lat="44.17722" lon="5.11969">
        <ele>304</ele>
        <time>2016-06-30T08:53:41.000Z</time>
      </trkpt>
      <trkpt lat="44.17722" lon="5.11958">
        <ele>304</ele>
        <time>2016-06-30T08:53:42.000Z</time>
      </trkpt>
      <trkpt lat="44.17721" lon="5.11948">
        <ele>304</ele>
        <time>2016-06-30T08:53:43.000Z</time>
      </trkpt>
      <trkpt lat="44.1772" lon="5.11939">
        <ele>303</ele>
        <time>2016-06-30T08:53:44.000Z</time>
      </trkpt>
      <trkpt lat="44.17719" lon="5.11929">
        <ele>304</ele>
        <time>2016-06-30T08:53:45.000Z</time>
      </trkpt>
      <trkpt lat="44.17718" lon="5.1192">
        <ele>304</ele>
        <time>2016-06-30T08:53:46.000Z</time>
      </trkpt>
      <trkpt lat="44.17718" lon="5.11911">
        <ele>303</ele>
        <time>2016-06-30T08:53:47.000Z</time>
      </trkpt>
      <trkpt lat="44.17717" lon="5.11901">
        <ele>304</ele>
        <time>2016-06-30T08:53:48.000Z</time>
      </trkpt>
      <trkpt lat="44.17716" lon="5.11892">
        <ele>304</ele>
        <time>2016-06-30T08:53:49.000Z</time>
      </trkpt>
      <trkpt lat="44.17715" lon="5.11883">
        <ele>304</ele>
        <time>2016-06-30T08:53:50.000Z</time>
      </trkpt>
      <trkpt lat="44.17714" lon="5.11874">
        <ele>304</ele>
        <time>2016-06-30T08:53:51.000Z</time>
      </trkpt>
      <trkpt lat="44.17714" lon="5.11865">
        <ele>304</ele>
        <time>2016-06-30T08:53:52.000Z</time>
      </trkpt>
      <trkpt lat="44.17713" lon="5.11856">
        <ele>304</ele>
        <time>2016-06-30T08:53:53.000Z</time>
      </trkpt>
      <trkpt lat="44.17712" lon="5.11848">
        <ele>304</ele>
        <time>2016-06-30T08:53:54.000Z</time>
      </trkpt>
      <trkpt lat="44.17711" lon="5.11839">
        <ele>304</ele>
        <time>2016-06-30T08:53:55.000Z</time>
      </trkpt>
      <trkpt lat="44.1771" lon="5.11831">
        <ele>304</ele>
        <time>2016-06-30T08:53:56.000Z</time>
      </trkpt>
      <trkpt lat="44.1771" lon="5.11823">
        <ele>304</ele>
        <time>2016-06-30T08:53:57.000Z</time>
      </trkpt>
      <trkpt lat="44.17709" lon="5.11815">
        <ele>304</ele>
        <time>2016-06-30T08:53:58.000Z</time>
      </trkpt>
      <trkpt lat="44.17708" lon="5.11807">
        <ele>304</ele>
        <time>2016-06-30T08:53:59.000Z</time>
      </trkpt>
      <trkpt lat="44.17708" lon="5.118">
        <ele>304</ele>
        <time>2016-06-30T08:54:00.000Z</time>
      </trkpt>
      <trkpt lat="44.17707" lon="5.11793">
        <ele>304</ele>
        <time>2016-06-30T08:54:01.000Z</time>
      </trkpt>
      <trkpt lat="44.17707" lon="5.11785">
        <ele>304</ele>
        <time>2016-06-30T08:54:02.000Z</time>
      </trkpt>
      <trkpt lat="44.17706" lon="5.11778">
        <ele>304</ele>
        <time>2016-06-30T08:54:03.000Z</time>
      </trkpt>
      <trkpt lat="44.17705" lon="5.1177">
        <ele>304</ele>
        <time>2016-06-30T08:54:04.000Z</time>
      </trkpt>
      <trkpt lat="44.17705" lon="5.11763">
        <ele>305</ele>
        <time>2016-06-30T08:54:05.000Z</time>
      </trkpt>
      <trkpt lat="44.17704" lon="5.11756">
        <ele>305</ele>
        <time>2016-06-30T08:54:06.000Z</time>
      </trkpt>
      <trkpt lat="44.17704" lon="5.11749">
        <ele>305</ele>
        <time>2016-06-30T08:54:07.000Z</time>
      </trkpt>
      <trkpt lat="44.17703" lon="5.11742">
        <ele>305</ele>
        <time>2016-06-30T08:54:08.000Z</time>
      </trkpt>
      <trkpt lat="44.17702" lon="5.11734">
        <ele>305</ele>
        <time>2016-06-30T08:54:09.000Z</time>
      </trkpt>
      <trkpt lat="44.17702" lon="5.11727">
        <ele>305</ele>
        <time>2016-06-30T08:54:10.000Z</time>
      </trkpt>
      <trkpt lat="44.17701" lon="5.1172">
        <ele>306</ele>
        <time>2016-06-30T08:54:11.000Z</time>
      </trkpt>
      <trkpt lat="44.177" lon="5.11713">
        <ele>306</ele>
        <time>2016-06-30T08:54:12.000Z</time>
      </trkpt>
      <trkpt lat="44.177" lon="5.11707">
        <ele>306</ele>
        <time>2016-06-30T08:54:13.000Z</time>
      </trkpt>
      <trkpt lat="44.17699" lon="5.117">
        <ele>306</ele>
        <time>2016-06-30T08:54:14.000Z</time>
      </trkpt>
      <trkpt lat="44.17698" lon="5.11693">
        <ele>307</ele>
        <time>2016-06-30T08:54:15.000Z</time>
      </trkpt>
      <trkpt lat="44.17698" lon="5.11686">
        <ele>307</ele>
        <time>2016-06-30T08:54:16.000Z</time>
      </trkpt>
      <trkpt lat="44.17697" lon="5.11679">
        <ele>307</ele>
        <time>2016-06-30T08:54:17.000Z</time>
      </trkpt>
      <trkpt lat="44.17697" lon="5.11673">
        <ele>308</ele>
        <time>2016-06-30T08:54:18.000Z</time>
      </trkpt>
      <trkpt lat="44.17696" lon="5.11667">
        <ele>308</ele>
        <time>2016-06-30T08:54:19.000Z</time>
      </trkpt>
      <trkpt lat="44.17696" lon="5.1166">
        <ele>308</ele>
        <time>2016-06-30T08:54:20.000Z</time>
      </trkpt>
      <trkpt lat="44.17695" lon="5.11654">
        <ele>308</ele>
        <time>2016-06-30T08:54:21.000Z</time>
      </trkpt>
      <trkpt lat="44.17694" lon="5.11648">
        <ele>309</ele>
        <time>2016-06-30T08:54:22.000Z</time>
      </trkpt>
      <trkpt lat="44.17694" lon="5.11642">
        <ele>309</ele>
        <time>2016-06-30T08:54:23.000Z</time>
      </trkpt>
      <trkpt lat="44.17693" lon="5.11636">
        <ele>309</ele>
        <time>2016-06-30T08:54:24.000Z</time>
      </trkpt>
      <trkpt lat="44.17693" lon="5.11631">
        <ele>309</ele>
        <time>2016-06-30T08:54:25.000Z</time>
      </trkpt>
      <trkpt lat="44.17692" lon="5.11625">
        <ele>309</ele>
        <time>2016-06-30T08:54:26.000Z</time>
      </trkpt>
      <trkpt lat="44.17692" lon="5.11619">
        <ele>310</ele>
        <time>2016-06-30T08:54:27.000Z</time>
      </trkpt>
      <trkpt lat="44.17691" lon="5.11613">
        <ele>310</ele>
        <time>2016-06-30T08:54:28.000Z</time>
      </trkpt>
      <trkpt lat="44.17691" lon="5.11607">
        <ele>311</ele>
        <time>2016-06-30T08:54:29.000Z</time>
      </trkpt>
      <trkpt lat="44.1769" lon="5.11601">
        <ele>311</ele>
        <time>2016-06-30T08:54:30.000Z</time>
      </trkpt>
      <trkpt lat="44.1769" lon="5.11596">
        <ele>311</ele>
        <time>2016-06-30T08:54:31.000Z</time>
      </trkpt>
      <trkpt lat="44.17689" lon="5.1159">
        <ele>311</ele>
        <time>2016-06-30T08:54:32.000Z</time>
      </trkpt>
      <trkpt lat="44.17689" lon="5.11584">
        <ele>312</ele>
        <time>2016-06-30T08:54:33.000Z</time>
      </trkpt>
      <trkpt lat="44.17688" lon="5.11579">
        <ele>312</ele>
        <time>2016-06-30T08:54:34.000Z</time>
      </trkpt>
      <trkpt lat="44.17688" lon="5.11573">
        <ele>312</ele>
        <time>2016-06-30T08:54:35.000Z</time>
      </trkpt>
      <trkpt lat="44.17687" lon="5.11567">
        <ele>312</ele>
        <time>2016-06-30T08:54:36.000Z</time>
      </trkpt>
      <trkpt lat="44.17687" lon="5.11562">
        <ele>313</ele>
        <time>2016-06-30T08:54:37.000Z</time>
      </trkpt>
      <trkpt lat="44.17686" lon="5.11556">
        <ele>313</ele>
        <time>2016-06-30T08:54:38.000Z</time>
      </trkpt>
      <trkpt lat="44.17686" lon="5.1155">
        <ele>313</ele>
        <time>2016-06-30T08:54:39.000Z</time>
      </trkpt>
      <trkpt lat="44.17685" lon="5.11545">
        <ele>313</ele>
        <time>2016-06-30T08:54:40.000Z</time>
      </trkpt>
      <trkpt lat="44.17685" lon="5.11539">
        <ele>314</ele>
        <time>2016-06-30T08:54:41.000Z</time>
      </trkpt>
      <trkpt lat="44.17684" lon="5.11533">
        <ele>314</ele>
        <time>2016-06-30T08:54:42.000Z</time>
      </trkpt>
      <trkpt lat="44.17684" lon="5.11528">
        <ele>314</ele>
        <time>2016-06-30T08:54:43.000Z</time>
      </trkpt>
      <trkpt lat="44.17683" lon="5.11522">
        <ele>315</ele>
        <time>2016-06-30T08:54:44.000Z</time>
      </trkpt>
      <trkpt lat="44.17683" lon="5.11517">
        <ele>315</ele>
        <time>2016-06-30T08:54:45.000Z</time>
      </trkpt>
      <trkpt lat="44.17682" lon="5.11512">
        <ele>315</ele>
        <time>2016-06-30T08:54:46.000Z</time>
      </trkpt>
      <trkpt lat="44.17682" lon="5.11506">
        <ele>315</ele>
        <time>2016-06-30T08:54:47.000Z</time>
      </trkpt>
      <trkpt lat="44.17681" lon="5.11501">
        <ele>316</ele>
        <time>2016-06-30T08:54:48.000Z</time>
      </trkpt>
      <trkpt lat="44.17681" lon="5.11495">
        <ele>316</ele>
        <time>2016-06-30T08:54:49.000Z</time>
      </trkpt>
      <trkpt lat="44.1768" lon="5.1149">
        <ele>316</ele>
        <time>2016-06-30T08:54:50.000Z</time>
      </trkpt>
      <trkpt lat="44.1768" lon="5.11484">
        <ele>316</ele>
        <time>2016-06-30T08:54:51.000Z</time>
      </trkpt>
      <trkpt lat="44.17679" lon="5.11478">
        <ele>316</ele>
        <time>2016-06-30T08:54:52.000Z</time>
      </trkpt>
      <trkpt lat="44.17679" lon="5.11473">
        <ele>317</ele>
        <time>2016-06-30T08:54:53.000Z</time>
      </trkpt>
      <trkpt lat="44.17678" lon="5.11467">
        <ele>317</ele>
        <time>2016-06-30T08:54:54.000Z</time>
      </trkpt>
      <trkpt lat="44.17678" lon="5.11462">
        <ele>317</ele>
        <time>2016-06-30T08:54:55.000Z</time>
      </trkpt>
      <trkpt lat="44.17677" lon="5.11457">
        <ele>318</ele>
        <time>2016-06-30T08:54:56.000Z</time>
      </trkpt>
      <trkpt lat="44.17677" lon="5.11452">
        <ele>318</ele>
        <time>2016-06-30T08:54:57.000Z</time>
      </trkpt>
      <trkpt lat="44.17676" lon="5.11447">
        <ele>318</ele>
        <time>2016-06-30T08:54:58.000Z</time>
      </trkpt>
      <trkpt lat="44.17675" lon="5.11443">
        <ele>318</ele>
        <time>2016-06-30T08:54:59.000Z</time>
      </trkpt>
      <trkpt lat="44.17675" lon="5.11438">
        <ele>318</ele>
        <time>2016-06-30T08:55:00.000Z</time>
      </trkpt>
      <trkpt lat="44.17674" lon="5.11433">
        <ele>319</ele>
        <time>2016-06-30T08:55:01.000Z</time>
      </trkpt>
      <trkpt lat="44.17673" lon="5.11427">
        <ele>319</ele>
        <time>2016-06-30T08:55:02.000Z</time>
      </trkpt>
      <trkpt lat="44.17673" lon="5.11422">
        <ele>319</ele>
        <time>2016-06-30T08:55:03.000Z</time>
      </trkpt>
      <trkpt lat="44.17672" lon="5.11417">
        <ele>319</ele>
        <time>2016-06-30T08:55:04.000Z</time>
      </trkpt>
      <trkpt lat="44.17671" lon="5.11412">
        <ele>320</ele>
        <time>2016-06-30T08:55:05.000Z</time>
      </trkpt>
      <trkpt lat="44.1767" lon="5.11407">
        <ele>320</ele>
        <time>2016-06-30T08:55:06.000Z</time>
      </trkpt>
      <trkpt lat="44.17669" lon="5.11402">
        <ele>320</ele>
        <time>2016-06-30T08:55:07.000Z</time>
      </trkpt>
      <trkpt lat="44.17668" lon="5.11397">
        <ele>320</ele>
        <time>2016-06-30T08:55:08.000Z</time>
      </trkpt>
      <trkpt lat="44.17667" lon="5.11392">
        <ele>321</ele>
        <time>2016-06-30T08:55:09.000Z</time>
      </trkpt>
      <trkpt lat="44.17666" lon="5.11387">
        <ele>321</ele>
        <time>2016-06-30T08:55:10.000Z</time>
      </trkpt>
      <trkpt lat="44.17665" lon="5.11381">
        <ele>321</ele>
        <time>2016-06-30T08:55:11.000Z</time>
      </trkpt>
      <trkpt lat="44.17664" lon="5.11376">
        <ele>321</ele>
        <time>2016-06-30T08:55:12.000Z</time>
      </trkpt>
      <trkpt lat="44.17663" lon="5.11371">
        <ele>322</ele>
        <time>2016-06-30T08:55:13.000Z</time>
      </trkpt>
      <trkpt lat="44.17662" lon="5.11366">
        <ele>322</ele>
        <time>2016-06-30T08:55:14.000Z</time>
      </trkpt>
      <trkpt lat="44.17661" lon="5.1136">
        <ele>322</ele>
        <time>2016-06-30T08:55:15.000Z</time>
      </trkpt>
      <trkpt lat="44.1766" lon="5.11355">
        <ele>323</ele>
        <time>2016-06-30T08:55:16.000Z</time>
      </trkpt>
      <trkpt lat="44.17659" lon="5.1135">
        <ele>323</ele>
        <time>2016-06-30T08:55:17.000Z</time>
      </trkpt>
      <trkpt lat="44.17659" lon="5.11345">
        <ele>323</ele>
        <time>2016-06-30T08:55:18.000Z</time>
      </trkpt>
      <trkpt lat="44.17658" lon="5.11339">
        <ele>323</ele>
        <time>2016-06-30T08:55:19.000Z</time>
      </trkpt>
      <trkpt lat="44.17657" lon="5.11334">
        <ele>324</ele>
        <time>2016-06-30T08:55:20.000Z</time>
      </trkpt>
      <trkpt lat="44.17656" lon="5.11328">
        <ele>324</ele>
        <time>2016-06-30T08:55:21.000Z</time>
      </trkpt>
      <trkpt lat="44.17655" lon="5.11322">
        <ele>324</ele>
        <time>2016-06-30T08:55:22.000Z</time>
      </trkpt>
      <trkpt lat="44.17654" lon="5.11317">
        <ele>324</ele>
        <time>2016-06-30T08:55:23.000Z</time>
      </trkpt>
      <trkpt lat="44.17653" lon="5.11311">
        <ele>325</ele>
        <time>2016-06-30T08:55:24.000Z</time>
      </trkpt>
      <trkpt lat="44.17652" lon="5.11306">
        <ele>325</ele>
        <time>2016-06-30T08:55:25.000Z</time>
      </trkpt>
      <trkpt lat="44.17651" lon="5.113">
        <ele>326</ele>
        <time>2016-06-30T08:55:26.000Z</time>
      </trkpt>
      <trkpt lat="44.1765" lon="5.11295">
        <ele>326</ele>
        <time>2016-06-30T08:55:27.000Z</time>
      </trkpt>
      <trkpt lat="44.17649" lon="5.11289">
        <ele>326</ele>
        <time>2016-06-30T08:55:28.000Z</time>
      </trkpt>
      <trkpt lat="44.17648" lon="5.11284">
        <ele>326</ele>
        <time>2016-06-30T08:55:29.000Z</time>
      </trkpt>
      <trkpt lat="44.17647" lon="5.11278">
        <ele>326</ele>
        <time>2016-06-30T08:55:30.000Z</time>
      </trkpt>
      <trkpt lat="44.17646" lon="5.11272">
        <ele>327</ele>
        <time>2016-06-30T08:55:31.000Z</time>
      </trkpt>
      <trkpt lat="44.17645" lon="5.11267">
        <ele>327</ele>
        <time>2016-06-30T08:55:32.000Z</time>
      </trkpt>
      <trkpt lat="44.17644" lon="5.11261">
        <ele>327</ele>
        <time>2016-06-30T08:55:33.000Z</time>
      </trkpt>
      <trkpt lat="44.17643" lon="5.11255">
        <ele>327</ele>
        <time>2016-06-30T08:55:34.000Z</time>
      </trkpt>
      <trkpt lat="44.17642" lon="5.11249">
        <ele>327</ele>
        <time>2016-06-30T08:55:35.000Z</time>
      </trkpt>
      <trkpt lat="44.17642" lon="5.11244">
        <ele>328</ele>
        <time>2016-06-30T08:55:36.000Z</time>
      </trkpt>
      <trkpt lat="44.17641" lon="5.11238">
        <ele>328</ele>
        <time>2016-06-30T08:55:37.000Z</time>
      </trkpt>
      <trkpt lat="44.1764" lon="5.11232">
        <ele>328</ele>
        <time>2016-06-30T08:55:38.000Z</time>
      </trkpt>
      <trkpt lat="44.17639" lon="5.11226">
        <ele>328</ele>
        <time>2016-06-30T08:55:39.000Z</time>
      </trkpt>
      <trkpt lat="44.17638" lon="5.11221">
        <ele>328</ele>
        <time>2016-06-30T08:55:40.000Z</time>
      </trkpt>
      <trkpt lat="44.17636" lon="5.11215">
        <ele>328</ele>
        <time>2016-06-30T08:55:41.000Z</time>
      </trkpt>
      <trkpt lat="44.17635" lon="5.11209">
        <ele>328</ele>
        <time>2016-06-30T08:55:42.000Z</time>
      </trkpt>
      <trkpt lat="44.17634" lon="5.11203">
        <ele>329</ele>
        <time>2016-06-30T08:55:43.000Z</time>
      </trkpt>
      <trkpt lat="44.17633" lon="5.11198">
        <ele>329</ele>
        <time>2016-06-30T08:55:44.000Z</time>
      </trkpt>
      <trkpt lat="44.17632" lon="5.11192">
        <ele>329</ele>
        <time>2016-06-30T08:55:45.000Z</time>
      </trkpt>
      <trkpt lat="44.17631" lon="5.11187">
        <ele>329</ele>
        <time>2016-06-30T08:55:46.000Z</time>
      </trkpt>
      <trkpt lat="44.1763" lon="5.11181">
        <ele>330</ele>
        <time>2016-06-30T08:55:47.000Z</time>
      </trkpt>
      <trkpt lat="44.17629" lon="5.11176">
        <ele>330</ele>
        <time>2016-06-30T08:55:48.000Z</time>
      </trkpt>
      <trkpt lat="44.17627" lon="5.1117">
        <ele>330</ele>
        <time>2016-06-30T08:55:49.000Z</time>
      </trkpt>
      <trkpt lat="44.17626" lon="5.11164">
        <ele>331</ele>
        <time>2016-06-30T08:55:50.000Z</time>
      </trkpt>
      <trkpt lat="44.17625" lon="5.11159">
        <ele>331</ele>
        <time>2016-06-30T08:55:51.000Z</time>
      </trkpt>
      <trkpt lat="44.17624" lon="5.11154">
        <ele>331</ele>
        <time>2016-06-30T08:55:52.000Z</time>
      </trkpt>
      <trkpt lat="44.17622" lon="5.11148">
        <ele>331</ele>
        <time>2016-06-30T08:55:53.000Z</time>
      </trkpt>
      <trkpt lat="44.17621" lon="5.11143">
        <ele>331</ele>
        <time>2016-06-30T08:55:54.000Z</time>
      </trkpt>
      <trkpt lat="44.17619" lon="5.11137">
        <ele>332</ele>
        <time>2016-06-30T08:55:55.000Z</time>
      </trkpt>
      <trkpt lat="44.17618" lon="5.11131">
        <ele>332</ele>
        <time>2016-06-30T08:55:56.000Z</time>
      </trkpt>
      <trkpt lat="44.17617" lon="5.11125">
        <ele>332</ele>
        <time>2016-06-30T08:55:57.000Z</time>
      </trkpt>
      <trkpt lat="44.17615" lon="5.1112">
        <ele>333</ele>
        <time>2016-06-30T08:55:58.000Z</time>
      </trkpt>
      <trkpt lat="44.17614" lon="5.11114">
        <ele>333</ele>
        <time>2016-06-30T08:55:59.000Z</time>
      </trkpt>
      <trkpt lat="44.17612" lon="5.11108">
        <ele>333</ele>
        <time>2016-06-30T08:56:00.000Z</time>
      </trkpt>
      <trkpt lat="44.17611" lon="5.11103">
        <ele>333</ele>
        <time>2016-06-30T08:56:01.000Z</time>
      </trkpt>
      <trkpt lat="44.17609" lon="5.11097">
        <ele>334</ele>
        <time>2016-06-30T08:56:02.000Z</time>
      </trkpt>
      <trkpt lat="44.17608" lon="5.11091">
        <ele>334</ele>
        <time>2016-06-30T08:56:03.000Z</time>
      </trkpt>
      <trkpt lat="44.17606" lon="5.11085">
        <ele>334</ele>
        <time>2016-06-30T08:56:04.000Z</time>
      </trkpt>
      <trkpt lat="44.17604" lon="5.1108">
        <ele>334</ele>
        <time>2016-06-30T08:56:05.000Z</time>
      </trkpt>
      <trkpt lat="44.17603" lon="5.11074">
        <ele>335</ele>
        <time>2016-06-30T08:56:06.000Z</time>
      </trkpt>
      <trkpt lat="44.17601" lon="5.11069">
        <ele>335</ele>
        <time>2016-06-30T08:56:07.000Z</time>
      </trkpt>
      <trkpt lat="44.17599" lon="5.11063">
        <ele>336</ele>
        <time>2016-06-30T08:56:08.000Z</time>
      </trkpt>
      <trkpt lat="44.17598" lon="5.11057">
        <ele>336</ele>
        <time>2016-06-30T08:56:09.000Z</time>
      </trkpt>
      <trkpt lat="44.17596" lon="5.11052">
        <ele>336</ele>
        <time>2016-06-30T08:56:10.000Z</time>
      </trkpt>
      <trkpt lat="44.17594" lon="5.11046">
        <ele>337</ele>
        <time>2016-06-30T08:56:11.000Z</time>
      </trkpt>
      <trkpt lat="44.17593" lon="5.11041">
        <ele>337</ele>
        <time>2016-06-30T08:56:12.000Z</time>
      </trkpt>
      <trkpt lat="44.17591" lon="5.11036">
        <ele>338</ele>
        <time>2016-06-30T08:56:13.000Z</time>
      </trkpt>
      <trkpt lat="44.17589" lon="5.1103">
        <ele>338</ele>
        <time>2016-06-30T08:56:14.000Z</time>
      </trkpt>
      <trkpt lat="44.17587" lon="5.11025">
        <ele>338</ele>
        <time>2016-06-30T08:56:15.000Z</time>
      </trkpt>
      <trkpt lat="44.17586" lon="5.1102">
        <ele>338</ele>
        <time>2016-06-30T08:56:16.000Z</time>
      </trkpt>
      <trkpt lat="44.17584" lon="5.11015">
        <ele>339</ele>
        <time>2016-06-30T08:56:17.000Z</time>
      </trkpt>
      <trkpt lat="44.17582" lon="5.1101">
        <ele>339</ele>
        <time>2016-06-30T08:56:18.000Z</time>
      </trkpt>
      <trkpt lat="44.1758" lon="5.11006">
        <ele>339</ele>
        <time>2016-06-30T08:56:19.000Z</time>
      </trkpt>
      <trkpt lat="44.17578" lon="5.11001">
        <ele>340</ele>
        <time>2016-06-30T08:56:20.000Z</time>
      </trkpt>
      <trkpt lat="44.17576" lon="5.10996">
        <ele>340</ele>
        <time>2016-06-30T08:56:21.000Z</time>
      </trkpt>
      <trkpt lat="44.17574" lon="5.10992">
        <ele>340</ele>
        <time>2016-06-30T08:56:22.000Z</time>
      </trkpt>
      <trkpt lat="44.17572" lon="5.10987">
        <ele>341</ele>
        <time>2016-06-30T08:56:23.000Z</time>
      </trkpt>
      <trkpt lat="44.1757" lon="5.10983">
        <ele>341</ele>
        <time>2016-06-30T08:56:24.000Z</time>
      </trkpt>
      <trkpt lat="44.17568" lon="5.10978">
        <ele>342</ele>
        <time>2016-06-30T08:56:25.000Z</time>
      </trkpt>
      <trkpt lat="44.17566" lon="5.10973">
        <ele>342</ele>
        <time>2016-06-30T08:56:26.000Z</time>
      </trkpt>
      <trkpt lat="44.17564" lon="5.10969">
        <ele>342</ele>
        <time>2016-06-30T08:56:27.000Z</time>
      </trkpt>
      <trkpt lat="44.17562" lon="5.10964">
        <ele>343</ele>
        <time>2016-06-30T08:56:28.000Z</time>
      </trkpt>
      <trkpt lat="44.1756" lon="5.10959">
        <ele>343</ele>
        <time>2016-06-30T08:56:29.000Z</time>
      </trkpt>
      <trkpt lat="44.17558" lon="5.10955">
        <ele>344</ele>
        <time>2016-06-30T08:56:30.000Z</time>
      </trkpt>
      <trkpt lat="44.17556" lon="5.1095">
        <ele>345</ele>
        <time>2016-06-30T08:56:31.000Z</time>
      </trkpt>
      <trkpt lat="44.17554" lon="5.10945">
        <ele>345</ele>
        <time>2016-06-30T08:56:32.000Z</time>
      </trkpt>
      <trkpt lat="44.17552" lon="5.1094">
        <ele>346</ele>
        <time>2016-06-30T08:56:33.000Z</time>
      </trkpt>
      <trkpt lat="44.1755" lon="5.10935">
        <ele>346</ele>
        <time>2016-06-30T08:56:34.000Z</time>
      </trkpt>
      <trkpt lat="44.17548" lon="5.10931">
        <ele>346</ele>
        <time>2016-06-30T08:56:35.000Z</time>
      </trkpt>
      <trkpt lat="44.17546" lon="5.10926">
        <ele>347</ele>
        <time>2016-06-30T08:56:36.000Z</time>
      </trkpt>
      <trkpt lat="44.17544" lon="5.10922">
        <ele>347</ele>
        <time>2016-06-30T08:56:37.000Z</time>
      </trkpt>
      <trkpt lat="44.17542" lon="5.10917">
        <ele>347</ele>
        <time>2016-06-30T08:56:38.000Z</time>
      </trkpt>
      <trkpt lat="44.1754" lon="5.10912">
        <ele>348</ele>
        <time>2016-06-30T08:56:39.000Z</time>
      </trkpt>
      <trkpt lat="44.17538" lon="5.10907">
        <ele>348</ele>
        <time>2016-06-30T08:56:40.000Z</time>
      </trkpt>
      <trkpt lat="44.17536" lon="5.10903">
        <ele>348</ele>
        <time>2016-06-30T08:56:41.000Z</time>
      </trkpt>
      <trkpt lat="44.17534" lon="5.10898">
        <ele>348</ele>
        <time>2016-06-30T08:56:42.000Z</time>
      </trkpt>
      <trkpt lat="44.17533" lon="5.10893">
        <ele>348</ele>
        <time>2016-06-30T08:56:43.000Z</time>
      </trkpt>
      <trkpt lat="44.17531" lon="5.10889">
        <ele>348</ele>
        <time>2016-06-30T08:56:44.000Z</time>
      </trkpt>
      <trkpt lat="44.17529" lon="5.10884">
        <ele>349</ele>
        <time>2016-06-30T08:56:45.000Z</time>
      </trkpt>
      <trkpt lat="44.17528" lon="5.1088">
        <ele>349</ele>
        <time>2016-06-30T08:56:46.000Z</time>
      </trkpt>
      <trkpt lat="44.17526" lon="5.10875">
        <ele>349</ele>
        <time>2016-06-30T08:56:47.000Z</time>
      </trkpt>
      <trkpt lat="44.17524" lon="5.10871">
        <ele>349</ele>
        <time>2016-06-30T08:56:48.000Z</time>
      </trkpt>
      <trkpt lat="44.17522" lon="5.10866">
        <ele>349</ele>
        <time>2016-06-30T08:56:49.000Z</time>
      </trkpt>
      <trkpt lat="44.1752" lon="5.10861">
        <ele>350</ele>
        <time>2016-06-30T08:56:50.000Z</time>
      </trkpt>
      <trkpt lat="44.17518" lon="5.10857">
        <ele>350</ele>
        <time>2016-06-30T08:56:51.000Z</time>
      </trkpt>
      <trkpt lat="44.17517" lon="5.10852">
        <ele>350</ele>
        <time>2016-06-30T08:56:52.000Z</time>
      </trkpt>
      <trkpt lat="44.17515" lon="5.10847">
        <ele>350</ele>
        <time>2016-06-30T08:56:53.000Z</time>
      </trkpt>
      <trkpt lat="44.17513" lon="5.10843">
        <ele>351</ele>
        <time>2016-06-30T08:56:54.000Z</time>
      </trkpt>
      <trkpt lat="44.17511" lon="5.10838">
        <ele>351</ele>
        <time>2016-06-30T08:56:55.000Z</time>
      </trkpt>
      <trkpt lat="44.17509" lon="5.10834">
        <ele>351</ele>
        <time>2016-06-30T08:56:56.000Z</time>
      </trkpt>
      <trkpt lat="44.17507" lon="5.1083">
        <ele>351</ele>
        <time>2016-06-30T08:56:57.000Z</time>
      </trkpt>
      <trkpt lat="44.17506" lon="5.10826">
        <ele>352</ele>
        <time>2016-06-30T08:56:58.000Z</time>
      </trkpt>
      <trkpt lat="44.17504" lon="5.10822">
        <ele>352</ele>
        <time>2016-06-30T08:56:59.000Z</time>
      </trkpt>
      <trkpt lat="44.17502" lon="5.10818">
        <ele>352</ele>
        <time>2016-06-30T08:57:00.000Z</time>
      </trkpt>
      <trkpt lat="44.17501" lon="5.10814">
        <ele>353</ele>
        <time>2016-06-30T08:57:01.000Z</time>
      </trkpt>
      <trkpt lat="44.17499" lon="5.1081">
        <ele>353</ele>
        <time>2016-06-30T08:57:02.000Z</time>
      </trkpt>
      <trkpt lat="44.17497" lon="5.10806">
        <ele>353</ele>
        <time>2016-06-30T08:57:03.000Z</time>
      </trkpt>
      <trkpt lat="44.17495" lon="5.10802">
        <ele>353</ele>
        <time>2016-06-30T08:57:04.000Z</time>
      </trkpt>
      <trkpt lat="44.17493" lon="5.10797">
        <ele>354</ele>
        <time>2016-06-30T08:57:05.000Z</time>
      </trkpt>
      <trkpt lat="44.17491" lon="5.10793">
        <ele>354</ele>
        <time>2016-06-30T08:57:06.000Z</time>
      </trkpt>
      <trkpt lat="44.17489" lon="5.10788">
        <ele>354</ele>
        <time>2016-06-30T08:57:07.000Z</time>
      </trkpt>
      <trkpt lat="44.17487" lon="5.10784">
        <ele>355</ele>
        <time>2016-06-30T08:57:08.000Z</time>
      </trkpt>
      <trkpt lat="44.17485" lon="5.10779">
        <ele>355</ele>
        <time>2016-06-30T08:57:09.000Z</time>
      </trkpt>
      <trkpt lat="44.17483" lon="5.10775">
        <ele>356</ele>
        <time>2016-06-30T08:57:10.000Z</time>
      </trkpt>
      <trkpt lat="44.17481" lon="5.1077">
        <ele>356</ele>
        <time>2016-06-30T08:57:11.000Z</time>
      </trkpt>
      <trkpt lat="44.17479" lon="5.10766">
        <ele>356</ele>
        <time>2016-06-30T08:57:12.000Z</time>
      </trkpt>
      <trkpt lat="44.17476" lon="5.10762">
        <ele>357</ele>
        <time>2016-06-30T08:57:13.000Z</time>
      </trkpt>
      <trkpt lat="44.17474" lon="5.10757">
        <ele>357</ele>
        <time>2016-06-30T08:57:14.000Z</time>
      </trkpt>
      <trkpt lat="44.17472" lon="5.10753">
        <ele>357</ele>
        <time>2016-06-30T08:57:15.000Z</time>
      </trkpt>
      <trkpt lat="44.17469" lon="5.10749">
        <ele>358</ele>
        <time>2016-06-30T08:57:16.000Z</time>
      </trkpt>
      <trkpt lat="44.17467" lon="5.10745">
        <ele>358</ele>
        <time>2016-06-30T08:57:17.000Z</time>
      </trkpt>
      <trkpt lat="44.17464" lon="5.10741">
        <ele>358</ele>
        <time>2016-06-30T08:57:18.000Z</time>
      </trkpt>
      <trkpt lat="44.17461" lon="5.10738">
        <ele>358</ele>
        <time>2016-06-30T08:57:19.000Z</time>
      </trkpt>
      <trkpt lat="44.17458" lon="5.10735">
        <ele>359</ele>
        <time>2016-06-30T08:57:20.000Z</time>
      </trkpt>
      <trkpt lat="44.17455" lon="5.10732">
        <ele>359</ele>
        <time>2016-06-30T08:57:21.000Z</time>
      </trkpt>
      <trkpt lat="44.17451" lon="5.10729">
        <ele>360</ele>
        <time>2016-06-30T08:57:22.000Z</time>
      </trkpt>
      <trkpt lat="44.17448" lon="5.10726">
        <ele>360</ele>
        <time>2016-06-30T08:57:23.000Z</time>
      </trkpt>
      <trkpt lat="44.17445" lon="5.10723">
        <ele>360</ele>
        <time>2016-06-30T08:57:24.000Z</time>
      </trkpt>
      <trkpt lat="44.17442" lon="5.1072">
        <ele>361</ele>
        <time>2016-06-30T08:57:25.000Z</time>
      </trkpt>
      <trkpt lat="44.17439" lon="5.10717">
        <ele>361</ele>
        <time>2016-06-30T08:57:26.000Z</time>
      </trkpt>
      <trkpt lat="44.17435" lon="5.10714">
        <ele>361</ele>
        <time>2016-06-30T08:57:27.000Z</time>
      </trkpt>
      <trkpt lat="44.17432" lon="5.10711">
        <ele>362</ele>
        <time>2016-06-30T08:57:28.000Z</time>
      </trkpt>
      <trkpt lat="44.17429" lon="5.10709">
        <ele>362</ele>
        <time>2016-06-30T08:57:29.000Z</time>
      </trkpt>
      <trkpt lat="44.17426" lon="5.10706">
        <ele>363</ele>
        <time>2016-06-30T08:57:30.000Z</time>
      </trkpt>
      <trkpt lat="44.17422" lon="5.10703">
        <ele>363</ele>
        <time>2016-06-30T08:57:31.000Z</time>
      </trkpt>
      <trkpt lat="44.17419" lon="5.107">
        <ele>363</ele>
        <time>2016-06-30T08:57:32.000Z</time>
      </trkpt>
      <trkpt lat="44.17416" lon="5.10697">
        <ele>364</ele>
        <time>2016-06-30T08:57:33.000Z</time>
      </trkpt>
      <trkpt lat="44.17412" lon="5.10694">
        <ele>364</ele>
        <time>2016-06-30T08:57:34.000Z</time>
      </trkpt>
      <trkpt lat="44.17409" lon="5.10691">
        <ele>365</ele>
        <time>2016-06-30T08:57:35.000Z</time>
      </trkpt>
      <trkpt lat="44.17405" lon="5.10688">
        <ele>365</ele>
        <time>2016-06-30T08:57:36.000Z</time>
      </trkpt>
      <trkpt lat="44.17402" lon="5.10685">
        <ele>365</ele>
        <time>2016-06-30T08:57:37.000Z</time>
      </trkpt>
      <trkpt lat="44.17398" lon="5.10682">
        <ele>366</ele>
        <time>2016-06-30T08:57:38.000Z</time>
      </trkpt>
      <trkpt lat="44.17394" lon="5.10679">
        <ele>366</ele>
        <time>2016-06-30T08:57:39.000Z</time>
      </trkpt>
      <trkpt lat="44.1739" lon="5.10675">
        <ele>366</ele>
        <time>2016-06-30T08:57:40.000Z</time>
      </trkpt>
      <trkpt lat="44.17386" lon="5.10672">
        <ele>367</ele>
        <time>2016-06-30T08:57:41.000Z</time>
      </trkpt>
      <trkpt lat="44.17383" lon="5.10669">
        <ele>367</ele>
        <time>2016-06-30T08:57:42.000Z</time>
      </trkpt>
      <trkpt lat="44.1738" lon="5.10667">
        <ele>368</ele>
        <time>2016-06-30T08:57:43.000Z</time>
      </trkpt>
      <trkpt lat="44.17376" lon="5.10664">
        <ele>368</ele>
        <time>2016-06-30T08:57:44.000Z</time>
      </trkpt>
      <trkpt lat="44.17373" lon="5.10661">
        <ele>368</ele>
        <time>2016-06-30T08:57:45.000Z</time>
      </trkpt>
      <trkpt lat="44.17369" lon="5.10658">
        <ele>368</ele>
        <time>2016-06-30T08:57:46.000Z</time>
      </trkpt>
      <trkpt lat="44.17366" lon="5.10655">
        <ele>369</ele>
        <time>2016-06-30T08:57:47.000Z</time>
      </trkpt>
      <trkpt lat="44.17362" lon="5.10652">
        <ele>369</ele>
        <time>2016-06-30T08:57:48.000Z</time>
      </trkpt>
      <trkpt lat="44.17359" lon="5.10649">
        <ele>369</ele>
        <time>2016-06-30T08:57:49.000Z</time>
      </trkpt>
      <trkpt lat="44.17356" lon="5.10646">
        <ele>370</ele>
        <time>2016-06-30T08:57:50.000Z</time>
      </trkpt>
      <trkpt lat="44.17352" lon="5.10643">
        <ele>370</ele>
        <time>2016-06-30T08:57:51.000Z</time>
      </trkpt>
      <trkpt lat="44.17349" lon="5.1064">
        <ele>371</ele>
        <time>2016-06-30T08:57:52.000Z</time>
      </trkpt>
      <trkpt lat="44.17346" lon="5.10637">
        <ele>371</ele>
        <time>2016-06-30T08:57:53.000Z</time>
      </trkpt>
      <trkpt lat="44.17343" lon="5.10634">
        <ele>371</ele>
        <time>2016-06-30T08:57:54.000Z</time>
      </trkpt>
      <trkpt lat="44.17339" lon="5.10632">
        <ele>372</ele>
        <time>2016-06-30T08:57:55.000Z</time>
      </trkpt>
      <trkpt lat="44.17336" lon="5.10629">
        <ele>372</ele>
        <time>2016-06-30T08:57:56.000Z</time>
      </trkpt>
      <trkpt lat="44.17333" lon="5.10627">
        <ele>373</ele>
        <time>2016-06-30T08:57:57.000Z</time>
      </trkpt>
      <trkpt lat="44.17329" lon="5.10625">
        <ele>373</ele>
        <time>2016-06-30T08:57:58.000Z</time>
      </trkpt>
      <trkpt lat="44.17326" lon="5.10623">
        <ele>374</ele>
        <time>2016-06-30T08:57:59.000Z</time>
      </trkpt>
      <trkpt lat="44.17322" lon="5.10621">
        <ele>374</ele>
        <time>2016-06-30T08:58:00.000Z</time>
      </trkpt>
      <trkpt lat="44.17319" lon="5.1062">
        <ele>374</ele>
        <time>2016-06-30T08:58:01.000Z</time>
      </trkpt>
      <trkpt lat="44.17315" lon="5.1062">
        <ele>375</ele>
        <time>2016-06-30T08:58:02.000Z</time>
      </trkpt>
      <trkpt lat="44.17311" lon="5.1062">
        <ele>375</ele>
        <time>2016-06-30T08:58:03.000Z</time>
      </trkpt>
      <trkpt lat="44.17307" lon="5.10621">
        <ele>375</ele>
        <time>2016-06-30T08:58:04.000Z</time>
      </trkpt>
      <trkpt lat="44.17304" lon="5.10621">
        <ele>376</ele>
        <time>2016-06-30T08:58:05.000Z</time>
      </trkpt>
      <trkpt lat="44.173" lon="5.10622">
        <ele>376</ele>
        <time>2016-06-30T08:58:06.000Z</time>
      </trkpt>
      <trkpt lat="44.17296" lon="5.10623">
        <ele>376</ele>
        <time>2016-06-30T08:58:07.000Z</time>
      </trkpt>
      <trkpt lat="44.17293" lon="5.10625">
        <ele>376</ele>
        <time>2016-06-30T08:58:08.000Z</time>
      </trkpt>
      <trkpt lat="44.17289" lon="5.10627">
        <ele>377</ele>
        <time>2016-06-30T08:58:09.000Z</time>
      </trkpt>
      <trkpt lat="44.17285" lon="5.10629">
        <ele>377</ele>
        <time>2016-06-30T08:58:10.000Z</time>
      </trkpt>
      <trkpt lat="44.17282" lon="5.10631">
        <ele>377</ele>
        <time>2016-06-30T08:58:11.000Z</time>
      </trkpt>
      <trkpt lat="44.17278" lon="5.10633">
        <ele>377</ele>
        <time>2016-06-30T08:58:12.000Z</time>
      </trkpt>
      <trkpt lat="44.17275" lon="5.10636">
        <ele>378</ele>
        <time>2016-06-30T08:58:13.000Z</time>
      </trkpt>
      <trkpt lat="44.17272" lon="5.10639">
        <ele>378</ele>
        <time>2016-06-30T08:58:14.000Z</time>
      </trkpt>
      <trkpt lat="44.17268" lon="5.10641">
        <ele>378</ele>
        <time>2016-06-30T08:58:15.000Z</time>
      </trkpt>
      <trkpt lat="44.17265" lon="5.10644">
        <ele>378</ele>
        <time>2016-06-30T08:58:16.000Z</time>
      </trkpt>
      <trkpt lat="44.17261" lon="5.10646">
        <ele>379</ele>
        <time>2016-06-30T08:58:17.000Z</time>
      </trkpt>
      <trkpt lat="44.17258" lon="5.10649">
        <ele>379</ele>
        <time>2016-06-30T08:58:18.000Z</time>
      </trkpt>
      <trkpt lat="44.17255" lon="5.10651">
        <ele>379</ele>
        <time>2016-06-30T08:58:19.000Z</time>
      </trkpt>
      <trkpt lat="44.17251" lon="5.10654">
        <ele>379</ele>
        <time>2016-06-30T08:58:20.000Z</time>
      </trkpt>
      <trkpt lat="44.17248" lon="5.10656">
        <ele>380</ele>
        <time>2016-06-30T08:58:21.000Z</time>
      </trkpt>
      <trkpt lat="44.17244" lon="5.10658">
        <ele>380</ele>
        <time>2016-06-30T08:58:22.000Z</time>
      </trkpt>
      <trkpt lat="44.1724" lon="5.10659">
        <ele>380</ele>
        <time>2016-06-30T08:58:23.000Z</time>
      </trkpt>
      <trkpt lat="44.17236" lon="5.10659">
        <ele>381</ele>
        <time>2016-06-30T08:58:24.000Z</time>
      </trkpt>
      <trkpt lat="44.17233" lon="5.10658">
        <ele>381</ele>
        <time>2016-06-30T08:58:25.000Z</time>
      </trkpt>
      <trkpt lat="44.17229" lon="5.10656">
        <ele>382</ele>
        <time>2016-06-30T08:58:26.000Z</time>
      </trkpt>
      <trkpt lat="44.17227" lon="5.10652">
        <ele>382</ele>
        <time>2016-06-30T08:58:27.000Z</time>
      </trkpt>
      <trkpt lat="44.17224" lon="5.10647">
        <ele>381</ele>
        <time>2016-06-30T08:58:28.000Z</time>
      </trkpt>
      <trkpt lat="44.17222" lon="5.10642">
        <ele>381</ele>
        <time>2016-06-30T08:58:29.000Z</time>
      </trkpt>
      <trkpt lat="44.17221" lon="5.10636">
        <ele>383</ele>
        <time>2016-06-30T08:58:30.000Z</time>
      </trkpt>
      <trkpt lat="44.17222" lon="5.10631">
        <ele>384</ele>
        <time>2016-06-30T08:58:31.000Z</time>
      </trkpt>
      <trkpt lat="44.17223" lon="5.10626">
        <ele>384</ele>
        <time>2016-06-30T08:58:32.000Z</time>
      </trkpt>
      <trkpt lat="44.17225" lon="5.1062">
        <ele>385</ele>
        <time>2016-06-30T08:58:33.000Z</time>
      </trkpt>
      <trkpt lat="44.17227" lon="5.10615">
        <ele>385</ele>
        <time>2016-06-30T08:58:34.000Z</time>
      </trkpt>
      <trkpt lat="44.17229" lon="5.1061">
        <ele>385</ele>
        <time>2016-06-30T08:58:35.000Z</time>
      </trkpt>
      <trkpt lat="44.17232" lon="5.10604">
        <ele>386</ele>
        <time>2016-06-30T08:58:36.000Z</time>
      </trkpt>
      <trkpt lat="44.17235" lon="5.10599">
        <ele>386</ele>
        <time>2016-06-30T08:58:37.000Z</time>
      </trkpt>
      <trkpt lat="44.17238" lon="5.10595">
        <ele>387</ele>
        <time>2016-06-30T08:58:38.000Z</time>
      </trkpt>
      <trkpt lat="44.1724" lon="5.1059">
        <ele>387</ele>
        <time>2016-06-30T08:58:39.000Z</time>
      </trkpt>
      <trkpt lat="44.17243" lon="5.10585">
        <ele>387</ele>
        <time>2016-06-30T08:58:40.000Z</time>
      </trkpt>
      <trkpt lat="44.17245" lon="5.1058">
        <ele>387</ele>
        <time>2016-06-30T08:58:41.000Z</time>
      </trkpt>
      <trkpt lat="44.17247" lon="5.10575">
        <ele>388</ele>
        <time>2016-06-30T08:58:42.000Z</time>
      </trkpt>
      <trkpt lat="44.1725" lon="5.1057">
        <ele>388</ele>
        <time>2016-06-30T08:58:43.000Z</time>
      </trkpt>
      <trkpt lat="44.17252" lon="5.10565">
        <ele>388</ele>
        <time>2016-06-30T08:58:44.000Z</time>
      </trkpt>
      <trkpt lat="44.17254" lon="5.1056">
        <ele>389</ele>
        <time>2016-06-30T08:58:45.000Z</time>
      </trkpt>
      <trkpt lat="44.17257" lon="5.10556">
        <ele>389</ele>
        <time>2016-06-30T08:58:46.000Z</time>
      </trkpt>
      <trkpt lat="44.17259" lon="5.10551">
        <ele>389</ele>
        <time>2016-06-30T08:58:47.000Z</time>
      </trkpt>
      <trkpt lat="44.17262" lon="5.10546">
        <ele>390</ele>
        <time>2016-06-30T08:58:48.000Z</time>
      </trkpt>
      <trkpt lat="44.17264" lon="5.10541">
        <ele>390</ele>
        <time>2016-06-30T08:58:49.000Z</time>
      </trkpt>
      <trkpt lat="44.17267" lon="5.10537">
        <ele>391</ele>
        <time>2016-06-30T08:58:50.000Z</time>
      </trkpt>
      <trkpt lat="44.17269" lon="5.10532">
        <ele>392</ele>
        <time>2016-06-30T08:58:51.000Z</time>
      </trkpt>
      <trkpt lat="44.17272" lon="5.10527">
        <ele>392</ele>
        <time>2016-06-30T08:58:52.000Z</time>
      </trkpt>
      <trkpt lat="44.17274" lon="5.10522">
        <ele>392</ele>
        <time>2016-06-30T08:58:53.000Z</time>
      </trkpt>
      <trkpt lat="44.17276" lon="5.10517">
        <ele>392</ele>
        <time>2016-06-30T08:58:54.000Z</time>
      </trkpt>
      <trkpt lat="44.17279" lon="5.10512">
        <ele>393</ele>
        <time>2016-06-30T08:58:55.000Z</time>
      </trkpt>
      <trkpt lat="44.1728" lon="5.10507">
        <ele>393</ele>
        <time>2016-06-30T08:58:56.000Z</time>
      </trkpt>
      <trkpt lat="44.17282" lon="5.10501">
        <ele>393</ele>
        <time>2016-06-30T08:58:57.000Z</time>
      </trkpt>
      <trkpt lat="44.17282" lon="5.10495">
        <ele>393</ele>
        <time>2016-06-30T08:58:58.000Z</time>
      </trkpt>
      <trkpt lat="44.17283" lon="5.1049">
        <ele>394</ele>
        <time>2016-06-30T08:58:59.000Z</time>
      </trkpt>
      <trkpt lat="44.17282" lon="5.10484">
        <ele>394</ele>
        <time>2016-06-30T08:59:00.000Z</time>
      </trkpt>
      <trkpt lat="44.17281" lon="5.10478">
        <ele>396</ele>
        <time>2016-06-30T08:59:01.000Z</time>
      </trkpt>
      <trkpt lat="44.1728" lon="5.10472">
        <ele>396</ele>
        <time>2016-06-30T08:59:02.000Z</time>
      </trkpt>
      <trkpt lat="44.17278" lon="5.10467">
        <ele>396</ele>
        <time>2016-06-30T08:59:03.000Z</time>
      </trkpt>
      <trkpt lat="44.17276" lon="5.10462">
        <ele>397</ele>
        <time>2016-06-30T08:59:04.000Z</time>
      </trkpt>
      <trkpt lat="44.17273" lon="5.10457">
        <ele>396</ele>
        <time>2016-06-30T08:59:05.000Z</time>
      </trkpt>
      <trkpt lat="44.17271" lon="5.10452">
        <ele>396</ele>
        <time>2016-06-30T08:59:06.000Z</time>
      </trkpt>
      <trkpt lat="44.17268" lon="5.10449">
        <ele>396</ele>
        <time>2016-06-30T08:59:07.000Z</time>
      </trkpt>
      <trkpt lat="44.17265" lon="5.10445">
        <ele>397</ele>
        <time>2016-06-30T08:59:08.000Z</time>
      </trkpt>
      <trkpt lat="44.17262" lon="5.10441">
        <ele>397</ele>
        <time>2016-06-30T08:59:09.000Z</time>
      </trkpt>
      <trkpt lat="44.17259" lon="5.10437">
        <ele>397</ele>
        <time>2016-06-30T08:59:10.000Z</time>
      </trkpt>
      <trkpt lat="44.17256" lon="5.10434">
        <ele>397</ele>
        <time>2016-06-30T08:59:11.000Z</time>
      </trkpt>
      <trkpt lat="44.17253" lon="5.1043">
        <ele>398</ele>
        <time>2016-06-30T08:59:12.000Z</time>
      </trkpt>
      <trkpt lat="44.1725" lon="5.10426">
        <ele>399</ele>
        <time>2016-06-30T08:59:13.000Z</time>
      </trkpt>
      <trkpt lat="44.17248" lon="5.10421">
        <ele>399</ele>
        <time>2016-06-30T08:59:14.000Z</time>
      </trkpt>
      <trkpt lat="44.17246" lon="5.10417">
        <ele>400</ele>
        <time>2016-06-30T08:59:15.000Z</time>
      </trkpt>
      <trkpt lat="44.17245" lon="5.10412">
        <ele>400</ele>
        <time>2016-06-30T08:59:16.000Z</time>
      </trkpt>
      <trkpt lat="44.17245" lon="5.10407">
        <ele>401</ele>
        <time>2016-06-30T08:59:17.000Z</time>
      </trkpt>
      <trkpt lat="44.17246" lon="5.10402">
        <ele>402</ele>
        <time>2016-06-30T08:59:18.000Z</time>
      </trkpt>
      <trkpt lat="44.17249" lon="5.10398">
        <ele>404</ele>
        <time>2016-06-30T08:59:19.000Z</time>
      </trkpt>
      <trkpt lat="44.17253" lon="5.10395">
        <ele>405</ele>
        <time>2016-06-30T08:59:20.000Z</time>
      </trkpt>
      <trkpt lat="44.17258" lon="5.10394">
        <ele>406</ele>
        <time>2016-06-30T08:59:21.000Z</time>
      </trkpt>
      <trkpt lat="44.17262" lon="5.10394">
        <ele>407</ele>
        <time>2016-06-30T08:59:22.000Z</time>
      </trkpt>
      <trkpt lat="44.17266" lon="5.10395">
        <ele>406</ele>
        <time>2016-06-30T08:59:23.000Z</time>
      </trkpt>
      <trkpt lat="44.17271" lon="5.10397">
        <ele>404</ele>
        <time>2016-06-30T08:59:24.000Z</time>
      </trkpt>
      <trkpt lat="44.17276" lon="5.104">
        <ele>403</ele>
        <time>2016-06-30T08:59:25.000Z</time>
      </trkpt>
      <trkpt lat="44.17281" lon="5.10403">
        <ele>403</ele>
        <time>2016-06-30T08:59:26.000Z</time>
      </trkpt>
      <trkpt lat="44.17285" lon="5.10406">
        <ele>403</ele>
        <time>2016-06-30T08:59:27.000Z</time>
      </trkpt>
      <trkpt lat="44.1729" lon="5.10408">
        <ele>403</ele>
        <time>2016-06-30T08:59:28.000Z</time>
      </trkpt>
      <trkpt lat="44.17294" lon="5.10409">
        <ele>404</ele>
        <time>2016-06-30T08:59:29.000Z</time>
      </trkpt>
      <trkpt lat="44.17299" lon="5.1041">
        <ele>404</ele>
        <time>2016-06-30T08:59:30.000Z</time>
      </trkpt>
      <trkpt lat="44.17304" lon="5.10409">
        <ele>404</ele>
        <time>2016-06-30T08:59:31.000Z</time>
      </trkpt>
      <trkpt lat="44.17308" lon="5.10408">
        <ele>404</ele>
        <time>2016-06-30T08:59:32.000Z</time>
      </trkpt>
      <trkpt lat="44.17313" lon="5.10406">
        <ele>404</ele>
        <time>2016-06-30T08:59:33.000Z</time>
      </trkpt>
      <trkpt lat="44.17317" lon="5.10404">
        <ele>405</ele>
        <time>2016-06-30T08:59:34.000Z</time>
      </trkpt>
      <trkpt lat="44.17321" lon="5.10401">
        <ele>405</ele>
        <time>2016-06-30T08:59:35.000Z</time>
      </trkpt>
      <trkpt lat="44.17325" lon="5.10398">
        <ele>405</ele>
        <time>2016-06-30T08:59:36.000Z</time>
      </trkpt>
      <trkpt lat="44.17329" lon="5.10395">
        <ele>405</ele>
        <time>2016-06-30T08:59:37.000Z</time>
      </trkpt>
      <trkpt lat="44.17332" lon="5.10391">
        <ele>406</ele>
        <time>2016-06-30T08:59:38.000Z</time>
      </trkpt>
      <trkpt lat="44.17335" lon="5.10388">
        <ele>406</ele>
        <time>2016-06-30T08:59:39.000Z</time>
      </trkpt>
      <trkpt lat="44.17337" lon="5.10383">
        <ele>406</ele>
        <time>2016-06-30T08:59:40.000Z</time>
      </trkpt>
      <trkpt lat="44.1734" lon="5.10379">
        <ele>407</ele>
        <time>2016-06-30T08:59:41.000Z</time>
      </trkpt>
      <trkpt lat="44.17342" lon="5.10374">
        <ele>407</ele>
        <time>2016-06-30T08:59:42.000Z</time>
      </trkpt>
      <trkpt lat="44.17344" lon="5.10369">
        <ele>407</ele>
        <time>2016-06-30T08:59:43.000Z</time>
      </trkpt>
      <trkpt lat="44.17346" lon="5.10364">
        <ele>408</ele>
        <time>2016-06-30T08:59:44.000Z</time>
      </trkpt>
      <trkpt lat="44.17347" lon="5.10358">
        <ele>408</ele>
        <time>2016-06-30T08:59:45.000Z</time>
      </trkpt>
      <trkpt lat="44.17348" lon="5.10353">
        <ele>409</ele>
        <time>2016-06-30T08:59:46.000Z</time>
      </trkpt>
      <trkpt lat="44.17349" lon="5.10347">
        <ele>409</ele>
        <time>2016-06-30T08:59:47.000Z</time>
      </trkpt>
      <trkpt lat="44.17349" lon="5.10341">
        <ele>410</ele>
        <time>2016-06-30T08:59:48.000Z</time>
      </trkpt>
      <trkpt lat="44.17349" lon="5.10335">
        <ele>410</ele>
        <time>2016-06-30T08:59:49.000Z</time>
      </trkpt>
      <trkpt lat="44.17348" lon="5.1033">
        <ele>410</ele>
        <time>2016-06-30T08:59:50.000Z</time>
      </trkpt>
      <trkpt lat="44.17347" lon="5.10324">
        <ele>411</ele>
        <time>2016-06-30T08:59:51.000Z</time>
      </trkpt>
      <trkpt lat="44.17346" lon="5.10319">
        <ele>411</ele>
        <time>2016-06-30T08:59:52.000Z</time>
      </trkpt>
      <trkpt lat="44.17344" lon="5.10314">
        <ele>411</ele>
        <time>2016-06-30T08:59:53.000Z</time>
      </trkpt>
      <trkpt lat="44.17342" lon="5.10308">
        <ele>412</ele>
        <time>2016-06-30T08:59:54.000Z</time>
      </trkpt>
      <trkpt lat="44.1734" lon="5.10303">
        <ele>412</ele>
        <time>2016-06-30T08:59:55.000Z</time>
      </trkpt>
      <trkpt lat="44.17338" lon="5.10299">
        <ele>412</ele>
        <time>2016-06-30T08:59:56.000Z</time>
      </trkpt>
      <trkpt lat="44.17336" lon="5.10294">
        <ele>412</ele>
        <time>2016-06-30T08:59:57.000Z</time>
      </trkpt>
      <trkpt lat="44.17333" lon="5.10289">
        <ele>412</ele>
        <time>2016-06-30T08:59:58.000Z</time>
      </trkpt>
      <trkpt lat="44.17331" lon="5.10284">
        <ele>413</ele>
        <time>2016-06-30T08:59:59.000Z</time>
      </trkpt>
      <trkpt lat="44.17329" lon="5.1028">
        <ele>413</ele>
        <time>2016-06-30T09:00:00.000Z</time>
      </trkpt>
      <trkpt lat="44.17327" lon="5.10275">
        <ele>413</ele>
        <time>2016-06-30T09:00:01.000Z</time>
      </trkpt>
      <trkpt lat="44.17325" lon="5.1027">
        <ele>414</ele>
        <time>2016-06-30T09:00:02.000Z</time>
      </trkpt>
      <trkpt lat="44.17322" lon="5.10266">
        <ele>414</ele>
        <time>2016-06-30T09:00:03.000Z</time>
      </trkpt>
      <trkpt lat="44.1732" lon="5.10261">
        <ele>414</ele>
        <time>2016-06-30T09:00:04.000Z</time>
      </trkpt>
      <trkpt lat="44.17318" lon="5.10257">
        <ele>415</ele>
        <time>2016-06-30T09:00:05.000Z</time>
      </trkpt>
      <trkpt lat="44.17315" lon="5.10252">
        <ele>415</ele>
        <time>2016-06-30T09:00:06.000Z</time>
      </trkpt>
      <trkpt lat="44.17313" lon="5.10247">
        <ele>415</ele>
        <time>2016-06-30T09:00:07.000Z</time>
      </trkpt>
      <trkpt lat="44.17311" lon="5.10242">
        <ele>415</ele>
        <time>2016-06-30T09:00:08.000Z</time>
      </trkpt>
      <trkpt lat="44.17308" lon="5.10238">
        <ele>416</ele>
        <time>2016-06-30T09:00:09.000Z</time>
      </trkpt>
      <trkpt lat="44.17306" lon="5.10233">
        <ele>416</ele>
        <time>2016-06-30T09:00:10.000Z</time>
      </trkpt>
      <trkpt lat="44.17304" lon="5.10228">
        <ele>417</ele>
        <time>2016-06-30T09:00:11.000Z</time>
      </trkpt>
      <trkpt lat="44.17301" lon="5.10223">
        <ele>417</ele>
        <time>2016-06-30T09:00:12.000Z</time>
      </trkpt>
      <trkpt lat="44.17299" lon="5.10219">
        <ele>417</ele>
        <time>2016-06-30T09:00:13.000Z</time>
      </trkpt>
      <trkpt lat="44.17296" lon="5.10214">
        <ele>417</ele>
        <time>2016-06-30T09:00:14.000Z</time>
      </trkpt>
      <trkpt lat="44.17294" lon="5.10209">
        <ele>418</ele>
        <time>2016-06-30T09:00:15.000Z</time>
      </trkpt>
      <trkpt lat="44.17292" lon="5.10204">
        <ele>418</ele>
        <time>2016-06-30T09:00:16.000Z</time>
      </trkpt>
      <trkpt lat="44.17289" lon="5.102">
        <ele>418</ele>
        <time>2016-06-30T09:00:17.000Z</time>
      </trkpt>
      <trkpt lat="44.17287" lon="5.10195">
        <ele>419</ele>
        <time>2016-06-30T09:00:18.000Z</time>
      </trkpt>
      <trkpt lat="44.17285" lon="5.1019">
        <ele>419</ele>
        <time>2016-06-30T09:00:19.000Z</time>
      </trkpt>
      <trkpt lat="44.17284" lon="5.10185">
        <ele>419</ele>
        <time>2016-06-30T09:00:20.000Z</time>
      </trkpt>
      <trkpt lat="44.17283" lon="5.10179">
        <ele>419</ele>
        <time>2016-06-30T09:00:21.000Z</time>
      </trkpt>
      <trkpt lat="44.17283" lon="5.10173">
        <ele>419</ele>
        <time>2016-06-30T09:00:22.000Z</time>
      </trkpt>
      <trkpt lat="44.17284" lon="5.10167">
        <ele>419</ele>
        <time>2016-06-30T09:00:23.000Z</time>
      </trkpt>
      <trkpt lat="44.17286" lon="5.10161">
        <ele>420</ele>
        <time>2016-06-30T09:00:24.000Z</time>
      </trkpt>
      <trkpt lat="44.17288" lon="5.10155">
        <ele>420</ele>
        <time>2016-06-30T09:00:25.000Z</time>
      </trkpt>
      <trkpt lat="44.17291" lon="5.1015">
        <ele>421</ele>
        <time>2016-06-30T09:00:26.000Z</time>
      </trkpt>
      <trkpt lat="44.17294" lon="5.10146">
        <ele>422</ele>
        <time>2016-06-30T09:00:27.000Z</time>
      </trkpt>
      <trkpt lat="44.17298" lon="5.10142">
        <ele>422</ele>
        <time>2016-06-30T09:00:28.000Z</time>
      </trkpt>
      <trkpt lat="44.17302" lon="5.10138">
        <ele>422</ele>
        <time>2016-06-30T09:00:29.000Z</time>
      </trkpt>
      <trkpt lat="44.17306" lon="5.10135">
        <ele>422</ele>
        <time>2016-06-30T09:00:30.000Z</time>
      </trkpt>
      <trkpt lat="44.1731" lon="5.10132">
        <ele>422</ele>
        <time>2016-06-30T09:00:31.000Z</time>
      </trkpt>
      <trkpt lat="44.17314" lon="5.10129">
        <ele>422</ele>
        <time>2016-06-30T09:00:32.000Z</time>
      </trkpt>
      <trkpt lat="44.17318" lon="5.10127">
        <ele>423</ele>
        <time>2016-06-30T09:00:33.000Z</time>
      </trkpt>
      <trkpt lat="44.17322" lon="5.10124">
        <ele>423</ele>
        <time>2016-06-30T09:00:34.000Z</time>
      </trkpt>
      <trkpt lat="44.17326" lon="5.10122">
        <ele>423</ele>
        <time>2016-06-30T09:00:35.000Z</time>
      </trkpt>
      <trkpt lat="44.1733" lon="5.10119">
        <ele>423</ele>
        <time>2016-06-30T09:00:36.000Z</time>
      </trkpt>
      <trkpt lat="44.17334" lon="5.10116">
        <ele>424</ele>
        <time>2016-06-30T09:00:37.000Z</time>
      </trkpt>
      <trkpt lat="44.17337" lon="5.10113">
        <ele>424</ele>
        <time>2016-06-30T09:00:38.000Z</time>
      </trkpt>
      <trkpt lat="44.17341" lon="5.1011">
        <ele>424</ele>
        <time>2016-06-30T09:00:39.000Z</time>
      </trkpt>
      <trkpt lat="44.17344" lon="5.10107">
        <ele>425</ele>
        <time>2016-06-30T09:00:40.000Z</time>
      </trkpt>
      <trkpt lat="44.17348" lon="5.10104">
        <ele>425</ele>
        <time>2016-06-30T09:00:41.000Z</time>
      </trkpt>
      <trkpt lat="44.17351" lon="5.101">
        <ele>425</ele>
        <time>2016-06-30T09:00:42.000Z</time>
      </trkpt>
      <trkpt lat="44.17355" lon="5.10097">
        <ele>425</ele>
        <time>2016-06-30T09:00:43.000Z</time>
      </trkpt>
      <trkpt lat="44.17358" lon="5.10093">
        <ele>426</ele>
        <time>2016-06-30T09:00:44.000Z</time>
      </trkpt>
      <trkpt lat="44.17361" lon="5.10089">
        <ele>426</ele>
        <time>2016-06-30T09:00:45.000Z</time>
      </trkpt>
      <trkpt lat="44.17364" lon="5.10085">
        <ele>426</ele>
        <time>2016-06-30T09:00:46.000Z</time>
      </trkpt>
      <trkpt lat="44.17367" lon="5.10082">
        <ele>426</ele>
        <time>2016-06-30T09:00:47.000Z</time>
      </trkpt>
      <trkpt lat="44.1737" lon="5.10078">
        <ele>426</ele>
        <time>2016-06-30T09:00:48.000Z</time>
      </trkpt>
      <trkpt lat="44.17374" lon="5.10074">
        <ele>427</ele>
        <time>2016-06-30T09:00:49.000Z</time>
      </trkpt>
      <trkpt lat="44.17377" lon="5.1007">
        <ele>427</ele>
        <time>2016-06-30T09:00:50.000Z</time>
      </trkpt>
      <trkpt lat="44.1738" lon="5.10066">
        <ele>427</ele>
        <time>2016-06-30T09:00:51.000Z</time>
      </trkpt>
      <trkpt lat="44.17383" lon="5.10062">
        <ele>428</ele>
        <time>2016-06-30T09:00:52.000Z</time>
      </trkpt>
      <trkpt lat="44.17386" lon="5.10059">
        <ele>428</ele>
        <time>2016-06-30T09:00:53.000Z</time>
      </trkpt>
      <trkpt lat="44.17389" lon="5.10055">
        <ele>428</ele>
        <time>2016-06-30T09:00:54.000Z</time>
      </trkpt>
      <trkpt lat="44.17392" lon="5.10051">
        <ele>428</ele>
        <time>2016-06-30T09:00:55.000Z</time>
      </trkpt>
      <trkpt lat="44.17395" lon="5.10048">
        <ele>428</ele>
        <time>2016-06-30T09:00:56.000Z</time>
      </trkpt>
      <trkpt lat="44.17398" lon="5.10044">
        <ele>429</ele>
        <time>2016-06-30T09:00:57.000Z</time>
      </trkpt>
      <trkpt lat="44.17401" lon="5.1004">
        <ele>429</ele>
        <time>2016-06-30T09:00:58.000Z</time>
      </trkpt>
      <trkpt lat="44.17405" lon="5.10036">
        <ele>429</ele>
        <time>2016-06-30T09:00:59.000Z</time>
      </trkpt>
      <trkpt lat="44.17408" lon="5.10032">
        <ele>430</ele>
        <time>2016-06-30T09:01:00.000Z</time>
      </trkpt>
      <trkpt lat="44.17411" lon="5.10028">
        <ele>430</ele>
        <time>2016-06-30T09:01:01.000Z</time>
      </trkpt>
      <trkpt lat="44.17414" lon="5.10025">
        <ele>430</ele>
        <time>2016-06-30T09:01:02.000Z</time>
      </trkpt>
      <trkpt lat="44.17417" lon="5.10021">
        <ele>430</ele>
        <time>2016-06-30T09:01:03.000Z</time>
      </trkpt>
      <trkpt lat="44.1742" lon="5.10017">
        <ele>431</ele>
        <time>2016-06-30T09:01:04.000Z</time>
      </trkpt>
      <trkpt lat="44.17423" lon="5.10013">
        <ele>431</ele>
        <time>2016-06-30T09:01:05.000Z</time>
      </trkpt>
      <trkpt lat="44.17426" lon="5.1001">
        <ele>431</ele>
        <time>2016-06-30T09:01:06.000Z</time>
      </trkpt>
      <trkpt lat="44.17429" lon="5.10006">
        <ele>432</ele>
        <time>2016-06-30T09:01:07.000Z</time>
      </trkpt>
      <trkpt lat="44.17433" lon="5.10002">
        <ele>432</ele>
        <time>2016-06-30T09:01:08.000Z</time>
      </trkpt>
      <trkpt lat="44.17436" lon="5.09998">
        <ele>432</ele>
        <time>2016-06-30T09:01:09.000Z</time>
      </trkpt>
      <trkpt lat="44.17439" lon="5.09994">
        <ele>432</ele>
        <time>2016-06-30T09:01:10.000Z</time>
      </trkpt>
      <trkpt lat="44.17442" lon="5.0999">
        <ele>433</ele>
        <time>2016-06-30T09:01:11.000Z</time>
      </trkpt>
      <trkpt lat="44.17445" lon="5.09986">
        <ele>433</ele>
        <time>2016-06-30T09:01:12.000Z</time>
      </trkpt>
      <trkpt lat="44.17448" lon="5.09982">
        <ele>433</ele>
        <time>2016-06-30T09:01:13.000Z</time>
      </trkpt>
      <trkpt lat="44.17451" lon="5.09979">
        <ele>433</ele>
        <time>2016-06-30T09:01:14.000Z</time>
      </trkpt>
      <trkpt lat="44.17454" lon="5.09975">
        <ele>433</ele>
        <time>2016-06-30T09:01:15.000Z</time>
      </trkpt>
      <trkpt lat="44.17457" lon="5.09972">
        <ele>434</ele>
        <time>2016-06-30T09:01:16.000Z</time>
      </trkpt>
      <trkpt lat="44.17461" lon="5.09968">
        <ele>434</ele>
        <time>2016-06-30T09:01:17.000Z</time>
      </trkpt>
      <trkpt lat="44.17464" lon="5.09965">
        <ele>434</ele>
        <time>2016-06-30T09:01:18.000Z</time>
      </trkpt>
      <trkpt lat="44.17468" lon="5.09962">
        <ele>435</ele>
        <time>2016-06-30T09:01:19.000Z</time>
      </trkpt>
      <trkpt lat="44.17471" lon="5.09959">
        <ele>435</ele>
        <time>2016-06-30T09:01:20.000Z</time>
      </trkpt>
      <trkpt lat="44.17475" lon="5.09957">
        <ele>435</ele>
        <time>2016-06-30T09:01:21.000Z</time>
      </trkpt>
      <trkpt lat="44.17479" lon="5.09954">
        <ele>436</ele>
        <time>2016-06-30T09:01:22.000Z</time>
      </trkpt>
      <trkpt lat="44.17482" lon="5.09951">
        <ele>436</ele>
        <time>2016-06-30T09:01:23.000Z</time>
      </trkpt>
      <trkpt lat="44.17486" lon="5.09948">
        <ele>436</ele>
        <time>2016-06-30T09:01:24.000Z</time>
      </trkpt>
      <trkpt lat="44.1749" lon="5.09945">
        <ele>437</ele>
        <time>2016-06-30T09:01:25.000Z</time>
      </trkpt>
      <trkpt lat="44.17494" lon="5.09942">
        <ele>437</ele>
        <time>2016-06-30T09:01:26.000Z</time>
      </trkpt>
      <trkpt lat="44.17497" lon="5.09939">
        <ele>437</ele>
        <time>2016-06-30T09:01:27.000Z</time>
      </trkpt>
      <trkpt lat="44.17501" lon="5.09936">
        <ele>438</ele>
        <time>2016-06-30T09:01:28.000Z</time>
      </trkpt>
      <trkpt lat="44.17505" lon="5.09933">
        <ele>438</ele>
        <time>2016-06-30T09:01:29.000Z</time>
      </trkpt>
      <trkpt lat="44.17509" lon="5.0993">
        <ele>438</ele>
        <time>2016-06-30T09:01:30.000Z</time>
      </trkpt>
      <trkpt lat="44.17512" lon="5.09927">
        <ele>439</ele>
        <time>2016-06-30T09:01:31.000Z</time>
      </trkpt>
      <trkpt lat="44.17516" lon="5.09924">
        <ele>439</ele>
        <time>2016-06-30T09:01:32.000Z</time>
      </trkpt>
      <trkpt lat="44.1752" lon="5.0992">
        <ele>439</ele>
        <time>2016-06-30T09:01:33.000Z</time>
      </trkpt>
      <trkpt lat="44.17523" lon="5.09917">
        <ele>440</ele>
        <time>2016-06-30T09:01:34.000Z</time>
      </trkpt>
      <trkpt lat="44.17527" lon="5.09914">
        <ele>440</ele>
        <time>2016-06-30T09:01:35.000Z</time>
      </trkpt>
      <trkpt lat="44.1753" lon="5.09911">
        <ele>440</ele>
        <time>2016-06-30T09:01:36.000Z</time>
      </trkpt>
      <trkpt lat="44.17534" lon="5.09909">
        <ele>440</ele>
        <time>2016-06-30T09:01:37.000Z</time>
      </trkpt>
      <trkpt lat="44.17537" lon="5.09906">
        <ele>441</ele>
        <time>2016-06-30T09:01:38.000Z</time>
      </trkpt>
      <trkpt lat="44.17541" lon="5.09903">
        <ele>441</ele>
        <time>2016-06-30T09:01:39.000Z</time>
      </trkpt>
      <trkpt lat="44.17544" lon="5.099">
        <ele>441</ele>
        <time>2016-06-30T09:01:40.000Z</time>
      </trkpt>
      <trkpt lat="44.17548" lon="5.09897">
        <ele>441</ele>
        <time>2016-06-30T09:01:41.000Z</time>
      </trkpt>
      <trkpt lat="44.17552" lon="5.09894">
        <ele>442</ele>
        <time>2016-06-30T09:01:42.000Z</time>
      </trkpt>
      <trkpt lat="44.17556" lon="5.09891">
        <ele>442</ele>
        <time>2016-06-30T09:01:43.000Z</time>
      </trkpt>
      <trkpt lat="44.17559" lon="5.09888">
        <ele>442</ele>
        <time>2016-06-30T09:01:44.000Z</time>
      </trkpt>
      <trkpt lat="44.17563" lon="5.09885">
        <ele>443</ele>
        <time>2016-06-30T09:01:45.000Z</time>
      </trkpt>
      <trkpt lat="44.17567" lon="5.09883">
        <ele>443</ele>
        <time>2016-06-30T09:01:46.000Z</time>
      </trkpt>
      <trkpt lat="44.17571" lon="5.0988">
        <ele>443</ele>
        <time>2016-06-30T09:01:47.000Z</time>
      </trkpt>
      <trkpt lat="44.17575" lon="5.09877">
        <ele>444</ele>
        <time>2016-06-30T09:01:48.000Z</time>
      </trkpt>
      <trkpt lat="44.17579" lon="5.09875">
        <ele>444</ele>
        <time>2016-06-30T09:01:49.000Z</time>
      </trkpt>
      <trkpt lat="44.17583" lon="5.09873">
        <ele>444</ele>
        <time>2016-06-30T09:01:50.000Z</time>
      </trkpt>
      <trkpt lat="44.17586" lon="5.0987">
        <ele>444</ele>
        <time>2016-06-30T09:01:51.000Z</time>
      </trkpt>
      <trkpt lat="44.17589" lon="5.09868">
        <ele>445</ele>
        <time>2016-06-30T09:01:52.000Z</time>
      </trkpt>
      <trkpt lat="44.17593" lon="5.09866">
        <ele>445</ele>
        <time>2016-06-30T09:01:53.000Z</time>
      </trkpt>
      <trkpt lat="44.17596" lon="5.09864">
        <ele>445</ele>
        <time>2016-06-30T09:01:54.000Z</time>
      </trkpt>
      <trkpt lat="44.176" lon="5.09862">
        <ele>446</ele>
        <time>2016-06-30T09:01:55.000Z</time>
      </trkpt>
      <trkpt lat="44.17603" lon="5.0986">
        <ele>446</ele>
        <time>2016-06-30T09:01:56.000Z</time>
      </trkpt>
      <trkpt lat="44.17607" lon="5.09859">
        <ele>446</ele>
        <time>2016-06-30T09:01:57.000Z</time>
      </trkpt>
      <trkpt lat="44.17611" lon="5.09857">
        <ele>447</ele>
        <time>2016-06-30T09:01:58.000Z</time>
      </trkpt>
      <trkpt lat="44.17614" lon="5.09855">
        <ele>447</ele>
        <time>2016-06-30T09:01:59.000Z</time>
      </trkpt>
      <trkpt lat="44.17618" lon="5.09853">
        <ele>447</ele>
        <time>2016-06-30T09:02:00.000Z</time>
      </trkpt>
      <trkpt lat="44.17623" lon="5.09851">
        <ele>448</ele>
        <time>2016-06-30T09:02:01.000Z</time>
      </trkpt>
      <trkpt lat="44.17627" lon="5.09849">
        <ele>448</ele>
        <time>2016-06-30T09:02:02.000Z</time>
      </trkpt>
      <trkpt lat="44.17631" lon="5.09847">
        <ele>449</ele>
        <time>2016-06-30T09:02:03.000Z</time>
      </trkpt>
      <trkpt lat="44.17636" lon="5.09845">
        <ele>449</ele>
        <time>2016-06-30T09:02:04.000Z</time>
      </trkpt>
      <trkpt lat="44.1764" lon="5.09843">
        <ele>449</ele>
        <time>2016-06-30T09:02:05.000Z</time>
      </trkpt>
      <trkpt lat="44.17645" lon="5.0984">
        <ele>450</ele>
        <time>2016-06-30T09:02:06.000Z</time>
      </trkpt>
      <trkpt lat="44.1765" lon="5.09838">
        <ele>450</ele>
        <time>2016-06-30T09:02:07.000Z</time>
      </trkpt>
      <trkpt lat="44.17655" lon="5.09836">
        <ele>450</ele>
        <time>2016-06-30T09:02:08.000Z</time>
      </trkpt>
      <trkpt lat="44.1766" lon="5.09833">
        <ele>451</ele>
        <time>2016-06-30T09:02:09.000Z</time>
      </trkpt>
      <trkpt lat="44.17665" lon="5.09831">
        <ele>451</ele>
        <time>2016-06-30T09:02:10.000Z</time>
      </trkpt>
      <trkpt lat="44.1767" lon="5.09829">
        <ele>451</ele>
        <time>2016-06-30T09:02:11.000Z</time>
      </trkpt>
      <trkpt lat="44.17674" lon="5.09827">
        <ele>452</ele>
        <time>2016-06-30T09:02:12.000Z</time>
      </trkpt>
      <trkpt lat="44.17679" lon="5.09825">
        <ele>452</ele>
        <time>2016-06-30T09:02:13.000Z</time>
      </trkpt>
      <trkpt lat="44.17684" lon="5.09823">
        <ele>452</ele>
        <time>2016-06-30T09:02:14.000Z</time>
      </trkpt>
      <trkpt lat="44.17688" lon="5.09821">
        <ele>453</ele>
        <time>2016-06-30T09:02:15.000Z</time>
      </trkpt>
      <trkpt lat="44.17693" lon="5.09819">
        <ele>453</ele>
        <time>2016-06-30T09:02:16.000Z</time>
      </trkpt>
      <trkpt lat="44.17697" lon="5.09818">
        <ele>453</ele>
        <time>2016-06-30T09:02:17.000Z</time>
      </trkpt>
      <trkpt lat="44.17702" lon="5.09817">
        <ele>453</ele>
        <time>2016-06-30T09:02:18.000Z</time>
      </trkpt>
      <trkpt lat="44.17706" lon="5.09816">
        <ele>454</ele>
        <time>2016-06-30T09:02:19.000Z</time>
      </trkpt>
      <trkpt lat="44.1771" lon="5.09816">
        <ele>454</ele>
        <time>2016-06-30T09:02:20.000Z</time>
      </trkpt>
      <trkpt lat="44.17715" lon="5.09815">
        <ele>454</ele>
        <time>2016-06-30T09:02:21.000Z</time>
      </trkpt>
      <trkpt lat="44.17719" lon="5.09815">
        <ele>455</ele>
        <time>2016-06-30T09:02:22.000Z</time>
      </trkpt>
      <trkpt lat="44.17723" lon="5.09815">
        <ele>455</ele>
        <time>2016-06-30T09:02:23.000Z</time>
      </trkpt>
      <trkpt lat="44.17728" lon="5.09815">
        <ele>455</ele>
        <time>2016-06-30T09:02:24.000Z</time>
      </trkpt>
      <trkpt lat="44.17732" lon="5.09815">
        <ele>456</ele>
        <time>2016-06-30T09:02:25.000Z</time>
      </trkpt>
      <trkpt lat="44.17736" lon="5.09816">
        <ele>456</ele>
        <time>2016-06-30T09:02:26.000Z</time>
      </trkpt>
      <trkpt lat="44.1774" lon="5.09817">
        <ele>457</ele>
        <time>2016-06-30T09:02:27.000Z</time>
      </trkpt>
      <trkpt lat="44.17745" lon="5.09818">
        <ele>457</ele>
        <time>2016-06-30T09:02:28.000Z</time>
      </trkpt>
      <trkpt lat="44.17749" lon="5.0982">
        <ele>458</ele>
        <time>2016-06-30T09:02:29.000Z</time>
      </trkpt>
      <trkpt lat="44.17753" lon="5.09822">
        <ele>458</ele>
        <time>2016-06-30T09:02:30.000Z</time>
      </trkpt>
      <trkpt lat="44.17757" lon="5.09824">
        <ele>458</ele>
        <time>2016-06-30T09:02:31.000Z</time>
      </trkpt>
      <trkpt lat="44.17761" lon="5.09826">
        <ele>459</ele>
        <time>2016-06-30T09:02:32.000Z</time>
      </trkpt>
      <trkpt lat="44.17765" lon="5.09829">
        <ele>459</ele>
        <time>2016-06-30T09:02:33.000Z</time>
      </trkpt>
      <trkpt lat="44.17769" lon="5.09831">
        <ele>460</ele>
        <time>2016-06-30T09:02:34.000Z</time>
      </trkpt>
      <trkpt lat="44.17773" lon="5.09833">
        <ele>460</ele>
        <time>2016-06-30T09:02:35.000Z</time>
      </trkpt>
      <trkpt lat="44.17777" lon="5.09835">
        <ele>461</ele>
        <time>2016-06-30T09:02:36.000Z</time>
      </trkpt>
      <trkpt lat="44.17781" lon="5.09837">
        <ele>461</ele>
        <time>2016-06-30T09:02:37.000Z</time>
      </trkpt>
      <trkpt lat="44.17785" lon="5.09839">
        <ele>461</ele>
        <time>2016-06-30T09:02:38.000Z</time>
      </trkpt>
      <trkpt lat="44.17789" lon="5.0984">
        <ele>462</ele>
        <time>2016-06-30T09:02:39.000Z</time>
      </trkpt>
      <trkpt lat="44.17793" lon="5.09841">
        <ele>462</ele>
        <time>2016-06-30T09:02:40.000Z</time>
      </trkpt>
      <trkpt lat="44.17797" lon="5.09842">
        <ele>462</ele>
        <time>2016-06-30T09:02:41.000Z</time>
      </trkpt>
      <trkpt lat="44.17801" lon="5.09842">
        <ele>463</ele>
        <time>2016-06-30T09:02:42.000Z</time>
      </trkpt>
      <trkpt lat="44.17804" lon="5.09842">
        <ele>463</ele>
        <time>2016-06-30T09:02:43.000Z</time>
      </trkpt>
      <trkpt lat="44.17808" lon="5.09841">
        <ele>463</ele>
        <time>2016-06-30T09:02:44.000Z</time>
      </trkpt>
      <trkpt lat="44.17812" lon="5.0984">
        <ele>463</ele>
        <time>2016-06-30T09:02:45.000Z</time>
      </trkpt>
      <trkpt lat="44.17816" lon="5.09838">
        <ele>463</ele>
        <time>2016-06-30T09:02:46.000Z</time>
      </trkpt>
      <trkpt lat="44.1782" lon="5.09837">
        <ele>464</ele>
        <time>2016-06-30T09:02:47.000Z</time>
      </trkpt>
      <trkpt lat="44.17824" lon="5.09835">
        <ele>464</ele>
        <time>2016-06-30T09:02:48.000Z</time>
      </trkpt>
      <trkpt lat="44.17828" lon="5.09833">
        <ele>464</ele>
        <time>2016-06-30T09:02:49.000Z</time>
      </trkpt>
      <trkpt lat="44.17832" lon="5.09831">
        <ele>465</ele>
        <time>2016-06-30T09:02:50.000Z</time>
      </trkpt>
      <trkpt lat="44.17836" lon="5.09829">
        <ele>465</ele>
        <time>2016-06-30T09:02:51.000Z</time>
      </trkpt>
      <trkpt lat="44.1784" lon="5.09826">
        <ele>465</ele>
        <time>2016-06-30T09:02:52.000Z</time>
      </trkpt>
      <trkpt lat="44.17844" lon="5.09824">
        <ele>466</ele>
        <time>2016-06-30T09:02:53.000Z</time>
      </trkpt>
      <trkpt lat="44.17847" lon="5.09821">
        <ele>466</ele>
        <time>2016-06-30T09:02:54.000Z</time>
      </trkpt>
      <trkpt lat="44.17851" lon="5.09819">
        <ele>466</ele>
        <time>2016-06-30T09:02:55.000Z</time>
      </trkpt>
      <trkpt lat="44.17855" lon="5.09816">
        <ele>467</ele>
        <time>2016-06-30T09:02:56.000Z</time>
      </trkpt>
      <trkpt lat="44.17859" lon="5.09813">
        <ele>467</ele>
        <time>2016-06-30T09:02:57.000Z</time>
      </trkpt>
      <trkpt lat="44.17862" lon="5.0981">
        <ele>467</ele>
        <time>2016-06-30T09:02:58.000Z</time>
      </trkpt>
      <trkpt lat="44.17866" lon="5.09807">
        <ele>467</ele>
        <time>2016-06-30T09:02:59.000Z</time>
      </trkpt>
      <trkpt lat="44.1787" lon="5.09805">
        <ele>468</ele>
        <time>2016-06-30T09:03:00.000Z</time>
      </trkpt>
      <trkpt lat="44.17873" lon="5.09802">
        <ele>468</ele>
        <time>2016-06-30T09:03:01.000Z</time>
      </trkpt>
      <trkpt lat="44.17877" lon="5.09799">
        <ele>468</ele>
        <time>2016-06-30T09:03:02.000Z</time>
      </trkpt>
      <trkpt lat="44.1788" lon="5.09796">
        <ele>468</ele>
        <time>2016-06-30T09:03:03.000Z</time>
      </trkpt>
      <trkpt lat="44.17883" lon="5.09792">
        <ele>469</ele>
        <time>2016-06-30T09:03:04.000Z</time>
      </trkpt>
      <trkpt lat="44.17887" lon="5.09789">
        <ele>469</ele>
        <time>2016-06-30T09:03:05.000Z</time>
      </trkpt>
      <trkpt lat="44.1789" lon="5.09785">
        <ele>469</ele>
        <time>2016-06-30T09:03:06.000Z</time>
      </trkpt>
      <trkpt lat="44.17893" lon="5.09782">
        <ele>469</ele>
        <time>2016-06-30T09:03:07.000Z</time>
      </trkpt>
      <trkpt lat="44.17896" lon="5.09778">
        <ele>470</ele>
        <time>2016-06-30T09:03:08.000Z</time>
      </trkpt>
      <trkpt lat="44.17899" lon="5.09774">
        <ele>470</ele>
        <time>2016-06-30T09:03:09.000Z</time>
      </trkpt>
      <trkpt lat="44.17902" lon="5.0977">
        <ele>470</ele>
        <time>2016-06-30T09:03:10.000Z</time>
      </trkpt>
      <trkpt lat="44.17905" lon="5.09765">
        <ele>470</ele>
        <time>2016-06-30T09:03:11.000Z</time>
      </trkpt>
      <trkpt lat="44.17907" lon="5.09761">
        <ele>471</ele>
        <time>2016-06-30T09:03:12.000Z</time>
      </trkpt>
      <trkpt lat="44.17909" lon="5.09756">
        <ele>471</ele>
        <time>2016-06-30T09:03:13.000Z</time>
      </trkpt>
      <trkpt lat="44.17911" lon="5.09752">
        <ele>470</ele>
        <time>2016-06-30T09:03:14.000Z</time>
      </trkpt>
      <trkpt lat="44.17913" lon="5.09747">
        <ele>470</ele>
        <time>2016-06-30T09:03:15.000Z</time>
      </trkpt>
      <trkpt lat="44.17915" lon="5.09742">
        <ele>470</ele>
        <time>2016-06-30T09:03:16.000Z</time>
      </trkpt>
      <trkpt lat="44.17917" lon="5.09736">
        <ele>470</ele>
        <time>2016-06-30T09:03:17.000Z</time>
      </trkpt>
      <trkpt lat="44.17918" lon="5.09731">
        <ele>470</ele>
        <time>2016-06-30T09:03:18.000Z</time>
      </trkpt>
      <trkpt lat="44.17919" lon="5.09726">
        <ele>471</ele>
        <time>2016-06-30T09:03:19.000Z</time>
      </trkpt>
      <trkpt lat="44.1792" lon="5.0972">
        <ele>471</ele>
        <time>2016-06-30T09:03:20.000Z</time>
      </trkpt>
      <trkpt lat="44.17921" lon="5.09715">
        <ele>471</ele>
        <time>2016-06-30T09:03:21.000Z</time>
      </trkpt>
      <trkpt lat="44.17922" lon="5.0971">
        <ele>471</ele>
        <time>2016-06-30T09:03:22.000Z</time>
      </trkpt>
      <trkpt lat="44.17923" lon="5.09705">
        <ele>472</ele>
        <time>2016-06-30T09:03:23.000Z</time>
      </trkpt>
      <trkpt lat="44.17924" lon="5.09699">
        <ele>472</ele>
        <time>2016-06-30T09:03:24.000Z</time>
      </trkpt>
      <trkpt lat="44.17925" lon="5.09694">
        <ele>472</ele>
        <time>2016-06-30T09:03:25.000Z</time>
      </trkpt>
      <trkpt lat="44.17926" lon="5.09689">
        <ele>473</ele>
        <time>2016-06-30T09:03:26.000Z</time>
      </trkpt>
      <trkpt lat="44.17927" lon="5.09685">
        <ele>473</ele>
        <time>2016-06-30T09:03:27.000Z</time>
      </trkpt>
      <trkpt lat="44.17928" lon="5.0968">
        <ele>473</ele>
        <time>2016-06-30T09:03:28.000Z</time>
      </trkpt>
      <trkpt lat="44.17929" lon="5.09676">
        <ele>473</ele>
        <time>2016-06-30T09:03:29.000Z</time>
      </trkpt>
      <trkpt lat="44.17931" lon="5.09672">
        <ele>473</ele>
        <time>2016-06-30T09:03:30.000Z</time>
      </trkpt>
      <trkpt lat="44.17932" lon="5.09667">
        <ele>473</ele>
        <time>2016-06-30T09:03:31.000Z</time>
      </trkpt>
      <trkpt lat="44.17933" lon="5.09663">
        <ele>473</ele>
        <time>2016-06-30T09:03:32.000Z</time>
      </trkpt>
      <trkpt lat="44.17933" lon="5.09659">
        <ele>474</ele>
        <time>2016-06-30T09:03:33.000Z</time>
      </trkpt>
      <trkpt lat="44.17933" lon="5.09656">
        <ele>474</ele>
        <time>2016-06-30T09:03:34.000Z</time>
      </trkpt>
      <trkpt lat="44.17932" lon="5.09654">
        <ele>474</ele>
        <time>2016-06-30T09:03:35.000Z</time>
      </trkpt>
      <trkpt lat="44.17932" lon="5.09653">
        <ele>474</ele>
        <time>2016-06-30T09:03:36.000Z</time>
      </trkpt>
      <trkpt lat="44.17932" lon="5.09652">
        <ele>474</ele>
        <time>2016-06-30T09:03:37.000Z</time>
      </trkpt>
      <trkpt lat="44.17932" lon="5.09651">
        <ele>474</ele>
        <time>2016-06-30T09:03:38.000Z</time>
      </trkpt>
      <trkpt lat="44.17932" lon="5.0965">
        <ele>474</ele>
        <time>2016-06-30T09:03:39.000Z</time>
      </trkpt>
      <trkpt lat="44.17932" lon="5.09649">
        <ele>474</ele>
        <time>2016-06-30T09:03:40.000Z</time>
      </trkpt>
      <trkpt lat="44.17932" lon="5.09649">
        <ele>474</ele>
        <time>2016-06-30T09:03:41.000Z</time>
      </trkpt>
      <trkpt lat="44.17932" lon="5.09648">
        <ele>474</ele>
        <time>2016-06-30T09:03:42.000Z</time>
      </trkpt>
      <trkpt lat="44.17932" lon="5.09648">
        <ele>474</ele>
        <time>2016-06-30T09:03:43.000Z</time>
      </trkpt>
      <trkpt lat="44.17932" lon="5.09648">
        <ele>474</ele>
        <time>2016-06-30T09:03:44.000Z</time>
      </trkpt>
      <trkpt lat="44.17932" lon="5.09648">
        <ele>474</ele>
        <time>2016-06-30T09:03:45.000Z</time>
      </trkpt>
      <trkpt lat="44.17931" lon="5.09648">
        <ele>474</ele>
        <time>2016-06-30T09:03:46.000Z</time>
      </trkpt>
      <trkpt lat="44.17931" lon="5.09649">
        <ele>474</ele>
        <time>2016-06-30T09:03:47.000Z</time>
      </trkpt>
      <trkpt lat="44.17931" lon="5.09649">
        <ele>474</ele>
        <time>2016-06-30T09:03:48.000Z</time>
      </trkpt>
      <trkpt lat="44.17931" lon="5.09649">
        <ele>475</ele>
        <time>2016-06-30T09:03:49.000Z</time>
      </trkpt>
      <trkpt lat="44.1793" lon="5.09649">
        <ele>475</ele>
        <time>2016-06-30T09:03:50.000Z</time>
      </trkpt>
      <trkpt lat="44.1793" lon="5.09648">
        <ele>475</ele>
        <time>2016-06-30T09:03:51.000Z</time>
      </trkpt>
      <trkpt lat="44.1793" lon="5.09648">
        <ele>475</ele>
        <time>2016-06-30T09:03:52.000Z</time>
      </trkpt>
      <trkpt lat="44.1793" lon="5.09648">
        <ele>475</ele>
        <time>2016-06-30T09:03:53.000Z</time>
      </trkpt>
      <trkpt lat="44.1793" lon="5.09648">
        <ele>475</ele>
        <time>2016-06-30T09:03:54.000Z</time>
      </trkpt>
      <trkpt lat="44.1793" lon="5.09648">
        <ele>474</ele>
        <time>2016-06-30T09:03:55.000Z</time>
      </trkpt>
      <trkpt lat="44.1793" lon="5.09648">
        <ele>475</ele>
        <time>2016-06-30T09:03:56.000Z</time>
      </trkpt>
      <trkpt lat="44.1793" lon="5.09648">
        <ele>475</ele>
        <time>2016-06-30T09:03:57.000Z</time>
      </trkpt>
      <trkpt lat="44.17931" lon="5.09649">
        <ele>475</ele>
        <time>2016-06-30T09:03:58.000Z</time>
      </trkpt>
      <trkpt lat="44.17931" lon="5.09649">
        <ele>474</ele>
        <time>2016-06-30T09:03:59.000Z</time>
      </trkpt>
      <trkpt lat="44.17932" lon="5.09648">
        <ele>475</ele>
        <time>2016-06-30T09:04:00.000Z</time>
      </trkpt>
      <trkpt lat="44.17932" lon="5.09648">
        <ele>475</ele>
        <time>2016-06-30T09:04:01.000Z</time>
      </trkpt>
      <trkpt lat="44.17931" lon="5.09648">
        <ele>475</ele>
        <time>2016-06-30T09:04:02.000Z</time>
      </trkpt>
      <trkpt lat="44.17931" lon="5.09648">
        <ele>475</ele>
        <time>2016-06-30T09:04:03.000Z</time>
      </trkpt>
      <trkpt lat="44.17931" lon="5.09649">
        <ele>475</ele>
        <time>2016-06-30T09:04:04.000Z</time>
      </trkpt>
      <trkpt lat="44.17931" lon="5.09649">
        <ele>475</ele>
        <time>2016-06-30T09:04:05.000Z</time>
      </trkpt>
      <trkpt lat="44.17931" lon="5.09649">
        <ele>476</ele>
        <time>2016-06-30T09:04:06.000Z</time>
      </trkpt>
      <trkpt lat="44.17931" lon="5.09649">
        <ele>476</ele>
        <time>2016-06-30T09:04:07.000Z</time>
      </trkpt>
      <trkpt lat="44.17931" lon="5.09649">
        <ele>476</ele>
        <time>2016-06-30T09:04:08.000Z</time>
      </trkpt>
      <trkpt lat="44.17931" lon="5.09649">
        <ele>476</ele>
        <time>2016-06-30T09:04:09.000Z</time>
      </trkpt>
      <trkpt lat="44.17931" lon="5.09649">
        <ele>476</ele>
        <time>2016-06-30T09:04:10.000Z</time>
      </trkpt>
      <trkpt lat="44.17931" lon="5.09649">
        <ele>477</ele>
        <time>2016-06-30T09:04:11.000Z</time>
      </trkpt>
      <trkpt lat="44.17931" lon="5.09649">
        <ele>476</ele>
        <time>2016-06-30T09:04:12.000Z</time>
      </trkpt>
      <trkpt lat="44.17931" lon="5.09648">
        <ele>477</ele>
        <time>2016-06-30T09:04:13.000Z</time>
      </trkpt>
      <trkpt lat="44.1793" lon="5.09648">
        <ele>477</ele>
        <time>2016-06-30T09:04:14.000Z</time>
      </trkpt>
      <trkpt lat="44.1793" lon="5.09648">
        <ele>477</ele>
        <time>2016-06-30T09:04:15.000Z</time>
      </trkpt>
      <trkpt lat="44.1793" lon="5.09648">
        <ele>477</ele>
        <time>2016-06-30T09:04:16.000Z</time>
      </trkpt>
      <trkpt lat="44.1793" lon="5.09648">
        <ele>476</ele>
        <time>2016-06-30T09:04:17.000Z</time>
      </trkpt>
      <trkpt lat="44.1793" lon="5.09648">
        <ele>476</ele>
        <time>2016-06-30T09:04:18.000Z</time>
      </trkpt>
      <trkpt lat="44.1793" lon="5.09648">
        <ele>476</ele>
        <time>2016-06-30T09:04:19.000Z</time>
      </trkpt>
      <trkpt lat="44.1793" lon="5.09648">
        <ele>476</ele>
        <time>2016-06-30T09:04:20.000Z</time>
      </trkpt>
      <trkpt lat="44.1793" lon="5.09648">
        <ele>476</ele>
        <time>2016-06-30T09:04:21.000Z</time>
      </trkpt>
      <trkpt lat="44.17929" lon="5.09648">
        <ele>477</ele>
        <time>2016-06-30T09:04:22.000Z</time>
      </trkpt>
      <trkpt lat="44.17929" lon="5.09648">
        <ele>476</ele>
        <time>2016-06-30T09:04:23.000Z</time>
      </trkpt>
      <trkpt lat="44.17929" lon="5.09648">
        <ele>476</ele>
        <time>2016-06-30T09:04:24.000Z</time>
      </trkpt>
      <trkpt lat="44.1793" lon="5.09647">
        <ele>476</ele>
        <time>2016-06-30T09:04:25.000Z</time>
      </trkpt>
      <trkpt lat="44.1793" lon="5.09647">
        <ele>476</ele>
        <time>2016-06-30T09:04:26.000Z</time>
      </trkpt>
      <trkpt lat="44.1793" lon="5.09647">
        <ele>476</ele>
        <time>2016-06-30T09:04:27.000Z</time>
      </trkpt>
      <trkpt lat="44.1793" lon="5.09647">
        <ele>476</ele>
        <time>2016-06-30T09:04:28.000Z</time>
      </trkpt>
      <trkpt lat="44.1793" lon="5.09647">
        <ele>476</ele>
        <time>2016-06-30T09:04:29.000Z</time>
      </trkpt>
      <trkpt lat="44.1793" lon="5.09647">
        <ele>476</ele>
        <time>2016-06-30T09:04:30.000Z</time>
      </trkpt>
      <trkpt lat="44.1793" lon="5.09647">
        <ele>476</ele>
        <time>2016-06-30T09:04:31.000Z</time>
      </trkpt>
      <trkpt lat="44.1793" lon="5.09646">
        <ele>476</ele>
        <time>2016-06-30T09:04:32.000Z</time>
      </trkpt>
      <trkpt lat="44.1793" lon="5.09646">
        <ele>476</ele>
        <time>2016-06-30T09:04:33.000Z</time>
      </trkpt>
      <trkpt lat="44.1793" lon="5.09647">
        <ele>476</ele>
        <time>2016-06-30T09:04:34.000Z</time>
      </trkpt>
      <trkpt lat="44.1793" lon="5.09647">
        <ele>476</ele>
        <time>2016-06-30T09:04:35.000Z</time>
      </trkpt>
      <trkpt lat="44.1793" lon="5.09647">
        <ele>475</ele>
        <time>2016-06-30T09:04:36.000Z</time>
      </trkpt>
      <trkpt lat="44.1793" lon="5.09647">
        <ele>475</ele>
        <time>2016-06-30T09:04:37.000Z</time>
      </trkpt>
      <trkpt lat="44.1793" lon="5.09647">
        <ele>476</ele>
        <time>2016-06-30T09:04:38.000Z</time>
      </trkpt>
      <trkpt lat="44.1793" lon="5.09647">
        <ele>476</ele>
        <time>2016-06-30T09:04:39.000Z</time>
      </trkpt>
      <trkpt lat="44.1793" lon="5.09646">
        <ele>476</ele>
        <time>2016-06-30T09:04:40.000Z</time>
      </trkpt>
      <trkpt lat="44.1793" lon="5.09646">
        <ele>475</ele>
        <time>2016-06-30T09:04:41.000Z</time>
      </trkpt>
      <trkpt lat="44.1793" lon="5.09646">
        <ele>475</ele>
        <time>2016-06-30T09:04:42.000Z</time>
      </trkpt>
      <trkpt lat="44.1793" lon="5.09645">
        <ele>476</ele>
        <time>2016-06-30T09:04:43.000Z</time>
      </trkpt>
      <trkpt lat="44.1793" lon="5.09645">
        <ele>475</ele>
        <time>2016-06-30T09:04:44.000Z</time>
      </trkpt>
      <trkpt lat="44.17931" lon="5.09645">
        <ele>475</ele>
        <time>2016-06-30T09:04:45.000Z</time>
      </trkpt>
      <trkpt lat="44.17931" lon="5.09645">
        <ele>476</ele>
        <time>2016-06-30T09:04:46.000Z</time>
      </trkpt>
      <trkpt lat="44.17931" lon="5.09645">
        <ele>476</ele>
        <time>2016-06-30T09:04:47.000Z</time>
      </trkpt>
      <trkpt lat="44.17931" lon="5.09645">
        <ele>476</ele>
        <time>2016-06-30T09:04:48.000Z</time>
      </trkpt>
      <trkpt lat="44.17931" lon="5.09645">
        <ele>476</ele>
        <time>2016-06-30T09:04:49.000Z</time>
      </trkpt>
      <trkpt lat="44.17931" lon="5.09645">
        <ele>475</ele>
        <time>2016-06-30T09:04:50.000Z</time>
      </trkpt>
      <trkpt lat="44.17931" lon="5.09645">
        <ele>475</ele>
        <time>2016-06-30T09:04:51.000Z</time>
      </trkpt>
      <trkpt lat="44.17931" lon="5.09645">
        <ele>475</ele>
        <time>2016-06-30T09:04:52.000Z</time>
      </trkpt>
      <trkpt lat="44.17931" lon="5.09645">
        <ele>475</ele>
        <time>2016-06-30T09:04:53.000Z</time>
      </trkpt>
      <trkpt lat="44.17931" lon="5.09644">
        <ele>475</ele>
        <time>2016-06-30T09:04:54.000Z</time>
      </trkpt>
      <trkpt lat="44.17931" lon="5.09645">
        <ele>475</ele>
        <time>2016-06-30T09:04:55.000Z</time>
      </trkpt>
      <trkpt lat="44.17931" lon="5.09645">
        <ele>475</ele>
        <time>2016-06-30T09:04:56.000Z</time>
      </trkpt>
      <trkpt lat="44.17931" lon="5.09645">
        <ele>475</ele>
        <time>2016-06-30T09:04:57.000Z</time>
      </trkpt>
      <trkpt lat="44.17931" lon="5.09645">
        <ele>474</ele>
        <time>2016-06-30T09:04:58.000Z</time>
      </trkpt>
      <trkpt lat="44.17931" lon="5.09644">
        <ele>474</ele>
        <time>2016-06-30T09:04:59.000Z</time>
      </trkpt>
      <trkpt lat="44.17931" lon="5.09643">
        <ele>474</ele>
        <time>2016-06-30T09:05:00.000Z</time>
      </trkpt>
      <trkpt lat="44.17931" lon="5.09642">
        <ele>473</ele>
        <time>2016-06-30T09:05:01.000Z</time>
      </trkpt>
      <trkpt lat="44.1793" lon="5.0964">
        <ele>473</ele>
        <time>2016-06-30T09:05:02.000Z</time>
      </trkpt>
      <trkpt lat="44.1793" lon="5.09639">
        <ele>473</ele>
        <time>2016-06-30T09:05:03.000Z</time>
      </trkpt>
      <trkpt lat="44.1793" lon="5.09638">
        <ele>473</ele>
        <time>2016-06-30T09:05:04.000Z</time>
      </trkpt>
      <trkpt lat="44.1793" lon="5.09637">
        <ele>473</ele>
        <time>2016-06-30T09:05:05.000Z</time>
      </trkpt>
      <trkpt lat="44.1793" lon="5.09636">
        <ele>473</ele>
        <time>2016-06-30T09:05:06.000Z</time>
      </trkpt>
      <trkpt lat="44.1793" lon="5.09635">
        <ele>473</ele>
        <time>2016-06-30T09:05:07.000Z</time>
      </trkpt>
      <trkpt lat="44.1793" lon="5.09635">
        <ele>473</ele>
        <time>2016-06-30T09:05:08.000Z</time>
      </trkpt>
      <trkpt lat="44.1793" lon="5.09635">
        <ele>473</ele>
        <time>2016-06-30T09:05:09.000Z</time>
      </trkpt>
      <trkpt lat="44.1793" lon="5.09635">
        <ele>473</ele>
        <time>2016-06-30T09:05:10.000Z</time>
      </trkpt>
      <trkpt lat="44.1793" lon="5.09634">
        <ele>473</ele>
        <time>2016-06-30T09:05:11.000Z</time>
      </trkpt>
      <trkpt lat="44.1793" lon="5.09634">
        <ele>473</ele>
        <time>2016-06-30T09:05:12.000Z</time>
      </trkpt>
      <trkpt lat="44.1793" lon="5.09634">
        <ele>473</ele>
        <time>2016-06-30T09:05:13.000Z</time>
      </trkpt>
      <trkpt lat="44.1793" lon="5.09634">
        <ele>474</ele>
        <time>2016-06-30T09:05:14.000Z</time>
      </trkpt>
      <trkpt lat="44.1793" lon="5.09634">
        <ele>474</ele>
        <time>2016-06-30T09:05:15.000Z</time>
      </trkpt>
      <trkpt lat="44.1793" lon="5.09634">
        <ele>474</ele>
        <time>2016-06-30T09:05:16.000Z</time>
      </trkpt>
      <trkpt lat="44.1793" lon="5.09634">
        <ele>474</ele>
        <time>2016-06-30T09:05:17.000Z</time>
      </trkpt>
      <trkpt lat="44.1793" lon="5.09634">
        <ele>474</ele>
        <time>2016-06-30T09:05:18.000Z</time>
      </trkpt>
      <trkpt lat="44.1793" lon="5.09634">
        <ele>475</ele>
        <time>2016-06-30T09:05:19.000Z</time>
      </trkpt>
      <trkpt lat="44.1793" lon="5.09634">
        <ele>475</ele>
        <time>2016-06-30T09:05:20.000Z</time>
      </trkpt>
      <trkpt lat="44.1793" lon="5.09634">
        <ele>475</ele>
        <time>2016-06-30T09:05:21.000Z</time>
      </trkpt>
      <trkpt lat="44.17929" lon="5.09634">
        <ele>475</ele>
        <time>2016-06-30T09:05:22.000Z</time>
      </trkpt>
      <trkpt lat="44.17929" lon="5.09634">
        <ele>475</ele>
        <time>2016-06-30T09:05:23.000Z</time>
      </trkpt>
      <trkpt lat="44.17929" lon="5.09633">
        <ele>475</ele>
        <time>2016-06-30T09:05:24.000Z</time>
      </trkpt>
      <trkpt lat="44.17929" lon="5.09633">
        <ele>475</ele>
        <time>2016-06-30T09:05:25.000Z</time>
      </trkpt>
      <trkpt lat="44.17929" lon="5.09634">
        <ele>475</ele>
        <time>2016-06-30T09:05:26.000Z</time>
      </trkpt>
      <trkpt lat="44.1793" lon="5.09635">
        <ele>475</ele>
        <time>2016-06-30T09:05:27.000Z</time>
      </trkpt>
      <trkpt lat="44.1793" lon="5.09636">
        <ele>474</ele>
        <time>2016-06-30T09:05:28.000Z</time>
      </trkpt>
      <trkpt lat="44.1793" lon="5.09637">
        <ele>474</ele>
        <time>2016-06-30T09:05:29.000Z</time>
      </trkpt>
      <trkpt lat="44.1793" lon="5.09638">
        <ele>474</ele>
        <time>2016-06-30T09:05:30.000Z</time>
      </trkpt>
      <trkpt lat="44.1793" lon="5.09639">
        <ele>474</ele>
        <time>2016-06-30T09:05:31.000Z</time>
      </trkpt>
      <trkpt lat="44.1793" lon="5.0964">
        <ele>474</ele>
        <time>2016-06-30T09:05:32.000Z</time>
      </trkpt>
      <trkpt lat="44.17931" lon="5.09641">
        <ele>474</ele>
        <time>2016-06-30T09:05:33.000Z</time>
      </trkpt>
      <trkpt lat="44.17931" lon="5.09642">
        <ele>474</ele>
        <time>2016-06-30T09:05:34.000Z</time>
      </trkpt>
      <trkpt lat="44.17931" lon="5.09642">
        <ele>474</ele>
        <time>2016-06-30T09:05:35.000Z</time>
      </trkpt>
      <trkpt lat="44.17931" lon="5.09643">
        <ele>475</ele>
        <time>2016-06-30T09:05:36.000Z</time>
      </trkpt>
      <trkpt lat="44.17931" lon="5.09644">
        <ele>475</ele>
        <time>2016-06-30T09:05:37.000Z</time>
      </trkpt>
      <trkpt lat="44.17931" lon="5.09644">
        <ele>475</ele>
        <time>2016-06-30T09:05:38.000Z</time>
      </trkpt>
      <trkpt lat="44.17931" lon="5.09644">
        <ele>475</ele>
        <time>2016-06-30T09:05:39.000Z</time>
      </trkpt>
      <trkpt lat="44.17931" lon="5.09645">
        <ele>475</ele>
        <time>2016-06-30T09:05:40.000Z</time>
      </trkpt>
      <trkpt lat="44.1793" lon="5.09645">
        <ele>475</ele>
        <time>2016-06-30T09:05:41.000Z</time>
      </trkpt>
      <trkpt lat="44.1793" lon="5.09644">
        <ele>474</ele>
        <time>2016-06-30T09:05:42.000Z</time>
      </trkpt>
      <trkpt lat="44.1793" lon="5.09643">
        <ele>474</ele>
        <time>2016-06-30T09:05:43.000Z</time>
      </trkpt>
      <trkpt lat="44.17929" lon="5.09642">
        <ele>474</ele>
        <time>2016-06-30T09:05:44.000Z</time>
      </trkpt>
      <trkpt lat="44.17929" lon="5.0964">
        <ele>474</ele>
        <time>2016-06-30T09:05:45.000Z</time>
      </trkpt>
      <trkpt lat="44.17928" lon="5.09638">
        <ele>474</ele>
        <time>2016-06-30T09:05:46.000Z</time>
      </trkpt>
      <trkpt lat="44.17928" lon="5.09637">
        <ele>474</ele>
        <time>2016-06-30T09:05:47.000Z</time>
      </trkpt>
      <trkpt lat="44.17929" lon="5.09636">
        <ele>474</ele>
        <time>2016-06-30T09:05:48.000Z</time>
      </trkpt>
      <trkpt lat="44.17929" lon="5.09635">
        <ele>474</ele>
        <time>2016-06-30T09:05:49.000Z</time>
      </trkpt>
      <trkpt lat="44.17929" lon="5.09635">
        <ele>473</ele>
        <time>2016-06-30T09:05:50.000Z</time>
      </trkpt>
      <trkpt lat="44.17929" lon="5.09634">
        <ele>473</ele>
        <time>2016-06-30T09:05:51.000Z</time>
      </trkpt>
      <trkpt lat="44.17929" lon="5.09634">
        <ele>473</ele>
        <time>2016-06-30T09:05:52.000Z</time>
      </trkpt>
      <trkpt lat="44.17929" lon="5.09634">
        <ele>473</ele>
        <time>2016-06-30T09:05:53.000Z</time>
      </trkpt>
      <trkpt lat="44.17929" lon="5.09634">
        <ele>473</ele>
        <time>2016-06-30T09:05:54.000Z</time>
      </trkpt>
      <trkpt lat="44.17929" lon="5.09634">
        <ele>473</ele>
        <time>2016-06-30T09:05:55.000Z</time>
      </trkpt>
      <trkpt lat="44.17929" lon="5.09634">
        <ele>473</ele>
        <time>2016-06-30T09:05:56.000Z</time>
      </trkpt>
      <trkpt lat="44.17929" lon="5.09634">
        <ele>473</ele>
        <time>2016-06-30T09:05:57.000Z</time>
      </trkpt>
      <trkpt lat="44.17929" lon="5.09635">
        <ele>472</ele>
        <time>2016-06-30T09:05:58.000Z</time>
      </trkpt>
      <trkpt lat="44.17929" lon="5.09636">
        <ele>472</ele>
        <time>2016-06-30T09:05:59.000Z</time>
      </trkpt>
      <trkpt lat="44.17929" lon="5.09638">
        <ele>472</ele>
        <time>2016-06-30T09:06:00.000Z</time>
      </trkpt>
      <trkpt lat="44.17929" lon="5.09639">
        <ele>472</ele>
        <time>2016-06-30T09:06:01.000Z</time>
      </trkpt>
      <trkpt lat="44.1793" lon="5.0964">
        <ele>472</ele>
        <time>2016-06-30T09:06:02.000Z</time>
      </trkpt>
      <trkpt lat="44.1793" lon="5.09641">
        <ele>472</ele>
        <time>2016-06-30T09:06:03.000Z</time>
      </trkpt>
      <trkpt lat="44.1793" lon="5.09642">
        <ele>472</ele>
        <time>2016-06-30T09:06:04.000Z</time>
      </trkpt>
      <trkpt lat="44.1793" lon="5.09642">
        <ele>472</ele>
        <time>2016-06-30T09:06:05.000Z</time>
      </trkpt>
      <trkpt lat="44.17931" lon="5.09643">
        <ele>472</ele>
        <time>2016-06-30T09:06:06.000Z</time>
      </trkpt>
      <trkpt lat="44.17931" lon="5.09643">
        <ele>473</ele>
        <time>2016-06-30T09:06:07.000Z</time>
      </trkpt>
      <trkpt lat="44.17931" lon="5.09643">
        <ele>472</ele>
        <time>2016-06-30T09:06:08.000Z</time>
      </trkpt>
      <trkpt lat="44.17931" lon="5.09643">
        <ele>473</ele>
        <time>2016-06-30T09:06:09.000Z</time>
      </trkpt>
      <trkpt lat="44.17931" lon="5.09643">
        <ele>473</ele>
        <time>2016-06-30T09:06:10.000Z</time>
      </trkpt>
      <trkpt lat="44.17931" lon="5.09643">
        <ele>473</ele>
        <time>2016-06-30T09:06:11.000Z</time>
      </trkpt>
      <trkpt lat="44.17931" lon="5.09643">
        <ele>473</ele>
        <time>2016-06-30T09:06:12.000Z</time>
      </trkpt>
      <trkpt lat="44.17931" lon="5.09643">
        <ele>473</ele>
        <time>2016-06-30T09:06:13.000Z</time>
      </trkpt>
      <trkpt lat="44.17931" lon="5.09643">
        <ele>473</ele>
        <time>2016-06-30T09:06:14.000Z</time>
      </trkpt>
      <trkpt lat="44.17931" lon="5.09643">
        <ele>473</ele>
        <time>2016-06-30T09:06:15.000Z</time>
      </trkpt>
      <trkpt lat="44.17931" lon="5.09643">
        <ele>473</ele>
        <time>2016-06-30T09:06:16.000Z</time>
      </trkpt>
      <trkpt lat="44.17931" lon="5.09643">
        <ele>473</ele>
        <time>2016-06-30T09:06:17.000Z</time>
      </trkpt>
      <trkpt lat="44.17931" lon="5.09643">
        <ele>473</ele>
        <time>2016-06-30T09:06:18.000Z</time>
      </trkpt>
      <trkpt lat="44.17931" lon="5.09643">
        <ele>473</ele>
        <time>2016-06-30T09:06:19.000Z</time>
      </trkpt>
      <trkpt lat="44.17931" lon="5.09643">
        <ele>473</ele>
        <time>2016-06-30T09:06:20.000Z</time>
      </trkpt>
      <trkpt lat="44.17931" lon="5.09643">
        <ele>473</ele>
        <time>2016-06-30T09:06:21.000Z</time>
      </trkpt>
      <trkpt lat="44.17931" lon="5.09643">
        <ele>472</ele>
        <time>2016-06-30T09:06:22.000Z</time>
      </trkpt>
      <trkpt lat="44.17931" lon="5.09643">
        <ele>472</ele>
        <time>2016-06-30T09:06:23.000Z</time>
      </trkpt>
      <trkpt lat="44.17931" lon="5.09643">
        <ele>472</ele>
        <time>2016-06-30T09:06:24.000Z</time>
      </trkpt>
      <trkpt lat="44.17931" lon="5.09642">
        <ele>472</ele>
        <time>2016-06-30T09:06:25.000Z</time>
      </trkpt>
      <trkpt lat="44.17931" lon="5.09642">
        <ele>472</ele>
        <time>2016-06-30T09:06:26.000Z</time>
      </trkpt>
      <trkpt lat="44.17931" lon="5.09642">
        <ele>472</ele>
        <time>2016-06-30T09:06:27.000Z</time>
      </trkpt>
      <trkpt lat="44.17931" lon="5.09642">
        <ele>473</ele>
        <time>2016-06-30T09:06:28.000Z</time>
      </trkpt>
      <trkpt lat="44.17931" lon="5.09642">
        <ele>473</ele>
        <time>2016-06-30T09:06:29.000Z</time>
      </trkpt>
      <trkpt lat="44.17931" lon="5.09643">
        <ele>473</ele>
        <time>2016-06-30T09:06:30.000Z</time>
      </trkpt>
      <trkpt lat="44.17931" lon="5.09643">
        <ele>473</ele>
        <time>2016-06-30T09:06:31.000Z</time>
      </trkpt>
      <trkpt lat="44.17931" lon="5.09643">
        <ele>473</ele>
        <time>2016-06-30T09:06:32.000Z</time>
      </trkpt>
      <trkpt lat="44.17931" lon="5.09643">
        <ele>473</ele>
        <time>2016-06-30T09:06:33.000Z</time>
      </trkpt>
      <trkpt lat="44.17931" lon="5.09643">
        <ele>473</ele>
        <time>2016-06-30T09:06:34.000Z</time>
      </trkpt>
      <trkpt lat="44.17931" lon="5.09643">
        <ele>473</ele>
        <time>2016-06-30T09:06:35.000Z</time>
      </trkpt>
      <trkpt lat="44.17931" lon="5.09643">
        <ele>473</ele>
        <time>2016-06-30T09:06:36.000Z</time>
      </trkpt>
      <trkpt lat="44.17931" lon="5.09643">
        <ele>473</ele>
        <time>2016-06-30T09:06:37.000Z</time>
      </trkpt>
      <trkpt lat="44.17931" lon="5.09643">
        <ele>473</ele>
        <time>2016-06-30T09:06:38.000Z</time>
      </trkpt>
      <trkpt lat="44.17931" lon="5.09643">
        <ele>473</ele>
        <time>2016-06-30T09:06:39.000Z</time>
      </trkpt>
      <trkpt lat="44.17931" lon="5.09643">
        <ele>473</ele>
        <time>2016-06-30T09:06:40.000Z</time>
      </trkpt>
      <trkpt lat="44.17931" lon="5.09643">
        <ele>473</ele>
        <time>2016-06-30T09:06:41.000Z</time>
      </trkpt>
      <trkpt lat="44.17931" lon="5.09644">
        <ele>474</ele>
        <time>2016-06-30T09:06:42.000Z</time>
      </trkpt>
      <trkpt lat="44.17931" lon="5.09644">
        <ele>474</ele>
        <time>2016-06-30T09:06:43.000Z</time>
      </trkpt>
      <trkpt lat="44.17931" lon="5.09644">
        <ele>474</ele>
        <time>2016-06-30T09:06:44.000Z</time>
      </trkpt>
      <trkpt lat="44.17931" lon="5.09644">
        <ele>474</ele>
        <time>2016-06-30T09:06:45.000Z</time>
      </trkpt>
      <trkpt lat="44.17931" lon="5.09644">
        <ele>474</ele>
        <time>2016-06-30T09:06:46.000Z</time>
      </trkpt>
      <trkpt lat="44.17931" lon="5.09644">
        <ele>474</ele>
        <time>2016-06-30T09:06:47.000Z</time>
      </trkpt>
      <trkpt lat="44.17931" lon="5.09643">
        <ele>474</ele>
        <time>2016-06-30T09:06:48.000Z</time>
      </trkpt>
      <trkpt lat="44.17931" lon="5.09643">
        <ele>474</ele>
        <time>2016-06-30T09:06:49.000Z</time>
      </trkpt>
      <trkpt lat="44.17931" lon="5.09643">
        <ele>474</ele>
        <time>2016-06-30T09:06:50.000Z</time>
      </trkpt>
      <trkpt lat="44.1793" lon="5.09644">
        <ele>474</ele>
        <time>2016-06-30T09:06:51.000Z</time>
      </trkpt>
      <trkpt lat="44.1793" lon="5.09644">
        <ele>474</ele>
        <time>2016-06-30T09:06:52.000Z</time>
      </trkpt>
      <trkpt lat="44.17931" lon="5.09644">
        <ele>474</ele>
        <time>2016-06-30T09:06:53.000Z</time>
      </trkpt>
      <trkpt lat="44.17931" lon="5.09644">
        <ele>474</ele>
        <time>2016-06-30T09:06:54.000Z</time>
      </trkpt>
      <trkpt lat="44.17931" lon="5.09643">
        <ele>474</ele>
        <time>2016-06-30T09:06:55.000Z</time>
      </trkpt>
      <trkpt lat="44.17931" lon="5.09643">
        <ele>474</ele>
        <time>2016-06-30T09:06:56.000Z</time>
      </trkpt>
      <trkpt lat="44.17931" lon="5.09643">
        <ele>474</ele>
        <time>2016-06-30T09:06:57.000Z</time>
      </trkpt>
      <trkpt lat="44.17931" lon="5.09643">
        <ele>474</ele>
        <time>2016-06-30T09:06:58.000Z</time>
      </trkpt>
      <trkpt lat="44.17931" lon="5.09642">
        <ele>474</ele>
        <time>2016-06-30T09:06:59.000Z</time>
      </trkpt>
      <trkpt lat="44.17931" lon="5.09642">
        <ele>474</ele>
        <time>2016-06-30T09:07:00.000Z</time>
      </trkpt>
      <trkpt lat="44.17931" lon="5.09642">
        <ele>475</ele>
        <time>2016-06-30T09:07:01.000Z</time>
      </trkpt>
      <trkpt lat="44.17931" lon="5.09643">
        <ele>475</ele>
        <time>2016-06-30T09:07:02.000Z</time>
      </trkpt>
      <trkpt lat="44.17931" lon="5.09643">
        <ele>475</ele>
        <time>2016-06-30T09:07:03.000Z</time>
      </trkpt>
      <trkpt lat="44.17931" lon="5.09643">
        <ele>475</ele>
        <time>2016-06-30T09:07:04.000Z</time>
      </trkpt>
      <trkpt lat="44.17931" lon="5.09643">
        <ele>475</ele>
        <time>2016-06-30T09:07:05.000Z</time>
      </trkpt>
      <trkpt lat="44.17931" lon="5.09643">
        <ele>475</ele>
        <time>2016-06-30T09:07:06.000Z</time>
      </trkpt>
      <trkpt lat="44.17931" lon="5.09643">
        <ele>475</ele>
        <time>2016-06-30T09:07:07.000Z</time>
      </trkpt>
      <trkpt lat="44.17931" lon="5.09643">
        <ele>475</ele>
        <time>2016-06-30T09:07:08.000Z</time>
      </trkpt>
      <trkpt lat="44.17931" lon="5.09643">
        <ele>475</ele>
        <time>2016-06-30T09:07:09.000Z</time>
      </trkpt>
      <trkpt lat="44.17931" lon="5.09643">
        <ele>475</ele>
        <time>2016-06-30T09:07:10.000Z</time>
      </trkpt>
      <trkpt lat="44.17931" lon="5.09643">
        <ele>475</ele>
        <time>2016-06-30T09:07:11.000Z</time>
      </trkpt>
      <trkpt lat="44.17931" lon="5.09643">
        <ele>475</ele>
        <time>2016-06-30T09:07:12.000Z</time>
      </trkpt>
      <trkpt lat="44.17931" lon="5.09643">
        <ele>475</ele>
        <time>2016-06-30T09:07:13.000Z</time>
      </trkpt>
      <trkpt lat="44.17931" lon="5.09643">
        <ele>475</ele>
        <time>2016-06-30T09:07:14.000Z</time>
      </trkpt>
      <trkpt lat="44.17931" lon="5.09643">
        <ele>475</ele>
        <time>2016-06-30T09:07:15.000Z</time>
      </trkpt>
      <trkpt lat="44.17931" lon="5.09643">
        <ele>475</ele>
        <time>2016-06-30T09:07:16.000Z</time>
      </trkpt>
      <trkpt lat="44.17931" lon="5.09643">
        <ele>475</ele>
        <time>2016-06-30T09:07:17.000Z</time>
      </trkpt>
      <trkpt lat="44.17931" lon="5.09644">
        <ele>475</ele>
        <time>2016-06-30T09:07:18.000Z</time>
      </trkpt>
      <trkpt lat="44.17931" lon="5.09644">
        <ele>475</ele>
        <time>2016-06-30T09:07:19.000Z</time>
      </trkpt>
      <trkpt lat="44.17931" lon="5.09644">
        <ele>475</ele>
        <time>2016-06-30T09:07:20.000Z</time>
      </trkpt>
      <trkpt lat="44.17931" lon="5.09644">
        <ele>475</ele>
        <time>2016-06-30T09:07:21.000Z</time>
      </trkpt>
      <trkpt lat="44.17931" lon="5.09645">
        <ele>475</ele>
        <time>2016-06-30T09:07:22.000Z</time>
      </trkpt>
      <trkpt lat="44.17931" lon="5.09646">
        <ele>475</ele>
        <time>2016-06-30T09:07:23.000Z</time>
      </trkpt>
      <trkpt lat="44.17931" lon="5.09647">
        <ele>475</ele>
        <time>2016-06-30T09:07:24.000Z</time>
      </trkpt>
      <trkpt lat="44.1793" lon="5.09648">
        <ele>475</ele>
        <time>2016-06-30T09:07:25.000Z</time>
      </trkpt>
      <trkpt lat="44.1793" lon="5.09647">
        <ele>475</ele>
        <time>2016-06-30T09:07:26.000Z</time>
      </trkpt>
      <trkpt lat="44.17929" lon="5.09647">
        <ele>475</ele>
        <time>2016-06-30T09:07:27.000Z</time>
      </trkpt>
      <trkpt lat="44.17929" lon="5.09646">
        <ele>475</ele>
        <time>2016-06-30T09:07:28.000Z</time>
      </trkpt>
      <trkpt lat="44.17929" lon="5.09644">
        <ele>475</ele>
        <time>2016-06-30T09:07:29.000Z</time>
      </trkpt>
      <trkpt lat="44.17929" lon="5.09643">
        <ele>475</ele>
        <time>2016-06-30T09:07:30.000Z</time>
      </trkpt>
      <trkpt lat="44.17929" lon="5.09642">
        <ele>475</ele>
        <time>2016-06-30T09:07:31.000Z</time>
      </trkpt>
      <trkpt lat="44.17929" lon="5.09641">
        <ele>475</ele>
        <time>2016-06-30T09:07:32.000Z</time>
      </trkpt>
      <trkpt lat="44.17929" lon="5.0964">
        <ele>475</ele>
        <time>2016-06-30T09:07:33.000Z</time>
      </trkpt>
      <trkpt lat="44.17929" lon="5.0964">
        <ele>474</ele>
        <time>2016-06-30T09:07:34.000Z</time>
      </trkpt>
      <trkpt lat="44.17929" lon="5.09641">
        <ele>474</ele>
        <time>2016-06-30T09:07:35.000Z</time>
      </trkpt>
      <trkpt lat="44.17929" lon="5.09642">
        <ele>474</ele>
        <time>2016-06-30T09:07:36.000Z</time>
      </trkpt>
      <trkpt lat="44.17929" lon="5.09642">
        <ele>474</ele>
        <time>2016-06-30T09:07:37.000Z</time>
      </trkpt>
      <trkpt lat="44.1793" lon="5.09642">
        <ele>474</ele>
        <time>2016-06-30T09:07:38.000Z</time>
      </trkpt>
      <trkpt lat="44.1793" lon="5.09643">
        <ele>474</ele>
        <time>2016-06-30T09:07:39.000Z</time>
      </trkpt>
      <trkpt lat="44.1793" lon="5.09644">
        <ele>474</ele>
        <time>2016-06-30T09:07:40.000Z</time>
      </trkpt>
      <trkpt lat="44.1793" lon="5.09644">
        <ele>474</ele>
        <time>2016-06-30T09:07:41.000Z</time>
      </trkpt>
      <trkpt lat="44.1793" lon="5.09645">
        <ele>474</ele>
        <time>2016-06-30T09:07:42.000Z</time>
      </trkpt>
      <trkpt lat="44.1793" lon="5.09645">
        <ele>474</ele>
        <time>2016-06-30T09:07:43.000Z</time>
      </trkpt>
      <trkpt lat="44.1793" lon="5.09645">
        <ele>474</ele>
        <time>2016-06-30T09:07:44.000Z</time>
      </trkpt>
      <trkpt lat="44.1793" lon="5.09645">
        <ele>474</ele>
        <time>2016-06-30T09:07:45.000Z</time>
      </trkpt>
      <trkpt lat="44.1793" lon="5.09646">
        <ele>474</ele>
        <time>2016-06-30T09:07:46.000Z</time>
      </trkpt>
      <trkpt lat="44.1793" lon="5.09646">
        <ele>474</ele>
        <time>2016-06-30T09:07:47.000Z</time>
      </trkpt>
      <trkpt lat="44.1793" lon="5.09646">
        <ele>474</ele>
        <time>2016-06-30T09:07:48.000Z</time>
      </trkpt>
      <trkpt lat="44.1793" lon="5.09646">
        <ele>473</ele>
        <time>2016-06-30T09:07:49.000Z</time>
      </trkpt>
      <trkpt lat="44.1793" lon="5.09646">
        <ele>473</ele>
        <time>2016-06-30T09:07:50.000Z</time>
      </trkpt>
      <trkpt lat="44.17931" lon="5.09646">
        <ele>473</ele>
        <time>2016-06-30T09:07:51.000Z</time>
      </trkpt>
      <trkpt lat="44.17931" lon="5.09646">
        <ele>473</ele>
        <time>2016-06-30T09:07:52.000Z</time>
      </trkpt>
      <trkpt lat="44.17931" lon="5.09647">
        <ele>473</ele>
        <time>2016-06-30T09:07:53.000Z</time>
      </trkpt>
      <trkpt lat="44.17932" lon="5.09647">
        <ele>474</ele>
        <time>2016-06-30T09:07:54.000Z</time>
      </trkpt>
      <trkpt lat="44.17932" lon="5.09647">
        <ele>474</ele>
        <time>2016-06-30T09:07:55.000Z</time>
      </trkpt>
      <trkpt lat="44.17932" lon="5.09648">
        <ele>474</ele>
        <time>2016-06-30T09:07:56.000Z</time>
      </trkpt>
      <trkpt lat="44.17932" lon="5.09648">
        <ele>474</ele>
        <time>2016-06-30T09:07:57.000Z</time>
      </trkpt>
      <trkpt lat="44.17932" lon="5.09648">
        <ele>474</ele>
        <time>2016-06-30T09:07:58.000Z</time>
      </trkpt>
      <trkpt lat="44.17932" lon="5.09648">
        <ele>474</ele>
        <time>2016-06-30T09:07:59.000Z</time>
      </trkpt>
      <trkpt lat="44.17932" lon="5.09648">
        <ele>474</ele>
        <time>2016-06-30T09:08:00.000Z</time>
      </trkpt>
      <trkpt lat="44.17932" lon="5.09648">
        <ele>474</ele>
        <time>2016-06-30T09:08:01.000Z</time>
      </trkpt>
      <trkpt lat="44.17932" lon="5.09648">
        <ele>474</ele>
        <time>2016-06-30T09:08:02.000Z</time>
      </trkpt>
      <trkpt lat="44.17932" lon="5.09648">
        <ele>474</ele>
        <time>2016-06-30T09:08:03.000Z</time>
      </trkpt>
      <trkpt lat="44.17932" lon="5.09648">
        <ele>475</ele>
        <time>2016-06-30T09:08:04.000Z</time>
      </trkpt>
      <trkpt lat="44.17932" lon="5.09648">
        <ele>475</ele>
        <time>2016-06-30T09:08:05.000Z</time>
      </trkpt>
      <trkpt lat="44.17932" lon="5.09648">
        <ele>475</ele>
        <time>2016-06-30T09:08:06.000Z</time>
      </trkpt>
      <trkpt lat="44.17932" lon="5.09648">
        <ele>475</ele>
        <time>2016-06-30T09:08:07.000Z</time>
      </trkpt>
      <trkpt lat="44.17932" lon="5.09648">
        <ele>475</ele>
        <time>2016-06-30T09:08:08.000Z</time>
      </trkpt>
      <trkpt lat="44.17932" lon="5.09648">
        <ele>475</ele>
        <time>2016-06-30T09:08:09.000Z</time>
      </trkpt>
      <trkpt lat="44.17932" lon="5.09648">
        <ele>476</ele>
        <time>2016-06-30T09:08:10.000Z</time>
      </trkpt>
      <trkpt lat="44.17932" lon="5.09649">
        <ele>476</ele>
        <time>2016-06-30T09:08:11.000Z</time>
      </trkpt>
      <trkpt lat="44.17931" lon="5.09648">
        <ele>476</ele>
        <time>2016-06-30T09:08:12.000Z</time>
      </trkpt>
      <trkpt lat="44.17931" lon="5.09648">
        <ele>476</ele>
        <time>2016-06-30T09:08:13.000Z</time>
      </trkpt>
      <trkpt lat="44.17931" lon="5.09648">
        <ele>476</ele>
        <time>2016-06-30T09:08:14.000Z</time>
      </trkpt>
      <trkpt lat="44.17931" lon="5.09648">
        <ele>476</ele>
        <time>2016-06-30T09:08:15.000Z</time>
      </trkpt>
      <trkpt lat="44.17931" lon="5.09648">
        <ele>476</ele>
        <time>2016-06-30T09:08:16.000Z</time>
      </trkpt>
      <trkpt lat="44.17931" lon="5.09649">
        <ele>476</ele>
        <time>2016-06-30T09:08:17.000Z</time>
      </trkpt>
      <trkpt lat="44.17931" lon="5.09649">
        <ele>476</ele>
        <time>2016-06-30T09:08:18.000Z</time>
      </trkpt>
      <trkpt lat="44.17932" lon="5.09648">
        <ele>476</ele>
        <time>2016-06-30T09:08:19.000Z</time>
      </trkpt>
      <trkpt lat="44.17932" lon="5.09648">
        <ele>476</ele>
        <time>2016-06-30T09:08:20.000Z</time>
      </trkpt>
      <trkpt lat="44.17932" lon="5.09648">
        <ele>475</ele>
        <time>2016-06-30T09:08:21.000Z</time>
      </trkpt>
      <trkpt lat="44.17932" lon="5.09649">
        <ele>476</ele>
        <time>2016-06-30T09:08:22.000Z</time>
      </trkpt>
      <trkpt lat="44.17932" lon="5.09649">
        <ele>476</ele>
        <time>2016-06-30T09:08:23.000Z</time>
      </trkpt>
      <trkpt lat="44.17932" lon="5.09649">
        <ele>476</ele>
        <time>2016-06-30T09:08:24.000Z</time>
      </trkpt>
      <trkpt lat="44.17932" lon="5.09649">
        <ele>475</ele>
        <time>2016-06-30T09:08:25.000Z</time>
      </trkpt>
      <trkpt lat="44.17932" lon="5.09649">
        <ele>475</ele>
        <time>2016-06-30T09:08:26.000Z</time>
      </trkpt>
      <trkpt lat="44.17932" lon="5.09649">
        <ele>475</ele>
        <time>2016-06-30T09:08:27.000Z</time>
      </trkpt>
      <trkpt lat="44.17932" lon="5.09648">
        <ele>475</ele>
        <time>2016-06-30T09:08:28.000Z</time>
      </trkpt>
      <trkpt lat="44.17932" lon="5.09648">
        <ele>475</ele>
        <time>2016-06-30T09:08:29.000Z</time>
      </trkpt>
      <trkpt lat="44.17932" lon="5.09648">
        <ele>475</ele>
        <time>2016-06-30T09:08:30.000Z</time>
      </trkpt>
      <trkpt lat="44.17931" lon="5.09648">
        <ele>476</ele>
        <time>2016-06-30T09:08:31.000Z</time>
      </trkpt>
      <trkpt lat="44.17931" lon="5.09648">
        <ele>476</ele>
        <time>2016-06-30T09:08:32.000Z</time>
      </trkpt>
      <trkpt lat="44.17931" lon="5.09648">
        <ele>476</ele>
        <time>2016-06-30T09:08:33.000Z</time>
      </trkpt>
      <trkpt lat="44.17931" lon="5.09648">
        <ele>476</ele>
        <time>2016-06-30T09:08:34.000Z</time>
      </trkpt>
      <trkpt lat="44.17931" lon="5.09648">
        <ele>476</ele>
        <time>2016-06-30T09:08:35.000Z</time>
      </trkpt>
      <trkpt lat="44.17931" lon="5.09648">
        <ele>476</ele>
        <time>2016-06-30T09:08:36.000Z</time>
      </trkpt>
      <trkpt lat="44.17931" lon="5.09648">
        <ele>476</ele>
        <time>2016-06-30T09:08:37.000Z</time>
      </trkpt>
      <trkpt lat="44.17931" lon="5.09648">
        <ele>475</ele>
        <time>2016-06-30T09:08:38.000Z</time>
      </trkpt>
      <trkpt lat="44.17931" lon="5.09648">
        <ele>476</ele>
        <time>2016-06-30T09:08:39.000Z</time>
      </trkpt>
      <trkpt lat="44.17931" lon="5.09647">
        <ele>476</ele>
        <time>2016-06-30T09:08:40.000Z</time>
      </trkpt>
      <trkpt lat="44.17931" lon="5.09647">
        <ele>476</ele>
        <time>2016-06-30T09:08:41.000Z</time>
      </trkpt>
      <trkpt lat="44.17931" lon="5.09647">
        <ele>476</ele>
        <time>2016-06-30T09:08:42.000Z</time>
      </trkpt>
      <trkpt lat="44.17931" lon="5.09647">
        <ele>476</ele>
        <time>2016-06-30T09:08:43.000Z</time>
      </trkpt>
      <trkpt lat="44.17931" lon="5.09647">
        <ele>476</ele>
        <time>2016-06-30T09:08:44.000Z</time>
      </trkpt>
      <trkpt lat="44.17931" lon="5.09647">
        <ele>476</ele>
        <time>2016-06-30T09:08:45.000Z</time>
      </trkpt>
      <trkpt lat="44.17931" lon="5.09647">
        <ele>476</ele>
        <time>2016-06-30T09:08:46.000Z</time>
      </trkpt>
      <trkpt lat="44.17931" lon="5.09647">
        <ele>476</ele>
        <time>2016-06-30T09:08:47.000Z</time>
      </trkpt>
      <trkpt lat="44.17931" lon="5.09647">
        <ele>476</ele>
        <time>2016-06-30T09:08:48.000Z</time>
      </trkpt>
      <trkpt lat="44.17931" lon="5.09647">
        <ele>476</ele>
        <time>2016-06-30T09:08:49.000Z</time>
      </trkpt>
      <trkpt lat="44.17931" lon="5.09647">
        <ele>476</ele>
        <time>2016-06-30T09:08:50.000Z</time>
      </trkpt>
      <trkpt lat="44.17931" lon="5.09647">
        <ele>476</ele>
        <time>2016-06-30T09:08:51.000Z</time>
      </trkpt>
      <trkpt lat="44.17931" lon="5.09647">
        <ele>476</ele>
        <time>2016-06-30T09:08:52.000Z</time>
      </trkpt>
      <trkpt lat="44.17931" lon="5.09647">
        <ele>476</ele>
        <time>2016-06-30T09:08:53.000Z</time>
      </trkpt>
      <trkpt lat="44.17931" lon="5.09647">
        <ele>476</ele>
        <time>2016-06-30T09:08:54.000Z</time>
      </trkpt>
      <trkpt lat="44.17931" lon="5.09647">
        <ele>476</ele>
        <time>2016-06-30T09:08:55.000Z</time>
      </trkpt>
      <trkpt lat="44.17931" lon="5.09647">
        <ele>476</ele>
        <time>2016-06-30T09:08:56.000Z</time>
      </trkpt>
      <trkpt lat="44.17931" lon="5.09647">
        <ele>476</ele>
        <time>2016-06-30T09:08:57.000Z</time>
      </trkpt>
      <trkpt lat="44.17931" lon="5.09647">
        <ele>476</ele>
        <time>2016-06-30T09:08:58.000Z</time>
      </trkpt>
      <trkpt lat="44.17931" lon="5.09647">
        <ele>476</ele>
        <time>2016-06-30T09:08:59.000Z</time>
      </trkpt>
      <trkpt lat="44.17931" lon="5.09647">
        <ele>477</ele>
        <time>2016-06-30T09:09:00.000Z</time>
      </trkpt>
      <trkpt lat="44.17931" lon="5.09647">
        <ele>477</ele>
        <time>2016-06-30T09:09:01.000Z</time>
      </trkpt>
      <trkpt lat="44.17931" lon="5.09646">
        <ele>477</ele>
        <time>2016-06-30T09:09:02.000Z</time>
      </trkpt>
      <trkpt lat="44.17931" lon="5.09646">
        <ele>477</ele>
        <time>2016-06-30T09:09:03.000Z</time>
      </trkpt>
      <trkpt lat="44.17931" lon="5.09646">
        <ele>477</ele>
        <time>2016-06-30T09:09:04.000Z</time>
      </trkpt>
      <trkpt lat="44.17932" lon="5.09646">
        <ele>477</ele>
        <time>2016-06-30T09:09:05.000Z</time>
      </trkpt>
      <trkpt lat="44.17932" lon="5.09646">
        <ele>477</ele>
        <time>2016-06-30T09:09:06.000Z</time>
      </trkpt>
      <trkpt lat="44.17931" lon="5.09646">
        <ele>477</ele>
        <time>2016-06-30T09:09:07.000Z</time>
      </trkpt>
      <trkpt lat="44.17931" lon="5.09646">
        <ele>477</ele>
        <time>2016-06-30T09:09:08.000Z</time>
      </trkpt>
      <trkpt lat="44.17931" lon="5.09646">
        <ele>477</ele>
        <time>2016-06-30T09:09:09.000Z</time>
      </trkpt>
      <trkpt lat="44.17932" lon="5.09646">
        <ele>477</ele>
        <time>2016-06-30T09:09:10.000Z</time>
      </trkpt>
      <trkpt lat="44.17932" lon="5.09646">
        <ele>477</ele>
        <time>2016-06-30T09:09:11.000Z</time>
      </trkpt>
      <trkpt lat="44.17932" lon="5.09646">
        <ele>477</ele>
        <time>2016-06-30T09:09:12.000Z</time>
      </trkpt>
      <trkpt lat="44.17932" lon="5.09646">
        <ele>477</ele>
        <time>2016-06-30T09:09:13.000Z</time>
      </trkpt>
      <trkpt lat="44.17932" lon="5.09646">
        <ele>477</ele>
        <time>2016-06-30T09:09:14.000Z</time>
      </trkpt>
      <trkpt lat="44.17932" lon="5.09646">
        <ele>477</ele>
        <time>2016-06-30T09:09:15.000Z</time>
      </trkpt>
      <trkpt lat="44.17932" lon="5.09646">
        <ele>477</ele>
        <time>2016-06-30T09:09:16.000Z</time>
      </trkpt>
      <trkpt lat="44.17932" lon="5.09646">
        <ele>477</ele>
        <time>2016-06-30T09:09:17.000Z</time>
      </trkpt>
      <trkpt lat="44.17932" lon="5.09646">
        <ele>477</ele>
        <time>2016-06-30T09:09:18.000Z</time>
      </trkpt>
      <trkpt lat="44.17932" lon="5.09646">
        <ele>477</ele>
        <time>2016-06-30T09:09:19.000Z</time>
      </trkpt>
      <trkpt lat="44.17932" lon="5.09646">
        <ele>477</ele>
        <time>2016-06-30T09:09:20.000Z</time>
      </trkpt>
      <trkpt lat="44.17932" lon="5.09646">
        <ele>477</ele>
        <time>2016-06-30T09:09:21.000Z</time>
      </trkpt>
      <trkpt lat="44.17932" lon="5.09646">
        <ele>477</ele>
        <time>2016-06-30T09:09:22.000Z</time>
      </trkpt>
      <trkpt lat="44.17932" lon="5.09646">
        <ele>477</ele>
        <time>2016-06-30T09:09:23.000Z</time>
      </trkpt>
      <trkpt lat="44.17932" lon="5.09646">
        <ele>477</ele>
        <time>2016-06-30T09:09:24.000Z</time>
      </trkpt>
      <trkpt lat="44.17932" lon="5.09646">
        <ele>477</ele>
        <time>2016-06-30T09:09:25.000Z</time>
      </trkpt>
      <trkpt lat="44.17932" lon="5.09646">
        <ele>477</ele>
        <time>2016-06-30T09:09:26.000Z</time>
      </trkpt>
      <trkpt lat="44.17932" lon="5.09646">
        <ele>477</ele>
        <time>2016-06-30T09:09:27.000Z</time>
      </trkpt>
      <trkpt lat="44.17932" lon="5.09646">
        <ele>477</ele>
        <time>2016-06-30T09:09:28.000Z</time>
      </trkpt>
      <trkpt lat="44.17932" lon="5.09646">
        <ele>477</ele>
        <time>2016-06-30T09:09:29.000Z</time>
      </trkpt>
      <trkpt lat="44.17932" lon="5.09646">
        <ele>476</ele>
        <time>2016-06-30T09:09:30.000Z</time>
      </trkpt>
      <trkpt lat="44.17932" lon="5.09646">
        <ele>476</ele>
        <time>2016-06-30T09:09:31.000Z</time>
      </trkpt>
      <trkpt lat="44.17932" lon="5.09646">
        <ele>476</ele>
        <time>2016-06-30T09:09:32.000Z</time>
      </trkpt>
      <trkpt lat="44.17932" lon="5.09646">
        <ele>476</ele>
        <time>2016-06-30T09:09:33.000Z</time>
      </trkpt>
      <trkpt lat="44.17932" lon="5.09646">
        <ele>476</ele>
        <time>2016-06-30T09:09:34.000Z</time>
      </trkpt>
      <trkpt lat="44.17932" lon="5.09646">
        <ele>476</ele>
        <time>2016-06-30T09:09:35.000Z</time>
      </trkpt>
      <trkpt lat="44.17932" lon="5.09646">
        <ele>476</ele>
        <time>2016-06-30T09:09:36.000Z</time>
      </trkpt>
      <trkpt lat="44.17932" lon="5.09646">
        <ele>476</ele>
        <time>2016-06-30T09:09:37.000Z</time>
      </trkpt>
      <trkpt lat="44.17932" lon="5.09646">
        <ele>476</ele>
        <time>2016-06-30T09:09:38.000Z</time>
      </trkpt>
      <trkpt lat="44.17932" lon="5.09646">
        <ele>476</ele>
        <time>2016-06-30T09:09:39.000Z</time>
      </trkpt>
      <trkpt lat="44.17932" lon="5.09646">
        <ele>476</ele>
        <time>2016-06-30T09:09:40.000Z</time>
      </trkpt>
      <trkpt lat="44.17932" lon="5.09646">
        <ele>476</ele>
        <time>2016-06-30T09:09:41.000Z</time>
      </trkpt>
      <trkpt lat="44.17932" lon="5.09646">
        <ele>476</ele>
        <time>2016-06-30T09:09:42.000Z</time>
      </trkpt>
      <trkpt lat="44.17932" lon="5.09645">
        <ele>476</ele>
        <time>2016-06-30T09:09:43.000Z</time>
      </trkpt>
      <trkpt lat="44.17932" lon="5.09646">
        <ele>476</ele>
        <time>2016-06-30T09:09:44.000Z</time>
      </trkpt>
      <trkpt lat="44.17932" lon="5.09646">
        <ele>476</ele>
        <time>2016-06-30T09:09:45.000Z</time>
      </trkpt>
      <trkpt lat="44.17932" lon="5.09646">
        <ele>476</ele>
        <time>2016-06-30T09:09:46.000Z</time>
      </trkpt>
      <trkpt lat="44.17932" lon="5.09646">
        <ele>476</ele>
        <time>2016-06-30T09:09:47.000Z</time>
      </trkpt>
      <trkpt lat="44.17932" lon="5.09646">
        <ele>476</ele>
        <time>2016-06-30T09:09:48.000Z</time>
      </trkpt>
      <trkpt lat="44.17932" lon="5.09646">
        <ele>476</ele>
        <time>2016-06-30T09:09:49.000Z</time>
      </trkpt>
      <trkpt lat="44.17932" lon="5.09645">
        <ele>476</ele>
        <time>2016-06-30T09:09:50.000Z</time>
      </trkpt>
      <trkpt lat="44.17932" lon="5.09645">
        <ele>476</ele>
        <time>2016-06-30T09:09:51.000Z</time>
      </trkpt>
      <trkpt lat="44.17932" lon="5.09645">
        <ele>476</ele>
        <time>2016-06-30T09:09:52.000Z</time>
      </trkpt>
      <trkpt lat="44.17932" lon="5.09645">
        <ele>475</ele>
        <time>2016-06-30T09:09:53.000Z</time>
      </trkpt>
      <trkpt lat="44.17932" lon="5.09645">
        <ele>475</ele>
        <time>2016-06-30T09:09:54.000Z</time>
      </trkpt>
      <trkpt lat="44.17932" lon="5.09645">
        <ele>475</ele>
        <time>2016-06-30T09:09:55.000Z</time>
      </trkpt>
      <trkpt lat="44.17932" lon="5.09645">
        <ele>475</ele>
        <time>2016-06-30T09:09:56.000Z</time>
      </trkpt>
      <trkpt lat="44.17932" lon="5.09645">
        <ele>475</ele>
        <time>2016-06-30T09:09:57.000Z</time>
      </trkpt>
      <trkpt lat="44.17932" lon="5.09645">
        <ele>475</ele>
        <time>2016-06-30T09:09:58.000Z</time>
      </trkpt>
      <trkpt lat="44.17932" lon="5.09644">
        <ele>475</ele>
        <time>2016-06-30T09:09:59.000Z</time>
      </trkpt>
      <trkpt lat="44.17932" lon="5.09644">
        <ele>475</ele>
        <time>2016-06-30T09:10:00.000Z</time>
      </trkpt>
      <trkpt lat="44.17932" lon="5.09644">
        <ele>476</ele>
        <time>2016-06-30T09:10:01.000Z</time>
      </trkpt>
      <trkpt lat="44.17932" lon="5.09644">
        <ele>475</ele>
        <time>2016-06-30T09:10:02.000Z</time>
      </trkpt>
      <trkpt lat="44.17931" lon="5.09643">
        <ele>475</ele>
        <time>2016-06-30T09:10:03.000Z</time>
      </trkpt>
      <trkpt lat="44.17931" lon="5.09643">
        <ele>476</ele>
        <time>2016-06-30T09:10:04.000Z</time>
      </trkpt>
      <trkpt lat="44.17931" lon="5.09643">
        <ele>476</ele>
        <time>2016-06-30T09:10:05.000Z</time>
      </trkpt>
      <trkpt lat="44.17931" lon="5.09642">
        <ele>476</ele>
        <time>2016-06-30T09:10:06.000Z</time>
      </trkpt>
      <trkpt lat="44.17931" lon="5.09642">
        <ele>476</ele>
        <time>2016-06-30T09:10:07.000Z</time>
      </trkpt>
      <trkpt lat="44.17931" lon="5.09642">
        <ele>475</ele>
        <time>2016-06-30T09:10:08.000Z</time>
      </trkpt>
      <trkpt lat="44.17931" lon="5.09642">
        <ele>475</ele>
        <time>2016-06-30T09:10:09.000Z</time>
      </trkpt>
      <trkpt lat="44.17931" lon="5.09642">
        <ele>475</ele>
        <time>2016-06-30T09:10:10.000Z</time>
      </trkpt>
      <trkpt lat="44.17931" lon="5.09641">
        <ele>474</ele>
        <time>2016-06-30T09:10:11.000Z</time>
      </trkpt>
      <trkpt lat="44.1793" lon="5.0964">
        <ele>475</ele>
        <time>2016-06-30T09:10:12.000Z</time>
      </trkpt>
      <trkpt lat="44.1793" lon="5.09639">
        <ele>475</ele>
        <time>2016-06-30T09:10:13.000Z</time>
      </trkpt>
      <trkpt lat="44.17929" lon="5.09638">
        <ele>475</ele>
        <time>2016-06-30T09:10:14.000Z</time>
      </trkpt>
      <trkpt lat="44.17929" lon="5.09637">
        <ele>475</ele>
        <time>2016-06-30T09:10:15.000Z</time>
      </trkpt>
      <trkpt lat="44.17929" lon="5.09636">
        <ele>474</ele>
        <time>2016-06-30T09:10:16.000Z</time>
      </trkpt>
      <trkpt lat="44.17929" lon="5.09635">
        <ele>474</ele>
        <time>2016-06-30T09:10:17.000Z</time>
      </trkpt>
      <trkpt lat="44.17929" lon="5.09634">
        <ele>474</ele>
        <time>2016-06-30T09:10:18.000Z</time>
      </trkpt>
      <trkpt lat="44.17929" lon="5.09634">
        <ele>474</ele>
        <time>2016-06-30T09:10:19.000Z</time>
      </trkpt>
      <trkpt lat="44.17929" lon="5.09634">
        <ele>474</ele>
        <time>2016-06-30T09:10:20.000Z</time>
      </trkpt>
      <trkpt lat="44.17929" lon="5.09633">
        <ele>474</ele>
        <time>2016-06-30T09:10:21.000Z</time>
      </trkpt>
      <trkpt lat="44.17929" lon="5.09633">
        <ele>474</ele>
        <time>2016-06-30T09:10:22.000Z</time>
      </trkpt>
      <trkpt lat="44.17929" lon="5.09634">
        <ele>474</ele>
        <time>2016-06-30T09:10:23.000Z</time>
      </trkpt>
      <trkpt lat="44.17929" lon="5.09634">
        <ele>474</ele>
        <time>2016-06-30T09:10:24.000Z</time>
      </trkpt>
      <trkpt lat="44.17929" lon="5.09633">
        <ele>473</ele>
        <time>2016-06-30T09:10:25.000Z</time>
      </trkpt>
      <trkpt lat="44.17929" lon="5.09633">
        <ele>473</ele>
        <time>2016-06-30T09:10:26.000Z</time>
      </trkpt>
      <trkpt lat="44.17929" lon="5.09633">
        <ele>473</ele>
        <time>2016-06-30T09:10:27.000Z</time>
      </trkpt>
      <trkpt lat="44.17929" lon="5.09633">
        <ele>474</ele>
        <time>2016-06-30T09:10:28.000Z</time>
      </trkpt>
      <trkpt lat="44.17929" lon="5.09633">
        <ele>473</ele>
        <time>2016-06-30T09:10:29.000Z</time>
      </trkpt>
      <trkpt lat="44.17929" lon="5.09633">
        <ele>473</ele>
        <time>2016-06-30T09:10:30.000Z</time>
      </trkpt>
      <trkpt lat="44.17929" lon="5.09633">
        <ele>474</ele>
        <time>2016-06-30T09:10:31.000Z</time>
      </trkpt>
      <trkpt lat="44.17929" lon="5.09633">
        <ele>474</ele>
        <time>2016-06-30T09:10:32.000Z</time>
      </trkpt>
      <trkpt lat="44.17929" lon="5.09633">
        <ele>473</ele>
        <time>2016-06-30T09:10:33.000Z</time>
      </trkpt>
      <trkpt lat="44.17929" lon="5.09633">
        <ele>473</ele>
        <time>2016-06-30T09:10:34.000Z</time>
      </trkpt>
      <trkpt lat="44.17929" lon="5.09633">
        <ele>473</ele>
        <time>2016-06-30T09:10:35.000Z</time>
      </trkpt>
      <trkpt lat="44.17929" lon="5.09633">
        <ele>473</ele>
        <time>2016-06-30T09:10:36.000Z</time>
      </trkpt>
      <trkpt lat="44.17929" lon="5.09633">
        <ele>473</ele>
        <time>2016-06-30T09:10:37.000Z</time>
      </trkpt>
      <trkpt lat="44.17929" lon="5.09633">
        <ele>473</ele>
        <time>2016-06-30T09:10:38.000Z</time>
      </trkpt>
      <trkpt lat="44.17929" lon="5.09633">
        <ele>473</ele>
        <time>2016-06-30T09:10:39.000Z</time>
      </trkpt>
      <trkpt lat="44.17929" lon="5.09633">
        <ele>473</ele>
        <time>2016-06-30T09:10:40.000Z</time>
      </trkpt>
      <trkpt lat="44.17929" lon="5.09633">
        <ele>473</ele>
        <time>2016-06-30T09:10:41.000Z</time>
      </trkpt>
      <trkpt lat="44.17929" lon="5.09633">
        <ele>473</ele>
        <time>2016-06-30T09:10:42.000Z</time>
      </trkpt>
      <trkpt lat="44.17929" lon="5.09633">
        <ele>473</ele>
        <time>2016-06-30T09:10:43.000Z</time>
      </trkpt>
      <trkpt lat="44.17929" lon="5.09633">
        <ele>474</ele>
        <time>2016-06-30T09:10:44.000Z</time>
      </trkpt>
      <trkpt lat="44.17929" lon="5.09633">
        <ele>474</ele>
        <time>2016-06-30T09:10:45.000Z</time>
      </trkpt>
      <trkpt lat="44.17929" lon="5.09634">
        <ele>474</ele>
        <time>2016-06-30T09:10:46.000Z</time>
      </trkpt>
      <trkpt lat="44.17929" lon="5.09634">
        <ele>474</ele>
        <time>2016-06-30T09:10:47.000Z</time>
      </trkpt>
      <trkpt lat="44.17929" lon="5.09634">
        <ele>474</ele>
        <time>2016-06-30T09:10:48.000Z</time>
      </trkpt>
      <trkpt lat="44.17929" lon="5.09635">
        <ele>473</ele>
        <time>2016-06-30T09:10:49.000Z</time>
      </trkpt>
      <trkpt lat="44.17929" lon="5.09636">
        <ele>473</ele>
        <time>2016-06-30T09:10:50.000Z</time>
      </trkpt>
      <trkpt lat="44.17929" lon="5.09637">
        <ele>473</ele>
        <time>2016-06-30T09:10:51.000Z</time>
      </trkpt>
      <trkpt lat="44.1793" lon="5.09638">
        <ele>473</ele>
        <time>2016-06-30T09:10:52.000Z</time>
      </trkpt>
      <trkpt lat="44.1793" lon="5.09639">
        <ele>473</ele>
        <time>2016-06-30T09:10:53.000Z</time>
      </trkpt>
      <trkpt lat="44.1793" lon="5.0964">
        <ele>473</ele>
        <time>2016-06-30T09:10:54.000Z</time>
      </trkpt>
      <trkpt lat="44.1793" lon="5.09641">
        <ele>473</ele>
        <time>2016-06-30T09:10:55.000Z</time>
      </trkpt>
      <trkpt lat="44.1793" lon="5.09642">
        <ele>473</ele>
        <time>2016-06-30T09:10:56.000Z</time>
      </trkpt>
      <trkpt lat="44.1793" lon="5.09643">
        <ele>474</ele>
        <time>2016-06-30T09:10:57.000Z</time>
      </trkpt>
      <trkpt lat="44.1793" lon="5.09644">
        <ele>474</ele>
        <time>2016-06-30T09:10:58.000Z</time>
      </trkpt>
      <trkpt lat="44.1793" lon="5.09644">
        <ele>474</ele>
        <time>2016-06-30T09:10:59.000Z</time>
      </trkpt>
      <trkpt lat="44.1793" lon="5.09644">
        <ele>474</ele>
        <time>2016-06-30T09:11:00.000Z</time>
      </trkpt>
      <trkpt lat="44.1793" lon="5.09644">
        <ele>474</ele>
        <time>2016-06-30T09:11:01.000Z</time>
      </trkpt>
      <trkpt lat="44.1793" lon="5.09644">
        <ele>474</ele>
        <time>2016-06-30T09:11:02.000Z</time>
      </trkpt>
      <trkpt lat="44.1793" lon="5.09644">
        <ele>474</ele>
        <time>2016-06-30T09:11:03.000Z</time>
      </trkpt>
      <trkpt lat="44.1793" lon="5.09644">
        <ele>474</ele>
        <time>2016-06-30T09:11:04.000Z</time>
      </trkpt>
      <trkpt lat="44.1793" lon="5.09644">
        <ele>474</ele>
        <time>2016-06-30T09:11:05.000Z</time>
      </trkpt>
      <trkpt lat="44.1793" lon="5.09644">
        <ele>474</ele>
        <time>2016-06-30T09:11:06.000Z</time>
      </trkpt>
      <trkpt lat="44.1793" lon="5.09644">
        <ele>474</ele>
        <time>2016-06-30T09:11:07.000Z</time>
      </trkpt>
      <trkpt lat="44.1793" lon="5.09644">
        <ele>474</ele>
        <time>2016-06-30T09:11:08.000Z</time>
      </trkpt>
      <trkpt lat="44.1793" lon="5.09644">
        <ele>474</ele>
        <time>2016-06-30T09:11:09.000Z</time>
      </trkpt>
      <trkpt lat="44.17931" lon="5.09644">
        <ele>474</ele>
        <time>2016-06-30T09:11:10.000Z</time>
      </trkpt>
      <trkpt lat="44.17931" lon="5.09644">
        <ele>475</ele>
        <time>2016-06-30T09:11:11.000Z</time>
      </trkpt>
      <trkpt lat="44.17931" lon="5.09644">
        <ele>475</ele>
        <time>2016-06-30T09:11:12.000Z</time>
      </trkpt>
      <trkpt lat="44.17931" lon="5.09644">
        <ele>475</ele>
        <time>2016-06-30T09:11:13.000Z</time>
      </trkpt>
      <trkpt lat="44.17931" lon="5.09644">
        <ele>475</ele>
        <time>2016-06-30T09:11:14.000Z</time>
      </trkpt>
      <trkpt lat="44.17931" lon="5.09644">
        <ele>476</ele>
        <time>2016-06-30T09:11:15.000Z</time>
      </trkpt>
      <trkpt lat="44.17931" lon="5.09644">
        <ele>476</ele>
        <time>2016-06-30T09:11:16.000Z</time>
      </trkpt>
      <trkpt lat="44.17931" lon="5.09644">
        <ele>476</ele>
        <time>2016-06-30T09:11:17.000Z</time>
      </trkpt>
      <trkpt lat="44.17931" lon="5.09644">
        <ele>476</ele>
        <time>2016-06-30T09:11:18.000Z</time>
      </trkpt>
      <trkpt lat="44.17931" lon="5.09643">
        <ele>476</ele>
        <time>2016-06-30T09:11:19.000Z</time>
      </trkpt>
      <trkpt lat="44.17931" lon="5.09643">
        <ele>476</ele>
        <time>2016-06-30T09:11:20.000Z</time>
      </trkpt>
      <trkpt lat="44.17931" lon="5.09643">
        <ele>476</ele>
        <time>2016-06-30T09:11:21.000Z</time>
      </trkpt>
      <trkpt lat="44.1793" lon="5.09643">
        <ele>476</ele>
        <time>2016-06-30T09:11:22.000Z</time>
      </trkpt>
      <trkpt lat="44.1793" lon="5.09643">
        <ele>475</ele>
        <time>2016-06-30T09:11:23.000Z</time>
      </trkpt>
      <trkpt lat="44.1793" lon="5.09643">
        <ele>475</ele>
        <time>2016-06-30T09:11:24.000Z</time>
      </trkpt>
      <trkpt lat="44.1793" lon="5.09643">
        <ele>475</ele>
        <time>2016-06-30T09:11:25.000Z</time>
      </trkpt>
      <trkpt lat="44.1793" lon="5.09643">
        <ele>475</ele>
        <time>2016-06-30T09:11:26.000Z</time>
      </trkpt>
      <trkpt lat="44.1793" lon="5.09643">
        <ele>475</ele>
        <time>2016-06-30T09:11:27.000Z</time>
      </trkpt>
      <trkpt lat="44.1793" lon="5.09643">
        <ele>474</ele>
        <time>2016-06-30T09:11:28.000Z</time>
      </trkpt>
      <trkpt lat="44.1793" lon="5.09643">
        <ele>474</ele>
        <time>2016-06-30T09:11:29.000Z</time>
      </trkpt>
      <trkpt lat="44.1793" lon="5.09643">
        <ele>474</ele>
        <time>2016-06-30T09:11:30.000Z</time>
      </trkpt>
      <trkpt lat="44.1793" lon="5.09643">
        <ele>474</ele>
        <time>2016-06-30T09:11:31.000Z</time>
      </trkpt>
      <trkpt lat="44.1793" lon="5.09643">
        <ele>474</ele>
        <time>2016-06-30T09:11:32.000Z</time>
      </trkpt>
      <trkpt lat="44.1793" lon="5.09643">
        <ele>474</ele>
        <time>2016-06-30T09:11:33.000Z</time>
      </trkpt>
      <trkpt lat="44.1793" lon="5.09643">
        <ele>474</ele>
        <time>2016-06-30T09:11:34.000Z</time>
      </trkpt>
      <trkpt lat="44.1793" lon="5.09643">
        <ele>474</ele>
        <time>2016-06-30T09:11:35.000Z</time>
      </trkpt>
      <trkpt lat="44.1793" lon="5.09643">
        <ele>474</ele>
        <time>2016-06-30T09:11:36.000Z</time>
      </trkpt>
      <trkpt lat="44.1793" lon="5.09642">
        <ele>474</ele>
        <time>2016-06-30T09:11:37.000Z</time>
      </trkpt>
      <trkpt lat="44.1793" lon="5.09642">
        <ele>474</ele>
        <time>2016-06-30T09:11:38.000Z</time>
      </trkpt>
      <trkpt lat="44.1793" lon="5.09642">
        <ele>474</ele>
        <time>2016-06-30T09:11:39.000Z</time>
      </trkpt>
      <trkpt lat="44.1793" lon="5.09642">
        <ele>474</ele>
        <time>2016-06-30T09:11:40.000Z</time>
      </trkpt>
      <trkpt lat="44.1793" lon="5.09642">
        <ele>474</ele>
        <time>2016-06-30T09:11:41.000Z</time>
      </trkpt>
      <trkpt lat="44.1793" lon="5.09642">
        <ele>474</ele>
        <time>2016-06-30T09:11:42.000Z</time>
      </trkpt>
      <trkpt lat="44.1793" lon="5.09642">
        <ele>474</ele>
        <time>2016-06-30T09:11:43.000Z</time>
      </trkpt>
      <trkpt lat="44.1793" lon="5.09642">
        <ele>474</ele>
        <time>2016-06-30T09:11:44.000Z</time>
      </trkpt>
      <trkpt lat="44.1793" lon="5.09642">
        <ele>474</ele>
        <time>2016-06-30T09:11:45.000Z</time>
      </trkpt>
      <trkpt lat="44.1793" lon="5.09642">
        <ele>474</ele>
        <time>2016-06-30T09:11:46.000Z</time>
      </trkpt>
      <trkpt lat="44.1793" lon="5.09642">
        <ele>474</ele>
        <time>2016-06-30T09:11:47.000Z</time>
      </trkpt>
      <trkpt lat="44.1793" lon="5.09642">
        <ele>474</ele>
        <time>2016-06-30T09:11:48.000Z</time>
      </trkpt>
      <trkpt lat="44.1793" lon="5.09642">
        <ele>474</ele>
        <time>2016-06-30T09:11:49.000Z</time>
      </trkpt>
      <trkpt lat="44.1793" lon="5.09642">
        <ele>475</ele>
        <time>2016-06-30T09:11:50.000Z</time>
      </trkpt>
      <trkpt lat="44.1793" lon="5.09642">
        <ele>475</ele>
        <time>2016-06-30T09:11:51.000Z</time>
      </trkpt>
      <trkpt lat="44.1793" lon="5.09642">
        <ele>475</ele>
        <time>2016-06-30T09:11:52.000Z</time>
      </trkpt>
      <trkpt lat="44.1793" lon="5.09642">
        <ele>475</ele>
        <time>2016-06-30T09:11:53.000Z</time>
      </trkpt>
      <trkpt lat="44.1793" lon="5.09642">
        <ele>475</ele>
        <time>2016-06-30T09:11:54.000Z</time>
      </trkpt>
      <trkpt lat="44.1793" lon="5.09642">
        <ele>475</ele>
        <time>2016-06-30T09:11:55.000Z</time>
      </trkpt>
      <trkpt lat="44.1793" lon="5.09642">
        <ele>475</ele>
        <time>2016-06-30T09:11:56.000Z</time>
      </trkpt>
      <trkpt lat="44.1793" lon="5.09642">
        <ele>475</ele>
        <time>2016-06-30T09:11:57.000Z</time>
      </trkpt>
      <trkpt lat="44.1793" lon="5.09642">
        <ele>475</ele>
        <time>2016-06-30T09:11:58.000Z</time>
      </trkpt>
      <trkpt lat="44.1793" lon="5.09642">
        <ele>474</ele>
        <time>2016-06-30T09:11:59.000Z</time>
      </trkpt>
      <trkpt lat="44.1793" lon="5.09642">
        <ele>474</ele>
        <time>2016-06-30T09:12:00.000Z</time>
      </trkpt>
      <trkpt lat="44.1793" lon="5.09642">
        <ele>474</ele>
        <time>2016-06-30T09:12:01.000Z</time>
      </trkpt>
      <trkpt lat="44.1793" lon="5.09642">
        <ele>474</ele>
        <time>2016-06-30T09:12:02.000Z</time>
      </trkpt>
      <trkpt lat="44.1793" lon="5.09643">
        <ele>474</ele>
        <time>2016-06-30T09:12:03.000Z</time>
      </trkpt>
      <trkpt lat="44.1793" lon="5.09643">
        <ele>474</ele>
        <time>2016-06-30T09:12:04.000Z</time>
      </trkpt>
      <trkpt lat="44.17931" lon="5.09644">
        <ele>474</ele>
        <time>2016-06-30T09:12:05.000Z</time>
      </trkpt>
      <trkpt lat="44.17931" lon="5.09645">
        <ele>474</ele>
        <time>2016-06-30T09:12:06.000Z</time>
      </trkpt>
      <trkpt lat="44.17932" lon="5.09646">
        <ele>474</ele>
        <time>2016-06-30T09:12:07.000Z</time>
      </trkpt>
      <trkpt lat="44.17931" lon="5.09647">
        <ele>474</ele>
        <time>2016-06-30T09:12:08.000Z</time>
      </trkpt>
      <trkpt lat="44.17931" lon="5.09647">
        <ele>474</ele>
        <time>2016-06-30T09:12:09.000Z</time>
      </trkpt>
      <trkpt lat="44.17931" lon="5.09647">
        <ele>474</ele>
        <time>2016-06-30T09:12:10.000Z</time>
      </trkpt>
      <trkpt lat="44.1793" lon="5.09646">
        <ele>474</ele>
        <time>2016-06-30T09:12:11.000Z</time>
      </trkpt>
      <trkpt lat="44.1793" lon="5.09646">
        <ele>474</ele>
        <time>2016-06-30T09:12:12.000Z</time>
      </trkpt>
      <trkpt lat="44.1793" lon="5.09646">
        <ele>474</ele>
        <time>2016-06-30T09:12:13.000Z</time>
      </trkpt>
      <trkpt lat="44.1793" lon="5.09646">
        <ele>474</ele>
        <time>2016-06-30T09:12:14.000Z</time>
      </trkpt>
      <trkpt lat="44.1793" lon="5.09646">
        <ele>474</ele>
        <time>2016-06-30T09:12:15.000Z</time>
      </trkpt>
      <trkpt lat="44.1793" lon="5.09647">
        <ele>474</ele>
        <time>2016-06-30T09:12:16.000Z</time>
      </trkpt>
      <trkpt lat="44.1793" lon="5.09647">
        <ele>474</ele>
        <time>2016-06-30T09:12:17.000Z</time>
      </trkpt>
      <trkpt lat="44.1793" lon="5.09647">
        <ele>475</ele>
        <time>2016-06-30T09:12:18.000Z</time>
      </trkpt>
      <trkpt lat="44.1793" lon="5.09647">
        <ele>475</ele>
        <time>2016-06-30T09:12:19.000Z</time>
      </trkpt>
      <trkpt lat="44.1793" lon="5.09647">
        <ele>475</ele>
        <time>2016-06-30T09:12:20.000Z</time>
      </trkpt>
      <trkpt lat="44.1793" lon="5.09647">
        <ele>475</ele>
        <time>2016-06-30T09:12:21.000Z</time>
      </trkpt>
      <trkpt lat="44.1793" lon="5.09647">
        <ele>475</ele>
        <time>2016-06-30T09:12:22.000Z</time>
      </trkpt>
      <trkpt lat="44.1793" lon="5.09647">
        <ele>475</ele>
        <time>2016-06-30T09:12:23.000Z</time>
      </trkpt>
      <trkpt lat="44.17931" lon="5.09647">
        <ele>475</ele>
        <time>2016-06-30T09:12:24.000Z</time>
      </trkpt>
      <trkpt lat="44.17931" lon="5.09647">
        <ele>475</ele>
        <time>2016-06-30T09:12:25.000Z</time>
      </trkpt>
      <trkpt lat="44.17931" lon="5.09647">
        <ele>475</ele>
        <time>2016-06-30T09:12:26.000Z</time>
      </trkpt>
      <trkpt lat="44.17931" lon="5.09647">
        <ele>475</ele>
        <time>2016-06-30T09:12:27.000Z</time>
      </trkpt>
      <trkpt lat="44.17931" lon="5.09647">
        <ele>475</ele>
        <time>2016-06-30T09:12:28.000Z</time>
      </trkpt>
      <trkpt lat="44.17932" lon="5.09647">
        <ele>475</ele>
        <time>2016-06-30T09:12:29.000Z</time>
      </trkpt>
      <trkpt lat="44.17932" lon="5.09647">
        <ele>474</ele>
        <time>2016-06-30T09:12:30.000Z</time>
      </trkpt>
      <trkpt lat="44.17932" lon="5.09647">
        <ele>474</ele>
        <time>2016-06-30T09:12:31.000Z</time>
      </trkpt>
      <trkpt lat="44.17932" lon="5.09647">
        <ele>474</ele>
        <time>2016-06-30T09:12:32.000Z</time>
      </trkpt>
      <trkpt lat="44.17932" lon="5.09647">
        <ele>474</ele>
        <time>2016-06-30T09:12:33.000Z</time>
      </trkpt>
      <trkpt lat="44.17932" lon="5.09647">
        <ele>474</ele>
        <time>2016-06-30T09:12:34.000Z</time>
      </trkpt>
      <trkpt lat="44.17932" lon="5.09647">
        <ele>474</ele>
        <time>2016-06-30T09:12:35.000Z</time>
      </trkpt>
      <trkpt lat="44.17932" lon="5.09647">
        <ele>474</ele>
        <time>2016-06-30T09:12:36.000Z</time>
      </trkpt>
      <trkpt lat="44.17932" lon="5.09647">
        <ele>474</ele>
        <time>2016-06-30T09:12:37.000Z</time>
      </trkpt>
      <trkpt lat="44.17932" lon="5.09647">
        <ele>474</ele>
        <time>2016-06-30T09:12:38.000Z</time>
      </trkpt>
      <trkpt lat="44.17932" lon="5.09647">
        <ele>475</ele>
        <time>2016-06-30T09:12:39.000Z</time>
      </trkpt>
      <trkpt lat="44.17932" lon="5.09647">
        <ele>475</ele>
        <time>2016-06-30T09:12:40.000Z</time>
      </trkpt>
      <trkpt lat="44.17932" lon="5.09647">
        <ele>475</ele>
        <time>2016-06-30T09:12:41.000Z</time>
      </trkpt>
      <trkpt lat="44.17932" lon="5.09647">
        <ele>474</ele>
        <time>2016-06-30T09:12:42.000Z</time>
      </trkpt>
      <trkpt lat="44.17932" lon="5.09647">
        <ele>474</ele>
        <time>2016-06-30T09:12:43.000Z</time>
      </trkpt>
      <trkpt lat="44.17932" lon="5.09647">
        <ele>474</ele>
        <time>2016-06-30T09:12:44.000Z</time>
      </trkpt>
      <trkpt lat="44.17932" lon="5.09647">
        <ele>474</ele>
        <time>2016-06-30T09:12:45.000Z</time>
      </trkpt>
      <trkpt lat="44.17932" lon="5.09647">
        <ele>474</ele>
        <time>2016-06-30T09:12:46.000Z</time>
      </trkpt>
      <trkpt lat="44.17932" lon="5.09647">
        <ele>474</ele>
        <time>2016-06-30T09:12:47.000Z</time>
      </trkpt>
      <trkpt lat="44.17932" lon="5.09646">
        <ele>474</ele>
        <time>2016-06-30T09:12:48.000Z</time>
      </trkpt>
      <trkpt lat="44.17932" lon="5.09646">
        <ele>474</ele>
        <time>2016-06-30T09:12:49.000Z</time>
      </trkpt>
      <trkpt lat="44.17932" lon="5.09646">
        <ele>474</ele>
        <time>2016-06-30T09:12:50.000Z</time>
      </trkpt>
      <trkpt lat="44.17932" lon="5.09646">
        <ele>474</ele>
        <time>2016-06-30T09:12:51.000Z</time>
      </trkpt>
      <trkpt lat="44.17932" lon="5.09646">
        <ele>474</ele>
        <time>2016-06-30T09:12:52.000Z</time>
      </trkpt>
      <trkpt lat="44.17933" lon="5.09647">
        <ele>475</ele>
        <time>2016-06-30T09:12:53.000Z</time>
      </trkpt>
      <trkpt lat="44.17933" lon="5.09647">
        <ele>475</ele>
        <time>2016-06-30T09:12:54.000Z</time>
      </trkpt>
      <trkpt lat="44.17933" lon="5.09647">
        <ele>475</ele>
        <time>2016-06-30T09:12:55.000Z</time>
      </trkpt>
      <trkpt lat="44.17933" lon="5.09647">
        <ele>475</ele>
        <time>2016-06-30T09:12:56.000Z</time>
      </trkpt>
      <trkpt lat="44.17933" lon="5.09647">
        <ele>475</ele>
        <time>2016-06-30T09:12:57.000Z</time>
      </trkpt>
      <trkpt lat="44.17933" lon="5.09647">
        <ele>475</ele>
        <time>2016-06-30T09:12:58.000Z</time>
      </trkpt>
      <trkpt lat="44.17932" lon="5.09647">
        <ele>474</ele>
        <time>2016-06-30T09:12:59.000Z</time>
      </trkpt>
      <trkpt lat="44.17932" lon="5.09647">
        <ele>474</ele>
        <time>2016-06-30T09:13:00.000Z</time>
      </trkpt>
      <trkpt lat="44.17932" lon="5.09647">
        <ele>474</ele>
        <time>2016-06-30T09:13:01.000Z</time>
      </trkpt>
      <trkpt lat="44.17932" lon="5.09647">
        <ele>474</ele>
        <time>2016-06-30T09:13:02.000Z</time>
      </trkpt>
      <trkpt lat="44.17932" lon="5.09647">
        <ele>474</ele>
        <time>2016-06-30T09:13:03.000Z</time>
      </trkpt>
      <trkpt lat="44.17932" lon="5.09647">
        <ele>474</ele>
        <time>2016-06-30T09:13:04.000Z</time>
      </trkpt>
      <trkpt lat="44.17932" lon="5.09647">
        <ele>474</ele>
        <time>2016-06-30T09:13:05.000Z</time>
      </trkpt>
      <trkpt lat="44.17932" lon="5.09648">
        <ele>474</ele>
        <time>2016-06-30T09:13:06.000Z</time>
      </trkpt>
      <trkpt lat="44.17932" lon="5.09648">
        <ele>474</ele>
        <time>2016-06-30T09:13:07.000Z</time>
      </trkpt>
      <trkpt lat="44.17932" lon="5.09648">
        <ele>474</ele>
        <time>2016-06-30T09:13:08.000Z</time>
      </trkpt>
      <trkpt lat="44.17932" lon="5.09648">
        <ele>474</ele>
        <time>2016-06-30T09:13:09.000Z</time>
      </trkpt>
      <trkpt lat="44.17932" lon="5.09647">
        <ele>473</ele>
        <time>2016-06-30T09:13:10.000Z</time>
      </trkpt>
      <trkpt lat="44.17932" lon="5.09647">
        <ele>473</ele>
        <time>2016-06-30T09:13:11.000Z</time>
      </trkpt>
      <trkpt lat="44.17932" lon="5.09647">
        <ele>473</ele>
        <time>2016-06-30T09:13:12.000Z</time>
      </trkpt>
      <trkpt lat="44.17932" lon="5.09647">
        <ele>473</ele>
        <time>2016-06-30T09:13:13.000Z</time>
      </trkpt>
      <trkpt lat="44.17932" lon="5.09647">
        <ele>474</ele>
        <time>2016-06-30T09:13:14.000Z</time>
      </trkpt>
      <trkpt lat="44.17932" lon="5.09647">
        <ele>474</ele>
        <time>2016-06-30T09:13:15.000Z</time>
      </trkpt>
      <trkpt lat="44.17932" lon="5.09647">
        <ele>474</ele>
        <time>2016-06-30T09:13:16.000Z</time>
      </trkpt>
      <trkpt lat="44.17932" lon="5.09647">
        <ele>474</ele>
        <time>2016-06-30T09:13:17.000Z</time>
      </trkpt>
      <trkpt lat="44.17932" lon="5.09647">
        <ele>473</ele>
        <time>2016-06-30T09:13:18.000Z</time>
      </trkpt>
      <trkpt lat="44.17932" lon="5.09647">
        <ele>473</ele>
        <time>2016-06-30T09:13:19.000Z</time>
      </trkpt>
      <trkpt lat="44.17932" lon="5.09647">
        <ele>473</ele>
        <time>2016-06-30T09:13:20.000Z</time>
      </trkpt>
      <trkpt lat="44.17932" lon="5.09647">
        <ele>473</ele>
        <time>2016-06-30T09:13:21.000Z</time>
      </trkpt>
      <trkpt lat="44.17932" lon="5.09647">
        <ele>473</ele>
        <time>2016-06-30T09:13:22.000Z</time>
      </trkpt>
      <trkpt lat="44.17932" lon="5.09647">
        <ele>473</ele>
        <time>2016-06-30T09:13:23.000Z</time>
      </trkpt>
      <trkpt lat="44.17932" lon="5.09647">
        <ele>472</ele>
        <time>2016-06-30T09:13:24.000Z</time>
      </trkpt>
      <trkpt lat="44.17932" lon="5.09647">
        <ele>472</ele>
        <time>2016-06-30T09:13:25.000Z</time>
      </trkpt>
      <trkpt lat="44.17932" lon="5.09647">
        <ele>472</ele>
        <time>2016-06-30T09:13:26.000Z</time>
      </trkpt>
      <trkpt lat="44.17932" lon="5.09647">
        <ele>472</ele>
        <time>2016-06-30T09:13:27.000Z</time>
      </trkpt>
      <trkpt lat="44.17932" lon="5.09647">
        <ele>472</ele>
        <time>2016-06-30T09:13:28.000Z</time>
      </trkpt>
      <trkpt lat="44.17932" lon="5.09646">
        <ele>472</ele>
        <time>2016-06-30T09:13:29.000Z</time>
      </trkpt>
      <trkpt lat="44.17932" lon="5.09646">
        <ele>472</ele>
        <time>2016-06-30T09:13:30.000Z</time>
      </trkpt>
      <trkpt lat="44.17932" lon="5.09646">
        <ele>472</ele>
        <time>2016-06-30T09:13:31.000Z</time>
      </trkpt>
      <trkpt lat="44.17931" lon="5.09646">
        <ele>472</ele>
        <time>2016-06-30T09:13:32.000Z</time>
      </trkpt>
      <trkpt lat="44.17931" lon="5.09646">
        <ele>472</ele>
        <time>2016-06-30T09:13:33.000Z</time>
      </trkpt>
      <trkpt lat="44.17931" lon="5.09646">
        <ele>472</ele>
        <time>2016-06-30T09:13:34.000Z</time>
      </trkpt>
      <trkpt lat="44.17931" lon="5.09646">
        <ele>471</ele>
        <time>2016-06-30T09:13:35.000Z</time>
      </trkpt>
      <trkpt lat="44.17931" lon="5.09646">
        <ele>471</ele>
        <time>2016-06-30T09:13:36.000Z</time>
      </trkpt>
      <trkpt lat="44.17931" lon="5.09646">
        <ele>472</ele>
        <time>2016-06-30T09:13:37.000Z</time>
      </trkpt>
      <trkpt lat="44.17931" lon="5.09646">
        <ele>472</ele>
        <time>2016-06-30T09:13:38.000Z</time>
      </trkpt>
      <trkpt lat="44.17931" lon="5.09646">
        <ele>472</ele>
        <time>2016-06-30T09:13:39.000Z</time>
      </trkpt>
      <trkpt lat="44.17932" lon="5.09646">
        <ele>472</ele>
        <time>2016-06-30T09:13:40.000Z</time>
      </trkpt>
      <trkpt lat="44.17932" lon="5.09646">
        <ele>473</ele>
        <time>2016-06-30T09:13:41.000Z</time>
      </trkpt>
      <trkpt lat="44.17932" lon="5.09646">
        <ele>473</ele>
        <time>2016-06-30T09:13:42.000Z</time>
      </trkpt>
      <trkpt lat="44.17932" lon="5.09646">
        <ele>473</ele>
        <time>2016-06-30T09:13:43.000Z</time>
      </trkpt>
      <trkpt lat="44.17932" lon="5.09646">
        <ele>473</ele>
        <time>2016-06-30T09:13:44.000Z</time>
      </trkpt>
      <trkpt lat="44.17932" lon="5.09646">
        <ele>473</ele>
        <time>2016-06-30T09:13:45.000Z</time>
      </trkpt>
      <trkpt lat="44.17932" lon="5.09646">
        <ele>473</ele>
        <time>2016-06-30T09:13:46.000Z</time>
      </trkpt>
      <trkpt lat="44.17932" lon="5.09646">
        <ele>473</ele>
        <time>2016-06-30T09:13:47.000Z</time>
      </trkpt>
      <trkpt lat="44.17932" lon="5.09646">
        <ele>473</ele>
        <time>2016-06-30T09:13:48.000Z</time>
      </trkpt>
      <trkpt lat="44.17932" lon="5.09646">
        <ele>473</ele>
        <time>2016-06-30T09:13:49.000Z</time>
      </trkpt>
      <trkpt lat="44.17933" lon="5.09646">
        <ele>473</ele>
        <time>2016-06-30T09:13:50.000Z</time>
      </trkpt>
      <trkpt lat="44.17935" lon="5.09645">
        <ele>474</ele>
        <time>2016-06-30T09:13:51.000Z</time>
      </trkpt>
      <trkpt lat="44.17937" lon="5.09643">
        <ele>474</ele>
        <time>2016-06-30T09:13:52.000Z</time>
      </trkpt>
      <trkpt lat="44.1794" lon="5.09642">
        <ele>475</ele>
        <time>2016-06-30T09:13:53.000Z</time>
      </trkpt>
      <trkpt lat="44.17943" lon="5.0964">
        <ele>475</ele>
        <time>2016-06-30T09:13:54.000Z</time>
      </trkpt>
      <trkpt lat="44.17946" lon="5.09637">
        <ele>474</ele>
        <time>2016-06-30T09:13:55.000Z</time>
      </trkpt>
      <trkpt lat="44.17949" lon="5.09634">
        <ele>475</ele>
        <time>2016-06-30T09:13:56.000Z</time>
      </trkpt>
      <trkpt lat="44.17952" lon="5.09631">
        <ele>475</ele>
        <time>2016-06-30T09:13:57.000Z</time>
      </trkpt>
      <trkpt lat="44.17955" lon="5.09627">
        <ele>475</ele>
        <time>2016-06-30T09:13:58.000Z</time>
      </trkpt>
      <trkpt lat="44.17957" lon="5.09625">
        <ele>475</ele>
        <time>2016-06-30T09:13:59.000Z</time>
      </trkpt>
      <trkpt lat="44.17959" lon="5.09622">
        <ele>475</ele>
        <time>2016-06-30T09:14:00.000Z</time>
      </trkpt>
      <trkpt lat="44.17961" lon="5.09619">
        <ele>475</ele>
        <time>2016-06-30T09:14:01.000Z</time>
      </trkpt>
      <trkpt lat="44.17964" lon="5.09617">
        <ele>476</ele>
        <time>2016-06-30T09:14:02.000Z</time>
      </trkpt>
      <trkpt lat="44.17965" lon="5.09615">
        <ele>476</ele>
        <time>2016-06-30T09:14:03.000Z</time>
      </trkpt>
      <trkpt lat="44.17967" lon="5.09613">
        <ele>476</ele>
        <time>2016-06-30T09:14:04.000Z</time>
      </trkpt>
      <trkpt lat="44.17968" lon="5.09611">
        <ele>476</ele>
        <time>2016-06-30T09:14:05.000Z</time>
      </trkpt>
      <trkpt lat="44.17969" lon="5.09611">
        <ele>476</ele>
        <time>2016-06-30T09:14:06.000Z</time>
      </trkpt>
      <trkpt lat="44.1797" lon="5.0961">
        <ele>477</ele>
        <time>2016-06-30T09:14:07.000Z</time>
      </trkpt>
      <trkpt lat="44.1797" lon="5.0961">
        <ele>476</ele>
        <time>2016-06-30T09:14:08.000Z</time>
      </trkpt>
      <trkpt lat="44.1797" lon="5.0961">
        <ele>477</ele>
        <time>2016-06-30T09:14:09.000Z</time>
      </trkpt>
      <trkpt lat="44.1797" lon="5.0961">
        <ele>477</ele>
        <time>2016-06-30T09:14:10.000Z</time>
      </trkpt>
      <trkpt lat="44.1797" lon="5.0961">
        <ele>477</ele>
        <time>2016-06-30T09:14:11.000Z</time>
      </trkpt>
      <trkpt lat="44.1797" lon="5.0961">
        <ele>477</ele>
        <time>2016-06-30T09:14:12.000Z</time>
      </trkpt>
      <trkpt lat="44.1797" lon="5.0961">
        <ele>477</ele>
        <time>2016-06-30T09:14:13.000Z</time>
      </trkpt>
      <trkpt lat="44.1797" lon="5.0961">
        <ele>477</ele>
        <time>2016-06-30T09:14:14.000Z</time>
      </trkpt>
      <trkpt lat="44.1797" lon="5.0961">
        <ele>477</ele>
        <time>2016-06-30T09:14:15.000Z</time>
      </trkpt>
      <trkpt lat="44.1797" lon="5.0961">
        <ele>477</ele>
        <time>2016-06-30T09:14:16.000Z</time>
      </trkpt>
      <trkpt lat="44.1797" lon="5.0961">
        <ele>477</ele>
        <time>2016-06-30T09:14:17.000Z</time>
      </trkpt>
      <trkpt lat="44.1797" lon="5.0961">
        <ele>477</ele>
        <time>2016-06-30T09:14:18.000Z</time>
      </trkpt>
      <trkpt lat="44.17969" lon="5.0961">
        <ele>477</ele>
        <time>2016-06-30T09:14:19.000Z</time>
      </trkpt>
      <trkpt lat="44.17969" lon="5.0961">
        <ele>477</ele>
        <time>2016-06-30T09:14:20.000Z</time>
      </trkpt>
      <trkpt lat="44.17969" lon="5.0961">
        <ele>477</ele>
        <time>2016-06-30T09:14:21.000Z</time>
      </trkpt>
      <trkpt lat="44.17969" lon="5.0961">
        <ele>477</ele>
        <time>2016-06-30T09:14:22.000Z</time>
      </trkpt>
      <trkpt lat="44.1797" lon="5.0961">
        <ele>477</ele>
        <time>2016-06-30T09:14:23.000Z</time>
      </trkpt>
      <trkpt lat="44.1797" lon="5.0961">
        <ele>477</ele>
        <time>2016-06-30T09:14:24.000Z</time>
      </trkpt>
      <trkpt lat="44.1797" lon="5.0961">
        <ele>477</ele>
        <time>2016-06-30T09:14:25.000Z</time>
      </trkpt>
      <trkpt lat="44.1797" lon="5.09611">
        <ele>477</ele>
        <time>2016-06-30T09:14:26.000Z</time>
      </trkpt>
      <trkpt lat="44.1797" lon="5.09611">
        <ele>476</ele>
        <time>2016-06-30T09:14:27.000Z</time>
      </trkpt>
      <trkpt lat="44.17969" lon="5.09611">
        <ele>476</ele>
        <time>2016-06-30T09:14:28.000Z</time>
      </trkpt>
      <trkpt lat="44.17969" lon="5.0961">
        <ele>476</ele>
        <time>2016-06-30T09:14:29.000Z</time>
      </trkpt>
      <trkpt lat="44.1797" lon="5.0961">
        <ele>476</ele>
        <time>2016-06-30T09:14:30.000Z</time>
      </trkpt>
      <trkpt lat="44.1797" lon="5.0961">
        <ele>476</ele>
        <time>2016-06-30T09:14:31.000Z</time>
      </trkpt>
      <trkpt lat="44.1797" lon="5.0961">
        <ele>476</ele>
        <time>2016-06-30T09:14:32.000Z</time>
      </trkpt>
      <trkpt lat="44.1797" lon="5.09609">
        <ele>476</ele>
        <time>2016-06-30T09:14:33.000Z</time>
      </trkpt>
      <trkpt lat="44.17971" lon="5.09608">
        <ele>476</ele>
        <time>2016-06-30T09:14:34.000Z</time>
      </trkpt>
      <trkpt lat="44.17972" lon="5.09605">
        <ele>477</ele>
        <time>2016-06-30T09:14:35.000Z</time>
      </trkpt>
      <trkpt lat="44.17973" lon="5.09602">
        <ele>477</ele>
        <time>2016-06-30T09:14:36.000Z</time>
      </trkpt>
      <trkpt lat="44.17976" lon="5.09599">
        <ele>477</ele>
        <time>2016-06-30T09:14:37.000Z</time>
      </trkpt>
      <trkpt lat="44.17978" lon="5.09595">
        <ele>477</ele>
        <time>2016-06-30T09:14:38.000Z</time>
      </trkpt>
      <trkpt lat="44.17981" lon="5.09592">
        <ele>477</ele>
        <time>2016-06-30T09:14:39.000Z</time>
      </trkpt>
      <trkpt lat="44.17984" lon="5.09588">
        <ele>477</ele>
        <time>2016-06-30T09:14:40.000Z</time>
      </trkpt>
      <trkpt lat="44.17987" lon="5.09584">
        <ele>478</ele>
        <time>2016-06-30T09:14:41.000Z</time>
      </trkpt>
      <trkpt lat="44.1799" lon="5.0958">
        <ele>478</ele>
        <time>2016-06-30T09:14:42.000Z</time>
      </trkpt>
      <trkpt lat="44.17993" lon="5.09577">
        <ele>478</ele>
        <time>2016-06-30T09:14:43.000Z</time>
      </trkpt>
      <trkpt lat="44.17996" lon="5.09573">
        <ele>478</ele>
        <time>2016-06-30T09:14:44.000Z</time>
      </trkpt>
      <trkpt lat="44.17998" lon="5.09569">
        <ele>478</ele>
        <time>2016-06-30T09:14:45.000Z</time>
      </trkpt>
      <trkpt lat="44.18001" lon="5.09565">
        <ele>478</ele>
        <time>2016-06-30T09:14:46.000Z</time>
      </trkpt>
      <trkpt lat="44.18004" lon="5.09562">
        <ele>478</ele>
        <time>2016-06-30T09:14:47.000Z</time>
      </trkpt>
      <trkpt lat="44.18006" lon="5.09558">
        <ele>478</ele>
        <time>2016-06-30T09:14:48.000Z</time>
      </trkpt>
      <trkpt lat="44.18009" lon="5.09555">
        <ele>478</ele>
        <time>2016-06-30T09:14:49.000Z</time>
      </trkpt>
      <trkpt lat="44.18011" lon="5.09552">
        <ele>478</ele>
        <time>2016-06-30T09:14:50.000Z</time>
      </trkpt>
      <trkpt lat="44.18013" lon="5.09549">
        <ele>478</ele>
        <time>2016-06-30T09:14:51.000Z</time>
      </trkpt>
      <trkpt lat="44.18015" lon="5.09546">
        <ele>479</ele>
        <time>2016-06-30T09:14:52.000Z</time>
      </trkpt>
      <trkpt lat="44.18017" lon="5.09542">
        <ele>479</ele>
        <time>2016-06-30T09:14:53.000Z</time>
      </trkpt>
      <trkpt lat="44.1802" lon="5.09538">
        <ele>479</ele>
        <time>2016-06-30T09:14:54.000Z</time>
      </trkpt>
      <trkpt lat="44.18022" lon="5.09533">
        <ele>479</ele>
        <time>2016-06-30T09:14:55.000Z</time>
      </trkpt>
      <trkpt lat="44.18024" lon="5.09529">
        <ele>479</ele>
        <time>2016-06-30T09:14:56.000Z</time>
      </trkpt>
      <trkpt lat="44.18026" lon="5.09525">
        <ele>479</ele>
        <time>2016-06-30T09:14:57.000Z</time>
      </trkpt>
      <trkpt lat="44.18028" lon="5.09521">
        <ele>479</ele>
        <time>2016-06-30T09:14:58.000Z</time>
      </trkpt>
      <trkpt lat="44.1803" lon="5.09517">
        <ele>480</ele>
        <time>2016-06-30T09:14:59.000Z</time>
      </trkpt>
      <trkpt lat="44.18032" lon="5.09513">
        <ele>480</ele>
        <time>2016-06-30T09:15:00.000Z</time>
      </trkpt>
      <trkpt lat="44.18034" lon="5.09508">
        <ele>480</ele>
        <time>2016-06-30T09:15:01.000Z</time>
      </trkpt>
      <trkpt lat="44.18036" lon="5.09504">
        <ele>479</ele>
        <time>2016-06-30T09:15:02.000Z</time>
      </trkpt>
      <trkpt lat="44.18037" lon="5.09499">
        <ele>479</ele>
        <time>2016-06-30T09:15:03.000Z</time>
      </trkpt>
      <trkpt lat="44.18039" lon="5.09494">
        <ele>479</ele>
        <time>2016-06-30T09:15:04.000Z</time>
      </trkpt>
      <trkpt lat="44.1804" lon="5.09489">
        <ele>479</ele>
        <time>2016-06-30T09:15:05.000Z</time>
      </trkpt>
      <trkpt lat="44.18041" lon="5.09483">
        <ele>479</ele>
        <time>2016-06-30T09:15:06.000Z</time>
      </trkpt>
      <trkpt lat="44.18043" lon="5.09478">
        <ele>479</ele>
        <time>2016-06-30T09:15:07.000Z</time>
      </trkpt>
      <trkpt lat="44.18043" lon="5.09473">
        <ele>478</ele>
        <time>2016-06-30T09:15:08.000Z</time>
      </trkpt>
      <trkpt lat="44.18044" lon="5.09467">
        <ele>478</ele>
        <time>2016-06-30T09:15:09.000Z</time>
      </trkpt>
      <trkpt lat="44.18045" lon="5.09462">
        <ele>478</ele>
        <time>2016-06-30T09:15:10.000Z</time>
      </trkpt>
      <trkpt lat="44.18045" lon="5.09456">
        <ele>477</ele>
        <time>2016-06-30T09:15:11.000Z</time>
      </trkpt>
      <trkpt lat="44.18045" lon="5.0945">
        <ele>477</ele>
        <time>2016-06-30T09:15:12.000Z</time>
      </trkpt>
      <trkpt lat="44.18045" lon="5.09444">
        <ele>477</ele>
        <time>2016-06-30T09:15:13.000Z</time>
      </trkpt>
      <trkpt lat="44.18044" lon="5.09437">
        <ele>476</ele>
        <time>2016-06-30T09:15:14.000Z</time>
      </trkpt>
      <trkpt lat="44.18043" lon="5.09431">
        <ele>476</ele>
        <time>2016-06-30T09:15:15.000Z</time>
      </trkpt>
      <trkpt lat="44.18041" lon="5.09424">
        <ele>475</ele>
        <time>2016-06-30T09:15:16.000Z</time>
      </trkpt>
      <trkpt lat="44.18039" lon="5.09417">
        <ele>478</ele>
        <time>2016-06-30T09:15:17.000Z</time>
      </trkpt>
      <trkpt lat="44.18035" lon="5.09409">
        <ele>479</ele>
        <time>2016-06-30T09:15:18.000Z</time>
      </trkpt>
      <trkpt lat="44.18031" lon="5.09402">
        <ele>479</ele>
        <time>2016-06-30T09:15:19.000Z</time>
      </trkpt>
      <trkpt lat="44.18027" lon="5.09394">
        <ele>478</ele>
        <time>2016-06-30T09:15:20.000Z</time>
      </trkpt>
      <trkpt lat="44.18023" lon="5.09387">
        <ele>478</ele>
        <time>2016-06-30T09:15:21.000Z</time>
      </trkpt>
      <trkpt lat="44.18018" lon="5.0938">
        <ele>477</ele>
        <time>2016-06-30T09:15:22.000Z</time>
      </trkpt>
      <trkpt lat="44.18014" lon="5.09372">
        <ele>477</ele>
        <time>2016-06-30T09:15:23.000Z</time>
      </trkpt>
      <trkpt lat="44.1801" lon="5.09365">
        <ele>477</ele>
        <time>2016-06-30T09:15:24.000Z</time>
      </trkpt>
      <trkpt lat="44.18006" lon="5.09357">
        <ele>476</ele>
        <time>2016-06-30T09:15:25.000Z</time>
      </trkpt>
      <trkpt lat="44.18002" lon="5.09349">
        <ele>476</ele>
        <time>2016-06-30T09:15:26.000Z</time>
      </trkpt>
      <trkpt lat="44.17998" lon="5.09341">
        <ele>475</ele>
        <time>2016-06-30T09:15:27.000Z</time>
      </trkpt>
      <trkpt lat="44.17994" lon="5.09334">
        <ele>475</ele>
        <time>2016-06-30T09:15:28.000Z</time>
      </trkpt>
      <trkpt lat="44.1799" lon="5.09327">
        <ele>474</ele>
        <time>2016-06-30T09:15:29.000Z</time>
      </trkpt>
      <trkpt lat="44.17985" lon="5.0932">
        <ele>474</ele>
        <time>2016-06-30T09:15:30.000Z</time>
      </trkpt>
      <trkpt lat="44.17981" lon="5.09314">
        <ele>474</ele>
        <time>2016-06-30T09:15:31.000Z</time>
      </trkpt>
      <trkpt lat="44.17977" lon="5.09308">
        <ele>473</ele>
        <time>2016-06-30T09:15:32.000Z</time>
      </trkpt>
      <trkpt lat="44.17974" lon="5.09302">
        <ele>473</ele>
        <time>2016-06-30T09:15:33.000Z</time>
      </trkpt>
      <trkpt lat="44.17971" lon="5.09296">
        <ele>473</ele>
        <time>2016-06-30T09:15:34.000Z</time>
      </trkpt>
      <trkpt lat="44.17969" lon="5.09289">
        <ele>471</ele>
        <time>2016-06-30T09:15:35.000Z</time>
      </trkpt>
      <trkpt lat="44.17968" lon="5.09282">
        <ele>470</ele>
        <time>2016-06-30T09:15:36.000Z</time>
      </trkpt>
      <trkpt lat="44.17969" lon="5.09274">
        <ele>471</ele>
        <time>2016-06-30T09:15:37.000Z</time>
      </trkpt>
      <trkpt lat="44.17972" lon="5.09267">
        <ele>471</ele>
        <time>2016-06-30T09:15:38.000Z</time>
      </trkpt>
      <trkpt lat="44.17976" lon="5.09261">
        <ele>472</ele>
        <time>2016-06-30T09:15:39.000Z</time>
      </trkpt>
      <trkpt lat="44.1798" lon="5.09254">
        <ele>471</ele>
        <time>2016-06-30T09:15:40.000Z</time>
      </trkpt>
      <trkpt lat="44.17985" lon="5.09248">
        <ele>470</ele>
        <time>2016-06-30T09:15:41.000Z</time>
      </trkpt>
      <trkpt lat="44.17989" lon="5.09242">
        <ele>469</ele>
        <time>2016-06-30T09:15:42.000Z</time>
      </trkpt>
      <trkpt lat="44.17994" lon="5.09235">
        <ele>469</ele>
        <time>2016-06-30T09:15:43.000Z</time>
      </trkpt>
      <trkpt lat="44.18" lon="5.09229">
        <ele>469</ele>
        <time>2016-06-30T09:15:44.000Z</time>
      </trkpt>
      <trkpt lat="44.18005" lon="5.09222">
        <ele>468</ele>
        <time>2016-06-30T09:15:45.000Z</time>
      </trkpt>
      <trkpt lat="44.1801" lon="5.09216">
        <ele>467</ele>
        <time>2016-06-30T09:15:46.000Z</time>
      </trkpt>
      <trkpt lat="44.18015" lon="5.09209">
        <ele>467</ele>
        <time>2016-06-30T09:15:47.000Z</time>
      </trkpt>
      <trkpt lat="44.1802" lon="5.09203">
        <ele>467</ele>
        <time>2016-06-30T09:15:48.000Z</time>
      </trkpt>
      <trkpt lat="44.18026" lon="5.09197">
        <ele>466</ele>
        <time>2016-06-30T09:15:49.000Z</time>
      </trkpt>
      <trkpt lat="44.1803" lon="5.09191">
        <ele>466</ele>
        <time>2016-06-30T09:15:50.000Z</time>
      </trkpt>
      <trkpt lat="44.18035" lon="5.09185">
        <ele>465</ele>
        <time>2016-06-30T09:15:51.000Z</time>
      </trkpt>
      <trkpt lat="44.1804" lon="5.09179">
        <ele>465</ele>
        <time>2016-06-30T09:15:52.000Z</time>
      </trkpt>
      <trkpt lat="44.18045" lon="5.09174">
        <ele>465</ele>
        <time>2016-06-30T09:15:53.000Z</time>
      </trkpt>
      <trkpt lat="44.1805" lon="5.09169">
        <ele>464</ele>
        <time>2016-06-30T09:15:54.000Z</time>
      </trkpt>
      <trkpt lat="44.18055" lon="5.09165">
        <ele>464</ele>
        <time>2016-06-30T09:15:55.000Z</time>
      </trkpt>
      <trkpt lat="44.1806" lon="5.09162">
        <ele>464</ele>
        <time>2016-06-30T09:15:56.000Z</time>
      </trkpt>
      <trkpt lat="44.18066" lon="5.0916">
        <ele>464</ele>
        <time>2016-06-30T09:15:57.000Z</time>
      </trkpt>
      <trkpt lat="44.18072" lon="5.09159">
        <ele>464</ele>
        <time>2016-06-30T09:15:58.000Z</time>
      </trkpt>
      <trkpt lat="44.18077" lon="5.09159">
        <ele>464</ele>
        <time>2016-06-30T09:15:59.000Z</time>
      </trkpt>
      <trkpt lat="44.18082" lon="5.0916">
        <ele>464</ele>
        <time>2016-06-30T09:16:00.000Z</time>
      </trkpt>
      <trkpt lat="44.18087" lon="5.09161">
        <ele>463</ele>
        <time>2016-06-30T09:16:01.000Z</time>
      </trkpt>
      <trkpt lat="44.18092" lon="5.09161">
        <ele>463</ele>
        <time>2016-06-30T09:16:02.000Z</time>
      </trkpt>
      <trkpt lat="44.18097" lon="5.0916">
        <ele>462</ele>
        <time>2016-06-30T09:16:03.000Z</time>
      </trkpt>
      <trkpt lat="44.18103" lon="5.09158">
        <ele>462</ele>
        <time>2016-06-30T09:16:04.000Z</time>
      </trkpt>
      <trkpt lat="44.18108" lon="5.09155">
        <ele>462</ele>
        <time>2016-06-30T09:16:05.000Z</time>
      </trkpt>
      <trkpt lat="44.18112" lon="5.09151">
        <ele>461</ele>
        <time>2016-06-30T09:16:06.000Z</time>
      </trkpt>
      <trkpt lat="44.18117" lon="5.09146">
        <ele>461</ele>
        <time>2016-06-30T09:16:07.000Z</time>
      </trkpt>
      <trkpt lat="44.18121" lon="5.0914">
        <ele>460</ele>
        <time>2016-06-30T09:16:08.000Z</time>
      </trkpt>
      <trkpt lat="44.18125" lon="5.09133">
        <ele>459</ele>
        <time>2016-06-30T09:16:09.000Z</time>
      </trkpt>
      <trkpt lat="44.18128" lon="5.09126">
        <ele>458</ele>
        <time>2016-06-30T09:16:10.000Z</time>
      </trkpt>
      <trkpt lat="44.18131" lon="5.09119">
        <ele>457</ele>
        <time>2016-06-30T09:16:11.000Z</time>
      </trkpt>
      <trkpt lat="44.18133" lon="5.09111">
        <ele>456</ele>
        <time>2016-06-30T09:16:12.000Z</time>
      </trkpt>
      <trkpt lat="44.18135" lon="5.09102">
        <ele>454</ele>
        <time>2016-06-30T09:16:13.000Z</time>
      </trkpt>
      <trkpt lat="44.18136" lon="5.09094">
        <ele>452</ele>
        <time>2016-06-30T09:16:14.000Z</time>
      </trkpt>
      <trkpt lat="44.18136" lon="5.09085">
        <ele>450</ele>
        <time>2016-06-30T09:16:15.000Z</time>
      </trkpt>
      <trkpt lat="44.18136" lon="5.09076">
        <ele>448</ele>
        <time>2016-06-30T09:16:16.000Z</time>
      </trkpt>
      <trkpt lat="44.18136" lon="5.09066">
        <ele>447</ele>
        <time>2016-06-30T09:16:17.000Z</time>
      </trkpt>
      <trkpt lat="44.18136" lon="5.09057">
        <ele>445</ele>
        <time>2016-06-30T09:16:18.000Z</time>
      </trkpt>
      <trkpt lat="44.18135" lon="5.09048">
        <ele>446</ele>
        <time>2016-06-30T09:16:19.000Z</time>
      </trkpt>
      <trkpt lat="44.18135" lon="5.09039">
        <ele>447</ele>
        <time>2016-06-30T09:16:20.000Z</time>
      </trkpt>
      <trkpt lat="44.18134" lon="5.0903">
        <ele>447</ele>
        <time>2016-06-30T09:16:21.000Z</time>
      </trkpt>
      <trkpt lat="44.18134" lon="5.09021">
        <ele>447</ele>
        <time>2016-06-30T09:16:22.000Z</time>
      </trkpt>
      <trkpt lat="44.18134" lon="5.09012">
        <ele>447</ele>
        <time>2016-06-30T09:16:23.000Z</time>
      </trkpt>
      <trkpt lat="44.18134" lon="5.09003">
        <ele>448</ele>
        <time>2016-06-30T09:16:24.000Z</time>
      </trkpt>
      <trkpt lat="44.18132" lon="5.08995">
        <ele>449</ele>
        <time>2016-06-30T09:16:25.000Z</time>
      </trkpt>
      <trkpt lat="44.18129" lon="5.08987">
        <ele>449</ele>
        <time>2016-06-30T09:16:26.000Z</time>
      </trkpt>
      <trkpt lat="44.18126" lon="5.08981">
        <ele>449</ele>
        <time>2016-06-30T09:16:27.000Z</time>
      </trkpt>
      <trkpt lat="44.18121" lon="5.08975">
        <ele>448</ele>
        <time>2016-06-30T09:16:28.000Z</time>
      </trkpt>
      <trkpt lat="44.18116" lon="5.08971">
        <ele>447</ele>
        <time>2016-06-30T09:16:29.000Z</time>
      </trkpt>
      <trkpt lat="44.1811" lon="5.08968">
        <ele>448</ele>
        <time>2016-06-30T09:16:30.000Z</time>
      </trkpt>
      <trkpt lat="44.18104" lon="5.08965">
        <ele>447</ele>
        <time>2016-06-30T09:16:31.000Z</time>
      </trkpt>
      <trkpt lat="44.18097" lon="5.08963">
        <ele>448</ele>
        <time>2016-06-30T09:16:32.000Z</time>
      </trkpt>
      <trkpt lat="44.18091" lon="5.08962">
        <ele>448</ele>
        <time>2016-06-30T09:16:33.000Z</time>
      </trkpt>
      <trkpt lat="44.18084" lon="5.0896">
        <ele>449</ele>
        <time>2016-06-30T09:16:34.000Z</time>
      </trkpt>
      <trkpt lat="44.18078" lon="5.08959">
        <ele>449</ele>
        <time>2016-06-30T09:16:35.000Z</time>
      </trkpt>
      <trkpt lat="44.18071" lon="5.08958">
        <ele>450</ele>
        <time>2016-06-30T09:16:36.000Z</time>
      </trkpt>
      <trkpt lat="44.18065" lon="5.08957">
        <ele>450</ele>
        <time>2016-06-30T09:16:37.000Z</time>
      </trkpt>
      <trkpt lat="44.18059" lon="5.08956">
        <ele>451</ele>
        <time>2016-06-30T09:16:38.000Z</time>
      </trkpt>
      <trkpt lat="44.18054" lon="5.08956">
        <ele>451</ele>
        <time>2016-06-30T09:16:39.000Z</time>
      </trkpt>
      <trkpt lat="44.18049" lon="5.08956">
        <ele>451</ele>
        <time>2016-06-30T09:16:40.000Z</time>
      </trkpt>
      <trkpt lat="44.18043" lon="5.08956">
        <ele>451</ele>
        <time>2016-06-30T09:16:41.000Z</time>
      </trkpt>
      <trkpt lat="44.18038" lon="5.08955">
        <ele>452</ele>
        <time>2016-06-30T09:16:42.000Z</time>
      </trkpt>
      <trkpt lat="44.18033" lon="5.08955">
        <ele>452</ele>
        <time>2016-06-30T09:16:43.000Z</time>
      </trkpt>
      <trkpt lat="44.18027" lon="5.08955">
        <ele>452</ele>
        <time>2016-06-30T09:16:44.000Z</time>
      </trkpt>
      <trkpt lat="44.18022" lon="5.08954">
        <ele>453</ele>
        <time>2016-06-30T09:16:45.000Z</time>
      </trkpt>
      <trkpt lat="44.18017" lon="5.08954">
        <ele>454</ele>
        <time>2016-06-30T09:16:46.000Z</time>
      </trkpt>
      <trkpt lat="44.18013" lon="5.08954">
        <ele>454</ele>
        <time>2016-06-30T09:16:47.000Z</time>
      </trkpt>
      <trkpt lat="44.18008" lon="5.08954">
        <ele>454</ele>
        <time>2016-06-30T09:16:48.000Z</time>
      </trkpt>
      <trkpt lat="44.18003" lon="5.08953">
        <ele>455</ele>
        <time>2016-06-30T09:16:49.000Z</time>
      </trkpt>
      <trkpt lat="44.17998" lon="5.08953">
        <ele>455</ele>
        <time>2016-06-30T09:16:50.000Z</time>
      </trkpt>
      <trkpt lat="44.17993" lon="5.08953">
        <ele>455</ele>
        <time>2016-06-30T09:16:51.000Z</time>
      </trkpt>
      <trkpt lat="44.17988" lon="5.08954">
        <ele>456</ele>
        <time>2016-06-30T09:16:52.000Z</time>
      </trkpt>
      <trkpt lat="44.17983" lon="5.08954">
        <ele>456</ele>
        <time>2016-06-30T09:16:53.000Z</time>
      </trkpt>
      <trkpt lat="44.17978" lon="5.08955">
        <ele>456</ele>
        <time>2016-06-30T09:16:54.000Z</time>
      </trkpt>
      <trkpt lat="44.17973" lon="5.08956">
        <ele>457</ele>
        <time>2016-06-30T09:16:55.000Z</time>
      </trkpt>
      <trkpt lat="44.17968" lon="5.08957">
        <ele>457</ele>
        <time>2016-06-30T09:16:56.000Z</time>
      </trkpt>
      <trkpt lat="44.17963" lon="5.08958">
        <ele>457</ele>
        <time>2016-06-30T09:16:57.000Z</time>
      </trkpt>
      <trkpt lat="44.17958" lon="5.0896">
        <ele>458</ele>
        <time>2016-06-30T09:16:58.000Z</time>
      </trkpt>
      <trkpt lat="44.17954" lon="5.08962">
        <ele>458</ele>
        <time>2016-06-30T09:16:59.000Z</time>
      </trkpt>
      <trkpt lat="44.17949" lon="5.08964">
        <ele>458</ele>
        <time>2016-06-30T09:17:00.000Z</time>
      </trkpt>
      <trkpt lat="44.17944" lon="5.08964">
        <ele>458</ele>
        <time>2016-06-30T09:17:01.000Z</time>
      </trkpt>
      <trkpt lat="44.1794" lon="5.08965">
        <ele>459</ele>
        <time>2016-06-30T09:17:02.000Z</time>
      </trkpt>
      <trkpt lat="44.17935" lon="5.08964">
        <ele>459</ele>
        <time>2016-06-30T09:17:03.000Z</time>
      </trkpt>
      <trkpt lat="44.1793" lon="5.08962">
        <ele>460</ele>
        <time>2016-06-30T09:17:04.000Z</time>
      </trkpt>
      <trkpt lat="44.17926" lon="5.0896">
        <ele>460</ele>
        <time>2016-06-30T09:17:05.000Z</time>
      </trkpt>
      <trkpt lat="44.17921" lon="5.08957">
        <ele>460</ele>
        <time>2016-06-30T09:17:06.000Z</time>
      </trkpt>
      <trkpt lat="44.17916" lon="5.08955">
        <ele>460</ele>
        <time>2016-06-30T09:17:07.000Z</time>
      </trkpt>
      <trkpt lat="44.17912" lon="5.08954">
        <ele>460</ele>
        <time>2016-06-30T09:17:08.000Z</time>
      </trkpt>
      <trkpt lat="44.17907" lon="5.08953">
        <ele>461</ele>
        <time>2016-06-30T09:17:09.000Z</time>
      </trkpt>
      <trkpt lat="44.17903" lon="5.08953">
        <ele>461</ele>
        <time>2016-06-30T09:17:10.000Z</time>
      </trkpt>
      <trkpt lat="44.17899" lon="5.08953">
        <ele>461</ele>
        <time>2016-06-30T09:17:11.000Z</time>
      </trkpt>
      <trkpt lat="44.17894" lon="5.08953">
        <ele>461</ele>
        <time>2016-06-30T09:17:12.000Z</time>
      </trkpt>
      <trkpt lat="44.1789" lon="5.08952">
        <ele>461</ele>
        <time>2016-06-30T09:17:13.000Z</time>
      </trkpt>
      <trkpt lat="44.17886" lon="5.0895">
        <ele>461</ele>
        <time>2016-06-30T09:17:14.000Z</time>
      </trkpt>
      <trkpt lat="44.17882" lon="5.08947">
        <ele>461</ele>
        <time>2016-06-30T09:17:15.000Z</time>
      </trkpt>
      <trkpt lat="44.17879" lon="5.08943">
        <ele>460</ele>
        <time>2016-06-30T09:17:16.000Z</time>
      </trkpt>
      <trkpt lat="44.17875" lon="5.0894">
        <ele>460</ele>
        <time>2016-06-30T09:17:17.000Z</time>
      </trkpt>
      <trkpt lat="44.17871" lon="5.08935">
        <ele>460</ele>
        <time>2016-06-30T09:17:18.000Z</time>
      </trkpt>
      <trkpt lat="44.17867" lon="5.0893">
        <ele>459</ele>
        <time>2016-06-30T09:17:19.000Z</time>
      </trkpt>
      <trkpt lat="44.17864" lon="5.08924">
        <ele>458</ele>
        <time>2016-06-30T09:17:20.000Z</time>
      </trkpt>
      <trkpt lat="44.17861" lon="5.08917">
        <ele>458</ele>
        <time>2016-06-30T09:17:21.000Z</time>
      </trkpt>
      <trkpt lat="44.1786" lon="5.0891">
        <ele>457</ele>
        <time>2016-06-30T09:17:22.000Z</time>
      </trkpt>
      <trkpt lat="44.1786" lon="5.08901">
        <ele>457</ele>
        <time>2016-06-30T09:17:23.000Z</time>
      </trkpt>
      <trkpt lat="44.1786" lon="5.08893">
        <ele>457</ele>
        <time>2016-06-30T09:17:24.000Z</time>
      </trkpt>
      <trkpt lat="44.17861" lon="5.08884">
        <ele>457</ele>
        <time>2016-06-30T09:17:25.000Z</time>
      </trkpt>
      <trkpt lat="44.17863" lon="5.08876">
        <ele>456</ele>
        <time>2016-06-30T09:17:26.000Z</time>
      </trkpt>
      <trkpt lat="44.17864" lon="5.08867">
        <ele>455</ele>
        <time>2016-06-30T09:17:27.000Z</time>
      </trkpt>
      <trkpt lat="44.17866" lon="5.08859">
        <ele>455</ele>
        <time>2016-06-30T09:17:28.000Z</time>
      </trkpt>
      <trkpt lat="44.17867" lon="5.08851">
        <ele>454</ele>
        <time>2016-06-30T09:17:29.000Z</time>
      </trkpt>
      <trkpt lat="44.17866" lon="5.08842">
        <ele>454</ele>
        <time>2016-06-30T09:17:30.000Z</time>
      </trkpt>
      <trkpt lat="44.17865" lon="5.08833">
        <ele>453</ele>
        <time>2016-06-30T09:17:31.000Z</time>
      </trkpt>
      <trkpt lat="44.17863" lon="5.08824">
        <ele>452</ele>
        <time>2016-06-30T09:17:32.000Z</time>
      </trkpt>
      <trkpt lat="44.1786" lon="5.08815">
        <ele>453</ele>
        <time>2016-06-30T09:17:33.000Z</time>
      </trkpt>
      <trkpt lat="44.17857" lon="5.08806">
        <ele>453</ele>
        <time>2016-06-30T09:17:34.000Z</time>
      </trkpt>
      <trkpt lat="44.17854" lon="5.08797">
        <ele>452</ele>
        <time>2016-06-30T09:17:35.000Z</time>
      </trkpt>
      <trkpt lat="44.17852" lon="5.08788">
        <ele>452</ele>
        <time>2016-06-30T09:17:36.000Z</time>
      </trkpt>
      <trkpt lat="44.1785" lon="5.08779">
        <ele>452</ele>
        <time>2016-06-30T09:17:37.000Z</time>
      </trkpt>
      <trkpt lat="44.17849" lon="5.08771">
        <ele>451</ele>
        <time>2016-06-30T09:17:38.000Z</time>
      </trkpt>
      <trkpt lat="44.17848" lon="5.08762">
        <ele>451</ele>
        <time>2016-06-30T09:17:39.000Z</time>
      </trkpt>
      <trkpt lat="44.17849" lon="5.08753">
        <ele>450</ele>
        <time>2016-06-30T09:17:40.000Z</time>
      </trkpt>
      <trkpt lat="44.17849" lon="5.08746">
        <ele>450</ele>
        <time>2016-06-30T09:17:41.000Z</time>
      </trkpt>
      <trkpt lat="44.17849" lon="5.08738">
        <ele>450</ele>
        <time>2016-06-30T09:17:42.000Z</time>
      </trkpt>
      <trkpt lat="44.17848" lon="5.08731">
        <ele>449</ele>
        <time>2016-06-30T09:17:43.000Z</time>
      </trkpt>
      <trkpt lat="44.17847" lon="5.08725">
        <ele>448</ele>
        <time>2016-06-30T09:17:44.000Z</time>
      </trkpt>
      <trkpt lat="44.17845" lon="5.08719">
        <ele>447</ele>
        <time>2016-06-30T09:17:45.000Z</time>
      </trkpt>
      <trkpt lat="44.17841" lon="5.08715">
        <ele>446</ele>
        <time>2016-06-30T09:17:46.000Z</time>
      </trkpt>
      <trkpt lat="44.17835" lon="5.08711">
        <ele>445</ele>
        <time>2016-06-30T09:17:47.000Z</time>
      </trkpt>
      <trkpt lat="44.17829" lon="5.08709">
        <ele>444</ele>
        <time>2016-06-30T09:17:48.000Z</time>
      </trkpt>
      <trkpt lat="44.17822" lon="5.08708">
        <ele>443</ele>
        <time>2016-06-30T09:17:49.000Z</time>
      </trkpt>
      <trkpt lat="44.17815" lon="5.08709">
        <ele>442</ele>
        <time>2016-06-30T09:17:50.000Z</time>
      </trkpt>
      <trkpt lat="44.17807" lon="5.0871">
        <ele>440</ele>
        <time>2016-06-30T09:17:51.000Z</time>
      </trkpt>
      <trkpt lat="44.178" lon="5.08712">
        <ele>438</ele>
        <time>2016-06-30T09:17:52.000Z</time>
      </trkpt>
      <trkpt lat="44.17793" lon="5.08715">
        <ele>437</ele>
        <time>2016-06-30T09:17:53.000Z</time>
      </trkpt>
      <trkpt lat="44.17786" lon="5.08719">
        <ele>435</ele>
        <time>2016-06-30T09:17:54.000Z</time>
      </trkpt>
      <trkpt lat="44.17779" lon="5.08722">
        <ele>434</ele>
        <time>2016-06-30T09:17:55.000Z</time>
      </trkpt>
      <trkpt lat="44.17773" lon="5.08725">
        <ele>434</ele>
        <time>2016-06-30T09:17:56.000Z</time>
      </trkpt>
      <trkpt lat="44.17768" lon="5.08729">
        <ele>436</ele>
        <time>2016-06-30T09:17:57.000Z</time>
      </trkpt>
      <trkpt lat="44.17763" lon="5.08733">
        <ele>436</ele>
        <time>2016-06-30T09:17:58.000Z</time>
      </trkpt>
      <trkpt lat="44.17759" lon="5.08737">
        <ele>436</ele>
        <time>2016-06-30T09:17:59.000Z</time>
      </trkpt>
      <trkpt lat="44.17754" lon="5.08741">
        <ele>436</ele>
        <time>2016-06-30T09:18:00.000Z</time>
      </trkpt>
      <trkpt lat="44.1775" lon="5.08744">
        <ele>436</ele>
        <time>2016-06-30T09:18:01.000Z</time>
      </trkpt>
      <trkpt lat="44.17745" lon="5.08747">
        <ele>436</ele>
        <time>2016-06-30T09:18:02.000Z</time>
      </trkpt>
      <trkpt lat="44.17741" lon="5.08749">
        <ele>436</ele>
        <time>2016-06-30T09:18:03.000Z</time>
      </trkpt>
      <trkpt lat="44.17737" lon="5.08752">
        <ele>435</ele>
        <time>2016-06-30T09:18:04.000Z</time>
      </trkpt>
      <trkpt lat="44.17734" lon="5.08754">
        <ele>435</ele>
        <time>2016-06-30T09:18:05.000Z</time>
      </trkpt>
      <trkpt lat="44.1773" lon="5.08756">
        <ele>435</ele>
        <time>2016-06-30T09:18:06.000Z</time>
      </trkpt>
      <trkpt lat="44.17726" lon="5.08757">
        <ele>435</ele>
        <time>2016-06-30T09:18:07.000Z</time>
      </trkpt>
      <trkpt lat="44.17722" lon="5.08757">
        <ele>435</ele>
        <time>2016-06-30T09:18:08.000Z</time>
      </trkpt>
      <trkpt lat="44.17718" lon="5.08756">
        <ele>434</ele>
        <time>2016-06-30T09:18:09.000Z</time>
      </trkpt>
      <trkpt lat="44.17714" lon="5.08753">
        <ele>434</ele>
        <time>2016-06-30T09:18:10.000Z</time>
      </trkpt>
      <trkpt lat="44.17709" lon="5.08748">
        <ele>433</ele>
        <time>2016-06-30T09:18:11.000Z</time>
      </trkpt>
      <trkpt lat="44.17705" lon="5.08743">
        <ele>433</ele>
        <time>2016-06-30T09:18:12.000Z</time>
      </trkpt>
      <trkpt lat="44.177" lon="5.08737">
        <ele>433</ele>
        <time>2016-06-30T09:18:13.000Z</time>
      </trkpt>
      <trkpt lat="44.17696" lon="5.08731">
        <ele>432</ele>
        <time>2016-06-30T09:18:14.000Z</time>
      </trkpt>
      <trkpt lat="44.17693" lon="5.08724">
        <ele>432</ele>
        <time>2016-06-30T09:18:15.000Z</time>
      </trkpt>
      <trkpt lat="44.17689" lon="5.08717">
        <ele>431</ele>
        <time>2016-06-30T09:18:16.000Z</time>
      </trkpt>
      <trkpt lat="44.17686" lon="5.0871">
        <ele>431</ele>
        <time>2016-06-30T09:18:17.000Z</time>
      </trkpt>
      <trkpt lat="44.17684" lon="5.08704">
        <ele>431</ele>
        <time>2016-06-30T09:18:18.000Z</time>
      </trkpt>
      <trkpt lat="44.17681" lon="5.08697">
        <ele>430</ele>
        <time>2016-06-30T09:18:19.000Z</time>
      </trkpt>
      <trkpt lat="44.17679" lon="5.08691">
        <ele>429</ele>
        <time>2016-06-30T09:18:20.000Z</time>
      </trkpt>
      <trkpt lat="44.17677" lon="5.08684">
        <ele>429</ele>
        <time>2016-06-30T09:18:21.000Z</time>
      </trkpt>
      <trkpt lat="44.17675" lon="5.08677">
        <ele>428</ele>
        <time>2016-06-30T09:18:22.000Z</time>
      </trkpt>
      <trkpt lat="44.17675" lon="5.08669">
        <ele>428</ele>
        <time>2016-06-30T09:18:23.000Z</time>
      </trkpt>
      <trkpt lat="44.17674" lon="5.08661">
        <ele>428</ele>
        <time>2016-06-30T09:18:24.000Z</time>
      </trkpt>
      <trkpt lat="44.17674" lon="5.08653">
        <ele>427</ele>
        <time>2016-06-30T09:18:25.000Z</time>
      </trkpt>
      <trkpt lat="44.17674" lon="5.08644">
        <ele>427</ele>
        <time>2016-06-30T09:18:26.000Z</time>
      </trkpt>
      <trkpt lat="44.17675" lon="5.08636">
        <ele>426</ele>
        <time>2016-06-30T09:18:27.000Z</time>
      </trkpt>
      <trkpt lat="44.17676" lon="5.08627">
        <ele>425</ele>
        <time>2016-06-30T09:18:28.000Z</time>
      </trkpt>
      <trkpt lat="44.17676" lon="5.08618">
        <ele>425</ele>
        <time>2016-06-30T09:18:29.000Z</time>
      </trkpt>
      <trkpt lat="44.17677" lon="5.08609">
        <ele>424</ele>
        <time>2016-06-30T09:18:30.000Z</time>
      </trkpt>
      <trkpt lat="44.17678" lon="5.08601">
        <ele>423</ele>
        <time>2016-06-30T09:18:31.000Z</time>
      </trkpt>
      <trkpt lat="44.17679" lon="5.08593">
        <ele>423</ele>
        <time>2016-06-30T09:18:32.000Z</time>
      </trkpt>
      <trkpt lat="44.1768" lon="5.08584">
        <ele>422</ele>
        <time>2016-06-30T09:18:33.000Z</time>
      </trkpt>
      <trkpt lat="44.17681" lon="5.08576">
        <ele>421</ele>
        <time>2016-06-30T09:18:34.000Z</time>
      </trkpt>
      <trkpt lat="44.17682" lon="5.08569">
        <ele>420</ele>
        <time>2016-06-30T09:18:35.000Z</time>
      </trkpt>
      <trkpt lat="44.17683" lon="5.08562">
        <ele>420</ele>
        <time>2016-06-30T09:18:36.000Z</time>
      </trkpt>
      <trkpt lat="44.17684" lon="5.08556">
        <ele>419</ele>
        <time>2016-06-30T09:18:37.000Z</time>
      </trkpt>
      <trkpt lat="44.17685" lon="5.0855">
        <ele>418</ele>
        <time>2016-06-30T09:18:38.000Z</time>
      </trkpt>
      <trkpt lat="44.17686" lon="5.08545">
        <ele>418</ele>
        <time>2016-06-30T09:18:39.000Z</time>
      </trkpt>
      <trkpt lat="44.17688" lon="5.08539">
        <ele>418</ele>
        <time>2016-06-30T09:18:40.000Z</time>
      </trkpt>
      <trkpt lat="44.1769" lon="5.08534">
        <ele>418</ele>
        <time>2016-06-30T09:18:41.000Z</time>
      </trkpt>
      <trkpt lat="44.17693" lon="5.08529">
        <ele>418</ele>
        <time>2016-06-30T09:18:42.000Z</time>
      </trkpt>
      <trkpt lat="44.17696" lon="5.08525">
        <ele>418</ele>
        <time>2016-06-30T09:18:43.000Z</time>
      </trkpt>
      <trkpt lat="44.177" lon="5.08522">
        <ele>417</ele>
        <time>2016-06-30T09:18:44.000Z</time>
      </trkpt>
      <trkpt lat="44.17704" lon="5.0852">
        <ele>417</ele>
        <time>2016-06-30T09:18:45.000Z</time>
      </trkpt>
      <trkpt lat="44.17709" lon="5.08517">
        <ele>417</ele>
        <time>2016-06-30T09:18:46.000Z</time>
      </trkpt>
      <trkpt lat="44.17713" lon="5.08515">
        <ele>416</ele>
        <time>2016-06-30T09:18:47.000Z</time>
      </trkpt>
      <trkpt lat="44.17717" lon="5.08512">
        <ele>416</ele>
        <time>2016-06-30T09:18:48.000Z</time>
      </trkpt>
      <trkpt lat="44.1772" lon="5.08507">
        <ele>416</ele>
        <time>2016-06-30T09:18:49.000Z</time>
      </trkpt>
      <trkpt lat="44.17723" lon="5.08502">
        <ele>416</ele>
        <time>2016-06-30T09:18:50.000Z</time>
      </trkpt>
      <trkpt lat="44.17726" lon="5.08495">
        <ele>415</ele>
        <time>2016-06-30T09:18:51.000Z</time>
      </trkpt>
      <trkpt lat="44.17728" lon="5.08489">
        <ele>415</ele>
        <time>2016-06-30T09:18:52.000Z</time>
      </trkpt>
      <trkpt lat="44.17731" lon="5.08482">
        <ele>414</ele>
        <time>2016-06-30T09:18:53.000Z</time>
      </trkpt>
      <trkpt lat="44.17734" lon="5.08476">
        <ele>414</ele>
        <time>2016-06-30T09:18:54.000Z</time>
      </trkpt>
      <trkpt lat="44.17738" lon="5.08471">
        <ele>413</ele>
        <time>2016-06-30T09:18:55.000Z</time>
      </trkpt>
      <trkpt lat="44.17742" lon="5.08466">
        <ele>413</ele>
        <time>2016-06-30T09:18:56.000Z</time>
      </trkpt>
      <trkpt lat="44.17746" lon="5.08461">
        <ele>413</ele>
        <time>2016-06-30T09:18:57.000Z</time>
      </trkpt>
      <trkpt lat="44.1775" lon="5.08457">
        <ele>413</ele>
        <time>2016-06-30T09:18:58.000Z</time>
      </trkpt>
      <trkpt lat="44.17753" lon="5.08452">
        <ele>412</ele>
        <time>2016-06-30T09:18:59.000Z</time>
      </trkpt>
      <trkpt lat="44.17756" lon="5.08446">
        <ele>410</ele>
        <time>2016-06-30T09:19:00.000Z</time>
      </trkpt>
      <trkpt lat="44.17758" lon="5.0844">
        <ele>409</ele>
        <time>2016-06-30T09:19:01.000Z</time>
      </trkpt>
      <trkpt lat="44.17759" lon="5.08433">
        <ele>408</ele>
        <time>2016-06-30T09:19:02.000Z</time>
      </trkpt>
      <trkpt lat="44.17759" lon="5.08426">
        <ele>406</ele>
        <time>2016-06-30T09:19:03.000Z</time>
      </trkpt>
      <trkpt lat="44.17759" lon="5.08419">
        <ele>405</ele>
        <time>2016-06-30T09:19:04.000Z</time>
      </trkpt>
      <trkpt lat="44.17758" lon="5.08412">
        <ele>403</ele>
        <time>2016-06-30T09:19:05.000Z</time>
      </trkpt>
      <trkpt lat="44.17758" lon="5.08405">
        <ele>402</ele>
        <time>2016-06-30T09:19:06.000Z</time>
      </trkpt>
      <trkpt lat="44.17757" lon="5.08399">
        <ele>401</ele>
        <time>2016-06-30T09:19:07.000Z</time>
      </trkpt>
      <trkpt lat="44.17757" lon="5.08392">
        <ele>399</ele>
        <time>2016-06-30T09:19:08.000Z</time>
      </trkpt>
      <trkpt lat="44.17757" lon="5.08385">
        <ele>398</ele>
        <time>2016-06-30T09:19:09.000Z</time>
      </trkpt>
      <trkpt lat="44.17758" lon="5.08377">
        <ele>397</ele>
        <time>2016-06-30T09:19:10.000Z</time>
      </trkpt>
      <trkpt lat="44.17761" lon="5.0837">
        <ele>397</ele>
        <time>2016-06-30T09:19:11.000Z</time>
      </trkpt>
      <trkpt lat="44.17763" lon="5.08363">
        <ele>398</ele>
        <time>2016-06-30T09:19:12.000Z</time>
      </trkpt>
      <trkpt lat="44.17766" lon="5.08357">
        <ele>399</ele>
        <time>2016-06-30T09:19:13.000Z</time>
      </trkpt>
      <trkpt lat="44.17769" lon="5.0835">
        <ele>400</ele>
        <time>2016-06-30T09:19:14.000Z</time>
      </trkpt>
      <trkpt lat="44.17772" lon="5.08344">
        <ele>400</ele>
        <time>2016-06-30T09:19:15.000Z</time>
      </trkpt>
      <trkpt lat="44.17776" lon="5.08337">
        <ele>400</ele>
        <time>2016-06-30T09:19:16.000Z</time>
      </trkpt>
      <trkpt lat="44.1778" lon="5.08331">
        <ele>400</ele>
        <time>2016-06-30T09:19:17.000Z</time>
      </trkpt>
      <trkpt lat="44.17783" lon="5.08324">
        <ele>400</ele>
        <time>2016-06-30T09:19:18.000Z</time>
      </trkpt>
      <trkpt lat="44.17786" lon="5.08318">
        <ele>400</ele>
        <time>2016-06-30T09:19:19.000Z</time>
      </trkpt>
      <trkpt lat="44.17789" lon="5.08311">
        <ele>401</ele>
        <time>2016-06-30T09:19:20.000Z</time>
      </trkpt>
      <trkpt lat="44.17791" lon="5.08305">
        <ele>400</ele>
        <time>2016-06-30T09:19:21.000Z</time>
      </trkpt>
      <trkpt lat="44.17792" lon="5.08299">
        <ele>400</ele>
        <time>2016-06-30T09:19:22.000Z</time>
      </trkpt>
      <trkpt lat="44.17794" lon="5.08293">
        <ele>400</ele>
        <time>2016-06-30T09:19:23.000Z</time>
      </trkpt>
      <trkpt lat="44.17795" lon="5.08287">
        <ele>399</ele>
        <time>2016-06-30T09:19:24.000Z</time>
      </trkpt>
      <trkpt lat="44.17796" lon="5.0828">
        <ele>399</ele>
        <time>2016-06-30T09:19:25.000Z</time>
      </trkpt>
      <trkpt lat="44.17796" lon="5.08274">
        <ele>398</ele>
        <time>2016-06-30T09:19:26.000Z</time>
      </trkpt>
      <trkpt lat="44.17797" lon="5.08267">
        <ele>398</ele>
        <time>2016-06-30T09:19:27.000Z</time>
      </trkpt>
      <trkpt lat="44.17797" lon="5.08261">
        <ele>398</ele>
        <time>2016-06-30T09:19:28.000Z</time>
      </trkpt>
      <trkpt lat="44.17798" lon="5.08255">
        <ele>398</ele>
        <time>2016-06-30T09:19:29.000Z</time>
      </trkpt>
      <trkpt lat="44.17799" lon="5.08249">
        <ele>398</ele>
        <time>2016-06-30T09:19:30.000Z</time>
      </trkpt>
      <trkpt lat="44.17799" lon="5.08244">
        <ele>399</ele>
        <time>2016-06-30T09:19:31.000Z</time>
      </trkpt>
      <trkpt lat="44.17801" lon="5.08238">
        <ele>400</ele>
        <time>2016-06-30T09:19:32.000Z</time>
      </trkpt>
      <trkpt lat="44.17803" lon="5.08234">
        <ele>399</ele>
        <time>2016-06-30T09:19:33.000Z</time>
      </trkpt>
      <trkpt lat="44.17805" lon="5.08229">
        <ele>399</ele>
        <time>2016-06-30T09:19:34.000Z</time>
      </trkpt>
      <trkpt lat="44.17809" lon="5.08226">
        <ele>400</ele>
        <time>2016-06-30T09:19:35.000Z</time>
      </trkpt>
      <trkpt lat="44.17812" lon="5.08222">
        <ele>399</ele>
        <time>2016-06-30T09:19:36.000Z</time>
      </trkpt>
      <trkpt lat="44.17816" lon="5.08219">
        <ele>399</ele>
        <time>2016-06-30T09:19:37.000Z</time>
      </trkpt>
      <trkpt lat="44.17819" lon="5.08216">
        <ele>399</ele>
        <time>2016-06-30T09:19:38.000Z</time>
      </trkpt>
      <trkpt lat="44.17823" lon="5.08213">
        <ele>399</ele>
        <time>2016-06-30T09:19:39.000Z</time>
      </trkpt>
      <trkpt lat="44.17826" lon="5.0821">
        <ele>399</ele>
        <time>2016-06-30T09:19:40.000Z</time>
      </trkpt>
      <trkpt lat="44.1783" lon="5.08208">
        <ele>398</ele>
        <time>2016-06-30T09:19:41.000Z</time>
      </trkpt>
      <trkpt lat="44.17834" lon="5.08205">
        <ele>398</ele>
        <time>2016-06-30T09:19:42.000Z</time>
      </trkpt>
      <trkpt lat="44.17838" lon="5.08203">
        <ele>398</ele>
        <time>2016-06-30T09:19:43.000Z</time>
      </trkpt>
      <trkpt lat="44.17841" lon="5.082">
        <ele>398</ele>
        <time>2016-06-30T09:19:44.000Z</time>
      </trkpt>
      <trkpt lat="44.17845" lon="5.08197">
        <ele>398</ele>
        <time>2016-06-30T09:19:45.000Z</time>
      </trkpt>
      <trkpt lat="44.17848" lon="5.08195">
        <ele>397</ele>
        <time>2016-06-30T09:19:46.000Z</time>
      </trkpt>
      <trkpt lat="44.17852" lon="5.08192">
        <ele>397</ele>
        <time>2016-06-30T09:19:47.000Z</time>
      </trkpt>
      <trkpt lat="44.17856" lon="5.08189">
        <ele>396</ele>
        <time>2016-06-30T09:19:48.000Z</time>
      </trkpt>
      <trkpt lat="44.17859" lon="5.08186">
        <ele>396</ele>
        <time>2016-06-30T09:19:49.000Z</time>
      </trkpt>
      <trkpt lat="44.17863" lon="5.08183">
        <ele>396</ele>
        <time>2016-06-30T09:19:50.000Z</time>
      </trkpt>
      <trkpt lat="44.17867" lon="5.0818">
        <ele>395</ele>
        <time>2016-06-30T09:19:51.000Z</time>
      </trkpt>
      <trkpt lat="44.1787" lon="5.08177">
        <ele>395</ele>
        <time>2016-06-30T09:19:52.000Z</time>
      </trkpt>
      <trkpt lat="44.17874" lon="5.08173">
        <ele>394</ele>
        <time>2016-06-30T09:19:53.000Z</time>
      </trkpt>
      <trkpt lat="44.17877" lon="5.08169">
        <ele>393</ele>
        <time>2016-06-30T09:19:54.000Z</time>
      </trkpt>
      <trkpt lat="44.17879" lon="5.08164">
        <ele>393</ele>
        <time>2016-06-30T09:19:55.000Z</time>
      </trkpt>
      <trkpt lat="44.17882" lon="5.08159">
        <ele>392</ele>
        <time>2016-06-30T09:19:56.000Z</time>
      </trkpt>
      <trkpt lat="44.17883" lon="5.08153">
        <ele>391</ele>
        <time>2016-06-30T09:19:57.000Z</time>
      </trkpt>
      <trkpt lat="44.17885" lon="5.08146">
        <ele>391</ele>
        <time>2016-06-30T09:19:58.000Z</time>
      </trkpt>
      <trkpt lat="44.17885" lon="5.0814">
        <ele>390</ele>
        <time>2016-06-30T09:19:59.000Z</time>
      </trkpt>
      <trkpt lat="44.17884" lon="5.08133">
        <ele>388</ele>
        <time>2016-06-30T09:20:00.000Z</time>
      </trkpt>
      <trkpt lat="44.17883" lon="5.08127">
        <ele>387</ele>
        <time>2016-06-30T09:20:01.000Z</time>
      </trkpt>
      <trkpt lat="44.17882" lon="5.08121">
        <ele>386</ele>
        <time>2016-06-30T09:20:02.000Z</time>
      </trkpt>
      <trkpt lat="44.17881" lon="5.08115">
        <ele>384</ele>
        <time>2016-06-30T09:20:03.000Z</time>
      </trkpt>
      <trkpt lat="44.17879" lon="5.08109">
        <ele>384</ele>
        <time>2016-06-30T09:20:04.000Z</time>
      </trkpt>
      <trkpt lat="44.17877" lon="5.08103">
        <ele>383</ele>
        <time>2016-06-30T09:20:05.000Z</time>
      </trkpt>
      <trkpt lat="44.17875" lon="5.08097">
        <ele>382</ele>
        <time>2016-06-30T09:20:06.000Z</time>
      </trkpt>
      <trkpt lat="44.17873" lon="5.0809">
        <ele>381</ele>
        <time>2016-06-30T09:20:07.000Z</time>
      </trkpt>
      <trkpt lat="44.17871" lon="5.08083">
        <ele>381</ele>
        <time>2016-06-30T09:20:08.000Z</time>
      </trkpt>
      <trkpt lat="44.17869" lon="5.08075">
        <ele>380</ele>
        <time>2016-06-30T09:20:09.000Z</time>
      </trkpt>
      <trkpt lat="44.17867" lon="5.08068">
        <ele>380</ele>
        <time>2016-06-30T09:20:10.000Z</time>
      </trkpt>
      <trkpt lat="44.17866" lon="5.08061">
        <ele>380</ele>
        <time>2016-06-30T09:20:11.000Z</time>
      </trkpt>
      <trkpt lat="44.17864" lon="5.08053">
        <ele>379</ele>
        <time>2016-06-30T09:20:12.000Z</time>
      </trkpt>
      <trkpt lat="44.17862" lon="5.08046">
        <ele>379</ele>
        <time>2016-06-30T09:20:13.000Z</time>
      </trkpt>
      <trkpt lat="44.17861" lon="5.08038">
        <ele>378</ele>
        <time>2016-06-30T09:20:14.000Z</time>
      </trkpt>
      <trkpt lat="44.1786" lon="5.08031">
        <ele>378</ele>
        <time>2016-06-30T09:20:15.000Z</time>
      </trkpt>
      <trkpt lat="44.17858" lon="5.08024">
        <ele>378</ele>
        <time>2016-06-30T09:20:16.000Z</time>
      </trkpt>
      <trkpt lat="44.17857" lon="5.08016">
        <ele>378</ele>
        <time>2016-06-30T09:20:17.000Z</time>
      </trkpt>
      <trkpt lat="44.17856" lon="5.08008">
        <ele>378</ele>
        <time>2016-06-30T09:20:18.000Z</time>
      </trkpt>
      <trkpt lat="44.17854" lon="5.08001">
        <ele>378</ele>
        <time>2016-06-30T09:20:19.000Z</time>
      </trkpt>
      <trkpt lat="44.17853" lon="5.07993">
        <ele>378</ele>
        <time>2016-06-30T09:20:20.000Z</time>
      </trkpt>
      <trkpt lat="44.17852" lon="5.07986">
        <ele>377</ele>
        <time>2016-06-30T09:20:21.000Z</time>
      </trkpt>
      <trkpt lat="44.17851" lon="5.07978">
        <ele>377</ele>
        <time>2016-06-30T09:20:22.000Z</time>
      </trkpt>
      <trkpt lat="44.1785" lon="5.0797">
        <ele>377</ele>
        <time>2016-06-30T09:20:23.000Z</time>
      </trkpt>
      <trkpt lat="44.17849" lon="5.07963">
        <ele>376</ele>
        <time>2016-06-30T09:20:24.000Z</time>
      </trkpt>
      <trkpt lat="44.17847" lon="5.07955">
        <ele>376</ele>
        <time>2016-06-30T09:20:25.000Z</time>
      </trkpt>
      <trkpt lat="44.17846" lon="5.07948">
        <ele>376</ele>
        <time>2016-06-30T09:20:26.000Z</time>
      </trkpt>
      <trkpt lat="44.17844" lon="5.07941">
        <ele>376</ele>
        <time>2016-06-30T09:20:27.000Z</time>
      </trkpt>
      <trkpt lat="44.17842" lon="5.07934">
        <ele>376</ele>
        <time>2016-06-30T09:20:28.000Z</time>
      </trkpt>
      <trkpt lat="44.17841" lon="5.07928">
        <ele>376</ele>
        <time>2016-06-30T09:20:29.000Z</time>
      </trkpt>
      <trkpt lat="44.17839" lon="5.07921">
        <ele>376</ele>
        <time>2016-06-30T09:20:30.000Z</time>
      </trkpt>
      <trkpt lat="44.17838" lon="5.07914">
        <ele>376</ele>
        <time>2016-06-30T09:20:31.000Z</time>
      </trkpt>
      <trkpt lat="44.17837" lon="5.07907">
        <ele>376</ele>
        <time>2016-06-30T09:20:32.000Z</time>
      </trkpt>
      <trkpt lat="44.17836" lon="5.079">
        <ele>375</ele>
        <time>2016-06-30T09:20:33.000Z</time>
      </trkpt>
      <trkpt lat="44.17835" lon="5.07893">
        <ele>375</ele>
        <time>2016-06-30T09:20:34.000Z</time>
      </trkpt>
      <trkpt lat="44.17835" lon="5.07887">
        <ele>375</ele>
        <time>2016-06-30T09:20:35.000Z</time>
      </trkpt>
      <trkpt lat="44.17835" lon="5.07881">
        <ele>375</ele>
        <time>2016-06-30T09:20:36.000Z</time>
      </trkpt>
      <trkpt lat="44.17835" lon="5.07875">
        <ele>375</ele>
        <time>2016-06-30T09:20:37.000Z</time>
      </trkpt>
      <trkpt lat="44.17836" lon="5.07869">
        <ele>375</ele>
        <time>2016-06-30T09:20:38.000Z</time>
      </trkpt>
      <trkpt lat="44.17836" lon="5.07862">
        <ele>374</ele>
        <time>2016-06-30T09:20:39.000Z</time>
      </trkpt>
      <trkpt lat="44.17837" lon="5.07855">
        <ele>374</ele>
        <time>2016-06-30T09:20:40.000Z</time>
      </trkpt>
      <trkpt lat="44.17839" lon="5.07848">
        <ele>374</ele>
        <time>2016-06-30T09:20:41.000Z</time>
      </trkpt>
      <trkpt lat="44.1784" lon="5.0784">
        <ele>373</ele>
        <time>2016-06-30T09:20:42.000Z</time>
      </trkpt>
      <trkpt lat="44.17841" lon="5.07834">
        <ele>373</ele>
        <time>2016-06-30T09:20:43.000Z</time>
      </trkpt>
      <trkpt lat="44.17843" lon="5.07827">
        <ele>373</ele>
        <time>2016-06-30T09:20:44.000Z</time>
      </trkpt>
      <trkpt lat="44.17844" lon="5.07821">
        <ele>372</ele>
        <time>2016-06-30T09:20:45.000Z</time>
      </trkpt>
      <trkpt lat="44.17846" lon="5.07814">
        <ele>372</ele>
        <time>2016-06-30T09:20:46.000Z</time>
      </trkpt>
      <trkpt lat="44.17848" lon="5.07808">
        <ele>372</ele>
        <time>2016-06-30T09:20:47.000Z</time>
      </trkpt>
      <trkpt lat="44.17849" lon="5.07801">
        <ele>371</ele>
        <time>2016-06-30T09:20:48.000Z</time>
      </trkpt>
      <trkpt lat="44.17851" lon="5.07793">
        <ele>371</ele>
        <time>2016-06-30T09:20:49.000Z</time>
      </trkpt>
      <trkpt lat="44.17852" lon="5.07786">
        <ele>370</ele>
        <time>2016-06-30T09:20:50.000Z</time>
      </trkpt>
      <trkpt lat="44.17854" lon="5.07779">
        <ele>370</ele>
        <time>2016-06-30T09:20:51.000Z</time>
      </trkpt>
      <trkpt lat="44.17855" lon="5.07771">
        <ele>369</ele>
        <time>2016-06-30T09:20:52.000Z</time>
      </trkpt>
      <trkpt lat="44.17856" lon="5.07764">
        <ele>369</ele>
        <time>2016-06-30T09:20:53.000Z</time>
      </trkpt>
      <trkpt lat="44.17857" lon="5.07758">
        <ele>369</ele>
        <time>2016-06-30T09:20:54.000Z</time>
      </trkpt>
      <trkpt lat="44.17858" lon="5.0775">
        <ele>368</ele>
        <time>2016-06-30T09:20:55.000Z</time>
      </trkpt>
      <trkpt lat="44.17858" lon="5.07743">
        <ele>368</ele>
        <time>2016-06-30T09:20:56.000Z</time>
      </trkpt>
      <trkpt lat="44.17859" lon="5.07736">
        <ele>368</ele>
        <time>2016-06-30T09:20:57.000Z</time>
      </trkpt>
      <trkpt lat="44.17859" lon="5.0773">
        <ele>368</ele>
        <time>2016-06-30T09:20:58.000Z</time>
      </trkpt>
      <trkpt lat="44.1786" lon="5.07723">
        <ele>368</ele>
        <time>2016-06-30T09:20:59.000Z</time>
      </trkpt>
      <trkpt lat="44.1786" lon="5.07716">
        <ele>368</ele>
        <time>2016-06-30T09:21:00.000Z</time>
      </trkpt>
      <trkpt lat="44.17861" lon="5.0771">
        <ele>368</ele>
        <time>2016-06-30T09:21:01.000Z</time>
      </trkpt>
      <trkpt lat="44.17862" lon="5.07703">
        <ele>369</ele>
        <time>2016-06-30T09:21:02.000Z</time>
      </trkpt>
      <trkpt lat="44.17864" lon="5.07698">
        <ele>369</ele>
        <time>2016-06-30T09:21:03.000Z</time>
      </trkpt>
      <trkpt lat="44.17866" lon="5.07693">
        <ele>370</ele>
        <time>2016-06-30T09:21:04.000Z</time>
      </trkpt>
      <trkpt lat="44.17869" lon="5.07688">
        <ele>370</ele>
        <time>2016-06-30T09:21:05.000Z</time>
      </trkpt>
      <trkpt lat="44.1787" lon="5.07684">
        <ele>370</ele>
        <time>2016-06-30T09:21:06.000Z</time>
      </trkpt>
      <trkpt lat="44.17872" lon="5.07679">
        <ele>371</ele>
        <time>2016-06-30T09:21:07.000Z</time>
      </trkpt>
      <trkpt lat="44.17872" lon="5.07674">
        <ele>373</ele>
        <time>2016-06-30T09:21:08.000Z</time>
      </trkpt>
      <trkpt lat="44.1787" lon="5.07669">
        <ele>373</ele>
        <time>2016-06-30T09:21:09.000Z</time>
      </trkpt>
      <trkpt lat="44.17868" lon="5.07665">
        <ele>371</ele>
        <time>2016-06-30T09:21:10.000Z</time>
      </trkpt>
      <trkpt lat="44.17865" lon="5.07663">
        <ele>372</ele>
        <time>2016-06-30T09:21:11.000Z</time>
      </trkpt>
      <trkpt lat="44.17861" lon="5.07662">
        <ele>372</ele>
        <time>2016-06-30T09:21:12.000Z</time>
      </trkpt>
      <trkpt lat="44.17857" lon="5.07661">
        <ele>372</ele>
        <time>2016-06-30T09:21:13.000Z</time>
      </trkpt>
      <trkpt lat="44.17852" lon="5.07659">
        <ele>374</ele>
        <time>2016-06-30T09:21:14.000Z</time>
      </trkpt>
      <trkpt lat="44.17848" lon="5.07657">
        <ele>376</ele>
        <time>2016-06-30T09:21:15.000Z</time>
      </trkpt>
      <trkpt lat="44.17843" lon="5.07654">
        <ele>376</ele>
        <time>2016-06-30T09:21:16.000Z</time>
      </trkpt>
      <trkpt lat="44.17839" lon="5.07652">
        <ele>376</ele>
        <time>2016-06-30T09:21:17.000Z</time>
      </trkpt>
      <trkpt lat="44.17835" lon="5.0765">
        <ele>376</ele>
        <time>2016-06-30T09:21:18.000Z</time>
      </trkpt>
      <trkpt lat="44.17831" lon="5.07647">
        <ele>376</ele>
        <time>2016-06-30T09:21:19.000Z</time>
      </trkpt>
      <trkpt lat="44.17828" lon="5.07644">
        <ele>376</ele>
        <time>2016-06-30T09:21:20.000Z</time>
      </trkpt>
      <trkpt lat="44.17824" lon="5.07641">
        <ele>376</ele>
        <time>2016-06-30T09:21:21.000Z</time>
      </trkpt>
      <trkpt lat="44.1782" lon="5.07638">
        <ele>376</ele>
        <time>2016-06-30T09:21:22.000Z</time>
      </trkpt>
      <trkpt lat="44.17817" lon="5.07634">
        <ele>376</ele>
        <time>2016-06-30T09:21:23.000Z</time>
      </trkpt>
      <trkpt lat="44.17813" lon="5.07631">
        <ele>376</ele>
        <time>2016-06-30T09:21:24.000Z</time>
      </trkpt>
      <trkpt lat="44.1781" lon="5.07628">
        <ele>376</ele>
        <time>2016-06-30T09:21:25.000Z</time>
      </trkpt>
      <trkpt lat="44.17806" lon="5.07625">
        <ele>377</ele>
        <time>2016-06-30T09:21:26.000Z</time>
      </trkpt>
      <trkpt lat="44.17803" lon="5.07623">
        <ele>377</ele>
        <time>2016-06-30T09:21:27.000Z</time>
      </trkpt>
      <trkpt lat="44.17799" lon="5.0762">
        <ele>377</ele>
        <time>2016-06-30T09:21:28.000Z</time>
      </trkpt>
      <trkpt lat="44.17796" lon="5.07618">
        <ele>378</ele>
        <time>2016-06-30T09:21:29.000Z</time>
      </trkpt>
      <trkpt lat="44.17792" lon="5.07616">
        <ele>378</ele>
        <time>2016-06-30T09:21:30.000Z</time>
      </trkpt>
      <trkpt lat="44.17788" lon="5.07615">
        <ele>378</ele>
        <time>2016-06-30T09:21:31.000Z</time>
      </trkpt>
      <trkpt lat="44.17784" lon="5.07615">
        <ele>378</ele>
        <time>2016-06-30T09:21:32.000Z</time>
      </trkpt>
      <trkpt lat="44.1778" lon="5.07614">
        <ele>378</ele>
        <time>2016-06-30T09:21:33.000Z</time>
      </trkpt>
      <trkpt lat="44.17776" lon="5.07614">
        <ele>378</ele>
        <time>2016-06-30T09:21:34.000Z</time>
      </trkpt>
      <trkpt lat="44.17772" lon="5.07614">
        <ele>379</ele>
        <time>2016-06-30T09:21:35.000Z</time>
      </trkpt>
      <trkpt lat="44.17768" lon="5.07614">
        <ele>379</ele>
        <time>2016-06-30T09:21:36.000Z</time>
      </trkpt>
      <trkpt lat="44.17763" lon="5.07614">
        <ele>380</ele>
        <time>2016-06-30T09:21:37.000Z</time>
      </trkpt>
      <trkpt lat="44.17759" lon="5.07615">
        <ele>381</ele>
        <time>2016-06-30T09:21:38.000Z</time>
      </trkpt>
      <trkpt lat="44.17755" lon="5.07616">
        <ele>382</ele>
        <time>2016-06-30T09:21:39.000Z</time>
      </trkpt>
      <trkpt lat="44.17751" lon="5.07617">
        <ele>382</ele>
        <time>2016-06-30T09:21:40.000Z</time>
      </trkpt>
      <trkpt lat="44.17747" lon="5.07617">
        <ele>383</ele>
        <time>2016-06-30T09:21:41.000Z</time>
      </trkpt>
      <trkpt lat="44.17743" lon="5.07618">
        <ele>383</ele>
        <time>2016-06-30T09:21:42.000Z</time>
      </trkpt>
      <trkpt lat="44.17739" lon="5.07618">
        <ele>382</ele>
        <time>2016-06-30T09:21:43.000Z</time>
      </trkpt>
      <trkpt lat="44.17734" lon="5.07619">
        <ele>382</ele>
        <time>2016-06-30T09:21:44.000Z</time>
      </trkpt>
      <trkpt lat="44.1773" lon="5.07618">
        <ele>382</ele>
        <time>2016-06-30T09:21:45.000Z</time>
      </trkpt>
      <trkpt lat="44.17726" lon="5.07618">
        <ele>383</ele>
        <time>2016-06-30T09:21:46.000Z</time>
      </trkpt>
      <trkpt lat="44.17722" lon="5.07618">
        <ele>383</ele>
        <time>2016-06-30T09:21:47.000Z</time>
      </trkpt>
      <trkpt lat="44.17718" lon="5.07617">
        <ele>383</ele>
        <time>2016-06-30T09:21:48.000Z</time>
      </trkpt>
      <trkpt lat="44.17714" lon="5.07616">
        <ele>383</ele>
        <time>2016-06-30T09:21:49.000Z</time>
      </trkpt>
      <trkpt lat="44.1771" lon="5.07614">
        <ele>383</ele>
        <time>2016-06-30T09:21:50.000Z</time>
      </trkpt>
      <trkpt lat="44.17706" lon="5.07612">
        <ele>384</ele>
        <time>2016-06-30T09:21:51.000Z</time>
      </trkpt>
      <trkpt lat="44.17702" lon="5.0761">
        <ele>384</ele>
        <time>2016-06-30T09:21:52.000Z</time>
      </trkpt>
      <trkpt lat="44.17698" lon="5.07608">
        <ele>385</ele>
        <time>2016-06-30T09:21:53.000Z</time>
      </trkpt>
      <trkpt lat="44.17694" lon="5.07606">
        <ele>386</ele>
        <time>2016-06-30T09:21:54.000Z</time>
      </trkpt>
      <trkpt lat="44.17691" lon="5.07605">
        <ele>387</ele>
        <time>2016-06-30T09:21:55.000Z</time>
      </trkpt>
      <trkpt lat="44.17687" lon="5.07603">
        <ele>388</ele>
        <time>2016-06-30T09:21:56.000Z</time>
      </trkpt>
      <trkpt lat="44.17683" lon="5.07603">
        <ele>388</ele>
        <time>2016-06-30T09:21:57.000Z</time>
      </trkpt>
      <trkpt lat="44.17679" lon="5.07604">
        <ele>388</ele>
        <time>2016-06-30T09:21:58.000Z</time>
      </trkpt>
      <trkpt lat="44.17676" lon="5.07606">
        <ele>388</ele>
        <time>2016-06-30T09:21:59.000Z</time>
      </trkpt>
      <trkpt lat="44.17672" lon="5.0761">
        <ele>388</ele>
        <time>2016-06-30T09:22:00.000Z</time>
      </trkpt>
      <trkpt lat="44.1767" lon="5.07615">
        <ele>388</ele>
        <time>2016-06-30T09:22:01.000Z</time>
      </trkpt>
      <trkpt lat="44.17669" lon="5.0762">
        <ele>386</ele>
        <time>2016-06-30T09:22:02.000Z</time>
      </trkpt>
      <trkpt lat="44.17668" lon="5.07625">
        <ele>385</ele>
        <time>2016-06-30T09:22:03.000Z</time>
      </trkpt>
      <trkpt lat="44.17667" lon="5.07629">
        <ele>384</ele>
        <time>2016-06-30T09:22:04.000Z</time>
      </trkpt>
      <trkpt lat="44.17665" lon="5.07634">
        <ele>384</ele>
        <time>2016-06-30T09:22:05.000Z</time>
      </trkpt>
      <trkpt lat="44.17663" lon="5.07639">
        <ele>384</ele>
        <time>2016-06-30T09:22:06.000Z</time>
      </trkpt>
      <trkpt lat="44.1766" lon="5.07644">
        <ele>384</ele>
        <time>2016-06-30T09:22:07.000Z</time>
      </trkpt>
      <trkpt lat="44.17657" lon="5.07649">
        <ele>384</ele>
        <time>2016-06-30T09:22:08.000Z</time>
      </trkpt>
      <trkpt lat="44.17653" lon="5.07652">
        <ele>384</ele>
        <time>2016-06-30T09:22:09.000Z</time>
      </trkpt>
      <trkpt lat="44.17648" lon="5.07656">
        <ele>383</ele>
        <time>2016-06-30T09:22:10.000Z</time>
      </trkpt>
      <trkpt lat="44.17644" lon="5.07657">
        <ele>384</ele>
        <time>2016-06-30T09:22:11.000Z</time>
      </trkpt>
      <trkpt lat="44.17639" lon="5.07658">
        <ele>385</ele>
        <time>2016-06-30T09:22:12.000Z</time>
      </trkpt>
      <trkpt lat="44.17634" lon="5.07657">
        <ele>385</ele>
        <time>2016-06-30T09:22:13.000Z</time>
      </trkpt>
      <trkpt lat="44.1763" lon="5.07655">
        <ele>386</ele>
        <time>2016-06-30T09:22:14.000Z</time>
      </trkpt>
      <trkpt lat="44.17626" lon="5.07653">
        <ele>386</ele>
        <time>2016-06-30T09:22:15.000Z</time>
      </trkpt>
      <trkpt lat="44.17621" lon="5.0765">
        <ele>386</ele>
        <time>2016-06-30T09:22:16.000Z</time>
      </trkpt>
      <trkpt lat="44.17617" lon="5.07646">
        <ele>386</ele>
        <time>2016-06-30T09:22:17.000Z</time>
      </trkpt>
      <trkpt lat="44.17613" lon="5.07642">
        <ele>387</ele>
        <time>2016-06-30T09:22:18.000Z</time>
      </trkpt>
      <trkpt lat="44.1761" lon="5.07638">
        <ele>388</ele>
        <time>2016-06-30T09:22:19.000Z</time>
      </trkpt>
      <trkpt lat="44.17606" lon="5.07634">
        <ele>388</ele>
        <time>2016-06-30T09:22:20.000Z</time>
      </trkpt>
      <trkpt lat="44.17602" lon="5.0763">
        <ele>389</ele>
        <time>2016-06-30T09:22:21.000Z</time>
      </trkpt>
      <trkpt lat="44.17599" lon="5.07626">
        <ele>389</ele>
        <time>2016-06-30T09:22:22.000Z</time>
      </trkpt>
      <trkpt lat="44.17595" lon="5.07622">
        <ele>390</ele>
        <time>2016-06-30T09:22:23.000Z</time>
      </trkpt>
      <trkpt lat="44.17591" lon="5.07618">
        <ele>390</ele>
        <time>2016-06-30T09:22:24.000Z</time>
      </trkpt>
      <trkpt lat="44.17588" lon="5.07614">
        <ele>390</ele>
        <time>2016-06-30T09:22:25.000Z</time>
      </trkpt>
      <trkpt lat="44.17584" lon="5.07611">
        <ele>391</ele>
        <time>2016-06-30T09:22:26.000Z</time>
      </trkpt>
      <trkpt lat="44.1758" lon="5.07607">
        <ele>391</ele>
        <time>2016-06-30T09:22:27.000Z</time>
      </trkpt>
      <trkpt lat="44.17577" lon="5.07603">
        <ele>392</ele>
        <time>2016-06-30T09:22:28.000Z</time>
      </trkpt>
      <trkpt lat="44.17573" lon="5.07599">
        <ele>392</ele>
        <time>2016-06-30T09:22:29.000Z</time>
      </trkpt>
      <trkpt lat="44.1757" lon="5.07595">
        <ele>392</ele>
        <time>2016-06-30T09:22:30.000Z</time>
      </trkpt>
      <trkpt lat="44.17567" lon="5.07591">
        <ele>393</ele>
        <time>2016-06-30T09:22:31.000Z</time>
      </trkpt>
      <trkpt lat="44.17563" lon="5.07587">
        <ele>393</ele>
        <time>2016-06-30T09:22:32.000Z</time>
      </trkpt>
      <trkpt lat="44.1756" lon="5.07582">
        <ele>394</ele>
        <time>2016-06-30T09:22:33.000Z</time>
      </trkpt>
      <trkpt lat="44.17558" lon="5.07578">
        <ele>394</ele>
        <time>2016-06-30T09:22:34.000Z</time>
      </trkpt>
      <trkpt lat="44.17555" lon="5.07573">
        <ele>395</ele>
        <time>2016-06-30T09:22:35.000Z</time>
      </trkpt>
      <trkpt lat="44.17552" lon="5.07568">
        <ele>395</ele>
        <time>2016-06-30T09:22:36.000Z</time>
      </trkpt>
      <trkpt lat="44.1755" lon="5.07563">
        <ele>395</ele>
        <time>2016-06-30T09:22:37.000Z</time>
      </trkpt>
      <trkpt lat="44.17547" lon="5.07558">
        <ele>395</ele>
        <time>2016-06-30T09:22:38.000Z</time>
      </trkpt>
      <trkpt lat="44.17544" lon="5.07553">
        <ele>396</ele>
        <time>2016-06-30T09:22:39.000Z</time>
      </trkpt>
      <trkpt lat="44.17541" lon="5.07549">
        <ele>396</ele>
        <time>2016-06-30T09:22:40.000Z</time>
      </trkpt>
      <trkpt lat="44.17537" lon="5.07545">
        <ele>396</ele>
        <time>2016-06-30T09:22:41.000Z</time>
      </trkpt>
      <trkpt lat="44.17533" lon="5.07541">
        <ele>396</ele>
        <time>2016-06-30T09:22:42.000Z</time>
      </trkpt>
      <trkpt lat="44.17529" lon="5.07539">
        <ele>397</ele>
        <time>2016-06-30T09:22:43.000Z</time>
      </trkpt>
      <trkpt lat="44.17525" lon="5.07537">
        <ele>397</ele>
        <time>2016-06-30T09:22:44.000Z</time>
      </trkpt>
      <trkpt lat="44.1752" lon="5.07535">
        <ele>397</ele>
        <time>2016-06-30T09:22:45.000Z</time>
      </trkpt>
      <trkpt lat="44.17516" lon="5.07534">
        <ele>397</ele>
        <time>2016-06-30T09:22:46.000Z</time>
      </trkpt>
      <trkpt lat="44.17512" lon="5.07533">
        <ele>397</ele>
        <time>2016-06-30T09:22:47.000Z</time>
      </trkpt>
      <trkpt lat="44.17507" lon="5.07533">
        <ele>397</ele>
        <time>2016-06-30T09:22:48.000Z</time>
      </trkpt>
      <trkpt lat="44.17502" lon="5.07533">
        <ele>398</ele>
        <time>2016-06-30T09:22:49.000Z</time>
      </trkpt>
      <trkpt lat="44.17498" lon="5.07533">
        <ele>397</ele>
        <time>2016-06-30T09:22:50.000Z</time>
      </trkpt>
      <trkpt lat="44.17493" lon="5.07534">
        <ele>397</ele>
        <time>2016-06-30T09:22:51.000Z</time>
      </trkpt>
      <trkpt lat="44.17489" lon="5.07535">
        <ele>398</ele>
        <time>2016-06-30T09:22:52.000Z</time>
      </trkpt>
      <trkpt lat="44.17484" lon="5.07537">
        <ele>398</ele>
        <time>2016-06-30T09:22:53.000Z</time>
      </trkpt>
      <trkpt lat="44.1748" lon="5.07539">
        <ele>398</ele>
        <time>2016-06-30T09:22:54.000Z</time>
      </trkpt>
      <trkpt lat="44.17474" lon="5.0754">
        <ele>398</ele>
        <time>2016-06-30T09:22:55.000Z</time>
      </trkpt>
      <trkpt lat="44.17469" lon="5.07542">
        <ele>398</ele>
        <time>2016-06-30T09:22:56.000Z</time>
      </trkpt>
      <trkpt lat="44.17464" lon="5.07543">
        <ele>398</ele>
        <time>2016-06-30T09:22:57.000Z</time>
      </trkpt>
      <trkpt lat="44.17459" lon="5.07544">
        <ele>399</ele>
        <time>2016-06-30T09:22:58.000Z</time>
      </trkpt>
      <trkpt lat="44.17453" lon="5.07545">
        <ele>399</ele>
        <time>2016-06-30T09:22:59.000Z</time>
      </trkpt>
      <trkpt lat="44.17448" lon="5.07544">
        <ele>400</ele>
        <time>2016-06-30T09:23:00.000Z</time>
      </trkpt>
      <trkpt lat="44.17442" lon="5.07542">
        <ele>400</ele>
        <time>2016-06-30T09:23:01.000Z</time>
      </trkpt>
      <trkpt lat="44.17438" lon="5.0754">
        <ele>400</ele>
        <time>2016-06-30T09:23:02.000Z</time>
      </trkpt>
      <trkpt lat="44.17434" lon="5.07536">
        <ele>400</ele>
        <time>2016-06-30T09:23:03.000Z</time>
      </trkpt>
      <trkpt lat="44.1743" lon="5.07531">
        <ele>400</ele>
        <time>2016-06-30T09:23:04.000Z</time>
      </trkpt>
      <trkpt lat="44.17427" lon="5.07525">
        <ele>400</ele>
        <time>2016-06-30T09:23:05.000Z</time>
      </trkpt>
      <trkpt lat="44.17425" lon="5.0752">
        <ele>400</ele>
        <time>2016-06-30T09:23:06.000Z</time>
      </trkpt>
      <trkpt lat="44.17422" lon="5.07514">
        <ele>401</ele>
        <time>2016-06-30T09:23:07.000Z</time>
      </trkpt>
      <trkpt lat="44.17419" lon="5.07508">
        <ele>401</ele>
        <time>2016-06-30T09:23:08.000Z</time>
      </trkpt>
      <trkpt lat="44.17417" lon="5.07503">
        <ele>401</ele>
        <time>2016-06-30T09:23:09.000Z</time>
      </trkpt>
      <trkpt lat="44.17415" lon="5.07497">
        <ele>401</ele>
        <time>2016-06-30T09:23:10.000Z</time>
      </trkpt>
      <trkpt lat="44.17412" lon="5.07491">
        <ele>401</ele>
        <time>2016-06-30T09:23:11.000Z</time>
      </trkpt>
      <trkpt lat="44.1741" lon="5.07486">
        <ele>401</ele>
        <time>2016-06-30T09:23:12.000Z</time>
      </trkpt>
      <trkpt lat="44.17408" lon="5.0748">
        <ele>402</ele>
        <time>2016-06-30T09:23:13.000Z</time>
      </trkpt>
      <trkpt lat="44.17405" lon="5.07475">
        <ele>402</ele>
        <time>2016-06-30T09:23:14.000Z</time>
      </trkpt>
      <trkpt lat="44.17403" lon="5.0747">
        <ele>402</ele>
        <time>2016-06-30T09:23:15.000Z</time>
      </trkpt>
      <trkpt lat="44.174" lon="5.07465">
        <ele>402</ele>
        <time>2016-06-30T09:23:16.000Z</time>
      </trkpt>
      <trkpt lat="44.17397" lon="5.0746">
        <ele>402</ele>
        <time>2016-06-30T09:23:17.000Z</time>
      </trkpt>
      <trkpt lat="44.17393" lon="5.07456">
        <ele>402</ele>
        <time>2016-06-30T09:23:18.000Z</time>
      </trkpt>
      <trkpt lat="44.17389" lon="5.07453">
        <ele>402</ele>
        <time>2016-06-30T09:23:19.000Z</time>
      </trkpt>
      <trkpt lat="44.17385" lon="5.0745">
        <ele>403</ele>
        <time>2016-06-30T09:23:20.000Z</time>
      </trkpt>
      <trkpt lat="44.17381" lon="5.07448">
        <ele>403</ele>
        <time>2016-06-30T09:23:21.000Z</time>
      </trkpt>
      <trkpt lat="44.17376" lon="5.07446">
        <ele>404</ele>
        <time>2016-06-30T09:23:22.000Z</time>
      </trkpt>
      <trkpt lat="44.17372" lon="5.07445">
        <ele>405</ele>
        <time>2016-06-30T09:23:23.000Z</time>
      </trkpt>
      <trkpt lat="44.17368" lon="5.07444">
        <ele>405</ele>
        <time>2016-06-30T09:23:24.000Z</time>
      </trkpt>
      <trkpt lat="44.17365" lon="5.07443">
        <ele>405</ele>
        <time>2016-06-30T09:23:25.000Z</time>
      </trkpt>
      <trkpt lat="44.17361" lon="5.07441">
        <ele>405</ele>
        <time>2016-06-30T09:23:26.000Z</time>
      </trkpt>
      <trkpt lat="44.17357" lon="5.0744">
        <ele>406</ele>
        <time>2016-06-30T09:23:27.000Z</time>
      </trkpt>
      <trkpt lat="44.17354" lon="5.07438">
        <ele>406</ele>
        <time>2016-06-30T09:23:28.000Z</time>
      </trkpt>
      <trkpt lat="44.1735" lon="5.07435">
        <ele>406</ele>
        <time>2016-06-30T09:23:29.000Z</time>
      </trkpt>
      <trkpt lat="44.17347" lon="5.07433">
        <ele>406</ele>
        <time>2016-06-30T09:23:30.000Z</time>
      </trkpt>
      <trkpt lat="44.17343" lon="5.0743">
        <ele>406</ele>
        <time>2016-06-30T09:23:31.000Z</time>
      </trkpt>
      <trkpt lat="44.1734" lon="5.07428">
        <ele>406</ele>
        <time>2016-06-30T09:23:32.000Z</time>
      </trkpt>
      <trkpt lat="44.17337" lon="5.07424">
        <ele>406</ele>
        <time>2016-06-30T09:23:33.000Z</time>
      </trkpt>
      <trkpt lat="44.17334" lon="5.07421">
        <ele>406</ele>
        <time>2016-06-30T09:23:34.000Z</time>
      </trkpt>
      <trkpt lat="44.17331" lon="5.07418">
        <ele>406</ele>
        <time>2016-06-30T09:23:35.000Z</time>
      </trkpt>
      <trkpt lat="44.17329" lon="5.07414">
        <ele>406</ele>
        <time>2016-06-30T09:23:36.000Z</time>
      </trkpt>
      <trkpt lat="44.17326" lon="5.0741">
        <ele>406</ele>
        <time>2016-06-30T09:23:37.000Z</time>
      </trkpt>
      <trkpt lat="44.17323" lon="5.07406">
        <ele>406</ele>
        <time>2016-06-30T09:23:38.000Z</time>
      </trkpt>
      <trkpt lat="44.1732" lon="5.07401">
        <ele>406</ele>
        <time>2016-06-30T09:23:39.000Z</time>
      </trkpt>
      <trkpt lat="44.17317" lon="5.07396">
        <ele>405</ele>
        <time>2016-06-30T09:23:40.000Z</time>
      </trkpt>
      <trkpt lat="44.17314" lon="5.07391">
        <ele>405</ele>
        <time>2016-06-30T09:23:41.000Z</time>
      </trkpt>
      <trkpt lat="44.17311" lon="5.07386">
        <ele>405</ele>
        <time>2016-06-30T09:23:42.000Z</time>
      </trkpt>
      <trkpt lat="44.17309" lon="5.07381">
        <ele>406</ele>
        <time>2016-06-30T09:23:43.000Z</time>
      </trkpt>
      <trkpt lat="44.17306" lon="5.07376">
        <ele>406</ele>
        <time>2016-06-30T09:23:44.000Z</time>
      </trkpt>
      <trkpt lat="44.17303" lon="5.07371">
        <ele>405</ele>
        <time>2016-06-30T09:23:45.000Z</time>
      </trkpt>
      <trkpt lat="44.173" lon="5.07366">
        <ele>405</ele>
        <time>2016-06-30T09:23:46.000Z</time>
      </trkpt>
      <trkpt lat="44.17297" lon="5.07361">
        <ele>405</ele>
        <time>2016-06-30T09:23:47.000Z</time>
      </trkpt>
      <trkpt lat="44.17294" lon="5.07356">
        <ele>405</ele>
        <time>2016-06-30T09:23:48.000Z</time>
      </trkpt>
      <trkpt lat="44.17291" lon="5.07351">
        <ele>405</ele>
        <time>2016-06-30T09:23:49.000Z</time>
      </trkpt>
      <trkpt lat="44.17288" lon="5.07346">
        <ele>405</ele>
        <time>2016-06-30T09:23:50.000Z</time>
      </trkpt>
      <trkpt lat="44.17284" lon="5.07342">
        <ele>405</ele>
        <time>2016-06-30T09:23:51.000Z</time>
      </trkpt>
      <trkpt lat="44.1728" lon="5.07337">
        <ele>405</ele>
        <time>2016-06-30T09:23:52.000Z</time>
      </trkpt>
      <trkpt lat="44.17276" lon="5.07332">
        <ele>405</ele>
        <time>2016-06-30T09:23:53.000Z</time>
      </trkpt>
      <trkpt lat="44.17272" lon="5.07328">
        <ele>405</ele>
        <time>2016-06-30T09:23:54.000Z</time>
      </trkpt>
      <trkpt lat="44.17267" lon="5.07323">
        <ele>406</ele>
        <time>2016-06-30T09:23:55.000Z</time>
      </trkpt>
      <trkpt lat="44.17263" lon="5.07319">
        <ele>406</ele>
        <time>2016-06-30T09:23:56.000Z</time>
      </trkpt>
      <trkpt lat="44.17259" lon="5.07314">
        <ele>406</ele>
        <time>2016-06-30T09:23:57.000Z</time>
      </trkpt>
      <trkpt lat="44.17254" lon="5.0731">
        <ele>406</ele>
        <time>2016-06-30T09:23:58.000Z</time>
      </trkpt>
      <trkpt lat="44.1725" lon="5.07306">
        <ele>406</ele>
        <time>2016-06-30T09:23:59.000Z</time>
      </trkpt>
      <trkpt lat="44.17246" lon="5.07301">
        <ele>407</ele>
        <time>2016-06-30T09:24:00.000Z</time>
      </trkpt>
      <trkpt lat="44.17242" lon="5.07297">
        <ele>407</ele>
        <time>2016-06-30T09:24:01.000Z</time>
      </trkpt>
      <trkpt lat="44.17238" lon="5.07292">
        <ele>407</ele>
        <time>2016-06-30T09:24:02.000Z</time>
      </trkpt>
      <trkpt lat="44.17234" lon="5.07288">
        <ele>407</ele>
        <time>2016-06-30T09:24:03.000Z</time>
      </trkpt>
      <trkpt lat="44.17231" lon="5.07283">
        <ele>407</ele>
        <time>2016-06-30T09:24:04.000Z</time>
      </trkpt>
      <trkpt lat="44.17228" lon="5.07278">
        <ele>407</ele>
        <time>2016-06-30T09:24:05.000Z</time>
      </trkpt>
      <trkpt lat="44.17225" lon="5.07273">
        <ele>408</ele>
        <time>2016-06-30T09:24:06.000Z</time>
      </trkpt>
      <trkpt lat="44.17222" lon="5.07268">
        <ele>408</ele>
        <time>2016-06-30T09:24:07.000Z</time>
      </trkpt>
      <trkpt lat="44.17219" lon="5.07263">
        <ele>408</ele>
        <time>2016-06-30T09:24:08.000Z</time>
      </trkpt>
      <trkpt lat="44.17217" lon="5.07257">
        <ele>408</ele>
        <time>2016-06-30T09:24:09.000Z</time>
      </trkpt>
      <trkpt lat="44.17214" lon="5.07251">
        <ele>408</ele>
        <time>2016-06-30T09:24:10.000Z</time>
      </trkpt>
      <trkpt lat="44.17211" lon="5.07245">
        <ele>408</ele>
        <time>2016-06-30T09:24:11.000Z</time>
      </trkpt>
      <trkpt lat="44.17209" lon="5.07239">
        <ele>408</ele>
        <time>2016-06-30T09:24:12.000Z</time>
      </trkpt>
      <trkpt lat="44.17207" lon="5.07233">
        <ele>408</ele>
        <time>2016-06-30T09:24:13.000Z</time>
      </trkpt>
      <trkpt lat="44.17205" lon="5.07227">
        <ele>407</ele>
        <time>2016-06-30T09:24:14.000Z</time>
      </trkpt>
      <trkpt lat="44.17203" lon="5.07221">
        <ele>408</ele>
        <time>2016-06-30T09:24:15.000Z</time>
      </trkpt>
      <trkpt lat="44.17201" lon="5.07214">
        <ele>407</ele>
        <time>2016-06-30T09:24:16.000Z</time>
      </trkpt>
      <trkpt lat="44.17199" lon="5.07208">
        <ele>407</ele>
        <time>2016-06-30T09:24:17.000Z</time>
      </trkpt>
      <trkpt lat="44.17197" lon="5.07201">
        <ele>406</ele>
        <time>2016-06-30T09:24:18.000Z</time>
      </trkpt>
      <trkpt lat="44.17194" lon="5.07194">
        <ele>406</ele>
        <time>2016-06-30T09:24:19.000Z</time>
      </trkpt>
      <trkpt lat="44.17192" lon="5.07187">
        <ele>405</ele>
        <time>2016-06-30T09:24:20.000Z</time>
      </trkpt>
      <trkpt lat="44.17189" lon="5.07179">
        <ele>405</ele>
        <time>2016-06-30T09:24:21.000Z</time>
      </trkpt>
      <trkpt lat="44.17186" lon="5.07171">
        <ele>405</ele>
        <time>2016-06-30T09:24:22.000Z</time>
      </trkpt>
      <trkpt lat="44.17183" lon="5.07163">
        <ele>405</ele>
        <time>2016-06-30T09:24:23.000Z</time>
      </trkpt>
      <trkpt lat="44.17181" lon="5.07155">
        <ele>404</ele>
        <time>2016-06-30T09:24:24.000Z</time>
      </trkpt>
      <trkpt lat="44.17178" lon="5.07146">
        <ele>404</ele>
        <time>2016-06-30T09:24:25.000Z</time>
      </trkpt>
      <trkpt lat="44.17175" lon="5.07137">
        <ele>403</ele>
        <time>2016-06-30T09:24:26.000Z</time>
      </trkpt>
      <trkpt lat="44.17173" lon="5.07129">
        <ele>403</ele>
        <time>2016-06-30T09:24:27.000Z</time>
      </trkpt>
      <trkpt lat="44.17171" lon="5.0712">
        <ele>403</ele>
        <time>2016-06-30T09:24:28.000Z</time>
      </trkpt>
      <trkpt lat="44.17168" lon="5.07111">
        <ele>403</ele>
        <time>2016-06-30T09:24:29.000Z</time>
      </trkpt>
      <trkpt lat="44.17166" lon="5.07102">
        <ele>402</ele>
        <time>2016-06-30T09:24:30.000Z</time>
      </trkpt>
      <trkpt lat="44.17164" lon="5.07094">
        <ele>402</ele>
        <time>2016-06-30T09:24:31.000Z</time>
      </trkpt>
      <trkpt lat="44.17162" lon="5.07086">
        <ele>402</ele>
        <time>2016-06-30T09:24:32.000Z</time>
      </trkpt>
      <trkpt lat="44.1716" lon="5.07078">
        <ele>402</ele>
        <time>2016-06-30T09:24:33.000Z</time>
      </trkpt>
      <trkpt lat="44.17157" lon="5.07071">
        <ele>403</ele>
        <time>2016-06-30T09:24:34.000Z</time>
      </trkpt>
      <trkpt lat="44.17154" lon="5.07066">
        <ele>403</ele>
        <time>2016-06-30T09:24:35.000Z</time>
      </trkpt>
      <trkpt lat="44.17149" lon="5.07062">
        <ele>403</ele>
        <time>2016-06-30T09:24:36.000Z</time>
      </trkpt>
      <trkpt lat="44.17145" lon="5.07059">
        <ele>403</ele>
        <time>2016-06-30T09:24:37.000Z</time>
      </trkpt>
      <trkpt lat="44.1714" lon="5.07057">
        <ele>403</ele>
        <time>2016-06-30T09:24:38.000Z</time>
      </trkpt>
      <trkpt lat="44.17135" lon="5.07056">
        <ele>404</ele>
        <time>2016-06-30T09:24:39.000Z</time>
      </trkpt>
      <trkpt lat="44.1713" lon="5.07056">
        <ele>404</ele>
        <time>2016-06-30T09:24:40.000Z</time>
      </trkpt>
      <trkpt lat="44.17126" lon="5.07058">
        <ele>404</ele>
        <time>2016-06-30T09:24:41.000Z</time>
      </trkpt>
      <trkpt lat="44.17121" lon="5.0706">
        <ele>405</ele>
        <time>2016-06-30T09:24:42.000Z</time>
      </trkpt>
      <trkpt lat="44.17116" lon="5.07062">
        <ele>405</ele>
        <time>2016-06-30T09:24:43.000Z</time>
      </trkpt>
      <trkpt lat="44.17112" lon="5.07064">
        <ele>406</ele>
        <time>2016-06-30T09:24:44.000Z</time>
      </trkpt>
      <trkpt lat="44.17107" lon="5.07066">
        <ele>406</ele>
        <time>2016-06-30T09:24:45.000Z</time>
      </trkpt>
      <trkpt lat="44.17103" lon="5.07068">
        <ele>407</ele>
        <time>2016-06-30T09:24:46.000Z</time>
      </trkpt>
      <trkpt lat="44.17098" lon="5.0707">
        <ele>407</ele>
        <time>2016-06-30T09:24:47.000Z</time>
      </trkpt>
      <trkpt lat="44.17094" lon="5.07072">
        <ele>408</ele>
        <time>2016-06-30T09:24:48.000Z</time>
      </trkpt>
      <trkpt lat="44.17089" lon="5.07074">
        <ele>408</ele>
        <time>2016-06-30T09:24:49.000Z</time>
      </trkpt>
      <trkpt lat="44.17085" lon="5.07075">
        <ele>408</ele>
        <time>2016-06-30T09:24:50.000Z</time>
      </trkpt>
      <trkpt lat="44.1708" lon="5.07075">
        <ele>408</ele>
        <time>2016-06-30T09:24:51.000Z</time>
      </trkpt>
      <trkpt lat="44.17075" lon="5.07075">
        <ele>409</ele>
        <time>2016-06-30T09:24:52.000Z</time>
      </trkpt>
      <trkpt lat="44.1707" lon="5.07074">
        <ele>409</ele>
        <time>2016-06-30T09:24:53.000Z</time>
      </trkpt>
      <trkpt lat="44.17065" lon="5.07072">
        <ele>410</ele>
        <time>2016-06-30T09:24:54.000Z</time>
      </trkpt>
      <trkpt lat="44.1706" lon="5.0707">
        <ele>410</ele>
        <time>2016-06-30T09:24:55.000Z</time>
      </trkpt>
      <trkpt lat="44.17056" lon="5.07067">
        <ele>410</ele>
        <time>2016-06-30T09:24:56.000Z</time>
      </trkpt>
      <trkpt lat="44.17052" lon="5.07064">
        <ele>411</ele>
        <time>2016-06-30T09:24:57.000Z</time>
      </trkpt>
      <trkpt lat="44.17048" lon="5.0706">
        <ele>411</ele>
        <time>2016-06-30T09:24:58.000Z</time>
      </trkpt>
      <trkpt lat="44.17045" lon="5.07055">
        <ele>411</ele>
        <time>2016-06-30T09:24:59.000Z</time>
      </trkpt>
      <trkpt lat="44.17041" lon="5.07051">
        <ele>411</ele>
        <time>2016-06-30T09:25:00.000Z</time>
      </trkpt>
      <trkpt lat="44.17039" lon="5.07045">
        <ele>410</ele>
        <time>2016-06-30T09:25:01.000Z</time>
      </trkpt>
      <trkpt lat="44.17037" lon="5.0704">
        <ele>410</ele>
        <time>2016-06-30T09:25:02.000Z</time>
      </trkpt>
      <trkpt lat="44.17035" lon="5.07034">
        <ele>410</ele>
        <time>2016-06-30T09:25:03.000Z</time>
      </trkpt>
      <trkpt lat="44.17033" lon="5.07028">
        <ele>410</ele>
        <time>2016-06-30T09:25:04.000Z</time>
      </trkpt>
      <trkpt lat="44.17031" lon="5.07021">
        <ele>409</ele>
        <time>2016-06-30T09:25:05.000Z</time>
      </trkpt>
      <trkpt lat="44.17029" lon="5.07014">
        <ele>409</ele>
        <time>2016-06-30T09:25:06.000Z</time>
      </trkpt>
      <trkpt lat="44.17026" lon="5.07006">
        <ele>408</ele>
        <time>2016-06-30T09:25:07.000Z</time>
      </trkpt>
      <trkpt lat="44.17024" lon="5.06997">
        <ele>407</ele>
        <time>2016-06-30T09:25:08.000Z</time>
      </trkpt>
      <trkpt lat="44.17021" lon="5.06988">
        <ele>407</ele>
        <time>2016-06-30T09:25:09.000Z</time>
      </trkpt>
      <trkpt lat="44.17018" lon="5.06979">
        <ele>406</ele>
        <time>2016-06-30T09:25:10.000Z</time>
      </trkpt>
      <trkpt lat="44.17015" lon="5.0697">
        <ele>405</ele>
        <time>2016-06-30T09:25:11.000Z</time>
      </trkpt>
      <trkpt lat="44.17012" lon="5.06962">
        <ele>405</ele>
        <time>2016-06-30T09:25:12.000Z</time>
      </trkpt>
      <trkpt lat="44.17008" lon="5.06954">
        <ele>405</ele>
        <time>2016-06-30T09:25:13.000Z</time>
      </trkpt>
      <trkpt lat="44.17005" lon="5.06946">
        <ele>404</ele>
        <time>2016-06-30T09:25:14.000Z</time>
      </trkpt>
      <trkpt lat="44.17001" lon="5.06938">
        <ele>403</ele>
        <time>2016-06-30T09:25:15.000Z</time>
      </trkpt>
      <trkpt lat="44.16997" lon="5.0693">
        <ele>402</ele>
        <time>2016-06-30T09:25:16.000Z</time>
      </trkpt>
      <trkpt lat="44.16993" lon="5.06923">
        <ele>402</ele>
        <time>2016-06-30T09:25:17.000Z</time>
      </trkpt>
      <trkpt lat="44.1699" lon="5.06916">
        <ele>402</ele>
        <time>2016-06-30T09:25:18.000Z</time>
      </trkpt>
      <trkpt lat="44.16986" lon="5.0691">
        <ele>401</ele>
        <time>2016-06-30T09:25:19.000Z</time>
      </trkpt>
      <trkpt lat="44.16982" lon="5.06903">
        <ele>401</ele>
        <time>2016-06-30T09:25:20.000Z</time>
      </trkpt>
      <trkpt lat="44.16978" lon="5.06897">
        <ele>400</ele>
        <time>2016-06-30T09:25:21.000Z</time>
      </trkpt>
      <trkpt lat="44.16973" lon="5.0689">
        <ele>399</ele>
        <time>2016-06-30T09:25:22.000Z</time>
      </trkpt>
      <trkpt lat="44.16968" lon="5.06884">
        <ele>399</ele>
        <time>2016-06-30T09:25:23.000Z</time>
      </trkpt>
      <trkpt lat="44.16961" lon="5.06879">
        <ele>398</ele>
        <time>2016-06-30T09:25:24.000Z</time>
      </trkpt>
      <trkpt lat="44.16955" lon="5.06874">
        <ele>398</ele>
        <time>2016-06-30T09:25:25.000Z</time>
      </trkpt>
      <trkpt lat="44.16948" lon="5.0687">
        <ele>398</ele>
        <time>2016-06-30T09:25:26.000Z</time>
      </trkpt>
      <trkpt lat="44.16942" lon="5.06865">
        <ele>397</ele>
        <time>2016-06-30T09:25:27.000Z</time>
      </trkpt>
      <trkpt lat="44.16935" lon="5.06862">
        <ele>397</ele>
        <time>2016-06-30T09:25:28.000Z</time>
      </trkpt>
      <trkpt lat="44.16929" lon="5.06858">
        <ele>397</ele>
        <time>2016-06-30T09:25:29.000Z</time>
      </trkpt>
      <trkpt lat="44.16922" lon="5.06855">
        <ele>397</ele>
        <time>2016-06-30T09:25:30.000Z</time>
      </trkpt>
      <trkpt lat="44.16916" lon="5.06852">
        <ele>396</ele>
        <time>2016-06-30T09:25:31.000Z</time>
      </trkpt>
      <trkpt lat="44.16911" lon="5.06849">
        <ele>396</ele>
        <time>2016-06-30T09:25:32.000Z</time>
      </trkpt>
      <trkpt lat="44.16905" lon="5.06847">
        <ele>396</ele>
        <time>2016-06-30T09:25:33.000Z</time>
      </trkpt>
      <trkpt lat="44.16901" lon="5.06845">
        <ele>396</ele>
        <time>2016-06-30T09:25:34.000Z</time>
      </trkpt>
      <trkpt lat="44.16896" lon="5.06843">
        <ele>396</ele>
        <time>2016-06-30T09:25:35.000Z</time>
      </trkpt>
      <trkpt lat="44.16892" lon="5.06841">
        <ele>395</ele>
        <time>2016-06-30T09:25:36.000Z</time>
      </trkpt>
      <trkpt lat="44.16888" lon="5.0684">
        <ele>395</ele>
        <time>2016-06-30T09:25:37.000Z</time>
      </trkpt>
      <trkpt lat="44.16885" lon="5.06838">
        <ele>395</ele>
        <time>2016-06-30T09:25:38.000Z</time>
      </trkpt>
      <trkpt lat="44.16881" lon="5.06837">
        <ele>395</ele>
        <time>2016-06-30T09:25:39.000Z</time>
      </trkpt>
      <trkpt lat="44.16877" lon="5.06836">
        <ele>395</ele>
        <time>2016-06-30T09:25:40.000Z</time>
      </trkpt>
      <trkpt lat="44.16873" lon="5.06835">
        <ele>395</ele>
        <time>2016-06-30T09:25:41.000Z</time>
      </trkpt>
      <trkpt lat="44.1687" lon="5.06835">
        <ele>395</ele>
        <time>2016-06-30T09:25:42.000Z</time>
      </trkpt>
      <trkpt lat="44.16866" lon="5.06834">
        <ele>395</ele>
        <time>2016-06-30T09:25:43.000Z</time>
      </trkpt>
      <trkpt lat="44.16862" lon="5.06834">
        <ele>395</ele>
        <time>2016-06-30T09:25:44.000Z</time>
      </trkpt>
      <trkpt lat="44.16859" lon="5.06832">
        <ele>395</ele>
        <time>2016-06-30T09:25:45.000Z</time>
      </trkpt>
      <trkpt lat="44.16856" lon="5.06829">
        <ele>395</ele>
        <time>2016-06-30T09:25:46.000Z</time>
      </trkpt>
      <trkpt lat="44.16854" lon="5.06826">
        <ele>395</ele>
        <time>2016-06-30T09:25:47.000Z</time>
      </trkpt>
      <trkpt lat="44.16852" lon="5.06822">
        <ele>395</ele>
        <time>2016-06-30T09:25:48.000Z</time>
      </trkpt>
      <trkpt lat="44.1685" lon="5.06817">
        <ele>395</ele>
        <time>2016-06-30T09:25:49.000Z</time>
      </trkpt>
      <trkpt lat="44.16849" lon="5.06813">
        <ele>394</ele>
        <time>2016-06-30T09:25:50.000Z</time>
      </trkpt>
      <trkpt lat="44.16848" lon="5.0681">
        <ele>394</ele>
        <time>2016-06-30T09:25:51.000Z</time>
      </trkpt>
      <trkpt lat="44.16847" lon="5.06807">
        <ele>394</ele>
        <time>2016-06-30T09:25:52.000Z</time>
      </trkpt>
      <trkpt lat="44.16847" lon="5.06804">
        <ele>394</ele>
        <time>2016-06-30T09:25:53.000Z</time>
      </trkpt>
      <trkpt lat="44.16846" lon="5.06802">
        <ele>394</ele>
        <time>2016-06-30T09:25:54.000Z</time>
      </trkpt>
      <trkpt lat="44.16845" lon="5.06801">
        <ele>394</ele>
        <time>2016-06-30T09:25:55.000Z</time>
      </trkpt>
      <trkpt lat="44.16845" lon="5.068">
        <ele>394</ele>
        <time>2016-06-30T09:25:56.000Z</time>
      </trkpt>
      <trkpt lat="44.16845" lon="5.068">
        <ele>394</ele>
        <time>2016-06-30T09:25:57.000Z</time>
      </trkpt>
      <trkpt lat="44.16845" lon="5.068">
        <ele>394</ele>
        <time>2016-06-30T09:25:58.000Z</time>
      </trkpt>
      <trkpt lat="44.16845" lon="5.068">
        <ele>394</ele>
        <time>2016-06-30T09:25:59.000Z</time>
      </trkpt>
      <trkpt lat="44.16845" lon="5.068">
        <ele>394</ele>
        <time>2016-06-30T09:26:00.000Z</time>
      </trkpt>
      <trkpt lat="44.16845" lon="5.068">
        <ele>394</ele>
        <time>2016-06-30T09:26:01.000Z</time>
      </trkpt>
      <trkpt lat="44.16845" lon="5.068">
        <ele>393</ele>
        <time>2016-06-30T09:26:02.000Z</time>
      </trkpt>
      <trkpt lat="44.16845" lon="5.068">
        <ele>393</ele>
        <time>2016-06-30T09:26:03.000Z</time>
      </trkpt>
      <trkpt lat="44.16845" lon="5.068">
        <ele>394</ele>
        <time>2016-06-30T09:26:04.000Z</time>
      </trkpt>
      <trkpt lat="44.16845" lon="5.068">
        <ele>394</ele>
        <time>2016-06-30T09:26:05.000Z</time>
      </trkpt>
      <trkpt lat="44.16845" lon="5.068">
        <ele>394</ele>
        <time>2016-06-30T09:26:06.000Z</time>
      </trkpt>
      <trkpt lat="44.16845" lon="5.068">
        <ele>394</ele>
        <time>2016-06-30T09:26:07.000Z</time>
      </trkpt>
      <trkpt lat="44.16845" lon="5.068">
        <ele>394</ele>
        <time>2016-06-30T09:26:08.000Z</time>
      </trkpt>
      <trkpt lat="44.16845" lon="5.068">
        <ele>394</ele>
        <time>2016-06-30T09:26:09.000Z</time>
      </trkpt>
      <trkpt lat="44.16845" lon="5.068">
        <ele>394</ele>
        <time>2016-06-30T09:26:10.000Z</time>
      </trkpt>
      <trkpt lat="44.16845" lon="5.068">
        <ele>394</ele>
        <time>2016-06-30T09:26:11.000Z</time>
      </trkpt>
      <trkpt lat="44.16845" lon="5.068">
        <ele>394</ele>
        <time>2016-06-30T09:26:12.000Z</time>
      </trkpt>
      <trkpt lat="44.16845" lon="5.068">
        <ele>394</ele>
        <time>2016-06-30T09:26:13.000Z</time>
      </trkpt>
      <trkpt lat="44.16845" lon="5.068">
        <ele>394</ele>
        <time>2016-06-30T09:26:14.000Z</time>
      </trkpt>
      <trkpt lat="44.16845" lon="5.068">
        <ele>393</ele>
        <time>2016-06-30T09:26:15.000Z</time>
      </trkpt>
      <trkpt lat="44.16845" lon="5.068">
        <ele>394</ele>
        <time>2016-06-30T09:26:16.000Z</time>
      </trkpt>
      <trkpt lat="44.16845" lon="5.068">
        <ele>394</ele>
        <time>2016-06-30T09:26:17.000Z</time>
      </trkpt>
      <trkpt lat="44.16844" lon="5.068">
        <ele>394</ele>
        <time>2016-06-30T09:26:18.000Z</time>
      </trkpt>
      <trkpt lat="44.16845" lon="5.068">
        <ele>394</ele>
        <time>2016-06-30T09:26:19.000Z</time>
      </trkpt>
      <trkpt lat="44.16845" lon="5.068">
        <ele>393</ele>
        <time>2016-06-30T09:26:20.000Z</time>
      </trkpt>
      <trkpt lat="44.16845" lon="5.068">
        <ele>393</ele>
        <time>2016-06-30T09:26:21.000Z</time>
      </trkpt>
      <trkpt lat="44.16845" lon="5.068">
        <ele>393</ele>
        <time>2016-06-30T09:26:22.000Z</time>
      </trkpt>
      <trkpt lat="44.16845" lon="5.068">
        <ele>393</ele>
        <time>2016-06-30T09:26:23.000Z</time>
      </trkpt>
      <trkpt lat="44.16845" lon="5.068">
        <ele>393</ele>
        <time>2016-06-30T09:26:24.000Z</time>
      </trkpt>
      <trkpt lat="44.16845" lon="5.068">
        <ele>393</ele>
        <time>2016-06-30T09:26:25.000Z</time>
      </trkpt>
      <trkpt lat="44.16845" lon="5.06801">
        <ele>393</ele>
        <time>2016-06-30T09:26:26.000Z</time>
      </trkpt>
      <trkpt lat="44.16844" lon="5.06801">
        <ele>393</ele>
        <time>2016-06-30T09:26:27.000Z</time>
      </trkpt>
      <trkpt lat="44.16845" lon="5.06801">
        <ele>393</ele>
        <time>2016-06-30T09:26:28.000Z</time>
      </trkpt>
      <trkpt lat="44.16845" lon="5.068">
        <ele>393</ele>
        <time>2016-06-30T09:26:29.000Z</time>
      </trkpt>
      <trkpt lat="44.16845" lon="5.068">
        <ele>393</ele>
        <time>2016-06-30T09:26:30.000Z</time>
      </trkpt>
      <trkpt lat="44.16845" lon="5.068">
        <ele>393</ele>
        <time>2016-06-30T09:26:31.000Z</time>
      </trkpt>
      <trkpt lat="44.16845" lon="5.06801">
        <ele>394</ele>
        <time>2016-06-30T09:26:32.000Z</time>
      </trkpt>
      <trkpt lat="44.16845" lon="5.06801">
        <ele>394</ele>
        <time>2016-06-30T09:26:33.000Z</time>
      </trkpt>
      <trkpt lat="44.16845" lon="5.06801">
        <ele>394</ele>
        <time>2016-06-30T09:26:34.000Z</time>
      </trkpt>
      <trkpt lat="44.16845" lon="5.068">
        <ele>394</ele>
        <time>2016-06-30T09:26:35.000Z</time>
      </trkpt>
      <trkpt lat="44.16845" lon="5.068">
        <ele>394</ele>
        <time>2016-06-30T09:26:36.000Z</time>
      </trkpt>
      <trkpt lat="44.16845" lon="5.068">
        <ele>394</ele>
        <time>2016-06-30T09:26:37.000Z</time>
      </trkpt>
      <trkpt lat="44.16845" lon="5.068">
        <ele>393</ele>
        <time>2016-06-30T09:26:38.000Z</time>
      </trkpt>
      <trkpt lat="44.16845" lon="5.068">
        <ele>393</ele>
        <time>2016-06-30T09:26:39.000Z</time>
      </trkpt>
      <trkpt lat="44.16845" lon="5.068">
        <ele>393</ele>
        <time>2016-06-30T09:26:40.000Z</time>
      </trkpt>
      <trkpt lat="44.16845" lon="5.068">
        <ele>393</ele>
        <time>2016-06-30T09:26:41.000Z</time>
      </trkpt>
      <trkpt lat="44.16845" lon="5.06801">
        <ele>393</ele>
        <time>2016-06-30T09:26:42.000Z</time>
      </trkpt>
      <trkpt lat="44.16845" lon="5.06801">
        <ele>393</ele>
        <time>2016-06-30T09:26:43.000Z</time>
      </trkpt>
      <trkpt lat="44.16845" lon="5.06801">
        <ele>393</ele>
        <time>2016-06-30T09:26:44.000Z</time>
      </trkpt>
      <trkpt lat="44.16845" lon="5.06801">
        <ele>392</ele>
        <time>2016-06-30T09:26:45.000Z</time>
      </trkpt>
      <trkpt lat="44.16845" lon="5.06801">
        <ele>393</ele>
        <time>2016-06-30T09:26:46.000Z</time>
      </trkpt>
      <trkpt lat="44.16844" lon="5.06801">
        <ele>393</ele>
        <time>2016-06-30T09:26:47.000Z</time>
      </trkpt>
      <trkpt lat="44.16844" lon="5.06801">
        <ele>393</ele>
        <time>2016-06-30T09:26:48.000Z</time>
      </trkpt>
      <trkpt lat="44.16844" lon="5.06801">
        <ele>393</ele>
        <time>2016-06-30T09:26:49.000Z</time>
      </trkpt>
      <trkpt lat="44.16844" lon="5.068">
        <ele>393</ele>
        <time>2016-06-30T09:26:50.000Z</time>
      </trkpt>
      <trkpt lat="44.16844" lon="5.068">
        <ele>393</ele>
        <time>2016-06-30T09:26:51.000Z</time>
      </trkpt>
      <trkpt lat="44.16845" lon="5.06799">
        <ele>393</ele>
        <time>2016-06-30T09:26:52.000Z</time>
      </trkpt>
      <trkpt lat="44.16845" lon="5.06799">
        <ele>393</ele>
        <time>2016-06-30T09:26:53.000Z</time>
      </trkpt>
      <trkpt lat="44.16845" lon="5.06799">
        <ele>393</ele>
        <time>2016-06-30T09:26:54.000Z</time>
      </trkpt>
      <trkpt lat="44.16845" lon="5.068">
        <ele>394</ele>
        <time>2016-06-30T09:26:55.000Z</time>
      </trkpt>
      <trkpt lat="44.16845" lon="5.068">
        <ele>394</ele>
        <time>2016-06-30T09:26:56.000Z</time>
      </trkpt>
      <trkpt lat="44.16845" lon="5.068">
        <ele>394</ele>
        <time>2016-06-30T09:26:57.000Z</time>
      </trkpt>
      <trkpt lat="44.16845" lon="5.068">
        <ele>394</ele>
        <time>2016-06-30T09:26:58.000Z</time>
      </trkpt>
      <trkpt lat="44.16845" lon="5.06799">
        <ele>395</ele>
        <time>2016-06-30T09:26:59.000Z</time>
      </trkpt>
      <trkpt lat="44.16844" lon="5.06799">
        <ele>395</ele>
        <time>2016-06-30T09:27:00.000Z</time>
      </trkpt>
      <trkpt lat="44.16843" lon="5.06798">
        <ele>394</ele>
        <time>2016-06-30T09:27:01.000Z</time>
      </trkpt>
      <trkpt lat="44.16842" lon="5.06797">
        <ele>394</ele>
        <time>2016-06-30T09:27:02.000Z</time>
      </trkpt>
      <trkpt lat="44.16841" lon="5.06795">
        <ele>394</ele>
        <time>2016-06-30T09:27:03.000Z</time>
      </trkpt>
      <trkpt lat="44.16839" lon="5.06792">
        <ele>394</ele>
        <time>2016-06-30T09:27:04.000Z</time>
      </trkpt>
      <trkpt lat="44.16838" lon="5.06788">
        <ele>393</ele>
        <time>2016-06-30T09:27:05.000Z</time>
      </trkpt>
      <trkpt lat="44.16837" lon="5.06784">
        <ele>393</ele>
        <time>2016-06-30T09:27:06.000Z</time>
      </trkpt>
      <trkpt lat="44.16835" lon="5.06779">
        <ele>393</ele>
        <time>2016-06-30T09:27:07.000Z</time>
      </trkpt>
      <trkpt lat="44.16833" lon="5.06774">
        <ele>392</ele>
        <time>2016-06-30T09:27:08.000Z</time>
      </trkpt>
      <trkpt lat="44.16831" lon="5.06769">
        <ele>392</ele>
        <time>2016-06-30T09:27:09.000Z</time>
      </trkpt>
      <trkpt lat="44.16829" lon="5.06764">
        <ele>392</ele>
        <time>2016-06-30T09:27:10.000Z</time>
      </trkpt>
      <trkpt lat="44.16827" lon="5.06758">
        <ele>391</ele>
        <time>2016-06-30T09:27:11.000Z</time>
      </trkpt>
      <trkpt lat="44.16825" lon="5.06753">
        <ele>391</ele>
        <time>2016-06-30T09:27:12.000Z</time>
      </trkpt>
      <trkpt lat="44.16823" lon="5.06748">
        <ele>391</ele>
        <time>2016-06-30T09:27:13.000Z</time>
      </trkpt>
      <trkpt lat="44.16822" lon="5.06744">
        <ele>391</ele>
        <time>2016-06-30T09:27:14.000Z</time>
      </trkpt>
      <trkpt lat="44.1682" lon="5.06739">
        <ele>390</ele>
        <time>2016-06-30T09:27:15.000Z</time>
      </trkpt>
      <trkpt lat="44.16818" lon="5.06734">
        <ele>390</ele>
        <time>2016-06-30T09:27:16.000Z</time>
      </trkpt>
      <trkpt lat="44.16817" lon="5.0673">
        <ele>390</ele>
        <time>2016-06-30T09:27:17.000Z</time>
      </trkpt>
      <trkpt lat="44.16816" lon="5.06725">
        <ele>389</ele>
        <time>2016-06-30T09:27:18.000Z</time>
      </trkpt>
      <trkpt lat="44.16815" lon="5.06721">
        <ele>389</ele>
        <time>2016-06-30T09:27:19.000Z</time>
      </trkpt>
      <trkpt lat="44.16814" lon="5.06717">
        <ele>388</ele>
        <time>2016-06-30T09:27:20.000Z</time>
      </trkpt>
      <trkpt lat="44.16813" lon="5.06712">
        <ele>388</ele>
        <time>2016-06-30T09:27:21.000Z</time>
      </trkpt>
      <trkpt lat="44.16812" lon="5.06708">
        <ele>388</ele>
        <time>2016-06-30T09:27:22.000Z</time>
      </trkpt>
      <trkpt lat="44.16811" lon="5.06704">
        <ele>387</ele>
        <time>2016-06-30T09:27:23.000Z</time>
      </trkpt>
      <trkpt lat="44.1681" lon="5.067">
        <ele>387</ele>
        <time>2016-06-30T09:27:24.000Z</time>
      </trkpt>
      <trkpt lat="44.16808" lon="5.06696">
        <ele>387</ele>
        <time>2016-06-30T09:27:25.000Z</time>
      </trkpt>
      <trkpt lat="44.16806" lon="5.06693">
        <ele>387</ele>
        <time>2016-06-30T09:27:26.000Z</time>
      </trkpt>
      <trkpt lat="44.16805" lon="5.06689">
        <ele>387</ele>
        <time>2016-06-30T09:27:27.000Z</time>
      </trkpt>
      <trkpt lat="44.16804" lon="5.06687">
        <ele>387</ele>
        <time>2016-06-30T09:27:28.000Z</time>
      </trkpt>
      <trkpt lat="44.16804" lon="5.06686">
        <ele>386</ele>
        <time>2016-06-30T09:27:29.000Z</time>
      </trkpt>
      <trkpt lat="44.16804" lon="5.06685">
        <ele>386</ele>
        <time>2016-06-30T09:27:30.000Z</time>
      </trkpt>
      <trkpt lat="44.16804" lon="5.06685">
        <ele>386</ele>
        <time>2016-06-30T09:27:31.000Z</time>
      </trkpt>
      <trkpt lat="44.16804" lon="5.06685">
        <ele>387</ele>
        <time>2016-06-30T09:27:32.000Z</time>
      </trkpt>
      <trkpt lat="44.16804" lon="5.06685">
        <ele>387</ele>
        <time>2016-06-30T09:27:33.000Z</time>
      </trkpt>
      <trkpt lat="44.16804" lon="5.06685">
        <ele>387</ele>
        <time>2016-06-30T09:27:34.000Z</time>
      </trkpt>
      <trkpt lat="44.16804" lon="5.06685">
        <ele>387</ele>
        <time>2016-06-30T09:27:35.000Z</time>
      </trkpt>
      <trkpt lat="44.16804" lon="5.06686">
        <ele>387</ele>
        <time>2016-06-30T09:27:36.000Z</time>
      </trkpt>
      <trkpt lat="44.16804" lon="5.06686">
        <ele>387</ele>
        <time>2016-06-30T09:27:37.000Z</time>
      </trkpt>
      <trkpt lat="44.16804" lon="5.06686">
        <ele>387</ele>
        <time>2016-06-30T09:27:38.000Z</time>
      </trkpt>
      <trkpt lat="44.16804" lon="5.06686">
        <ele>387</ele>
        <time>2016-06-30T09:27:39.000Z</time>
      </trkpt>
      <trkpt lat="44.16804" lon="5.06686">
        <ele>387</ele>
        <time>2016-06-30T09:27:40.000Z</time>
      </trkpt>
      <trkpt lat="44.16804" lon="5.06686">
        <ele>387</ele>
        <time>2016-06-30T09:27:41.000Z</time>
      </trkpt>
      <trkpt lat="44.16804" lon="5.06685">
        <ele>386</ele>
        <time>2016-06-30T09:27:42.000Z</time>
      </trkpt>
      <trkpt lat="44.16804" lon="5.06685">
        <ele>386</ele>
        <time>2016-06-30T09:27:43.000Z</time>
      </trkpt>
      <trkpt lat="44.16804" lon="5.06685">
        <ele>386</ele>
        <time>2016-06-30T09:27:44.000Z</time>
      </trkpt>
      <trkpt lat="44.15705" lon="5.06184">
        <ele>263</ele>
        <time>2016-06-30T09:27:45.031Z</time>
      </trkpt>
      <trkpt lat="44.15705" lon="5.06184">
        <ele>263</ele>
        <time>2016-06-30T09:27:46.031Z</time>
      </trkpt>
      <trkpt lat="44.15705" lon="5.06184">
        <ele>263</ele>
        <time>2016-06-30T09:27:47.031Z</time>
      </trkpt>
      <trkpt lat="44.15704" lon="5.06184">
        <ele>263</ele>
        <time>2016-06-30T09:27:48.031Z</time>
      </trkpt>
      <trkpt lat="44.15704" lon="5.06184">
        <ele>263</ele>
        <time>2016-06-30T09:27:49.031Z</time>
      </trkpt>
      <trkpt lat="44.15703" lon="5.06183">
        <ele>263</ele>
        <time>2016-06-30T09:27:50.031Z</time>
      </trkpt>
      <trkpt lat="44.15702" lon="5.06182">
        <ele>262</ele>
        <time>2016-06-30T09:27:51.031Z</time>
      </trkpt>
      <trkpt lat="44.157" lon="5.06181">
        <ele>262</ele>
        <time>2016-06-30T09:27:52.031Z</time>
      </trkpt>
      <trkpt lat="44.15698" lon="5.06179">
        <ele>261</ele>
        <time>2016-06-30T09:27:53.031Z</time>
      </trkpt>
      <trkpt lat="44.15696" lon="5.06178">
        <ele>261</ele>
        <time>2016-06-30T09:27:54.031Z</time>
      </trkpt>
      <trkpt lat="44.15694" lon="5.06177">
        <ele>260</ele>
        <time>2016-06-30T09:27:55.031Z</time>
      </trkpt>
      <trkpt lat="44.15692" lon="5.06175">
        <ele>260</ele>
        <time>2016-06-30T09:27:56.031Z</time>
      </trkpt>
      <trkpt lat="44.1569" lon="5.06174">
        <ele>260</ele>
        <time>2016-06-30T09:27:57.031Z</time>
      </trkpt>
      <trkpt lat="44.15688" lon="5.06172">
        <ele>259</ele>
        <time>2016-06-30T09:27:58.031Z</time>
      </trkpt>
      <trkpt lat="44.15686" lon="5.0617">
        <ele>259</ele>
        <time>2016-06-30T09:27:59.031Z</time>
      </trkpt>
      <trkpt lat="44.15684" lon="5.06167">
        <ele>260</ele>
        <time>2016-06-30T09:28:00.031Z</time>
      </trkpt>
      <trkpt lat="44.15681" lon="5.06164">
        <ele>260</ele>
        <time>2016-06-30T09:28:01.031Z</time>
      </trkpt>
      <trkpt lat="44.15678" lon="5.0616">
        <ele>258</ele>
        <time>2016-06-30T09:28:02.031Z</time>
      </trkpt>
      <trkpt lat="44.15675" lon="5.06156">
        <ele>259</ele>
        <time>2016-06-30T09:28:03.031Z</time>
      </trkpt>
      <trkpt lat="44.15671" lon="5.06151">
        <ele>259</ele>
        <time>2016-06-30T09:28:04.031Z</time>
      </trkpt>
      <trkpt lat="44.15668" lon="5.06146">
        <ele>258</ele>
        <time>2016-06-30T09:28:05.031Z</time>
      </trkpt>
      <trkpt lat="44.15664" lon="5.0614">
        <ele>257</ele>
        <time>2016-06-30T09:28:06.031Z</time>
      </trkpt>
      <trkpt lat="44.15659" lon="5.06134">
        <ele>257</ele>
        <time>2016-06-30T09:28:07.031Z</time>
      </trkpt>
      <trkpt lat="44.15655" lon="5.06128">
        <ele>257</ele>
        <time>2016-06-30T09:28:08.031Z</time>
      </trkpt>
      <trkpt lat="44.15651" lon="5.06121">
        <ele>256</ele>
        <time>2016-06-30T09:28:09.031Z</time>
      </trkpt>
      <trkpt lat="44.15646" lon="5.06114">
        <ele>256</ele>
        <time>2016-06-30T09:28:10.031Z</time>
      </trkpt>
      <trkpt lat="44.15641" lon="5.06107">
        <ele>255</ele>
        <time>2016-06-30T09:28:11.031Z</time>
      </trkpt>
      <trkpt lat="44.15636" lon="5.061">
        <ele>255</ele>
        <time>2016-06-30T09:28:12.031Z</time>
      </trkpt>
      <trkpt lat="44.15631" lon="5.06093">
        <ele>254</ele>
        <time>2016-06-30T09:28:13.031Z</time>
      </trkpt>
      <trkpt lat="44.15627" lon="5.06086">
        <ele>253</ele>
        <time>2016-06-30T09:28:14.031Z</time>
      </trkpt>
      <trkpt lat="44.15622" lon="5.06079">
        <ele>253</ele>
        <time>2016-06-30T09:28:15.031Z</time>
      </trkpt>
      <trkpt lat="44.15616" lon="5.06073">
        <ele>253</ele>
        <time>2016-06-30T09:28:16.031Z</time>
      </trkpt>
      <trkpt lat="44.15611" lon="5.06067">
        <ele>252</ele>
        <time>2016-06-30T09:28:17.031Z</time>
      </trkpt>
      <trkpt lat="44.15606" lon="5.06061">
        <ele>252</ele>
        <time>2016-06-30T09:28:18.031Z</time>
      </trkpt>
      <trkpt lat="44.156" lon="5.06055">
        <ele>251</ele>
        <time>2016-06-30T09:28:19.031Z</time>
      </trkpt>
      <trkpt lat="44.15594" lon="5.0605">
        <ele>252</ele>
        <time>2016-06-30T09:28:20.031Z</time>
      </trkpt>
      <trkpt lat="44.15587" lon="5.06045">
        <ele>251</ele>
        <time>2016-06-30T09:28:21.031Z</time>
      </trkpt>
      <trkpt lat="44.15581" lon="5.06039">
        <ele>250</ele>
        <time>2016-06-30T09:28:22.031Z</time>
      </trkpt>
      <trkpt lat="44.15574" lon="5.06034">
        <ele>250</ele>
        <time>2016-06-30T09:28:23.031Z</time>
      </trkpt>
      <trkpt lat="44.15568" lon="5.06028">
        <ele>250</ele>
        <time>2016-06-30T09:28:24.031Z</time>
      </trkpt>
      <trkpt lat="44.15562" lon="5.06022">
        <ele>249</ele>
        <time>2016-06-30T09:28:25.031Z</time>
      </trkpt>
      <trkpt lat="44.15555" lon="5.06017">
        <ele>249</ele>
        <time>2016-06-30T09:28:26.031Z</time>
      </trkpt>
      <trkpt lat="44.15549" lon="5.0601">
        <ele>248</ele>
        <time>2016-06-30T09:28:27.031Z</time>
      </trkpt>
      <trkpt lat="44.15543" lon="5.06004">
        <ele>247</ele>
        <time>2016-06-30T09:28:28.031Z</time>
      </trkpt>
      <trkpt lat="44.15537" lon="5.05997">
        <ele>247</ele>
        <time>2016-06-30T09:28:29.031Z</time>
      </trkpt>
      <trkpt lat="44.15532" lon="5.05989">
        <ele>246</ele>
        <time>2016-06-30T09:28:30.031Z</time>
      </trkpt>
      <trkpt lat="44.15527" lon="5.05981">
        <ele>245</ele>
        <time>2016-06-30T09:28:31.031Z</time>
      </trkpt>
      <trkpt lat="44.15523" lon="5.05972">
        <ele>245</ele>
        <time>2016-06-30T09:28:32.031Z</time>
      </trkpt>
      <trkpt lat="44.15518" lon="5.05962">
        <ele>245</ele>
        <time>2016-06-30T09:28:33.031Z</time>
      </trkpt>
      <trkpt lat="44.15515" lon="5.05952">
        <ele>244</ele>
        <time>2016-06-30T09:28:34.031Z</time>
      </trkpt>
      <trkpt lat="44.15511" lon="5.05941">
        <ele>244</ele>
        <time>2016-06-30T09:28:35.031Z</time>
      </trkpt>
      <trkpt lat="44.15507" lon="5.05931">
        <ele>243</ele>
        <time>2016-06-30T09:28:36.031Z</time>
      </trkpt>
      <trkpt lat="44.15503" lon="5.05921">
        <ele>242</ele>
        <time>2016-06-30T09:28:37.031Z</time>
      </trkpt>
      <trkpt lat="44.15499" lon="5.05911">
        <ele>242</ele>
        <time>2016-06-30T09:28:38.031Z</time>
      </trkpt>
      <trkpt lat="44.15494" lon="5.05902">
        <ele>241</ele>
        <time>2016-06-30T09:28:39.031Z</time>
      </trkpt>
      <trkpt lat="44.15489" lon="5.05893">
        <ele>240</ele>
        <time>2016-06-30T09:28:40.031Z</time>
      </trkpt>
      <trkpt lat="44.15484" lon="5.05884">
        <ele>239</ele>
        <time>2016-06-30T09:28:41.031Z</time>
      </trkpt>
      <trkpt lat="44.15479" lon="5.05876">
        <ele>239</ele>
        <time>2016-06-30T09:28:42.031Z</time>
      </trkpt>
      <trkpt lat="44.15475" lon="5.05868">
        <ele>238</ele>
        <time>2016-06-30T09:28:43.031Z</time>
      </trkpt>
      <trkpt lat="44.1547" lon="5.0586">
        <ele>238</ele>
        <time>2016-06-30T09:28:44.031Z</time>
      </trkpt>
      <trkpt lat="44.15466" lon="5.05853">
        <ele>237</ele>
        <time>2016-06-30T09:28:45.031Z</time>
      </trkpt>
      <trkpt lat="44.15461" lon="5.05846">
        <ele>237</ele>
        <time>2016-06-30T09:28:46.031Z</time>
      </trkpt>
      <trkpt lat="44.15456" lon="5.05841">
        <ele>236</ele>
        <time>2016-06-30T09:28:47.031Z</time>
      </trkpt>
      <trkpt lat="44.1545" lon="5.05836">
        <ele>236</ele>
        <time>2016-06-30T09:28:48.031Z</time>
      </trkpt>
      <trkpt lat="44.15443" lon="5.05834">
        <ele>235</ele>
        <time>2016-06-30T09:28:49.031Z</time>
      </trkpt>
      <trkpt lat="44.15436" lon="5.05832">
        <ele>235</ele>
        <time>2016-06-30T09:28:50.031Z</time>
      </trkpt>
      <trkpt lat="44.15429" lon="5.05832">
        <ele>234</ele>
        <time>2016-06-30T09:28:51.031Z</time>
      </trkpt>
      <trkpt lat="44.15421" lon="5.05832">
        <ele>234</ele>
        <time>2016-06-30T09:28:52.031Z</time>
      </trkpt>
      <trkpt lat="44.15415" lon="5.05833">
        <ele>233</ele>
        <time>2016-06-30T09:28:53.031Z</time>
      </trkpt>
      <trkpt lat="44.15408" lon="5.05833">
        <ele>232</ele>
        <time>2016-06-30T09:28:54.031Z</time>
      </trkpt>
      <trkpt lat="44.15402" lon="5.05831">
        <ele>232</ele>
        <time>2016-06-30T09:28:55.031Z</time>
      </trkpt>
      <trkpt lat="44.15397" lon="5.05828">
        <ele>231</ele>
        <time>2016-06-30T09:28:56.031Z</time>
      </trkpt>
      <trkpt lat="44.15391" lon="5.05822">
        <ele>230</ele>
        <time>2016-06-30T09:28:57.031Z</time>
      </trkpt>
      <trkpt lat="44.15387" lon="5.05814">
        <ele>227</ele>
        <time>2016-06-30T09:28:58.031Z</time>
      </trkpt>
      <trkpt lat="44.15383" lon="5.05806">
        <ele>226</ele>
        <time>2016-06-30T09:28:59.031Z</time>
      </trkpt>
      <trkpt lat="44.15378" lon="5.05798">
        <ele>226</ele>
        <time>2016-06-30T09:29:00.031Z</time>
      </trkpt>
      <trkpt lat="44.15374" lon="5.05788">
        <ele>226</ele>
        <time>2016-06-30T09:29:01.031Z</time>
      </trkpt>
      <trkpt lat="44.15369" lon="5.05778">
        <ele>225</ele>
        <time>2016-06-30T09:29:02.031Z</time>
      </trkpt>
      <trkpt lat="44.15365" lon="5.05769">
        <ele>225</ele>
        <time>2016-06-30T09:29:03.031Z</time>
      </trkpt>
      <trkpt lat="44.1536" lon="5.05759">
        <ele>225</ele>
        <time>2016-06-30T09:29:04.031Z</time>
      </trkpt>
      <trkpt lat="44.15355" lon="5.05751">
        <ele>224</ele>
        <time>2016-06-30T09:29:05.031Z</time>
      </trkpt>
      <trkpt lat="44.1535" lon="5.05742">
        <ele>223</ele>
        <time>2016-06-30T09:29:06.031Z</time>
      </trkpt>
      <trkpt lat="44.15345" lon="5.05733">
        <ele>222</ele>
        <time>2016-06-30T09:29:07.031Z</time>
      </trkpt>
      <trkpt lat="44.1534" lon="5.05725">
        <ele>221</ele>
        <time>2016-06-30T09:29:08.031Z</time>
      </trkpt>
      <trkpt lat="44.15334" lon="5.05717">
        <ele>220</ele>
        <time>2016-06-30T09:29:09.031Z</time>
      </trkpt>
      <trkpt lat="44.15328" lon="5.05709">
        <ele>220</ele>
        <time>2016-06-30T09:29:10.031Z</time>
      </trkpt>
      <trkpt lat="44.15322" lon="5.05702">
        <ele>219</ele>
        <time>2016-06-30T09:29:11.031Z</time>
      </trkpt>
      <trkpt lat="44.15317" lon="5.05694">
        <ele>219</ele>
        <time>2016-06-30T09:29:12.031Z</time>
      </trkpt>
      <trkpt lat="44.15311" lon="5.05686">
        <ele>218</ele>
        <time>2016-06-30T09:29:13.031Z</time>
      </trkpt>
      <trkpt lat="44.15305" lon="5.05679">
        <ele>218</ele>
        <time>2016-06-30T09:29:14.031Z</time>
      </trkpt>
      <trkpt lat="44.153" lon="5.05671">
        <ele>217</ele>
        <time>2016-06-30T09:29:15.031Z</time>
      </trkpt>
      <trkpt lat="44.15294" lon="5.05664">
        <ele>216</ele>
        <time>2016-06-30T09:29:16.031Z</time>
      </trkpt>
      <trkpt lat="44.15289" lon="5.05656">
        <ele>216</ele>
        <time>2016-06-30T09:29:17.031Z</time>
      </trkpt>
      <trkpt lat="44.15284" lon="5.05648">
        <ele>215</ele>
        <time>2016-06-30T09:29:18.031Z</time>
      </trkpt>
      <trkpt lat="44.15279" lon="5.0564">
        <ele>215</ele>
        <time>2016-06-30T09:29:19.031Z</time>
      </trkpt>
      <trkpt lat="44.15275" lon="5.05632">
        <ele>215</ele>
        <time>2016-06-30T09:29:20.031Z</time>
      </trkpt>
      <trkpt lat="44.1527" lon="5.05624">
        <ele>214</ele>
        <time>2016-06-30T09:29:21.031Z</time>
      </trkpt>
      <trkpt lat="44.15267" lon="5.05615">
        <ele>213</ele>
        <time>2016-06-30T09:29:22.031Z</time>
      </trkpt>
      <trkpt lat="44.15263" lon="5.05606">
        <ele>212</ele>
        <time>2016-06-30T09:29:23.031Z</time>
      </trkpt>
      <trkpt lat="44.1526" lon="5.05597">
        <ele>212</ele>
        <time>2016-06-30T09:29:24.031Z</time>
      </trkpt>
      <trkpt lat="44.15256" lon="5.05587">
        <ele>212</ele>
        <time>2016-06-30T09:29:25.031Z</time>
      </trkpt>
      <trkpt lat="44.15253" lon="5.05578">
        <ele>211</ele>
        <time>2016-06-30T09:29:26.031Z</time>
      </trkpt>
      <trkpt lat="44.15249" lon="5.05569">
        <ele>211</ele>
        <time>2016-06-30T09:29:27.031Z</time>
      </trkpt>
      <trkpt lat="44.15246" lon="5.0556">
        <ele>210</ele>
        <time>2016-06-30T09:29:28.031Z</time>
      </trkpt>
      <trkpt lat="44.15242" lon="5.05551">
        <ele>210</ele>
        <time>2016-06-30T09:29:29.031Z</time>
      </trkpt>
      <trkpt lat="44.15238" lon="5.05544">
        <ele>209</ele>
        <time>2016-06-30T09:29:30.031Z</time>
      </trkpt>
      <trkpt lat="44.15233" lon="5.05536">
        <ele>209</ele>
        <time>2016-06-30T09:29:31.031Z</time>
      </trkpt>
      <trkpt lat="44.15228" lon="5.05529">
        <ele>208</ele>
        <time>2016-06-30T09:29:32.031Z</time>
      </trkpt>
      <trkpt lat="44.15222" lon="5.05522">
        <ele>208</ele>
        <time>2016-06-30T09:29:33.031Z</time>
      </trkpt>
      <trkpt lat="44.15216" lon="5.05515">
        <ele>207</ele>
        <time>2016-06-30T09:29:34.031Z</time>
      </trkpt>
      <trkpt lat="44.1521" lon="5.05508">
        <ele>206</ele>
        <time>2016-06-30T09:29:35.031Z</time>
      </trkpt>
      <trkpt lat="44.15204" lon="5.05502">
        <ele>205</ele>
        <time>2016-06-30T09:29:36.031Z</time>
      </trkpt>
      <trkpt lat="44.15198" lon="5.05495">
        <ele>205</ele>
        <time>2016-06-30T09:29:37.031Z</time>
      </trkpt>
      <trkpt lat="44.15192" lon="5.05489">
        <ele>204</ele>
        <time>2016-06-30T09:29:38.031Z</time>
      </trkpt>
      <trkpt lat="44.15186" lon="5.05482">
        <ele>204</ele>
        <time>2016-06-30T09:29:39.031Z</time>
      </trkpt>
      <trkpt lat="44.1518" lon="5.05476">
        <ele>204</ele>
        <time>2016-06-30T09:29:40.031Z</time>
      </trkpt>
      <trkpt lat="44.15173" lon="5.05469">
        <ele>203</ele>
        <time>2016-06-30T09:29:41.031Z</time>
      </trkpt>
      <trkpt lat="44.15167" lon="5.05462">
        <ele>202</ele>
        <time>2016-06-30T09:29:42.031Z</time>
      </trkpt>
      <trkpt lat="44.1516" lon="5.05455">
        <ele>202</ele>
        <time>2016-06-30T09:29:43.031Z</time>
      </trkpt>
      <trkpt lat="44.15153" lon="5.05448">
        <ele>201</ele>
        <time>2016-06-30T09:29:44.031Z</time>
      </trkpt>
      <trkpt lat="44.15147" lon="5.05441">
        <ele>200</ele>
        <time>2016-06-30T09:29:45.031Z</time>
      </trkpt>
      <trkpt lat="44.1514" lon="5.05434">
        <ele>200</ele>
        <time>2016-06-30T09:29:46.031Z</time>
      </trkpt>
      <trkpt lat="44.15133" lon="5.05426">
        <ele>199</ele>
        <time>2016-06-30T09:29:47.031Z</time>
      </trkpt>
      <trkpt lat="44.15127" lon="5.05419">
        <ele>198</ele>
        <time>2016-06-30T09:29:48.031Z</time>
      </trkpt>
      <trkpt lat="44.1512" lon="5.05413">
        <ele>198</ele>
        <time>2016-06-30T09:29:49.031Z</time>
      </trkpt>
      <trkpt lat="44.15114" lon="5.05406">
        <ele>198</ele>
        <time>2016-06-30T09:29:50.031Z</time>
      </trkpt>
      <trkpt lat="44.15108" lon="5.054">
        <ele>197</ele>
        <time>2016-06-30T09:29:51.031Z</time>
      </trkpt>
      <trkpt lat="44.15102" lon="5.05394">
        <ele>197</ele>
        <time>2016-06-30T09:29:52.031Z</time>
      </trkpt>
      <trkpt lat="44.15096" lon="5.05388">
        <ele>196</ele>
        <time>2016-06-30T09:29:53.031Z</time>
      </trkpt>
      <trkpt lat="44.15091" lon="5.05382">
        <ele>196</ele>
        <time>2016-06-30T09:29:54.031Z</time>
      </trkpt>
      <trkpt lat="44.15085" lon="5.05378">
        <ele>196</ele>
        <time>2016-06-30T09:29:55.031Z</time>
      </trkpt>
      <trkpt lat="44.15078" lon="5.05374">
        <ele>196</ele>
        <time>2016-06-30T09:29:56.031Z</time>
      </trkpt>
      <trkpt lat="44.15072" lon="5.0537">
        <ele>196</ele>
        <time>2016-06-30T09:29:57.031Z</time>
      </trkpt>
      <trkpt lat="44.15066" lon="5.05367">
        <ele>196</ele>
        <time>2016-06-30T09:29:58.031Z</time>
      </trkpt>
      <trkpt lat="44.15059" lon="5.05365">
        <ele>195</ele>
        <time>2016-06-30T09:29:59.031Z</time>
      </trkpt>
      <trkpt lat="44.15052" lon="5.05364">
        <ele>195</ele>
        <time>2016-06-30T09:30:00.031Z</time>
      </trkpt>
      <trkpt lat="44.15046" lon="5.05364">
        <ele>195</ele>
        <time>2016-06-30T09:30:01.031Z</time>
      </trkpt>
      <trkpt lat="44.15039" lon="5.05363">
        <ele>194</ele>
        <time>2016-06-30T09:30:02.031Z</time>
      </trkpt>
      <trkpt lat="44.15033" lon="5.05363">
        <ele>194</ele>
        <time>2016-06-30T09:30:03.031Z</time>
      </trkpt>
      <trkpt lat="44.15027" lon="5.05362">
        <ele>193</ele>
        <time>2016-06-30T09:30:04.031Z</time>
      </trkpt>
      <trkpt lat="44.15021" lon="5.05359">
        <ele>193</ele>
        <time>2016-06-30T09:30:05.031Z</time>
      </trkpt>
      <trkpt lat="44.15015" lon="5.05355">
        <ele>193</ele>
        <time>2016-06-30T09:30:06.031Z</time>
      </trkpt>
      <trkpt lat="44.1501" lon="5.0535">
        <ele>191</ele>
        <time>2016-06-30T09:30:07.031Z</time>
      </trkpt>
      <trkpt lat="44.15005" lon="5.05345">
        <ele>189</ele>
        <time>2016-06-30T09:30:08.031Z</time>
      </trkpt>
      <trkpt lat="44.15001" lon="5.05338">
        <ele>189</ele>
        <time>2016-06-30T09:30:09.031Z</time>
      </trkpt>
      <trkpt lat="44.14997" lon="5.05331">
        <ele>188</ele>
        <time>2016-06-30T09:30:10.031Z</time>
      </trkpt>
      <trkpt lat="44.14992" lon="5.05324">
        <ele>187</ele>
        <time>2016-06-30T09:30:11.031Z</time>
      </trkpt>
      <trkpt lat="44.14988" lon="5.05317">
        <ele>187</ele>
        <time>2016-06-30T09:30:12.031Z</time>
      </trkpt>
      <trkpt lat="44.14983" lon="5.0531">
        <ele>186</ele>
        <time>2016-06-30T09:30:13.031Z</time>
      </trkpt>
      <trkpt lat="44.14979" lon="5.05302">
        <ele>186</ele>
        <time>2016-06-30T09:30:14.031Z</time>
      </trkpt>
      <trkpt lat="44.14974" lon="5.05295">
        <ele>186</ele>
        <time>2016-06-30T09:30:15.031Z</time>
      </trkpt>
      <trkpt lat="44.1497" lon="5.05288">
        <ele>185</ele>
        <time>2016-06-30T09:30:16.031Z</time>
      </trkpt>
      <trkpt lat="44.14965" lon="5.0528">
        <ele>185</ele>
        <time>2016-06-30T09:30:17.031Z</time>
      </trkpt>
      <trkpt lat="44.1496" lon="5.05273">
        <ele>184</ele>
        <time>2016-06-30T09:30:18.031Z</time>
      </trkpt>
      <trkpt lat="44.14956" lon="5.05266">
        <ele>184</ele>
        <time>2016-06-30T09:30:19.031Z</time>
      </trkpt>
      <trkpt lat="44.14951" lon="5.05259">
        <ele>184</ele>
        <time>2016-06-30T09:30:20.031Z</time>
      </trkpt>
      <trkpt lat="44.14947" lon="5.05252">
        <ele>183</ele>
        <time>2016-06-30T09:30:21.031Z</time>
      </trkpt>
      <trkpt lat="44.14943" lon="5.05246">
        <ele>182</ele>
        <time>2016-06-30T09:30:22.031Z</time>
      </trkpt>
      <trkpt lat="44.14938" lon="5.0524">
        <ele>182</ele>
        <time>2016-06-30T09:30:23.031Z</time>
      </trkpt>
      <trkpt lat="44.14934" lon="5.05234">
        <ele>182</ele>
        <time>2016-06-30T09:30:24.031Z</time>
      </trkpt>
      <trkpt lat="44.14929" lon="5.05228">
        <ele>182</ele>
        <time>2016-06-30T09:30:25.031Z</time>
      </trkpt>
      <trkpt lat="44.14923" lon="5.05223">
        <ele>182</ele>
        <time>2016-06-30T09:30:26.031Z</time>
      </trkpt>
      <trkpt lat="44.14917" lon="5.05219">
        <ele>182</ele>
        <time>2016-06-30T09:30:27.031Z</time>
      </trkpt>
      <trkpt lat="44.1491" lon="5.05216">
        <ele>182</ele>
        <time>2016-06-30T09:30:28.031Z</time>
      </trkpt>
      <trkpt lat="44.14903" lon="5.05213">
        <ele>181</ele>
        <time>2016-06-30T09:30:29.031Z</time>
      </trkpt>
      <trkpt lat="44.14896" lon="5.05211">
        <ele>180</ele>
        <time>2016-06-30T09:30:30.031Z</time>
      </trkpt>
      <trkpt lat="44.1489" lon="5.05208">
        <ele>180</ele>
        <time>2016-06-30T09:30:31.031Z</time>
      </trkpt>
      <trkpt lat="44.14883" lon="5.05206">
        <ele>179</ele>
        <time>2016-06-30T09:30:32.031Z</time>
      </trkpt>
      <trkpt lat="44.14876" lon="5.05204">
        <ele>179</ele>
        <time>2016-06-30T09:30:33.031Z</time>
      </trkpt>
      <trkpt lat="44.1487" lon="5.05202">
        <ele>179</ele>
        <time>2016-06-30T09:30:34.031Z</time>
      </trkpt>
      <trkpt lat="44.14864" lon="5.05199">
        <ele>178</ele>
        <time>2016-06-30T09:30:35.031Z</time>
      </trkpt>
      <trkpt lat="44.14857" lon="5.05196">
        <ele>178</ele>
        <time>2016-06-30T09:30:36.031Z</time>
      </trkpt>
      <trkpt lat="44.14851" lon="5.05193">
        <ele>178</ele>
        <time>2016-06-30T09:30:37.031Z</time>
      </trkpt>
      <trkpt lat="44.14845" lon="5.0519">
        <ele>177</ele>
        <time>2016-06-30T09:30:38.031Z</time>
      </trkpt>
      <trkpt lat="44.14839" lon="5.05187">
        <ele>176</ele>
        <time>2016-06-30T09:30:39.031Z</time>
      </trkpt>
      <trkpt lat="44.14833" lon="5.05184">
        <ele>176</ele>
        <time>2016-06-30T09:30:40.031Z</time>
      </trkpt>
      <trkpt lat="44.14827" lon="5.05181">
        <ele>175</ele>
        <time>2016-06-30T09:30:41.031Z</time>
      </trkpt>
      <trkpt lat="44.14821" lon="5.05178">
        <ele>175</ele>
        <time>2016-06-30T09:30:42.031Z</time>
      </trkpt>
      <trkpt lat="44.14815" lon="5.05174">
        <ele>175</ele>
        <time>2016-06-30T09:30:43.031Z</time>
      </trkpt>
      <trkpt lat="44.14809" lon="5.05171">
        <ele>174</ele>
        <time>2016-06-30T09:30:44.031Z</time>
      </trkpt>
      <trkpt lat="44.14804" lon="5.05168">
        <ele>173</ele>
        <time>2016-06-30T09:30:45.031Z</time>
      </trkpt>
      <trkpt lat="44.14798" lon="5.05166">
        <ele>173</ele>
        <time>2016-06-30T09:30:46.031Z</time>
      </trkpt>
      <trkpt lat="44.14792" lon="5.05163">
        <ele>172</ele>
        <time>2016-06-30T09:30:47.031Z</time>
      </trkpt>
      <trkpt lat="44.14786" lon="5.05161">
        <ele>172</ele>
        <time>2016-06-30T09:30:48.031Z</time>
      </trkpt>
      <trkpt lat="44.14781" lon="5.05159">
        <ele>172</ele>
        <time>2016-06-30T09:30:49.031Z</time>
      </trkpt>
      <trkpt lat="44.14775" lon="5.05157">
        <ele>171</ele>
        <time>2016-06-30T09:30:50.031Z</time>
      </trkpt>
      <trkpt lat="44.1477" lon="5.05155">
        <ele>171</ele>
        <time>2016-06-30T09:30:51.031Z</time>
      </trkpt>
      <trkpt lat="44.14765" lon="5.05153">
        <ele>170</ele>
        <time>2016-06-30T09:30:52.031Z</time>
      </trkpt>
      <trkpt lat="44.14761" lon="5.0515">
        <ele>170</ele>
        <time>2016-06-30T09:30:53.031Z</time>
      </trkpt>
      <trkpt lat="44.14757" lon="5.05148">
        <ele>171</ele>
        <time>2016-06-30T09:30:54.031Z</time>
      </trkpt>
      <trkpt lat="44.14753" lon="5.05145">
        <ele>171</ele>
        <time>2016-06-30T09:30:55.031Z</time>
      </trkpt>
      <trkpt lat="44.14749" lon="5.05142">
        <ele>171</ele>
        <time>2016-06-30T09:30:56.031Z</time>
      </trkpt>
      <trkpt lat="44.14745" lon="5.0514">
        <ele>170</ele>
        <time>2016-06-30T09:30:57.031Z</time>
      </trkpt>
      <trkpt lat="44.14742" lon="5.05138">
        <ele>169</ele>
        <time>2016-06-30T09:30:58.031Z</time>
      </trkpt>
      <trkpt lat="44.14739" lon="5.05137">
        <ele>169</ele>
        <time>2016-06-30T09:30:59.031Z</time>
      </trkpt>
      <trkpt lat="44.14737" lon="5.05135">
        <ele>169</ele>
        <time>2016-06-30T09:31:00.031Z</time>
      </trkpt>
      <trkpt lat="44.14736" lon="5.05134">
        <ele>169</ele>
        <time>2016-06-30T09:31:01.031Z</time>
      </trkpt>
      <trkpt lat="44.14734" lon="5.05132">
        <ele>169</ele>
        <time>2016-06-30T09:31:02.031Z</time>
      </trkpt>
      <trkpt lat="44.14734" lon="5.05131">
        <ele>169</ele>
        <time>2016-06-30T09:31:03.031Z</time>
      </trkpt>
      <trkpt lat="44.14733" lon="5.05131">
        <ele>169</ele>
        <time>2016-06-30T09:31:04.031Z</time>
      </trkpt>
      <trkpt lat="44.14733" lon="5.05131">
        <ele>169</ele>
        <time>2016-06-30T09:31:05.031Z</time>
      </trkpt>
      <trkpt lat="44.14732" lon="5.0513">
        <ele>170</ele>
        <time>2016-06-30T09:31:06.031Z</time>
      </trkpt>
      <trkpt lat="44.14732" lon="5.0513">
        <ele>170</ele>
        <time>2016-06-30T09:31:07.031Z</time>
      </trkpt>
      <trkpt lat="44.14733" lon="5.0513">
        <ele>171</ele>
        <time>2016-06-30T09:31:08.031Z</time>
      </trkpt>
      <trkpt lat="44.14733" lon="5.0513">
        <ele>171</ele>
        <time>2016-06-30T09:31:09.031Z</time>
      </trkpt>
      <trkpt lat="44.14732" lon="5.0513">
        <ele>172</ele>
        <time>2016-06-30T09:31:10.031Z</time>
      </trkpt>
      <trkpt lat="44.14732" lon="5.0513">
        <ele>173</ele>
        <time>2016-06-30T09:31:11.031Z</time>
      </trkpt>
      <trkpt lat="44.14732" lon="5.0513">
        <ele>173</ele>
        <time>2016-06-30T09:31:12.031Z</time>
      </trkpt>
      <trkpt lat="44.14732" lon="5.0513">
        <ele>174</ele>
        <time>2016-06-30T09:31:13.031Z</time>
      </trkpt>
      <trkpt lat="44.14732" lon="5.0513">
        <ele>174</ele>
        <time>2016-06-30T09:31:14.031Z</time>
      </trkpt>
      <trkpt lat="44.14732" lon="5.0513">
        <ele>175</ele>
        <time>2016-06-30T09:31:15.031Z</time>
      </trkpt>
      <trkpt lat="44.14731" lon="5.0513">
        <ele>176</ele>
        <time>2016-06-30T09:31:16.031Z</time>
      </trkpt>
      <trkpt lat="44.14731" lon="5.0513">
        <ele>176</ele>
        <time>2016-06-30T09:31:17.031Z</time>
      </trkpt>
      <trkpt lat="44.14731" lon="5.0513">
        <ele>176</ele>
        <time>2016-06-30T09:31:18.031Z</time>
      </trkpt>
      <trkpt lat="44.14731" lon="5.0513">
        <ele>176</ele>
        <time>2016-06-30T09:31:19.031Z</time>
      </trkpt>
      <trkpt lat="44.14731" lon="5.0513">
        <ele>176</ele>
        <time>2016-06-30T09:31:20.031Z</time>
      </trkpt>
      <trkpt lat="44.14731" lon="5.0513">
        <ele>176</ele>
        <time>2016-06-30T09:31:21.031Z</time>
      </trkpt>
      <trkpt lat="44.14731" lon="5.0513">
        <ele>176</ele>
        <time>2016-06-30T09:31:22.031Z</time>
      </trkpt>
      <trkpt lat="44.14731" lon="5.0513">
        <ele>176</ele>
        <time>2016-06-30T09:31:23.031Z</time>
      </trkpt>
      <trkpt lat="44.14731" lon="5.0513">
        <ele>175</ele>
        <time>2016-06-30T09:31:24.031Z</time>
      </trkpt>
      <trkpt lat="44.14731" lon="5.0513">
        <ele>175</ele>
        <time>2016-06-30T09:31:25.031Z</time>
      </trkpt>
      <trkpt lat="44.14731" lon="5.0513">
        <ele>175</ele>
        <time>2016-06-30T09:31:26.031Z</time>
      </trkpt>
      <trkpt lat="44.14732" lon="5.0513">
        <ele>175</ele>
        <time>2016-06-30T09:31:27.031Z</time>
      </trkpt>
      <trkpt lat="44.14732" lon="5.0513">
        <ele>175</ele>
        <time>2016-06-30T09:31:28.031Z</time>
      </trkpt>
      <trkpt lat="44.14732" lon="5.0513">
        <ele>175</ele>
        <time>2016-06-30T09:31:29.031Z</time>
      </trkpt>
      <trkpt lat="44.14732" lon="5.0513">
        <ele>175</ele>
        <time>2016-06-30T09:31:30.031Z</time>
      </trkpt>
      <trkpt lat="44.14732" lon="5.0513">
        <ele>175</ele>
        <time>2016-06-30T09:31:31.031Z</time>
      </trkpt>
      <trkpt lat="44.14732" lon="5.0513">
        <ele>175</ele>
        <time>2016-06-30T09:31:32.031Z</time>
      </trkpt>
      <trkpt lat="44.14731" lon="5.0513">
        <ele>175</ele>
        <time>2016-06-30T09:31:33.031Z</time>
      </trkpt>
      <trkpt lat="44.14731" lon="5.05129">
        <ele>175</ele>
        <time>2016-06-30T09:31:34.031Z</time>
      </trkpt>
      <trkpt lat="44.14729" lon="5.05128">
        <ele>176</ele>
        <time>2016-06-30T09:31:35.031Z</time>
      </trkpt>
      <trkpt lat="44.14728" lon="5.05127">
        <ele>176</ele>
        <time>2016-06-30T09:31:36.031Z</time>
      </trkpt>
      <trkpt lat="44.14727" lon="5.05127">
        <ele>176</ele>
        <time>2016-06-30T09:31:37.031Z</time>
      </trkpt>
      <trkpt lat="44.14726" lon="5.05126">
        <ele>176</ele>
        <time>2016-06-30T09:31:38.031Z</time>
      </trkpt>
      <trkpt lat="44.14726" lon="5.05126">
        <ele>176</ele>
        <time>2016-06-30T09:31:39.031Z</time>
      </trkpt>
      <trkpt lat="44.14726" lon="5.05126">
        <ele>176</ele>
        <time>2016-06-30T09:31:40.031Z</time>
      </trkpt>
      <trkpt lat="44.14726" lon="5.05126">
        <ele>176</ele>
        <time>2016-06-30T09:31:41.031Z</time>
      </trkpt>
      <trkpt lat="44.14726" lon="5.05126">
        <ele>176</ele>
        <time>2016-06-30T09:31:42.031Z</time>
      </trkpt>
      <trkpt lat="44.14726" lon="5.05126">
        <ele>176</ele>
        <time>2016-06-30T09:31:43.031Z</time>
      </trkpt>
      <trkpt lat="44.14726" lon="5.05126">
        <ele>176</ele>
        <time>2016-06-30T09:31:44.031Z</time>
      </trkpt>
      <trkpt lat="44.14726" lon="5.05126">
        <ele>176</ele>
        <time>2016-06-30T09:31:45.031Z</time>
      </trkpt>
      <trkpt lat="44.14726" lon="5.05126">
        <ele>176</ele>
        <time>2016-06-30T09:31:46.031Z</time>
      </trkpt>
      <trkpt lat="44.14726" lon="5.05126">
        <ele>176</ele>
        <time>2016-06-30T09:31:47.031Z</time>
      </trkpt>
      <trkpt lat="44.14726" lon="5.05126">
        <ele>176</ele>
        <time>2016-06-30T09:31:48.031Z</time>
      </trkpt>
      <trkpt lat="44.14726" lon="5.05126">
        <ele>176</ele>
        <time>2016-06-30T09:31:49.031Z</time>
      </trkpt>
      <trkpt lat="44.14726" lon="5.05126">
        <ele>176</ele>
        <time>2016-06-30T09:31:50.031Z</time>
      </trkpt>
      <trkpt lat="44.14725" lon="5.05126">
        <ele>176</ele>
        <time>2016-06-30T09:31:51.031Z</time>
      </trkpt>
      <trkpt lat="44.14725" lon="5.05126">
        <ele>176</ele>
        <time>2016-06-30T09:31:52.031Z</time>
      </trkpt>
      <trkpt lat="44.14725" lon="5.05126">
        <ele>176</ele>
        <time>2016-06-30T09:31:53.031Z</time>
      </trkpt>
      <trkpt lat="44.14725" lon="5.05127">
        <ele>176</ele>
        <time>2016-06-30T09:31:54.031Z</time>
      </trkpt>
      <trkpt lat="44.14725" lon="5.05127">
        <ele>177</ele>
        <time>2016-06-30T09:31:55.031Z</time>
      </trkpt>
      <trkpt lat="44.14725" lon="5.05126">
        <ele>177</ele>
        <time>2016-06-30T09:31:56.031Z</time>
      </trkpt>
      <trkpt lat="44.14725" lon="5.05126">
        <ele>177</ele>
        <time>2016-06-30T09:31:57.031Z</time>
      </trkpt>
      <trkpt lat="44.14725" lon="5.05126">
        <ele>177</ele>
        <time>2016-06-30T09:31:58.031Z</time>
      </trkpt>
      <trkpt lat="44.14725" lon="5.05126">
        <ele>177</ele>
        <time>2016-06-30T09:31:59.031Z</time>
      </trkpt>
      <trkpt lat="44.14725" lon="5.05126">
        <ele>177</ele>
        <time>2016-06-30T09:32:00.031Z</time>
      </trkpt>
      <trkpt lat="44.14724" lon="5.05126">
        <ele>178</ele>
        <time>2016-06-30T09:32:01.031Z</time>
      </trkpt>
      <trkpt lat="44.14724" lon="5.05126">
        <ele>178</ele>
        <time>2016-06-30T09:32:02.031Z</time>
      </trkpt>
      <trkpt lat="44.14724" lon="5.05126">
        <ele>178</ele>
        <time>2016-06-30T09:32:03.031Z</time>
      </trkpt>
      <trkpt lat="44.14724" lon="5.05126">
        <ele>179</ele>
        <time>2016-06-30T09:32:04.031Z</time>
      </trkpt>
      <trkpt lat="44.14724" lon="5.05126">
        <ele>179</ele>
        <time>2016-06-30T09:32:05.031Z</time>
      </trkpt>
      <trkpt lat="44.14724" lon="5.05126">
        <ele>179</ele>
        <time>2016-06-30T09:32:06.031Z</time>
      </trkpt>
      <trkpt lat="44.14724" lon="5.05126">
        <ele>179</ele>
        <time>2016-06-30T09:32:07.031Z</time>
      </trkpt>
      <trkpt lat="44.14724" lon="5.05126">
        <ele>179</ele>
        <time>2016-06-30T09:32:08.031Z</time>
      </trkpt>
      <trkpt lat="44.14724" lon="5.05126">
        <ele>179</ele>
        <time>2016-06-30T09:32:09.031Z</time>
      </trkpt>
      <trkpt lat="44.14724" lon="5.05126">
        <ele>179</ele>
        <time>2016-06-30T09:32:10.031Z</time>
      </trkpt>
      <trkpt lat="44.14724" lon="5.05126">
        <ele>179</ele>
        <time>2016-06-30T09:32:11.031Z</time>
      </trkpt>
      <trkpt lat="44.14724" lon="5.05126">
        <ele>180</ele>
        <time>2016-06-30T09:32:12.031Z</time>
      </trkpt>
      <trkpt lat="44.14723" lon="5.05127">
        <ele>180</ele>
        <time>2016-06-30T09:32:13.031Z</time>
      </trkpt>
      <trkpt lat="44.14723" lon="5.05127">
        <ele>180</ele>
        <time>2016-06-30T09:32:14.031Z</time>
      </trkpt>
      <trkpt lat="44.14723" lon="5.05127">
        <ele>180</ele>
        <time>2016-06-30T09:32:15.031Z</time>
      </trkpt>
      <trkpt lat="44.14724" lon="5.05127">
        <ele>180</ele>
        <time>2016-06-30T09:32:16.031Z</time>
      </trkpt>
      <trkpt lat="44.14724" lon="5.05127">
        <ele>179</ele>
        <time>2016-06-30T09:32:17.031Z</time>
      </trkpt>
      <trkpt lat="44.14723" lon="5.05127">
        <ele>179</ele>
        <time>2016-06-30T09:32:18.031Z</time>
      </trkpt>
      <trkpt lat="44.14723" lon="5.05127">
        <ele>179</ele>
        <time>2016-06-30T09:32:19.031Z</time>
      </trkpt>
      <trkpt lat="44.14723" lon="5.05127">
        <ele>179</ele>
        <time>2016-06-30T09:32:20.031Z</time>
      </trkpt>
      <trkpt lat="44.14723" lon="5.05127">
        <ele>179</ele>
        <time>2016-06-30T09:32:21.031Z</time>
      </trkpt>
      <trkpt lat="44.14723" lon="5.05128">
        <ele>179</ele>
        <time>2016-06-30T09:32:22.031Z</time>
      </trkpt>
      <trkpt lat="44.14723" lon="5.05128">
        <ele>179</ele>
        <time>2016-06-30T09:32:23.031Z</time>
      </trkpt>
      <trkpt lat="44.14723" lon="5.05128">
        <ele>179</ele>
        <time>2016-06-30T09:32:24.031Z</time>
      </trkpt>
      <trkpt lat="44.14723" lon="5.05128">
        <ele>180</ele>
        <time>2016-06-30T09:32:25.031Z</time>
      </trkpt>
      <trkpt lat="44.14723" lon="5.05128">
        <ele>180</ele>
        <time>2016-06-30T09:32:26.031Z</time>
      </trkpt>
      <trkpt lat="44.14723" lon="5.05128">
        <ele>180</ele>
        <time>2016-06-30T09:32:27.031Z</time>
      </trkpt>
      <trkpt lat="44.14723" lon="5.05128">
        <ele>180</ele>
        <time>2016-06-30T09:32:28.031Z</time>
      </trkpt>
      <trkpt lat="44.14723" lon="5.05128">
        <ele>180</ele>
        <time>2016-06-30T09:32:29.031Z</time>
      </trkpt>
      <trkpt lat="44.14722" lon="5.05128">
        <ele>180</ele>
        <time>2016-06-30T09:32:30.031Z</time>
      </trkpt>
      <trkpt lat="44.1472" lon="5.05128">
        <ele>179</ele>
        <time>2016-06-30T09:32:31.031Z</time>
      </trkpt>
      <trkpt lat="44.14719" lon="5.05128">
        <ele>178</ele>
        <time>2016-06-30T09:32:32.031Z</time>
      </trkpt>
      <trkpt lat="44.14717" lon="5.05127">
        <ele>177</ele>
        <time>2016-06-30T09:32:33.031Z</time>
      </trkpt>
      <trkpt lat="44.14715" lon="5.05126">
        <ele>177</ele>
        <time>2016-06-30T09:32:34.031Z</time>
      </trkpt>
      <trkpt lat="44.14713" lon="5.05125">
        <ele>176</ele>
        <time>2016-06-30T09:32:35.031Z</time>
      </trkpt>
      <trkpt lat="44.1471" lon="5.05123">
        <ele>176</ele>
        <time>2016-06-30T09:32:36.031Z</time>
      </trkpt>
      <trkpt lat="44.14707" lon="5.05122">
        <ele>175</ele>
        <time>2016-06-30T09:32:37.031Z</time>
      </trkpt>
      <trkpt lat="44.14704" lon="5.05121">
        <ele>174</ele>
        <time>2016-06-30T09:32:38.031Z</time>
      </trkpt>
      <trkpt lat="44.147" lon="5.05121">
        <ele>174</ele>
        <time>2016-06-30T09:32:39.031Z</time>
      </trkpt>
      <trkpt lat="44.14697" lon="5.0512">
        <ele>174</ele>
        <time>2016-06-30T09:32:40.031Z</time>
      </trkpt>
      <trkpt lat="44.14693" lon="5.0512">
        <ele>173</ele>
        <time>2016-06-30T09:32:41.031Z</time>
      </trkpt>
      <trkpt lat="44.1469" lon="5.0512">
        <ele>173</ele>
        <time>2016-06-30T09:32:42.031Z</time>
      </trkpt>
      <trkpt lat="44.14687" lon="5.0512">
        <ele>172</ele>
        <time>2016-06-30T09:32:43.031Z</time>
      </trkpt>
      <trkpt lat="44.14684" lon="5.05121">
        <ele>172</ele>
        <time>2016-06-30T09:32:44.031Z</time>
      </trkpt>
      <trkpt lat="44.14682" lon="5.05122">
        <ele>172</ele>
        <time>2016-06-30T09:32:45.031Z</time>
      </trkpt>
      <trkpt lat="44.14679" lon="5.05123">
        <ele>172</ele>
        <time>2016-06-30T09:32:46.031Z</time>
      </trkpt>
      <trkpt lat="44.14677" lon="5.05125">
        <ele>172</ele>
        <time>2016-06-30T09:32:47.031Z</time>
      </trkpt>
      <trkpt lat="44.14675" lon="5.05126">
        <ele>170</ele>
        <time>2016-06-30T09:32:48.031Z</time>
      </trkpt>
      <trkpt lat="44.14675" lon="5.05126">
        <ele>169</ele>
        <time>2016-06-30T09:32:49.031Z</time>
      </trkpt>
      <trkpt lat="44.14675" lon="5.05126">
        <ele>167</ele>
        <time>2016-06-30T09:32:50.031Z</time>
      </trkpt>
      <trkpt lat="44.14675" lon="5.05126">
        <ele>168</ele>
        <time>2016-06-30T09:32:51.031Z</time>
      </trkpt>
      <trkpt lat="44.14675" lon="5.05126">
        <ele>168</ele>
        <time>2016-06-30T09:32:52.031Z</time>
      </trkpt>
      <trkpt lat="44.14675" lon="5.05125">
        <ele>168</ele>
        <time>2016-06-30T09:32:53.031Z</time>
      </trkpt>
      <trkpt lat="44.14675" lon="5.05125">
        <ele>167</ele>
        <time>2016-06-30T09:32:54.031Z</time>
      </trkpt>
      <trkpt lat="44.14675" lon="5.05125">
        <ele>167</ele>
        <time>2016-06-30T09:32:55.031Z</time>
      </trkpt>
      <trkpt lat="44.14675" lon="5.05125">
        <ele>167</ele>
        <time>2016-06-30T09:32:56.031Z</time>
      </trkpt>
      <trkpt lat="44.14675" lon="5.05125">
        <ele>167</ele>
        <time>2016-06-30T09:32:57.031Z</time>
      </trkpt>
      <trkpt lat="44.14675" lon="5.05125">
        <ele>167</ele>
        <time>2016-06-30T09:32:58.031Z</time>
      </trkpt>
      <trkpt lat="44.14675" lon="5.05125">
        <ele>167</ele>
        <time>2016-06-30T09:32:59.031Z</time>
      </trkpt>
      <trkpt lat="44.14675" lon="5.05126">
        <ele>167</ele>
        <time>2016-06-30T09:33:00.031Z</time>
      </trkpt>
      <trkpt lat="44.14675" lon="5.05125">
        <ele>167</ele>
        <time>2016-06-30T09:33:01.031Z</time>
      </trkpt>
      <trkpt lat="44.14675" lon="5.05125">
        <ele>167</ele>
        <time>2016-06-30T09:33:02.031Z</time>
      </trkpt>
      <trkpt lat="44.14675" lon="5.05126">
        <ele>168</ele>
        <time>2016-06-30T09:33:03.031Z</time>
      </trkpt>
      <trkpt lat="44.14675" lon="5.05126">
        <ele>168</ele>
        <time>2016-06-30T09:33:04.031Z</time>
      </trkpt>
      <trkpt lat="44.14675" lon="5.05126">
        <ele>168</ele>
        <time>2016-06-30T09:33:05.031Z</time>
      </trkpt>
      <trkpt lat="44.14675" lon="5.05126">
        <ele>168</ele>
        <time>2016-06-30T09:33:06.031Z</time>
      </trkpt>
      <trkpt lat="44.14675" lon="5.05126">
        <ele>168</ele>
        <time>2016-06-30T09:33:07.031Z</time>
      </trkpt>
      <trkpt lat="44.14675" lon="5.05126">
        <ele>168</ele>
        <time>2016-06-30T09:33:08.031Z</time>
      </trkpt>
      <trkpt lat="44.14675" lon="5.05126">
        <ele>168</ele>
        <time>2016-06-30T09:33:09.031Z</time>
      </trkpt>
      <trkpt lat="44.14675" lon="5.05126">
        <ele>168</ele>
        <time>2016-06-30T09:33:10.031Z</time>
      </trkpt>
      <trkpt lat="44.14675" lon="5.05126">
        <ele>168</ele>
        <time>2016-06-30T09:33:11.031Z</time>
      </trkpt>
      <trkpt lat="44.14675" lon="5.05126">
        <ele>168</ele>
        <time>2016-06-30T09:33:12.031Z</time>
      </trkpt>
      <trkpt lat="44.14675" lon="5.05127">
        <ele>168</ele>
        <time>2016-06-30T09:33:13.031Z</time>
      </trkpt>
      <trkpt lat="44.14675" lon="5.05127">
        <ele>168</ele>
        <time>2016-06-30T09:33:14.031Z</time>
      </trkpt>
      <trkpt lat="44.14675" lon="5.05127">
        <ele>168</ele>
        <time>2016-06-30T09:33:15.031Z</time>
      </trkpt>
      <trkpt lat="44.14675" lon="5.05127">
        <ele>167</ele>
        <time>2016-06-30T09:33:16.031Z</time>
      </trkpt>
      <trkpt lat="44.14675" lon="5.05127">
        <ele>167</ele>
        <time>2016-06-30T09:33:17.031Z</time>
      </trkpt>
      <trkpt lat="44.14675" lon="5.05127">
        <ele>167</ele>
        <time>2016-06-30T09:33:18.031Z</time>
      </trkpt>
      <trkpt lat="44.14675" lon="5.05127">
        <ele>167</ele>
        <time>2016-06-30T09:33:19.031Z</time>
      </trkpt>
      <trkpt lat="44.14675" lon="5.05128">
        <ele>167</ele>
        <time>2016-06-30T09:33:20.031Z</time>
      </trkpt>
      <trkpt lat="44.14675" lon="5.05128">
        <ele>167</ele>
        <time>2016-06-30T09:33:21.031Z</time>
      </trkpt>
      <trkpt lat="44.14675" lon="5.05128">
        <ele>167</ele>
        <time>2016-06-30T09:33:22.031Z</time>
      </trkpt>
      <trkpt lat="44.14675" lon="5.05128">
        <ele>168</ele>
        <time>2016-06-30T09:33:23.031Z</time>
      </trkpt>
      <trkpt lat="44.14675" lon="5.05127">
        <ele>168</ele>
        <time>2016-06-30T09:33:24.031Z</time>
      </trkpt>
      <trkpt lat="44.14675" lon="5.05127">
        <ele>168</ele>
        <time>2016-06-30T09:33:25.031Z</time>
      </trkpt>
      <trkpt lat="44.14675" lon="5.05127">
        <ele>168</ele>
        <time>2016-06-30T09:33:26.031Z</time>
      </trkpt>
      <trkpt lat="44.14676" lon="5.05127">
        <ele>168</ele>
        <time>2016-06-30T09:33:27.047Z</time>
      </trkpt>
      <trkpt lat="44.14676" lon="5.05127">
        <ele>168</ele>
        <time>2016-06-30T09:33:28.047Z</time>
      </trkpt>
      <trkpt lat="44.14676" lon="5.05127">
        <ele>167</ele>
        <time>2016-06-30T09:33:29.047Z</time>
      </trkpt>
      <trkpt lat="44.14676" lon="5.05127">
        <ele>167</ele>
        <time>2016-06-30T09:33:30.047Z</time>
      </trkpt>
      <trkpt lat="44.14675" lon="5.05127">
        <ele>167</ele>
        <time>2016-06-30T09:33:31.047Z</time>
      </trkpt>
      <trkpt lat="44.14674" lon="5.05127">
        <ele>166</ele>
        <time>2016-06-30T09:33:32.047Z</time>
      </trkpt>
      <trkpt lat="44.14673" lon="5.05127">
        <ele>167</ele>
        <time>2016-06-30T09:33:33.047Z</time>
      </trkpt>
      <trkpt lat="44.14671" lon="5.05126">
        <ele>167</ele>
        <time>2016-06-30T09:33:34.047Z</time>
      </trkpt>
      <trkpt lat="44.14669" lon="5.05125">
        <ele>167</ele>
        <time>2016-06-30T09:33:35.047Z</time>
      </trkpt>
      <trkpt lat="44.14667" lon="5.05123">
        <ele>167</ele>
        <time>2016-06-30T09:33:36.047Z</time>
      </trkpt>
      <trkpt lat="44.14665" lon="5.05122">
        <ele>166</ele>
        <time>2016-06-30T09:33:37.047Z</time>
      </trkpt>
      <trkpt lat="44.14662" lon="5.0512">
        <ele>165</ele>
        <time>2016-06-30T09:33:38.047Z</time>
      </trkpt>
      <trkpt lat="44.14658" lon="5.05119">
        <ele>165</ele>
        <time>2016-06-30T09:33:39.047Z</time>
      </trkpt>
      <trkpt lat="44.14654" lon="5.05117">
        <ele>166</ele>
        <time>2016-06-30T09:33:40.047Z</time>
      </trkpt>
      <trkpt lat="44.14649" lon="5.05114">
        <ele>166</ele>
        <time>2016-06-30T09:33:41.047Z</time>
      </trkpt>
      <trkpt lat="44.14644" lon="5.05112">
        <ele>166</ele>
        <time>2016-06-30T09:33:42.047Z</time>
      </trkpt>
      <trkpt lat="44.14639" lon="5.0511">
        <ele>165</ele>
        <time>2016-06-30T09:33:43.047Z</time>
      </trkpt>
      <trkpt lat="44.14634" lon="5.05108">
        <ele>165</ele>
        <time>2016-06-30T09:33:44.047Z</time>
      </trkpt>
      <trkpt lat="44.14629" lon="5.05106">
        <ele>164</ele>
        <time>2016-06-30T09:33:45.047Z</time>
      </trkpt>
      <trkpt lat="44.14624" lon="5.05104">
        <ele>164</ele>
        <time>2016-06-30T09:33:46.047Z</time>
      </trkpt>
      <trkpt lat="44.14619" lon="5.05102">
        <ele>164</ele>
        <time>2016-06-30T09:33:47.047Z</time>
      </trkpt>
      <trkpt lat="44.14614" lon="5.051">
        <ele>163</ele>
        <time>2016-06-30T09:33:48.047Z</time>
      </trkpt>
      <trkpt lat="44.14608" lon="5.05098">
        <ele>163</ele>
        <time>2016-06-30T09:33:49.047Z</time>
      </trkpt>
      <trkpt lat="44.14603" lon="5.05096">
        <ele>162</ele>
        <time>2016-06-30T09:33:50.047Z</time>
      </trkpt>
      <trkpt lat="44.14597" lon="5.05094">
        <ele>162</ele>
        <time>2016-06-30T09:33:51.047Z</time>
      </trkpt>
      <trkpt lat="44.14591" lon="5.05092">
        <ele>161</ele>
        <time>2016-06-30T09:33:52.047Z</time>
      </trkpt>
      <trkpt lat="44.14585" lon="5.05091">
        <ele>161</ele>
        <time>2016-06-30T09:33:53.047Z</time>
      </trkpt>
      <trkpt lat="44.14579" lon="5.05088">
        <ele>160</ele>
        <time>2016-06-30T09:33:54.047Z</time>
      </trkpt>
      <trkpt lat="44.14573" lon="5.05086">
        <ele>160</ele>
        <time>2016-06-30T09:33:55.047Z</time>
      </trkpt>
      <trkpt lat="44.14566" lon="5.05083">
        <ele>159</ele>
        <time>2016-06-30T09:33:56.047Z</time>
      </trkpt>
      <trkpt lat="44.14559" lon="5.05081">
        <ele>158</ele>
        <time>2016-06-30T09:33:57.047Z</time>
      </trkpt>
      <trkpt lat="44.14553" lon="5.05078">
        <ele>158</ele>
        <time>2016-06-30T09:33:58.047Z</time>
      </trkpt>
      <trkpt lat="44.14545" lon="5.05076">
        <ele>158</ele>
        <time>2016-06-30T09:33:59.047Z</time>
      </trkpt>
      <trkpt lat="44.14538" lon="5.05073">
        <ele>157</ele>
        <time>2016-06-30T09:34:00.047Z</time>
      </trkpt>
      <trkpt lat="44.14531" lon="5.0507">
        <ele>157</ele>
        <time>2016-06-30T09:34:01.047Z</time>
      </trkpt>
      <trkpt lat="44.14523" lon="5.05067">
        <ele>156</ele>
        <time>2016-06-30T09:34:02.047Z</time>
      </trkpt>
      <trkpt lat="44.14515" lon="5.05064">
        <ele>156</ele>
        <time>2016-06-30T09:34:03.047Z</time>
      </trkpt>
      <trkpt lat="44.14508" lon="5.05061">
        <ele>155</ele>
        <time>2016-06-30T09:34:04.047Z</time>
      </trkpt>
      <trkpt lat="44.145" lon="5.05059">
        <ele>155</ele>
        <time>2016-06-30T09:34:05.047Z</time>
      </trkpt>
      <trkpt lat="44.14492" lon="5.05056">
        <ele>154</ele>
        <time>2016-06-30T09:34:06.047Z</time>
      </trkpt>
      <trkpt lat="44.14485" lon="5.05053">
        <ele>154</ele>
        <time>2016-06-30T09:34:07.047Z</time>
      </trkpt>
      <trkpt lat="44.14477" lon="5.0505">
        <ele>154</ele>
        <time>2016-06-30T09:34:08.047Z</time>
      </trkpt>
      <trkpt lat="44.14469" lon="5.05048">
        <ele>153</ele>
        <time>2016-06-30T09:34:09.047Z</time>
      </trkpt>
      <trkpt lat="44.14461" lon="5.05045">
        <ele>153</ele>
        <time>2016-06-30T09:34:10.047Z</time>
      </trkpt>
      <trkpt lat="44.14454" lon="5.05042">
        <ele>153</ele>
        <time>2016-06-30T09:34:11.047Z</time>
      </trkpt>
      <trkpt lat="44.14446" lon="5.05039">
        <ele>153</ele>
        <time>2016-06-30T09:34:12.047Z</time>
      </trkpt>
      <trkpt lat="44.14439" lon="5.05036">
        <ele>153</ele>
        <time>2016-06-30T09:34:13.047Z</time>
      </trkpt>
      <trkpt lat="44.14432" lon="5.05032">
        <ele>153</ele>
        <time>2016-06-30T09:34:14.047Z</time>
      </trkpt>
      <trkpt lat="44.14426" lon="5.05027">
        <ele>152</ele>
        <time>2016-06-30T09:34:15.047Z</time>
      </trkpt>
      <trkpt lat="44.14421" lon="5.05021">
        <ele>152</ele>
        <time>2016-06-30T09:34:16.047Z</time>
      </trkpt>
      <trkpt lat="44.14417" lon="5.05015">
        <ele>152</ele>
        <time>2016-06-30T09:34:17.047Z</time>
      </trkpt>
      <trkpt lat="44.14413" lon="5.05008">
        <ele>152</ele>
        <time>2016-06-30T09:34:18.047Z</time>
      </trkpt>
      <trkpt lat="44.14409" lon="5.05002">
        <ele>152</ele>
        <time>2016-06-30T09:34:19.047Z</time>
      </trkpt>
      <trkpt lat="44.14407" lon="5.04996">
        <ele>153</ele>
        <time>2016-06-30T09:34:20.047Z</time>
      </trkpt>
      <trkpt lat="44.14405" lon="5.0499">
        <ele>154</ele>
        <time>2016-06-30T09:34:21.047Z</time>
      </trkpt>
      <trkpt lat="44.14404" lon="5.04984">
        <ele>154</ele>
        <time>2016-06-30T09:34:22.047Z</time>
      </trkpt>
      <trkpt lat="44.14403" lon="5.04978">
        <ele>154</ele>
        <time>2016-06-30T09:34:23.047Z</time>
      </trkpt>
      <trkpt lat="44.14401" lon="5.04972">
        <ele>154</ele>
        <time>2016-06-30T09:34:24.047Z</time>
      </trkpt>
      <trkpt lat="44.144" lon="5.04967">
        <ele>154</ele>
        <time>2016-06-30T09:34:25.047Z</time>
      </trkpt>
      <trkpt lat="44.14397" lon="5.04962">
        <ele>154</ele>
        <time>2016-06-30T09:34:26.047Z</time>
      </trkpt>
      <trkpt lat="44.14395" lon="5.04958">
        <ele>154</ele>
        <time>2016-06-30T09:34:27.047Z</time>
      </trkpt>
      <trkpt lat="44.14392" lon="5.04954">
        <ele>155</ele>
        <time>2016-06-30T09:34:28.047Z</time>
      </trkpt>
      <trkpt lat="44.14388" lon="5.04951">
        <ele>154</ele>
        <time>2016-06-30T09:34:29.047Z</time>
      </trkpt>
      <trkpt lat="44.14384" lon="5.04948">
        <ele>154</ele>
        <time>2016-06-30T09:34:30.047Z</time>
      </trkpt>
      <trkpt lat="44.1438" lon="5.04946">
        <ele>154</ele>
        <time>2016-06-30T09:34:31.047Z</time>
      </trkpt>
      <trkpt lat="44.14375" lon="5.04945">
        <ele>154</ele>
        <time>2016-06-30T09:34:32.047Z</time>
      </trkpt>
      <trkpt lat="44.14371" lon="5.04944">
        <ele>154</ele>
        <time>2016-06-30T09:34:33.047Z</time>
      </trkpt>
      <trkpt lat="44.14366" lon="5.04944">
        <ele>155</ele>
        <time>2016-06-30T09:34:34.047Z</time>
      </trkpt>
      <trkpt lat="44.14361" lon="5.04944">
        <ele>154</ele>
        <time>2016-06-30T09:34:35.047Z</time>
      </trkpt>
      <trkpt lat="44.14356" lon="5.04944">
        <ele>155</ele>
        <time>2016-06-30T09:34:36.047Z</time>
      </trkpt>
      <trkpt lat="44.14351" lon="5.04944">
        <ele>155</ele>
        <time>2016-06-30T09:34:37.047Z</time>
      </trkpt>
      <trkpt lat="44.14347" lon="5.04944">
        <ele>155</ele>
        <time>2016-06-30T09:34:38.047Z</time>
      </trkpt>
      <trkpt lat="44.14342" lon="5.04944">
        <ele>156</ele>
        <time>2016-06-30T09:34:39.047Z</time>
      </trkpt>
      <trkpt lat="44.14337" lon="5.04944">
        <ele>156</ele>
        <time>2016-06-30T09:34:40.047Z</time>
      </trkpt>
      <trkpt lat="44.14333" lon="5.04945">
        <ele>156</ele>
        <time>2016-06-30T09:34:41.047Z</time>
      </trkpt>
      <trkpt lat="44.14328" lon="5.04945">
        <ele>157</ele>
        <time>2016-06-30T09:34:42.047Z</time>
      </trkpt>
      <trkpt lat="44.14324" lon="5.04946">
        <ele>157</ele>
        <time>2016-06-30T09:34:43.047Z</time>
      </trkpt>
      <trkpt lat="44.1432" lon="5.04946">
        <ele>157</ele>
        <time>2016-06-30T09:34:44.047Z</time>
      </trkpt>
      <trkpt lat="44.14315" lon="5.04946">
        <ele>157</ele>
        <time>2016-06-30T09:34:45.047Z</time>
      </trkpt>
      <trkpt lat="44.14311" lon="5.04946">
        <ele>157</ele>
        <time>2016-06-30T09:34:46.047Z</time>
      </trkpt>
      <trkpt lat="44.14306" lon="5.04945">
        <ele>157</ele>
        <time>2016-06-30T09:34:47.047Z</time>
      </trkpt>
      <trkpt lat="44.14302" lon="5.04944">
        <ele>157</ele>
        <time>2016-06-30T09:34:48.047Z</time>
      </trkpt>
      <trkpt lat="44.14297" lon="5.04944">
        <ele>157</ele>
        <time>2016-06-30T09:34:49.047Z</time>
      </trkpt>
      <trkpt lat="44.14292" lon="5.04942">
        <ele>157</ele>
        <time>2016-06-30T09:34:50.047Z</time>
      </trkpt>
      <trkpt lat="44.14287" lon="5.04941">
        <ele>157</ele>
        <time>2016-06-30T09:34:51.047Z</time>
      </trkpt>
      <trkpt lat="44.14282" lon="5.04938">
        <ele>156</ele>
        <time>2016-06-30T09:34:52.047Z</time>
      </trkpt>
      <trkpt lat="44.14277" lon="5.04935">
        <ele>155</ele>
        <time>2016-06-30T09:34:53.047Z</time>
      </trkpt>
      <trkpt lat="44.14272" lon="5.04931">
        <ele>155</ele>
        <time>2016-06-30T09:34:54.047Z</time>
      </trkpt>
      <trkpt lat="44.14267" lon="5.04926">
        <ele>155</ele>
        <time>2016-06-30T09:34:55.047Z</time>
      </trkpt>
      <trkpt lat="44.14262" lon="5.04921">
        <ele>155</ele>
        <time>2016-06-30T09:34:56.047Z</time>
      </trkpt>
      <trkpt lat="44.14257" lon="5.04915">
        <ele>155</ele>
        <time>2016-06-30T09:34:57.047Z</time>
      </trkpt>
      <trkpt lat="44.14252" lon="5.04909">
        <ele>154</ele>
        <time>2016-06-30T09:34:58.047Z</time>
      </trkpt>
      <trkpt lat="44.14248" lon="5.04901">
        <ele>154</ele>
        <time>2016-06-30T09:34:59.047Z</time>
      </trkpt>
      <trkpt lat="44.14244" lon="5.04892">
        <ele>155</ele>
        <time>2016-06-30T09:35:00.047Z</time>
      </trkpt>
      <trkpt lat="44.14241" lon="5.04884">
        <ele>155</ele>
        <time>2016-06-30T09:35:01.047Z</time>
      </trkpt>
      <trkpt lat="44.14237" lon="5.04877">
        <ele>155</ele>
        <time>2016-06-30T09:35:02.047Z</time>
      </trkpt>
      <trkpt lat="44.14231" lon="5.0487">
        <ele>154</ele>
        <time>2016-06-30T09:35:03.047Z</time>
      </trkpt>
      <trkpt lat="44.14225" lon="5.04864">
        <ele>154</ele>
        <time>2016-06-30T09:35:04.047Z</time>
      </trkpt>
      <trkpt lat="44.14218" lon="5.0486">
        <ele>154</ele>
        <time>2016-06-30T09:35:05.047Z</time>
      </trkpt>
      <trkpt lat="44.14211" lon="5.04857">
        <ele>154</ele>
        <time>2016-06-30T09:35:06.047Z</time>
      </trkpt>
      <trkpt lat="44.14204" lon="5.04855">
        <ele>153</ele>
        <time>2016-06-30T09:35:07.047Z</time>
      </trkpt>
      <trkpt lat="44.14197" lon="5.04854">
        <ele>152</ele>
        <time>2016-06-30T09:35:08.047Z</time>
      </trkpt>
      <trkpt lat="44.1419" lon="5.04854">
        <ele>152</ele>
        <time>2016-06-30T09:35:09.047Z</time>
      </trkpt>
      <trkpt lat="44.14183" lon="5.04854">
        <ele>151</ele>
        <time>2016-06-30T09:35:10.047Z</time>
      </trkpt>
      <trkpt lat="44.14175" lon="5.04853">
        <ele>151</ele>
        <time>2016-06-30T09:35:11.047Z</time>
      </trkpt>
      <trkpt lat="44.14168" lon="5.04851">
        <ele>151</ele>
        <time>2016-06-30T09:35:12.047Z</time>
      </trkpt>
      <trkpt lat="44.14161" lon="5.04848">
        <ele>150</ele>
        <time>2016-06-30T09:35:13.047Z</time>
      </trkpt>
      <trkpt lat="44.14154" lon="5.04844">
        <ele>150</ele>
        <time>2016-06-30T09:35:14.047Z</time>
      </trkpt>
      <trkpt lat="44.14147" lon="5.04838">
        <ele>149</ele>
        <time>2016-06-30T09:35:15.047Z</time>
      </trkpt>
      <trkpt lat="44.14141" lon="5.04832">
        <ele>148</ele>
        <time>2016-06-30T09:35:16.047Z</time>
      </trkpt>
      <trkpt lat="44.14136" lon="5.04823">
        <ele>148</ele>
        <time>2016-06-30T09:35:17.047Z</time>
      </trkpt>
      <trkpt lat="44.1413" lon="5.04815">
        <ele>147</ele>
        <time>2016-06-30T09:35:18.047Z</time>
      </trkpt>
      <trkpt lat="44.14124" lon="5.04806">
        <ele>147</ele>
        <time>2016-06-30T09:35:19.047Z</time>
      </trkpt>
      <trkpt lat="44.14118" lon="5.04798">
        <ele>147</ele>
        <time>2016-06-30T09:35:20.047Z</time>
      </trkpt>
      <trkpt lat="44.14112" lon="5.04789">
        <ele>146</ele>
        <time>2016-06-30T09:35:21.047Z</time>
      </trkpt>
      <trkpt lat="44.14106" lon="5.0478">
        <ele>146</ele>
        <time>2016-06-30T09:35:22.047Z</time>
      </trkpt>
      <trkpt lat="44.141" lon="5.04771">
        <ele>145</ele>
        <time>2016-06-30T09:35:23.047Z</time>
      </trkpt>
      <trkpt lat="44.14094" lon="5.04762">
        <ele>145</ele>
        <time>2016-06-30T09:35:24.047Z</time>
      </trkpt>
      <trkpt lat="44.14088" lon="5.04753">
        <ele>144</ele>
        <time>2016-06-30T09:35:25.047Z</time>
      </trkpt>
      <trkpt lat="44.14082" lon="5.04744">
        <ele>144</ele>
        <time>2016-06-30T09:35:26.047Z</time>
      </trkpt>
      <trkpt lat="44.14075" lon="5.04734">
        <ele>144</ele>
        <time>2016-06-30T09:35:27.047Z</time>
      </trkpt>
      <trkpt lat="44.1407" lon="5.04725">
        <ele>143</ele>
        <time>2016-06-30T09:35:28.047Z</time>
      </trkpt>
      <trkpt lat="44.14064" lon="5.04716">
        <ele>143</ele>
        <time>2016-06-30T09:35:29.047Z</time>
      </trkpt>
      <trkpt lat="44.14058" lon="5.04707">
        <ele>143</ele>
        <time>2016-06-30T09:35:30.047Z</time>
      </trkpt>
      <trkpt lat="44.14052" lon="5.04699">
        <ele>143</ele>
        <time>2016-06-30T09:35:31.047Z</time>
      </trkpt>
      <trkpt lat="44.14045" lon="5.04692">
        <ele>142</ele>
        <time>2016-06-30T09:35:32.047Z</time>
      </trkpt>
      <trkpt lat="44.14039" lon="5.04685">
        <ele>143</ele>
        <time>2016-06-30T09:35:33.047Z</time>
      </trkpt>
      <trkpt lat="44.14032" lon="5.0468">
        <ele>143</ele>
        <time>2016-06-30T09:35:34.047Z</time>
      </trkpt>
      <trkpt lat="44.14025" lon="5.04675">
        <ele>143</ele>
        <time>2016-06-30T09:35:35.047Z</time>
      </trkpt>
      <trkpt lat="44.14017" lon="5.04671">
        <ele>143</ele>
        <time>2016-06-30T09:35:36.047Z</time>
      </trkpt>
      <trkpt lat="44.1401" lon="5.04667">
        <ele>143</ele>
        <time>2016-06-30T09:35:37.047Z</time>
      </trkpt>
      <trkpt lat="44.14003" lon="5.04664">
        <ele>142</ele>
        <time>2016-06-30T09:35:38.047Z</time>
      </trkpt>
      <trkpt lat="44.13996" lon="5.04661">
        <ele>142</ele>
        <time>2016-06-30T09:35:39.047Z</time>
      </trkpt>
      <trkpt lat="44.13989" lon="5.04659">
        <ele>142</ele>
        <time>2016-06-30T09:35:40.047Z</time>
      </trkpt>
      <trkpt lat="44.13982" lon="5.04657">
        <ele>141</ele>
        <time>2016-06-30T09:35:41.047Z</time>
      </trkpt>
      <trkpt lat="44.13975" lon="5.04656">
        <ele>141</ele>
        <time>2016-06-30T09:35:42.047Z</time>
      </trkpt>
      <trkpt lat="44.13968" lon="5.04656">
        <ele>141</ele>
        <time>2016-06-30T09:35:43.047Z</time>
      </trkpt>
      <trkpt lat="44.13961" lon="5.04656">
        <ele>141</ele>
        <time>2016-06-30T09:35:44.047Z</time>
      </trkpt>
      <trkpt lat="44.13954" lon="5.04656">
        <ele>140</ele>
        <time>2016-06-30T09:35:45.047Z</time>
      </trkpt>
      <trkpt lat="44.13947" lon="5.04656">
        <ele>140</ele>
        <time>2016-06-30T09:35:46.047Z</time>
      </trkpt>
      <trkpt lat="44.1394" lon="5.04656">
        <ele>139</ele>
        <time>2016-06-30T09:35:47.047Z</time>
      </trkpt>
      <trkpt lat="44.13933" lon="5.04656">
        <ele>139</ele>
        <time>2016-06-30T09:35:48.047Z</time>
      </trkpt>
      <trkpt lat="44.13927" lon="5.04656">
        <ele>139</ele>
        <time>2016-06-30T09:35:49.047Z</time>
      </trkpt>
      <trkpt lat="44.1392" lon="5.04656">
        <ele>138</ele>
        <time>2016-06-30T09:35:50.047Z</time>
      </trkpt>
      <trkpt lat="44.13913" lon="5.04656">
        <ele>138</ele>
        <time>2016-06-30T09:35:51.047Z</time>
      </trkpt>
      <trkpt lat="44.13907" lon="5.04656">
        <ele>137</ele>
        <time>2016-06-30T09:35:52.047Z</time>
      </trkpt>
      <trkpt lat="44.139" lon="5.04656">
        <ele>137</ele>
        <time>2016-06-30T09:35:53.047Z</time>
      </trkpt>
      <trkpt lat="44.13894" lon="5.04656">
        <ele>137</ele>
        <time>2016-06-30T09:35:54.047Z</time>
      </trkpt>
      <trkpt lat="44.13887" lon="5.04657">
        <ele>136</ele>
        <time>2016-06-30T09:35:55.047Z</time>
      </trkpt>
      <trkpt lat="44.13881" lon="5.04657">
        <ele>136</ele>
        <time>2016-06-30T09:35:56.047Z</time>
      </trkpt>
      <trkpt lat="44.13875" lon="5.04657">
        <ele>136</ele>
        <time>2016-06-30T09:35:57.047Z</time>
      </trkpt>
      <trkpt lat="44.13869" lon="5.04657">
        <ele>135</ele>
        <time>2016-06-30T09:35:58.047Z</time>
      </trkpt>
      <trkpt lat="44.13862" lon="5.04657">
        <ele>135</ele>
        <time>2016-06-30T09:35:59.047Z</time>
      </trkpt>
      <trkpt lat="44.13856" lon="5.04657">
        <ele>134</ele>
        <time>2016-06-30T09:36:00.047Z</time>
      </trkpt>
      <trkpt lat="44.1385" lon="5.04657">
        <ele>133</ele>
        <time>2016-06-30T09:36:01.047Z</time>
      </trkpt>
      <trkpt lat="44.13843" lon="5.04657">
        <ele>133</ele>
        <time>2016-06-30T09:36:02.047Z</time>
      </trkpt>
      <trkpt lat="44.13837" lon="5.04657">
        <ele>133</ele>
        <time>2016-06-30T09:36:03.047Z</time>
      </trkpt>
      <trkpt lat="44.1383" lon="5.04657">
        <ele>133</ele>
        <time>2016-06-30T09:36:04.047Z</time>
      </trkpt>
      <trkpt lat="44.13823" lon="5.04658">
        <ele>133</ele>
        <time>2016-06-30T09:36:05.047Z</time>
      </trkpt>
      <trkpt lat="44.13816" lon="5.04658">
        <ele>134</ele>
        <time>2016-06-30T09:36:06.047Z</time>
      </trkpt>
      <trkpt lat="44.13809" lon="5.04658">
        <ele>134</ele>
        <time>2016-06-30T09:36:07.047Z</time>
      </trkpt>
      <trkpt lat="44.13802" lon="5.04657">
        <ele>134</ele>
        <time>2016-06-30T09:36:08.047Z</time>
      </trkpt>
      <trkpt lat="44.13795" lon="5.04656">
        <ele>132</ele>
        <time>2016-06-30T09:36:09.047Z</time>
      </trkpt>
      <trkpt lat="44.13788" lon="5.04654">
        <ele>131</ele>
        <time>2016-06-30T09:36:10.047Z</time>
      </trkpt>
      <trkpt lat="44.13781" lon="5.04651">
        <ele>131</ele>
        <time>2016-06-30T09:36:11.047Z</time>
      </trkpt>
      <trkpt lat="44.13775" lon="5.04647">
        <ele>130</ele>
        <time>2016-06-30T09:36:12.047Z</time>
      </trkpt>
      <trkpt lat="44.13768" lon="5.04642">
        <ele>127</ele>
        <time>2016-06-30T09:36:13.047Z</time>
      </trkpt>
      <trkpt lat="44.13763" lon="5.04636">
        <ele>126</ele>
        <time>2016-06-30T09:36:14.047Z</time>
      </trkpt>
      <trkpt lat="44.13758" lon="5.04629">
        <ele>126</ele>
        <time>2016-06-30T09:36:15.047Z</time>
      </trkpt>
      <trkpt lat="44.13753" lon="5.04621">
        <ele>126</ele>
        <time>2016-06-30T09:36:16.047Z</time>
      </trkpt>
      <trkpt lat="44.13748" lon="5.04614">
        <ele>127</ele>
        <time>2016-06-30T09:36:17.047Z</time>
      </trkpt>
      <trkpt lat="44.13743" lon="5.04606">
        <ele>126</ele>
        <time>2016-06-30T09:36:18.047Z</time>
      </trkpt>
      <trkpt lat="44.13737" lon="5.04599">
        <ele>127</ele>
        <time>2016-06-30T09:36:19.047Z</time>
      </trkpt>
      <trkpt lat="44.13731" lon="5.04591">
        <ele>130</ele>
        <time>2016-06-30T09:36:20.047Z</time>
      </trkpt>
      <trkpt lat="44.13725" lon="5.04584">
        <ele>130</ele>
        <time>2016-06-30T09:36:21.047Z</time>
      </trkpt>
      <trkpt lat="44.13719" lon="5.04577">
        <ele>131</ele>
        <time>2016-06-30T09:36:22.047Z</time>
      </trkpt>
      <trkpt lat="44.13713" lon="5.0457">
        <ele>131</ele>
        <time>2016-06-30T09:36:23.047Z</time>
      </trkpt>
      <trkpt lat="44.13706" lon="5.04564">
        <ele>132</ele>
        <time>2016-06-30T09:36:24.047Z</time>
      </trkpt>
      <trkpt lat="44.137" lon="5.04559">
        <ele>133</ele>
        <time>2016-06-30T09:36:25.047Z</time>
      </trkpt>
      <trkpt lat="44.13693" lon="5.04554">
        <ele>133</ele>
        <time>2016-06-30T09:36:26.047Z</time>
      </trkpt>
      <trkpt lat="44.13686" lon="5.0455">
        <ele>133</ele>
        <time>2016-06-30T09:36:27.047Z</time>
      </trkpt>
      <trkpt lat="44.1368" lon="5.04546">
        <ele>133</ele>
        <time>2016-06-30T09:36:28.047Z</time>
      </trkpt>
      <trkpt lat="44.13673" lon="5.04542">
        <ele>133</ele>
        <time>2016-06-30T09:36:29.047Z</time>
      </trkpt>
      <trkpt lat="44.13667" lon="5.04537">
        <ele>133</ele>
        <time>2016-06-30T09:36:30.047Z</time>
      </trkpt>
      <trkpt lat="44.13661" lon="5.04534">
        <ele>133</ele>
        <time>2016-06-30T09:36:31.047Z</time>
      </trkpt>
      <trkpt lat="44.13655" lon="5.0453">
        <ele>132</ele>
        <time>2016-06-30T09:36:32.047Z</time>
      </trkpt>
      <trkpt lat="44.13649" lon="5.04526">
        <ele>132</ele>
        <time>2016-06-30T09:36:33.047Z</time>
      </trkpt>
      <trkpt lat="44.13643" lon="5.04523">
        <ele>133</ele>
        <time>2016-06-30T09:36:34.047Z</time>
      </trkpt>
      <trkpt lat="44.13637" lon="5.04519">
        <ele>132</ele>
        <time>2016-06-30T09:36:35.047Z</time>
      </trkpt>
      <trkpt lat="44.13631" lon="5.04516">
        <ele>132</ele>
        <time>2016-06-30T09:36:36.047Z</time>
      </trkpt>
      <trkpt lat="44.13625" lon="5.04512">
        <ele>132</ele>
        <time>2016-06-30T09:36:37.047Z</time>
      </trkpt>
      <trkpt lat="44.13619" lon="5.04509">
        <ele>132</ele>
        <time>2016-06-30T09:36:38.047Z</time>
      </trkpt>
      <trkpt lat="44.13613" lon="5.04507">
        <ele>132</ele>
        <time>2016-06-30T09:36:39.047Z</time>
      </trkpt>
      <trkpt lat="44.13607" lon="5.04504">
        <ele>131</ele>
        <time>2016-06-30T09:36:40.047Z</time>
      </trkpt>
      <trkpt lat="44.13601" lon="5.04501">
        <ele>131</ele>
        <time>2016-06-30T09:36:41.047Z</time>
      </trkpt>
      <trkpt lat="44.13595" lon="5.04499">
        <ele>130</ele>
        <time>2016-06-30T09:36:42.047Z</time>
      </trkpt>
      <trkpt lat="44.1359" lon="5.04496">
        <ele>130</ele>
        <time>2016-06-30T09:36:43.047Z</time>
      </trkpt>
      <trkpt lat="44.13584" lon="5.04493">
        <ele>129</ele>
        <time>2016-06-30T09:36:44.047Z</time>
      </trkpt>
      <trkpt lat="44.13579" lon="5.0449">
        <ele>129</ele>
        <time>2016-06-30T09:36:45.047Z</time>
      </trkpt>
      <trkpt lat="44.13573" lon="5.04487">
        <ele>129</ele>
        <time>2016-06-30T09:36:46.047Z</time>
      </trkpt>
      <trkpt lat="44.13567" lon="5.04485">
        <ele>130</ele>
        <time>2016-06-30T09:36:47.047Z</time>
      </trkpt>
      <trkpt lat="44.13561" lon="5.04482">
        <ele>130</ele>
        <time>2016-06-30T09:36:48.047Z</time>
      </trkpt>
      <trkpt lat="44.13555" lon="5.04479">
        <ele>129</ele>
        <time>2016-06-30T09:36:49.047Z</time>
      </trkpt>
      <trkpt lat="44.1355" lon="5.04477">
        <ele>129</ele>
        <time>2016-06-30T09:36:50.047Z</time>
      </trkpt>
      <trkpt lat="44.13544" lon="5.04474">
        <ele>129</ele>
        <time>2016-06-30T09:36:51.047Z</time>
      </trkpt>
      <trkpt lat="44.13538" lon="5.04472">
        <ele>128</ele>
        <time>2016-06-30T09:36:52.047Z</time>
      </trkpt>
      <trkpt lat="44.13533" lon="5.04471">
        <ele>128</ele>
        <time>2016-06-30T09:36:53.047Z</time>
      </trkpt>
      <trkpt lat="44.13527" lon="5.04469">
        <ele>128</ele>
        <time>2016-06-30T09:36:54.047Z</time>
      </trkpt>
      <trkpt lat="44.1352" lon="5.04468">
        <ele>128</ele>
        <time>2016-06-30T09:36:55.047Z</time>
      </trkpt>
      <trkpt lat="44.13514" lon="5.04467">
        <ele>128</ele>
        <time>2016-06-30T09:36:56.047Z</time>
      </trkpt>
      <trkpt lat="44.13508" lon="5.04467">
        <ele>128</ele>
        <time>2016-06-30T09:36:57.047Z</time>
      </trkpt>
      <trkpt lat="44.13502" lon="5.04466">
        <ele>128</ele>
        <time>2016-06-30T09:36:58.047Z</time>
      </trkpt>
      <trkpt lat="44.13496" lon="5.04466">
        <ele>128</ele>
        <time>2016-06-30T09:36:59.047Z</time>
      </trkpt>
      <trkpt lat="44.13489" lon="5.04467">
        <ele>128</ele>
        <time>2016-06-30T09:37:00.047Z</time>
      </trkpt>
      <trkpt lat="44.13483" lon="5.04467">
        <ele>128</ele>
        <time>2016-06-30T09:37:01.047Z</time>
      </trkpt>
      <trkpt lat="44.13477" lon="5.04468">
        <ele>128</ele>
        <time>2016-06-30T09:37:02.047Z</time>
      </trkpt>
      <trkpt lat="44.13471" lon="5.04469">
        <ele>128</ele>
        <time>2016-06-30T09:37:03.047Z</time>
      </trkpt>
      <trkpt lat="44.13464" lon="5.0447">
        <ele>129</ele>
        <time>2016-06-30T09:37:04.047Z</time>
      </trkpt>
      <trkpt lat="44.13458" lon="5.04471">
        <ele>129</ele>
        <time>2016-06-30T09:37:05.047Z</time>
      </trkpt>
      <trkpt lat="44.13452" lon="5.04471">
        <ele>129</ele>
        <time>2016-06-30T09:37:06.047Z</time>
      </trkpt>
      <trkpt lat="44.13445" lon="5.04471">
        <ele>129</ele>
        <time>2016-06-30T09:37:07.047Z</time>
      </trkpt>
      <trkpt lat="44.13439" lon="5.04471">
        <ele>129</ele>
        <time>2016-06-30T09:37:08.047Z</time>
      </trkpt>
      <trkpt lat="44.13433" lon="5.04469">
        <ele>129</ele>
        <time>2016-06-30T09:37:09.047Z</time>
      </trkpt>
      <trkpt lat="44.13427" lon="5.04468">
        <ele>129</ele>
        <time>2016-06-30T09:37:10.047Z</time>
      </trkpt>
      <trkpt lat="44.13421" lon="5.04465">
        <ele>128</ele>
        <time>2016-06-30T09:37:11.047Z</time>
      </trkpt>
      <trkpt lat="44.13415" lon="5.04463">
        <ele>128</ele>
        <time>2016-06-30T09:37:12.047Z</time>
      </trkpt>
      <trkpt lat="44.13409" lon="5.0446">
        <ele>128</ele>
        <time>2016-06-30T09:37:13.047Z</time>
      </trkpt>
      <trkpt lat="44.13403" lon="5.04456">
        <ele>127</ele>
        <time>2016-06-30T09:37:14.047Z</time>
      </trkpt>
      <trkpt lat="44.13397" lon="5.04453">
        <ele>127</ele>
        <time>2016-06-30T09:37:15.047Z</time>
      </trkpt>
      <trkpt lat="44.13392" lon="5.04449">
        <ele>126</ele>
        <time>2016-06-30T09:37:16.047Z</time>
      </trkpt>
      <trkpt lat="44.13386" lon="5.04446">
        <ele>125</ele>
        <time>2016-06-30T09:37:17.047Z</time>
      </trkpt>
      <trkpt lat="44.13381" lon="5.04441">
        <ele>125</ele>
        <time>2016-06-30T09:37:18.047Z</time>
      </trkpt>
      <trkpt lat="44.13376" lon="5.04436">
        <ele>125</ele>
        <time>2016-06-30T09:37:19.047Z</time>
      </trkpt>
      <trkpt lat="44.13371" lon="5.04431">
        <ele>126</ele>
        <time>2016-06-30T09:37:20.047Z</time>
      </trkpt>
      <trkpt lat="44.13366" lon="5.04425">
        <ele>126</ele>
        <time>2016-06-30T09:37:21.047Z</time>
      </trkpt>
      <trkpt lat="44.13361" lon="5.04418">
        <ele>128</ele>
        <time>2016-06-30T09:37:22.047Z</time>
      </trkpt>
      <trkpt lat="44.13356" lon="5.04412">
        <ele>127</ele>
        <time>2016-06-30T09:37:23.047Z</time>
      </trkpt>
      <trkpt lat="44.13352" lon="5.04405">
        <ele>128</ele>
        <time>2016-06-30T09:37:24.047Z</time>
      </trkpt>
      <trkpt lat="44.13348" lon="5.04398">
        <ele>128</ele>
        <time>2016-06-30T09:37:25.047Z</time>
      </trkpt>
      <trkpt lat="44.13344" lon="5.04391">
        <ele>126</ele>
        <time>2016-06-30T09:37:26.047Z</time>
      </trkpt>
      <trkpt lat="44.1334" lon="5.04384">
        <ele>127</ele>
        <time>2016-06-30T09:37:27.047Z</time>
      </trkpt>
      <trkpt lat="44.13336" lon="5.04377">
        <ele>127</ele>
        <time>2016-06-30T09:37:28.047Z</time>
      </trkpt>
      <trkpt lat="44.13332" lon="5.04371">
        <ele>128</ele>
        <time>2016-06-30T09:37:29.047Z</time>
      </trkpt>
      <trkpt lat="44.13328" lon="5.04364">
        <ele>128</ele>
        <time>2016-06-30T09:37:30.047Z</time>
      </trkpt>
      <trkpt lat="44.13324" lon="5.04358">
        <ele>129</ele>
        <time>2016-06-30T09:37:31.047Z</time>
      </trkpt>
      <trkpt lat="44.13319" lon="5.04352">
        <ele>129</ele>
        <time>2016-06-30T09:37:32.047Z</time>
      </trkpt>
      <trkpt lat="44.13315" lon="5.04346">
        <ele>128</ele>
        <time>2016-06-30T09:37:33.047Z</time>
      </trkpt>
      <trkpt lat="44.13311" lon="5.04341">
        <ele>128</ele>
        <time>2016-06-30T09:37:34.047Z</time>
      </trkpt>
      <trkpt lat="44.13306" lon="5.04335">
        <ele>128</ele>
        <time>2016-06-30T09:37:35.047Z</time>
      </trkpt>
      <trkpt lat="44.13301" lon="5.0433">
        <ele>128</ele>
        <time>2016-06-30T09:37:36.047Z</time>
      </trkpt>
      <trkpt lat="44.13296" lon="5.04325">
        <ele>128</ele>
        <time>2016-06-30T09:37:37.047Z</time>
      </trkpt>
      <trkpt lat="44.13291" lon="5.0432">
        <ele>128</ele>
        <time>2016-06-30T09:37:38.047Z</time>
      </trkpt>
      <trkpt lat="44.13286" lon="5.04315">
        <ele>127</ele>
        <time>2016-06-30T09:37:39.047Z</time>
      </trkpt>
      <trkpt lat="44.13281" lon="5.0431">
        <ele>127</ele>
        <time>2016-06-30T09:37:40.047Z</time>
      </trkpt>
      <trkpt lat="44.13276" lon="5.04305">
        <ele>127</ele>
        <time>2016-06-30T09:37:41.047Z</time>
      </trkpt>
      <trkpt lat="44.13271" lon="5.043">
        <ele>127</ele>
        <time>2016-06-30T09:37:42.047Z</time>
      </trkpt>
      <trkpt lat="44.13266" lon="5.04294">
        <ele>127</ele>
        <time>2016-06-30T09:37:43.047Z</time>
      </trkpt>
      <trkpt lat="44.13261" lon="5.0429">
        <ele>127</ele>
        <time>2016-06-30T09:37:44.047Z</time>
      </trkpt>
      <trkpt lat="44.13256" lon="5.04285">
        <ele>127</ele>
        <time>2016-06-30T09:37:45.047Z</time>
      </trkpt>
      <trkpt lat="44.13251" lon="5.0428">
        <ele>127</ele>
        <time>2016-06-30T09:37:46.047Z</time>
      </trkpt>
      <trkpt lat="44.13246" lon="5.04275">
        <ele>127</ele>
        <time>2016-06-30T09:37:47.047Z</time>
      </trkpt>
      <trkpt lat="44.13241" lon="5.0427">
        <ele>126</ele>
        <time>2016-06-30T09:37:48.047Z</time>
      </trkpt>
      <trkpt lat="44.13236" lon="5.04265">
        <ele>126</ele>
        <time>2016-06-30T09:37:49.047Z</time>
      </trkpt>
      <trkpt lat="44.13231" lon="5.04261">
        <ele>126</ele>
        <time>2016-06-30T09:37:50.047Z</time>
      </trkpt>
      <trkpt lat="44.13226" lon="5.04256">
        <ele>126</ele>
        <time>2016-06-30T09:37:51.047Z</time>
      </trkpt>
      <trkpt lat="44.13221" lon="5.04251">
        <ele>126</ele>
        <time>2016-06-30T09:37:52.047Z</time>
      </trkpt>
      <trkpt lat="44.13216" lon="5.04246">
        <ele>126</ele>
        <time>2016-06-30T09:37:53.047Z</time>
      </trkpt>
      <trkpt lat="44.13212" lon="5.04242">
        <ele>125</ele>
        <time>2016-06-30T09:37:54.047Z</time>
      </trkpt>
      <trkpt lat="44.13207" lon="5.04237">
        <ele>125</ele>
        <time>2016-06-30T09:37:55.047Z</time>
      </trkpt>
      <trkpt lat="44.13202" lon="5.04232">
        <ele>125</ele>
        <time>2016-06-30T09:37:56.047Z</time>
      </trkpt>
      <trkpt lat="44.13197" lon="5.04227">
        <ele>125</ele>
        <time>2016-06-30T09:37:57.047Z</time>
      </trkpt>
      <trkpt lat="44.13192" lon="5.04222">
        <ele>125</ele>
        <time>2016-06-30T09:37:58.047Z</time>
      </trkpt>
      <trkpt lat="44.13187" lon="5.04218">
        <ele>125</ele>
        <time>2016-06-30T09:37:59.047Z</time>
      </trkpt>
      <trkpt lat="44.13182" lon="5.04213">
        <ele>125</ele>
        <time>2016-06-30T09:38:00.047Z</time>
      </trkpt>
      <trkpt lat="44.13177" lon="5.04209">
        <ele>125</ele>
        <time>2016-06-30T09:38:01.047Z</time>
      </trkpt>
      <trkpt lat="44.13172" lon="5.04204">
        <ele>125</ele>
        <time>2016-06-30T09:38:02.047Z</time>
      </trkpt>
      <trkpt lat="44.13168" lon="5.042">
        <ele>125</ele>
        <time>2016-06-30T09:38:03.047Z</time>
      </trkpt>
      <trkpt lat="44.13163" lon="5.04196">
        <ele>125</ele>
        <time>2016-06-30T09:38:04.047Z</time>
      </trkpt>
      <trkpt lat="44.13158" lon="5.04192">
        <ele>126</ele>
        <time>2016-06-30T09:38:05.047Z</time>
      </trkpt>
      <trkpt lat="44.13154" lon="5.04188">
        <ele>126</ele>
        <time>2016-06-30T09:38:06.047Z</time>
      </trkpt>
      <trkpt lat="44.13149" lon="5.04184">
        <ele>126</ele>
        <time>2016-06-30T09:38:07.047Z</time>
      </trkpt>
      <trkpt lat="44.13144" lon="5.0418">
        <ele>126</ele>
        <time>2016-06-30T09:38:08.047Z</time>
      </trkpt>
      <trkpt lat="44.1314" lon="5.04176">
        <ele>126</ele>
        <time>2016-06-30T09:38:09.047Z</time>
      </trkpt>
      <trkpt lat="44.13135" lon="5.04173">
        <ele>126</ele>
        <time>2016-06-30T09:38:10.047Z</time>
      </trkpt>
      <trkpt lat="44.1313" lon="5.0417">
        <ele>126</ele>
        <time>2016-06-30T09:38:11.047Z</time>
      </trkpt>
      <trkpt lat="44.13125" lon="5.04167">
        <ele>126</ele>
        <time>2016-06-30T09:38:12.047Z</time>
      </trkpt>
      <trkpt lat="44.1312" lon="5.04164">
        <ele>126</ele>
        <time>2016-06-30T09:38:13.047Z</time>
      </trkpt>
      <trkpt lat="44.13114" lon="5.04162">
        <ele>126</ele>
        <time>2016-06-30T09:38:14.047Z</time>
      </trkpt>
      <trkpt lat="44.13109" lon="5.0416">
        <ele>126</ele>
        <time>2016-06-30T09:38:15.047Z</time>
      </trkpt>
      <trkpt lat="44.13104" lon="5.04158">
        <ele>126</ele>
        <time>2016-06-30T09:38:16.047Z</time>
      </trkpt>
      <trkpt lat="44.13099" lon="5.04157">
        <ele>126</ele>
        <time>2016-06-30T09:38:17.047Z</time>
      </trkpt>
      <trkpt lat="44.13094" lon="5.04156">
        <ele>126</ele>
        <time>2016-06-30T09:38:18.047Z</time>
      </trkpt>
      <trkpt lat="44.13089" lon="5.04156">
        <ele>126</ele>
        <time>2016-06-30T09:38:19.047Z</time>
      </trkpt>
      <trkpt lat="44.13084" lon="5.04155">
        <ele>125</ele>
        <time>2016-06-30T09:38:20.047Z</time>
      </trkpt>
      <trkpt lat="44.13079" lon="5.04154">
        <ele>125</ele>
        <time>2016-06-30T09:38:21.047Z</time>
      </trkpt>
      <trkpt lat="44.13073" lon="5.04154">
        <ele>126</ele>
        <time>2016-06-30T09:38:22.047Z</time>
      </trkpt>
      <trkpt lat="44.13068" lon="5.04154">
        <ele>126</ele>
        <time>2016-06-30T09:38:23.047Z</time>
      </trkpt>
      <trkpt lat="44.13063" lon="5.04154">
        <ele>126</ele>
        <time>2016-06-30T09:38:24.047Z</time>
      </trkpt>
      <trkpt lat="44.13058" lon="5.04154">
        <ele>127</ele>
        <time>2016-06-30T09:38:25.047Z</time>
      </trkpt>
      <trkpt lat="44.13052" lon="5.04155">
        <ele>127</ele>
        <time>2016-06-30T09:38:26.047Z</time>
      </trkpt>
      <trkpt lat="44.13047" lon="5.04155">
        <ele>127</ele>
        <time>2016-06-30T09:38:27.047Z</time>
      </trkpt>
      <trkpt lat="44.13041" lon="5.04156">
        <ele>128</ele>
        <time>2016-06-30T09:38:28.047Z</time>
      </trkpt>
      <trkpt lat="44.13036" lon="5.04157">
        <ele>128</ele>
        <time>2016-06-30T09:38:29.047Z</time>
      </trkpt>
      <trkpt lat="44.1303" lon="5.04158">
        <ele>127</ele>
        <time>2016-06-30T09:38:30.047Z</time>
      </trkpt>
      <trkpt lat="44.13025" lon="5.04158">
        <ele>127</ele>
        <time>2016-06-30T09:38:31.047Z</time>
      </trkpt>
      <trkpt lat="44.1302" lon="5.04159">
        <ele>128</ele>
        <time>2016-06-30T09:38:32.047Z</time>
      </trkpt>
      <trkpt lat="44.13014" lon="5.0416">
        <ele>128</ele>
        <time>2016-06-30T09:38:33.047Z</time>
      </trkpt>
      <trkpt lat="44.13009" lon="5.0416">
        <ele>127</ele>
        <time>2016-06-30T09:38:34.047Z</time>
      </trkpt>
      <trkpt lat="44.13004" lon="5.04161">
        <ele>128</ele>
        <time>2016-06-30T09:38:35.047Z</time>
      </trkpt>
      <trkpt lat="44.12999" lon="5.04161">
        <ele>127</ele>
        <time>2016-06-30T09:38:36.047Z</time>
      </trkpt>
      <trkpt lat="44.12994" lon="5.04162">
        <ele>128</ele>
        <time>2016-06-30T09:38:37.047Z</time>
      </trkpt>
      <trkpt lat="44.12989" lon="5.04162">
        <ele>128</ele>
        <time>2016-06-30T09:38:38.047Z</time>
      </trkpt>
      <trkpt lat="44.12984" lon="5.04162">
        <ele>127</ele>
        <time>2016-06-30T09:38:39.047Z</time>
      </trkpt>
      <trkpt lat="44.12979" lon="5.04161">
        <ele>126</ele>
        <time>2016-06-30T09:38:40.047Z</time>
      </trkpt>
      <trkpt lat="44.12974" lon="5.04159">
        <ele>127</ele>
        <time>2016-06-30T09:38:41.047Z</time>
      </trkpt>
      <trkpt lat="44.12969" lon="5.04157">
        <ele>127</ele>
        <time>2016-06-30T09:38:42.047Z</time>
      </trkpt>
      <trkpt lat="44.12965" lon="5.04155">
        <ele>127</ele>
        <time>2016-06-30T09:38:43.047Z</time>
      </trkpt>
      <trkpt lat="44.1296" lon="5.04153">
        <ele>127</ele>
        <time>2016-06-30T09:38:44.047Z</time>
      </trkpt>
      <trkpt lat="44.12955" lon="5.04151">
        <ele>127</ele>
        <time>2016-06-30T09:38:45.047Z</time>
      </trkpt>
      <trkpt lat="44.1295" lon="5.04148">
        <ele>127</ele>
        <time>2016-06-30T09:38:46.047Z</time>
      </trkpt>
      <trkpt lat="44.12946" lon="5.04146">
        <ele>127</ele>
        <time>2016-06-30T09:38:47.047Z</time>
      </trkpt>
      <trkpt lat="44.12941" lon="5.04143">
        <ele>127</ele>
        <time>2016-06-30T09:38:48.047Z</time>
      </trkpt>
      <trkpt lat="44.12936" lon="5.0414">
        <ele>127</ele>
        <time>2016-06-30T09:38:49.047Z</time>
      </trkpt>
      <trkpt lat="44.12931" lon="5.04137">
        <ele>126</ele>
        <time>2016-06-30T09:38:50.047Z</time>
      </trkpt>
      <trkpt lat="44.12927" lon="5.04134">
        <ele>126</ele>
        <time>2016-06-30T09:38:51.047Z</time>
      </trkpt>
      <trkpt lat="44.12922" lon="5.0413">
        <ele>126</ele>
        <time>2016-06-30T09:38:52.047Z</time>
      </trkpt>
      <trkpt lat="44.12917" lon="5.04127">
        <ele>126</ele>
        <time>2016-06-30T09:38:53.047Z</time>
      </trkpt>
      <trkpt lat="44.12913" lon="5.04124">
        <ele>126</ele>
        <time>2016-06-30T09:38:54.047Z</time>
      </trkpt>
      <trkpt lat="44.12908" lon="5.04121">
        <ele>126</ele>
        <time>2016-06-30T09:38:55.047Z</time>
      </trkpt>
      <trkpt lat="44.12903" lon="5.04118">
        <ele>126</ele>
        <time>2016-06-30T09:38:56.047Z</time>
      </trkpt>
      <trkpt lat="44.12899" lon="5.04114">
        <ele>126</ele>
        <time>2016-06-30T09:38:57.047Z</time>
      </trkpt>
      <trkpt lat="44.12894" lon="5.04111">
        <ele>126</ele>
        <time>2016-06-30T09:38:58.047Z</time>
      </trkpt>
      <trkpt lat="44.12889" lon="5.04108">
        <ele>126</ele>
        <time>2016-06-30T09:38:59.047Z</time>
      </trkpt>
      <trkpt lat="44.12884" lon="5.04104">
        <ele>126</ele>
        <time>2016-06-30T09:39:00.047Z</time>
      </trkpt>
      <trkpt lat="44.12879" lon="5.04101">
        <ele>126</ele>
        <time>2016-06-30T09:39:01.047Z</time>
      </trkpt>
      <trkpt lat="44.12874" lon="5.04097">
        <ele>126</ele>
        <time>2016-06-30T09:39:02.047Z</time>
      </trkpt>
      <trkpt lat="44.12869" lon="5.04093">
        <ele>126</ele>
        <time>2016-06-30T09:39:03.047Z</time>
      </trkpt>
      <trkpt lat="44.12864" lon="5.0409">
        <ele>126</ele>
        <time>2016-06-30T09:39:04.047Z</time>
      </trkpt>
      <trkpt lat="44.12858" lon="5.04086">
        <ele>126</ele>
        <time>2016-06-30T09:39:05.047Z</time>
      </trkpt>
      <trkpt lat="44.12853" lon="5.04083">
        <ele>125</ele>
        <time>2016-06-30T09:39:06.047Z</time>
      </trkpt>
      <trkpt lat="44.12848" lon="5.04079">
        <ele>125</ele>
        <time>2016-06-30T09:39:07.047Z</time>
      </trkpt>
      <trkpt lat="44.12843" lon="5.04075">
        <ele>125</ele>
        <time>2016-06-30T09:39:08.047Z</time>
      </trkpt>
      <trkpt lat="44.12838" lon="5.04072">
        <ele>125</ele>
        <time>2016-06-30T09:39:09.047Z</time>
      </trkpt>
      <trkpt lat="44.12833" lon="5.04068">
        <ele>125</ele>
        <time>2016-06-30T09:39:10.047Z</time>
      </trkpt>
      <trkpt lat="44.12828" lon="5.04065">
        <ele>125</ele>
        <time>2016-06-30T09:39:11.047Z</time>
      </trkpt>
      <trkpt lat="44.12823" lon="5.04061">
        <ele>125</ele>
        <time>2016-06-30T09:39:12.047Z</time>
      </trkpt>
      <trkpt lat="44.12818" lon="5.04058">
        <ele>125</ele>
        <time>2016-06-30T09:39:13.047Z</time>
      </trkpt>
      <trkpt lat="44.12813" lon="5.04055">
        <ele>125</ele>
        <time>2016-06-30T09:39:14.047Z</time>
      </trkpt>
      <trkpt lat="44.12808" lon="5.04051">
        <ele>125</ele>
        <time>2016-06-30T09:39:15.047Z</time>
      </trkpt>
      <trkpt lat="44.12803" lon="5.04048">
        <ele>125</ele>
        <time>2016-06-30T09:39:16.047Z</time>
      </trkpt>
      <trkpt lat="44.12799" lon="5.04044">
        <ele>125</ele>
        <time>2016-06-30T09:39:17.047Z</time>
      </trkpt>
      <trkpt lat="44.12794" lon="5.04041">
        <ele>125</ele>
        <time>2016-06-30T09:39:18.047Z</time>
      </trkpt>
      <trkpt lat="44.12789" lon="5.04038">
        <ele>125</ele>
        <time>2016-06-30T09:39:19.047Z</time>
      </trkpt>
      <trkpt lat="44.12784" lon="5.04035">
        <ele>124</ele>
        <time>2016-06-30T09:39:20.047Z</time>
      </trkpt>
      <trkpt lat="44.1278" lon="5.04031">
        <ele>124</ele>
        <time>2016-06-30T09:39:21.047Z</time>
      </trkpt>
      <trkpt lat="44.12775" lon="5.04028">
        <ele>124</ele>
        <time>2016-06-30T09:39:22.047Z</time>
      </trkpt>
      <trkpt lat="44.1277" lon="5.04025">
        <ele>124</ele>
        <time>2016-06-30T09:39:23.047Z</time>
      </trkpt>
      <trkpt lat="44.12766" lon="5.04022">
        <ele>124</ele>
        <time>2016-06-30T09:39:24.047Z</time>
      </trkpt>
      <trkpt lat="44.12761" lon="5.04019">
        <ele>124</ele>
        <time>2016-06-30T09:39:25.047Z</time>
      </trkpt>
      <trkpt lat="44.12757" lon="5.04016">
        <ele>124</ele>
        <time>2016-06-30T09:39:26.047Z</time>
      </trkpt>
      <trkpt lat="44.12752" lon="5.04012">
        <ele>124</ele>
        <time>2016-06-30T09:39:27.047Z</time>
      </trkpt>
      <trkpt lat="44.12748" lon="5.04009">
        <ele>124</ele>
        <time>2016-06-30T09:39:28.047Z</time>
      </trkpt>
      <trkpt lat="44.12743" lon="5.04006">
        <ele>124</ele>
        <time>2016-06-30T09:39:29.047Z</time>
      </trkpt>
      <trkpt lat="44.12738" lon="5.04003">
        <ele>124</ele>
        <time>2016-06-30T09:39:30.047Z</time>
      </trkpt>
      <trkpt lat="44.12733" lon="5.03999">
        <ele>124</ele>
        <time>2016-06-30T09:39:31.047Z</time>
      </trkpt>
      <trkpt lat="44.12729" lon="5.03996">
        <ele>124</ele>
        <time>2016-06-30T09:39:32.047Z</time>
      </trkpt>
      <trkpt lat="44.12724" lon="5.03992">
        <ele>124</ele>
        <time>2016-06-30T09:39:33.047Z</time>
      </trkpt>
      <trkpt lat="44.12719" lon="5.03989">
        <ele>123</ele>
        <time>2016-06-30T09:39:34.047Z</time>
      </trkpt>
      <trkpt lat="44.12714" lon="5.03985">
        <ele>124</ele>
        <time>2016-06-30T09:39:35.047Z</time>
      </trkpt>
      <trkpt lat="44.12709" lon="5.03982">
        <ele>124</ele>
        <time>2016-06-30T09:39:36.047Z</time>
      </trkpt>
      <trkpt lat="44.12704" lon="5.03979">
        <ele>124</ele>
        <time>2016-06-30T09:39:37.047Z</time>
      </trkpt>
      <trkpt lat="44.127" lon="5.03976">
        <ele>124</ele>
        <time>2016-06-30T09:39:38.047Z</time>
      </trkpt>
      <trkpt lat="44.12695" lon="5.03973">
        <ele>123</ele>
        <time>2016-06-30T09:39:39.047Z</time>
      </trkpt>
      <trkpt lat="44.1269" lon="5.03969">
        <ele>123</ele>
        <time>2016-06-30T09:39:40.047Z</time>
      </trkpt>
      <trkpt lat="44.12686" lon="5.03966">
        <ele>123</ele>
        <time>2016-06-30T09:39:41.047Z</time>
      </trkpt>
      <trkpt lat="44.12681" lon="5.03963">
        <ele>123</ele>
        <time>2016-06-30T09:39:42.047Z</time>
      </trkpt>
      <trkpt lat="44.12677" lon="5.0396">
        <ele>123</ele>
        <time>2016-06-30T09:39:43.047Z</time>
      </trkpt>
      <trkpt lat="44.12673" lon="5.03957">
        <ele>123</ele>
        <time>2016-06-30T09:39:44.047Z</time>
      </trkpt>
      <trkpt lat="44.12668" lon="5.03954">
        <ele>123</ele>
        <time>2016-06-30T09:39:45.047Z</time>
      </trkpt>
      <trkpt lat="44.12664" lon="5.03951">
        <ele>123</ele>
        <time>2016-06-30T09:39:46.047Z</time>
      </trkpt>
      <trkpt lat="44.12659" lon="5.03947">
        <ele>123</ele>
        <time>2016-06-30T09:39:47.047Z</time>
      </trkpt>
      <trkpt lat="44.12655" lon="5.03944">
        <ele>123</ele>
        <time>2016-06-30T09:39:48.047Z</time>
      </trkpt>
      <trkpt lat="44.1265" lon="5.03942">
        <ele>123</ele>
        <time>2016-06-30T09:39:49.047Z</time>
      </trkpt>
      <trkpt lat="44.12646" lon="5.03938">
        <ele>123</ele>
        <time>2016-06-30T09:39:50.047Z</time>
      </trkpt>
      <trkpt lat="44.12641" lon="5.03935">
        <ele>123</ele>
        <time>2016-06-30T09:39:51.047Z</time>
      </trkpt>
      <trkpt lat="44.12637" lon="5.03931">
        <ele>122</ele>
        <time>2016-06-30T09:39:52.047Z</time>
      </trkpt>
      <trkpt lat="44.12632" lon="5.03928">
        <ele>123</ele>
        <time>2016-06-30T09:39:53.047Z</time>
      </trkpt>
      <trkpt lat="44.12627" lon="5.03924">
        <ele>123</ele>
        <time>2016-06-30T09:39:54.047Z</time>
      </trkpt>
      <trkpt lat="44.12623" lon="5.03919">
        <ele>122</ele>
        <time>2016-06-30T09:39:55.047Z</time>
      </trkpt>
      <trkpt lat="44.12618" lon="5.03915">
        <ele>122</ele>
        <time>2016-06-30T09:39:56.047Z</time>
      </trkpt>
      <trkpt lat="44.12614" lon="5.03911">
        <ele>122</ele>
        <time>2016-06-30T09:39:57.047Z</time>
      </trkpt>
      <trkpt lat="44.12609" lon="5.03907">
        <ele>122</ele>
        <time>2016-06-30T09:39:58.047Z</time>
      </trkpt>
      <trkpt lat="44.12605" lon="5.03902">
        <ele>122</ele>
        <time>2016-06-30T09:39:59.047Z</time>
      </trkpt>
      <trkpt lat="44.12601" lon="5.03898">
        <ele>123</ele>
        <time>2016-06-30T09:40:00.047Z</time>
      </trkpt>
      <trkpt lat="44.12597" lon="5.03893">
        <ele>123</ele>
        <time>2016-06-30T09:40:01.047Z</time>
      </trkpt>
      <trkpt lat="44.12593" lon="5.03889">
        <ele>123</ele>
        <time>2016-06-30T09:40:02.047Z</time>
      </trkpt>
      <trkpt lat="44.12589" lon="5.03885">
        <ele>123</ele>
        <time>2016-06-30T09:40:03.047Z</time>
      </trkpt>
      <trkpt lat="44.12585" lon="5.0388">
        <ele>123</ele>
        <time>2016-06-30T09:40:04.047Z</time>
      </trkpt>
      <trkpt lat="44.12581" lon="5.03876">
        <ele>123</ele>
        <time>2016-06-30T09:40:05.047Z</time>
      </trkpt>
      <trkpt lat="44.12577" lon="5.03871">
        <ele>123</ele>
        <time>2016-06-30T09:40:06.047Z</time>
      </trkpt>
      <trkpt lat="44.12573" lon="5.03866">
        <ele>123</ele>
        <time>2016-06-30T09:40:07.047Z</time>
      </trkpt>
      <trkpt lat="44.12569" lon="5.03862">
        <ele>123</ele>
        <time>2016-06-30T09:40:08.047Z</time>
      </trkpt>
      <trkpt lat="44.12565" lon="5.03857">
        <ele>123</ele>
        <time>2016-06-30T09:40:09.047Z</time>
      </trkpt>
      <trkpt lat="44.12561" lon="5.03853">
        <ele>123</ele>
        <time>2016-06-30T09:40:10.047Z</time>
      </trkpt>
      <trkpt lat="44.12557" lon="5.03848">
        <ele>123</ele>
        <time>2016-06-30T09:40:11.047Z</time>
      </trkpt>
      <trkpt lat="44.12553" lon="5.03844">
        <ele>123</ele>
        <time>2016-06-30T09:40:12.047Z</time>
      </trkpt>
      <trkpt lat="44.12549" lon="5.03839">
        <ele>123</ele>
        <time>2016-06-30T09:40:13.047Z</time>
      </trkpt>
      <trkpt lat="44.12545" lon="5.03835">
        <ele>123</ele>
        <time>2016-06-30T09:40:14.047Z</time>
      </trkpt>
      <trkpt lat="44.12541" lon="5.03831">
        <ele>123</ele>
        <time>2016-06-30T09:40:15.047Z</time>
      </trkpt>
      <trkpt lat="44.12537" lon="5.03827">
        <ele>123</ele>
        <time>2016-06-30T09:40:16.047Z</time>
      </trkpt>
      <trkpt lat="44.12533" lon="5.03824">
        <ele>123</ele>
        <time>2016-06-30T09:40:17.047Z</time>
      </trkpt>
      <trkpt lat="44.12529" lon="5.03821">
        <ele>123</ele>
        <time>2016-06-30T09:40:18.047Z</time>
      </trkpt>
      <trkpt lat="44.12524" lon="5.03817">
        <ele>123</ele>
        <time>2016-06-30T09:40:19.047Z</time>
      </trkpt>
      <trkpt lat="44.1252" lon="5.03815">
        <ele>123</ele>
        <time>2016-06-30T09:40:20.047Z</time>
      </trkpt>
      <trkpt lat="44.12516" lon="5.03811">
        <ele>123</ele>
        <time>2016-06-30T09:40:21.047Z</time>
      </trkpt>
      <trkpt lat="44.12511" lon="5.03807">
        <ele>123</ele>
        <time>2016-06-30T09:40:22.047Z</time>
      </trkpt>
      <trkpt lat="44.12507" lon="5.03802">
        <ele>123</ele>
        <time>2016-06-30T09:40:23.047Z</time>
      </trkpt>
      <trkpt lat="44.12504" lon="5.03796">
        <ele>122</ele>
        <time>2016-06-30T09:40:24.047Z</time>
      </trkpt>
      <trkpt lat="44.125" lon="5.0379">
        <ele>122</ele>
        <time>2016-06-30T09:40:25.047Z</time>
      </trkpt>
      <trkpt lat="44.12496" lon="5.03784">
        <ele>122</ele>
        <time>2016-06-30T09:40:26.047Z</time>
      </trkpt>
      <trkpt lat="44.12493" lon="5.03777">
        <ele>122</ele>
        <time>2016-06-30T09:40:27.047Z</time>
      </trkpt>
      <trkpt lat="44.1249" lon="5.0377">
        <ele>122</ele>
        <time>2016-06-30T09:40:28.047Z</time>
      </trkpt>
      <trkpt lat="44.12487" lon="5.03764">
        <ele>122</ele>
        <time>2016-06-30T09:40:29.047Z</time>
      </trkpt>
      <trkpt lat="44.12483" lon="5.03758">
        <ele>122</ele>
        <time>2016-06-30T09:40:30.047Z</time>
      </trkpt>
      <trkpt lat="44.1248" lon="5.03751">
        <ele>121</ele>
        <time>2016-06-30T09:40:31.047Z</time>
      </trkpt>
      <trkpt lat="44.12477" lon="5.03744">
        <ele>121</ele>
        <time>2016-06-30T09:40:32.047Z</time>
      </trkpt>
      <trkpt lat="44.12474" lon="5.03737">
        <ele>121</ele>
        <time>2016-06-30T09:40:33.047Z</time>
      </trkpt>
      <trkpt lat="44.1247" lon="5.0373">
        <ele>121</ele>
        <time>2016-06-30T09:40:34.047Z</time>
      </trkpt>
      <trkpt lat="44.12467" lon="5.03723">
        <ele>121</ele>
        <time>2016-06-30T09:40:35.047Z</time>
      </trkpt>
      <trkpt lat="44.12463" lon="5.03716">
        <ele>121</ele>
        <time>2016-06-30T09:40:36.047Z</time>
      </trkpt>
      <trkpt lat="44.1246" lon="5.03708">
        <ele>121</ele>
        <time>2016-06-30T09:40:37.047Z</time>
      </trkpt>
      <trkpt lat="44.12457" lon="5.03701">
        <ele>122</ele>
        <time>2016-06-30T09:40:38.047Z</time>
      </trkpt>
      <trkpt lat="44.12455" lon="5.03693">
        <ele>122</ele>
        <time>2016-06-30T09:40:39.047Z</time>
      </trkpt>
      <trkpt lat="44.12453" lon="5.03686">
        <ele>122</ele>
        <time>2016-06-30T09:40:40.047Z</time>
      </trkpt>
      <trkpt lat="44.12451" lon="5.03678">
        <ele>122</ele>
        <time>2016-06-30T09:40:41.047Z</time>
      </trkpt>
      <trkpt lat="44.12449" lon="5.0367">
        <ele>122</ele>
        <time>2016-06-30T09:40:42.047Z</time>
      </trkpt>
      <trkpt lat="44.12447" lon="5.03663">
        <ele>122</ele>
        <time>2016-06-30T09:40:43.047Z</time>
      </trkpt>
      <trkpt lat="44.12446" lon="5.03655">
        <ele>122</ele>
        <time>2016-06-30T09:40:44.047Z</time>
      </trkpt>
      <trkpt lat="44.12444" lon="5.03648">
        <ele>122</ele>
        <time>2016-06-30T09:40:45.047Z</time>
      </trkpt>
      <trkpt lat="44.12442" lon="5.0364">
        <ele>122</ele>
        <time>2016-06-30T09:40:46.047Z</time>
      </trkpt>
      <trkpt lat="44.12441" lon="5.03633">
        <ele>122</ele>
        <time>2016-06-30T09:40:47.047Z</time>
      </trkpt>
      <trkpt lat="44.12439" lon="5.03625">
        <ele>122</ele>
        <time>2016-06-30T09:40:48.047Z</time>
      </trkpt>
      <trkpt lat="44.12438" lon="5.03618">
        <ele>122</ele>
        <time>2016-06-30T09:40:49.047Z</time>
      </trkpt>
      <trkpt lat="44.12436" lon="5.0361">
        <ele>122</ele>
        <time>2016-06-30T09:40:50.047Z</time>
      </trkpt>
      <trkpt lat="44.12434" lon="5.03603">
        <ele>122</ele>
        <time>2016-06-30T09:40:51.047Z</time>
      </trkpt>
      <trkpt lat="44.12432" lon="5.03595">
        <ele>122</ele>
        <time>2016-06-30T09:40:52.047Z</time>
      </trkpt>
      <trkpt lat="44.1243" lon="5.03588">
        <ele>122</ele>
        <time>2016-06-30T09:40:53.047Z</time>
      </trkpt>
      <trkpt lat="44.12427" lon="5.03581">
        <ele>122</ele>
        <time>2016-06-30T09:40:54.047Z</time>
      </trkpt>
      <trkpt lat="44.12425" lon="5.03573">
        <ele>121</ele>
        <time>2016-06-30T09:40:55.047Z</time>
      </trkpt>
      <trkpt lat="44.12422" lon="5.03566">
        <ele>120</ele>
        <time>2016-06-30T09:40:56.047Z</time>
      </trkpt>
      <trkpt lat="44.1242" lon="5.03558">
        <ele>120</ele>
        <time>2016-06-30T09:40:57.047Z</time>
      </trkpt>
      <trkpt lat="44.12417" lon="5.0355">
        <ele>120</ele>
        <time>2016-06-30T09:40:58.047Z</time>
      </trkpt>
      <trkpt lat="44.12415" lon="5.03543">
        <ele>120</ele>
        <time>2016-06-30T09:40:59.047Z</time>
      </trkpt>
      <trkpt lat="44.12412" lon="5.03535">
        <ele>119</ele>
        <time>2016-06-30T09:41:00.047Z</time>
      </trkpt>
      <trkpt lat="44.1241" lon="5.03527">
        <ele>119</ele>
        <time>2016-06-30T09:41:01.047Z</time>
      </trkpt>
      <trkpt lat="44.12407" lon="5.0352">
        <ele>119</ele>
        <time>2016-06-30T09:41:02.047Z</time>
      </trkpt>
      <trkpt lat="44.12404" lon="5.03512">
        <ele>119</ele>
        <time>2016-06-30T09:41:03.047Z</time>
      </trkpt>
      <trkpt lat="44.12401" lon="5.03504">
        <ele>118</ele>
        <time>2016-06-30T09:41:04.047Z</time>
      </trkpt>
      <trkpt lat="44.12399" lon="5.03497">
        <ele>118</ele>
        <time>2016-06-30T09:41:05.047Z</time>
      </trkpt>
      <trkpt lat="44.12396" lon="5.03489">
        <ele>118</ele>
        <time>2016-06-30T09:41:06.047Z</time>
      </trkpt>
      <trkpt lat="44.12393" lon="5.03481">
        <ele>118</ele>
        <time>2016-06-30T09:41:07.047Z</time>
      </trkpt>
      <trkpt lat="44.1239" lon="5.03473">
        <ele>118</ele>
        <time>2016-06-30T09:41:08.047Z</time>
      </trkpt>
      <trkpt lat="44.12387" lon="5.03465">
        <ele>117</ele>
        <time>2016-06-30T09:41:09.047Z</time>
      </trkpt>
      <trkpt lat="44.12383" lon="5.03457">
        <ele>117</ele>
        <time>2016-06-30T09:41:10.047Z</time>
      </trkpt>
      <trkpt lat="44.1238" lon="5.03449">
        <ele>117</ele>
        <time>2016-06-30T09:41:11.047Z</time>
      </trkpt>
      <trkpt lat="44.12377" lon="5.03441">
        <ele>117</ele>
        <time>2016-06-30T09:41:12.047Z</time>
      </trkpt>
      <trkpt lat="44.12374" lon="5.03433">
        <ele>116</ele>
        <time>2016-06-30T09:41:13.047Z</time>
      </trkpt>
      <trkpt lat="44.12371" lon="5.03426">
        <ele>116</ele>
        <time>2016-06-30T09:41:14.047Z</time>
      </trkpt>
      <trkpt lat="44.12368" lon="5.03418">
        <ele>116</ele>
        <time>2016-06-30T09:41:15.047Z</time>
      </trkpt>
      <trkpt lat="44.12365" lon="5.0341">
        <ele>116</ele>
        <time>2016-06-30T09:41:16.047Z</time>
      </trkpt>
      <trkpt lat="44.12363" lon="5.03403">
        <ele>115</ele>
        <time>2016-06-30T09:41:17.047Z</time>
      </trkpt>
      <trkpt lat="44.1236" lon="5.03395">
        <ele>115</ele>
        <time>2016-06-30T09:41:18.047Z</time>
      </trkpt>
      <trkpt lat="44.12357" lon="5.03387">
        <ele>115</ele>
        <time>2016-06-30T09:41:19.047Z</time>
      </trkpt>
      <trkpt lat="44.12355" lon="5.03379">
        <ele>115</ele>
        <time>2016-06-30T09:41:20.047Z</time>
      </trkpt>
      <trkpt lat="44.12353" lon="5.0337">
        <ele>115</ele>
        <time>2016-06-30T09:41:21.047Z</time>
      </trkpt>
      <trkpt lat="44.12351" lon="5.03362">
        <ele>115</ele>
        <time>2016-06-30T09:41:22.047Z</time>
      </trkpt>
      <trkpt lat="44.1235" lon="5.03353">
        <ele>115</ele>
        <time>2016-06-30T09:41:23.047Z</time>
      </trkpt>
      <trkpt lat="44.12349" lon="5.03344">
        <ele>114</ele>
        <time>2016-06-30T09:41:24.047Z</time>
      </trkpt>
      <trkpt lat="44.12348" lon="5.03336">
        <ele>113</ele>
        <time>2016-06-30T09:41:25.047Z</time>
      </trkpt>
      <trkpt lat="44.12347" lon="5.03329">
        <ele>113</ele>
        <time>2016-06-30T09:41:26.047Z</time>
      </trkpt>
      <trkpt lat="44.12346" lon="5.03323">
        <ele>112</ele>
        <time>2016-06-30T09:41:27.047Z</time>
      </trkpt>
      <trkpt lat="44.12344" lon="5.03318">
        <ele>111</ele>
        <time>2016-06-30T09:41:28.047Z</time>
      </trkpt>
      <trkpt lat="44.12343" lon="5.03314">
        <ele>111</ele>
        <time>2016-06-30T09:41:29.047Z</time>
      </trkpt>
      <trkpt lat="44.12342" lon="5.0331">
        <ele>111</ele>
        <time>2016-06-30T09:41:30.047Z</time>
      </trkpt>
      <trkpt lat="44.1234" lon="5.03307">
        <ele>111</ele>
        <time>2016-06-30T09:41:31.047Z</time>
      </trkpt>
      <trkpt lat="44.12337" lon="5.03305">
        <ele>111</ele>
        <time>2016-06-30T09:41:32.047Z</time>
      </trkpt>
      <trkpt lat="44.12334" lon="5.03303">
        <ele>110</ele>
        <time>2016-06-30T09:41:33.047Z</time>
      </trkpt>
      <trkpt lat="44.1233" lon="5.03302">
        <ele>109</ele>
        <time>2016-06-30T09:41:34.047Z</time>
      </trkpt>
      <trkpt lat="44.12325" lon="5.03301">
        <ele>109</ele>
        <time>2016-06-30T09:41:35.047Z</time>
      </trkpt>
      <trkpt lat="44.1232" lon="5.03301">
        <ele>108</ele>
        <time>2016-06-30T09:41:36.047Z</time>
      </trkpt>
      <trkpt lat="44.12315" lon="5.033">
        <ele>107</ele>
        <time>2016-06-30T09:41:37.047Z</time>
      </trkpt>
      <trkpt lat="44.1231" lon="5.033">
        <ele>107</ele>
        <time>2016-06-30T09:41:38.047Z</time>
      </trkpt>
      <trkpt lat="44.12305" lon="5.03299">
        <ele>106</ele>
        <time>2016-06-30T09:41:39.047Z</time>
      </trkpt>
      <trkpt lat="44.123" lon="5.03297">
        <ele>106</ele>
        <time>2016-06-30T09:41:40.047Z</time>
      </trkpt>
      <trkpt lat="44.12295" lon="5.03293">
        <ele>105</ele>
        <time>2016-06-30T09:41:41.047Z</time>
      </trkpt>
      <trkpt lat="44.1229" lon="5.0329">
        <ele>105</ele>
        <time>2016-06-30T09:41:42.047Z</time>
      </trkpt>
      <trkpt lat="44.12285" lon="5.03285">
        <ele>105</ele>
        <time>2016-06-30T09:41:43.047Z</time>
      </trkpt>
      <trkpt lat="44.12281" lon="5.03281">
        <ele>105</ele>
        <time>2016-06-30T09:41:44.047Z</time>
      </trkpt>
      <trkpt lat="44.12278" lon="5.03275">
        <ele>104</ele>
        <time>2016-06-30T09:41:45.047Z</time>
      </trkpt>
      <trkpt lat="44.12274" lon="5.03269">
        <ele>104</ele>
        <time>2016-06-30T09:41:46.047Z</time>
      </trkpt>
      <trkpt lat="44.12271" lon="5.03263">
        <ele>104</ele>
        <time>2016-06-30T09:41:47.047Z</time>
      </trkpt>
      <trkpt lat="44.12268" lon="5.03256">
        <ele>103</ele>
        <time>2016-06-30T09:41:48.047Z</time>
      </trkpt>
      <trkpt lat="44.12264" lon="5.0325">
        <ele>103</ele>
        <time>2016-06-30T09:41:49.047Z</time>
      </trkpt>
      <trkpt lat="44.1226" lon="5.03243">
        <ele>103</ele>
        <time>2016-06-30T09:41:50.047Z</time>
      </trkpt>
      <trkpt lat="44.12256" lon="5.03235">
        <ele>103</ele>
        <time>2016-06-30T09:41:51.047Z</time>
      </trkpt>
      <trkpt lat="44.12252" lon="5.03228">
        <ele>102</ele>
        <time>2016-06-30T09:41:52.047Z</time>
      </trkpt>
      <trkpt lat="44.12249" lon="5.03222">
        <ele>102</ele>
        <time>2016-06-30T09:41:53.047Z</time>
      </trkpt>
      <trkpt lat="44.12244" lon="5.03215">
        <ele>101</ele>
        <time>2016-06-30T09:41:54.047Z</time>
      </trkpt>
      <trkpt lat="44.1224" lon="5.03209">
        <ele>101</ele>
        <time>2016-06-30T09:41:55.047Z</time>
      </trkpt>
      <trkpt lat="44.12236" lon="5.03204">
        <ele>100</ele>
        <time>2016-06-30T09:41:56.047Z</time>
      </trkpt>
      <trkpt lat="44.12232" lon="5.03198">
        <ele>100</ele>
        <time>2016-06-30T09:41:57.047Z</time>
      </trkpt>
      <trkpt lat="44.12228" lon="5.03193">
        <ele>100</ele>
        <time>2016-06-30T09:41:58.047Z</time>
      </trkpt>
      <trkpt lat="44.12224" lon="5.03187">
        <ele>99</ele>
        <time>2016-06-30T09:41:59.047Z</time>
      </trkpt>
      <trkpt lat="44.1222" lon="5.03182">
        <ele>99</ele>
        <time>2016-06-30T09:42:00.047Z</time>
      </trkpt>
      <trkpt lat="44.12216" lon="5.03176">
        <ele>99</ele>
        <time>2016-06-30T09:42:01.047Z</time>
      </trkpt>
      <trkpt lat="44.12212" lon="5.03171">
        <ele>99</ele>
        <time>2016-06-30T09:42:02.047Z</time>
      </trkpt>
      <trkpt lat="44.12208" lon="5.03165">
        <ele>98</ele>
        <time>2016-06-30T09:42:03.047Z</time>
      </trkpt>
      <trkpt lat="44.12203" lon="5.0316">
        <ele>98</ele>
        <time>2016-06-30T09:42:04.047Z</time>
      </trkpt>
      <trkpt lat="44.12199" lon="5.03154">
        <ele>98</ele>
        <time>2016-06-30T09:42:05.047Z</time>
      </trkpt>
      <trkpt lat="44.12195" lon="5.03148">
        <ele>98</ele>
        <time>2016-06-30T09:42:06.047Z</time>
      </trkpt>
      <trkpt lat="44.12191" lon="5.03142">
        <ele>99</ele>
        <time>2016-06-30T09:42:07.047Z</time>
      </trkpt>
      <trkpt lat="44.12187" lon="5.03136">
        <ele>98</ele>
        <time>2016-06-30T09:42:08.047Z</time>
      </trkpt>
      <trkpt lat="44.12184" lon="5.0313">
        <ele>98</ele>
        <time>2016-06-30T09:42:09.047Z</time>
      </trkpt>
      <trkpt lat="44.12181" lon="5.03123">
        <ele>98</ele>
        <time>2016-06-30T09:42:10.047Z</time>
      </trkpt>
      <trkpt lat="44.12179" lon="5.03115">
        <ele>99</ele>
        <time>2016-06-30T09:42:11.047Z</time>
      </trkpt>
      <trkpt lat="44.12178" lon="5.03107">
        <ele>99</ele>
        <time>2016-06-30T09:42:12.047Z</time>
      </trkpt>
      <trkpt lat="44.12177" lon="5.03099">
        <ele>99</ele>
        <time>2016-06-30T09:42:13.047Z</time>
      </trkpt>
      <trkpt lat="44.12176" lon="5.03091">
        <ele>99</ele>
        <time>2016-06-30T09:42:14.047Z</time>
      </trkpt>
      <trkpt lat="44.12175" lon="5.03083">
        <ele>98</ele>
        <time>2016-06-30T09:42:15.047Z</time>
      </trkpt>
      <trkpt lat="44.12174" lon="5.03076">
        <ele>97</ele>
        <time>2016-06-30T09:42:16.047Z</time>
      </trkpt>
      <trkpt lat="44.12173" lon="5.03068">
        <ele>97</ele>
        <time>2016-06-30T09:42:17.047Z</time>
      </trkpt>
      <trkpt lat="44.12172" lon="5.03061">
        <ele>97</ele>
        <time>2016-06-30T09:42:18.047Z</time>
      </trkpt>
      <trkpt lat="44.12172" lon="5.03054">
        <ele>96</ele>
        <time>2016-06-30T09:42:19.047Z</time>
      </trkpt>
      <trkpt lat="44.12171" lon="5.03046">
        <ele>96</ele>
        <time>2016-06-30T09:42:20.047Z</time>
      </trkpt>
      <trkpt lat="44.1217" lon="5.0304">
        <ele>96</ele>
        <time>2016-06-30T09:42:21.047Z</time>
      </trkpt>
      <trkpt lat="44.12169" lon="5.03033">
        <ele>96</ele>
        <time>2016-06-30T09:42:22.047Z</time>
      </trkpt>
      <trkpt lat="44.12169" lon="5.03027">
        <ele>96</ele>
        <time>2016-06-30T09:42:23.047Z</time>
      </trkpt>
      <trkpt lat="44.12168" lon="5.0302">
        <ele>96</ele>
        <time>2016-06-30T09:42:24.047Z</time>
      </trkpt>
      <trkpt lat="44.12167" lon="5.03014">
        <ele>95</ele>
        <time>2016-06-30T09:42:25.047Z</time>
      </trkpt>
      <trkpt lat="44.12167" lon="5.03008">
        <ele>95</ele>
        <time>2016-06-30T09:42:26.047Z</time>
      </trkpt>
      <trkpt lat="44.12166" lon="5.03001">
        <ele>95</ele>
        <time>2016-06-30T09:42:27.047Z</time>
      </trkpt>
      <trkpt lat="44.12165" lon="5.02995">
        <ele>95</ele>
        <time>2016-06-30T09:42:28.047Z</time>
      </trkpt>
      <trkpt lat="44.12164" lon="5.02989">
        <ele>95</ele>
        <time>2016-06-30T09:42:29.047Z</time>
      </trkpt>
      <trkpt lat="44.12163" lon="5.02983">
        <ele>95</ele>
        <time>2016-06-30T09:42:30.047Z</time>
      </trkpt>
      <trkpt lat="44.12162" lon="5.02978">
        <ele>95</ele>
        <time>2016-06-30T09:42:31.047Z</time>
      </trkpt>
      <trkpt lat="44.12161" lon="5.02971">
        <ele>95</ele>
        <time>2016-06-30T09:42:32.047Z</time>
      </trkpt>
      <trkpt lat="44.1216" lon="5.02964">
        <ele>94</ele>
        <time>2016-06-30T09:42:33.047Z</time>
      </trkpt>
      <trkpt lat="44.12159" lon="5.02957">
        <ele>94</ele>
        <time>2016-06-30T09:42:34.047Z</time>
      </trkpt>
      <trkpt lat="44.12158" lon="5.0295">
        <ele>94</ele>
        <time>2016-06-30T09:42:35.047Z</time>
      </trkpt>
      <trkpt lat="44.12157" lon="5.02943">
        <ele>94</ele>
        <time>2016-06-30T09:42:36.047Z</time>
      </trkpt>
      <trkpt lat="44.12156" lon="5.02936">
        <ele>94</ele>
        <time>2016-06-30T09:42:37.047Z</time>
      </trkpt>
      <trkpt lat="44.12155" lon="5.02929">
        <ele>95</ele>
        <time>2016-06-30T09:42:38.047Z</time>
      </trkpt>
      <trkpt lat="44.12154" lon="5.02922">
        <ele>95</ele>
        <time>2016-06-30T09:42:39.047Z</time>
      </trkpt>
      <trkpt lat="44.12152" lon="5.02916">
        <ele>95</ele>
        <time>2016-06-30T09:42:40.047Z</time>
      </trkpt>
      <trkpt lat="44.12151" lon="5.02909">
        <ele>95</ele>
        <time>2016-06-30T09:42:41.047Z</time>
      </trkpt>
      <trkpt lat="44.12151" lon="5.02902">
        <ele>95</ele>
        <time>2016-06-30T09:42:42.047Z</time>
      </trkpt>
      <trkpt lat="44.1215" lon="5.02897">
        <ele>96</ele>
        <time>2016-06-30T09:42:43.047Z</time>
      </trkpt>
      <trkpt lat="44.12149" lon="5.02892">
        <ele>96</ele>
        <time>2016-06-30T09:42:44.047Z</time>
      </trkpt>
      <trkpt lat="44.12149" lon="5.02888">
        <ele>98</ele>
        <time>2016-06-30T09:42:45.047Z</time>
      </trkpt>
      <trkpt lat="44.1215" lon="5.02884">
        <ele>100</ele>
        <time>2016-06-30T09:42:46.047Z</time>
      </trkpt>
      <trkpt lat="44.12151" lon="5.02882">
        <ele>99</ele>
        <time>2016-06-30T09:42:47.047Z</time>
      </trkpt>
      <trkpt lat="44.12153" lon="5.02879">
        <ele>98</ele>
        <time>2016-06-30T09:42:48.047Z</time>
      </trkpt>
      <trkpt lat="44.12155" lon="5.02875">
        <ele>98</ele>
        <time>2016-06-30T09:42:49.047Z</time>
      </trkpt>
      <trkpt lat="44.12158" lon="5.02871">
        <ele>98</ele>
        <time>2016-06-30T09:42:50.047Z</time>
      </trkpt>
      <trkpt lat="44.12161" lon="5.02867">
        <ele>99</ele>
        <time>2016-06-30T09:42:51.047Z</time>
      </trkpt>
      <trkpt lat="44.12164" lon="5.02865">
        <ele>100</ele>
        <time>2016-06-30T09:42:52.047Z</time>
      </trkpt>
      <trkpt lat="44.12166" lon="5.02862">
        <ele>100</ele>
        <time>2016-06-30T09:42:53.047Z</time>
      </trkpt>
      <trkpt lat="44.12168" lon="5.0286">
        <ele>100</ele>
        <time>2016-06-30T09:42:54.047Z</time>
      </trkpt>
      <trkpt lat="44.1217" lon="5.02857">
        <ele>100</ele>
        <time>2016-06-30T09:42:55.047Z</time>
      </trkpt>
      <trkpt lat="44.12171" lon="5.02853">
        <ele>100</ele>
        <time>2016-06-30T09:42:56.047Z</time>
      </trkpt>
      <trkpt lat="44.12173" lon="5.02849">
        <ele>100</ele>
        <time>2016-06-30T09:42:57.047Z</time>
      </trkpt>
      <trkpt lat="44.12174" lon="5.02844">
        <ele>100</ele>
        <time>2016-06-30T09:42:58.047Z</time>
      </trkpt>
      <trkpt lat="44.12174" lon="5.02839">
        <ele>100</ele>
        <time>2016-06-30T09:42:59.047Z</time>
      </trkpt>
      <trkpt lat="44.12174" lon="5.02833">
        <ele>101</ele>
        <time>2016-06-30T09:43:00.047Z</time>
      </trkpt>
      <trkpt lat="44.12173" lon="5.02826">
        <ele>101</ele>
        <time>2016-06-30T09:43:01.047Z</time>
      </trkpt>
      <trkpt lat="44.12173" lon="5.0282">
        <ele>101</ele>
        <time>2016-06-30T09:43:02.047Z</time>
      </trkpt>
      <trkpt lat="44.12172" lon="5.02812">
        <ele>101</ele>
        <time>2016-06-30T09:43:03.047Z</time>
      </trkpt>
      <trkpt lat="44.12172" lon="5.02805">
        <ele>101</ele>
        <time>2016-06-30T09:43:04.047Z</time>
      </trkpt>
      <trkpt lat="44.12171" lon="5.02797">
        <ele>101</ele>
        <time>2016-06-30T09:43:05.047Z</time>
      </trkpt>
      <trkpt lat="44.1217" lon="5.02789">
        <ele>102</ele>
        <time>2016-06-30T09:43:06.047Z</time>
      </trkpt>
      <trkpt lat="44.12168" lon="5.02782">
        <ele>103</ele>
        <time>2016-06-30T09:43:07.047Z</time>
      </trkpt>
      <trkpt lat="44.12167" lon="5.02773">
        <ele>101</ele>
        <time>2016-06-30T09:43:08.047Z</time>
      </trkpt>
      <trkpt lat="44.12165" lon="5.02765">
        <ele>101</ele>
        <time>2016-06-30T09:43:09.047Z</time>
      </trkpt>
      <trkpt lat="44.12162" lon="5.02756">
        <ele>99</ele>
        <time>2016-06-30T09:43:10.047Z</time>
      </trkpt>
      <trkpt lat="44.1216" lon="5.02747">
        <ele>99</ele>
        <time>2016-06-30T09:43:11.047Z</time>
      </trkpt>
      <trkpt lat="44.12157" lon="5.02738">
        <ele>98</ele>
        <time>2016-06-30T09:43:12.047Z</time>
      </trkpt>
      <trkpt lat="44.12155" lon="5.02729">
        <ele>98</ele>
        <time>2016-06-30T09:43:13.047Z</time>
      </trkpt>
      <trkpt lat="44.12153" lon="5.02721">
        <ele>97</ele>
        <time>2016-06-30T09:43:14.047Z</time>
      </trkpt>
      <trkpt lat="44.12151" lon="5.02712">
        <ele>97</ele>
        <time>2016-06-30T09:43:15.047Z</time>
      </trkpt>
      <trkpt lat="44.12149" lon="5.02704">
        <ele>96</ele>
        <time>2016-06-30T09:43:16.047Z</time>
      </trkpt>
      <trkpt lat="44.12147" lon="5.02695">
        <ele>96</ele>
        <time>2016-06-30T09:43:17.047Z</time>
      </trkpt>
      <trkpt lat="44.12144" lon="5.02687">
        <ele>96</ele>
        <time>2016-06-30T09:43:18.047Z</time>
      </trkpt>
      <trkpt lat="44.12142" lon="5.02678">
        <ele>95</ele>
        <time>2016-06-30T09:43:19.047Z</time>
      </trkpt>
      <trkpt lat="44.12139" lon="5.02669">
        <ele>95</ele>
        <time>2016-06-30T09:43:20.047Z</time>
      </trkpt>
      <trkpt lat="44.12137" lon="5.0266">
        <ele>95</ele>
        <time>2016-06-30T09:43:21.047Z</time>
      </trkpt>
      <trkpt lat="44.12135" lon="5.02652">
        <ele>95</ele>
        <time>2016-06-30T09:43:22.047Z</time>
      </trkpt>
      <trkpt lat="44.12133" lon="5.02643">
        <ele>94</ele>
        <time>2016-06-30T09:43:23.047Z</time>
      </trkpt>
      <trkpt lat="44.12131" lon="5.02635">
        <ele>94</ele>
        <time>2016-06-30T09:43:24.047Z</time>
      </trkpt>
      <trkpt lat="44.12129" lon="5.02627">
        <ele>95</ele>
        <time>2016-06-30T09:43:25.047Z</time>
      </trkpt>
      <trkpt lat="44.12127" lon="5.02619">
        <ele>95</ele>
        <time>2016-06-30T09:43:26.047Z</time>
      </trkpt>
      <trkpt lat="44.12125" lon="5.02611">
        <ele>94</ele>
        <time>2016-06-30T09:43:27.047Z</time>
      </trkpt>
      <trkpt lat="44.12122" lon="5.02604">
        <ele>92</ele>
        <time>2016-06-30T09:43:28.047Z</time>
      </trkpt>
      <trkpt lat="44.1212" lon="5.02596">
        <ele>92</ele>
        <time>2016-06-30T09:43:29.047Z</time>
      </trkpt>
      <trkpt lat="44.12118" lon="5.02588">
        <ele>92</ele>
        <time>2016-06-30T09:43:30.047Z</time>
      </trkpt>
      <trkpt lat="44.12117" lon="5.02581">
        <ele>91</ele>
        <time>2016-06-30T09:43:31.047Z</time>
      </trkpt>
      <trkpt lat="44.12115" lon="5.02573">
        <ele>90</ele>
        <time>2016-06-30T09:43:32.047Z</time>
      </trkpt>
      <trkpt lat="44.12113" lon="5.02565">
        <ele>90</ele>
        <time>2016-06-30T09:43:33.047Z</time>
      </trkpt>
      <trkpt lat="44.12111" lon="5.02557">
        <ele>90</ele>
        <time>2016-06-30T09:43:34.047Z</time>
      </trkpt>
      <trkpt lat="44.12109" lon="5.0255">
        <ele>90</ele>
        <time>2016-06-30T09:43:35.047Z</time>
      </trkpt>
      <trkpt lat="44.12107" lon="5.02543">
        <ele>89</ele>
        <time>2016-06-30T09:43:36.047Z</time>
      </trkpt>
      <trkpt lat="44.12105" lon="5.02535">
        <ele>89</ele>
        <time>2016-06-30T09:43:37.047Z</time>
      </trkpt>
      <trkpt lat="44.12103" lon="5.02528">
        <ele>89</ele>
        <time>2016-06-30T09:43:38.047Z</time>
      </trkpt>
      <trkpt lat="44.12101" lon="5.02521">
        <ele>89</ele>
        <time>2016-06-30T09:43:39.047Z</time>
      </trkpt>
      <trkpt lat="44.12099" lon="5.02514">
        <ele>88</ele>
        <time>2016-06-30T09:43:40.047Z</time>
      </trkpt>
      <trkpt lat="44.12097" lon="5.02507">
        <ele>88</ele>
        <time>2016-06-30T09:43:41.047Z</time>
      </trkpt>
      <trkpt lat="44.12095" lon="5.02499">
        <ele>88</ele>
        <time>2016-06-30T09:43:42.047Z</time>
      </trkpt>
      <trkpt lat="44.12093" lon="5.02492">
        <ele>88</ele>
        <time>2016-06-30T09:43:43.047Z</time>
      </trkpt>
      <trkpt lat="44.12091" lon="5.02485">
        <ele>88</ele>
        <time>2016-06-30T09:43:44.047Z</time>
      </trkpt>
      <trkpt lat="44.12089" lon="5.02478">
        <ele>88</ele>
        <time>2016-06-30T09:43:45.047Z</time>
      </trkpt>
      <trkpt lat="44.12087" lon="5.02471">
        <ele>87</ele>
        <time>2016-06-30T09:43:46.047Z</time>
      </trkpt>
      <trkpt lat="44.12085" lon="5.02464">
        <ele>87</ele>
        <time>2016-06-30T09:43:47.047Z</time>
      </trkpt>
      <trkpt lat="44.12083" lon="5.02457">
        <ele>87</ele>
        <time>2016-06-30T09:43:48.047Z</time>
      </trkpt>
      <trkpt lat="44.12081" lon="5.02452">
        <ele>86</ele>
        <time>2016-06-30T09:43:49.047Z</time>
      </trkpt>
      <trkpt lat="44.12079" lon="5.02446">
        <ele>86</ele>
        <time>2016-06-30T09:43:50.047Z</time>
      </trkpt>
      <trkpt lat="44.12077" lon="5.02443">
        <ele>86</ele>
        <time>2016-06-30T09:43:51.047Z</time>
      </trkpt>
      <trkpt lat="44.12076" lon="5.0244">
        <ele>86</ele>
        <time>2016-06-30T09:43:52.047Z</time>
      </trkpt>
      <trkpt lat="44.12076" lon="5.0244">
        <ele>86</ele>
        <time>2016-06-30T09:43:53.047Z</time>
      </trkpt>
      <trkpt lat="44.12077" lon="5.02439">
        <ele>87</ele>
        <time>2016-06-30T09:43:54.047Z</time>
      </trkpt>
      <trkpt lat="44.12077" lon="5.02439">
        <ele>87</ele>
        <time>2016-06-30T09:43:55.047Z</time>
      </trkpt>
      <trkpt lat="44.12077" lon="5.02439">
        <ele>87</ele>
        <time>2016-06-30T09:43:56.047Z</time>
      </trkpt>
      <trkpt lat="44.12078" lon="5.02439">
        <ele>86</ele>
        <time>2016-06-30T09:43:57.047Z</time>
      </trkpt>
      <trkpt lat="44.12077" lon="5.02439">
        <ele>86</ele>
        <time>2016-06-30T09:43:58.047Z</time>
      </trkpt>
      <trkpt lat="44.12077" lon="5.02439">
        <ele>86</ele>
        <time>2016-06-30T09:43:59.047Z</time>
      </trkpt>
      <trkpt lat="44.12077" lon="5.02439">
        <ele>86</ele>
        <time>2016-06-30T09:44:00.047Z</time>
      </trkpt>
      <trkpt lat="44.12077" lon="5.02439">
        <ele>86</ele>
        <time>2016-06-30T09:44:01.047Z</time>
      </trkpt>
      <trkpt lat="44.12077" lon="5.02439">
        <ele>86</ele>
        <time>2016-06-30T09:44:02.047Z</time>
      </trkpt>
      <trkpt lat="44.12077" lon="5.02439">
        <ele>86</ele>
        <time>2016-06-30T09:44:03.047Z</time>
      </trkpt>
      <trkpt lat="44.12077" lon="5.02439">
        <ele>86</ele>
        <time>2016-06-30T09:44:04.047Z</time>
      </trkpt>
      <trkpt lat="44.12077" lon="5.02439">
        <ele>86</ele>
        <time>2016-06-30T09:44:05.047Z</time>
      </trkpt>
      <trkpt lat="44.12077" lon="5.02439">
        <ele>86</ele>
        <time>2016-06-30T09:44:06.047Z</time>
      </trkpt>
      <trkpt lat="44.12077" lon="5.02439">
        <ele>86</ele>
        <time>2016-06-30T09:44:07.047Z</time>
      </trkpt>
      <trkpt lat="44.12077" lon="5.02439">
        <ele>86</ele>
        <time>2016-06-30T09:44:08.047Z</time>
      </trkpt>
      <trkpt lat="44.12077" lon="5.02439">
        <ele>86</ele>
        <time>2016-06-30T09:44:09.047Z</time>
      </trkpt>
      <trkpt lat="44.12077" lon="5.02439">
        <ele>86</ele>
        <time>2016-06-30T09:44:10.047Z</time>
      </trkpt>
      <trkpt lat="44.12077" lon="5.02439">
        <ele>85</ele>
        <time>2016-06-30T09:44:11.047Z</time>
      </trkpt>
      <trkpt lat="44.12077" lon="5.02439">
        <ele>85</ele>
        <time>2016-06-30T09:44:12.047Z</time>
      </trkpt>
      <trkpt lat="44.12077" lon="5.02438">
        <ele>85</ele>
        <time>2016-06-30T09:44:13.047Z</time>
      </trkpt>
      <trkpt lat="44.12077" lon="5.02438">
        <ele>85</ele>
        <time>2016-06-30T09:44:14.047Z</time>
      </trkpt>
      <trkpt lat="44.12077" lon="5.02438">
        <ele>85</ele>
        <time>2016-06-30T09:44:15.047Z</time>
      </trkpt>
      <trkpt lat="44.12077" lon="5.02438">
        <ele>85</ele>
        <time>2016-06-30T09:44:16.047Z</time>
      </trkpt>
      <trkpt lat="44.12077" lon="5.02438">
        <ele>85</ele>
        <time>2016-06-30T09:44:17.047Z</time>
      </trkpt>
      <trkpt lat="44.12077" lon="5.02438">
        <ele>85</ele>
        <time>2016-06-30T09:44:18.047Z</time>
      </trkpt>
      <trkpt lat="44.12077" lon="5.02438">
        <ele>85</ele>
        <time>2016-06-30T09:44:19.047Z</time>
      </trkpt>
      <trkpt lat="44.12077" lon="5.02438">
        <ele>85</ele>
        <time>2016-06-30T09:44:20.047Z</time>
      </trkpt>
      <trkpt lat="44.12077" lon="5.02438">
        <ele>85</ele>
        <time>2016-06-30T09:44:21.047Z</time>
      </trkpt>
      <trkpt lat="44.12077" lon="5.02438">
        <ele>84</ele>
        <time>2016-06-30T09:44:22.047Z</time>
      </trkpt>
      <trkpt lat="44.12077" lon="5.02438">
        <ele>85</ele>
        <time>2016-06-30T09:44:23.047Z</time>
      </trkpt>
      <trkpt lat="44.12077" lon="5.02438">
        <ele>85</ele>
        <time>2016-06-30T09:44:24.047Z</time>
      </trkpt>
      <trkpt lat="44.12077" lon="5.02438">
        <ele>85</ele>
        <time>2016-06-30T09:44:25.047Z</time>
      </trkpt>
      <trkpt lat="44.12077" lon="5.02439">
        <ele>86</ele>
        <time>2016-06-30T09:44:26.047Z</time>
      </trkpt>
      <trkpt lat="44.12077" lon="5.02439">
        <ele>86</ele>
        <time>2016-06-30T09:44:27.047Z</time>
      </trkpt>
      <trkpt lat="44.12077" lon="5.02439">
        <ele>86</ele>
        <time>2016-06-30T09:44:28.047Z</time>
      </trkpt>
      <trkpt lat="44.12077" lon="5.02438">
        <ele>87</ele>
        <time>2016-06-30T09:44:29.047Z</time>
      </trkpt>
      <trkpt lat="44.12077" lon="5.02438">
        <ele>87</ele>
        <time>2016-06-30T09:44:30.047Z</time>
      </trkpt>
      <trkpt lat="44.12077" lon="5.02438">
        <ele>87</ele>
        <time>2016-06-30T09:44:31.047Z</time>
      </trkpt>
      <trkpt lat="44.12077" lon="5.02438">
        <ele>87</ele>
        <time>2016-06-30T09:44:32.047Z</time>
      </trkpt>
      <trkpt lat="44.12077" lon="5.02439">
        <ele>87</ele>
        <time>2016-06-30T09:44:33.047Z</time>
      </trkpt>
      <trkpt lat="44.12076" lon="5.02439">
        <ele>87</ele>
        <time>2016-06-30T09:44:34.047Z</time>
      </trkpt>
      <trkpt lat="44.12076" lon="5.02439">
        <ele>87</ele>
        <time>2016-06-30T09:44:35.047Z</time>
      </trkpt>
      <trkpt lat="44.12077" lon="5.02439">
        <ele>88</ele>
        <time>2016-06-30T09:44:36.047Z</time>
      </trkpt>
      <trkpt lat="44.12077" lon="5.02439">
        <ele>87</ele>
        <time>2016-06-30T09:44:37.047Z</time>
      </trkpt>
      <trkpt lat="44.12077" lon="5.02439">
        <ele>87</ele>
        <time>2016-06-30T09:44:38.047Z</time>
      </trkpt>
      <trkpt lat="44.12076" lon="5.02438">
        <ele>87</ele>
        <time>2016-06-30T09:44:39.047Z</time>
      </trkpt>
      <trkpt lat="44.12076" lon="5.02438">
        <ele>87</ele>
        <time>2016-06-30T09:44:40.047Z</time>
      </trkpt>
      <trkpt lat="44.12076" lon="5.02438">
        <ele>87</ele>
        <time>2016-06-30T09:44:41.047Z</time>
      </trkpt>
      <trkpt lat="44.12076" lon="5.02438">
        <ele>87</ele>
        <time>2016-06-30T09:44:42.047Z</time>
      </trkpt>
      <trkpt lat="44.12076" lon="5.02436">
        <ele>86</ele>
        <time>2016-06-30T09:44:43.047Z</time>
      </trkpt>
      <trkpt lat="44.12077" lon="5.02434">
        <ele>87</ele>
        <time>2016-06-30T09:44:44.047Z</time>
      </trkpt>
      <trkpt lat="44.12077" lon="5.0243">
        <ele>86</ele>
        <time>2016-06-30T09:44:45.047Z</time>
      </trkpt>
      <trkpt lat="44.12077" lon="5.02426">
        <ele>86</ele>
        <time>2016-06-30T09:44:46.047Z</time>
      </trkpt>
      <trkpt lat="44.12076" lon="5.02421">
        <ele>86</ele>
        <time>2016-06-30T09:44:47.047Z</time>
      </trkpt>
      <trkpt lat="44.12076" lon="5.02416">
        <ele>86</ele>
        <time>2016-06-30T09:44:48.047Z</time>
      </trkpt>
      <trkpt lat="44.12075" lon="5.02411">
        <ele>85</ele>
        <time>2016-06-30T09:44:49.047Z</time>
      </trkpt>
      <trkpt lat="44.12074" lon="5.02405">
        <ele>85</ele>
        <time>2016-06-30T09:44:50.047Z</time>
      </trkpt>
      <trkpt lat="44.12073" lon="5.02399">
        <ele>84</ele>
        <time>2016-06-30T09:44:51.047Z</time>
      </trkpt>
      <trkpt lat="44.12072" lon="5.02394">
        <ele>84</ele>
        <time>2016-06-30T09:44:52.047Z</time>
      </trkpt>
      <trkpt lat="44.1207" lon="5.02388">
        <ele>83</ele>
        <time>2016-06-30T09:44:53.047Z</time>
      </trkpt>
      <trkpt lat="44.12069" lon="5.02382">
        <ele>83</ele>
        <time>2016-06-30T09:44:54.047Z</time>
      </trkpt>
      <trkpt lat="44.12067" lon="5.02376">
        <ele>83</ele>
        <time>2016-06-30T09:44:55.047Z</time>
      </trkpt>
      <trkpt lat="44.12066" lon="5.0237">
        <ele>83</ele>
        <time>2016-06-30T09:44:56.047Z</time>
      </trkpt>
      <trkpt lat="44.12064" lon="5.02365">
        <ele>83</ele>
        <time>2016-06-30T09:44:57.047Z</time>
      </trkpt>
      <trkpt lat="44.12062" lon="5.02359">
        <ele>83</ele>
        <time>2016-06-30T09:44:58.047Z</time>
      </trkpt>
      <trkpt lat="44.1206" lon="5.02353">
        <ele>83</ele>
        <time>2016-06-30T09:44:59.047Z</time>
      </trkpt>
      <trkpt lat="44.12058" lon="5.02347">
        <ele>83</ele>
        <time>2016-06-30T09:45:00.047Z</time>
      </trkpt>
      <trkpt lat="44.12056" lon="5.02341">
        <ele>84</ele>
        <time>2016-06-30T09:45:01.047Z</time>
      </trkpt>
      <trkpt lat="44.12054" lon="5.02335">
        <ele>85</ele>
        <time>2016-06-30T09:45:02.047Z</time>
      </trkpt>
      <trkpt lat="44.12053" lon="5.02329">
        <ele>85</ele>
        <time>2016-06-30T09:45:03.047Z</time>
      </trkpt>
      <trkpt lat="44.12051" lon="5.02323">
        <ele>84</ele>
        <time>2016-06-30T09:45:04.047Z</time>
      </trkpt>
      <trkpt lat="44.12049" lon="5.02316">
        <ele>84</ele>
        <time>2016-06-30T09:45:05.047Z</time>
      </trkpt>
      <trkpt lat="44.12048" lon="5.0231">
        <ele>84</ele>
        <time>2016-06-30T09:45:06.047Z</time>
      </trkpt>
      <trkpt lat="44.12046" lon="5.02303">
        <ele>84</ele>
        <time>2016-06-30T09:45:07.047Z</time>
      </trkpt>
      <trkpt lat="44.12045" lon="5.02295">
        <ele>84</ele>
        <time>2016-06-30T09:45:08.047Z</time>
      </trkpt>
      <trkpt lat="44.12043" lon="5.02288">
        <ele>84</ele>
        <time>2016-06-30T09:45:09.047Z</time>
      </trkpt>
      <trkpt lat="44.12041" lon="5.0228">
        <ele>83</ele>
        <time>2016-06-30T09:45:10.047Z</time>
      </trkpt>
      <trkpt lat="44.12039" lon="5.02272">
        <ele>83</ele>
        <time>2016-06-30T09:45:11.047Z</time>
      </trkpt>
      <trkpt lat="44.12037" lon="5.02264">
        <ele>83</ele>
        <time>2016-06-30T09:45:12.047Z</time>
      </trkpt>
      <trkpt lat="44.12036" lon="5.02255">
        <ele>83</ele>
        <time>2016-06-30T09:45:13.047Z</time>
      </trkpt>
      <trkpt lat="44.12033" lon="5.02247">
        <ele>82</ele>
        <time>2016-06-30T09:45:14.047Z</time>
      </trkpt>
      <trkpt lat="44.12031" lon="5.02239">
        <ele>83</ele>
        <time>2016-06-30T09:45:15.047Z</time>
      </trkpt>
      <trkpt lat="44.12029" lon="5.0223">
        <ele>83</ele>
        <time>2016-06-30T09:45:16.047Z</time>
      </trkpt>
      <trkpt lat="44.12027" lon="5.02222">
        <ele>82</ele>
        <time>2016-06-30T09:45:17.047Z</time>
      </trkpt>
      <trkpt lat="44.12025" lon="5.02213">
        <ele>82</ele>
        <time>2016-06-30T09:45:18.047Z</time>
      </trkpt>
      <trkpt lat="44.12022" lon="5.02205">
        <ele>82</ele>
        <time>2016-06-30T09:45:19.047Z</time>
      </trkpt>
      <trkpt lat="44.12019" lon="5.02197">
        <ele>82</ele>
        <time>2016-06-30T09:45:20.047Z</time>
      </trkpt>
      <trkpt lat="44.12017" lon="5.02189">
        <ele>82</ele>
        <time>2016-06-30T09:45:21.047Z</time>
      </trkpt>
      <trkpt lat="44.12015" lon="5.02181">
        <ele>82</ele>
        <time>2016-06-30T09:45:22.047Z</time>
      </trkpt>
      <trkpt lat="44.12013" lon="5.02172">
        <ele>82</ele>
        <time>2016-06-30T09:45:23.047Z</time>
      </trkpt>
      <trkpt lat="44.12012" lon="5.02164">
        <ele>83</ele>
        <time>2016-06-30T09:45:24.047Z</time>
      </trkpt>
      <trkpt lat="44.12012" lon="5.02156">
        <ele>83</ele>
        <time>2016-06-30T09:45:25.047Z</time>
      </trkpt>
      <trkpt lat="44.12012" lon="5.02148">
        <ele>83</ele>
        <time>2016-06-30T09:45:26.047Z</time>
      </trkpt>
      <trkpt lat="44.12013" lon="5.0214">
        <ele>83</ele>
        <time>2016-06-30T09:45:27.047Z</time>
      </trkpt>
      <trkpt lat="44.12013" lon="5.02132">
        <ele>83</ele>
        <time>2016-06-30T09:45:28.047Z</time>
      </trkpt>
      <trkpt lat="44.12014" lon="5.02124">
        <ele>83</ele>
        <time>2016-06-30T09:45:29.047Z</time>
      </trkpt>
      <trkpt lat="44.12015" lon="5.02117">
        <ele>83</ele>
        <time>2016-06-30T09:45:30.047Z</time>
      </trkpt>
      <trkpt lat="44.12015" lon="5.02109">
        <ele>83</ele>
        <time>2016-06-30T09:45:31.047Z</time>
      </trkpt>
      <trkpt lat="44.12016" lon="5.02101">
        <ele>83</ele>
        <time>2016-06-30T09:45:32.047Z</time>
      </trkpt>
      <trkpt lat="44.12016" lon="5.02094">
        <ele>83</ele>
        <time>2016-06-30T09:45:33.047Z</time>
      </trkpt>
      <trkpt lat="44.12017" lon="5.02086">
        <ele>83</ele>
        <time>2016-06-30T09:45:34.047Z</time>
      </trkpt>
      <trkpt lat="44.12017" lon="5.02079">
        <ele>83</ele>
        <time>2016-06-30T09:45:35.047Z</time>
      </trkpt>
      <trkpt lat="44.12017" lon="5.02072">
        <ele>83</ele>
        <time>2016-06-30T09:45:36.047Z</time>
      </trkpt>
      <trkpt lat="44.12016" lon="5.02064">
        <ele>83</ele>
        <time>2016-06-30T09:45:37.047Z</time>
      </trkpt>
      <trkpt lat="44.12016" lon="5.02057">
        <ele>83</ele>
        <time>2016-06-30T09:45:38.047Z</time>
      </trkpt>
      <trkpt lat="44.12015" lon="5.0205">
        <ele>83</ele>
        <time>2016-06-30T09:45:39.047Z</time>
      </trkpt>
      <trkpt lat="44.12014" lon="5.02043">
        <ele>83</ele>
        <time>2016-06-30T09:45:40.047Z</time>
      </trkpt>
      <trkpt lat="44.12014" lon="5.02036">
        <ele>83</ele>
        <time>2016-06-30T09:45:41.047Z</time>
      </trkpt>
      <trkpt lat="44.12013" lon="5.02029">
        <ele>83</ele>
        <time>2016-06-30T09:45:42.047Z</time>
      </trkpt>
      <trkpt lat="44.12012" lon="5.02022">
        <ele>83</ele>
        <time>2016-06-30T09:45:43.047Z</time>
      </trkpt>
      <trkpt lat="44.12011" lon="5.02015">
        <ele>83</ele>
        <time>2016-06-30T09:45:44.047Z</time>
      </trkpt>
      <trkpt lat="44.1201" lon="5.02009">
        <ele>83</ele>
        <time>2016-06-30T09:45:45.047Z</time>
      </trkpt>
      <trkpt lat="44.12009" lon="5.02002">
        <ele>83</ele>
        <time>2016-06-30T09:45:46.047Z</time>
      </trkpt>
      <trkpt lat="44.12008" lon="5.01995">
        <ele>83</ele>
        <time>2016-06-30T09:45:47.047Z</time>
      </trkpt>
      <trkpt lat="44.12007" lon="5.01987">
        <ele>83</ele>
        <time>2016-06-30T09:45:48.047Z</time>
      </trkpt>
      <trkpt lat="44.12007" lon="5.0198">
        <ele>83</ele>
        <time>2016-06-30T09:45:49.047Z</time>
      </trkpt>
      <trkpt lat="44.12006" lon="5.01973">
        <ele>83</ele>
        <time>2016-06-30T09:45:50.047Z</time>
      </trkpt>
      <trkpt lat="44.12005" lon="5.01965">
        <ele>84</ele>
        <time>2016-06-30T09:45:51.047Z</time>
      </trkpt>
      <trkpt lat="44.12004" lon="5.01958">
        <ele>83</ele>
        <time>2016-06-30T09:45:52.047Z</time>
      </trkpt>
      <trkpt lat="44.12003" lon="5.0195">
        <ele>84</ele>
        <time>2016-06-30T09:45:53.047Z</time>
      </trkpt>
      <trkpt lat="44.12002" lon="5.01943">
        <ele>83</ele>
        <time>2016-06-30T09:45:54.047Z</time>
      </trkpt>
      <trkpt lat="44.12001" lon="5.01935">
        <ele>83</ele>
        <time>2016-06-30T09:45:55.047Z</time>
      </trkpt>
      <trkpt lat="44.12" lon="5.01927">
        <ele>83</ele>
        <time>2016-06-30T09:45:56.047Z</time>
      </trkpt>
      <trkpt lat="44.11999" lon="5.01919">
        <ele>83</ele>
        <time>2016-06-30T09:45:57.047Z</time>
      </trkpt>
      <trkpt lat="44.11999" lon="5.01912">
        <ele>83</ele>
        <time>2016-06-30T09:45:58.047Z</time>
      </trkpt>
      <trkpt lat="44.11999" lon="5.01904">
        <ele>82</ele>
        <time>2016-06-30T09:45:59.047Z</time>
      </trkpt>
      <trkpt lat="44.11999" lon="5.01895">
        <ele>81</ele>
        <time>2016-06-30T09:46:00.047Z</time>
      </trkpt>
      <trkpt lat="44.12" lon="5.01887">
        <ele>82</ele>
        <time>2016-06-30T09:46:01.047Z</time>
      </trkpt>
      <trkpt lat="44.12002" lon="5.0188">
        <ele>83</ele>
        <time>2016-06-30T09:46:02.047Z</time>
      </trkpt>
      <trkpt lat="44.12003" lon="5.01872">
        <ele>84</ele>
        <time>2016-06-30T09:46:03.047Z</time>
      </trkpt>
      <trkpt lat="44.12004" lon="5.01864">
        <ele>84</ele>
        <time>2016-06-30T09:46:04.047Z</time>
      </trkpt>
      <trkpt lat="44.12006" lon="5.01857">
        <ele>84</ele>
        <time>2016-06-30T09:46:05.047Z</time>
      </trkpt>
      <trkpt lat="44.12007" lon="5.01849">
        <ele>84</ele>
        <time>2016-06-30T09:46:06.047Z</time>
      </trkpt>
      <trkpt lat="44.12008" lon="5.01842">
        <ele>84</ele>
        <time>2016-06-30T09:46:07.047Z</time>
      </trkpt>
      <trkpt lat="44.1201" lon="5.01834">
        <ele>84</ele>
        <time>2016-06-30T09:46:08.047Z</time>
      </trkpt>
      <trkpt lat="44.12011" lon="5.01827">
        <ele>83</ele>
        <time>2016-06-30T09:46:09.047Z</time>
      </trkpt>
      <trkpt lat="44.12013" lon="5.0182">
        <ele>83</ele>
        <time>2016-06-30T09:46:10.047Z</time>
      </trkpt>
      <trkpt lat="44.12014" lon="5.01812">
        <ele>83</ele>
        <time>2016-06-30T09:46:11.047Z</time>
      </trkpt>
      <trkpt lat="44.12016" lon="5.01805">
        <ele>83</ele>
        <time>2016-06-30T09:46:12.047Z</time>
      </trkpt>
      <trkpt lat="44.12017" lon="5.01798">
        <ele>83</ele>
        <time>2016-06-30T09:46:13.047Z</time>
      </trkpt>
      <trkpt lat="44.12019" lon="5.0179">
        <ele>83</ele>
        <time>2016-06-30T09:46:14.047Z</time>
      </trkpt>
      <trkpt lat="44.1202" lon="5.01783">
        <ele>82</ele>
        <time>2016-06-30T09:46:15.047Z</time>
      </trkpt>
      <trkpt lat="44.12022" lon="5.01776">
        <ele>82</ele>
        <time>2016-06-30T09:46:16.047Z</time>
      </trkpt>
      <trkpt lat="44.12023" lon="5.01768">
        <ele>82</ele>
        <time>2016-06-30T09:46:17.047Z</time>
      </trkpt>
      <trkpt lat="44.12025" lon="5.01761">
        <ele>82</ele>
        <time>2016-06-30T09:46:18.047Z</time>
      </trkpt>
      <trkpt lat="44.12026" lon="5.01753">
        <ele>82</ele>
        <time>2016-06-30T09:46:19.047Z</time>
      </trkpt>
      <trkpt lat="44.12027" lon="5.01746">
        <ele>81</ele>
        <time>2016-06-30T09:46:20.047Z</time>
      </trkpt>
      <trkpt lat="44.12029" lon="5.01738">
        <ele>81</ele>
        <time>2016-06-30T09:46:21.047Z</time>
      </trkpt>
      <trkpt lat="44.1203" lon="5.01731">
        <ele>81</ele>
        <time>2016-06-30T09:46:22.047Z</time>
      </trkpt>
      <trkpt lat="44.12032" lon="5.01723">
        <ele>81</ele>
        <time>2016-06-30T09:46:23.047Z</time>
      </trkpt>
      <trkpt lat="44.12033" lon="5.01716">
        <ele>81</ele>
        <time>2016-06-30T09:46:24.047Z</time>
      </trkpt>
      <trkpt lat="44.12035" lon="5.01708">
        <ele>81</ele>
        <time>2016-06-30T09:46:25.047Z</time>
      </trkpt>
      <trkpt lat="44.12036" lon="5.01701">
        <ele>80</ele>
        <time>2016-06-30T09:46:26.047Z</time>
      </trkpt>
      <trkpt lat="44.12038" lon="5.01694">
        <ele>80</ele>
        <time>2016-06-30T09:46:27.047Z</time>
      </trkpt>
      <trkpt lat="44.12039" lon="5.01686">
        <ele>80</ele>
        <time>2016-06-30T09:46:28.047Z</time>
      </trkpt>
      <trkpt lat="44.12041" lon="5.01679">
        <ele>80</ele>
        <time>2016-06-30T09:46:29.047Z</time>
      </trkpt>
      <trkpt lat="44.12042" lon="5.01672">
        <ele>79</ele>
        <time>2016-06-30T09:46:30.047Z</time>
      </trkpt>
      <trkpt lat="44.12044" lon="5.01664">
        <ele>79</ele>
        <time>2016-06-30T09:46:31.047Z</time>
      </trkpt>
      <trkpt lat="44.12045" lon="5.01657">
        <ele>79</ele>
        <time>2016-06-30T09:46:32.047Z</time>
      </trkpt>
      <trkpt lat="44.12047" lon="5.0165">
        <ele>79</ele>
        <time>2016-06-30T09:46:33.047Z</time>
      </trkpt>
      <trkpt lat="44.12048" lon="5.01643">
        <ele>79</ele>
        <time>2016-06-30T09:46:34.047Z</time>
      </trkpt>
      <trkpt lat="44.1205" lon="5.01636">
        <ele>79</ele>
        <time>2016-06-30T09:46:35.047Z</time>
      </trkpt>
      <trkpt lat="44.12051" lon="5.01629">
        <ele>79</ele>
        <time>2016-06-30T09:46:36.047Z</time>
      </trkpt>
      <trkpt lat="44.12053" lon="5.01622">
        <ele>78</ele>
        <time>2016-06-30T09:46:37.047Z</time>
      </trkpt>
      <trkpt lat="44.12054" lon="5.01616">
        <ele>78</ele>
        <time>2016-06-30T09:46:38.047Z</time>
      </trkpt>
      <trkpt lat="44.12056" lon="5.01609">
        <ele>78</ele>
        <time>2016-06-30T09:46:39.047Z</time>
      </trkpt>
      <trkpt lat="44.12057" lon="5.01602">
        <ele>78</ele>
        <time>2016-06-30T09:46:40.047Z</time>
      </trkpt>
      <trkpt lat="44.12059" lon="5.01595">
        <ele>78</ele>
        <time>2016-06-30T09:46:41.047Z</time>
      </trkpt>
      <trkpt lat="44.12061" lon="5.01589">
        <ele>77</ele>
        <time>2016-06-30T09:46:42.047Z</time>
      </trkpt>
      <trkpt lat="44.12062" lon="5.01582">
        <ele>77</ele>
        <time>2016-06-30T09:46:43.047Z</time>
      </trkpt>
      <trkpt lat="44.12064" lon="5.01575">
        <ele>77</ele>
        <time>2016-06-30T09:46:44.047Z</time>
      </trkpt>
      <trkpt lat="44.12065" lon="5.01569">
        <ele>77</ele>
        <time>2016-06-30T09:46:45.047Z</time>
      </trkpt>
      <trkpt lat="44.12067" lon="5.01562">
        <ele>77</ele>
        <time>2016-06-30T09:46:46.047Z</time>
      </trkpt>
      <trkpt lat="44.12069" lon="5.01556">
        <ele>77</ele>
        <time>2016-06-30T09:46:47.047Z</time>
      </trkpt>
      <trkpt lat="44.12071" lon="5.01549">
        <ele>77</ele>
        <time>2016-06-30T09:46:48.047Z</time>
      </trkpt>
      <trkpt lat="44.12073" lon="5.01543">
        <ele>77</ele>
        <time>2016-06-30T09:46:49.047Z</time>
      </trkpt>
      <trkpt lat="44.12074" lon="5.01536">
        <ele>77</ele>
        <time>2016-06-30T09:46:50.047Z</time>
      </trkpt>
      <trkpt lat="44.12076" lon="5.01529">
        <ele>77</ele>
        <time>2016-06-30T09:46:51.047Z</time>
      </trkpt>
      <trkpt lat="44.12078" lon="5.01522">
        <ele>77</ele>
        <time>2016-06-30T09:46:52.047Z</time>
      </trkpt>
      <trkpt lat="44.1208" lon="5.01516">
        <ele>77</ele>
        <time>2016-06-30T09:46:53.047Z</time>
      </trkpt>
      <trkpt lat="44.12081" lon="5.01508">
        <ele>77</ele>
        <time>2016-06-30T09:46:54.047Z</time>
      </trkpt>
      <trkpt lat="44.12083" lon="5.01502">
        <ele>77</ele>
        <time>2016-06-30T09:46:55.047Z</time>
      </trkpt>
      <trkpt lat="44.12084" lon="5.01495">
        <ele>77</ele>
        <time>2016-06-30T09:46:56.047Z</time>
      </trkpt>
      <trkpt lat="44.12086" lon="5.01488">
        <ele>77</ele>
        <time>2016-06-30T09:46:57.047Z</time>
      </trkpt>
      <trkpt lat="44.12087" lon="5.01481">
        <ele>77</ele>
        <time>2016-06-30T09:46:58.047Z</time>
      </trkpt>
      <trkpt lat="44.12088" lon="5.01474">
        <ele>77</ele>
        <time>2016-06-30T09:46:59.047Z</time>
      </trkpt>
      <trkpt lat="44.12089" lon="5.01467">
        <ele>77</ele>
        <time>2016-06-30T09:47:00.047Z</time>
      </trkpt>
      <trkpt lat="44.1209" lon="5.0146">
        <ele>77</ele>
        <time>2016-06-30T09:47:01.047Z</time>
      </trkpt>
      <trkpt lat="44.12091" lon="5.01453">
        <ele>77</ele>
        <time>2016-06-30T09:47:02.047Z</time>
      </trkpt>
      <trkpt lat="44.12091" lon="5.01445">
        <ele>77</ele>
        <time>2016-06-30T09:47:03.047Z</time>
      </trkpt>
      <trkpt lat="44.12092" lon="5.01438">
        <ele>77</ele>
        <time>2016-06-30T09:47:04.047Z</time>
      </trkpt>
      <trkpt lat="44.12093" lon="5.01431">
        <ele>77</ele>
        <time>2016-06-30T09:47:05.047Z</time>
      </trkpt>
      <trkpt lat="44.12094" lon="5.01424">
        <ele>77</ele>
        <time>2016-06-30T09:47:06.047Z</time>
      </trkpt>
      <trkpt lat="44.12094" lon="5.01417">
        <ele>77</ele>
        <time>2016-06-30T09:47:07.047Z</time>
      </trkpt>
      <trkpt lat="44.12094" lon="5.0141">
        <ele>77</ele>
        <time>2016-06-30T09:47:08.047Z</time>
      </trkpt>
      <trkpt lat="44.12094" lon="5.01403">
        <ele>77</ele>
        <time>2016-06-30T09:47:09.047Z</time>
      </trkpt>
      <trkpt lat="44.12094" lon="5.01396">
        <ele>77</ele>
        <time>2016-06-30T09:47:10.047Z</time>
      </trkpt>
      <trkpt lat="44.12094" lon="5.01389">
        <ele>77</ele>
        <time>2016-06-30T09:47:11.047Z</time>
      </trkpt>
      <trkpt lat="44.12094" lon="5.01382">
        <ele>77</ele>
        <time>2016-06-30T09:47:12.047Z</time>
      </trkpt>
      <trkpt lat="44.12095" lon="5.01376">
        <ele>78</ele>
        <time>2016-06-30T09:47:13.047Z</time>
      </trkpt>
      <trkpt lat="44.12096" lon="5.0137">
        <ele>77</ele>
        <time>2016-06-30T09:47:14.047Z</time>
      </trkpt>
      <trkpt lat="44.12097" lon="5.01363">
        <ele>77</ele>
        <time>2016-06-30T09:47:15.047Z</time>
      </trkpt>
      <trkpt lat="44.12097" lon="5.01357">
        <ele>77</ele>
        <time>2016-06-30T09:47:16.047Z</time>
      </trkpt>
      <trkpt lat="44.12097" lon="5.01351">
        <ele>77</ele>
        <time>2016-06-30T09:47:17.047Z</time>
      </trkpt>
      <trkpt lat="44.12098" lon="5.01344">
        <ele>78</ele>
        <time>2016-06-30T09:47:18.047Z</time>
      </trkpt>
      <trkpt lat="44.12099" lon="5.01337">
        <ele>78</ele>
        <time>2016-06-30T09:47:19.047Z</time>
      </trkpt>
      <trkpt lat="44.121" lon="5.01331">
        <ele>77</ele>
        <time>2016-06-30T09:47:20.047Z</time>
      </trkpt>
      <trkpt lat="44.12103" lon="5.01324">
        <ele>77</ele>
        <time>2016-06-30T09:47:21.047Z</time>
      </trkpt>
      <trkpt lat="44.12105" lon="5.01318">
        <ele>77</ele>
        <time>2016-06-30T09:47:22.047Z</time>
      </trkpt>
      <trkpt lat="44.12107" lon="5.01311">
        <ele>77</ele>
        <time>2016-06-30T09:47:23.047Z</time>
      </trkpt>
      <trkpt lat="44.12109" lon="5.01304">
        <ele>77</ele>
        <time>2016-06-30T09:47:24.047Z</time>
      </trkpt>
      <trkpt lat="44.12112" lon="5.01298">
        <ele>77</ele>
        <time>2016-06-30T09:47:25.047Z</time>
      </trkpt>
      <trkpt lat="44.12114" lon="5.01291">
        <ele>77</ele>
        <time>2016-06-30T09:47:26.047Z</time>
      </trkpt>
      <trkpt lat="44.12116" lon="5.01285">
        <ele>77</ele>
        <time>2016-06-30T09:47:27.047Z</time>
      </trkpt>
      <trkpt lat="44.12118" lon="5.01278">
        <ele>77</ele>
        <time>2016-06-30T09:47:28.047Z</time>
      </trkpt>
      <trkpt lat="44.1212" lon="5.01272">
        <ele>77</ele>
        <time>2016-06-30T09:47:29.047Z</time>
      </trkpt>
      <trkpt lat="44.12122" lon="5.01265">
        <ele>77</ele>
        <time>2016-06-30T09:47:30.047Z</time>
      </trkpt>
      <trkpt lat="44.12123" lon="5.01258">
        <ele>76</ele>
        <time>2016-06-30T09:47:31.047Z</time>
      </trkpt>
      <trkpt lat="44.12125" lon="5.01252">
        <ele>76</ele>
        <time>2016-06-30T09:47:32.047Z</time>
      </trkpt>
      <trkpt lat="44.12126" lon="5.01245">
        <ele>76</ele>
        <time>2016-06-30T09:47:33.047Z</time>
      </trkpt>
      <trkpt lat="44.12127" lon="5.01238">
        <ele>77</ele>
        <time>2016-06-30T09:47:34.047Z</time>
      </trkpt>
      <trkpt lat="44.12128" lon="5.01232">
        <ele>77</ele>
        <time>2016-06-30T09:47:35.047Z</time>
      </trkpt>
      <trkpt lat="44.1213" lon="5.01225">
        <ele>76</ele>
        <time>2016-06-30T09:47:36.047Z</time>
      </trkpt>
      <trkpt lat="44.12131" lon="5.01218">
        <ele>76</ele>
        <time>2016-06-30T09:47:37.047Z</time>
      </trkpt>
      <trkpt lat="44.12132" lon="5.01212">
        <ele>76</ele>
        <time>2016-06-30T09:47:38.047Z</time>
      </trkpt>
      <trkpt lat="44.12133" lon="5.01205">
        <ele>75</ele>
        <time>2016-06-30T09:47:39.047Z</time>
      </trkpt>
      <trkpt lat="44.12134" lon="5.01198">
        <ele>75</ele>
        <time>2016-06-30T09:47:40.047Z</time>
      </trkpt>
      <trkpt lat="44.12135" lon="5.01191">
        <ele>75</ele>
        <time>2016-06-30T09:47:41.047Z</time>
      </trkpt>
      <trkpt lat="44.12135" lon="5.01184">
        <ele>75</ele>
        <time>2016-06-30T09:47:42.047Z</time>
      </trkpt>
      <trkpt lat="44.12136" lon="5.01178">
        <ele>75</ele>
        <time>2016-06-30T09:47:43.047Z</time>
      </trkpt>
      <trkpt lat="44.12136" lon="5.01171">
        <ele>75</ele>
        <time>2016-06-30T09:47:44.047Z</time>
      </trkpt>
      <trkpt lat="44.12137" lon="5.01164">
        <ele>75</ele>
        <time>2016-06-30T09:47:45.047Z</time>
      </trkpt>
      <trkpt lat="44.12137" lon="5.01157">
        <ele>75</ele>
        <time>2016-06-30T09:47:46.047Z</time>
      </trkpt>
      <trkpt lat="44.12137" lon="5.0115">
        <ele>75</ele>
        <time>2016-06-30T09:47:47.047Z</time>
      </trkpt>
      <trkpt lat="44.12138" lon="5.01142">
        <ele>75</ele>
        <time>2016-06-30T09:47:48.047Z</time>
      </trkpt>
      <trkpt lat="44.12138" lon="5.01134">
        <ele>75</ele>
        <time>2016-06-30T09:47:49.047Z</time>
      </trkpt>
      <trkpt lat="44.12138" lon="5.01126">
        <ele>75</ele>
        <time>2016-06-30T09:47:50.047Z</time>
      </trkpt>
      <trkpt lat="44.12139" lon="5.01118">
        <ele>76</ele>
        <time>2016-06-30T09:47:51.047Z</time>
      </trkpt>
      <trkpt lat="44.12139" lon="5.01109">
        <ele>76</ele>
        <time>2016-06-30T09:47:52.047Z</time>
      </trkpt>
      <trkpt lat="44.1214" lon="5.01101">
        <ele>76</ele>
        <time>2016-06-30T09:47:53.047Z</time>
      </trkpt>
      <trkpt lat="44.1214" lon="5.01093">
        <ele>77</ele>
        <time>2016-06-30T09:47:54.047Z</time>
      </trkpt>
      <trkpt lat="44.12141" lon="5.01085">
        <ele>77</ele>
        <time>2016-06-30T09:47:55.047Z</time>
      </trkpt>
      <trkpt lat="44.12141" lon="5.01076">
        <ele>77</ele>
        <time>2016-06-30T09:47:56.047Z</time>
      </trkpt>
      <trkpt lat="44.12142" lon="5.01068">
        <ele>77</ele>
        <time>2016-06-30T09:47:57.047Z</time>
      </trkpt>
      <trkpt lat="44.12142" lon="5.0106">
        <ele>78</ele>
        <time>2016-06-30T09:47:58.047Z</time>
      </trkpt>
      <trkpt lat="44.12143" lon="5.01052">
        <ele>78</ele>
        <time>2016-06-30T09:47:59.047Z</time>
      </trkpt>
      <trkpt lat="44.12143" lon="5.01043">
        <ele>78</ele>
        <time>2016-06-30T09:48:00.047Z</time>
      </trkpt>
      <trkpt lat="44.12144" lon="5.01035">
        <ele>78</ele>
        <time>2016-06-30T09:48:01.047Z</time>
      </trkpt>
      <trkpt lat="44.12144" lon="5.01027">
        <ele>78</ele>
        <time>2016-06-30T09:48:02.047Z</time>
      </trkpt>
      <trkpt lat="44.12145" lon="5.01018">
        <ele>78</ele>
        <time>2016-06-30T09:48:03.047Z</time>
      </trkpt>
      <trkpt lat="44.12146" lon="5.0101">
        <ele>78</ele>
        <time>2016-06-30T09:48:04.047Z</time>
      </trkpt>
      <trkpt lat="44.12146" lon="5.01002">
        <ele>78</ele>
        <time>2016-06-30T09:48:05.047Z</time>
      </trkpt>
      <trkpt lat="44.12147" lon="5.00994">
        <ele>78</ele>
        <time>2016-06-30T09:48:06.047Z</time>
      </trkpt>
      <trkpt lat="44.12148" lon="5.00985">
        <ele>79</ele>
        <time>2016-06-30T09:48:07.047Z</time>
      </trkpt>
      <trkpt lat="44.12148" lon="5.00977">
        <ele>78</ele>
        <time>2016-06-30T09:48:08.047Z</time>
      </trkpt>
      <trkpt lat="44.12149" lon="5.00969">
        <ele>78</ele>
        <time>2016-06-30T09:48:09.047Z</time>
      </trkpt>
      <trkpt lat="44.1215" lon="5.00961">
        <ele>78</ele>
        <time>2016-06-30T09:48:10.047Z</time>
      </trkpt>
      <trkpt lat="44.12151" lon="5.00953">
        <ele>78</ele>
        <time>2016-06-30T09:48:11.047Z</time>
      </trkpt>
      <trkpt lat="44.12152" lon="5.00945">
        <ele>78</ele>
        <time>2016-06-30T09:48:12.047Z</time>
      </trkpt>
      <trkpt lat="44.12153" lon="5.00937">
        <ele>78</ele>
        <time>2016-06-30T09:48:13.047Z</time>
      </trkpt>
      <trkpt lat="44.12154" lon="5.00929">
        <ele>78</ele>
        <time>2016-06-30T09:48:14.047Z</time>
      </trkpt>
      <trkpt lat="44.12155" lon="5.00921">
        <ele>79</ele>
        <time>2016-06-30T09:48:15.047Z</time>
      </trkpt>
      <trkpt lat="44.12156" lon="5.00913">
        <ele>79</ele>
        <time>2016-06-30T09:48:16.047Z</time>
      </trkpt>
      <trkpt lat="44.12158" lon="5.00905">
        <ele>79</ele>
        <time>2016-06-30T09:48:17.047Z</time>
      </trkpt>
      <trkpt lat="44.12159" lon="5.00898">
        <ele>79</ele>
        <time>2016-06-30T09:48:18.047Z</time>
      </trkpt>
      <trkpt lat="44.1216" lon="5.0089">
        <ele>79</ele>
        <time>2016-06-30T09:48:19.047Z</time>
      </trkpt>
      <trkpt lat="44.12162" lon="5.00883">
        <ele>79</ele>
        <time>2016-06-30T09:48:20.047Z</time>
      </trkpt>
      <trkpt lat="44.12163" lon="5.00876">
        <ele>79</ele>
        <time>2016-06-30T09:48:21.047Z</time>
      </trkpt>
      <trkpt lat="44.12165" lon="5.00868">
        <ele>79</ele>
        <time>2016-06-30T09:48:22.047Z</time>
      </trkpt>
      <trkpt lat="44.12166" lon="5.00861">
        <ele>79</ele>
        <time>2016-06-30T09:48:23.047Z</time>
      </trkpt>
      <trkpt lat="44.12168" lon="5.00854">
        <ele>79</ele>
        <time>2016-06-30T09:48:24.047Z</time>
      </trkpt>
      <trkpt lat="44.12169" lon="5.00847">
        <ele>79</ele>
        <time>2016-06-30T09:48:25.047Z</time>
      </trkpt>
      <trkpt lat="44.12171" lon="5.0084">
        <ele>79</ele>
        <time>2016-06-30T09:48:26.047Z</time>
      </trkpt>
      <trkpt lat="44.12173" lon="5.00833">
        <ele>79</ele>
        <time>2016-06-30T09:48:27.047Z</time>
      </trkpt>
      <trkpt lat="44.12175" lon="5.00826">
        <ele>79</ele>
        <time>2016-06-30T09:48:28.047Z</time>
      </trkpt>
      <trkpt lat="44.12177" lon="5.00819">
        <ele>79</ele>
        <time>2016-06-30T09:48:29.047Z</time>
      </trkpt>
      <trkpt lat="44.12179" lon="5.00812">
        <ele>79</ele>
        <time>2016-06-30T09:48:30.047Z</time>
      </trkpt>
      <trkpt lat="44.12181" lon="5.00805">
        <ele>79</ele>
        <time>2016-06-30T09:48:31.047Z</time>
      </trkpt>
      <trkpt lat="44.12183" lon="5.00797">
        <ele>79</ele>
        <time>2016-06-30T09:48:32.047Z</time>
      </trkpt>
      <trkpt lat="44.12186" lon="5.0079">
        <ele>79</ele>
        <time>2016-06-30T09:48:33.047Z</time>
      </trkpt>
      <trkpt lat="44.12188" lon="5.00782">
        <ele>79</ele>
        <time>2016-06-30T09:48:34.047Z</time>
      </trkpt>
      <trkpt lat="44.1219" lon="5.00774">
        <ele>79</ele>
        <time>2016-06-30T09:48:35.047Z</time>
      </trkpt>
      <trkpt lat="44.12193" lon="5.00765">
        <ele>79</ele>
        <time>2016-06-30T09:48:36.047Z</time>
      </trkpt>
      <trkpt lat="44.12195" lon="5.00757">
        <ele>79</ele>
        <time>2016-06-30T09:48:37.047Z</time>
      </trkpt>
      <trkpt lat="44.12198" lon="5.00749">
        <ele>79</ele>
        <time>2016-06-30T09:48:38.047Z</time>
      </trkpt>
      <trkpt lat="44.12201" lon="5.00741">
        <ele>79</ele>
        <time>2016-06-30T09:48:39.047Z</time>
      </trkpt>
      <trkpt lat="44.12203" lon="5.00732">
        <ele>78</ele>
        <time>2016-06-30T09:48:40.047Z</time>
      </trkpt>
      <trkpt lat="44.12206" lon="5.00724">
        <ele>78</ele>
        <time>2016-06-30T09:48:41.047Z</time>
      </trkpt>
      <trkpt lat="44.12209" lon="5.00716">
        <ele>78</ele>
        <time>2016-06-30T09:48:42.047Z</time>
      </trkpt>
      <trkpt lat="44.12211" lon="5.00708">
        <ele>78</ele>
        <time>2016-06-30T09:48:43.047Z</time>
      </trkpt>
      <trkpt lat="44.12214" lon="5.00699">
        <ele>78</ele>
        <time>2016-06-30T09:48:44.047Z</time>
      </trkpt>
      <trkpt lat="44.12217" lon="5.00691">
        <ele>78</ele>
        <time>2016-06-30T09:48:45.047Z</time>
      </trkpt>
      <trkpt lat="44.12219" lon="5.00683">
        <ele>78</ele>
        <time>2016-06-30T09:48:46.047Z</time>
      </trkpt>
      <trkpt lat="44.12222" lon="5.00675">
        <ele>78</ele>
        <time>2016-06-30T09:48:47.047Z</time>
      </trkpt>
      <trkpt lat="44.12225" lon="5.00667">
        <ele>78</ele>
        <time>2016-06-30T09:48:48.047Z</time>
      </trkpt>
      <trkpt lat="44.12227" lon="5.0066">
        <ele>78</ele>
        <time>2016-06-30T09:48:49.047Z</time>
      </trkpt>
      <trkpt lat="44.1223" lon="5.00652">
        <ele>78</ele>
        <time>2016-06-30T09:48:50.047Z</time>
      </trkpt>
      <trkpt lat="44.12233" lon="5.00643">
        <ele>78</ele>
        <time>2016-06-30T09:48:51.047Z</time>
      </trkpt>
      <trkpt lat="44.12236" lon="5.00635">
        <ele>78</ele>
        <time>2016-06-30T09:48:52.047Z</time>
      </trkpt>
      <trkpt lat="44.12239" lon="5.00627">
        <ele>78</ele>
        <time>2016-06-30T09:48:53.047Z</time>
      </trkpt>
      <trkpt lat="44.12242" lon="5.00618">
        <ele>78</ele>
        <time>2016-06-30T09:48:54.047Z</time>
      </trkpt>
      <trkpt lat="44.12244" lon="5.0061">
        <ele>78</ele>
        <time>2016-06-30T09:48:55.047Z</time>
      </trkpt>
      <trkpt lat="44.12247" lon="5.00601">
        <ele>78</ele>
        <time>2016-06-30T09:48:56.047Z</time>
      </trkpt>
      <trkpt lat="44.1225" lon="5.00592">
        <ele>78</ele>
        <time>2016-06-30T09:48:57.047Z</time>
      </trkpt>
      <trkpt lat="44.12253" lon="5.00584">
        <ele>79</ele>
        <time>2016-06-30T09:48:58.047Z</time>
      </trkpt>
      <trkpt lat="44.12256" lon="5.00576">
        <ele>79</ele>
        <time>2016-06-30T09:48:59.047Z</time>
      </trkpt>
      <trkpt lat="44.12259" lon="5.00568">
        <ele>79</ele>
        <time>2016-06-30T09:49:00.047Z</time>
      </trkpt>
      <trkpt lat="44.12261" lon="5.0056">
        <ele>79</ele>
        <time>2016-06-30T09:49:01.047Z</time>
      </trkpt>
      <trkpt lat="44.12264" lon="5.00551">
        <ele>79</ele>
        <time>2016-06-30T09:49:02.047Z</time>
      </trkpt>
      <trkpt lat="44.12267" lon="5.00543">
        <ele>79</ele>
        <time>2016-06-30T09:49:03.047Z</time>
      </trkpt>
      <trkpt lat="44.12269" lon="5.00535">
        <ele>79</ele>
        <time>2016-06-30T09:49:04.047Z</time>
      </trkpt>
      <trkpt lat="44.12272" lon="5.00527">
        <ele>79</ele>
        <time>2016-06-30T09:49:05.047Z</time>
      </trkpt>
      <trkpt lat="44.12275" lon="5.00519">
        <ele>79</ele>
        <time>2016-06-30T09:49:06.047Z</time>
      </trkpt>
      <trkpt lat="44.12277" lon="5.00511">
        <ele>79</ele>
        <time>2016-06-30T09:49:07.047Z</time>
      </trkpt>
      <trkpt lat="44.1228" lon="5.00503">
        <ele>79</ele>
        <time>2016-06-30T09:49:08.047Z</time>
      </trkpt>
      <trkpt lat="44.12282" lon="5.00495">
        <ele>79</ele>
        <time>2016-06-30T09:49:09.047Z</time>
      </trkpt>
      <trkpt lat="44.12285" lon="5.00488">
        <ele>79</ele>
        <time>2016-06-30T09:49:10.047Z</time>
      </trkpt>
      <trkpt lat="44.12287" lon="5.00481">
        <ele>79</ele>
        <time>2016-06-30T09:49:11.047Z</time>
      </trkpt>
      <trkpt lat="44.1229" lon="5.00474">
        <ele>80</ele>
        <time>2016-06-30T09:49:12.047Z</time>
      </trkpt>
      <trkpt lat="44.12292" lon="5.00466">
        <ele>80</ele>
        <time>2016-06-30T09:49:13.047Z</time>
      </trkpt>
      <trkpt lat="44.12295" lon="5.00459">
        <ele>80</ele>
        <time>2016-06-30T09:49:14.047Z</time>
      </trkpt>
      <trkpt lat="44.12297" lon="5.00452">
        <ele>80</ele>
        <time>2016-06-30T09:49:15.047Z</time>
      </trkpt>
      <trkpt lat="44.12299" lon="5.00445">
        <ele>80</ele>
        <time>2016-06-30T09:49:16.047Z</time>
      </trkpt>
      <trkpt lat="44.12301" lon="5.00438">
        <ele>80</ele>
        <time>2016-06-30T09:49:17.047Z</time>
      </trkpt>
      <trkpt lat="44.12303" lon="5.0043">
        <ele>81</ele>
        <time>2016-06-30T09:49:18.047Z</time>
      </trkpt>
      <trkpt lat="44.12306" lon="5.00423">
        <ele>81</ele>
        <time>2016-06-30T09:49:19.047Z</time>
      </trkpt>
      <trkpt lat="44.12308" lon="5.00416">
        <ele>81</ele>
        <time>2016-06-30T09:49:20.047Z</time>
      </trkpt>
      <trkpt lat="44.1231" lon="5.00409">
        <ele>82</ele>
        <time>2016-06-30T09:49:21.047Z</time>
      </trkpt>
      <trkpt lat="44.12312" lon="5.00401">
        <ele>82</ele>
        <time>2016-06-30T09:49:22.047Z</time>
      </trkpt>
      <trkpt lat="44.12314" lon="5.00394">
        <ele>82</ele>
        <time>2016-06-30T09:49:23.047Z</time>
      </trkpt>
      <trkpt lat="44.12316" lon="5.00386">
        <ele>82</ele>
        <time>2016-06-30T09:49:24.047Z</time>
      </trkpt>
      <trkpt lat="44.12318" lon="5.00378">
        <ele>82</ele>
        <time>2016-06-30T09:49:25.047Z</time>
      </trkpt>
      <trkpt lat="44.12321" lon="5.00371">
        <ele>82</ele>
        <time>2016-06-30T09:49:26.047Z</time>
      </trkpt>
      <trkpt lat="44.12323" lon="5.00363">
        <ele>82</ele>
        <time>2016-06-30T09:49:27.047Z</time>
      </trkpt>
      <trkpt lat="44.12324" lon="5.00356">
        <ele>82</ele>
        <time>2016-06-30T09:49:28.047Z</time>
      </trkpt>
      <trkpt lat="44.12326" lon="5.00349">
        <ele>82</ele>
        <time>2016-06-30T09:49:29.047Z</time>
      </trkpt>
      <trkpt lat="44.12328" lon="5.00341">
        <ele>82</ele>
        <time>2016-06-30T09:49:30.047Z</time>
      </trkpt>
      <trkpt lat="44.1233" lon="5.00334">
        <ele>82</ele>
        <time>2016-06-30T09:49:31.047Z</time>
      </trkpt>
      <trkpt lat="44.12332" lon="5.00326">
        <ele>82</ele>
        <time>2016-06-30T09:49:32.047Z</time>
      </trkpt>
      <trkpt lat="44.12334" lon="5.00319">
        <ele>82</ele>
        <time>2016-06-30T09:49:33.047Z</time>
      </trkpt>
      <trkpt lat="44.12336" lon="5.00312">
        <ele>82</ele>
        <time>2016-06-30T09:49:34.047Z</time>
      </trkpt>
      <trkpt lat="44.12337" lon="5.00304">
        <ele>82</ele>
        <time>2016-06-30T09:49:35.047Z</time>
      </trkpt>
      <trkpt lat="44.12339" lon="5.00297">
        <ele>82</ele>
        <time>2016-06-30T09:49:36.047Z</time>
      </trkpt>
      <trkpt lat="44.12341" lon="5.0029">
        <ele>82</ele>
        <time>2016-06-30T09:49:37.047Z</time>
      </trkpt>
      <trkpt lat="44.12343" lon="5.00282">
        <ele>82</ele>
        <time>2016-06-30T09:49:38.047Z</time>
      </trkpt>
      <trkpt lat="44.12345" lon="5.00275">
        <ele>82</ele>
        <time>2016-06-30T09:49:39.047Z</time>
      </trkpt>
      <trkpt lat="44.12347" lon="5.00267">
        <ele>82</ele>
        <time>2016-06-30T09:49:40.047Z</time>
      </trkpt>
      <trkpt lat="44.12348" lon="5.0026">
        <ele>83</ele>
        <time>2016-06-30T09:49:41.047Z</time>
      </trkpt>
      <trkpt lat="44.1235" lon="5.00253">
        <ele>83</ele>
        <time>2016-06-30T09:49:42.047Z</time>
      </trkpt>
      <trkpt lat="44.12352" lon="5.00246">
        <ele>83</ele>
        <time>2016-06-30T09:49:43.047Z</time>
      </trkpt>
      <trkpt lat="44.12354" lon="5.00239">
        <ele>83</ele>
        <time>2016-06-30T09:49:44.047Z</time>
      </trkpt>
      <trkpt lat="44.12355" lon="5.00232">
        <ele>83</ele>
        <time>2016-06-30T09:49:45.047Z</time>
      </trkpt>
      <trkpt lat="44.12357" lon="5.00225">
        <ele>83</ele>
        <time>2016-06-30T09:49:46.047Z</time>
      </trkpt>
      <trkpt lat="44.12359" lon="5.00218">
        <ele>83</ele>
        <time>2016-06-30T09:49:47.047Z</time>
      </trkpt>
      <trkpt lat="44.12361" lon="5.00211">
        <ele>83</ele>
        <time>2016-06-30T09:49:48.047Z</time>
      </trkpt>
      <trkpt lat="44.12363" lon="5.00204">
        <ele>83</ele>
        <time>2016-06-30T09:49:49.047Z</time>
      </trkpt>
      <trkpt lat="44.12364" lon="5.00197">
        <ele>83</ele>
        <time>2016-06-30T09:49:50.047Z</time>
      </trkpt>
      <trkpt lat="44.12366" lon="5.0019">
        <ele>83</ele>
        <time>2016-06-30T09:49:51.047Z</time>
      </trkpt>
      <trkpt lat="44.12368" lon="5.00184">
        <ele>83</ele>
        <time>2016-06-30T09:49:52.047Z</time>
      </trkpt>
      <trkpt lat="44.12369" lon="5.00177">
        <ele>83</ele>
        <time>2016-06-30T09:49:53.047Z</time>
      </trkpt>
      <trkpt lat="44.12371" lon="5.00171">
        <ele>83</ele>
        <time>2016-06-30T09:49:54.047Z</time>
      </trkpt>
      <trkpt lat="44.12372" lon="5.00164">
        <ele>83</ele>
        <time>2016-06-30T09:49:55.047Z</time>
      </trkpt>
      <trkpt lat="44.12374" lon="5.00158">
        <ele>84</ele>
        <time>2016-06-30T09:49:56.047Z</time>
      </trkpt>
      <trkpt lat="44.12376" lon="5.00152">
        <ele>83</ele>
        <time>2016-06-30T09:49:57.047Z</time>
      </trkpt>
      <trkpt lat="44.12378" lon="5.00145">
        <ele>83</ele>
        <time>2016-06-30T09:49:58.047Z</time>
      </trkpt>
      <trkpt lat="44.12379" lon="5.00139">
        <ele>84</ele>
        <time>2016-06-30T09:49:59.047Z</time>
      </trkpt>
      <trkpt lat="44.12381" lon="5.00132">
        <ele>84</ele>
        <time>2016-06-30T09:50:00.047Z</time>
      </trkpt>
      <trkpt lat="44.12383" lon="5.00125">
        <ele>84</ele>
        <time>2016-06-30T09:50:01.047Z</time>
      </trkpt>
      <trkpt lat="44.12385" lon="5.00119">
        <ele>84</ele>
        <time>2016-06-30T09:50:02.047Z</time>
      </trkpt>
      <trkpt lat="44.12386" lon="5.00112">
        <ele>84</ele>
        <time>2016-06-30T09:50:03.047Z</time>
      </trkpt>
      <trkpt lat="44.12388" lon="5.00105">
        <ele>84</ele>
        <time>2016-06-30T09:50:04.047Z</time>
      </trkpt>
      <trkpt lat="44.1239" lon="5.00099">
        <ele>84</ele>
        <time>2016-06-30T09:50:05.047Z</time>
      </trkpt>
      <trkpt lat="44.12392" lon="5.00092">
        <ele>84</ele>
        <time>2016-06-30T09:50:06.047Z</time>
      </trkpt>
      <trkpt lat="44.12393" lon="5.00085">
        <ele>84</ele>
        <time>2016-06-30T09:50:07.047Z</time>
      </trkpt>
      <trkpt lat="44.12395" lon="5.00079">
        <ele>83</ele>
        <time>2016-06-30T09:50:08.047Z</time>
      </trkpt>
      <trkpt lat="44.12397" lon="5.00073">
        <ele>83</ele>
        <time>2016-06-30T09:50:09.047Z</time>
      </trkpt>
      <trkpt lat="44.12399" lon="5.00066">
        <ele>84</ele>
        <time>2016-06-30T09:50:10.047Z</time>
      </trkpt>
      <trkpt lat="44.12401" lon="5.0006">
        <ele>83</ele>
        <time>2016-06-30T09:50:11.047Z</time>
      </trkpt>
      <trkpt lat="44.12403" lon="5.00053">
        <ele>83</ele>
        <time>2016-06-30T09:50:12.047Z</time>
      </trkpt>
      <trkpt lat="44.12405" lon="5.00047">
        <ele>83</ele>
        <time>2016-06-30T09:50:13.047Z</time>
      </trkpt>
      <trkpt lat="44.12407" lon="5.00041">
        <ele>83</ele>
        <time>2016-06-30T09:50:14.047Z</time>
      </trkpt>
      <trkpt lat="44.12409" lon="5.00034">
        <ele>84</ele>
        <time>2016-06-30T09:50:15.047Z</time>
      </trkpt>
      <trkpt lat="44.12412" lon="5.00028">
        <ele>84</ele>
        <time>2016-06-30T09:50:16.047Z</time>
      </trkpt>
      <trkpt lat="44.12414" lon="5.00021">
        <ele>85</ele>
        <time>2016-06-30T09:50:17.047Z</time>
      </trkpt>
      <trkpt lat="44.12417" lon="5.00015">
        <ele>84</ele>
        <time>2016-06-30T09:50:18.047Z</time>
      </trkpt>
      <trkpt lat="44.12419" lon="5.00009">
        <ele>85</ele>
        <time>2016-06-30T09:50:19.047Z</time>
      </trkpt>
      <trkpt lat="44.12422" lon="5.00003">
        <ele>85</ele>
        <time>2016-06-30T09:50:20.047Z</time>
      </trkpt>
      <trkpt lat="44.12425" lon="4.99997">
        <ele>85</ele>
        <time>2016-06-30T09:50:21.047Z</time>
      </trkpt>
      <trkpt lat="44.12428" lon="4.99991">
        <ele>85</ele>
        <time>2016-06-30T09:50:22.047Z</time>
      </trkpt>
      <trkpt lat="44.12431" lon="4.99985">
        <ele>85</ele>
        <time>2016-06-30T09:50:23.047Z</time>
      </trkpt>
      <trkpt lat="44.12434" lon="4.99979">
        <ele>85</ele>
        <time>2016-06-30T09:50:24.047Z</time>
      </trkpt>
      <trkpt lat="44.12437" lon="4.99973">
        <ele>85</ele>
        <time>2016-06-30T09:50:25.047Z</time>
      </trkpt>
      <trkpt lat="44.1244" lon="4.99967">
        <ele>86</ele>
        <time>2016-06-30T09:50:26.047Z</time>
      </trkpt>
      <trkpt lat="44.12444" lon="4.99962">
        <ele>86</ele>
        <time>2016-06-30T09:50:27.047Z</time>
      </trkpt>
      <trkpt lat="44.12447" lon="4.99957">
        <ele>86</ele>
        <time>2016-06-30T09:50:28.047Z</time>
      </trkpt>
      <trkpt lat="44.1245" lon="4.99951">
        <ele>86</ele>
        <time>2016-06-30T09:50:29.047Z</time>
      </trkpt>
      <trkpt lat="44.12454" lon="4.99946">
        <ele>87</ele>
        <time>2016-06-30T09:50:30.047Z</time>
      </trkpt>
      <trkpt lat="44.12458" lon="4.99941">
        <ele>86</ele>
        <time>2016-06-30T09:50:31.047Z</time>
      </trkpt>
      <trkpt lat="44.12462" lon="4.99936">
        <ele>87</ele>
        <time>2016-06-30T09:50:32.047Z</time>
      </trkpt>
      <trkpt lat="44.12465" lon="4.99931">
        <ele>87</ele>
        <time>2016-06-30T09:50:33.047Z</time>
      </trkpt>
      <trkpt lat="44.12469" lon="4.99926">
        <ele>87</ele>
        <time>2016-06-30T09:50:34.047Z</time>
      </trkpt>
      <trkpt lat="44.12474" lon="4.99921">
        <ele>88</ele>
        <time>2016-06-30T09:50:35.047Z</time>
      </trkpt>
      <trkpt lat="44.12478" lon="4.99916">
        <ele>88</ele>
        <time>2016-06-30T09:50:36.047Z</time>
      </trkpt>
      <trkpt lat="44.12482" lon="4.99912">
        <ele>88</ele>
        <time>2016-06-30T09:50:37.047Z</time>
      </trkpt>
      <trkpt lat="44.12487" lon="4.99907">
        <ele>89</ele>
        <time>2016-06-30T09:50:38.047Z</time>
      </trkpt>
      <trkpt lat="44.12491" lon="4.99903">
        <ele>89</ele>
        <time>2016-06-30T09:50:39.047Z</time>
      </trkpt>
      <trkpt lat="44.12496" lon="4.99899">
        <ele>89</ele>
        <time>2016-06-30T09:50:40.047Z</time>
      </trkpt>
      <trkpt lat="44.125" lon="4.99894">
        <ele>90</ele>
        <time>2016-06-30T09:50:41.047Z</time>
      </trkpt>
      <trkpt lat="44.12505" lon="4.9989">
        <ele>91</ele>
        <time>2016-06-30T09:50:42.047Z</time>
      </trkpt>
      <trkpt lat="44.1251" lon="4.99886">
        <ele>91</ele>
        <time>2016-06-30T09:50:43.047Z</time>
      </trkpt>
      <trkpt lat="44.12515" lon="4.99882">
        <ele>91</ele>
        <time>2016-06-30T09:50:44.047Z</time>
      </trkpt>
      <trkpt lat="44.12519" lon="4.99879">
        <ele>92</ele>
        <time>2016-06-30T09:50:45.047Z</time>
      </trkpt>
      <trkpt lat="44.12524" lon="4.99875">
        <ele>93</ele>
        <time>2016-06-30T09:50:46.047Z</time>
      </trkpt>
      <trkpt lat="44.12529" lon="4.99872">
        <ele>93</ele>
        <time>2016-06-30T09:50:47.047Z</time>
      </trkpt>
      <trkpt lat="44.12534" lon="4.99869">
        <ele>93</ele>
        <time>2016-06-30T09:50:48.047Z</time>
      </trkpt>
      <trkpt lat="44.12538" lon="4.99866">
        <ele>93</ele>
        <time>2016-06-30T09:50:49.047Z</time>
      </trkpt>
      <trkpt lat="44.12543" lon="4.99863">
        <ele>94</ele>
        <time>2016-06-30T09:50:50.047Z</time>
      </trkpt>
      <trkpt lat="44.12548" lon="4.9986">
        <ele>94</ele>
        <time>2016-06-30T09:50:51.047Z</time>
      </trkpt>
      <trkpt lat="44.12553" lon="4.99857">
        <ele>95</ele>
        <time>2016-06-30T09:50:52.047Z</time>
      </trkpt>
      <trkpt lat="44.12559" lon="4.99854">
        <ele>95</ele>
        <time>2016-06-30T09:50:53.047Z</time>
      </trkpt>
      <trkpt lat="44.12564" lon="4.99852">
        <ele>96</ele>
        <time>2016-06-30T09:50:54.047Z</time>
      </trkpt>
      <trkpt lat="44.1257" lon="4.99849">
        <ele>96</ele>
        <time>2016-06-30T09:50:55.047Z</time>
      </trkpt>
      <trkpt lat="44.12575" lon="4.99847">
        <ele>96</ele>
        <time>2016-06-30T09:50:56.047Z</time>
      </trkpt>
      <trkpt lat="44.12581" lon="4.99844">
        <ele>97</ele>
        <time>2016-06-30T09:50:57.047Z</time>
      </trkpt>
      <trkpt lat="44.12586" lon="4.99842">
        <ele>97</ele>
        <time>2016-06-30T09:50:58.047Z</time>
      </trkpt>
      <trkpt lat="44.12592" lon="4.9984">
        <ele>97</ele>
        <time>2016-06-30T09:50:59.047Z</time>
      </trkpt>
      <trkpt lat="44.12597" lon="4.99838">
        <ele>97</ele>
        <time>2016-06-30T09:51:00.047Z</time>
      </trkpt>
      <trkpt lat="44.12602" lon="4.99836">
        <ele>97</ele>
        <time>2016-06-30T09:51:01.047Z</time>
      </trkpt>
      <trkpt lat="44.12608" lon="4.99834">
        <ele>97</ele>
        <time>2016-06-30T09:51:02.047Z</time>
      </trkpt>
      <trkpt lat="44.12613" lon="4.99832">
        <ele>97</ele>
        <time>2016-06-30T09:51:03.047Z</time>
      </trkpt>
      <trkpt lat="44.12619" lon="4.9983">
        <ele>97</ele>
        <time>2016-06-30T09:51:04.047Z</time>
      </trkpt>
      <trkpt lat="44.12624" lon="4.99829">
        <ele>98</ele>
        <time>2016-06-30T09:51:05.047Z</time>
      </trkpt>
      <trkpt lat="44.1263" lon="4.99827">
        <ele>98</ele>
        <time>2016-06-30T09:51:06.047Z</time>
      </trkpt>
      <trkpt lat="44.12635" lon="4.99825">
        <ele>99</ele>
        <time>2016-06-30T09:51:07.047Z</time>
      </trkpt>
      <trkpt lat="44.1264" lon="4.99823">
        <ele>99</ele>
        <time>2016-06-30T09:51:08.047Z</time>
      </trkpt>
      <trkpt lat="44.12645" lon="4.99821">
        <ele>99</ele>
        <time>2016-06-30T09:51:09.047Z</time>
      </trkpt>
      <trkpt lat="44.1265" lon="4.99819">
        <ele>99</ele>
        <time>2016-06-30T09:51:10.047Z</time>
      </trkpt>
      <trkpt lat="44.12654" lon="4.99817">
        <ele>100</ele>
        <time>2016-06-30T09:51:11.047Z</time>
      </trkpt>
      <trkpt lat="44.12659" lon="4.99815">
        <ele>100</ele>
        <time>2016-06-30T09:51:12.047Z</time>
      </trkpt>
      <trkpt lat="44.12664" lon="4.99813">
        <ele>100</ele>
        <time>2016-06-30T09:51:13.047Z</time>
      </trkpt>
      <trkpt lat="44.12668" lon="4.99812">
        <ele>101</ele>
        <time>2016-06-30T09:51:14.047Z</time>
      </trkpt>
      <trkpt lat="44.12673" lon="4.9981">
        <ele>101</ele>
        <time>2016-06-30T09:51:15.047Z</time>
      </trkpt>
      <trkpt lat="44.12678" lon="4.99808">
        <ele>101</ele>
        <time>2016-06-30T09:51:16.047Z</time>
      </trkpt>
      <trkpt lat="44.12683" lon="4.99805">
        <ele>101</ele>
        <time>2016-06-30T09:51:17.047Z</time>
      </trkpt>
      <trkpt lat="44.12687" lon="4.99803">
        <ele>101</ele>
        <time>2016-06-30T09:51:18.047Z</time>
      </trkpt>
      <trkpt lat="44.12692" lon="4.99801">
        <ele>102</ele>
        <time>2016-06-30T09:51:19.047Z</time>
      </trkpt>
      <trkpt lat="44.12697" lon="4.99798">
        <ele>102</ele>
        <time>2016-06-30T09:51:20.047Z</time>
      </trkpt>
      <trkpt lat="44.12702" lon="4.99796">
        <ele>102</ele>
        <time>2016-06-30T09:51:21.047Z</time>
      </trkpt>
      <trkpt lat="44.12707" lon="4.99793">
        <ele>103</ele>
        <time>2016-06-30T09:51:22.047Z</time>
      </trkpt>
      <trkpt lat="44.12711" lon="4.99791">
        <ele>103</ele>
        <time>2016-06-30T09:51:23.047Z</time>
      </trkpt>
      <trkpt lat="44.12716" lon="4.99788">
        <ele>103</ele>
        <time>2016-06-30T09:51:24.047Z</time>
      </trkpt>
      <trkpt lat="44.12721" lon="4.99785">
        <ele>104</ele>
        <time>2016-06-30T09:51:25.047Z</time>
      </trkpt>
      <trkpt lat="44.12726" lon="4.99783">
        <ele>104</ele>
        <time>2016-06-30T09:51:26.047Z</time>
      </trkpt>
      <trkpt lat="44.1273" lon="4.9978">
        <ele>104</ele>
        <time>2016-06-30T09:51:27.047Z</time>
      </trkpt>
      <trkpt lat="44.12735" lon="4.99777">
        <ele>105</ele>
        <time>2016-06-30T09:51:28.047Z</time>
      </trkpt>
      <trkpt lat="44.1274" lon="4.99774">
        <ele>105</ele>
        <time>2016-06-30T09:51:29.047Z</time>
      </trkpt>
      <trkpt lat="44.12744" lon="4.99771">
        <ele>105</ele>
        <time>2016-06-30T09:51:30.047Z</time>
      </trkpt>
      <trkpt lat="44.12749" lon="4.99768">
        <ele>105</ele>
        <time>2016-06-30T09:51:31.047Z</time>
      </trkpt>
      <trkpt lat="44.12754" lon="4.99765">
        <ele>105</ele>
        <time>2016-06-30T09:51:32.047Z</time>
      </trkpt>
      <trkpt lat="44.12758" lon="4.99761">
        <ele>105</ele>
        <time>2016-06-30T09:51:33.047Z</time>
      </trkpt>
      <trkpt lat="44.12763" lon="4.99758">
        <ele>106</ele>
        <time>2016-06-30T09:51:34.047Z</time>
      </trkpt>
      <trkpt lat="44.12767" lon="4.99754">
        <ele>106</ele>
        <time>2016-06-30T09:51:35.047Z</time>
      </trkpt>
      <trkpt lat="44.12772" lon="4.99751">
        <ele>106</ele>
        <time>2016-06-30T09:51:36.047Z</time>
      </trkpt>
      <trkpt lat="44.12777" lon="4.99747">
        <ele>106</ele>
        <time>2016-06-30T09:51:37.047Z</time>
      </trkpt>
      <trkpt lat="44.12781" lon="4.99744">
        <ele>107</ele>
        <time>2016-06-30T09:51:38.047Z</time>
      </trkpt>
      <trkpt lat="44.12786" lon="4.9974">
        <ele>107</ele>
        <time>2016-06-30T09:51:39.047Z</time>
      </trkpt>
      <trkpt lat="44.1279" lon="4.99737">
        <ele>107</ele>
        <time>2016-06-30T09:51:40.047Z</time>
      </trkpt>
      <trkpt lat="44.12794" lon="4.99733">
        <ele>108</ele>
        <time>2016-06-30T09:51:41.047Z</time>
      </trkpt>
      <trkpt lat="44.12798" lon="4.9973">
        <ele>108</ele>
        <time>2016-06-30T09:51:42.047Z</time>
      </trkpt>
      <trkpt lat="44.12802" lon="4.99726">
        <ele>108</ele>
        <time>2016-06-30T09:51:43.047Z</time>
      </trkpt>
      <trkpt lat="44.12806" lon="4.99722">
        <ele>108</ele>
        <time>2016-06-30T09:51:44.047Z</time>
      </trkpt>
      <trkpt lat="44.12809" lon="4.99718">
        <ele>109</ele>
        <time>2016-06-30T09:51:45.047Z</time>
      </trkpt>
      <trkpt lat="44.12813" lon="4.99714">
        <ele>109</ele>
        <time>2016-06-30T09:51:46.047Z</time>
      </trkpt>
      <trkpt lat="44.12817" lon="4.99709">
        <ele>109</ele>
        <time>2016-06-30T09:51:47.047Z</time>
      </trkpt>
      <trkpt lat="44.12822" lon="4.99704">
        <ele>109</ele>
        <time>2016-06-30T09:51:48.047Z</time>
      </trkpt>
      <trkpt lat="44.12826" lon="4.997">
        <ele>109</ele>
        <time>2016-06-30T09:51:49.047Z</time>
      </trkpt>
      <trkpt lat="44.1283" lon="4.99695">
        <ele>109</ele>
        <time>2016-06-30T09:51:50.047Z</time>
      </trkpt>
      <trkpt lat="44.12834" lon="4.99689">
        <ele>109</ele>
        <time>2016-06-30T09:51:51.047Z</time>
      </trkpt>
      <trkpt lat="44.12839" lon="4.99684">
        <ele>109</ele>
        <time>2016-06-30T09:51:52.047Z</time>
      </trkpt>
      <trkpt lat="44.12843" lon="4.99679">
        <ele>109</ele>
        <time>2016-06-30T09:51:53.047Z</time>
      </trkpt>
      <trkpt lat="44.12847" lon="4.99673">
        <ele>109</ele>
        <time>2016-06-30T09:51:54.047Z</time>
      </trkpt>
      <trkpt lat="44.12852" lon="4.99668">
        <ele>109</ele>
        <time>2016-06-30T09:51:55.047Z</time>
      </trkpt>
      <trkpt lat="44.12856" lon="4.99662">
        <ele>109</ele>
        <time>2016-06-30T09:51:56.047Z</time>
      </trkpt>
      <trkpt lat="44.12861" lon="4.99657">
        <ele>109</ele>
        <time>2016-06-30T09:51:57.047Z</time>
      </trkpt>
      <trkpt lat="44.12865" lon="4.99651">
        <ele>110</ele>
        <time>2016-06-30T09:51:58.047Z</time>
      </trkpt>
      <trkpt lat="44.12869" lon="4.99646">
        <ele>110</ele>
        <time>2016-06-30T09:51:59.047Z</time>
      </trkpt>
      <trkpt lat="44.12873" lon="4.9964">
        <ele>110</ele>
        <time>2016-06-30T09:52:00.047Z</time>
      </trkpt>
      <trkpt lat="44.12878" lon="4.99635">
        <ele>110</ele>
        <time>2016-06-30T09:52:01.047Z</time>
      </trkpt>
      <trkpt lat="44.12882" lon="4.99629">
        <ele>110</ele>
        <time>2016-06-30T09:52:02.047Z</time>
      </trkpt>
      <trkpt lat="44.12886" lon="4.99624">
        <ele>110</ele>
        <time>2016-06-30T09:52:03.047Z</time>
      </trkpt>
      <trkpt lat="44.1289" lon="4.99618">
        <ele>111</ele>
        <time>2016-06-30T09:52:04.047Z</time>
      </trkpt>
      <trkpt lat="44.12894" lon="4.99613">
        <ele>111</ele>
        <time>2016-06-30T09:52:05.047Z</time>
      </trkpt>
      <trkpt lat="44.12898" lon="4.99608">
        <ele>111</ele>
        <time>2016-06-30T09:52:06.047Z</time>
      </trkpt>
      <trkpt lat="44.12902" lon="4.99602">
        <ele>110</ele>
        <time>2016-06-30T09:52:07.047Z</time>
      </trkpt>
      <trkpt lat="44.12906" lon="4.99597">
        <ele>110</ele>
        <time>2016-06-30T09:52:08.047Z</time>
      </trkpt>
      <trkpt lat="44.1291" lon="4.99592">
        <ele>110</ele>
        <time>2016-06-30T09:52:09.047Z</time>
      </trkpt>
      <trkpt lat="44.12914" lon="4.99587">
        <ele>109</ele>
        <time>2016-06-30T09:52:10.047Z</time>
      </trkpt>
      <trkpt lat="44.12918" lon="4.99581">
        <ele>109</ele>
        <time>2016-06-30T09:52:11.047Z</time>
      </trkpt>
      <trkpt lat="44.12922" lon="4.99576">
        <ele>109</ele>
        <time>2016-06-30T09:52:12.047Z</time>
      </trkpt>
      <trkpt lat="44.12926" lon="4.99571">
        <ele>108</ele>
        <time>2016-06-30T09:52:13.047Z</time>
      </trkpt>
      <trkpt lat="44.1293" lon="4.99566">
        <ele>108</ele>
        <time>2016-06-30T09:52:14.047Z</time>
      </trkpt>
      <trkpt lat="44.12934" lon="4.99561">
        <ele>108</ele>
        <time>2016-06-30T09:52:15.047Z</time>
      </trkpt>
      <trkpt lat="44.12937" lon="4.99556">
        <ele>108</ele>
        <time>2016-06-30T09:52:16.047Z</time>
      </trkpt>
      <trkpt lat="44.12941" lon="4.99551">
        <ele>109</ele>
        <time>2016-06-30T09:52:17.047Z</time>
      </trkpt>
      <trkpt lat="44.12945" lon="4.99545">
        <ele>109</ele>
        <time>2016-06-30T09:52:18.047Z</time>
      </trkpt>
      <trkpt lat="44.12948" lon="4.9954">
        <ele>109</ele>
        <time>2016-06-30T09:52:19.047Z</time>
      </trkpt>
      <trkpt lat="44.12952" lon="4.99535">
        <ele>108</ele>
        <time>2016-06-30T09:52:20.047Z</time>
      </trkpt>
      <trkpt lat="44.12956" lon="4.9953">
        <ele>109</ele>
        <time>2016-06-30T09:52:21.047Z</time>
      </trkpt>
      <trkpt lat="44.12959" lon="4.99525">
        <ele>109</ele>
        <time>2016-06-30T09:52:22.047Z</time>
      </trkpt>
      <trkpt lat="44.12963" lon="4.9952">
        <ele>109</ele>
        <time>2016-06-30T09:52:23.047Z</time>
      </trkpt>
      <trkpt lat="44.12966" lon="4.99515">
        <ele>109</ele>
        <time>2016-06-30T09:52:24.047Z</time>
      </trkpt>
      <trkpt lat="44.1297" lon="4.99509">
        <ele>109</ele>
        <time>2016-06-30T09:52:25.047Z</time>
      </trkpt>
      <trkpt lat="44.12974" lon="4.99504">
        <ele>109</ele>
        <time>2016-06-30T09:52:26.047Z</time>
      </trkpt>
      <trkpt lat="44.12977" lon="4.99499">
        <ele>109</ele>
        <time>2016-06-30T09:52:27.047Z</time>
      </trkpt>
      <trkpt lat="44.12981" lon="4.99493">
        <ele>109</ele>
        <time>2016-06-30T09:52:28.047Z</time>
      </trkpt>
      <trkpt lat="44.12984" lon="4.99488">
        <ele>109</ele>
        <time>2016-06-30T09:52:29.047Z</time>
      </trkpt>
      <trkpt lat="44.12988" lon="4.99482">
        <ele>109</ele>
        <time>2016-06-30T09:52:30.047Z</time>
      </trkpt>
      <trkpt lat="44.12992" lon="4.99476">
        <ele>109</ele>
        <time>2016-06-30T09:52:31.047Z</time>
      </trkpt>
      <trkpt lat="44.12995" lon="4.9947">
        <ele>108</ele>
        <time>2016-06-30T09:52:32.047Z</time>
      </trkpt>
      <trkpt lat="44.12999" lon="4.99465">
        <ele>108</ele>
        <time>2016-06-30T09:52:33.047Z</time>
      </trkpt>
      <trkpt lat="44.13002" lon="4.99459">
        <ele>108</ele>
        <time>2016-06-30T09:52:34.047Z</time>
      </trkpt>
      <trkpt lat="44.13006" lon="4.99453">
        <ele>108</ele>
        <time>2016-06-30T09:52:35.047Z</time>
      </trkpt>
      <trkpt lat="44.13009" lon="4.99446">
        <ele>108</ele>
        <time>2016-06-30T09:52:36.047Z</time>
      </trkpt>
      <trkpt lat="44.13013" lon="4.9944">
        <ele>108</ele>
        <time>2016-06-30T09:52:37.047Z</time>
      </trkpt>
      <trkpt lat="44.13016" lon="4.99434">
        <ele>108</ele>
        <time>2016-06-30T09:52:38.047Z</time>
      </trkpt>
      <trkpt lat="44.1302" lon="4.99428">
        <ele>108</ele>
        <time>2016-06-30T09:52:39.047Z</time>
      </trkpt>
      <trkpt lat="44.13023" lon="4.99422">
        <ele>108</ele>
        <time>2016-06-30T09:52:40.047Z</time>
      </trkpt>
      <trkpt lat="44.13027" lon="4.99416">
        <ele>108</ele>
        <time>2016-06-30T09:52:41.047Z</time>
      </trkpt>
      <trkpt lat="44.1303" lon="4.99409">
        <ele>108</ele>
        <time>2016-06-30T09:52:42.047Z</time>
      </trkpt>
      <trkpt lat="44.13034" lon="4.99403">
        <ele>108</ele>
        <time>2016-06-30T09:52:43.047Z</time>
      </trkpt>
      <trkpt lat="44.13037" lon="4.99396">
        <ele>108</ele>
        <time>2016-06-30T09:52:44.047Z</time>
      </trkpt>
      <trkpt lat="44.13041" lon="4.9939">
        <ele>108</ele>
        <time>2016-06-30T09:52:45.047Z</time>
      </trkpt>
      <trkpt lat="44.13044" lon="4.99383">
        <ele>108</ele>
        <time>2016-06-30T09:52:46.047Z</time>
      </trkpt>
      <trkpt lat="44.13048" lon="4.99376">
        <ele>108</ele>
        <time>2016-06-30T09:52:47.047Z</time>
      </trkpt>
      <trkpt lat="44.13051" lon="4.99369">
        <ele>108</ele>
        <time>2016-06-30T09:52:48.047Z</time>
      </trkpt>
      <trkpt lat="44.13055" lon="4.99362">
        <ele>108</ele>
        <time>2016-06-30T09:52:49.047Z</time>
      </trkpt>
      <trkpt lat="44.13058" lon="4.99355">
        <ele>108</ele>
        <time>2016-06-30T09:52:50.047Z</time>
      </trkpt>
      <trkpt lat="44.13062" lon="4.99348">
        <ele>108</ele>
        <time>2016-06-30T09:52:51.047Z</time>
      </trkpt>
      <trkpt lat="44.13065" lon="4.99341">
        <ele>107</ele>
        <time>2016-06-30T09:52:52.047Z</time>
      </trkpt>
      <trkpt lat="44.13069" lon="4.99334">
        <ele>107</ele>
        <time>2016-06-30T09:52:53.047Z</time>
      </trkpt>
      <trkpt lat="44.13072" lon="4.99327">
        <ele>107</ele>
        <time>2016-06-30T09:52:54.047Z</time>
      </trkpt>
      <trkpt lat="44.13075" lon="4.9932">
        <ele>107</ele>
        <time>2016-06-30T09:52:55.047Z</time>
      </trkpt>
      <trkpt lat="44.13079" lon="4.99313">
        <ele>107</ele>
        <time>2016-06-30T09:52:56.047Z</time>
      </trkpt>
      <trkpt lat="44.13082" lon="4.99305">
        <ele>107</ele>
        <time>2016-06-30T09:52:57.047Z</time>
      </trkpt>
      <trkpt lat="44.13086" lon="4.99298">
        <ele>107</ele>
        <time>2016-06-30T09:52:58.047Z</time>
      </trkpt>
      <trkpt lat="44.13089" lon="4.99291">
        <ele>106</ele>
        <time>2016-06-30T09:52:59.047Z</time>
      </trkpt>
      <trkpt lat="44.13092" lon="4.99284">
        <ele>106</ele>
        <time>2016-06-30T09:53:00.047Z</time>
      </trkpt>
      <trkpt lat="44.13095" lon="4.99278">
        <ele>106</ele>
        <time>2016-06-30T09:53:01.047Z</time>
      </trkpt>
      <trkpt lat="44.13098" lon="4.99271">
        <ele>106</ele>
        <time>2016-06-30T09:53:02.047Z</time>
      </trkpt>
      <trkpt lat="44.13101" lon="4.99264">
        <ele>105</ele>
        <time>2016-06-30T09:53:03.047Z</time>
      </trkpt>
      <trkpt lat="44.13104" lon="4.99258">
        <ele>105</ele>
        <time>2016-06-30T09:53:04.047Z</time>
      </trkpt>
      <trkpt lat="44.13107" lon="4.99251">
        <ele>105</ele>
        <time>2016-06-30T09:53:05.047Z</time>
      </trkpt>
      <trkpt lat="44.1311" lon="4.99244">
        <ele>104</ele>
        <time>2016-06-30T09:53:06.047Z</time>
      </trkpt>
      <trkpt lat="44.13113" lon="4.99238">
        <ele>104</ele>
        <time>2016-06-30T09:53:07.047Z</time>
      </trkpt>
      <trkpt lat="44.13116" lon="4.99232">
        <ele>104</ele>
        <time>2016-06-30T09:53:08.047Z</time>
      </trkpt>
      <trkpt lat="44.13119" lon="4.99225">
        <ele>104</ele>
        <time>2016-06-30T09:53:09.047Z</time>
      </trkpt>
      <trkpt lat="44.13123" lon="4.99219">
        <ele>103</ele>
        <time>2016-06-30T09:53:10.047Z</time>
      </trkpt>
      <trkpt lat="44.13126" lon="4.99213">
        <ele>103</ele>
        <time>2016-06-30T09:53:11.047Z</time>
      </trkpt>
      <trkpt lat="44.13129" lon="4.99206">
        <ele>103</ele>
        <time>2016-06-30T09:53:12.047Z</time>
      </trkpt>
      <trkpt lat="44.13132" lon="4.992">
        <ele>104</ele>
        <time>2016-06-30T09:53:13.047Z</time>
      </trkpt>
      <trkpt lat="44.13135" lon="4.99194">
        <ele>104</ele>
        <time>2016-06-30T09:53:14.047Z</time>
      </trkpt>
      <trkpt lat="44.13138" lon="4.99187">
        <ele>104</ele>
        <time>2016-06-30T09:53:15.047Z</time>
      </trkpt>
      <trkpt lat="44.1314" lon="4.99181">
        <ele>104</ele>
        <time>2016-06-30T09:53:16.047Z</time>
      </trkpt>
      <trkpt lat="44.13143" lon="4.99174">
        <ele>103</ele>
        <time>2016-06-30T09:53:17.047Z</time>
      </trkpt>
      <trkpt lat="44.13146" lon="4.99168">
        <ele>103</ele>
        <time>2016-06-30T09:53:18.047Z</time>
      </trkpt>
      <trkpt lat="44.13149" lon="4.99162">
        <ele>103</ele>
        <time>2016-06-30T09:53:19.047Z</time>
      </trkpt>
      <trkpt lat="44.13152" lon="4.99156">
        <ele>103</ele>
        <time>2016-06-30T09:53:20.047Z</time>
      </trkpt>
      <trkpt lat="44.13155" lon="4.99149">
        <ele>103</ele>
        <time>2016-06-30T09:53:21.047Z</time>
      </trkpt>
      <trkpt lat="44.13158" lon="4.99143">
        <ele>104</ele>
        <time>2016-06-30T09:53:22.047Z</time>
      </trkpt>
      <trkpt lat="44.13161" lon="4.99137">
        <ele>103</ele>
        <time>2016-06-30T09:53:23.047Z</time>
      </trkpt>
      <trkpt lat="44.13164" lon="4.9913">
        <ele>103</ele>
        <time>2016-06-30T09:53:24.047Z</time>
      </trkpt>
      <trkpt lat="44.13167" lon="4.99124">
        <ele>104</ele>
        <time>2016-06-30T09:53:25.047Z</time>
      </trkpt>
      <trkpt lat="44.1317" lon="4.99118">
        <ele>104</ele>
        <time>2016-06-30T09:53:26.047Z</time>
      </trkpt>
      <trkpt lat="44.13173" lon="4.99111">
        <ele>104</ele>
        <time>2016-06-30T09:53:27.047Z</time>
      </trkpt>
      <trkpt lat="44.13176" lon="4.99104">
        <ele>104</ele>
        <time>2016-06-30T09:53:28.047Z</time>
      </trkpt>
      <trkpt lat="44.13179" lon="4.99097">
        <ele>104</ele>
        <time>2016-06-30T09:53:29.047Z</time>
      </trkpt>
      <trkpt lat="44.13183" lon="4.9909">
        <ele>104</ele>
        <time>2016-06-30T09:53:30.047Z</time>
      </trkpt>
      <trkpt lat="44.13186" lon="4.99083">
        <ele>104</ele>
        <time>2016-06-30T09:53:31.047Z</time>
      </trkpt>
      <trkpt lat="44.13189" lon="4.99077">
        <ele>104</ele>
        <time>2016-06-30T09:53:32.047Z</time>
      </trkpt>
      <trkpt lat="44.13192" lon="4.9907">
        <ele>104</ele>
        <time>2016-06-30T09:53:33.047Z</time>
      </trkpt>
      <trkpt lat="44.13195" lon="4.99063">
        <ele>104</ele>
        <time>2016-06-30T09:53:34.047Z</time>
      </trkpt>
      <trkpt lat="44.13199" lon="4.99057">
        <ele>104</ele>
        <time>2016-06-30T09:53:35.047Z</time>
      </trkpt>
      <trkpt lat="44.13202" lon="4.99051">
        <ele>105</ele>
        <time>2016-06-30T09:53:36.047Z</time>
      </trkpt>
      <trkpt lat="44.13204" lon="4.99045">
        <ele>105</ele>
        <time>2016-06-30T09:53:37.047Z</time>
      </trkpt>
      <trkpt lat="44.13207" lon="4.99039">
        <ele>105</ele>
        <time>2016-06-30T09:53:38.047Z</time>
      </trkpt>
      <trkpt lat="44.1321" lon="4.99033">
        <ele>105</ele>
        <time>2016-06-30T09:53:39.047Z</time>
      </trkpt>
      <trkpt lat="44.13213" lon="4.99027">
        <ele>105</ele>
        <time>2016-06-30T09:53:40.047Z</time>
      </trkpt>
      <trkpt lat="44.13216" lon="4.99021">
        <ele>105</ele>
        <time>2016-06-30T09:53:41.047Z</time>
      </trkpt>
      <trkpt lat="44.13219" lon="4.99016">
        <ele>105</ele>
        <time>2016-06-30T09:53:42.047Z</time>
      </trkpt>
      <trkpt lat="44.13222" lon="4.9901">
        <ele>105</ele>
        <time>2016-06-30T09:53:43.047Z</time>
      </trkpt>
      <trkpt lat="44.13224" lon="4.99004">
        <ele>105</ele>
        <time>2016-06-30T09:53:44.047Z</time>
      </trkpt>
      <trkpt lat="44.13227" lon="4.98998">
        <ele>105</ele>
        <time>2016-06-30T09:53:45.047Z</time>
      </trkpt>
      <trkpt lat="44.1323" lon="4.98992">
        <ele>105</ele>
        <time>2016-06-30T09:53:46.047Z</time>
      </trkpt>
      <trkpt lat="44.13233" lon="4.98986">
        <ele>105</ele>
        <time>2016-06-30T09:53:47.047Z</time>
      </trkpt>
      <trkpt lat="44.13236" lon="4.98981">
        <ele>105</ele>
        <time>2016-06-30T09:53:48.047Z</time>
      </trkpt>
      <trkpt lat="44.13239" lon="4.98975">
        <ele>105</ele>
        <time>2016-06-30T09:53:49.047Z</time>
      </trkpt>
      <trkpt lat="44.13242" lon="4.98969">
        <ele>105</ele>
        <time>2016-06-30T09:53:50.047Z</time>
      </trkpt>
      <trkpt lat="44.13245" lon="4.98963">
        <ele>105</ele>
        <time>2016-06-30T09:53:51.047Z</time>
      </trkpt>
      <trkpt lat="44.13248" lon="4.98957">
        <ele>105</ele>
        <time>2016-06-30T09:53:52.047Z</time>
      </trkpt>
      <trkpt lat="44.13251" lon="4.98952">
        <ele>105</ele>
        <time>2016-06-30T09:53:53.047Z</time>
      </trkpt>
      <trkpt lat="44.13253" lon="4.98946">
        <ele>105</ele>
        <time>2016-06-30T09:53:54.047Z</time>
      </trkpt>
      <trkpt lat="44.13256" lon="4.9894">
        <ele>105</ele>
        <time>2016-06-30T09:53:55.047Z</time>
      </trkpt>
      <trkpt lat="44.13259" lon="4.98934">
        <ele>105</ele>
        <time>2016-06-30T09:53:56.047Z</time>
      </trkpt>
      <trkpt lat="44.13262" lon="4.98929">
        <ele>105</ele>
        <time>2016-06-30T09:53:57.047Z</time>
      </trkpt>
      <trkpt lat="44.13265" lon="4.98923">
        <ele>105</ele>
        <time>2016-06-30T09:53:58.047Z</time>
      </trkpt>
      <trkpt lat="44.13267" lon="4.98918">
        <ele>105</ele>
        <time>2016-06-30T09:53:59.047Z</time>
      </trkpt>
      <trkpt lat="44.1327" lon="4.98913">
        <ele>105</ele>
        <time>2016-06-30T09:54:00.047Z</time>
      </trkpt>
      <trkpt lat="44.13273" lon="4.98907">
        <ele>105</ele>
        <time>2016-06-30T09:54:01.047Z</time>
      </trkpt>
      <trkpt lat="44.13277" lon="4.98902">
        <ele>105</ele>
        <time>2016-06-30T09:54:02.047Z</time>
      </trkpt>
      <trkpt lat="44.13281" lon="4.98898">
        <ele>105</ele>
        <time>2016-06-30T09:54:03.047Z</time>
      </trkpt>
      <trkpt lat="44.13285" lon="4.98893">
        <ele>105</ele>
        <time>2016-06-30T09:54:04.047Z</time>
      </trkpt>
      <trkpt lat="44.1329" lon="4.9889">
        <ele>105</ele>
        <time>2016-06-30T09:54:05.047Z</time>
      </trkpt>
      <trkpt lat="44.13295" lon="4.98887">
        <ele>105</ele>
        <time>2016-06-30T09:54:06.047Z</time>
      </trkpt>
      <trkpt lat="44.133" lon="4.98884">
        <ele>105</ele>
        <time>2016-06-30T09:54:07.047Z</time>
      </trkpt>
      <trkpt lat="44.13305" lon="4.98879">
        <ele>105</ele>
        <time>2016-06-30T09:54:08.047Z</time>
      </trkpt>
      <trkpt lat="44.13308" lon="4.98874">
        <ele>105</ele>
        <time>2016-06-30T09:54:09.047Z</time>
      </trkpt>
      <trkpt lat="44.1331" lon="4.98867">
        <ele>105</ele>
        <time>2016-06-30T09:54:10.047Z</time>
      </trkpt>
      <trkpt lat="44.13311" lon="4.9886">
        <ele>105</ele>
        <time>2016-06-30T09:54:11.047Z</time>
      </trkpt>
      <trkpt lat="44.13312" lon="4.98853">
        <ele>105</ele>
        <time>2016-06-30T09:54:12.047Z</time>
      </trkpt>
      <trkpt lat="44.13311" lon="4.98846">
        <ele>105</ele>
        <time>2016-06-30T09:54:13.047Z</time>
      </trkpt>
      <trkpt lat="44.13311" lon="4.98839">
        <ele>104</ele>
        <time>2016-06-30T09:54:14.047Z</time>
      </trkpt>
      <trkpt lat="44.13312" lon="4.98831">
        <ele>104</ele>
        <time>2016-06-30T09:54:15.047Z</time>
      </trkpt>
      <trkpt lat="44.13314" lon="4.98824">
        <ele>104</ele>
        <time>2016-06-30T09:54:16.047Z</time>
      </trkpt>
      <trkpt lat="44.13317" lon="4.98817">
        <ele>104</ele>
        <time>2016-06-30T09:54:17.047Z</time>
      </trkpt>
      <trkpt lat="44.1332" lon="4.9881">
        <ele>104</ele>
        <time>2016-06-30T09:54:18.047Z</time>
      </trkpt>
      <trkpt lat="44.13324" lon="4.98804">
        <ele>104</ele>
        <time>2016-06-30T09:54:19.047Z</time>
      </trkpt>
      <trkpt lat="44.13328" lon="4.98799">
        <ele>104</ele>
        <time>2016-06-30T09:54:20.047Z</time>
      </trkpt>
      <trkpt lat="44.13332" lon="4.98793">
        <ele>104</ele>
        <time>2016-06-30T09:54:21.047Z</time>
      </trkpt>
      <trkpt lat="44.13336" lon="4.98788">
        <ele>104</ele>
        <time>2016-06-30T09:54:22.047Z</time>
      </trkpt>
      <trkpt lat="44.1334" lon="4.98783">
        <ele>104</ele>
        <time>2016-06-30T09:54:23.047Z</time>
      </trkpt>
      <trkpt lat="44.13345" lon="4.98778">
        <ele>104</ele>
        <time>2016-06-30T09:54:24.047Z</time>
      </trkpt>
      <trkpt lat="44.13349" lon="4.98774">
        <ele>105</ele>
        <time>2016-06-30T09:54:25.047Z</time>
      </trkpt>
      <trkpt lat="44.13354" lon="4.9877">
        <ele>105</ele>
        <time>2016-06-30T09:54:26.047Z</time>
      </trkpt>
      <trkpt lat="44.13358" lon="4.98766">
        <ele>105</ele>
        <time>2016-06-30T09:54:27.047Z</time>
      </trkpt>
      <trkpt lat="44.13362" lon="4.98762">
        <ele>105</ele>
        <time>2016-06-30T09:54:28.047Z</time>
      </trkpt>
      <trkpt lat="44.13367" lon="4.98758">
        <ele>105</ele>
        <time>2016-06-30T09:54:29.047Z</time>
      </trkpt>
      <trkpt lat="44.13372" lon="4.98755">
        <ele>105</ele>
        <time>2016-06-30T09:54:30.047Z</time>
      </trkpt>
      <trkpt lat="44.13377" lon="4.98751">
        <ele>105</ele>
        <time>2016-06-30T09:54:31.047Z</time>
      </trkpt>
      <trkpt lat="44.13383" lon="4.98748">
        <ele>106</ele>
        <time>2016-06-30T09:54:32.047Z</time>
      </trkpt>
      <trkpt lat="44.13388" lon="4.98745">
        <ele>106</ele>
        <time>2016-06-30T09:54:33.047Z</time>
      </trkpt>
      <trkpt lat="44.13394" lon="4.98742">
        <ele>106</ele>
        <time>2016-06-30T09:54:34.047Z</time>
      </trkpt>
      <trkpt lat="44.134" lon="4.98739">
        <ele>106</ele>
        <time>2016-06-30T09:54:35.047Z</time>
      </trkpt>
      <trkpt lat="44.13405" lon="4.98736">
        <ele>107</ele>
        <time>2016-06-30T09:54:36.047Z</time>
      </trkpt>
      <trkpt lat="44.13411" lon="4.98733">
        <ele>107</ele>
        <time>2016-06-30T09:54:37.047Z</time>
      </trkpt>
      <trkpt lat="44.13416" lon="4.9873">
        <ele>107</ele>
        <time>2016-06-30T09:54:38.047Z</time>
      </trkpt>
      <trkpt lat="44.13421" lon="4.98727">
        <ele>107</ele>
        <time>2016-06-30T09:54:39.047Z</time>
      </trkpt>
      <trkpt lat="44.13426" lon="4.98724">
        <ele>107</ele>
        <time>2016-06-30T09:54:40.047Z</time>
      </trkpt>
      <trkpt lat="44.13431" lon="4.98722">
        <ele>108</ele>
        <time>2016-06-30T09:54:41.047Z</time>
      </trkpt>
      <trkpt lat="44.13436" lon="4.98719">
        <ele>108</ele>
        <time>2016-06-30T09:54:42.047Z</time>
      </trkpt>
      <trkpt lat="44.1344" lon="4.98716">
        <ele>108</ele>
        <time>2016-06-30T09:54:43.047Z</time>
      </trkpt>
      <trkpt lat="44.13445" lon="4.98714">
        <ele>108</ele>
        <time>2016-06-30T09:54:44.047Z</time>
      </trkpt>
      <trkpt lat="44.13449" lon="4.98712">
        <ele>108</ele>
        <time>2016-06-30T09:54:45.047Z</time>
      </trkpt>
      <trkpt lat="44.13453" lon="4.98709">
        <ele>108</ele>
        <time>2016-06-30T09:54:46.047Z</time>
      </trkpt>
      <trkpt lat="44.13457" lon="4.98707">
        <ele>108</ele>
        <time>2016-06-30T09:54:47.047Z</time>
      </trkpt>
      <trkpt lat="44.13461" lon="4.98705">
        <ele>109</ele>
        <time>2016-06-30T09:54:48.047Z</time>
      </trkpt>
      <trkpt lat="44.13465" lon="4.98703">
        <ele>109</ele>
        <time>2016-06-30T09:54:49.047Z</time>
      </trkpt>
      <trkpt lat="44.13469" lon="4.98701">
        <ele>109</ele>
        <time>2016-06-30T09:54:50.047Z</time>
      </trkpt>
      <trkpt lat="44.13473" lon="4.98699">
        <ele>109</ele>
        <time>2016-06-30T09:54:51.047Z</time>
      </trkpt>
      <trkpt lat="44.13477" lon="4.98697">
        <ele>109</ele>
        <time>2016-06-30T09:54:52.047Z</time>
      </trkpt>
      <trkpt lat="44.1348" lon="4.98694">
        <ele>109</ele>
        <time>2016-06-30T09:54:53.047Z</time>
      </trkpt>
      <trkpt lat="44.13484" lon="4.98692">
        <ele>110</ele>
        <time>2016-06-30T09:54:54.047Z</time>
      </trkpt>
      <trkpt lat="44.13488" lon="4.9869">
        <ele>110</ele>
        <time>2016-06-30T09:54:55.047Z</time>
      </trkpt>
      <trkpt lat="44.13492" lon="4.98688">
        <ele>110</ele>
        <time>2016-06-30T09:54:56.047Z</time>
      </trkpt>
      <trkpt lat="44.13496" lon="4.98686">
        <ele>110</ele>
        <time>2016-06-30T09:54:57.047Z</time>
      </trkpt>
      <trkpt lat="44.135" lon="4.98683">
        <ele>111</ele>
        <time>2016-06-30T09:54:58.047Z</time>
      </trkpt>
      <trkpt lat="44.13504" lon="4.98681">
        <ele>111</ele>
        <time>2016-06-30T09:54:59.047Z</time>
      </trkpt>
      <trkpt lat="44.13507" lon="4.98679">
        <ele>111</ele>
        <time>2016-06-30T09:55:00.047Z</time>
      </trkpt>
      <trkpt lat="44.13511" lon="4.98677">
        <ele>111</ele>
        <time>2016-06-30T09:55:01.047Z</time>
      </trkpt>
      <trkpt lat="44.13516" lon="4.98674">
        <ele>112</ele>
        <time>2016-06-30T09:55:02.047Z</time>
      </trkpt>
      <trkpt lat="44.1352" lon="4.98672">
        <ele>112</ele>
        <time>2016-06-30T09:55:03.047Z</time>
      </trkpt>
      <trkpt lat="44.13524" lon="4.9867">
        <ele>112</ele>
        <time>2016-06-30T09:55:04.047Z</time>
      </trkpt>
      <trkpt lat="44.13528" lon="4.98668">
        <ele>111</ele>
        <time>2016-06-30T09:55:05.047Z</time>
      </trkpt>
      <trkpt lat="44.13532" lon="4.98665">
        <ele>111</ele>
        <time>2016-06-30T09:55:06.047Z</time>
      </trkpt>
      <trkpt lat="44.13537" lon="4.98663">
        <ele>111</ele>
        <time>2016-06-30T09:55:07.047Z</time>
      </trkpt>
      <trkpt lat="44.13541" lon="4.98661">
        <ele>111</ele>
        <time>2016-06-30T09:55:08.047Z</time>
      </trkpt>
      <trkpt lat="44.13545" lon="4.98659">
        <ele>111</ele>
        <time>2016-06-30T09:55:09.047Z</time>
      </trkpt>
      <trkpt lat="44.1355" lon="4.98656">
        <ele>112</ele>
        <time>2016-06-30T09:55:10.047Z</time>
      </trkpt>
      <trkpt lat="44.13554" lon="4.98654">
        <ele>112</ele>
        <time>2016-06-30T09:55:11.047Z</time>
      </trkpt>
      <trkpt lat="44.13558" lon="4.98651">
        <ele>112</ele>
        <time>2016-06-30T09:55:12.047Z</time>
      </trkpt>
      <trkpt lat="44.13563" lon="4.98649">
        <ele>113</ele>
        <time>2016-06-30T09:55:13.047Z</time>
      </trkpt>
      <trkpt lat="44.13567" lon="4.98646">
        <ele>113</ele>
        <time>2016-06-30T09:55:14.047Z</time>
      </trkpt>
      <trkpt lat="44.13571" lon="4.98644">
        <ele>113</ele>
        <time>2016-06-30T09:55:15.047Z</time>
      </trkpt>
      <trkpt lat="44.13575" lon="4.98642">
        <ele>113</ele>
        <time>2016-06-30T09:55:16.047Z</time>
      </trkpt>
      <trkpt lat="44.13579" lon="4.9864">
        <ele>113</ele>
        <time>2016-06-30T09:55:17.047Z</time>
      </trkpt>
      <trkpt lat="44.13583" lon="4.98637">
        <ele>113</ele>
        <time>2016-06-30T09:55:18.047Z</time>
      </trkpt>
      <trkpt lat="44.13587" lon="4.98635">
        <ele>113</ele>
        <time>2016-06-30T09:55:19.047Z</time>
      </trkpt>
      <trkpt lat="44.13591" lon="4.98632">
        <ele>113</ele>
        <time>2016-06-30T09:55:20.047Z</time>
      </trkpt>
      <trkpt lat="44.13595" lon="4.9863">
        <ele>113</ele>
        <time>2016-06-30T09:55:21.047Z</time>
      </trkpt>
      <trkpt lat="44.136" lon="4.98628">
        <ele>113</ele>
        <time>2016-06-30T09:55:22.047Z</time>
      </trkpt>
      <trkpt lat="44.13604" lon="4.98625">
        <ele>114</ele>
        <time>2016-06-30T09:55:23.047Z</time>
      </trkpt>
      <trkpt lat="44.13609" lon="4.98623">
        <ele>114</ele>
        <time>2016-06-30T09:55:24.047Z</time>
      </trkpt>
      <trkpt lat="44.13613" lon="4.9862">
        <ele>114</ele>
        <time>2016-06-30T09:55:25.047Z</time>
      </trkpt>
      <trkpt lat="44.13618" lon="4.98618">
        <ele>114</ele>
        <time>2016-06-30T09:55:26.047Z</time>
      </trkpt>
      <trkpt lat="44.13622" lon="4.98615">
        <ele>114</ele>
        <time>2016-06-30T09:55:27.047Z</time>
      </trkpt>
      <trkpt lat="44.13626" lon="4.98613">
        <ele>114</ele>
        <time>2016-06-30T09:55:28.047Z</time>
      </trkpt>
      <trkpt lat="44.13631" lon="4.98611">
        <ele>115</ele>
        <time>2016-06-30T09:55:29.047Z</time>
      </trkpt>
      <trkpt lat="44.13635" lon="4.98608">
        <ele>115</ele>
        <time>2016-06-30T09:55:30.047Z</time>
      </trkpt>
      <trkpt lat="44.13639" lon="4.98606">
        <ele>115</ele>
        <time>2016-06-30T09:55:31.047Z</time>
      </trkpt>
      <trkpt lat="44.13644" lon="4.98604">
        <ele>115</ele>
        <time>2016-06-30T09:55:32.047Z</time>
      </trkpt>
      <trkpt lat="44.13648" lon="4.98601">
        <ele>115</ele>
        <time>2016-06-30T09:55:33.047Z</time>
      </trkpt>
      <trkpt lat="44.13652" lon="4.98599">
        <ele>116</ele>
        <time>2016-06-30T09:55:34.047Z</time>
      </trkpt>
      <trkpt lat="44.13656" lon="4.98597">
        <ele>116</ele>
        <time>2016-06-30T09:55:35.047Z</time>
      </trkpt>
      <trkpt lat="44.13661" lon="4.98594">
        <ele>116</ele>
        <time>2016-06-30T09:55:36.047Z</time>
      </trkpt>
      <trkpt lat="44.13665" lon="4.98592">
        <ele>116</ele>
        <time>2016-06-30T09:55:37.047Z</time>
      </trkpt>
      <trkpt lat="44.13669" lon="4.98589">
        <ele>116</ele>
        <time>2016-06-30T09:55:38.047Z</time>
      </trkpt>
      <trkpt lat="44.13674" lon="4.98587">
        <ele>116</ele>
        <time>2016-06-30T09:55:39.047Z</time>
      </trkpt>
      <trkpt lat="44.13678" lon="4.98584">
        <ele>117</ele>
        <time>2016-06-30T09:55:40.047Z</time>
      </trkpt>
      <trkpt lat="44.13683" lon="4.98581">
        <ele>117</ele>
        <time>2016-06-30T09:55:41.047Z</time>
      </trkpt>
      <trkpt lat="44.13687" lon="4.98579">
        <ele>117</ele>
        <time>2016-06-30T09:55:42.047Z</time>
      </trkpt>
      <trkpt lat="44.13691" lon="4.98576">
        <ele>118</ele>
        <time>2016-06-30T09:55:43.047Z</time>
      </trkpt>
      <trkpt lat="44.13696" lon="4.98574">
        <ele>118</ele>
        <time>2016-06-30T09:55:44.047Z</time>
      </trkpt>
      <trkpt lat="44.137" lon="4.98571">
        <ele>118</ele>
        <time>2016-06-30T09:55:45.047Z</time>
      </trkpt>
      <trkpt lat="44.13704" lon="4.98569">
        <ele>118</ele>
        <time>2016-06-30T09:55:46.047Z</time>
      </trkpt>
      <trkpt lat="44.13708" lon="4.98567">
        <ele>118</ele>
        <time>2016-06-30T09:55:47.047Z</time>
      </trkpt>
      <trkpt lat="44.13712" lon="4.98565">
        <ele>118</ele>
        <time>2016-06-30T09:55:48.047Z</time>
      </trkpt>
      <trkpt lat="44.13715" lon="4.98563">
        <ele>119</ele>
        <time>2016-06-30T09:55:49.047Z</time>
      </trkpt>
      <trkpt lat="44.13719" lon="4.98561">
        <ele>120</ele>
        <time>2016-06-30T09:55:50.047Z</time>
      </trkpt>
      <trkpt lat="44.13723" lon="4.98558">
        <ele>121</ele>
        <time>2016-06-30T09:55:51.047Z</time>
      </trkpt>
      <trkpt lat="44.13726" lon="4.98556">
        <ele>121</ele>
        <time>2016-06-30T09:55:52.047Z</time>
      </trkpt>
      <trkpt lat="44.1373" lon="4.98554">
        <ele>121</ele>
        <time>2016-06-30T09:55:53.047Z</time>
      </trkpt>
      <trkpt lat="44.13734" lon="4.98551">
        <ele>121</ele>
        <time>2016-06-30T09:55:54.047Z</time>
      </trkpt>
      <trkpt lat="44.13738" lon="4.98549">
        <ele>121</ele>
        <time>2016-06-30T09:55:55.047Z</time>
      </trkpt>
      <trkpt lat="44.13742" lon="4.98547">
        <ele>121</ele>
        <time>2016-06-30T09:55:56.047Z</time>
      </trkpt>
      <trkpt lat="44.13746" lon="4.98545">
        <ele>121</ele>
        <time>2016-06-30T09:55:57.047Z</time>
      </trkpt>
      <trkpt lat="44.1375" lon="4.98542">
        <ele>121</ele>
        <time>2016-06-30T09:55:58.047Z</time>
      </trkpt>
      <trkpt lat="44.13754" lon="4.9854">
        <ele>121</ele>
        <time>2016-06-30T09:55:59.047Z</time>
      </trkpt>
      <trkpt lat="44.13758" lon="4.98538">
        <ele>121</ele>
        <time>2016-06-30T09:56:00.047Z</time>
      </trkpt>
      <trkpt lat="44.13763" lon="4.98536">
        <ele>121</ele>
        <time>2016-06-30T09:56:01.047Z</time>
      </trkpt>
      <trkpt lat="44.13767" lon="4.98533">
        <ele>122</ele>
        <time>2016-06-30T09:56:02.047Z</time>
      </trkpt>
      <trkpt lat="44.13772" lon="4.98531">
        <ele>122</ele>
        <time>2016-06-30T09:56:03.047Z</time>
      </trkpt>
      <trkpt lat="44.13776" lon="4.98528">
        <ele>122</ele>
        <time>2016-06-30T09:56:04.047Z</time>
      </trkpt>
      <trkpt lat="44.13781" lon="4.98526">
        <ele>122</ele>
        <time>2016-06-30T09:56:05.047Z</time>
      </trkpt>
      <trkpt lat="44.13785" lon="4.98523">
        <ele>122</ele>
        <time>2016-06-30T09:56:06.047Z</time>
      </trkpt>
      <trkpt lat="44.1379" lon="4.98521">
        <ele>123</ele>
        <time>2016-06-30T09:56:07.047Z</time>
      </trkpt>
      <trkpt lat="44.13794" lon="4.98518">
        <ele>123</ele>
        <time>2016-06-30T09:56:08.047Z</time>
      </trkpt>
      <trkpt lat="44.13799" lon="4.98516">
        <ele>123</ele>
        <time>2016-06-30T09:56:09.047Z</time>
      </trkpt>
      <trkpt lat="44.13803" lon="4.98514">
        <ele>124</ele>
        <time>2016-06-30T09:56:10.047Z</time>
      </trkpt>
      <trkpt lat="44.13807" lon="4.98511">
        <ele>124</ele>
        <time>2016-06-30T09:56:11.047Z</time>
      </trkpt>
      <trkpt lat="44.13811" lon="4.98509">
        <ele>125</ele>
        <time>2016-06-30T09:56:12.047Z</time>
      </trkpt>
      <trkpt lat="44.13815" lon="4.98507">
        <ele>125</ele>
        <time>2016-06-30T09:56:13.047Z</time>
      </trkpt>
      <trkpt lat="44.1382" lon="4.98505">
        <ele>126</ele>
        <time>2016-06-30T09:56:14.047Z</time>
      </trkpt>
      <trkpt lat="44.13824" lon="4.98505">
        <ele>126</ele>
        <time>2016-06-30T09:56:15.047Z</time>
      </trkpt>
      <trkpt lat="44.13829" lon="4.98505">
        <ele>126</ele>
        <time>2016-06-30T09:56:16.047Z</time>
      </trkpt>
      <trkpt lat="44.13834" lon="4.98505">
        <ele>125</ele>
        <time>2016-06-30T09:56:17.047Z</time>
      </trkpt>
      <trkpt lat="44.13839" lon="4.98506">
        <ele>126</ele>
        <time>2016-06-30T09:56:18.047Z</time>
      </trkpt>
      <trkpt lat="44.13844" lon="4.98507">
        <ele>127</ele>
        <time>2016-06-30T09:56:19.047Z</time>
      </trkpt>
      <trkpt lat="44.13849" lon="4.98508">
        <ele>127</ele>
        <time>2016-06-30T09:56:20.047Z</time>
      </trkpt>
      <trkpt lat="44.13853" lon="4.98509">
        <ele>127</ele>
        <time>2016-06-30T09:56:21.047Z</time>
      </trkpt>
      <trkpt lat="44.13858" lon="4.9851">
        <ele>128</ele>
        <time>2016-06-30T09:56:22.047Z</time>
      </trkpt>
      <trkpt lat="44.13863" lon="4.98511">
        <ele>128</ele>
        <time>2016-06-30T09:56:23.047Z</time>
      </trkpt>
      <trkpt lat="44.13869" lon="4.98513">
        <ele>129</ele>
        <time>2016-06-30T09:56:24.047Z</time>
      </trkpt>
      <trkpt lat="44.13874" lon="4.98515">
        <ele>129</ele>
        <time>2016-06-30T09:56:25.047Z</time>
      </trkpt>
      <trkpt lat="44.13879" lon="4.98516">
        <ele>129</ele>
        <time>2016-06-30T09:56:26.047Z</time>
      </trkpt>
      <trkpt lat="44.13884" lon="4.98517">
        <ele>129</ele>
        <time>2016-06-30T09:56:27.047Z</time>
      </trkpt>
      <trkpt lat="44.13889" lon="4.98518">
        <ele>129</ele>
        <time>2016-06-30T09:56:28.047Z</time>
      </trkpt>
      <trkpt lat="44.13894" lon="4.98519">
        <ele>129</ele>
        <time>2016-06-30T09:56:29.047Z</time>
      </trkpt>
      <trkpt lat="44.13899" lon="4.9852">
        <ele>129</ele>
        <time>2016-06-30T09:56:30.047Z</time>
      </trkpt>
      <trkpt lat="44.13904" lon="4.98522">
        <ele>130</ele>
        <time>2016-06-30T09:56:31.047Z</time>
      </trkpt>
      <trkpt lat="44.13909" lon="4.98523">
        <ele>130</ele>
        <time>2016-06-30T09:56:32.047Z</time>
      </trkpt>
      <trkpt lat="44.13914" lon="4.98525">
        <ele>130</ele>
        <time>2016-06-30T09:56:33.047Z</time>
      </trkpt>
      <trkpt lat="44.13919" lon="4.98526">
        <ele>129</ele>
        <time>2016-06-30T09:56:34.047Z</time>
      </trkpt>
      <trkpt lat="44.13923" lon="4.98528">
        <ele>129</ele>
        <time>2016-06-30T09:56:35.047Z</time>
      </trkpt>
      <trkpt lat="44.13928" lon="4.98531">
        <ele>129</ele>
        <time>2016-06-30T09:56:36.047Z</time>
      </trkpt>
      <trkpt lat="44.13933" lon="4.98532">
        <ele>128</ele>
        <time>2016-06-30T09:56:37.047Z</time>
      </trkpt>
      <trkpt lat="44.13938" lon="4.98534">
        <ele>128</ele>
        <time>2016-06-30T09:56:38.047Z</time>
      </trkpt>
      <trkpt lat="44.13943" lon="4.98537">
        <ele>127</ele>
        <time>2016-06-30T09:56:39.047Z</time>
      </trkpt>
      <trkpt lat="44.13948" lon="4.98539">
        <ele>126</ele>
        <time>2016-06-30T09:56:40.047Z</time>
      </trkpt>
      <trkpt lat="44.13953" lon="4.98541">
        <ele>126</ele>
        <time>2016-06-30T09:56:41.047Z</time>
      </trkpt>
      <trkpt lat="44.13958" lon="4.98543">
        <ele>126</ele>
        <time>2016-06-30T09:56:42.047Z</time>
      </trkpt>
      <trkpt lat="44.13963" lon="4.98546">
        <ele>126</ele>
        <time>2016-06-30T09:56:43.047Z</time>
      </trkpt>
      <trkpt lat="44.13968" lon="4.98548">
        <ele>126</ele>
        <time>2016-06-30T09:56:44.047Z</time>
      </trkpt>
      <trkpt lat="44.13973" lon="4.9855">
        <ele>126</ele>
        <time>2016-06-30T09:56:45.047Z</time>
      </trkpt>
      <trkpt lat="44.13978" lon="4.98552">
        <ele>125</ele>
        <time>2016-06-30T09:56:46.047Z</time>
      </trkpt>
      <trkpt lat="44.13982" lon="4.98554">
        <ele>125</ele>
        <time>2016-06-30T09:56:47.047Z</time>
      </trkpt>
      <trkpt lat="44.13987" lon="4.98556">
        <ele>124</ele>
        <time>2016-06-30T09:56:48.047Z</time>
      </trkpt>
      <trkpt lat="44.13991" lon="4.98559">
        <ele>124</ele>
        <time>2016-06-30T09:56:49.047Z</time>
      </trkpt>
      <trkpt lat="44.13995" lon="4.98562">
        <ele>124</ele>
        <time>2016-06-30T09:56:50.047Z</time>
      </trkpt>
      <trkpt lat="44.13999" lon="4.98565">
        <ele>124</ele>
        <time>2016-06-30T09:56:51.047Z</time>
      </trkpt>
      <trkpt lat="44.14002" lon="4.98568">
        <ele>124</ele>
        <time>2016-06-30T09:56:52.047Z</time>
      </trkpt>
      <trkpt lat="44.14007" lon="4.98571">
        <ele>124</ele>
        <time>2016-06-30T09:56:53.047Z</time>
      </trkpt>
      <trkpt lat="44.14011" lon="4.98574">
        <ele>123</ele>
        <time>2016-06-30T09:56:54.047Z</time>
      </trkpt>
      <trkpt lat="44.14016" lon="4.98577">
        <ele>123</ele>
        <time>2016-06-30T09:56:55.047Z</time>
      </trkpt>
      <trkpt lat="44.1402" lon="4.9858">
        <ele>123</ele>
        <time>2016-06-30T09:56:56.047Z</time>
      </trkpt>
      <trkpt lat="44.14024" lon="4.98583">
        <ele>123</ele>
        <time>2016-06-30T09:56:57.047Z</time>
      </trkpt>
      <trkpt lat="44.14028" lon="4.98586">
        <ele>123</ele>
        <time>2016-06-30T09:56:58.047Z</time>
      </trkpt>
      <trkpt lat="44.14032" lon="4.9859">
        <ele>123</ele>
        <time>2016-06-30T09:56:59.047Z</time>
      </trkpt>
      <trkpt lat="44.14036" lon="4.98593">
        <ele>123</ele>
        <time>2016-06-30T09:57:00.047Z</time>
      </trkpt>
      <trkpt lat="44.1404" lon="4.98596">
        <ele>124</ele>
        <time>2016-06-30T09:57:01.047Z</time>
      </trkpt>
      <trkpt lat="44.14044" lon="4.986">
        <ele>124</ele>
        <time>2016-06-30T09:57:02.047Z</time>
      </trkpt>
      <trkpt lat="44.14048" lon="4.98603">
        <ele>124</ele>
        <time>2016-06-30T09:57:03.047Z</time>
      </trkpt>
      <trkpt lat="44.14052" lon="4.98607">
        <ele>123</ele>
        <time>2016-06-30T09:57:04.047Z</time>
      </trkpt>
      <trkpt lat="44.14056" lon="4.98611">
        <ele>123</ele>
        <time>2016-06-30T09:57:05.047Z</time>
      </trkpt>
      <trkpt lat="44.1406" lon="4.98615">
        <ele>123</ele>
        <time>2016-06-30T09:57:06.047Z</time>
      </trkpt>
      <trkpt lat="44.14064" lon="4.98619">
        <ele>123</ele>
        <time>2016-06-30T09:57:07.047Z</time>
      </trkpt>
      <trkpt lat="44.14068" lon="4.98623">
        <ele>123</ele>
        <time>2016-06-30T09:57:08.047Z</time>
      </trkpt>
      <trkpt lat="44.14071" lon="4.98627">
        <ele>123</ele>
        <time>2016-06-30T09:57:09.047Z</time>
      </trkpt>
      <trkpt lat="44.14075" lon="4.98631">
        <ele>123</ele>
        <time>2016-06-30T09:57:10.047Z</time>
      </trkpt>
      <trkpt lat="44.14079" lon="4.98634">
        <ele>123</ele>
        <time>2016-06-30T09:57:11.047Z</time>
      </trkpt>
      <trkpt lat="44.14083" lon="4.98638">
        <ele>123</ele>
        <time>2016-06-30T09:57:12.047Z</time>
      </trkpt>
      <trkpt lat="44.14087" lon="4.98641">
        <ele>123</ele>
        <time>2016-06-30T09:57:13.047Z</time>
      </trkpt>
      <trkpt lat="44.14091" lon="4.98644">
        <ele>123</ele>
        <time>2016-06-30T09:57:14.047Z</time>
      </trkpt>
      <trkpt lat="44.14095" lon="4.98647">
        <ele>123</ele>
        <time>2016-06-30T09:57:15.047Z</time>
      </trkpt>
      <trkpt lat="44.14099" lon="4.9865">
        <ele>123</ele>
        <time>2016-06-30T09:57:16.047Z</time>
      </trkpt>
      <trkpt lat="44.14102" lon="4.98652">
        <ele>123</ele>
        <time>2016-06-30T09:57:17.047Z</time>
      </trkpt>
      <trkpt lat="44.14106" lon="4.98654">
        <ele>123</ele>
        <time>2016-06-30T09:57:18.047Z</time>
      </trkpt>
      <trkpt lat="44.1411" lon="4.98657">
        <ele>123</ele>
        <time>2016-06-30T09:57:19.047Z</time>
      </trkpt>
      <trkpt lat="44.14114" lon="4.9866">
        <ele>123</ele>
        <time>2016-06-30T09:57:20.047Z</time>
      </trkpt>
      <trkpt lat="44.14119" lon="4.98662">
        <ele>123</ele>
        <time>2016-06-30T09:57:21.047Z</time>
      </trkpt>
      <trkpt lat="44.14123" lon="4.98665">
        <ele>123</ele>
        <time>2016-06-30T09:57:22.047Z</time>
      </trkpt>
      <trkpt lat="44.14128" lon="4.98669">
        <ele>123</ele>
        <time>2016-06-30T09:57:23.047Z</time>
      </trkpt>
      <trkpt lat="44.14132" lon="4.98673">
        <ele>123</ele>
        <time>2016-06-30T09:57:24.047Z</time>
      </trkpt>
      <trkpt lat="44.14136" lon="4.98676">
        <ele>122</ele>
        <time>2016-06-30T09:57:25.047Z</time>
      </trkpt>
      <trkpt lat="44.14141" lon="4.98679">
        <ele>122</ele>
        <time>2016-06-30T09:57:26.047Z</time>
      </trkpt>
      <trkpt lat="44.14145" lon="4.98682">
        <ele>122</ele>
        <time>2016-06-30T09:57:27.047Z</time>
      </trkpt>
      <trkpt lat="44.1415" lon="4.98684">
        <ele>122</ele>
        <time>2016-06-30T09:57:28.047Z</time>
      </trkpt>
      <trkpt lat="44.14155" lon="4.98685">
        <ele>122</ele>
        <time>2016-06-30T09:57:29.047Z</time>
      </trkpt>
      <trkpt lat="44.14159" lon="4.98686">
        <ele>122</ele>
        <time>2016-06-30T09:57:30.047Z</time>
      </trkpt>
      <trkpt lat="44.14164" lon="4.98687">
        <ele>122</ele>
        <time>2016-06-30T09:57:31.047Z</time>
      </trkpt>
      <trkpt lat="44.14168" lon="4.98688">
        <ele>123</ele>
        <time>2016-06-30T09:57:32.047Z</time>
      </trkpt>
      <trkpt lat="44.14172" lon="4.98687">
        <ele>123</ele>
        <time>2016-06-30T09:57:33.047Z</time>
      </trkpt>
      <trkpt lat="44.14176" lon="4.98687">
        <ele>123</ele>
        <time>2016-06-30T09:57:34.047Z</time>
      </trkpt>
      <trkpt lat="44.1418" lon="4.98686">
        <ele>123</ele>
        <time>2016-06-30T09:57:35.047Z</time>
      </trkpt>
      <trkpt lat="44.14183" lon="4.98685">
        <ele>123</ele>
        <time>2016-06-30T09:57:36.047Z</time>
      </trkpt>
      <trkpt lat="44.14187" lon="4.98684">
        <ele>124</ele>
        <time>2016-06-30T09:57:37.047Z</time>
      </trkpt>
      <trkpt lat="44.14191" lon="4.98683">
        <ele>124</ele>
        <time>2016-06-30T09:57:38.047Z</time>
      </trkpt>
      <trkpt lat="44.14195" lon="4.98682">
        <ele>124</ele>
        <time>2016-06-30T09:57:39.047Z</time>
      </trkpt>
      <trkpt lat="44.142" lon="4.98682">
        <ele>124</ele>
        <time>2016-06-30T09:57:40.047Z</time>
      </trkpt>
      <trkpt lat="44.14206" lon="4.98681">
        <ele>124</ele>
        <time>2016-06-30T09:57:41.047Z</time>
      </trkpt>
      <trkpt lat="44.14211" lon="4.98681">
        <ele>124</ele>
        <time>2016-06-30T09:57:42.047Z</time>
      </trkpt>
      <trkpt lat="44.14216" lon="4.98681">
        <ele>124</ele>
        <time>2016-06-30T09:57:43.047Z</time>
      </trkpt>
      <trkpt lat="44.14221" lon="4.98681">
        <ele>124</ele>
        <time>2016-06-30T09:57:44.047Z</time>
      </trkpt>
      <trkpt lat="44.14227" lon="4.9868">
        <ele>124</ele>
        <time>2016-06-30T09:57:45.047Z</time>
      </trkpt>
      <trkpt lat="44.14232" lon="4.9868">
        <ele>124</ele>
        <time>2016-06-30T09:57:46.047Z</time>
      </trkpt>
      <trkpt lat="44.14237" lon="4.98679">
        <ele>124</ele>
        <time>2016-06-30T09:57:47.047Z</time>
      </trkpt>
      <trkpt lat="44.14241" lon="4.98678">
        <ele>124</ele>
        <time>2016-06-30T09:57:48.047Z</time>
      </trkpt>
      <trkpt lat="44.14246" lon="4.98677">
        <ele>124</ele>
        <time>2016-06-30T09:57:49.047Z</time>
      </trkpt>
      <trkpt lat="44.14251" lon="4.98676">
        <ele>123</ele>
        <time>2016-06-30T09:57:50.047Z</time>
      </trkpt>
      <trkpt lat="44.14256" lon="4.98674">
        <ele>123</ele>
        <time>2016-06-30T09:57:51.047Z</time>
      </trkpt>
      <trkpt lat="44.14261" lon="4.98672">
        <ele>124</ele>
        <time>2016-06-30T09:57:52.047Z</time>
      </trkpt>
      <trkpt lat="44.14265" lon="4.98671">
        <ele>124</ele>
        <time>2016-06-30T09:57:53.047Z</time>
      </trkpt>
      <trkpt lat="44.1427" lon="4.98669">
        <ele>124</ele>
        <time>2016-06-30T09:57:54.047Z</time>
      </trkpt>
      <trkpt lat="44.14275" lon="4.98667">
        <ele>124</ele>
        <time>2016-06-30T09:57:55.047Z</time>
      </trkpt>
      <trkpt lat="44.1428" lon="4.98665">
        <ele>124</ele>
        <time>2016-06-30T09:57:56.047Z</time>
      </trkpt>
      <trkpt lat="44.14284" lon="4.98664">
        <ele>124</ele>
        <time>2016-06-30T09:57:57.047Z</time>
      </trkpt>
      <trkpt lat="44.14289" lon="4.98662">
        <ele>124</ele>
        <time>2016-06-30T09:57:58.047Z</time>
      </trkpt>
      <trkpt lat="44.14294" lon="4.9866">
        <ele>124</ele>
        <time>2016-06-30T09:57:59.047Z</time>
      </trkpt>
      <trkpt lat="44.14298" lon="4.98659">
        <ele>124</ele>
        <time>2016-06-30T09:58:00.047Z</time>
      </trkpt>
      <trkpt lat="44.14303" lon="4.98657">
        <ele>124</ele>
        <time>2016-06-30T09:58:01.047Z</time>
      </trkpt>
      <trkpt lat="44.14308" lon="4.98655">
        <ele>124</ele>
        <time>2016-06-30T09:58:02.047Z</time>
      </trkpt>
      <trkpt lat="44.14312" lon="4.98653">
        <ele>124</ele>
        <time>2016-06-30T09:58:03.047Z</time>
      </trkpt>
      <trkpt lat="44.14317" lon="4.98652">
        <ele>124</ele>
        <time>2016-06-30T09:58:04.047Z</time>
      </trkpt>
      <trkpt lat="44.14322" lon="4.9865">
        <ele>124</ele>
        <time>2016-06-30T09:58:05.047Z</time>
      </trkpt>
      <trkpt lat="44.14327" lon="4.98648">
        <ele>124</ele>
        <time>2016-06-30T09:58:06.047Z</time>
      </trkpt>
      <trkpt lat="44.14332" lon="4.98647">
        <ele>124</ele>
        <time>2016-06-30T09:58:07.047Z</time>
      </trkpt>
      <trkpt lat="44.14337" lon="4.98645">
        <ele>124</ele>
        <time>2016-06-30T09:58:08.047Z</time>
      </trkpt>
      <trkpt lat="44.14342" lon="4.98643">
        <ele>124</ele>
        <time>2016-06-30T09:58:09.047Z</time>
      </trkpt>
      <trkpt lat="44.14346" lon="4.98641">
        <ele>124</ele>
        <time>2016-06-30T09:58:10.047Z</time>
      </trkpt>
      <trkpt lat="44.14351" lon="4.9864">
        <ele>124</ele>
        <time>2016-06-30T09:58:11.047Z</time>
      </trkpt>
      <trkpt lat="44.14356" lon="4.98638">
        <ele>124</ele>
        <time>2016-06-30T09:58:12.047Z</time>
      </trkpt>
      <trkpt lat="44.14361" lon="4.98636">
        <ele>124</ele>
        <time>2016-06-30T09:58:13.047Z</time>
      </trkpt>
      <trkpt lat="44.14366" lon="4.98634">
        <ele>124</ele>
        <time>2016-06-30T09:58:14.047Z</time>
      </trkpt>
      <trkpt lat="44.1437" lon="4.98632">
        <ele>123</ele>
        <time>2016-06-30T09:58:15.047Z</time>
      </trkpt>
      <trkpt lat="44.14375" lon="4.9863">
        <ele>123</ele>
        <time>2016-06-30T09:58:16.047Z</time>
      </trkpt>
      <trkpt lat="44.1438" lon="4.98629">
        <ele>123</ele>
        <time>2016-06-30T09:58:17.047Z</time>
      </trkpt>
      <trkpt lat="44.14385" lon="4.98627">
        <ele>123</ele>
        <time>2016-06-30T09:58:18.047Z</time>
      </trkpt>
      <trkpt lat="44.14389" lon="4.98626">
        <ele>123</ele>
        <time>2016-06-30T09:58:19.047Z</time>
      </trkpt>
      <trkpt lat="44.14394" lon="4.98624">
        <ele>123</ele>
        <time>2016-06-30T09:58:20.047Z</time>
      </trkpt>
      <trkpt lat="44.14398" lon="4.98623">
        <ele>123</ele>
        <time>2016-06-30T09:58:21.047Z</time>
      </trkpt>
      <trkpt lat="44.14403" lon="4.98621">
        <ele>123</ele>
        <time>2016-06-30T09:58:22.047Z</time>
      </trkpt>
      <trkpt lat="44.14407" lon="4.9862">
        <ele>123</ele>
        <time>2016-06-30T09:58:23.047Z</time>
      </trkpt>
      <trkpt lat="44.14412" lon="4.98618">
        <ele>123</ele>
        <time>2016-06-30T09:58:24.047Z</time>
      </trkpt>
      <trkpt lat="44.14416" lon="4.98616">
        <ele>123</ele>
        <time>2016-06-30T09:58:25.047Z</time>
      </trkpt>
      <trkpt lat="44.14421" lon="4.98615">
        <ele>123</ele>
        <time>2016-06-30T09:58:26.047Z</time>
      </trkpt>
      <trkpt lat="44.14425" lon="4.98613">
        <ele>123</ele>
        <time>2016-06-30T09:58:27.047Z</time>
      </trkpt>
      <trkpt lat="44.14429" lon="4.98611">
        <ele>123</ele>
        <time>2016-06-30T09:58:28.047Z</time>
      </trkpt>
      <trkpt lat="44.14434" lon="4.9861">
        <ele>123</ele>
        <time>2016-06-30T09:58:29.047Z</time>
      </trkpt>
      <trkpt lat="44.14438" lon="4.98608">
        <ele>123</ele>
        <time>2016-06-30T09:58:30.047Z</time>
      </trkpt>
      <trkpt lat="44.14443" lon="4.98607">
        <ele>123</ele>
        <time>2016-06-30T09:58:31.047Z</time>
      </trkpt>
      <trkpt lat="44.14447" lon="4.98605">
        <ele>122</ele>
        <time>2016-06-30T09:58:32.047Z</time>
      </trkpt>
      <trkpt lat="44.14451" lon="4.98603">
        <ele>122</ele>
        <time>2016-06-30T09:58:33.047Z</time>
      </trkpt>
      <trkpt lat="44.14456" lon="4.98602">
        <ele>122</ele>
        <time>2016-06-30T09:58:34.047Z</time>
      </trkpt>
      <trkpt lat="44.1446" lon="4.986">
        <ele>123</ele>
        <time>2016-06-30T09:58:35.047Z</time>
      </trkpt>
      <trkpt lat="44.14464" lon="4.98599">
        <ele>123</ele>
        <time>2016-06-30T09:58:36.047Z</time>
      </trkpt>
      <trkpt lat="44.14469" lon="4.98597">
        <ele>123</ele>
        <time>2016-06-30T09:58:37.047Z</time>
      </trkpt>
      <trkpt lat="44.14473" lon="4.98595">
        <ele>123</ele>
        <time>2016-06-30T09:58:38.047Z</time>
      </trkpt>
      <trkpt lat="44.14478" lon="4.98594">
        <ele>123</ele>
        <time>2016-06-30T09:58:39.047Z</time>
      </trkpt>
      <trkpt lat="44.14482" lon="4.98592">
        <ele>123</ele>
        <time>2016-06-30T09:58:40.047Z</time>
      </trkpt>
      <trkpt lat="44.14486" lon="4.9859">
        <ele>123</ele>
        <time>2016-06-30T09:58:41.047Z</time>
      </trkpt>
      <trkpt lat="44.14491" lon="4.98588">
        <ele>123</ele>
        <time>2016-06-30T09:58:42.047Z</time>
      </trkpt>
      <trkpt lat="44.14495" lon="4.98587">
        <ele>123</ele>
        <time>2016-06-30T09:58:43.047Z</time>
      </trkpt>
      <trkpt lat="44.14499" lon="4.98585">
        <ele>123</ele>
        <time>2016-06-30T09:58:44.047Z</time>
      </trkpt>
      <trkpt lat="44.14504" lon="4.98583">
        <ele>123</ele>
        <time>2016-06-30T09:58:45.047Z</time>
      </trkpt>
      <trkpt lat="44.14508" lon="4.98582">
        <ele>123</ele>
        <time>2016-06-30T09:58:46.047Z</time>
      </trkpt>
      <trkpt lat="44.14512" lon="4.9858">
        <ele>123</ele>
        <time>2016-06-30T09:58:47.047Z</time>
      </trkpt>
      <trkpt lat="44.14516" lon="4.98579">
        <ele>123</ele>
        <time>2016-06-30T09:58:48.047Z</time>
      </trkpt>
      <trkpt lat="44.1452" lon="4.98577">
        <ele>123</ele>
        <time>2016-06-30T09:58:49.047Z</time>
      </trkpt>
      <trkpt lat="44.14524" lon="4.98575">
        <ele>123</ele>
        <time>2016-06-30T09:58:50.047Z</time>
      </trkpt>
      <trkpt lat="44.14528" lon="4.98573">
        <ele>123</ele>
        <time>2016-06-30T09:58:51.047Z</time>
      </trkpt>
      <trkpt lat="44.14532" lon="4.98572">
        <ele>123</ele>
        <time>2016-06-30T09:58:52.047Z</time>
      </trkpt>
      <trkpt lat="44.14537" lon="4.9857">
        <ele>123</ele>
        <time>2016-06-30T09:58:53.047Z</time>
      </trkpt>
      <trkpt lat="44.14541" lon="4.98568">
        <ele>123</ele>
        <time>2016-06-30T09:58:54.047Z</time>
      </trkpt>
      <trkpt lat="44.14545" lon="4.98567">
        <ele>124</ele>
        <time>2016-06-30T09:58:55.047Z</time>
      </trkpt>
      <trkpt lat="44.14549" lon="4.98565">
        <ele>124</ele>
        <time>2016-06-30T09:58:56.047Z</time>
      </trkpt>
      <trkpt lat="44.14553" lon="4.98563">
        <ele>124</ele>
        <time>2016-06-30T09:58:57.047Z</time>
      </trkpt>
      <trkpt lat="44.14557" lon="4.9856">
        <ele>124</ele>
        <time>2016-06-30T09:58:58.047Z</time>
      </trkpt>
      <trkpt lat="44.14562" lon="4.98559">
        <ele>124</ele>
        <time>2016-06-30T09:58:59.047Z</time>
      </trkpt>
      <trkpt lat="44.14566" lon="4.98556">
        <ele>124</ele>
        <time>2016-06-30T09:59:00.047Z</time>
      </trkpt>
      <trkpt lat="44.1457" lon="4.98554">
        <ele>124</ele>
        <time>2016-06-30T09:59:01.047Z</time>
      </trkpt>
      <trkpt lat="44.14574" lon="4.98552">
        <ele>124</ele>
        <time>2016-06-30T09:59:02.047Z</time>
      </trkpt>
      <trkpt lat="44.14578" lon="4.9855">
        <ele>123</ele>
        <time>2016-06-30T09:59:03.047Z</time>
      </trkpt>
      <trkpt lat="44.14582" lon="4.98548">
        <ele>123</ele>
        <time>2016-06-30T09:59:04.047Z</time>
      </trkpt>
      <trkpt lat="44.14586" lon="4.98546">
        <ele>123</ele>
        <time>2016-06-30T09:59:05.047Z</time>
      </trkpt>
      <trkpt lat="44.1459" lon="4.98544">
        <ele>123</ele>
        <time>2016-06-30T09:59:06.047Z</time>
      </trkpt>
      <trkpt lat="44.14594" lon="4.98541">
        <ele>123</ele>
        <time>2016-06-30T09:59:07.047Z</time>
      </trkpt>
      <trkpt lat="44.14598" lon="4.98539">
        <ele>123</ele>
        <time>2016-06-30T09:59:08.047Z</time>
      </trkpt>
      <trkpt lat="44.14602" lon="4.98536">
        <ele>123</ele>
        <time>2016-06-30T09:59:09.047Z</time>
      </trkpt>
      <trkpt lat="44.14606" lon="4.98534">
        <ele>124</ele>
        <time>2016-06-30T09:59:10.047Z</time>
      </trkpt>
      <trkpt lat="44.1461" lon="4.98531">
        <ele>124</ele>
        <time>2016-06-30T09:59:11.047Z</time>
      </trkpt>
      <trkpt lat="44.14614" lon="4.98529">
        <ele>124</ele>
        <time>2016-06-30T09:59:12.047Z</time>
      </trkpt>
      <trkpt lat="44.14618" lon="4.98526">
        <ele>124</ele>
        <time>2016-06-30T09:59:13.047Z</time>
      </trkpt>
      <trkpt lat="44.14623" lon="4.98524">
        <ele>124</ele>
        <time>2016-06-30T09:59:14.047Z</time>
      </trkpt>
      <trkpt lat="44.14627" lon="4.98521">
        <ele>124</ele>
        <time>2016-06-30T09:59:15.047Z</time>
      </trkpt>
      <trkpt lat="44.14631" lon="4.98519">
        <ele>124</ele>
        <time>2016-06-30T09:59:16.047Z</time>
      </trkpt>
      <trkpt lat="44.14635" lon="4.98516">
        <ele>124</ele>
        <time>2016-06-30T09:59:17.047Z</time>
      </trkpt>
      <trkpt lat="44.14639" lon="4.98514">
        <ele>124</ele>
        <time>2016-06-30T09:59:18.047Z</time>
      </trkpt>
      <trkpt lat="44.14643" lon="4.98511">
        <ele>124</ele>
        <time>2016-06-30T09:59:19.047Z</time>
      </trkpt>
      <trkpt lat="44.14647" lon="4.98509">
        <ele>124</ele>
        <time>2016-06-30T09:59:20.047Z</time>
      </trkpt>
      <trkpt lat="44.14651" lon="4.98506">
        <ele>124</ele>
        <time>2016-06-30T09:59:21.047Z</time>
      </trkpt>
      <trkpt lat="44.14655" lon="4.98504">
        <ele>124</ele>
        <time>2016-06-30T09:59:22.047Z</time>
      </trkpt>
      <trkpt lat="44.14659" lon="4.98501">
        <ele>125</ele>
        <time>2016-06-30T09:59:23.047Z</time>
      </trkpt>
      <trkpt lat="44.14663" lon="4.98499">
        <ele>125</ele>
        <time>2016-06-30T09:59:24.047Z</time>
      </trkpt>
      <trkpt lat="44.14668" lon="4.98496">
        <ele>125</ele>
        <time>2016-06-30T09:59:25.047Z</time>
      </trkpt>
      <trkpt lat="44.14672" lon="4.98494">
        <ele>125</ele>
        <time>2016-06-30T09:59:26.047Z</time>
      </trkpt>
      <trkpt lat="44.14676" lon="4.98491">
        <ele>125</ele>
        <time>2016-06-30T09:59:27.047Z</time>
      </trkpt>
      <trkpt lat="44.1468" lon="4.98488">
        <ele>125</ele>
        <time>2016-06-30T09:59:28.047Z</time>
      </trkpt>
      <trkpt lat="44.14684" lon="4.98486">
        <ele>125</ele>
        <time>2016-06-30T09:59:29.047Z</time>
      </trkpt>
      <trkpt lat="44.14688" lon="4.98484">
        <ele>125</ele>
        <time>2016-06-30T09:59:30.047Z</time>
      </trkpt>
      <trkpt lat="44.14692" lon="4.98481">
        <ele>126</ele>
        <time>2016-06-30T09:59:31.047Z</time>
      </trkpt>
      <trkpt lat="44.14696" lon="4.98479">
        <ele>126</ele>
        <time>2016-06-30T09:59:32.047Z</time>
      </trkpt>
      <trkpt lat="44.147" lon="4.98476">
        <ele>126</ele>
        <time>2016-06-30T09:59:33.047Z</time>
      </trkpt>
      <trkpt lat="44.14704" lon="4.98474">
        <ele>126</ele>
        <time>2016-06-30T09:59:34.047Z</time>
      </trkpt>
      <trkpt lat="44.14708" lon="4.98472">
        <ele>126</ele>
        <time>2016-06-30T09:59:35.047Z</time>
      </trkpt>
      <trkpt lat="44.14712" lon="4.98469">
        <ele>126</ele>
        <time>2016-06-30T09:59:36.047Z</time>
      </trkpt>
      <trkpt lat="44.14716" lon="4.98467">
        <ele>126</ele>
        <time>2016-06-30T09:59:37.047Z</time>
      </trkpt>
      <trkpt lat="44.1472" lon="4.98464">
        <ele>126</ele>
        <time>2016-06-30T09:59:38.047Z</time>
      </trkpt>
      <trkpt lat="44.14724" lon="4.98462">
        <ele>127</ele>
        <time>2016-06-30T09:59:39.047Z</time>
      </trkpt>
      <trkpt lat="44.14728" lon="4.98459">
        <ele>127</ele>
        <time>2016-06-30T09:59:40.047Z</time>
      </trkpt>
      <trkpt lat="44.14732" lon="4.98457">
        <ele>127</ele>
        <time>2016-06-30T09:59:41.047Z</time>
      </trkpt>
      <trkpt lat="44.14736" lon="4.98455">
        <ele>127</ele>
        <time>2016-06-30T09:59:42.047Z</time>
      </trkpt>
      <trkpt lat="44.1474" lon="4.98453">
        <ele>127</ele>
        <time>2016-06-30T09:59:43.047Z</time>
      </trkpt>
      <trkpt lat="44.14744" lon="4.98451">
        <ele>127</ele>
        <time>2016-06-30T09:59:44.047Z</time>
      </trkpt>
      <trkpt lat="44.14748" lon="4.98449">
        <ele>127</ele>
        <time>2016-06-30T09:59:45.047Z</time>
      </trkpt>
      <trkpt lat="44.14752" lon="4.98446">
        <ele>127</ele>
        <time>2016-06-30T09:59:46.047Z</time>
      </trkpt>
      <trkpt lat="44.14757" lon="4.98444">
        <ele>127</ele>
        <time>2016-06-30T09:59:47.047Z</time>
      </trkpt>
      <trkpt lat="44.14761" lon="4.98441">
        <ele>127</ele>
        <time>2016-06-30T09:59:48.047Z</time>
      </trkpt>
      <trkpt lat="44.14766" lon="4.98439">
        <ele>127</ele>
        <time>2016-06-30T09:59:49.047Z</time>
      </trkpt>
      <trkpt lat="44.1477" lon="4.98437">
        <ele>127</ele>
        <time>2016-06-30T09:59:50.047Z</time>
      </trkpt>
      <trkpt lat="44.14774" lon="4.98435">
        <ele>127</ele>
        <time>2016-06-30T09:59:51.047Z</time>
      </trkpt>
      <trkpt lat="44.14779" lon="4.98433">
        <ele>128</ele>
        <time>2016-06-30T09:59:52.047Z</time>
      </trkpt>
      <trkpt lat="44.14783" lon="4.98432">
        <ele>128</ele>
        <time>2016-06-30T09:59:53.047Z</time>
      </trkpt>
      <trkpt lat="44.14787" lon="4.9843">
        <ele>128</ele>
        <time>2016-06-30T09:59:54.047Z</time>
      </trkpt>
      <trkpt lat="44.14792" lon="4.98428">
        <ele>128</ele>
        <time>2016-06-30T09:59:55.047Z</time>
      </trkpt>
      <trkpt lat="44.14796" lon="4.98426">
        <ele>128</ele>
        <time>2016-06-30T09:59:56.047Z</time>
      </trkpt>
      <trkpt lat="44.14801" lon="4.98425">
        <ele>129</ele>
        <time>2016-06-30T09:59:57.047Z</time>
      </trkpt>
      <trkpt lat="44.14805" lon="4.98423">
        <ele>129</ele>
        <time>2016-06-30T09:59:58.047Z</time>
      </trkpt>
      <trkpt lat="44.14809" lon="4.98422">
        <ele>129</ele>
        <time>2016-06-30T09:59:59.047Z</time>
      </trkpt>
      <trkpt lat="44.14814" lon="4.98421">
        <ele>129</ele>
        <time>2016-06-30T10:00:00.047Z</time>
      </trkpt>
      <trkpt lat="44.14818" lon="4.9842">
        <ele>129</ele>
        <time>2016-06-30T10:00:01.047Z</time>
      </trkpt>
      <trkpt lat="44.14822" lon="4.98418">
        <ele>129</ele>
        <time>2016-06-30T10:00:02.047Z</time>
      </trkpt>
      <trkpt lat="44.14827" lon="4.98417">
        <ele>129</ele>
        <time>2016-06-30T10:00:03.047Z</time>
      </trkpt>
      <trkpt lat="44.14831" lon="4.98416">
        <ele>130</ele>
        <time>2016-06-30T10:00:04.047Z</time>
      </trkpt>
      <trkpt lat="44.14836" lon="4.98415">
        <ele>130</ele>
        <time>2016-06-30T10:00:05.047Z</time>
      </trkpt>
      <trkpt lat="44.1484" lon="4.98414">
        <ele>130</ele>
        <time>2016-06-30T10:00:06.047Z</time>
      </trkpt>
      <trkpt lat="44.14844" lon="4.98413">
        <ele>131</ele>
        <time>2016-06-30T10:00:07.047Z</time>
      </trkpt>
      <trkpt lat="44.14848" lon="4.98412">
        <ele>131</ele>
        <time>2016-06-30T10:00:08.047Z</time>
      </trkpt>
      <trkpt lat="44.14853" lon="4.98412">
        <ele>131</ele>
        <time>2016-06-30T10:00:09.047Z</time>
      </trkpt>
      <trkpt lat="44.14858" lon="4.98411">
        <ele>131</ele>
        <time>2016-06-30T10:00:10.047Z</time>
      </trkpt>
      <trkpt lat="44.14863" lon="4.9841">
        <ele>131</ele>
        <time>2016-06-30T10:00:11.047Z</time>
      </trkpt>
      <trkpt lat="44.14868" lon="4.98409">
        <ele>131</ele>
        <time>2016-06-30T10:00:12.047Z</time>
      </trkpt>
      <trkpt lat="44.14874" lon="4.98409">
        <ele>132</ele>
        <time>2016-06-30T10:00:13.047Z</time>
      </trkpt>
      <trkpt lat="44.14879" lon="4.98408">
        <ele>132</ele>
        <time>2016-06-30T10:00:14.047Z</time>
      </trkpt>
      <trkpt lat="44.14883" lon="4.98408">
        <ele>132</ele>
        <time>2016-06-30T10:00:15.047Z</time>
      </trkpt>
      <trkpt lat="44.14888" lon="4.98407">
        <ele>132</ele>
        <time>2016-06-30T10:00:16.047Z</time>
      </trkpt>
      <trkpt lat="44.14892" lon="4.98407">
        <ele>132</ele>
        <time>2016-06-30T10:00:17.047Z</time>
      </trkpt>
      <trkpt lat="44.14897" lon="4.98407">
        <ele>132</ele>
        <time>2016-06-30T10:00:18.047Z</time>
      </trkpt>
      <trkpt lat="44.14901" lon="4.98407">
        <ele>132</ele>
        <time>2016-06-30T10:00:19.047Z</time>
      </trkpt>
      <trkpt lat="44.14905" lon="4.98406">
        <ele>132</ele>
        <time>2016-06-30T10:00:20.047Z</time>
      </trkpt>
      <trkpt lat="44.1491" lon="4.98406">
        <ele>132</ele>
        <time>2016-06-30T10:00:21.047Z</time>
      </trkpt>
      <trkpt lat="44.14914" lon="4.98406">
        <ele>132</ele>
        <time>2016-06-30T10:00:22.047Z</time>
      </trkpt>
      <trkpt lat="44.14918" lon="4.98406">
        <ele>132</ele>
        <time>2016-06-30T10:00:23.047Z</time>
      </trkpt>
      <trkpt lat="44.14922" lon="4.98406">
        <ele>132</ele>
        <time>2016-06-30T10:00:24.047Z</time>
      </trkpt>
      <trkpt lat="44.14925" lon="4.98406">
        <ele>132</ele>
        <time>2016-06-30T10:00:25.047Z</time>
      </trkpt>
      <trkpt lat="44.14929" lon="4.98406">
        <ele>132</ele>
        <time>2016-06-30T10:00:26.047Z</time>
      </trkpt>
      <trkpt lat="44.14934" lon="4.98407">
        <ele>131</ele>
        <time>2016-06-30T10:00:27.047Z</time>
      </trkpt>
      <trkpt lat="44.14939" lon="4.98407">
        <ele>131</ele>
        <time>2016-06-30T10:00:28.047Z</time>
      </trkpt>
      <trkpt lat="44.14944" lon="4.98407">
        <ele>131</ele>
        <time>2016-06-30T10:00:29.047Z</time>
      </trkpt>
      <trkpt lat="44.14948" lon="4.98408">
        <ele>131</ele>
        <time>2016-06-30T10:00:30.047Z</time>
      </trkpt>
      <trkpt lat="44.14953" lon="4.98408">
        <ele>131</ele>
        <time>2016-06-30T10:00:31.047Z</time>
      </trkpt>
      <trkpt lat="44.14958" lon="4.98409">
        <ele>131</ele>
        <time>2016-06-30T10:00:32.047Z</time>
      </trkpt>
      <trkpt lat="44.14963" lon="4.98409">
        <ele>131</ele>
        <time>2016-06-30T10:00:33.047Z</time>
      </trkpt>
      <trkpt lat="44.14967" lon="4.9841">
        <ele>131</ele>
        <time>2016-06-30T10:00:34.047Z</time>
      </trkpt>
      <trkpt lat="44.14971" lon="4.9841">
        <ele>131</ele>
        <time>2016-06-30T10:00:35.047Z</time>
      </trkpt>
      <trkpt lat="44.14976" lon="4.9841">
        <ele>131</ele>
        <time>2016-06-30T10:00:36.047Z</time>
      </trkpt>
      <trkpt lat="44.1498" lon="4.9841">
        <ele>132</ele>
        <time>2016-06-30T10:00:37.047Z</time>
      </trkpt>
      <trkpt lat="44.14984" lon="4.9841">
        <ele>132</ele>
        <time>2016-06-30T10:00:38.047Z</time>
      </trkpt>
      <trkpt lat="44.14988" lon="4.98411">
        <ele>132</ele>
        <time>2016-06-30T10:00:39.047Z</time>
      </trkpt>
      <trkpt lat="44.14993" lon="4.98411">
        <ele>132</ele>
        <time>2016-06-30T10:00:40.047Z</time>
      </trkpt>
      <trkpt lat="44.14997" lon="4.98411">
        <ele>132</ele>
        <time>2016-06-30T10:00:41.047Z</time>
      </trkpt>
      <trkpt lat="44.15001" lon="4.98411">
        <ele>132</ele>
        <time>2016-06-30T10:00:42.047Z</time>
      </trkpt>
      <trkpt lat="44.15005" lon="4.98411">
        <ele>132</ele>
        <time>2016-06-30T10:00:43.047Z</time>
      </trkpt>
      <trkpt lat="44.15009" lon="4.9841">
        <ele>132</ele>
        <time>2016-06-30T10:00:44.047Z</time>
      </trkpt>
      <trkpt lat="44.15014" lon="4.9841">
        <ele>132</ele>
        <time>2016-06-30T10:00:45.047Z</time>
      </trkpt>
      <trkpt lat="44.15019" lon="4.9841">
        <ele>132</ele>
        <time>2016-06-30T10:00:46.047Z</time>
      </trkpt>
      <trkpt lat="44.15023" lon="4.9841">
        <ele>133</ele>
        <time>2016-06-30T10:00:47.047Z</time>
      </trkpt>
      <trkpt lat="44.15028" lon="4.98411">
        <ele>133</ele>
        <time>2016-06-30T10:00:48.047Z</time>
      </trkpt>
      <trkpt lat="44.15033" lon="4.98412">
        <ele>133</ele>
        <time>2016-06-30T10:00:49.047Z</time>
      </trkpt>
      <trkpt lat="44.15037" lon="4.98413">
        <ele>133</ele>
        <time>2016-06-30T10:00:50.047Z</time>
      </trkpt>
      <trkpt lat="44.15042" lon="4.98415">
        <ele>133</ele>
        <time>2016-06-30T10:00:51.047Z</time>
      </trkpt>
      <trkpt lat="44.15046" lon="4.98417">
        <ele>133</ele>
        <time>2016-06-30T10:00:52.047Z</time>
      </trkpt>
      <trkpt lat="44.1505" lon="4.98419">
        <ele>133</ele>
        <time>2016-06-30T10:00:53.047Z</time>
      </trkpt>
      <trkpt lat="44.15055" lon="4.98421">
        <ele>133</ele>
        <time>2016-06-30T10:00:54.047Z</time>
      </trkpt>
      <trkpt lat="44.15059" lon="4.98423">
        <ele>133</ele>
        <time>2016-06-30T10:00:55.047Z</time>
      </trkpt>
      <trkpt lat="44.15063" lon="4.98425">
        <ele>133</ele>
        <time>2016-06-30T10:00:56.047Z</time>
      </trkpt>
      <trkpt lat="44.15067" lon="4.98427">
        <ele>133</ele>
        <time>2016-06-30T10:00:57.047Z</time>
      </trkpt>
      <trkpt lat="44.15071" lon="4.98428">
        <ele>133</ele>
        <time>2016-06-30T10:00:58.047Z</time>
      </trkpt>
      <trkpt lat="44.15076" lon="4.9843">
        <ele>133</ele>
        <time>2016-06-30T10:00:59.047Z</time>
      </trkpt>
      <trkpt lat="44.1508" lon="4.98432">
        <ele>133</ele>
        <time>2016-06-30T10:01:00.047Z</time>
      </trkpt>
      <trkpt lat="44.15084" lon="4.98434">
        <ele>134</ele>
        <time>2016-06-30T10:01:01.047Z</time>
      </trkpt>
      <trkpt lat="44.15088" lon="4.98436">
        <ele>134</ele>
        <time>2016-06-30T10:01:02.047Z</time>
      </trkpt>
      <trkpt lat="44.15092" lon="4.98437">
        <ele>134</ele>
        <time>2016-06-30T10:01:03.047Z</time>
      </trkpt>
      <trkpt lat="44.15096" lon="4.98439">
        <ele>134</ele>
        <time>2016-06-30T10:01:04.047Z</time>
      </trkpt>
      <trkpt lat="44.151" lon="4.9844">
        <ele>135</ele>
        <time>2016-06-30T10:01:05.047Z</time>
      </trkpt>
      <trkpt lat="44.15104" lon="4.98442">
        <ele>135</ele>
        <time>2016-06-30T10:01:06.047Z</time>
      </trkpt>
      <trkpt lat="44.15107" lon="4.98443">
        <ele>135</ele>
        <time>2016-06-30T10:01:07.047Z</time>
      </trkpt>
      <trkpt lat="44.15111" lon="4.98445">
        <ele>135</ele>
        <time>2016-06-30T10:01:08.047Z</time>
      </trkpt>
      <trkpt lat="44.15115" lon="4.98446">
        <ele>135</ele>
        <time>2016-06-30T10:01:09.047Z</time>
      </trkpt>
      <trkpt lat="44.15118" lon="4.98447">
        <ele>135</ele>
        <time>2016-06-30T10:01:10.047Z</time>
      </trkpt>
      <trkpt lat="44.15122" lon="4.98449">
        <ele>135</ele>
        <time>2016-06-30T10:01:11.047Z</time>
      </trkpt>
      <trkpt lat="44.15126" lon="4.9845">
        <ele>135</ele>
        <time>2016-06-30T10:01:12.047Z</time>
      </trkpt>
      <trkpt lat="44.1513" lon="4.98452">
        <ele>135</ele>
        <time>2016-06-30T10:01:13.047Z</time>
      </trkpt>
      <trkpt lat="44.15134" lon="4.98454">
        <ele>135</ele>
        <time>2016-06-30T10:01:14.047Z</time>
      </trkpt>
      <trkpt lat="44.15139" lon="4.98456">
        <ele>135</ele>
        <time>2016-06-30T10:01:15.047Z</time>
      </trkpt>
      <trkpt lat="44.15144" lon="4.98458">
        <ele>135</ele>
        <time>2016-06-30T10:01:16.047Z</time>
      </trkpt>
      <trkpt lat="44.15149" lon="4.9846">
        <ele>135</ele>
        <time>2016-06-30T10:01:17.047Z</time>
      </trkpt>
      <trkpt lat="44.15155" lon="4.98462">
        <ele>136</ele>
        <time>2016-06-30T10:01:18.047Z</time>
      </trkpt>
      <trkpt lat="44.1516" lon="4.98464">
        <ele>136</ele>
        <time>2016-06-30T10:01:19.047Z</time>
      </trkpt>
      <trkpt lat="44.15166" lon="4.98466">
        <ele>136</ele>
        <time>2016-06-30T10:01:20.047Z</time>
      </trkpt>
      <trkpt lat="44.15171" lon="4.98468">
        <ele>136</ele>
        <time>2016-06-30T10:01:21.047Z</time>
      </trkpt>
      <trkpt lat="44.15176" lon="4.9847">
        <ele>137</ele>
        <time>2016-06-30T10:01:22.047Z</time>
      </trkpt>
      <trkpt lat="44.1518" lon="4.98472">
        <ele>137</ele>
        <time>2016-06-30T10:01:23.047Z</time>
      </trkpt>
      <trkpt lat="44.15185" lon="4.98474">
        <ele>137</ele>
        <time>2016-06-30T10:01:24.047Z</time>
      </trkpt>
      <trkpt lat="44.15189" lon="4.98475">
        <ele>137</ele>
        <time>2016-06-30T10:01:25.047Z</time>
      </trkpt>
      <trkpt lat="44.15193" lon="4.98477">
        <ele>137</ele>
        <time>2016-06-30T10:01:26.047Z</time>
      </trkpt>
      <trkpt lat="44.15198" lon="4.98479">
        <ele>137</ele>
        <time>2016-06-30T10:01:27.047Z</time>
      </trkpt>
      <trkpt lat="44.15203" lon="4.98481">
        <ele>137</ele>
        <time>2016-06-30T10:01:28.047Z</time>
      </trkpt>
      <trkpt lat="44.15208" lon="4.98483">
        <ele>138</ele>
        <time>2016-06-30T10:01:29.047Z</time>
      </trkpt>
      <trkpt lat="44.15213" lon="4.98485">
        <ele>138</ele>
        <time>2016-06-30T10:01:30.047Z</time>
      </trkpt>
      <trkpt lat="44.15218" lon="4.98487">
        <ele>138</ele>
        <time>2016-06-30T10:01:31.047Z</time>
      </trkpt>
      <trkpt lat="44.15223" lon="4.98489">
        <ele>138</ele>
        <time>2016-06-30T10:01:32.047Z</time>
      </trkpt>
      <trkpt lat="44.15227" lon="4.98491">
        <ele>138</ele>
        <time>2016-06-30T10:01:33.047Z</time>
      </trkpt>
      <trkpt lat="44.15232" lon="4.98492">
        <ele>139</ele>
        <time>2016-06-30T10:01:34.047Z</time>
      </trkpt>
      <trkpt lat="44.15236" lon="4.98494">
        <ele>139</ele>
        <time>2016-06-30T10:01:35.047Z</time>
      </trkpt>
      <trkpt lat="44.1524" lon="4.98496">
        <ele>139</ele>
        <time>2016-06-30T10:01:36.047Z</time>
      </trkpt>
      <trkpt lat="44.15244" lon="4.98497">
        <ele>139</ele>
        <time>2016-06-30T10:01:37.047Z</time>
      </trkpt>
      <trkpt lat="44.15248" lon="4.98499">
        <ele>139</ele>
        <time>2016-06-30T10:01:38.047Z</time>
      </trkpt>
      <trkpt lat="44.15252" lon="4.98501">
        <ele>139</ele>
        <time>2016-06-30T10:01:39.047Z</time>
      </trkpt>
      <trkpt lat="44.15255" lon="4.98502">
        <ele>139</ele>
        <time>2016-06-30T10:01:40.047Z</time>
      </trkpt>
      <trkpt lat="44.15259" lon="4.98504">
        <ele>140</ele>
        <time>2016-06-30T10:01:41.047Z</time>
      </trkpt>
      <trkpt lat="44.15263" lon="4.98505">
        <ele>140</ele>
        <time>2016-06-30T10:01:42.047Z</time>
      </trkpt>
      <trkpt lat="44.15267" lon="4.98507">
        <ele>140</ele>
        <time>2016-06-30T10:01:43.047Z</time>
      </trkpt>
      <trkpt lat="44.15271" lon="4.98508">
        <ele>140</ele>
        <time>2016-06-30T10:01:44.047Z</time>
      </trkpt>
      <trkpt lat="44.15274" lon="4.98509">
        <ele>140</ele>
        <time>2016-06-30T10:01:45.047Z</time>
      </trkpt>
      <trkpt lat="44.15278" lon="4.98511">
        <ele>140</ele>
        <time>2016-06-30T10:01:46.047Z</time>
      </trkpt>
      <trkpt lat="44.15282" lon="4.98512">
        <ele>141</ele>
        <time>2016-06-30T10:01:47.047Z</time>
      </trkpt>
      <trkpt lat="44.15286" lon="4.98514">
        <ele>140</ele>
        <time>2016-06-30T10:01:48.047Z</time>
      </trkpt>
      <trkpt lat="44.1529" lon="4.98516">
        <ele>141</ele>
        <time>2016-06-30T10:01:49.047Z</time>
      </trkpt>
      <trkpt lat="44.15294" lon="4.98517">
        <ele>141</ele>
        <time>2016-06-30T10:01:50.047Z</time>
      </trkpt>
      <trkpt lat="44.15298" lon="4.98519">
        <ele>141</ele>
        <time>2016-06-30T10:01:51.047Z</time>
      </trkpt>
      <trkpt lat="44.15301" lon="4.9852">
        <ele>141</ele>
        <time>2016-06-30T10:01:52.047Z</time>
      </trkpt>
      <trkpt lat="44.15305" lon="4.98522">
        <ele>141</ele>
        <time>2016-06-30T10:01:53.047Z</time>
      </trkpt>
      <trkpt lat="44.15309" lon="4.98523">
        <ele>141</ele>
        <time>2016-06-30T10:01:54.047Z</time>
      </trkpt>
      <trkpt lat="44.15313" lon="4.98525">
        <ele>142</ele>
        <time>2016-06-30T10:01:55.047Z</time>
      </trkpt>
      <trkpt lat="44.15317" lon="4.98527">
        <ele>142</ele>
        <time>2016-06-30T10:01:56.047Z</time>
      </trkpt>
      <trkpt lat="44.15321" lon="4.98528">
        <ele>142</ele>
        <time>2016-06-30T10:01:57.047Z</time>
      </trkpt>
      <trkpt lat="44.15325" lon="4.9853">
        <ele>142</ele>
        <time>2016-06-30T10:01:58.047Z</time>
      </trkpt>
      <trkpt lat="44.15329" lon="4.98532">
        <ele>142</ele>
        <time>2016-06-30T10:01:59.047Z</time>
      </trkpt>
      <trkpt lat="44.15333" lon="4.98534">
        <ele>142</ele>
        <time>2016-06-30T10:02:00.047Z</time>
      </trkpt>
      <trkpt lat="44.15337" lon="4.98535">
        <ele>143</ele>
        <time>2016-06-30T10:02:01.047Z</time>
      </trkpt>
      <trkpt lat="44.1534" lon="4.98536">
        <ele>143</ele>
        <time>2016-06-30T10:02:02.047Z</time>
      </trkpt>
      <trkpt lat="44.15344" lon="4.98538">
        <ele>143</ele>
        <time>2016-06-30T10:02:03.047Z</time>
      </trkpt>
      <trkpt lat="44.15348" lon="4.98539">
        <ele>143</ele>
        <time>2016-06-30T10:02:04.047Z</time>
      </trkpt>
      <trkpt lat="44.15352" lon="4.98541">
        <ele>143</ele>
        <time>2016-06-30T10:02:05.047Z</time>
      </trkpt>
      <trkpt lat="44.15356" lon="4.98543">
        <ele>143</ele>
        <time>2016-06-30T10:02:06.047Z</time>
      </trkpt>
      <trkpt lat="44.1536" lon="4.98545">
        <ele>144</ele>
        <time>2016-06-30T10:02:07.047Z</time>
      </trkpt>
      <trkpt lat="44.15364" lon="4.98546">
        <ele>144</ele>
        <time>2016-06-30T10:02:08.047Z</time>
      </trkpt>
      <trkpt lat="44.15367" lon="4.98548">
        <ele>144</ele>
        <time>2016-06-30T10:02:09.047Z</time>
      </trkpt>
      <trkpt lat="44.15371" lon="4.9855">
        <ele>144</ele>
        <time>2016-06-30T10:02:10.047Z</time>
      </trkpt>
      <trkpt lat="44.15375" lon="4.98551">
        <ele>144</ele>
        <time>2016-06-30T10:02:11.047Z</time>
      </trkpt>
      <trkpt lat="44.15379" lon="4.98553">
        <ele>144</ele>
        <time>2016-06-30T10:02:12.047Z</time>
      </trkpt>
      <trkpt lat="44.15383" lon="4.98555">
        <ele>144</ele>
        <time>2016-06-30T10:02:13.047Z</time>
      </trkpt>
      <trkpt lat="44.15387" lon="4.98557">
        <ele>144</ele>
        <time>2016-06-30T10:02:14.047Z</time>
      </trkpt>
      <trkpt lat="44.15391" lon="4.98558">
        <ele>144</ele>
        <time>2016-06-30T10:02:15.047Z</time>
      </trkpt>
      <trkpt lat="44.15395" lon="4.9856">
        <ele>144</ele>
        <time>2016-06-30T10:02:16.047Z</time>
      </trkpt>
      <trkpt lat="44.15399" lon="4.98562">
        <ele>145</ele>
        <time>2016-06-30T10:02:17.047Z</time>
      </trkpt>
      <trkpt lat="44.15404" lon="4.98564">
        <ele>145</ele>
        <time>2016-06-30T10:02:18.047Z</time>
      </trkpt>
      <trkpt lat="44.15408" lon="4.98566">
        <ele>145</ele>
        <time>2016-06-30T10:02:19.047Z</time>
      </trkpt>
      <trkpt lat="44.15412" lon="4.98567">
        <ele>145</ele>
        <time>2016-06-30T10:02:20.047Z</time>
      </trkpt>
      <trkpt lat="44.15416" lon="4.98569">
        <ele>145</ele>
        <time>2016-06-30T10:02:21.047Z</time>
      </trkpt>
      <trkpt lat="44.15421" lon="4.98571">
        <ele>145</ele>
        <time>2016-06-30T10:02:22.047Z</time>
      </trkpt>
      <trkpt lat="44.15425" lon="4.98573">
        <ele>145</ele>
        <time>2016-06-30T10:02:23.047Z</time>
      </trkpt>
      <trkpt lat="44.1543" lon="4.98575">
        <ele>145</ele>
        <time>2016-06-30T10:02:24.047Z</time>
      </trkpt>
      <trkpt lat="44.15434" lon="4.98577">
        <ele>145</ele>
        <time>2016-06-30T10:02:25.047Z</time>
      </trkpt>
      <trkpt lat="44.15438" lon="4.98579">
        <ele>145</ele>
        <time>2016-06-30T10:02:26.047Z</time>
      </trkpt>
      <trkpt lat="44.15442" lon="4.98581">
        <ele>146</ele>
        <time>2016-06-30T10:02:27.047Z</time>
      </trkpt>
      <trkpt lat="44.15446" lon="4.98582">
        <ele>146</ele>
        <time>2016-06-30T10:02:28.047Z</time>
      </trkpt>
      <trkpt lat="44.15449" lon="4.98584">
        <ele>146</ele>
        <time>2016-06-30T10:02:29.047Z</time>
      </trkpt>
      <trkpt lat="44.15452" lon="4.98585">
        <ele>146</ele>
        <time>2016-06-30T10:02:30.047Z</time>
      </trkpt>
      <trkpt lat="44.15456" lon="4.98587">
        <ele>146</ele>
        <time>2016-06-30T10:02:31.047Z</time>
      </trkpt>
      <trkpt lat="44.15459" lon="4.98588">
        <ele>146</ele>
        <time>2016-06-30T10:02:32.047Z</time>
      </trkpt>
      <trkpt lat="44.15462" lon="4.9859">
        <ele>146</ele>
        <time>2016-06-30T10:02:33.047Z</time>
      </trkpt>
      <trkpt lat="44.15466" lon="4.98591">
        <ele>146</ele>
        <time>2016-06-30T10:02:34.047Z</time>
      </trkpt>
      <trkpt lat="44.1547" lon="4.98593">
        <ele>146</ele>
        <time>2016-06-30T10:02:35.047Z</time>
      </trkpt>
      <trkpt lat="44.15473" lon="4.98594">
        <ele>146</ele>
        <time>2016-06-30T10:02:36.047Z</time>
      </trkpt>
      <trkpt lat="44.15477" lon="4.98596">
        <ele>147</ele>
        <time>2016-06-30T10:02:37.047Z</time>
      </trkpt>
      <trkpt lat="44.15481" lon="4.98597">
        <ele>147</ele>
        <time>2016-06-30T10:02:38.047Z</time>
      </trkpt>
      <trkpt lat="44.15485" lon="4.98599">
        <ele>147</ele>
        <time>2016-06-30T10:02:39.047Z</time>
      </trkpt>
      <trkpt lat="44.15488" lon="4.986">
        <ele>147</ele>
        <time>2016-06-30T10:02:40.047Z</time>
      </trkpt>
      <trkpt lat="44.15492" lon="4.98602">
        <ele>147</ele>
        <time>2016-06-30T10:02:41.047Z</time>
      </trkpt>
      <trkpt lat="44.15496" lon="4.98603">
        <ele>147</ele>
        <time>2016-06-30T10:02:42.047Z</time>
      </trkpt>
      <trkpt lat="44.155" lon="4.98605">
        <ele>147</ele>
        <time>2016-06-30T10:02:43.047Z</time>
      </trkpt>
      <trkpt lat="44.15503" lon="4.98607">
        <ele>147</ele>
        <time>2016-06-30T10:02:44.047Z</time>
      </trkpt>
      <trkpt lat="44.15507" lon="4.98608">
        <ele>147</ele>
        <time>2016-06-30T10:02:45.047Z</time>
      </trkpt>
      <trkpt lat="44.1551" lon="4.9861">
        <ele>148</ele>
        <time>2016-06-30T10:02:46.047Z</time>
      </trkpt>
      <trkpt lat="44.15514" lon="4.98611">
        <ele>148</ele>
        <time>2016-06-30T10:02:47.047Z</time>
      </trkpt>
      <trkpt lat="44.15518" lon="4.98612">
        <ele>148</ele>
        <time>2016-06-30T10:02:48.047Z</time>
      </trkpt>
      <trkpt lat="44.15521" lon="4.98614">
        <ele>148</ele>
        <time>2016-06-30T10:02:49.047Z</time>
      </trkpt>
      <trkpt lat="44.15525" lon="4.98616">
        <ele>148</ele>
        <time>2016-06-30T10:02:50.047Z</time>
      </trkpt>
      <trkpt lat="44.15528" lon="4.98617">
        <ele>148</ele>
        <time>2016-06-30T10:02:51.047Z</time>
      </trkpt>
      <trkpt lat="44.15531" lon="4.98619">
        <ele>148</ele>
        <time>2016-06-30T10:02:52.047Z</time>
      </trkpt>
      <trkpt lat="44.15535" lon="4.9862">
        <ele>148</ele>
        <time>2016-06-30T10:02:53.047Z</time>
      </trkpt>
      <trkpt lat="44.15538" lon="4.98621">
        <ele>148</ele>
        <time>2016-06-30T10:02:54.047Z</time>
      </trkpt>
      <trkpt lat="44.15542" lon="4.98623">
        <ele>148</ele>
        <time>2016-06-30T10:02:55.047Z</time>
      </trkpt>
      <trkpt lat="44.15545" lon="4.98624">
        <ele>148</ele>
        <time>2016-06-30T10:02:56.047Z</time>
      </trkpt>
      <trkpt lat="44.15549" lon="4.98626">
        <ele>148</ele>
        <time>2016-06-30T10:02:57.047Z</time>
      </trkpt>
      <trkpt lat="44.15553" lon="4.98627">
        <ele>148</ele>
        <time>2016-06-30T10:02:58.047Z</time>
      </trkpt>
      <trkpt lat="44.15556" lon="4.98629">
        <ele>148</ele>
        <time>2016-06-30T10:02:59.047Z</time>
      </trkpt>
      <trkpt lat="44.1556" lon="4.98631">
        <ele>148</ele>
        <time>2016-06-30T10:03:00.047Z</time>
      </trkpt>
      <trkpt lat="44.15563" lon="4.98632">
        <ele>148</ele>
        <time>2016-06-30T10:03:01.047Z</time>
      </trkpt>
      <trkpt lat="44.15567" lon="4.98634">
        <ele>148</ele>
        <time>2016-06-30T10:03:02.047Z</time>
      </trkpt>
      <trkpt lat="44.1557" lon="4.98635">
        <ele>148</ele>
        <time>2016-06-30T10:03:03.047Z</time>
      </trkpt>
      <trkpt lat="44.15574" lon="4.98636">
        <ele>148</ele>
        <time>2016-06-30T10:03:04.047Z</time>
      </trkpt>
      <trkpt lat="44.15578" lon="4.98638">
        <ele>149</ele>
        <time>2016-06-30T10:03:05.047Z</time>
      </trkpt>
      <trkpt lat="44.15581" lon="4.98639">
        <ele>149</ele>
        <time>2016-06-30T10:03:06.047Z</time>
      </trkpt>
      <trkpt lat="44.15585" lon="4.98641">
        <ele>149</ele>
        <time>2016-06-30T10:03:07.047Z</time>
      </trkpt>
      <trkpt lat="44.15588" lon="4.98642">
        <ele>149</ele>
        <time>2016-06-30T10:03:08.047Z</time>
      </trkpt>
      <trkpt lat="44.15592" lon="4.98644">
        <ele>149</ele>
        <time>2016-06-30T10:03:09.047Z</time>
      </trkpt>
      <trkpt lat="44.15595" lon="4.98645">
        <ele>149</ele>
        <time>2016-06-30T10:03:10.047Z</time>
      </trkpt>
      <trkpt lat="44.15599" lon="4.98647">
        <ele>149</ele>
        <time>2016-06-30T10:03:11.047Z</time>
      </trkpt>
      <trkpt lat="44.15603" lon="4.98649">
        <ele>149</ele>
        <time>2016-06-30T10:03:12.047Z</time>
      </trkpt>
      <trkpt lat="44.15606" lon="4.9865">
        <ele>150</ele>
        <time>2016-06-30T10:03:13.047Z</time>
      </trkpt>
      <trkpt lat="44.1561" lon="4.98651">
        <ele>150</ele>
        <time>2016-06-30T10:03:14.047Z</time>
      </trkpt>
      <trkpt lat="44.15614" lon="4.98653">
        <ele>150</ele>
        <time>2016-06-30T10:03:15.047Z</time>
      </trkpt>
      <trkpt lat="44.15617" lon="4.98655">
        <ele>150</ele>
        <time>2016-06-30T10:03:16.047Z</time>
      </trkpt>
      <trkpt lat="44.15621" lon="4.98656">
        <ele>150</ele>
        <time>2016-06-30T10:03:17.047Z</time>
      </trkpt>
      <trkpt lat="44.15625" lon="4.98658">
        <ele>150</ele>
        <time>2016-06-30T10:03:18.047Z</time>
      </trkpt>
      <trkpt lat="44.15629" lon="4.98659">
        <ele>150</ele>
        <time>2016-06-30T10:03:19.047Z</time>
      </trkpt>
      <trkpt lat="44.15633" lon="4.98661">
        <ele>150</ele>
        <time>2016-06-30T10:03:20.047Z</time>
      </trkpt>
      <trkpt lat="44.15637" lon="4.98663">
        <ele>150</ele>
        <time>2016-06-30T10:03:21.047Z</time>
      </trkpt>
      <trkpt lat="44.15641" lon="4.98664">
        <ele>151</ele>
        <time>2016-06-30T10:03:22.047Z</time>
      </trkpt>
      <trkpt lat="44.15645" lon="4.98666">
        <ele>151</ele>
        <time>2016-06-30T10:03:23.047Z</time>
      </trkpt>
      <trkpt lat="44.15649" lon="4.98668">
        <ele>151</ele>
        <time>2016-06-30T10:03:24.047Z</time>
      </trkpt>
      <trkpt lat="44.15653" lon="4.9867">
        <ele>151</ele>
        <time>2016-06-30T10:03:25.047Z</time>
      </trkpt>
      <trkpt lat="44.15656" lon="4.98671">
        <ele>151</ele>
        <time>2016-06-30T10:03:26.047Z</time>
      </trkpt>
      <trkpt lat="44.1566" lon="4.98673">
        <ele>151</ele>
        <time>2016-06-30T10:03:27.047Z</time>
      </trkpt>
      <trkpt lat="44.15664" lon="4.98675">
        <ele>152</ele>
        <time>2016-06-30T10:03:28.047Z</time>
      </trkpt>
      <trkpt lat="44.15667" lon="4.98676">
        <ele>152</ele>
        <time>2016-06-30T10:03:29.047Z</time>
      </trkpt>
      <trkpt lat="44.15671" lon="4.98678">
        <ele>152</ele>
        <time>2016-06-30T10:03:30.047Z</time>
      </trkpt>
      <trkpt lat="44.15675" lon="4.98679">
        <ele>152</ele>
        <time>2016-06-30T10:03:31.047Z</time>
      </trkpt>
      <trkpt lat="44.15678" lon="4.9868">
        <ele>152</ele>
        <time>2016-06-30T10:03:32.047Z</time>
      </trkpt>
      <trkpt lat="44.15682" lon="4.98682">
        <ele>152</ele>
        <time>2016-06-30T10:03:33.047Z</time>
      </trkpt>
      <trkpt lat="44.15686" lon="4.98683">
        <ele>152</ele>
        <time>2016-06-30T10:03:34.047Z</time>
      </trkpt>
      <trkpt lat="44.15689" lon="4.98685">
        <ele>152</ele>
        <time>2016-06-30T10:03:35.047Z</time>
      </trkpt>
      <trkpt lat="44.15693" lon="4.98686">
        <ele>152</ele>
        <time>2016-06-30T10:03:36.047Z</time>
      </trkpt>
      <trkpt lat="44.15697" lon="4.98688">
        <ele>152</ele>
        <time>2016-06-30T10:03:37.047Z</time>
      </trkpt>
      <trkpt lat="44.157" lon="4.98689">
        <ele>152</ele>
        <time>2016-06-30T10:03:38.047Z</time>
      </trkpt>
      <trkpt lat="44.15704" lon="4.98691">
        <ele>152</ele>
        <time>2016-06-30T10:03:39.047Z</time>
      </trkpt>
      <trkpt lat="44.15708" lon="4.98693">
        <ele>153</ele>
        <time>2016-06-30T10:03:40.047Z</time>
      </trkpt>
      <trkpt lat="44.15712" lon="4.98694">
        <ele>153</ele>
        <time>2016-06-30T10:03:41.047Z</time>
      </trkpt>
      <trkpt lat="44.15716" lon="4.98696">
        <ele>153</ele>
        <time>2016-06-30T10:03:42.047Z</time>
      </trkpt>
      <trkpt lat="44.1572" lon="4.98698">
        <ele>153</ele>
        <time>2016-06-30T10:03:43.047Z</time>
      </trkpt>
      <trkpt lat="44.15724" lon="4.987">
        <ele>153</ele>
        <time>2016-06-30T10:03:44.047Z</time>
      </trkpt>
      <trkpt lat="44.15727" lon="4.98701">
        <ele>153</ele>
        <time>2016-06-30T10:03:45.047Z</time>
      </trkpt>
      <trkpt lat="44.15731" lon="4.98703">
        <ele>153</ele>
        <time>2016-06-30T10:03:46.047Z</time>
      </trkpt>
      <trkpt lat="44.15735" lon="4.98705">
        <ele>153</ele>
        <time>2016-06-30T10:03:47.047Z</time>
      </trkpt>
      <trkpt lat="44.15739" lon="4.98706">
        <ele>154</ele>
        <time>2016-06-30T10:03:48.047Z</time>
      </trkpt>
      <trkpt lat="44.15743" lon="4.98708">
        <ele>154</ele>
        <time>2016-06-30T10:03:49.047Z</time>
      </trkpt>
      <trkpt lat="44.15747" lon="4.9871">
        <ele>154</ele>
        <time>2016-06-30T10:03:50.047Z</time>
      </trkpt>
      <trkpt lat="44.15751" lon="4.98711">
        <ele>154</ele>
        <time>2016-06-30T10:03:51.047Z</time>
      </trkpt>
      <trkpt lat="44.15755" lon="4.98713">
        <ele>154</ele>
        <time>2016-06-30T10:03:52.047Z</time>
      </trkpt>
      <trkpt lat="44.15759" lon="4.98715">
        <ele>154</ele>
        <time>2016-06-30T10:03:53.047Z</time>
      </trkpt>
      <trkpt lat="44.15762" lon="4.98716">
        <ele>154</ele>
        <time>2016-06-30T10:03:54.047Z</time>
      </trkpt>
      <trkpt lat="44.15766" lon="4.98718">
        <ele>155</ele>
        <time>2016-06-30T10:03:55.047Z</time>
      </trkpt>
      <trkpt lat="44.15771" lon="4.9872">
        <ele>155</ele>
        <time>2016-06-30T10:03:56.047Z</time>
      </trkpt>
      <trkpt lat="44.15775" lon="4.98722">
        <ele>155</ele>
        <time>2016-06-30T10:03:57.047Z</time>
      </trkpt>
      <trkpt lat="44.15779" lon="4.98724">
        <ele>155</ele>
        <time>2016-06-30T10:03:58.047Z</time>
      </trkpt>
      <trkpt lat="44.15783" lon="4.98726">
        <ele>155</ele>
        <time>2016-06-30T10:03:59.047Z</time>
      </trkpt>
      <trkpt lat="44.15787" lon="4.98727">
        <ele>155</ele>
        <time>2016-06-30T10:04:00.047Z</time>
      </trkpt>
      <trkpt lat="44.15791" lon="4.98729">
        <ele>155</ele>
        <time>2016-06-30T10:04:01.047Z</time>
      </trkpt>
      <trkpt lat="44.15795" lon="4.98731">
        <ele>155</ele>
        <time>2016-06-30T10:04:02.047Z</time>
      </trkpt>
      <trkpt lat="44.15798" lon="4.98733">
        <ele>156</ele>
        <time>2016-06-30T10:04:03.047Z</time>
      </trkpt>
      <trkpt lat="44.15803" lon="4.98735">
        <ele>156</ele>
        <time>2016-06-30T10:04:04.047Z</time>
      </trkpt>
      <trkpt lat="44.15807" lon="4.98736">
        <ele>156</ele>
        <time>2016-06-30T10:04:05.047Z</time>
      </trkpt>
      <trkpt lat="44.15811" lon="4.98738">
        <ele>156</ele>
        <time>2016-06-30T10:04:06.047Z</time>
      </trkpt>
      <trkpt lat="44.15815" lon="4.9874">
        <ele>156</ele>
        <time>2016-06-30T10:04:07.047Z</time>
      </trkpt>
      <trkpt lat="44.1582" lon="4.98742">
        <ele>156</ele>
        <time>2016-06-30T10:04:08.047Z</time>
      </trkpt>
      <trkpt lat="44.15824" lon="4.98745">
        <ele>157</ele>
        <time>2016-06-30T10:04:09.047Z</time>
      </trkpt>
      <trkpt lat="44.15829" lon="4.98747">
        <ele>157</ele>
        <time>2016-06-30T10:04:10.047Z</time>
      </trkpt>
      <trkpt lat="44.15833" lon="4.98749">
        <ele>157</ele>
        <time>2016-06-30T10:04:11.047Z</time>
      </trkpt>
      <trkpt lat="44.15837" lon="4.98751">
        <ele>157</ele>
        <time>2016-06-30T10:04:12.047Z</time>
      </trkpt>
      <trkpt lat="44.15842" lon="4.98753">
        <ele>157</ele>
        <time>2016-06-30T10:04:13.047Z</time>
      </trkpt>
      <trkpt lat="44.15846" lon="4.98755">
        <ele>157</ele>
        <time>2016-06-30T10:04:14.047Z</time>
      </trkpt>
      <trkpt lat="44.15851" lon="4.98758">
        <ele>157</ele>
        <time>2016-06-30T10:04:15.047Z</time>
      </trkpt>
      <trkpt lat="44.15855" lon="4.9876">
        <ele>157</ele>
        <time>2016-06-30T10:04:16.047Z</time>
      </trkpt>
      <trkpt lat="44.15859" lon="4.98762">
        <ele>157</ele>
        <time>2016-06-30T10:04:17.047Z</time>
      </trkpt>
      <trkpt lat="44.15864" lon="4.98764">
        <ele>157</ele>
        <time>2016-06-30T10:04:18.047Z</time>
      </trkpt>
      <trkpt lat="44.15868" lon="4.98766">
        <ele>158</ele>
        <time>2016-06-30T10:04:19.047Z</time>
      </trkpt>
      <trkpt lat="44.15873" lon="4.98768">
        <ele>158</ele>
        <time>2016-06-30T10:04:20.047Z</time>
      </trkpt>
      <trkpt lat="44.15878" lon="4.9877">
        <ele>158</ele>
        <time>2016-06-30T10:04:21.047Z</time>
      </trkpt>
      <trkpt lat="44.15882" lon="4.98771">
        <ele>159</ele>
        <time>2016-06-30T10:04:22.047Z</time>
      </trkpt>
      <trkpt lat="44.15887" lon="4.98773">
        <ele>159</ele>
        <time>2016-06-30T10:04:23.047Z</time>
      </trkpt>
      <trkpt lat="44.15891" lon="4.98775">
        <ele>159</ele>
        <time>2016-06-30T10:04:24.047Z</time>
      </trkpt>
      <trkpt lat="44.15895" lon="4.98777">
        <ele>159</ele>
        <time>2016-06-30T10:04:25.047Z</time>
      </trkpt>
      <trkpt lat="44.159" lon="4.98779">
        <ele>159</ele>
        <time>2016-06-30T10:04:26.047Z</time>
      </trkpt>
      <trkpt lat="44.15904" lon="4.9878">
        <ele>159</ele>
        <time>2016-06-30T10:04:27.047Z</time>
      </trkpt>
      <trkpt lat="44.15908" lon="4.98782">
        <ele>158</ele>
        <time>2016-06-30T10:04:28.047Z</time>
      </trkpt>
      <trkpt lat="44.15913" lon="4.98783">
        <ele>158</ele>
        <time>2016-06-30T10:04:29.047Z</time>
      </trkpt>
      <trkpt lat="44.15917" lon="4.98784">
        <ele>159</ele>
        <time>2016-06-30T10:04:30.047Z</time>
      </trkpt>
      <trkpt lat="44.15921" lon="4.98786">
        <ele>159</ele>
        <time>2016-06-30T10:04:31.047Z</time>
      </trkpt>
      <trkpt lat="44.15925" lon="4.98787">
        <ele>159</ele>
        <time>2016-06-30T10:04:32.047Z</time>
      </trkpt>
      <trkpt lat="44.1593" lon="4.98788">
        <ele>160</ele>
        <time>2016-06-30T10:04:33.047Z</time>
      </trkpt>
      <trkpt lat="44.15934" lon="4.98789">
        <ele>159</ele>
        <time>2016-06-30T10:04:34.047Z</time>
      </trkpt>
      <trkpt lat="44.15939" lon="4.9879">
        <ele>159</ele>
        <time>2016-06-30T10:04:35.047Z</time>
      </trkpt>
      <trkpt lat="44.15943" lon="4.98791">
        <ele>159</ele>
        <time>2016-06-30T10:04:36.047Z</time>
      </trkpt>
      <trkpt lat="44.15948" lon="4.98793">
        <ele>160</ele>
        <time>2016-06-30T10:04:37.047Z</time>
      </trkpt>
      <trkpt lat="44.15953" lon="4.98794">
        <ele>160</ele>
        <time>2016-06-30T10:04:38.047Z</time>
      </trkpt>
      <trkpt lat="44.15957" lon="4.98795">
        <ele>160</ele>
        <time>2016-06-30T10:04:39.047Z</time>
      </trkpt>
      <trkpt lat="44.15962" lon="4.98796">
        <ele>160</ele>
        <time>2016-06-30T10:04:40.047Z</time>
      </trkpt>
      <trkpt lat="44.15966" lon="4.98797">
        <ele>160</ele>
        <time>2016-06-30T10:04:41.047Z</time>
      </trkpt>
      <trkpt lat="44.15971" lon="4.98798">
        <ele>160</ele>
        <time>2016-06-30T10:04:42.047Z</time>
      </trkpt>
      <trkpt lat="44.15975" lon="4.98799">
        <ele>160</ele>
        <time>2016-06-30T10:04:43.047Z</time>
      </trkpt>
      <trkpt lat="44.1598" lon="4.988">
        <ele>160</ele>
        <time>2016-06-30T10:04:44.047Z</time>
      </trkpt>
      <trkpt lat="44.15984" lon="4.988">
        <ele>160</ele>
        <time>2016-06-30T10:04:45.047Z</time>
      </trkpt>
      <trkpt lat="44.15989" lon="4.98801">
        <ele>160</ele>
        <time>2016-06-30T10:04:46.047Z</time>
      </trkpt>
      <trkpt lat="44.15994" lon="4.98802">
        <ele>160</ele>
        <time>2016-06-30T10:04:47.047Z</time>
      </trkpt>
      <trkpt lat="44.15999" lon="4.98803">
        <ele>161</ele>
        <time>2016-06-30T10:04:48.047Z</time>
      </trkpt>
      <trkpt lat="44.16003" lon="4.98804">
        <ele>161</ele>
        <time>2016-06-30T10:04:49.047Z</time>
      </trkpt>
      <trkpt lat="44.16008" lon="4.98805">
        <ele>161</ele>
        <time>2016-06-30T10:04:50.047Z</time>
      </trkpt>
      <trkpt lat="44.16013" lon="4.98806">
        <ele>161</ele>
        <time>2016-06-30T10:04:51.047Z</time>
      </trkpt>
      <trkpt lat="44.16017" lon="4.98808">
        <ele>162</ele>
        <time>2016-06-30T10:04:52.047Z</time>
      </trkpt>
      <trkpt lat="44.16022" lon="4.98809">
        <ele>162</ele>
        <time>2016-06-30T10:04:53.047Z</time>
      </trkpt>
      <trkpt lat="44.16026" lon="4.9881">
        <ele>162</ele>
        <time>2016-06-30T10:04:54.047Z</time>
      </trkpt>
      <trkpt lat="44.16031" lon="4.98811">
        <ele>162</ele>
        <time>2016-06-30T10:04:55.047Z</time>
      </trkpt>
      <trkpt lat="44.16035" lon="4.98813">
        <ele>162</ele>
        <time>2016-06-30T10:04:56.047Z</time>
      </trkpt>
      <trkpt lat="44.16039" lon="4.98814">
        <ele>162</ele>
        <time>2016-06-30T10:04:57.047Z</time>
      </trkpt>
      <trkpt lat="44.16044" lon="4.98816">
        <ele>162</ele>
        <time>2016-06-30T10:04:58.047Z</time>
      </trkpt>
      <trkpt lat="44.16048" lon="4.98817">
        <ele>162</ele>
        <time>2016-06-30T10:04:59.047Z</time>
      </trkpt>
      <trkpt lat="44.16053" lon="4.98819">
        <ele>162</ele>
        <time>2016-06-30T10:05:00.047Z</time>
      </trkpt>
      <trkpt lat="44.16057" lon="4.98821">
        <ele>162</ele>
        <time>2016-06-30T10:05:01.047Z</time>
      </trkpt>
      <trkpt lat="44.16061" lon="4.98823">
        <ele>162</ele>
        <time>2016-06-30T10:05:02.047Z</time>
      </trkpt>
      <trkpt lat="44.16065" lon="4.98825">
        <ele>163</ele>
        <time>2016-06-30T10:05:03.047Z</time>
      </trkpt>
      <trkpt lat="44.1607" lon="4.98827">
        <ele>163</ele>
        <time>2016-06-30T10:05:04.047Z</time>
      </trkpt>
      <trkpt lat="44.16074" lon="4.9883">
        <ele>163</ele>
        <time>2016-06-30T10:05:05.047Z</time>
      </trkpt>
      <trkpt lat="44.16078" lon="4.98832">
        <ele>163</ele>
        <time>2016-06-30T10:05:06.047Z</time>
      </trkpt>
      <trkpt lat="44.16082" lon="4.98834">
        <ele>163</ele>
        <time>2016-06-30T10:05:07.047Z</time>
      </trkpt>
      <trkpt lat="44.16086" lon="4.98837">
        <ele>163</ele>
        <time>2016-06-30T10:05:08.047Z</time>
      </trkpt>
      <trkpt lat="44.1609" lon="4.9884">
        <ele>163</ele>
        <time>2016-06-30T10:05:09.047Z</time>
      </trkpt>
      <trkpt lat="44.16094" lon="4.98843">
        <ele>163</ele>
        <time>2016-06-30T10:05:10.047Z</time>
      </trkpt>
      <trkpt lat="44.16098" lon="4.98846">
        <ele>163</ele>
        <time>2016-06-30T10:05:11.047Z</time>
      </trkpt>
      <trkpt lat="44.16103" lon="4.98849">
        <ele>164</ele>
        <time>2016-06-30T10:05:12.047Z</time>
      </trkpt>
      <trkpt lat="44.16107" lon="4.98852">
        <ele>164</ele>
        <time>2016-06-30T10:05:13.047Z</time>
      </trkpt>
      <trkpt lat="44.16111" lon="4.98855">
        <ele>164</ele>
        <time>2016-06-30T10:05:14.047Z</time>
      </trkpt>
      <trkpt lat="44.16115" lon="4.98858">
        <ele>164</ele>
        <time>2016-06-30T10:05:15.047Z</time>
      </trkpt>
      <trkpt lat="44.16119" lon="4.98861">
        <ele>164</ele>
        <time>2016-06-30T10:05:16.047Z</time>
      </trkpt>
      <trkpt lat="44.16123" lon="4.98864">
        <ele>165</ele>
        <time>2016-06-30T10:05:17.047Z</time>
      </trkpt>
      <trkpt lat="44.16127" lon="4.98867">
        <ele>165</ele>
        <time>2016-06-30T10:05:18.047Z</time>
      </trkpt>
      <trkpt lat="44.16131" lon="4.9887">
        <ele>165</ele>
        <time>2016-06-30T10:05:19.047Z</time>
      </trkpt>
      <trkpt lat="44.16135" lon="4.98873">
        <ele>165</ele>
        <time>2016-06-30T10:05:20.047Z</time>
      </trkpt>
      <trkpt lat="44.16139" lon="4.98877">
        <ele>165</ele>
        <time>2016-06-30T10:05:21.047Z</time>
      </trkpt>
      <trkpt lat="44.16143" lon="4.9888">
        <ele>165</ele>
        <time>2016-06-30T10:05:22.047Z</time>
      </trkpt>
      <trkpt lat="44.16146" lon="4.98883">
        <ele>166</ele>
        <time>2016-06-30T10:05:23.047Z</time>
      </trkpt>
      <trkpt lat="44.1615" lon="4.98887">
        <ele>166</ele>
        <time>2016-06-30T10:05:24.047Z</time>
      </trkpt>
      <trkpt lat="44.16154" lon="4.9889">
        <ele>166</ele>
        <time>2016-06-30T10:05:25.047Z</time>
      </trkpt>
      <trkpt lat="44.16158" lon="4.98893">
        <ele>166</ele>
        <time>2016-06-30T10:05:26.047Z</time>
      </trkpt>
      <trkpt lat="44.16162" lon="4.98897">
        <ele>166</ele>
        <time>2016-06-30T10:05:27.047Z</time>
      </trkpt>
      <trkpt lat="44.16166" lon="4.989">
        <ele>167</ele>
        <time>2016-06-30T10:05:28.047Z</time>
      </trkpt>
      <trkpt lat="44.1617" lon="4.98903">
        <ele>167</ele>
        <time>2016-06-30T10:05:29.047Z</time>
      </trkpt>
      <trkpt lat="44.16174" lon="4.98907">
        <ele>167</ele>
        <time>2016-06-30T10:05:30.047Z</time>
      </trkpt>
      <trkpt lat="44.16177" lon="4.9891">
        <ele>167</ele>
        <time>2016-06-30T10:05:31.047Z</time>
      </trkpt>
      <trkpt lat="44.16181" lon="4.98913">
        <ele>167</ele>
        <time>2016-06-30T10:05:32.047Z</time>
      </trkpt>
      <trkpt lat="44.16185" lon="4.98916">
        <ele>167</ele>
        <time>2016-06-30T10:05:33.047Z</time>
      </trkpt>
      <trkpt lat="44.16189" lon="4.9892">
        <ele>167</ele>
        <time>2016-06-30T10:05:34.047Z</time>
      </trkpt>
      <trkpt lat="44.16193" lon="4.98923">
        <ele>167</ele>
        <time>2016-06-30T10:05:35.047Z</time>
      </trkpt>
      <trkpt lat="44.16197" lon="4.98926">
        <ele>168</ele>
        <time>2016-06-30T10:05:36.047Z</time>
      </trkpt>
      <trkpt lat="44.16201" lon="4.9893">
        <ele>168</ele>
        <time>2016-06-30T10:05:37.047Z</time>
      </trkpt>
      <trkpt lat="44.16205" lon="4.98933">
        <ele>168</ele>
        <time>2016-06-30T10:05:38.047Z</time>
      </trkpt>
      <trkpt lat="44.16209" lon="4.98937">
        <ele>168</ele>
        <time>2016-06-30T10:05:39.047Z</time>
      </trkpt>
      <trkpt lat="44.16213" lon="4.9894">
        <ele>168</ele>
        <time>2016-06-30T10:05:40.047Z</time>
      </trkpt>
      <trkpt lat="44.16217" lon="4.98944">
        <ele>168</ele>
        <time>2016-06-30T10:05:41.047Z</time>
      </trkpt>
      <trkpt lat="44.16221" lon="4.98947">
        <ele>168</ele>
        <time>2016-06-30T10:05:42.047Z</time>
      </trkpt>
      <trkpt lat="44.16225" lon="4.98951">
        <ele>169</ele>
        <time>2016-06-30T10:05:43.047Z</time>
      </trkpt>
      <trkpt lat="44.16229" lon="4.98954">
        <ele>169</ele>
        <time>2016-06-30T10:05:44.047Z</time>
      </trkpt>
      <trkpt lat="44.16233" lon="4.98958">
        <ele>169</ele>
        <time>2016-06-30T10:05:45.047Z</time>
      </trkpt>
      <trkpt lat="44.16237" lon="4.98961">
        <ele>169</ele>
        <time>2016-06-30T10:05:46.047Z</time>
      </trkpt>
      <trkpt lat="44.1624" lon="4.98964">
        <ele>169</ele>
        <time>2016-06-30T10:05:47.047Z</time>
      </trkpt>
      <trkpt lat="44.16244" lon="4.98967">
        <ele>170</ele>
        <time>2016-06-30T10:05:48.047Z</time>
      </trkpt>
      <trkpt lat="44.16248" lon="4.9897">
        <ele>170</ele>
        <time>2016-06-30T10:05:49.047Z</time>
      </trkpt>
      <trkpt lat="44.16252" lon="4.98974">
        <ele>170</ele>
        <time>2016-06-30T10:05:50.047Z</time>
      </trkpt>
      <trkpt lat="44.16255" lon="4.98977">
        <ele>170</ele>
        <time>2016-06-30T10:05:51.047Z</time>
      </trkpt>
      <trkpt lat="44.16259" lon="4.9898">
        <ele>170</ele>
        <time>2016-06-30T10:05:52.047Z</time>
      </trkpt>
      <trkpt lat="44.16263" lon="4.98983">
        <ele>170</ele>
        <time>2016-06-30T10:05:53.047Z</time>
      </trkpt>
      <trkpt lat="44.16267" lon="4.98986">
        <ele>170</ele>
        <time>2016-06-30T10:05:54.047Z</time>
      </trkpt>
      <trkpt lat="44.1627" lon="4.9899">
        <ele>171</ele>
        <time>2016-06-30T10:05:55.047Z</time>
      </trkpt>
      <trkpt lat="44.16274" lon="4.98993">
        <ele>171</ele>
        <time>2016-06-30T10:05:56.047Z</time>
      </trkpt>
      <trkpt lat="44.16278" lon="4.98997">
        <ele>171</ele>
        <time>2016-06-30T10:05:57.047Z</time>
      </trkpt>
      <trkpt lat="44.16282" lon="4.99">
        <ele>171</ele>
        <time>2016-06-30T10:05:58.047Z</time>
      </trkpt>
      <trkpt lat="44.16286" lon="4.99003">
        <ele>172</ele>
        <time>2016-06-30T10:05:59.047Z</time>
      </trkpt>
      <trkpt lat="44.1629" lon="4.99007">
        <ele>172</ele>
        <time>2016-06-30T10:06:00.047Z</time>
      </trkpt>
      <trkpt lat="44.16293" lon="4.9901">
        <ele>172</ele>
        <time>2016-06-30T10:06:01.047Z</time>
      </trkpt>
      <trkpt lat="44.16297" lon="4.99013">
        <ele>172</ele>
        <time>2016-06-30T10:06:02.047Z</time>
      </trkpt>
      <trkpt lat="44.16301" lon="4.99016">
        <ele>173</ele>
        <time>2016-06-30T10:06:03.047Z</time>
      </trkpt>
      <trkpt lat="44.16304" lon="4.9902">
        <ele>173</ele>
        <time>2016-06-30T10:06:04.047Z</time>
      </trkpt>
      <trkpt lat="44.16308" lon="4.99023">
        <ele>173</ele>
        <time>2016-06-30T10:06:05.047Z</time>
      </trkpt>
      <trkpt lat="44.16312" lon="4.99026">
        <ele>173</ele>
        <time>2016-06-30T10:06:06.047Z</time>
      </trkpt>
      <trkpt lat="44.16316" lon="4.99029">
        <ele>173</ele>
        <time>2016-06-30T10:06:07.047Z</time>
      </trkpt>
      <trkpt lat="44.16319" lon="4.99032">
        <ele>173</ele>
        <time>2016-06-30T10:06:08.047Z</time>
      </trkpt>
      <trkpt lat="44.16323" lon="4.99035">
        <ele>173</ele>
        <time>2016-06-30T10:06:09.047Z</time>
      </trkpt>
      <trkpt lat="44.16327" lon="4.99039">
        <ele>174</ele>
        <time>2016-06-30T10:06:10.047Z</time>
      </trkpt>
      <trkpt lat="44.1633" lon="4.99042">
        <ele>174</ele>
        <time>2016-06-30T10:06:11.047Z</time>
      </trkpt>
      <trkpt lat="44.16334" lon="4.99045">
        <ele>174</ele>
        <time>2016-06-30T10:06:12.047Z</time>
      </trkpt>
      <trkpt lat="44.16338" lon="4.99048">
        <ele>174</ele>
        <time>2016-06-30T10:06:13.047Z</time>
      </trkpt>
      <trkpt lat="44.16341" lon="4.99051">
        <ele>174</ele>
        <time>2016-06-30T10:06:14.047Z</time>
      </trkpt>
      <trkpt lat="44.16345" lon="4.99054">
        <ele>174</ele>
        <time>2016-06-30T10:06:15.047Z</time>
      </trkpt>
      <trkpt lat="44.16348" lon="4.99056">
        <ele>174</ele>
        <time>2016-06-30T10:06:16.047Z</time>
      </trkpt>
      <trkpt lat="44.16351" lon="4.99059">
        <ele>174</ele>
        <time>2016-06-30T10:06:17.047Z</time>
      </trkpt>
      <trkpt lat="44.16355" lon="4.99062">
        <ele>175</ele>
        <time>2016-06-30T10:06:18.047Z</time>
      </trkpt>
      <trkpt lat="44.16359" lon="4.99066">
        <ele>175</ele>
        <time>2016-06-30T10:06:19.047Z</time>
      </trkpt>
      <trkpt lat="44.16363" lon="4.99069">
        <ele>175</ele>
        <time>2016-06-30T10:06:20.047Z</time>
      </trkpt>
      <trkpt lat="44.16367" lon="4.99073">
        <ele>176</ele>
        <time>2016-06-30T10:06:21.047Z</time>
      </trkpt>
      <trkpt lat="44.16371" lon="4.99076">
        <ele>176</ele>
        <time>2016-06-30T10:06:22.047Z</time>
      </trkpt>
      <trkpt lat="44.16375" lon="4.9908">
        <ele>176</ele>
        <time>2016-06-30T10:06:23.047Z</time>
      </trkpt>
      <trkpt lat="44.16379" lon="4.99083">
        <ele>176</ele>
        <time>2016-06-30T10:06:24.047Z</time>
      </trkpt>
      <trkpt lat="44.16383" lon="4.99087">
        <ele>176</ele>
        <time>2016-06-30T10:06:25.047Z</time>
      </trkpt>
      <trkpt lat="44.16387" lon="4.9909">
        <ele>176</ele>
        <time>2016-06-30T10:06:26.047Z</time>
      </trkpt>
      <trkpt lat="44.16392" lon="4.99094">
        <ele>177</ele>
        <time>2016-06-30T10:06:27.047Z</time>
      </trkpt>
      <trkpt lat="44.16396" lon="4.99097">
        <ele>177</ele>
        <time>2016-06-30T10:06:28.047Z</time>
      </trkpt>
      <trkpt lat="44.16399" lon="4.991">
        <ele>177</ele>
        <time>2016-06-30T10:06:29.047Z</time>
      </trkpt>
      <trkpt lat="44.16403" lon="4.99104">
        <ele>177</ele>
        <time>2016-06-30T10:06:30.047Z</time>
      </trkpt>
      <trkpt lat="44.16407" lon="4.99107">
        <ele>177</ele>
        <time>2016-06-30T10:06:31.047Z</time>
      </trkpt>
      <trkpt lat="44.1641" lon="4.9911">
        <ele>177</ele>
        <time>2016-06-30T10:06:32.047Z</time>
      </trkpt>
      <trkpt lat="44.16414" lon="4.99113">
        <ele>178</ele>
        <time>2016-06-30T10:06:33.047Z</time>
      </trkpt>
      <trkpt lat="44.16418" lon="4.99116">
        <ele>178</ele>
        <time>2016-06-30T10:06:34.047Z</time>
      </trkpt>
      <trkpt lat="44.16422" lon="4.9912">
        <ele>178</ele>
        <time>2016-06-30T10:06:35.047Z</time>
      </trkpt>
      <trkpt lat="44.16426" lon="4.99123">
        <ele>178</ele>
        <time>2016-06-30T10:06:36.047Z</time>
      </trkpt>
      <trkpt lat="44.1643" lon="4.99126">
        <ele>178</ele>
        <time>2016-06-30T10:06:37.047Z</time>
      </trkpt>
      <trkpt lat="44.16433" lon="4.99129">
        <ele>179</ele>
        <time>2016-06-30T10:06:38.047Z</time>
      </trkpt>
      <trkpt lat="44.16436" lon="4.99132">
        <ele>179</ele>
        <time>2016-06-30T10:06:39.047Z</time>
      </trkpt>
      <trkpt lat="44.16439" lon="4.99134">
        <ele>179</ele>
        <time>2016-06-30T10:06:40.047Z</time>
      </trkpt>
      <trkpt lat="44.16443" lon="4.99137">
        <ele>179</ele>
        <time>2016-06-30T10:06:41.047Z</time>
      </trkpt>
      <trkpt lat="44.16446" lon="4.9914">
        <ele>179</ele>
        <time>2016-06-30T10:06:42.047Z</time>
      </trkpt>
      <trkpt lat="44.1645" lon="4.99143">
        <ele>179</ele>
        <time>2016-06-30T10:06:43.047Z</time>
      </trkpt>
      <trkpt lat="44.16454" lon="4.99147">
        <ele>180</ele>
        <time>2016-06-30T10:06:44.047Z</time>
      </trkpt>
      <trkpt lat="44.16458" lon="4.9915">
        <ele>180</ele>
        <time>2016-06-30T10:06:45.047Z</time>
      </trkpt>
      <trkpt lat="44.16462" lon="4.99154">
        <ele>180</ele>
        <time>2016-06-30T10:06:46.047Z</time>
      </trkpt>
      <trkpt lat="44.16466" lon="4.99157">
        <ele>181</ele>
        <time>2016-06-30T10:06:47.047Z</time>
      </trkpt>
      <trkpt lat="44.1647" lon="4.99161">
        <ele>181</ele>
        <time>2016-06-30T10:06:48.047Z</time>
      </trkpt>
      <trkpt lat="44.16474" lon="4.99164">
        <ele>181</ele>
        <time>2016-06-30T10:06:49.047Z</time>
      </trkpt>
      <trkpt lat="44.16478" lon="4.99168">
        <ele>181</ele>
        <time>2016-06-30T10:06:50.047Z</time>
      </trkpt>
      <trkpt lat="44.16482" lon="4.99171">
        <ele>181</ele>
        <time>2016-06-30T10:06:51.047Z</time>
      </trkpt>
      <trkpt lat="44.16486" lon="4.99174">
        <ele>181</ele>
        <time>2016-06-30T10:06:52.047Z</time>
      </trkpt>
      <trkpt lat="44.1649" lon="4.99178">
        <ele>182</ele>
        <time>2016-06-30T10:06:53.047Z</time>
      </trkpt>
      <trkpt lat="44.16494" lon="4.99181">
        <ele>182</ele>
        <time>2016-06-30T10:06:54.047Z</time>
      </trkpt>
      <trkpt lat="44.16498" lon="4.99185">
        <ele>182</ele>
        <time>2016-06-30T10:06:55.047Z</time>
      </trkpt>
      <trkpt lat="44.16502" lon="4.99188">
        <ele>182</ele>
        <time>2016-06-30T10:06:56.047Z</time>
      </trkpt>
      <trkpt lat="44.16505" lon="4.99191">
        <ele>182</ele>
        <time>2016-06-30T10:06:57.047Z</time>
      </trkpt>
      <trkpt lat="44.16509" lon="4.99194">
        <ele>182</ele>
        <time>2016-06-30T10:06:58.047Z</time>
      </trkpt>
      <trkpt lat="44.16513" lon="4.99198">
        <ele>182</ele>
        <time>2016-06-30T10:06:59.047Z</time>
      </trkpt>
      <trkpt lat="44.16517" lon="4.99201">
        <ele>183</ele>
        <time>2016-06-30T10:07:00.047Z</time>
      </trkpt>
      <trkpt lat="44.16521" lon="4.99204">
        <ele>183</ele>
        <time>2016-06-30T10:07:01.047Z</time>
      </trkpt>
      <trkpt lat="44.16525" lon="4.99207">
        <ele>183</ele>
        <time>2016-06-30T10:07:02.047Z</time>
      </trkpt>
      <trkpt lat="44.16529" lon="4.99211">
        <ele>183</ele>
        <time>2016-06-30T10:07:03.047Z</time>
      </trkpt>
      <trkpt lat="44.16533" lon="4.99214">
        <ele>183</ele>
        <time>2016-06-30T10:07:04.047Z</time>
      </trkpt>
      <trkpt lat="44.16537" lon="4.99218">
        <ele>183</ele>
        <time>2016-06-30T10:07:05.047Z</time>
      </trkpt>
      <trkpt lat="44.1654" lon="4.99221">
        <ele>183</ele>
        <time>2016-06-30T10:07:06.047Z</time>
      </trkpt>
      <trkpt lat="44.16544" lon="4.99225">
        <ele>184</ele>
        <time>2016-06-30T10:07:07.047Z</time>
      </trkpt>
      <trkpt lat="44.16548" lon="4.99228">
        <ele>184</ele>
        <time>2016-06-30T10:07:08.047Z</time>
      </trkpt>
      <trkpt lat="44.16551" lon="4.99231">
        <ele>184</ele>
        <time>2016-06-30T10:07:09.047Z</time>
      </trkpt>
      <trkpt lat="44.16555" lon="4.99234">
        <ele>184</ele>
        <time>2016-06-30T10:07:10.047Z</time>
      </trkpt>
      <trkpt lat="44.16559" lon="4.99237">
        <ele>184</ele>
        <time>2016-06-30T10:07:11.047Z</time>
      </trkpt>
      <trkpt lat="44.16562" lon="4.9924">
        <ele>185</ele>
        <time>2016-06-30T10:07:12.047Z</time>
      </trkpt>
      <trkpt lat="44.16566" lon="4.99243">
        <ele>185</ele>
        <time>2016-06-30T10:07:13.047Z</time>
      </trkpt>
      <trkpt lat="44.1657" lon="4.99246">
        <ele>185</ele>
        <time>2016-06-30T10:07:14.047Z</time>
      </trkpt>
      <trkpt lat="44.16574" lon="4.99249">
        <ele>185</ele>
        <time>2016-06-30T10:07:15.047Z</time>
      </trkpt>
      <trkpt lat="44.16578" lon="4.99253">
        <ele>185</ele>
        <time>2016-06-30T10:07:16.047Z</time>
      </trkpt>
      <trkpt lat="44.16582" lon="4.99256">
        <ele>185</ele>
        <time>2016-06-30T10:07:17.047Z</time>
      </trkpt>
      <trkpt lat="44.16586" lon="4.99259">
        <ele>185</ele>
        <time>2016-06-30T10:07:18.047Z</time>
      </trkpt>
      <trkpt lat="44.16589" lon="4.99263">
        <ele>185</ele>
        <time>2016-06-30T10:07:19.047Z</time>
      </trkpt>
      <trkpt lat="44.16593" lon="4.99266">
        <ele>185</ele>
        <time>2016-06-30T10:07:20.047Z</time>
      </trkpt>
      <trkpt lat="44.16596" lon="4.99269">
        <ele>185</ele>
        <time>2016-06-30T10:07:21.047Z</time>
      </trkpt>
      <trkpt lat="44.166" lon="4.99272">
        <ele>185</ele>
        <time>2016-06-30T10:07:22.047Z</time>
      </trkpt>
      <trkpt lat="44.16603" lon="4.99275">
        <ele>185</ele>
        <time>2016-06-30T10:07:23.047Z</time>
      </trkpt>
      <trkpt lat="44.16606" lon="4.99277">
        <ele>185</ele>
        <time>2016-06-30T10:07:24.047Z</time>
      </trkpt>
      <trkpt lat="44.16609" lon="4.9928">
        <ele>185</ele>
        <time>2016-06-30T10:07:25.047Z</time>
      </trkpt>
      <trkpt lat="44.16612" lon="4.99283">
        <ele>185</ele>
        <time>2016-06-30T10:07:26.047Z</time>
      </trkpt>
      <trkpt lat="44.16615" lon="4.99285">
        <ele>185</ele>
        <time>2016-06-30T10:07:27.047Z</time>
      </trkpt>
      <trkpt lat="44.16618" lon="4.99287">
        <ele>185</ele>
        <time>2016-06-30T10:07:28.047Z</time>
      </trkpt>
      <trkpt lat="44.1662" lon="4.99289">
        <ele>185</ele>
        <time>2016-06-30T10:07:29.047Z</time>
      </trkpt>
      <trkpt lat="44.16623" lon="4.99292">
        <ele>185</ele>
        <time>2016-06-30T10:07:30.047Z</time>
      </trkpt>
      <trkpt lat="44.16626" lon="4.99294">
        <ele>185</ele>
        <time>2016-06-30T10:07:31.047Z</time>
      </trkpt>
      <trkpt lat="44.16629" lon="4.99297">
        <ele>185</ele>
        <time>2016-06-30T10:07:32.047Z</time>
      </trkpt>
      <trkpt lat="44.16633" lon="4.99301">
        <ele>185</ele>
        <time>2016-06-30T10:07:33.047Z</time>
      </trkpt>
      <trkpt lat="44.16637" lon="4.99304">
        <ele>185</ele>
        <time>2016-06-30T10:07:34.047Z</time>
      </trkpt>
      <trkpt lat="44.1664" lon="4.99308">
        <ele>185</ele>
        <time>2016-06-30T10:07:35.047Z</time>
      </trkpt>
      <trkpt lat="44.16645" lon="4.99311">
        <ele>185</ele>
        <time>2016-06-30T10:07:36.047Z</time>
      </trkpt>
      <trkpt lat="44.16649" lon="4.99314">
        <ele>185</ele>
        <time>2016-06-30T10:07:37.047Z</time>
      </trkpt>
      <trkpt lat="44.16652" lon="4.99317">
        <ele>185</ele>
        <time>2016-06-30T10:07:38.047Z</time>
      </trkpt>
      <trkpt lat="44.16656" lon="4.99321">
        <ele>185</ele>
        <time>2016-06-30T10:07:39.047Z</time>
      </trkpt>
      <trkpt lat="44.1666" lon="4.99324">
        <ele>185</ele>
        <time>2016-06-30T10:07:40.047Z</time>
      </trkpt>
      <trkpt lat="44.16664" lon="4.99327">
        <ele>185</ele>
        <time>2016-06-30T10:07:41.047Z</time>
      </trkpt>
      <trkpt lat="44.16667" lon="4.9933">
        <ele>185</ele>
        <time>2016-06-30T10:07:42.047Z</time>
      </trkpt>
      <trkpt lat="44.16671" lon="4.99333">
        <ele>186</ele>
        <time>2016-06-30T10:07:43.047Z</time>
      </trkpt>
      <trkpt lat="44.16675" lon="4.99336">
        <ele>186</ele>
        <time>2016-06-30T10:07:44.047Z</time>
      </trkpt>
      <trkpt lat="44.16679" lon="4.9934">
        <ele>186</ele>
        <time>2016-06-30T10:07:45.047Z</time>
      </trkpt>
      <trkpt lat="44.16683" lon="4.99343">
        <ele>186</ele>
        <time>2016-06-30T10:07:46.047Z</time>
      </trkpt>
      <trkpt lat="44.16687" lon="4.99346">
        <ele>185</ele>
        <time>2016-06-30T10:07:47.047Z</time>
      </trkpt>
      <trkpt lat="44.1669" lon="4.99349">
        <ele>186</ele>
        <time>2016-06-30T10:07:48.047Z</time>
      </trkpt>
      <trkpt lat="44.16694" lon="4.99352">
        <ele>186</ele>
        <time>2016-06-30T10:07:49.047Z</time>
      </trkpt>
      <trkpt lat="44.16698" lon="4.99355">
        <ele>186</ele>
        <time>2016-06-30T10:07:50.047Z</time>
      </trkpt>
      <trkpt lat="44.16701" lon="4.99359">
        <ele>186</ele>
        <time>2016-06-30T10:07:51.047Z</time>
      </trkpt>
      <trkpt lat="44.16705" lon="4.99362">
        <ele>186</ele>
        <time>2016-06-30T10:07:52.047Z</time>
      </trkpt>
      <trkpt lat="44.16709" lon="4.99365">
        <ele>186</ele>
        <time>2016-06-30T10:07:53.047Z</time>
      </trkpt>
      <trkpt lat="44.16712" lon="4.99368">
        <ele>186</ele>
        <time>2016-06-30T10:07:54.047Z</time>
      </trkpt>
      <trkpt lat="44.16716" lon="4.99371">
        <ele>186</ele>
        <time>2016-06-30T10:07:55.047Z</time>
      </trkpt>
      <trkpt lat="44.1672" lon="4.99374">
        <ele>186</ele>
        <time>2016-06-30T10:07:56.047Z</time>
      </trkpt>
      <trkpt lat="44.16724" lon="4.99378">
        <ele>186</ele>
        <time>2016-06-30T10:07:57.047Z</time>
      </trkpt>
      <trkpt lat="44.16728" lon="4.99382">
        <ele>186</ele>
        <time>2016-06-30T10:07:58.047Z</time>
      </trkpt>
      <trkpt lat="44.16731" lon="4.99386">
        <ele>186</ele>
        <time>2016-06-30T10:07:59.047Z</time>
      </trkpt>
      <trkpt lat="44.16735" lon="4.9939">
        <ele>187</ele>
        <time>2016-06-30T10:08:00.047Z</time>
      </trkpt>
      <trkpt lat="44.16738" lon="4.99394">
        <ele>187</ele>
        <time>2016-06-30T10:08:01.047Z</time>
      </trkpt>
      <trkpt lat="44.16742" lon="4.99398">
        <ele>187</ele>
        <time>2016-06-30T10:08:02.047Z</time>
      </trkpt>
      <trkpt lat="44.16745" lon="4.99402">
        <ele>187</ele>
        <time>2016-06-30T10:08:03.047Z</time>
      </trkpt>
      <trkpt lat="44.16749" lon="4.99407">
        <ele>187</ele>
        <time>2016-06-30T10:08:04.047Z</time>
      </trkpt>
      <trkpt lat="44.16752" lon="4.99411">
        <ele>187</ele>
        <time>2016-06-30T10:08:05.047Z</time>
      </trkpt>
      <trkpt lat="44.16756" lon="4.99415">
        <ele>187</ele>
        <time>2016-06-30T10:08:06.047Z</time>
      </trkpt>
      <trkpt lat="44.16759" lon="4.99419">
        <ele>187</ele>
        <time>2016-06-30T10:08:07.047Z</time>
      </trkpt>
      <trkpt lat="44.16762" lon="4.99423">
        <ele>187</ele>
        <time>2016-06-30T10:08:08.047Z</time>
      </trkpt>
      <trkpt lat="44.16765" lon="4.99427">
        <ele>188</ele>
        <time>2016-06-30T10:08:09.047Z</time>
      </trkpt>
      <trkpt lat="44.16768" lon="4.99432">
        <ele>188</ele>
        <time>2016-06-30T10:08:10.047Z</time>
      </trkpt>
      <trkpt lat="44.16771" lon="4.99436">
        <ele>188</ele>
        <time>2016-06-30T10:08:11.047Z</time>
      </trkpt>
      <trkpt lat="44.16774" lon="4.99441">
        <ele>188</ele>
        <time>2016-06-30T10:08:12.047Z</time>
      </trkpt>
      <trkpt lat="44.16776" lon="4.99445">
        <ele>188</ele>
        <time>2016-06-30T10:08:13.047Z</time>
      </trkpt>
      <trkpt lat="44.16779" lon="4.9945">
        <ele>189</ele>
        <time>2016-06-30T10:08:14.047Z</time>
      </trkpt>
      <trkpt lat="44.16782" lon="4.99455">
        <ele>189</ele>
        <time>2016-06-30T10:08:15.047Z</time>
      </trkpt>
      <trkpt lat="44.16785" lon="4.9946">
        <ele>189</ele>
        <time>2016-06-30T10:08:16.047Z</time>
      </trkpt>
      <trkpt lat="44.16788" lon="4.99464">
        <ele>189</ele>
        <time>2016-06-30T10:08:17.047Z</time>
      </trkpt>
      <trkpt lat="44.16791" lon="4.99469">
        <ele>189</ele>
        <time>2016-06-30T10:08:18.047Z</time>
      </trkpt>
      <trkpt lat="44.16794" lon="4.99474">
        <ele>189</ele>
        <time>2016-06-30T10:08:19.047Z</time>
      </trkpt>
      <trkpt lat="44.16796" lon="4.99479">
        <ele>189</ele>
        <time>2016-06-30T10:08:20.047Z</time>
      </trkpt>
      <trkpt lat="44.16799" lon="4.99485">
        <ele>189</ele>
        <time>2016-06-30T10:08:21.047Z</time>
      </trkpt>
      <trkpt lat="44.16802" lon="4.9949">
        <ele>189</ele>
        <time>2016-06-30T10:08:22.047Z</time>
      </trkpt>
      <trkpt lat="44.16805" lon="4.99495">
        <ele>189</ele>
        <time>2016-06-30T10:08:23.047Z</time>
      </trkpt>
      <trkpt lat="44.16808" lon="4.995">
        <ele>189</ele>
        <time>2016-06-30T10:08:24.047Z</time>
      </trkpt>
      <trkpt lat="44.16811" lon="4.99505">
        <ele>190</ele>
        <time>2016-06-30T10:08:25.047Z</time>
      </trkpt>
      <trkpt lat="44.16814" lon="4.9951">
        <ele>190</ele>
        <time>2016-06-30T10:08:26.047Z</time>
      </trkpt>
      <trkpt lat="44.16817" lon="4.99515">
        <ele>190</ele>
        <time>2016-06-30T10:08:27.047Z</time>
      </trkpt>
      <trkpt lat="44.1682" lon="4.9952">
        <ele>190</ele>
        <time>2016-06-30T10:08:28.047Z</time>
      </trkpt>
      <trkpt lat="44.16823" lon="4.99525">
        <ele>190</ele>
        <time>2016-06-30T10:08:29.047Z</time>
      </trkpt>
      <trkpt lat="44.16826" lon="4.9953">
        <ele>190</ele>
        <time>2016-06-30T10:08:30.047Z</time>
      </trkpt>
      <trkpt lat="44.16828" lon="4.99536">
        <ele>190</ele>
        <time>2016-06-30T10:08:31.047Z</time>
      </trkpt>
      <trkpt lat="44.16831" lon="4.99541">
        <ele>190</ele>
        <time>2016-06-30T10:08:32.047Z</time>
      </trkpt>
      <trkpt lat="44.16834" lon="4.99546">
        <ele>190</ele>
        <time>2016-06-30T10:08:33.047Z</time>
      </trkpt>
      <trkpt lat="44.16837" lon="4.99551">
        <ele>190</ele>
        <time>2016-06-30T10:08:34.047Z</time>
      </trkpt>
      <trkpt lat="44.16839" lon="4.99556">
        <ele>190</ele>
        <time>2016-06-30T10:08:35.047Z</time>
      </trkpt>
      <trkpt lat="44.16842" lon="4.99561">
        <ele>190</ele>
        <time>2016-06-30T10:08:36.047Z</time>
      </trkpt>
      <trkpt lat="44.16845" lon="4.99566">
        <ele>190</ele>
        <time>2016-06-30T10:08:37.047Z</time>
      </trkpt>
      <trkpt lat="44.16847" lon="4.99571">
        <ele>190</ele>
        <time>2016-06-30T10:08:38.047Z</time>
      </trkpt>
      <trkpt lat="44.1685" lon="4.99576">
        <ele>190</ele>
        <time>2016-06-30T10:08:39.047Z</time>
      </trkpt>
      <trkpt lat="44.16853" lon="4.99581">
        <ele>190</ele>
        <time>2016-06-30T10:08:40.047Z</time>
      </trkpt>
      <trkpt lat="44.16856" lon="4.99587">
        <ele>190</ele>
        <time>2016-06-30T10:08:41.047Z</time>
      </trkpt>
      <trkpt lat="44.16859" lon="4.99592">
        <ele>190</ele>
        <time>2016-06-30T10:08:42.047Z</time>
      </trkpt>
      <trkpt lat="44.16862" lon="4.99597">
        <ele>190</ele>
        <time>2016-06-30T10:08:43.047Z</time>
      </trkpt>
      <trkpt lat="44.16866" lon="4.99601">
        <ele>190</ele>
        <time>2016-06-30T10:08:44.047Z</time>
      </trkpt>
      <trkpt lat="44.16869" lon="4.99605">
        <ele>190</ele>
        <time>2016-06-30T10:08:45.047Z</time>
      </trkpt>
      <trkpt lat="44.16872" lon="4.99609">
        <ele>191</ele>
        <time>2016-06-30T10:08:46.047Z</time>
      </trkpt>
      <trkpt lat="44.16876" lon="4.99613">
        <ele>191</ele>
        <time>2016-06-30T10:08:47.047Z</time>
      </trkpt>
      <trkpt lat="44.1688" lon="4.99616">
        <ele>191</ele>
        <time>2016-06-30T10:08:48.047Z</time>
      </trkpt>
      <trkpt lat="44.16885" lon="4.9962">
        <ele>191</ele>
        <time>2016-06-30T10:08:49.047Z</time>
      </trkpt>
      <trkpt lat="44.16889" lon="4.99623">
        <ele>191</ele>
        <time>2016-06-30T10:08:50.047Z</time>
      </trkpt>
      <trkpt lat="44.16893" lon="4.99626">
        <ele>192</ele>
        <time>2016-06-30T10:08:51.047Z</time>
      </trkpt>
      <trkpt lat="44.16897" lon="4.99629">
        <ele>192</ele>
        <time>2016-06-30T10:08:52.047Z</time>
      </trkpt>
      <trkpt lat="44.16901" lon="4.99632">
        <ele>192</ele>
        <time>2016-06-30T10:08:53.047Z</time>
      </trkpt>
      <trkpt lat="44.16906" lon="4.99635">
        <ele>192</ele>
        <time>2016-06-30T10:08:54.047Z</time>
      </trkpt>
      <trkpt lat="44.1691" lon="4.99638">
        <ele>192</ele>
        <time>2016-06-30T10:08:55.047Z</time>
      </trkpt>
      <trkpt lat="44.16914" lon="4.99641">
        <ele>192</ele>
        <time>2016-06-30T10:08:56.047Z</time>
      </trkpt>
      <trkpt lat="44.16918" lon="4.99645">
        <ele>192</ele>
        <time>2016-06-30T10:08:57.047Z</time>
      </trkpt>
      <trkpt lat="44.16922" lon="4.99648">
        <ele>192</ele>
        <time>2016-06-30T10:08:58.047Z</time>
      </trkpt>
      <trkpt lat="44.16926" lon="4.99651">
        <ele>192</ele>
        <time>2016-06-30T10:08:59.047Z</time>
      </trkpt>
      <trkpt lat="44.1693" lon="4.99654">
        <ele>193</ele>
        <time>2016-06-30T10:09:00.047Z</time>
      </trkpt>
      <trkpt lat="44.16935" lon="4.99658">
        <ele>193</ele>
        <time>2016-06-30T10:09:01.047Z</time>
      </trkpt>
      <trkpt lat="44.16939" lon="4.99661">
        <ele>193</ele>
        <time>2016-06-30T10:09:02.047Z</time>
      </trkpt>
      <trkpt lat="44.16943" lon="4.99664">
        <ele>193</ele>
        <time>2016-06-30T10:09:03.047Z</time>
      </trkpt>
      <trkpt lat="44.16946" lon="4.99667">
        <ele>193</ele>
        <time>2016-06-30T10:09:04.047Z</time>
      </trkpt>
      <trkpt lat="44.1695" lon="4.9967">
        <ele>193</ele>
        <time>2016-06-30T10:09:05.047Z</time>
      </trkpt>
      <trkpt lat="44.16954" lon="4.99673">
        <ele>194</ele>
        <time>2016-06-30T10:09:06.047Z</time>
      </trkpt>
      <trkpt lat="44.16958" lon="4.99676">
        <ele>194</ele>
        <time>2016-06-30T10:09:07.047Z</time>
      </trkpt>
      <trkpt lat="44.16962" lon="4.9968">
        <ele>194</ele>
        <time>2016-06-30T10:09:08.047Z</time>
      </trkpt>
      <trkpt lat="44.16966" lon="4.99683">
        <ele>194</ele>
        <time>2016-06-30T10:09:09.047Z</time>
      </trkpt>
      <trkpt lat="44.1697" lon="4.99686">
        <ele>194</ele>
        <time>2016-06-30T10:09:10.047Z</time>
      </trkpt>
      <trkpt lat="44.16974" lon="4.99689">
        <ele>195</ele>
        <time>2016-06-30T10:09:11.047Z</time>
      </trkpt>
      <trkpt lat="44.16978" lon="4.99693">
        <ele>195</ele>
        <time>2016-06-30T10:09:12.047Z</time>
      </trkpt>
      <trkpt lat="44.16982" lon="4.99696">
        <ele>195</ele>
        <time>2016-06-30T10:09:13.047Z</time>
      </trkpt>
      <trkpt lat="44.16985" lon="4.997">
        <ele>195</ele>
        <time>2016-06-30T10:09:14.047Z</time>
      </trkpt>
      <trkpt lat="44.16989" lon="4.99703">
        <ele>195</ele>
        <time>2016-06-30T10:09:15.047Z</time>
      </trkpt>
      <trkpt lat="44.16992" lon="4.99707">
        <ele>196</ele>
        <time>2016-06-30T10:09:16.047Z</time>
      </trkpt>
      <trkpt lat="44.16995" lon="4.99711">
        <ele>196</ele>
        <time>2016-06-30T10:09:17.047Z</time>
      </trkpt>
      <trkpt lat="44.16998" lon="4.99715">
        <ele>196</ele>
        <time>2016-06-30T10:09:18.047Z</time>
      </trkpt>
      <trkpt lat="44.17001" lon="4.99719">
        <ele>196</ele>
        <time>2016-06-30T10:09:19.047Z</time>
      </trkpt>
      <trkpt lat="44.17004" lon="4.99722">
        <ele>196</ele>
        <time>2016-06-30T10:09:20.047Z</time>
      </trkpt>
      <trkpt lat="44.17007" lon="4.99724">
        <ele>196</ele>
        <time>2016-06-30T10:09:21.047Z</time>
      </trkpt>
      <trkpt lat="44.1701" lon="4.99726">
        <ele>196</ele>
        <time>2016-06-30T10:09:22.047Z</time>
      </trkpt>
      <trkpt lat="44.17013" lon="4.99728">
        <ele>196</ele>
        <time>2016-06-30T10:09:23.047Z</time>
      </trkpt>
      <trkpt lat="44.17015" lon="4.9973">
        <ele>196</ele>
        <time>2016-06-30T10:09:24.047Z</time>
      </trkpt>
      <trkpt lat="44.17018" lon="4.99733">
        <ele>196</ele>
        <time>2016-06-30T10:09:25.047Z</time>
      </trkpt>
      <trkpt lat="44.1702" lon="4.99735">
        <ele>196</ele>
        <time>2016-06-30T10:09:26.047Z</time>
      </trkpt>
      <trkpt lat="44.17022" lon="4.99736">
        <ele>197</ele>
        <time>2016-06-30T10:09:27.047Z</time>
      </trkpt>
      <trkpt lat="44.17024" lon="4.99737">
        <ele>196</ele>
        <time>2016-06-30T10:09:28.047Z</time>
      </trkpt>
      <trkpt lat="44.17026" lon="4.99737">
        <ele>196</ele>
        <time>2016-06-30T10:09:29.047Z</time>
      </trkpt>
      <trkpt lat="44.17028" lon="4.99736">
        <ele>196</ele>
        <time>2016-06-30T10:09:30.047Z</time>
      </trkpt>
      <trkpt lat="44.1703" lon="4.99734">
        <ele>196</ele>
        <time>2016-06-30T10:09:31.047Z</time>
      </trkpt>
      <trkpt lat="44.1703" lon="4.99733">
        <ele>196</ele>
        <time>2016-06-30T10:09:32.047Z</time>
      </trkpt>
      <trkpt lat="44.17031" lon="4.99731">
        <ele>196</ele>
        <time>2016-06-30T10:09:33.047Z</time>
      </trkpt>
      <trkpt lat="44.17032" lon="4.99729">
        <ele>196</ele>
        <time>2016-06-30T10:09:34.047Z</time>
      </trkpt>
      <trkpt lat="44.17032" lon="4.99727">
        <ele>195</ele>
        <time>2016-06-30T10:09:35.047Z</time>
      </trkpt>
      <trkpt lat="44.17032" lon="4.99727">
        <ele>195</ele>
        <time>2016-06-30T10:09:36.047Z</time>
      </trkpt>
      <trkpt lat="44.17031" lon="4.99726">
        <ele>195</ele>
        <time>2016-06-30T10:09:37.047Z</time>
      </trkpt>
      <trkpt lat="44.17031" lon="4.99726">
        <ele>195</ele>
        <time>2016-06-30T10:09:38.047Z</time>
      </trkpt>
      <trkpt lat="44.17031" lon="4.99727">
        <ele>195</ele>
        <time>2016-06-30T10:09:39.047Z</time>
      </trkpt>
      <trkpt lat="44.17031" lon="4.99727">
        <ele>195</ele>
        <time>2016-06-30T10:09:40.047Z</time>
      </trkpt>
      <trkpt lat="44.17031" lon="4.99727">
        <ele>195</ele>
        <time>2016-06-30T10:09:41.047Z</time>
      </trkpt>
      <trkpt lat="44.17031" lon="4.99727">
        <ele>195</ele>
        <time>2016-06-30T10:09:42.047Z</time>
      </trkpt>
      <trkpt lat="44.17031" lon="4.99727">
        <ele>195</ele>
        <time>2016-06-30T10:09:43.047Z</time>
      </trkpt>
      <trkpt lat="44.17031" lon="4.99727">
        <ele>195</ele>
        <time>2016-06-30T10:09:44.047Z</time>
      </trkpt>
      <trkpt lat="44.17031" lon="4.99727">
        <ele>195</ele>
        <time>2016-06-30T10:09:45.047Z</time>
      </trkpt>
      <trkpt lat="44.17031" lon="4.99727">
        <ele>196</ele>
        <time>2016-06-30T10:09:46.047Z</time>
      </trkpt>
      <trkpt lat="44.17031" lon="4.99727">
        <ele>196</ele>
        <time>2016-06-30T10:09:47.047Z</time>
      </trkpt>
      <trkpt lat="44.17031" lon="4.99727">
        <ele>196</ele>
        <time>2016-06-30T10:09:48.047Z</time>
      </trkpt>
      <trkpt lat="44.17031" lon="4.99726">
        <ele>196</ele>
        <time>2016-06-30T10:09:49.047Z</time>
      </trkpt>
      <trkpt lat="44.17031" lon="4.99726">
        <ele>196</ele>
        <time>2016-06-30T10:09:50.047Z</time>
      </trkpt>
      <trkpt lat="44.17031" lon="4.99726">
        <ele>196</ele>
        <time>2016-06-30T10:09:51.047Z</time>
      </trkpt>
      <trkpt lat="44.17031" lon="4.99726">
        <ele>196</ele>
        <time>2016-06-30T10:09:52.047Z</time>
      </trkpt>
      <trkpt lat="44.1703" lon="4.99726">
        <ele>196</ele>
        <time>2016-06-30T10:09:53.047Z</time>
      </trkpt>
      <trkpt lat="44.1703" lon="4.99726">
        <ele>196</ele>
        <time>2016-06-30T10:09:54.047Z</time>
      </trkpt>
      <trkpt lat="44.1703" lon="4.99726">
        <ele>196</ele>
        <time>2016-06-30T10:09:55.047Z</time>
      </trkpt>
      <trkpt lat="44.1703" lon="4.99726">
        <ele>196</ele>
        <time>2016-06-30T10:09:56.047Z</time>
      </trkpt>
      <trkpt lat="44.1703" lon="4.99726">
        <ele>196</ele>
        <time>2016-06-30T10:09:57.047Z</time>
      </trkpt>
      <trkpt lat="44.1703" lon="4.99726">
        <ele>196</ele>
        <time>2016-06-30T10:09:58.047Z</time>
      </trkpt>
      <trkpt lat="44.17031" lon="4.99726">
        <ele>196</ele>
        <time>2016-06-30T10:09:59.047Z</time>
      </trkpt>
      <trkpt lat="44.17031" lon="4.99726">
        <ele>197</ele>
        <time>2016-06-30T10:10:00.047Z</time>
      </trkpt>
      <trkpt lat="44.17031" lon="4.99727">
        <ele>197</ele>
        <time>2016-06-30T10:10:01.047Z</time>
      </trkpt>
      <trkpt lat="44.17031" lon="4.99727">
        <ele>197</ele>
        <time>2016-06-30T10:10:02.047Z</time>
      </trkpt>
      <trkpt lat="44.17031" lon="4.99727">
        <ele>197</ele>
        <time>2016-06-30T10:10:03.047Z</time>
      </trkpt>
      <trkpt lat="44.17031" lon="4.99727">
        <ele>196</ele>
        <time>2016-06-30T10:10:04.047Z</time>
      </trkpt>
      <trkpt lat="44.17031" lon="4.99727">
        <ele>197</ele>
        <time>2016-06-30T10:10:05.047Z</time>
      </trkpt>
      <trkpt lat="44.17031" lon="4.99727">
        <ele>197</ele>
        <time>2016-06-30T10:10:06.047Z</time>
      </trkpt>
      <trkpt lat="44.17031" lon="4.99727">
        <ele>197</ele>
        <time>2016-06-30T10:10:07.047Z</time>
      </trkpt>
      <trkpt lat="44.1703" lon="4.99727">
        <ele>197</ele>
        <time>2016-06-30T10:10:08.047Z</time>
      </trkpt>
      <trkpt lat="44.1703" lon="4.99727">
        <ele>196</ele>
        <time>2016-06-30T10:10:09.047Z</time>
      </trkpt>
      <trkpt lat="44.1703" lon="4.99727">
        <ele>196</ele>
        <time>2016-06-30T10:10:10.047Z</time>
      </trkpt>
      <trkpt lat="44.1703" lon="4.99727">
        <ele>196</ele>
        <time>2016-06-30T10:10:11.047Z</time>
      </trkpt>
      <trkpt lat="44.1703" lon="4.99727">
        <ele>196</ele>
        <time>2016-06-30T10:10:12.047Z</time>
      </trkpt>
      <trkpt lat="44.1703" lon="4.99727">
        <ele>196</ele>
        <time>2016-06-30T10:10:13.047Z</time>
      </trkpt>
      <trkpt lat="44.1703" lon="4.99727">
        <ele>196</ele>
        <time>2016-06-30T10:10:14.047Z</time>
      </trkpt>
      <trkpt lat="44.1703" lon="4.99726">
        <ele>196</ele>
        <time>2016-06-30T10:10:15.047Z</time>
      </trkpt>
      <trkpt lat="44.1703" lon="4.99726">
        <ele>196</ele>
        <time>2016-06-30T10:10:16.047Z</time>
      </trkpt>
      <trkpt lat="44.1703" lon="4.99726">
        <ele>195</ele>
        <time>2016-06-30T10:10:17.047Z</time>
      </trkpt>
      <trkpt lat="44.1703" lon="4.99726">
        <ele>196</ele>
        <time>2016-06-30T10:10:18.047Z</time>
      </trkpt>
      <trkpt lat="44.17029" lon="4.99726">
        <ele>196</ele>
        <time>2016-06-30T10:10:19.047Z</time>
      </trkpt>
      <trkpt lat="44.17029" lon="4.99726">
        <ele>196</ele>
        <time>2016-06-30T10:10:20.047Z</time>
      </trkpt>
      <trkpt lat="44.17029" lon="4.99725">
        <ele>196</ele>
        <time>2016-06-30T10:10:21.047Z</time>
      </trkpt>
      <trkpt lat="44.17029" lon="4.99725">
        <ele>196</ele>
        <time>2016-06-30T10:10:22.047Z</time>
      </trkpt>
      <trkpt lat="44.17029" lon="4.99726">
        <ele>196</ele>
        <time>2016-06-30T10:10:23.047Z</time>
      </trkpt>
      <trkpt lat="44.17029" lon="4.99726">
        <ele>197</ele>
        <time>2016-06-30T10:10:24.047Z</time>
      </trkpt>
      <trkpt lat="44.17029" lon="4.99726">
        <ele>197</ele>
        <time>2016-06-30T10:10:25.047Z</time>
      </trkpt>
      <trkpt lat="44.17029" lon="4.99726">
        <ele>197</ele>
        <time>2016-06-30T10:10:26.047Z</time>
      </trkpt>
      <trkpt lat="44.17029" lon="4.99726">
        <ele>197</ele>
        <time>2016-06-30T10:10:27.047Z</time>
      </trkpt>
      <trkpt lat="44.17029" lon="4.99726">
        <ele>197</ele>
        <time>2016-06-30T10:10:28.047Z</time>
      </trkpt>
      <trkpt lat="44.17029" lon="4.99726">
        <ele>197</ele>
        <time>2016-06-30T10:10:29.047Z</time>
      </trkpt>
      <trkpt lat="44.17029" lon="4.99726">
        <ele>197</ele>
        <time>2016-06-30T10:10:30.047Z</time>
      </trkpt>
      <trkpt lat="44.17029" lon="4.99726">
        <ele>197</ele>
        <time>2016-06-30T10:10:31.047Z</time>
      </trkpt>
      <trkpt lat="44.17029" lon="4.99726">
        <ele>196</ele>
        <time>2016-06-30T10:10:32.047Z</time>
      </trkpt>
      <trkpt lat="44.17029" lon="4.99726">
        <ele>196</ele>
        <time>2016-06-30T10:10:33.047Z</time>
      </trkpt>
      <trkpt lat="44.17029" lon="4.99726">
        <ele>196</ele>
        <time>2016-06-30T10:10:34.047Z</time>
      </trkpt>
      <trkpt lat="44.17029" lon="4.99726">
        <ele>196</ele>
        <time>2016-06-30T10:10:35.047Z</time>
      </trkpt>
      <trkpt lat="44.17029" lon="4.99726">
        <ele>196</ele>
        <time>2016-06-30T10:10:36.047Z</time>
      </trkpt>
      <trkpt lat="44.17029" lon="4.99726">
        <ele>196</ele>
        <time>2016-06-30T10:10:37.047Z</time>
      </trkpt>
      <trkpt lat="44.17029" lon="4.99726">
        <ele>196</ele>
        <time>2016-06-30T10:10:38.047Z</time>
      </trkpt>
      <trkpt lat="44.17029" lon="4.99726">
        <ele>195</ele>
        <time>2016-06-30T10:10:39.047Z</time>
      </trkpt>
      <trkpt lat="44.17029" lon="4.99726">
        <ele>195</ele>
        <time>2016-06-30T10:10:40.047Z</time>
      </trkpt>
      <trkpt lat="44.17029" lon="4.99725">
        <ele>195</ele>
        <time>2016-06-30T10:10:41.047Z</time>
      </trkpt>
      <trkpt lat="44.17029" lon="4.99725">
        <ele>195</ele>
        <time>2016-06-30T10:10:42.047Z</time>
      </trkpt>
      <trkpt lat="44.17029" lon="4.99725">
        <ele>195</ele>
        <time>2016-06-30T10:10:43.047Z</time>
      </trkpt>
      <trkpt lat="44.17029" lon="4.99725">
        <ele>195</ele>
        <time>2016-06-30T10:10:44.047Z</time>
      </trkpt>
      <trkpt lat="44.17029" lon="4.99724">
        <ele>195</ele>
        <time>2016-06-30T10:10:45.047Z</time>
      </trkpt>
      <trkpt lat="44.17029" lon="4.99723">
        <ele>195</ele>
        <time>2016-06-30T10:10:46.047Z</time>
      </trkpt>
      <trkpt lat="44.17029" lon="4.99723">
        <ele>195</ele>
        <time>2016-06-30T10:10:47.047Z</time>
      </trkpt>
      <trkpt lat="44.17029" lon="4.99723">
        <ele>195</ele>
        <time>2016-06-30T10:10:48.047Z</time>
      </trkpt>
      <trkpt lat="44.17029" lon="4.99722">
        <ele>196</ele>
        <time>2016-06-30T10:10:49.047Z</time>
      </trkpt>
      <trkpt lat="44.17029" lon="4.99722">
        <ele>196</ele>
        <time>2016-06-30T10:10:50.047Z</time>
      </trkpt>
      <trkpt lat="44.17029" lon="4.99723">
        <ele>196</ele>
        <time>2016-06-30T10:10:51.047Z</time>
      </trkpt>
      <trkpt lat="44.17029" lon="4.99723">
        <ele>197</ele>
        <time>2016-06-30T10:10:52.047Z</time>
      </trkpt>
      <trkpt lat="44.17028" lon="4.99724">
        <ele>196</ele>
        <time>2016-06-30T10:10:53.047Z</time>
      </trkpt>
      <trkpt lat="44.17028" lon="4.99725">
        <ele>196</ele>
        <time>2016-06-30T10:10:54.047Z</time>
      </trkpt>
      <trkpt lat="44.17028" lon="4.99725">
        <ele>196</ele>
        <time>2016-06-30T10:10:55.047Z</time>
      </trkpt>
      <trkpt lat="44.17028" lon="4.99726">
        <ele>196</ele>
        <time>2016-06-30T10:10:56.047Z</time>
      </trkpt>
      <trkpt lat="44.17028" lon="4.99726">
        <ele>196</ele>
        <time>2016-06-30T10:10:57.047Z</time>
      </trkpt>
      <trkpt lat="44.17028" lon="4.99726">
        <ele>196</ele>
        <time>2016-06-30T10:10:58.047Z</time>
      </trkpt>
      <trkpt lat="44.17028" lon="4.99726">
        <ele>196</ele>
        <time>2016-06-30T10:10:59.047Z</time>
      </trkpt>
      <trkpt lat="44.17028" lon="4.99726">
        <ele>197</ele>
        <time>2016-06-30T10:11:00.047Z</time>
      </trkpt>
      <trkpt lat="44.17029" lon="4.99725">
        <ele>197</ele>
        <time>2016-06-30T10:11:01.047Z</time>
      </trkpt>
      <trkpt lat="44.17029" lon="4.99725">
        <ele>197</ele>
        <time>2016-06-30T10:11:02.047Z</time>
      </trkpt>
      <trkpt lat="44.17029" lon="4.99724">
        <ele>197</ele>
        <time>2016-06-30T10:11:03.047Z</time>
      </trkpt>
      <trkpt lat="44.17029" lon="4.99723">
        <ele>197</ele>
        <time>2016-06-30T10:11:04.047Z</time>
      </trkpt>
      <trkpt lat="44.17029" lon="4.99722">
        <ele>197</ele>
        <time>2016-06-30T10:11:05.047Z</time>
      </trkpt>
      <trkpt lat="44.17029" lon="4.99721">
        <ele>196</ele>
        <time>2016-06-30T10:11:06.047Z</time>
      </trkpt>
      <trkpt lat="44.17029" lon="4.9972">
        <ele>196</ele>
        <time>2016-06-30T10:11:07.047Z</time>
      </trkpt>
      <trkpt lat="44.1703" lon="4.99719">
        <ele>196</ele>
        <time>2016-06-30T10:11:08.047Z</time>
      </trkpt>
      <trkpt lat="44.1703" lon="4.99718">
        <ele>197</ele>
        <time>2016-06-30T10:11:09.047Z</time>
      </trkpt>
      <trkpt lat="44.1703" lon="4.99717">
        <ele>197</ele>
        <time>2016-06-30T10:11:10.047Z</time>
      </trkpt>
      <trkpt lat="44.17031" lon="4.99716">
        <ele>196</ele>
        <time>2016-06-30T10:11:11.047Z</time>
      </trkpt>
      <trkpt lat="44.17031" lon="4.99716">
        <ele>196</ele>
        <time>2016-06-30T10:11:12.047Z</time>
      </trkpt>
      <trkpt lat="44.17031" lon="4.99715">
        <ele>196</ele>
        <time>2016-06-30T10:11:13.047Z</time>
      </trkpt>
      <trkpt lat="44.17032" lon="4.99714">
        <ele>196</ele>
        <time>2016-06-30T10:11:14.047Z</time>
      </trkpt>
      <trkpt lat="44.17032" lon="4.99714">
        <ele>196</ele>
        <time>2016-06-30T10:11:15.047Z</time>
      </trkpt>
      <trkpt lat="44.17032" lon="4.99714">
        <ele>196</ele>
        <time>2016-06-30T10:11:16.047Z</time>
      </trkpt>
      <trkpt lat="44.17032" lon="4.99714">
        <ele>196</ele>
        <time>2016-06-30T10:11:17.047Z</time>
      </trkpt>
      <trkpt lat="44.17032" lon="4.99714">
        <ele>196</ele>
        <time>2016-06-30T10:11:18.047Z</time>
      </trkpt>
      <trkpt lat="44.17032" lon="4.99714">
        <ele>196</ele>
        <time>2016-06-30T10:11:19.047Z</time>
      </trkpt>
      <trkpt lat="44.17032" lon="4.99714">
        <ele>196</ele>
        <time>2016-06-30T10:11:20.047Z</time>
      </trkpt>
      <trkpt lat="44.17032" lon="4.99714">
        <ele>196</ele>
        <time>2016-06-30T10:11:21.047Z</time>
      </trkpt>
      <trkpt lat="44.17032" lon="4.99714">
        <ele>196</ele>
        <time>2016-06-30T10:11:22.047Z</time>
      </trkpt>
      <trkpt lat="44.17032" lon="4.99714">
        <ele>196</ele>
        <time>2016-06-30T10:11:23.047Z</time>
      </trkpt>
      <trkpt lat="44.17032" lon="4.99714">
        <ele>196</ele>
        <time>2016-06-30T10:11:24.047Z</time>
      </trkpt>
      <trkpt lat="44.17032" lon="4.99714">
        <ele>196</ele>
        <time>2016-06-30T10:11:25.047Z</time>
      </trkpt>
      <trkpt lat="44.17032" lon="4.99714">
        <ele>196</ele>
        <time>2016-06-30T10:11:26.047Z</time>
      </trkpt>
      <trkpt lat="44.17031" lon="4.99715">
        <ele>196</ele>
        <time>2016-06-30T10:11:27.047Z</time>
      </trkpt>
      <trkpt lat="44.17031" lon="4.99715">
        <ele>195</ele>
        <time>2016-06-30T10:11:28.047Z</time>
      </trkpt>
      <trkpt lat="44.17031" lon="4.99715">
        <ele>196</ele>
        <time>2016-06-30T10:11:29.047Z</time>
      </trkpt>
      <trkpt lat="44.17031" lon="4.99715">
        <ele>196</ele>
        <time>2016-06-30T10:11:30.047Z</time>
      </trkpt>
      <trkpt lat="44.17031" lon="4.99715">
        <ele>196</ele>
        <time>2016-06-30T10:11:31.047Z</time>
      </trkpt>
      <trkpt lat="44.17031" lon="4.99715">
        <ele>197</ele>
        <time>2016-06-30T10:11:32.047Z</time>
      </trkpt>
      <trkpt lat="44.17031" lon="4.99715">
        <ele>197</ele>
        <time>2016-06-30T10:11:33.047Z</time>
      </trkpt>
      <trkpt lat="44.1703" lon="4.99734">
        <ele>194</ele>
        <time>2016-06-30T10:11:34.015Z</time>
      </trkpt>
      <trkpt lat="44.17029" lon="4.99735">
        <ele>194</ele>
        <time>2016-06-30T10:11:35.015Z</time>
      </trkpt>
      <trkpt lat="44.17028" lon="4.99737">
        <ele>194</ele>
        <time>2016-06-30T10:11:36.015Z</time>
      </trkpt>
      <trkpt lat="44.17027" lon="4.99738">
        <ele>194</ele>
        <time>2016-06-30T10:11:37.015Z</time>
      </trkpt>
      <trkpt lat="44.17024" lon="4.99739">
        <ele>194</ele>
        <time>2016-06-30T10:11:38.015Z</time>
      </trkpt>
      <trkpt lat="44.17023" lon="4.99741">
        <ele>194</ele>
        <time>2016-06-30T10:11:39.015Z</time>
      </trkpt>
      <trkpt lat="44.17021" lon="4.99744">
        <ele>195</ele>
        <time>2016-06-30T10:11:40.015Z</time>
      </trkpt>
      <trkpt lat="44.1702" lon="4.99748">
        <ele>195</ele>
        <time>2016-06-30T10:11:41.015Z</time>
      </trkpt>
      <trkpt lat="44.1702" lon="4.99753">
        <ele>195</ele>
        <time>2016-06-30T10:11:42.015Z</time>
      </trkpt>
      <trkpt lat="44.17021" lon="4.99758">
        <ele>195</ele>
        <time>2016-06-30T10:11:43.015Z</time>
      </trkpt>
      <trkpt lat="44.17022" lon="4.99763">
        <ele>194</ele>
        <time>2016-06-30T10:11:44.015Z</time>
      </trkpt>
      <trkpt lat="44.17023" lon="4.99769">
        <ele>194</ele>
        <time>2016-06-30T10:11:45.015Z</time>
      </trkpt>
      <trkpt lat="44.17024" lon="4.99774">
        <ele>194</ele>
        <time>2016-06-30T10:11:46.015Z</time>
      </trkpt>
      <trkpt lat="44.17026" lon="4.9978">
        <ele>194</ele>
        <time>2016-06-30T10:11:47.015Z</time>
      </trkpt>
      <trkpt lat="44.17027" lon="4.99785">
        <ele>194</ele>
        <time>2016-06-30T10:11:48.015Z</time>
      </trkpt>
      <trkpt lat="44.17029" lon="4.99791">
        <ele>194</ele>
        <time>2016-06-30T10:11:49.015Z</time>
      </trkpt>
      <trkpt lat="44.1703" lon="4.99797">
        <ele>194</ele>
        <time>2016-06-30T10:11:50.015Z</time>
      </trkpt>
      <trkpt lat="44.17032" lon="4.99803">
        <ele>194</ele>
        <time>2016-06-30T10:11:51.015Z</time>
      </trkpt>
      <trkpt lat="44.17033" lon="4.9981">
        <ele>194</ele>
        <time>2016-06-30T10:11:52.015Z</time>
      </trkpt>
      <trkpt lat="44.17034" lon="4.99816">
        <ele>194</ele>
        <time>2016-06-30T10:11:53.015Z</time>
      </trkpt>
      <trkpt lat="44.17035" lon="4.99822">
        <ele>194</ele>
        <time>2016-06-30T10:11:54.015Z</time>
      </trkpt>
      <trkpt lat="44.17036" lon="4.99827">
        <ele>194</ele>
        <time>2016-06-30T10:11:55.015Z</time>
      </trkpt>
      <trkpt lat="44.17037" lon="4.99833">
        <ele>194</ele>
        <time>2016-06-30T10:11:56.015Z</time>
      </trkpt>
      <trkpt lat="44.17038" lon="4.99838">
        <ele>194</ele>
        <time>2016-06-30T10:11:57.015Z</time>
      </trkpt>
      <trkpt lat="44.17039" lon="4.99843">
        <ele>194</ele>
        <time>2016-06-30T10:11:58.015Z</time>
      </trkpt>
      <trkpt lat="44.1704" lon="4.99849">
        <ele>195</ele>
        <time>2016-06-30T10:11:59.015Z</time>
      </trkpt>
      <trkpt lat="44.17041" lon="4.99854">
        <ele>195</ele>
        <time>2016-06-30T10:12:00.015Z</time>
      </trkpt>
      <trkpt lat="44.17042" lon="4.9986">
        <ele>195</ele>
        <time>2016-06-30T10:12:01.015Z</time>
      </trkpt>
      <trkpt lat="44.17043" lon="4.99867">
        <ele>195</ele>
        <time>2016-06-30T10:12:02.015Z</time>
      </trkpt>
      <trkpt lat="44.17044" lon="4.99873">
        <ele>195</ele>
        <time>2016-06-30T10:12:03.015Z</time>
      </trkpt>
      <trkpt lat="44.17045" lon="4.9988">
        <ele>195</ele>
        <time>2016-06-30T10:12:04.015Z</time>
      </trkpt>
      <trkpt lat="44.17046" lon="4.99886">
        <ele>195</ele>
        <time>2016-06-30T10:12:05.015Z</time>
      </trkpt>
      <trkpt lat="44.17047" lon="4.99893">
        <ele>195</ele>
        <time>2016-06-30T10:12:06.015Z</time>
      </trkpt>
      <trkpt lat="44.17049" lon="4.99899">
        <ele>195</ele>
        <time>2016-06-30T10:12:07.015Z</time>
      </trkpt>
      <trkpt lat="44.1705" lon="4.99906">
        <ele>195</ele>
        <time>2016-06-30T10:12:08.015Z</time>
      </trkpt>
      <trkpt lat="44.17051" lon="4.99912">
        <ele>195</ele>
        <time>2016-06-30T10:12:09.015Z</time>
      </trkpt>
      <trkpt lat="44.17052" lon="4.99918">
        <ele>195</ele>
        <time>2016-06-30T10:12:10.015Z</time>
      </trkpt>
      <trkpt lat="44.17054" lon="4.99925">
        <ele>195</ele>
        <time>2016-06-30T10:12:11.015Z</time>
      </trkpt>
      <trkpt lat="44.17056" lon="4.99931">
        <ele>195</ele>
        <time>2016-06-30T10:12:12.015Z</time>
      </trkpt>
      <trkpt lat="44.17058" lon="4.99937">
        <ele>195</ele>
        <time>2016-06-30T10:12:13.015Z</time>
      </trkpt>
      <trkpt lat="44.1706" lon="4.99944">
        <ele>195</ele>
        <time>2016-06-30T10:12:14.015Z</time>
      </trkpt>
      <trkpt lat="44.17062" lon="4.9995">
        <ele>195</ele>
        <time>2016-06-30T10:12:15.015Z</time>
      </trkpt>
      <trkpt lat="44.17065" lon="4.99956">
        <ele>195</ele>
        <time>2016-06-30T10:12:16.015Z</time>
      </trkpt>
      <trkpt lat="44.17067" lon="4.99962">
        <ele>195</ele>
        <time>2016-06-30T10:12:17.015Z</time>
      </trkpt>
      <trkpt lat="44.1707" lon="4.99968">
        <ele>195</ele>
        <time>2016-06-30T10:12:18.015Z</time>
      </trkpt>
      <trkpt lat="44.17074" lon="4.99973">
        <ele>195</ele>
        <time>2016-06-30T10:12:19.015Z</time>
      </trkpt>
      <trkpt lat="44.17077" lon="4.99978">
        <ele>195</ele>
        <time>2016-06-30T10:12:20.015Z</time>
      </trkpt>
      <trkpt lat="44.17081" lon="4.99983">
        <ele>195</ele>
        <time>2016-06-30T10:12:21.015Z</time>
      </trkpt>
      <trkpt lat="44.17085" lon="4.99988">
        <ele>195</ele>
        <time>2016-06-30T10:12:22.015Z</time>
      </trkpt>
      <trkpt lat="44.17089" lon="4.99992">
        <ele>195</ele>
        <time>2016-06-30T10:12:23.015Z</time>
      </trkpt>
      <trkpt lat="44.17093" lon="4.99996">
        <ele>195</ele>
        <time>2016-06-30T10:12:24.015Z</time>
      </trkpt>
      <trkpt lat="44.17097" lon="4.99999">
        <ele>195</ele>
        <time>2016-06-30T10:12:25.015Z</time>
      </trkpt>
      <trkpt lat="44.17102" lon="5.00002">
        <ele>195</ele>
        <time>2016-06-30T10:12:26.015Z</time>
      </trkpt>
      <trkpt lat="44.17106" lon="5.00005">
        <ele>195</ele>
        <time>2016-06-30T10:12:27.015Z</time>
      </trkpt>
      <trkpt lat="44.17111" lon="5.00007">
        <ele>195</ele>
        <time>2016-06-30T10:12:28.015Z</time>
      </trkpt>
      <trkpt lat="44.17115" lon="5.00009">
        <ele>195</ele>
        <time>2016-06-30T10:12:29.015Z</time>
      </trkpt>
      <trkpt lat="44.1712" lon="5.00012">
        <ele>195</ele>
        <time>2016-06-30T10:12:30.015Z</time>
      </trkpt>
      <trkpt lat="44.17125" lon="5.00014">
        <ele>195</ele>
        <time>2016-06-30T10:12:31.015Z</time>
      </trkpt>
      <trkpt lat="44.1713" lon="5.00016">
        <ele>195</ele>
        <time>2016-06-30T10:12:32.015Z</time>
      </trkpt>
      <trkpt lat="44.17135" lon="5.00019">
        <ele>194</ele>
        <time>2016-06-30T10:12:33.015Z</time>
      </trkpt>
      <trkpt lat="44.1714" lon="5.00021">
        <ele>194</ele>
        <time>2016-06-30T10:12:34.015Z</time>
      </trkpt>
      <trkpt lat="44.17145" lon="5.00024">
        <ele>194</ele>
        <time>2016-06-30T10:12:35.015Z</time>
      </trkpt>
      <trkpt lat="44.1715" lon="5.00026">
        <ele>194</ele>
        <time>2016-06-30T10:12:36.015Z</time>
      </trkpt>
      <trkpt lat="44.17156" lon="5.00029">
        <ele>194</ele>
        <time>2016-06-30T10:12:37.015Z</time>
      </trkpt>
      <trkpt lat="44.17161" lon="5.00031">
        <ele>194</ele>
        <time>2016-06-30T10:12:38.015Z</time>
      </trkpt>
      <trkpt lat="44.17166" lon="5.00034">
        <ele>194</ele>
        <time>2016-06-30T10:12:39.015Z</time>
      </trkpt>
      <trkpt lat="44.17171" lon="5.00036">
        <ele>194</ele>
        <time>2016-06-30T10:12:40.015Z</time>
      </trkpt>
      <trkpt lat="44.17176" lon="5.00038">
        <ele>194</ele>
        <time>2016-06-30T10:12:41.015Z</time>
      </trkpt>
      <trkpt lat="44.17181" lon="5.00041">
        <ele>194</ele>
        <time>2016-06-30T10:12:42.015Z</time>
      </trkpt>
      <trkpt lat="44.17186" lon="5.00044">
        <ele>194</ele>
        <time>2016-06-30T10:12:43.015Z</time>
      </trkpt>
      <trkpt lat="44.17191" lon="5.00046">
        <ele>193</ele>
        <time>2016-06-30T10:12:44.015Z</time>
      </trkpt>
      <trkpt lat="44.17196" lon="5.00049">
        <ele>193</ele>
        <time>2016-06-30T10:12:45.015Z</time>
      </trkpt>
      <trkpt lat="44.17201" lon="5.00051">
        <ele>193</ele>
        <time>2016-06-30T10:12:46.015Z</time>
      </trkpt>
      <trkpt lat="44.17206" lon="5.00054">
        <ele>193</ele>
        <time>2016-06-30T10:12:47.015Z</time>
      </trkpt>
      <trkpt lat="44.17211" lon="5.00056">
        <ele>193</ele>
        <time>2016-06-30T10:12:48.015Z</time>
      </trkpt>
      <trkpt lat="44.17216" lon="5.00059">
        <ele>194</ele>
        <time>2016-06-30T10:12:49.015Z</time>
      </trkpt>
      <trkpt lat="44.17221" lon="5.00061">
        <ele>193</ele>
        <time>2016-06-30T10:12:50.015Z</time>
      </trkpt>
      <trkpt lat="44.17226" lon="5.00063">
        <ele>193</ele>
        <time>2016-06-30T10:12:51.015Z</time>
      </trkpt>
      <trkpt lat="44.17231" lon="5.00065">
        <ele>193</ele>
        <time>2016-06-30T10:12:52.015Z</time>
      </trkpt>
      <trkpt lat="44.17236" lon="5.00068">
        <ele>193</ele>
        <time>2016-06-30T10:12:53.015Z</time>
      </trkpt>
      <trkpt lat="44.17241" lon="5.0007">
        <ele>193</ele>
        <time>2016-06-30T10:12:54.015Z</time>
      </trkpt>
      <trkpt lat="44.17245" lon="5.00072">
        <ele>193</ele>
        <time>2016-06-30T10:12:55.015Z</time>
      </trkpt>
      <trkpt lat="44.1725" lon="5.00075">
        <ele>193</ele>
        <time>2016-06-30T10:12:56.015Z</time>
      </trkpt>
      <trkpt lat="44.17255" lon="5.00077">
        <ele>193</ele>
        <time>2016-06-30T10:12:57.015Z</time>
      </trkpt>
      <trkpt lat="44.1726" lon="5.00079">
        <ele>193</ele>
        <time>2016-06-30T10:12:58.015Z</time>
      </trkpt>
      <trkpt lat="44.17264" lon="5.00082">
        <ele>193</ele>
        <time>2016-06-30T10:12:59.015Z</time>
      </trkpt>
      <trkpt lat="44.17269" lon="5.00084">
        <ele>194</ele>
        <time>2016-06-30T10:13:00.015Z</time>
      </trkpt>
      <trkpt lat="44.17274" lon="5.00086">
        <ele>194</ele>
        <time>2016-06-30T10:13:01.015Z</time>
      </trkpt>
      <trkpt lat="44.17278" lon="5.00088">
        <ele>194</ele>
        <time>2016-06-30T10:13:02.015Z</time>
      </trkpt>
      <trkpt lat="44.17283" lon="5.00091">
        <ele>194</ele>
        <time>2016-06-30T10:13:03.015Z</time>
      </trkpt>
      <trkpt lat="44.17287" lon="5.00093">
        <ele>194</ele>
        <time>2016-06-30T10:13:04.015Z</time>
      </trkpt>
      <trkpt lat="44.17293" lon="5.00096">
        <ele>194</ele>
        <time>2016-06-30T10:13:05.015Z</time>
      </trkpt>
      <trkpt lat="44.17298" lon="5.00098">
        <ele>194</ele>
        <time>2016-06-30T10:13:06.015Z</time>
      </trkpt>
      <trkpt lat="44.17303" lon="5.00101">
        <ele>194</ele>
        <time>2016-06-30T10:13:07.015Z</time>
      </trkpt>
      <trkpt lat="44.17309" lon="5.00103">
        <ele>194</ele>
        <time>2016-06-30T10:13:08.015Z</time>
      </trkpt>
      <trkpt lat="44.17314" lon="5.00106">
        <ele>195</ele>
        <time>2016-06-30T10:13:09.015Z</time>
      </trkpt>
      <trkpt lat="44.1732" lon="5.00108">
        <ele>195</ele>
        <time>2016-06-30T10:13:10.015Z</time>
      </trkpt>
      <trkpt lat="44.17325" lon="5.00111">
        <ele>195</ele>
        <time>2016-06-30T10:13:11.015Z</time>
      </trkpt>
      <trkpt lat="44.17331" lon="5.00114">
        <ele>195</ele>
        <time>2016-06-30T10:13:12.015Z</time>
      </trkpt>
      <trkpt lat="44.17336" lon="5.00116">
        <ele>195</ele>
        <time>2016-06-30T10:13:13.015Z</time>
      </trkpt>
      <trkpt lat="44.17342" lon="5.00119">
        <ele>195</ele>
        <time>2016-06-30T10:13:14.015Z</time>
      </trkpt>
      <trkpt lat="44.17347" lon="5.00122">
        <ele>195</ele>
        <time>2016-06-30T10:13:15.015Z</time>
      </trkpt>
      <trkpt lat="44.17353" lon="5.00125">
        <ele>195</ele>
        <time>2016-06-30T10:13:16.015Z</time>
      </trkpt>
      <trkpt lat="44.17358" lon="5.00127">
        <ele>195</ele>
        <time>2016-06-30T10:13:17.015Z</time>
      </trkpt>
      <trkpt lat="44.17363" lon="5.0013">
        <ele>196</ele>
        <time>2016-06-30T10:13:18.015Z</time>
      </trkpt>
      <trkpt lat="44.17368" lon="5.00132">
        <ele>196</ele>
        <time>2016-06-30T10:13:19.015Z</time>
      </trkpt>
      <trkpt lat="44.17373" lon="5.00134">
        <ele>196</ele>
        <time>2016-06-30T10:13:20.015Z</time>
      </trkpt>
      <trkpt lat="44.17379" lon="5.00137">
        <ele>196</ele>
        <time>2016-06-30T10:13:21.015Z</time>
      </trkpt>
      <trkpt lat="44.17384" lon="5.0014">
        <ele>196</ele>
        <time>2016-06-30T10:13:22.015Z</time>
      </trkpt>
      <trkpt lat="44.1739" lon="5.00142">
        <ele>196</ele>
        <time>2016-06-30T10:13:23.015Z</time>
      </trkpt>
      <trkpt lat="44.17396" lon="5.00145">
        <ele>196</ele>
        <time>2016-06-30T10:13:24.015Z</time>
      </trkpt>
      <trkpt lat="44.17402" lon="5.00148">
        <ele>196</ele>
        <time>2016-06-30T10:13:25.015Z</time>
      </trkpt>
      <trkpt lat="44.17408" lon="5.00151">
        <ele>197</ele>
        <time>2016-06-30T10:13:26.015Z</time>
      </trkpt>
      <trkpt lat="44.17413" lon="5.00154">
        <ele>197</ele>
        <time>2016-06-30T10:13:27.015Z</time>
      </trkpt>
      <trkpt lat="44.17419" lon="5.00156">
        <ele>197</ele>
        <time>2016-06-30T10:13:28.015Z</time>
      </trkpt>
      <trkpt lat="44.17425" lon="5.00159">
        <ele>197</ele>
        <time>2016-06-30T10:13:29.015Z</time>
      </trkpt>
      <trkpt lat="44.17431" lon="5.00162">
        <ele>197</ele>
        <time>2016-06-30T10:13:30.015Z</time>
      </trkpt>
      <trkpt lat="44.17436" lon="5.00164">
        <ele>197</ele>
        <time>2016-06-30T10:13:31.015Z</time>
      </trkpt>
      <trkpt lat="44.17441" lon="5.00167">
        <ele>197</ele>
        <time>2016-06-30T10:13:32.015Z</time>
      </trkpt>
      <trkpt lat="44.17447" lon="5.00169">
        <ele>197</ele>
        <time>2016-06-30T10:13:33.015Z</time>
      </trkpt>
      <trkpt lat="44.17452" lon="5.00172">
        <ele>197</ele>
        <time>2016-06-30T10:13:34.015Z</time>
      </trkpt>
      <trkpt lat="44.17457" lon="5.00174">
        <ele>197</ele>
        <time>2016-06-30T10:13:35.015Z</time>
      </trkpt>
      <trkpt lat="44.17462" lon="5.00176">
        <ele>197</ele>
        <time>2016-06-30T10:13:36.015Z</time>
      </trkpt>
      <trkpt lat="44.17466" lon="5.00179">
        <ele>197</ele>
        <time>2016-06-30T10:13:37.015Z</time>
      </trkpt>
      <trkpt lat="44.17471" lon="5.00181">
        <ele>197</ele>
        <time>2016-06-30T10:13:38.015Z</time>
      </trkpt>
      <trkpt lat="44.17476" lon="5.00183">
        <ele>197</ele>
        <time>2016-06-30T10:13:39.015Z</time>
      </trkpt>
      <trkpt lat="44.1748" lon="5.00185">
        <ele>197</ele>
        <time>2016-06-30T10:13:40.015Z</time>
      </trkpt>
      <trkpt lat="44.17485" lon="5.00187">
        <ele>197</ele>
        <time>2016-06-30T10:13:41.015Z</time>
      </trkpt>
      <trkpt lat="44.17489" lon="5.0019">
        <ele>197</ele>
        <time>2016-06-30T10:13:42.015Z</time>
      </trkpt>
      <trkpt lat="44.17494" lon="5.00192">
        <ele>197</ele>
        <time>2016-06-30T10:13:43.015Z</time>
      </trkpt>
      <trkpt lat="44.17499" lon="5.00194">
        <ele>197</ele>
        <time>2016-06-30T10:13:44.015Z</time>
      </trkpt>
      <trkpt lat="44.17503" lon="5.00196">
        <ele>197</ele>
        <time>2016-06-30T10:13:45.015Z</time>
      </trkpt>
      <trkpt lat="44.17508" lon="5.00198">
        <ele>197</ele>
        <time>2016-06-30T10:13:46.015Z</time>
      </trkpt>
      <trkpt lat="44.17512" lon="5.002">
        <ele>197</ele>
        <time>2016-06-30T10:13:47.015Z</time>
      </trkpt>
      <trkpt lat="44.17517" lon="5.00202">
        <ele>197</ele>
        <time>2016-06-30T10:13:48.015Z</time>
      </trkpt>
      <trkpt lat="44.17521" lon="5.00204">
        <ele>197</ele>
        <time>2016-06-30T10:13:49.015Z</time>
      </trkpt>
      <trkpt lat="44.17525" lon="5.00206">
        <ele>197</ele>
        <time>2016-06-30T10:13:50.015Z</time>
      </trkpt>
      <trkpt lat="44.1753" lon="5.00208">
        <ele>197</ele>
        <time>2016-06-30T10:13:51.015Z</time>
      </trkpt>
      <trkpt lat="44.17535" lon="5.00211">
        <ele>196</ele>
        <time>2016-06-30T10:13:52.015Z</time>
      </trkpt>
      <trkpt lat="44.1754" lon="5.00213">
        <ele>196</ele>
        <time>2016-06-30T10:13:53.015Z</time>
      </trkpt>
      <trkpt lat="44.17545" lon="5.00216">
        <ele>196</ele>
        <time>2016-06-30T10:13:54.015Z</time>
      </trkpt>
      <trkpt lat="44.17551" lon="5.00219">
        <ele>196</ele>
        <time>2016-06-30T10:13:55.015Z</time>
      </trkpt>
      <trkpt lat="44.17556" lon="5.00221">
        <ele>196</ele>
        <time>2016-06-30T10:13:56.015Z</time>
      </trkpt>
      <trkpt lat="44.17561" lon="5.00224">
        <ele>196</ele>
        <time>2016-06-30T10:13:57.015Z</time>
      </trkpt>
      <trkpt lat="44.17567" lon="5.00227">
        <ele>196</ele>
        <time>2016-06-30T10:13:58.015Z</time>
      </trkpt>
      <trkpt lat="44.17572" lon="5.00229">
        <ele>196</ele>
        <time>2016-06-30T10:13:59.015Z</time>
      </trkpt>
      <trkpt lat="44.17578" lon="5.00232">
        <ele>196</ele>
        <time>2016-06-30T10:14:00.015Z</time>
      </trkpt>
      <trkpt lat="44.17583" lon="5.00234">
        <ele>197</ele>
        <time>2016-06-30T10:14:01.015Z</time>
      </trkpt>
      <trkpt lat="44.17588" lon="5.00237">
        <ele>197</ele>
        <time>2016-06-30T10:14:02.015Z</time>
      </trkpt>
      <trkpt lat="44.17594" lon="5.00239">
        <ele>197</ele>
        <time>2016-06-30T10:14:03.015Z</time>
      </trkpt>
      <trkpt lat="44.17599" lon="5.00242">
        <ele>197</ele>
        <time>2016-06-30T10:14:04.015Z</time>
      </trkpt>
      <trkpt lat="44.17604" lon="5.00244">
        <ele>197</ele>
        <time>2016-06-30T10:14:05.015Z</time>
      </trkpt>
      <trkpt lat="44.17609" lon="5.00247">
        <ele>197</ele>
        <time>2016-06-30T10:14:06.015Z</time>
      </trkpt>
      <trkpt lat="44.17614" lon="5.00249">
        <ele>197</ele>
        <time>2016-06-30T10:14:07.015Z</time>
      </trkpt>
      <trkpt lat="44.17619" lon="5.00251">
        <ele>197</ele>
        <time>2016-06-30T10:14:08.015Z</time>
      </trkpt>
      <trkpt lat="44.17624" lon="5.00253">
        <ele>197</ele>
        <time>2016-06-30T10:14:09.015Z</time>
      </trkpt>
      <trkpt lat="44.17629" lon="5.00256">
        <ele>197</ele>
        <time>2016-06-30T10:14:10.015Z</time>
      </trkpt>
      <trkpt lat="44.17633" lon="5.00258">
        <ele>197</ele>
        <time>2016-06-30T10:14:11.015Z</time>
      </trkpt>
      <trkpt lat="44.17638" lon="5.0026">
        <ele>197</ele>
        <time>2016-06-30T10:14:12.015Z</time>
      </trkpt>
      <trkpt lat="44.17643" lon="5.00262">
        <ele>197</ele>
        <time>2016-06-30T10:14:13.015Z</time>
      </trkpt>
      <trkpt lat="44.17648" lon="5.00265">
        <ele>197</ele>
        <time>2016-06-30T10:14:14.015Z</time>
      </trkpt>
      <trkpt lat="44.17653" lon="5.00267">
        <ele>197</ele>
        <time>2016-06-30T10:14:15.015Z</time>
      </trkpt>
      <trkpt lat="44.17658" lon="5.00269">
        <ele>197</ele>
        <time>2016-06-30T10:14:16.015Z</time>
      </trkpt>
      <trkpt lat="44.17663" lon="5.00272">
        <ele>197</ele>
        <time>2016-06-30T10:14:17.015Z</time>
      </trkpt>
      <trkpt lat="44.17668" lon="5.00274">
        <ele>197</ele>
        <time>2016-06-30T10:14:18.015Z</time>
      </trkpt>
      <trkpt lat="44.17673" lon="5.00276">
        <ele>197</ele>
        <time>2016-06-30T10:14:19.015Z</time>
      </trkpt>
      <trkpt lat="44.17677" lon="5.00279">
        <ele>197</ele>
        <time>2016-06-30T10:14:20.015Z</time>
      </trkpt>
      <trkpt lat="44.17682" lon="5.00281">
        <ele>197</ele>
        <time>2016-06-30T10:14:21.015Z</time>
      </trkpt>
      <trkpt lat="44.17687" lon="5.00283">
        <ele>197</ele>
        <time>2016-06-30T10:14:22.015Z</time>
      </trkpt>
      <trkpt lat="44.17691" lon="5.00285">
        <ele>197</ele>
        <time>2016-06-30T10:14:23.015Z</time>
      </trkpt>
      <trkpt lat="44.17696" lon="5.00287">
        <ele>197</ele>
        <time>2016-06-30T10:14:24.015Z</time>
      </trkpt>
      <trkpt lat="44.17701" lon="5.00289">
        <ele>197</ele>
        <time>2016-06-30T10:14:25.015Z</time>
      </trkpt>
      <trkpt lat="44.17706" lon="5.00292">
        <ele>197</ele>
        <time>2016-06-30T10:14:26.015Z</time>
      </trkpt>
      <trkpt lat="44.1771" lon="5.00294">
        <ele>197</ele>
        <time>2016-06-30T10:14:27.015Z</time>
      </trkpt>
      <trkpt lat="44.17715" lon="5.00296">
        <ele>197</ele>
        <time>2016-06-30T10:14:28.015Z</time>
      </trkpt>
      <trkpt lat="44.1772" lon="5.00298">
        <ele>197</ele>
        <time>2016-06-30T10:14:29.015Z</time>
      </trkpt>
      <trkpt lat="44.17724" lon="5.00301">
        <ele>197</ele>
        <time>2016-06-30T10:14:30.015Z</time>
      </trkpt>
      <trkpt lat="44.17729" lon="5.00303">
        <ele>197</ele>
        <time>2016-06-30T10:14:31.015Z</time>
      </trkpt>
      <trkpt lat="44.17734" lon="5.00305">
        <ele>197</ele>
        <time>2016-06-30T10:14:32.015Z</time>
      </trkpt>
      <trkpt lat="44.17739" lon="5.00308">
        <ele>197</ele>
        <time>2016-06-30T10:14:33.015Z</time>
      </trkpt>
      <trkpt lat="44.17743" lon="5.0031">
        <ele>197</ele>
        <time>2016-06-30T10:14:34.015Z</time>
      </trkpt>
      <trkpt lat="44.17748" lon="5.00312">
        <ele>197</ele>
        <time>2016-06-30T10:14:35.015Z</time>
      </trkpt>
      <trkpt lat="44.17753" lon="5.00314">
        <ele>197</ele>
        <time>2016-06-30T10:14:36.015Z</time>
      </trkpt>
      <trkpt lat="44.17758" lon="5.00317">
        <ele>197</ele>
        <time>2016-06-30T10:14:37.015Z</time>
      </trkpt>
      <trkpt lat="44.17762" lon="5.00319">
        <ele>197</ele>
        <time>2016-06-30T10:14:38.015Z</time>
      </trkpt>
      <trkpt lat="44.17767" lon="5.00321">
        <ele>197</ele>
        <time>2016-06-30T10:14:39.015Z</time>
      </trkpt>
      <trkpt lat="44.17772" lon="5.00323">
        <ele>197</ele>
        <time>2016-06-30T10:14:40.015Z</time>
      </trkpt>
      <trkpt lat="44.17777" lon="5.00325">
        <ele>197</ele>
        <time>2016-06-30T10:14:41.015Z</time>
      </trkpt>
      <trkpt lat="44.17782" lon="5.00327">
        <ele>197</ele>
        <time>2016-06-30T10:14:42.015Z</time>
      </trkpt>
      <trkpt lat="44.17787" lon="5.00329">
        <ele>197</ele>
        <time>2016-06-30T10:14:43.015Z</time>
      </trkpt>
      <trkpt lat="44.17791" lon="5.00331">
        <ele>197</ele>
        <time>2016-06-30T10:14:44.015Z</time>
      </trkpt>
      <trkpt lat="44.17796" lon="5.00333">
        <ele>197</ele>
        <time>2016-06-30T10:14:45.015Z</time>
      </trkpt>
      <trkpt lat="44.17801" lon="5.00335">
        <ele>197</ele>
        <time>2016-06-30T10:14:46.015Z</time>
      </trkpt>
      <trkpt lat="44.17806" lon="5.00337">
        <ele>197</ele>
        <time>2016-06-30T10:14:47.015Z</time>
      </trkpt>
      <trkpt lat="44.1781" lon="5.00339">
        <ele>197</ele>
        <time>2016-06-30T10:14:48.015Z</time>
      </trkpt>
      <trkpt lat="44.17815" lon="5.00342">
        <ele>197</ele>
        <time>2016-06-30T10:14:49.015Z</time>
      </trkpt>
      <trkpt lat="44.17819" lon="5.00344">
        <ele>197</ele>
        <time>2016-06-30T10:14:50.015Z</time>
      </trkpt>
      <trkpt lat="44.17823" lon="5.00347">
        <ele>197</ele>
        <time>2016-06-30T10:14:51.015Z</time>
      </trkpt>
      <trkpt lat="44.17827" lon="5.0035">
        <ele>196</ele>
        <time>2016-06-30T10:14:52.015Z</time>
      </trkpt>
      <trkpt lat="44.17831" lon="5.00355">
        <ele>196</ele>
        <time>2016-06-30T10:14:53.015Z</time>
      </trkpt>
      <trkpt lat="44.17834" lon="5.0036">
        <ele>195</ele>
        <time>2016-06-30T10:14:54.015Z</time>
      </trkpt>
      <trkpt lat="44.17836" lon="5.00367">
        <ele>194</ele>
        <time>2016-06-30T10:14:55.015Z</time>
      </trkpt>
      <trkpt lat="44.17838" lon="5.00374">
        <ele>193</ele>
        <time>2016-06-30T10:14:56.015Z</time>
      </trkpt>
      <trkpt lat="44.17839" lon="5.00382">
        <ele>193</ele>
        <time>2016-06-30T10:14:57.015Z</time>
      </trkpt>
      <trkpt lat="44.17839" lon="5.00389">
        <ele>193</ele>
        <time>2016-06-30T10:14:58.015Z</time>
      </trkpt>
      <trkpt lat="44.17837" lon="5.00397">
        <ele>192</ele>
        <time>2016-06-30T10:14:59.015Z</time>
      </trkpt>
      <trkpt lat="44.17836" lon="5.00405">
        <ele>192</ele>
        <time>2016-06-30T10:15:00.015Z</time>
      </trkpt>
      <trkpt lat="44.17834" lon="5.00413">
        <ele>191</ele>
        <time>2016-06-30T10:15:01.015Z</time>
      </trkpt>
      <trkpt lat="44.17831" lon="5.00421">
        <ele>191</ele>
        <time>2016-06-30T10:15:02.015Z</time>
      </trkpt>
      <trkpt lat="44.17828" lon="5.0043">
        <ele>192</ele>
        <time>2016-06-30T10:15:03.015Z</time>
      </trkpt>
      <trkpt lat="44.17824" lon="5.00438">
        <ele>192</ele>
        <time>2016-06-30T10:15:04.015Z</time>
      </trkpt>
      <trkpt lat="44.17821" lon="5.00447">
        <ele>192</ele>
        <time>2016-06-30T10:15:05.015Z</time>
      </trkpt>
      <trkpt lat="44.17818" lon="5.00455">
        <ele>192</ele>
        <time>2016-06-30T10:15:06.015Z</time>
      </trkpt>
      <trkpt lat="44.17814" lon="5.00464">
        <ele>192</ele>
        <time>2016-06-30T10:15:07.015Z</time>
      </trkpt>
      <trkpt lat="44.1781" lon="5.00472">
        <ele>192</ele>
        <time>2016-06-30T10:15:08.015Z</time>
      </trkpt>
      <trkpt lat="44.17807" lon="5.00481">
        <ele>192</ele>
        <time>2016-06-30T10:15:09.015Z</time>
      </trkpt>
      <trkpt lat="44.17805" lon="5.00491">
        <ele>191</ele>
        <time>2016-06-30T10:15:10.015Z</time>
      </trkpt>
      <trkpt lat="44.17805" lon="5.00501">
        <ele>190</ele>
        <time>2016-06-30T10:15:11.015Z</time>
      </trkpt>
      <trkpt lat="44.17805" lon="5.00511">
        <ele>190</ele>
        <time>2016-06-30T10:15:12.015Z</time>
      </trkpt>
      <trkpt lat="44.17805" lon="5.00521">
        <ele>190</ele>
        <time>2016-06-30T10:15:13.015Z</time>
      </trkpt>
      <trkpt lat="44.17806" lon="5.00531">
        <ele>190</ele>
        <time>2016-06-30T10:15:14.015Z</time>
      </trkpt>
      <trkpt lat="44.17806" lon="5.00541">
        <ele>190</ele>
        <time>2016-06-30T10:15:15.015Z</time>
      </trkpt>
      <trkpt lat="44.17806" lon="5.00551">
        <ele>189</ele>
        <time>2016-06-30T10:15:16.015Z</time>
      </trkpt>
      <trkpt lat="44.17806" lon="5.00561">
        <ele>189</ele>
        <time>2016-06-30T10:15:17.015Z</time>
      </trkpt>
      <trkpt lat="44.17807" lon="5.00571">
        <ele>188</ele>
        <time>2016-06-30T10:15:18.015Z</time>
      </trkpt>
      <trkpt lat="44.17807" lon="5.00581">
        <ele>188</ele>
        <time>2016-06-30T10:15:19.015Z</time>
      </trkpt>
      <trkpt lat="44.17807" lon="5.00591">
        <ele>188</ele>
        <time>2016-06-30T10:15:20.015Z</time>
      </trkpt>
      <trkpt lat="44.17808" lon="5.00601">
        <ele>188</ele>
        <time>2016-06-30T10:15:21.015Z</time>
      </trkpt>
      <trkpt lat="44.17809" lon="5.00611">
        <ele>187</ele>
        <time>2016-06-30T10:15:22.015Z</time>
      </trkpt>
      <trkpt lat="44.1781" lon="5.00621">
        <ele>187</ele>
        <time>2016-06-30T10:15:23.015Z</time>
      </trkpt>
      <trkpt lat="44.17813" lon="5.00631">
        <ele>187</ele>
        <time>2016-06-30T10:15:24.015Z</time>
      </trkpt>
      <trkpt lat="44.17816" lon="5.0064">
        <ele>187</ele>
        <time>2016-06-30T10:15:25.015Z</time>
      </trkpt>
      <trkpt lat="44.1782" lon="5.00648">
        <ele>187</ele>
        <time>2016-06-30T10:15:26.015Z</time>
      </trkpt>
      <trkpt lat="44.17825" lon="5.00656">
        <ele>187</ele>
        <time>2016-06-30T10:15:27.015Z</time>
      </trkpt>
      <trkpt lat="44.1783" lon="5.00663">
        <ele>187</ele>
        <time>2016-06-30T10:15:28.015Z</time>
      </trkpt>
      <trkpt lat="44.17836" lon="5.00669">
        <ele>187</ele>
        <time>2016-06-30T10:15:29.015Z</time>
      </trkpt>
      <trkpt lat="44.17842" lon="5.00675">
        <ele>186</ele>
        <time>2016-06-30T10:15:30.015Z</time>
      </trkpt>
      <trkpt lat="44.17848" lon="5.0068">
        <ele>186</ele>
        <time>2016-06-30T10:15:31.015Z</time>
      </trkpt>
      <trkpt lat="44.17855" lon="5.00685">
        <ele>186</ele>
        <time>2016-06-30T10:15:32.015Z</time>
      </trkpt>
      <trkpt lat="44.17861" lon="5.00689">
        <ele>185</ele>
        <time>2016-06-30T10:15:33.015Z</time>
      </trkpt>
      <trkpt lat="44.17868" lon="5.00693">
        <ele>185</ele>
        <time>2016-06-30T10:15:34.015Z</time>
      </trkpt>
      <trkpt lat="44.17875" lon="5.00696">
        <ele>185</ele>
        <time>2016-06-30T10:15:35.015Z</time>
      </trkpt>
      <trkpt lat="44.17882" lon="5.00699">
        <ele>184</ele>
        <time>2016-06-30T10:15:36.015Z</time>
      </trkpt>
      <trkpt lat="44.1789" lon="5.00701">
        <ele>184</ele>
        <time>2016-06-30T10:15:37.015Z</time>
      </trkpt>
      <trkpt lat="44.17897" lon="5.00703">
        <ele>184</ele>
        <time>2016-06-30T10:15:38.015Z</time>
      </trkpt>
      <trkpt lat="44.17904" lon="5.00705">
        <ele>184</ele>
        <time>2016-06-30T10:15:39.015Z</time>
      </trkpt>
      <trkpt lat="44.17912" lon="5.00707">
        <ele>183</ele>
        <time>2016-06-30T10:15:40.015Z</time>
      </trkpt>
      <trkpt lat="44.17919" lon="5.00709">
        <ele>183</ele>
        <time>2016-06-30T10:15:41.015Z</time>
      </trkpt>
      <trkpt lat="44.17926" lon="5.00711">
        <ele>183</ele>
        <time>2016-06-30T10:15:42.015Z</time>
      </trkpt>
      <trkpt lat="44.17934" lon="5.00713">
        <ele>182</ele>
        <time>2016-06-30T10:15:43.015Z</time>
      </trkpt>
      <trkpt lat="44.17941" lon="5.00715">
        <ele>182</ele>
        <time>2016-06-30T10:15:44.015Z</time>
      </trkpt>
      <trkpt lat="44.17948" lon="5.00717">
        <ele>182</ele>
        <time>2016-06-30T10:15:45.015Z</time>
      </trkpt>
      <trkpt lat="44.17956" lon="5.00719">
        <ele>182</ele>
        <time>2016-06-30T10:15:46.015Z</time>
      </trkpt>
      <trkpt lat="44.17963" lon="5.00721">
        <ele>182</ele>
        <time>2016-06-30T10:15:47.015Z</time>
      </trkpt>
      <trkpt lat="44.1797" lon="5.00723">
        <ele>182</ele>
        <time>2016-06-30T10:15:48.015Z</time>
      </trkpt>
      <trkpt lat="44.17978" lon="5.00725">
        <ele>181</ele>
        <time>2016-06-30T10:15:49.015Z</time>
      </trkpt>
      <trkpt lat="44.17985" lon="5.00727">
        <ele>181</ele>
        <time>2016-06-30T10:15:50.015Z</time>
      </trkpt>
      <trkpt lat="44.17992" lon="5.0073">
        <ele>181</ele>
        <time>2016-06-30T10:15:51.015Z</time>
      </trkpt>
      <trkpt lat="44.18" lon="5.00732">
        <ele>181</ele>
        <time>2016-06-30T10:15:52.015Z</time>
      </trkpt>
      <trkpt lat="44.18007" lon="5.00734">
        <ele>181</ele>
        <time>2016-06-30T10:15:53.015Z</time>
      </trkpt>
      <trkpt lat="44.18014" lon="5.00736">
        <ele>180</ele>
        <time>2016-06-30T10:15:54.015Z</time>
      </trkpt>
      <trkpt lat="44.18022" lon="5.00738">
        <ele>180</ele>
        <time>2016-06-30T10:15:55.015Z</time>
      </trkpt>
      <trkpt lat="44.18029" lon="5.0074">
        <ele>180</ele>
        <time>2016-06-30T10:15:56.015Z</time>
      </trkpt>
      <trkpt lat="44.18037" lon="5.00743">
        <ele>180</ele>
        <time>2016-06-30T10:15:57.015Z</time>
      </trkpt>
      <trkpt lat="44.18044" lon="5.00745">
        <ele>180</ele>
        <time>2016-06-30T10:15:58.015Z</time>
      </trkpt>
      <trkpt lat="44.18052" lon="5.00748">
        <ele>180</ele>
        <time>2016-06-30T10:15:59.015Z</time>
      </trkpt>
      <trkpt lat="44.18059" lon="5.0075">
        <ele>180</ele>
        <time>2016-06-30T10:16:00.015Z</time>
      </trkpt>
      <trkpt lat="44.18067" lon="5.00752">
        <ele>179</ele>
        <time>2016-06-30T10:16:01.015Z</time>
      </trkpt>
      <trkpt lat="44.18074" lon="5.00755">
        <ele>179</ele>
        <time>2016-06-30T10:16:02.015Z</time>
      </trkpt>
      <trkpt lat="44.18081" lon="5.00757">
        <ele>179</ele>
        <time>2016-06-30T10:16:03.015Z</time>
      </trkpt>
      <trkpt lat="44.18089" lon="5.00759">
        <ele>179</ele>
        <time>2016-06-30T10:16:04.015Z</time>
      </trkpt>
      <trkpt lat="44.18096" lon="5.00761">
        <ele>179</ele>
        <time>2016-06-30T10:16:05.015Z</time>
      </trkpt>
      <trkpt lat="44.18103" lon="5.00764">
        <ele>179</ele>
        <time>2016-06-30T10:16:06.015Z</time>
      </trkpt>
      <trkpt lat="44.1811" lon="5.00766">
        <ele>179</ele>
        <time>2016-06-30T10:16:07.015Z</time>
      </trkpt>
      <trkpt lat="44.18116" lon="5.00768">
        <ele>179</ele>
        <time>2016-06-30T10:16:08.015Z</time>
      </trkpt>
      <trkpt lat="44.18123" lon="5.00769">
        <ele>178</ele>
        <time>2016-06-30T10:16:09.015Z</time>
      </trkpt>
      <trkpt lat="44.18129" lon="5.00771">
        <ele>178</ele>
        <time>2016-06-30T10:16:10.015Z</time>
      </trkpt>
      <trkpt lat="44.18136" lon="5.00773">
        <ele>178</ele>
        <time>2016-06-30T10:16:11.015Z</time>
      </trkpt>
      <trkpt lat="44.18142" lon="5.00774">
        <ele>178</ele>
        <time>2016-06-30T10:16:12.015Z</time>
      </trkpt>
      <trkpt lat="44.18148" lon="5.00776">
        <ele>178</ele>
        <time>2016-06-30T10:16:13.015Z</time>
      </trkpt>
      <trkpt lat="44.18155" lon="5.00777">
        <ele>178</ele>
        <time>2016-06-30T10:16:14.015Z</time>
      </trkpt>
      <trkpt lat="44.18161" lon="5.00778">
        <ele>178</ele>
        <time>2016-06-30T10:16:15.015Z</time>
      </trkpt>
      <trkpt lat="44.18167" lon="5.0078">
        <ele>178</ele>
        <time>2016-06-30T10:16:16.015Z</time>
      </trkpt>
      <trkpt lat="44.18173" lon="5.00781">
        <ele>178</ele>
        <time>2016-06-30T10:16:17.015Z</time>
      </trkpt>
      <trkpt lat="44.18179" lon="5.00782">
        <ele>178</ele>
        <time>2016-06-30T10:16:18.015Z</time>
      </trkpt>
      <trkpt lat="44.18185" lon="5.00783">
        <ele>178</ele>
        <time>2016-06-30T10:16:19.015Z</time>
      </trkpt>
      <trkpt lat="44.18191" lon="5.00784">
        <ele>178</ele>
        <time>2016-06-30T10:16:20.015Z</time>
      </trkpt>
      <trkpt lat="44.18198" lon="5.00784">
        <ele>178</ele>
        <time>2016-06-30T10:16:21.015Z</time>
      </trkpt>
      <trkpt lat="44.18204" lon="5.00785">
        <ele>179</ele>
        <time>2016-06-30T10:16:22.015Z</time>
      </trkpt>
      <trkpt lat="44.1821" lon="5.00785">
        <ele>179</ele>
        <time>2016-06-30T10:16:23.015Z</time>
      </trkpt>
      <trkpt lat="44.18216" lon="5.00785">
        <ele>179</ele>
        <time>2016-06-30T10:16:24.015Z</time>
      </trkpt>
      <trkpt lat="44.18222" lon="5.00784">
        <ele>179</ele>
        <time>2016-06-30T10:16:25.015Z</time>
      </trkpt>
      <trkpt lat="44.18229" lon="5.00784">
        <ele>179</ele>
        <time>2016-06-30T10:16:26.015Z</time>
      </trkpt>
      <trkpt lat="44.18235" lon="5.00783">
        <ele>179</ele>
        <time>2016-06-30T10:16:27.015Z</time>
      </trkpt>
      <trkpt lat="44.1824" lon="5.00782">
        <ele>179</ele>
        <time>2016-06-30T10:16:28.015Z</time>
      </trkpt>
      <trkpt lat="44.18246" lon="5.00781">
        <ele>179</ele>
        <time>2016-06-30T10:16:29.015Z</time>
      </trkpt>
      <trkpt lat="44.18252" lon="5.0078">
        <ele>179</ele>
        <time>2016-06-30T10:16:30.015Z</time>
      </trkpt>
      <trkpt lat="44.18258" lon="5.0078">
        <ele>179</ele>
        <time>2016-06-30T10:16:31.015Z</time>
      </trkpt>
      <trkpt lat="44.18264" lon="5.00779">
        <ele>178</ele>
        <time>2016-06-30T10:16:32.015Z</time>
      </trkpt>
      <trkpt lat="44.1827" lon="5.00779">
        <ele>178</ele>
        <time>2016-06-30T10:16:33.015Z</time>
      </trkpt>
      <trkpt lat="44.18277" lon="5.00778">
        <ele>178</ele>
        <time>2016-06-30T10:16:34.015Z</time>
      </trkpt>
      <trkpt lat="44.18284" lon="5.00778">
        <ele>179</ele>
        <time>2016-06-30T10:16:35.015Z</time>
      </trkpt>
      <trkpt lat="44.18291" lon="5.00778">
        <ele>178</ele>
        <time>2016-06-30T10:16:36.015Z</time>
      </trkpt>
      <trkpt lat="44.18297" lon="5.00778">
        <ele>178</ele>
        <time>2016-06-30T10:16:37.015Z</time>
      </trkpt>
      <trkpt lat="44.18304" lon="5.00777">
        <ele>178</ele>
        <time>2016-06-30T10:16:38.015Z</time>
      </trkpt>
      <trkpt lat="44.18311" lon="5.00777">
        <ele>178</ele>
        <time>2016-06-30T10:16:39.015Z</time>
      </trkpt>
      <trkpt lat="44.18318" lon="5.00777">
        <ele>178</ele>
        <time>2016-06-30T10:16:40.015Z</time>
      </trkpt>
      <trkpt lat="44.18325" lon="5.00777">
        <ele>178</ele>
        <time>2016-06-30T10:16:41.015Z</time>
      </trkpt>
      <trkpt lat="44.18332" lon="5.00777">
        <ele>178</ele>
        <time>2016-06-30T10:16:42.015Z</time>
      </trkpt>
      <trkpt lat="44.18339" lon="5.00776">
        <ele>177</ele>
        <time>2016-06-30T10:16:43.015Z</time>
      </trkpt>
      <trkpt lat="44.18346" lon="5.00776">
        <ele>178</ele>
        <time>2016-06-30T10:16:44.015Z</time>
      </trkpt>
      <trkpt lat="44.18353" lon="5.00776">
        <ele>177</ele>
        <time>2016-06-30T10:16:45.015Z</time>
      </trkpt>
      <trkpt lat="44.1836" lon="5.00776">
        <ele>177</ele>
        <time>2016-06-30T10:16:46.015Z</time>
      </trkpt>
      <trkpt lat="44.18367" lon="5.00777">
        <ele>177</ele>
        <time>2016-06-30T10:16:47.015Z</time>
      </trkpt>
      <trkpt lat="44.18374" lon="5.00777">
        <ele>178</ele>
        <time>2016-06-30T10:16:48.015Z</time>
      </trkpt>
      <trkpt lat="44.18381" lon="5.00778">
        <ele>177</ele>
        <time>2016-06-30T10:16:49.015Z</time>
      </trkpt>
      <trkpt lat="44.18388" lon="5.00779">
        <ele>177</ele>
        <time>2016-06-30T10:16:50.015Z</time>
      </trkpt>
      <trkpt lat="44.18396" lon="5.0078">
        <ele>177</ele>
        <time>2016-06-30T10:16:51.015Z</time>
      </trkpt>
      <trkpt lat="44.18403" lon="5.00782">
        <ele>177</ele>
        <time>2016-06-30T10:16:52.015Z</time>
      </trkpt>
      <trkpt lat="44.18409" lon="5.00783">
        <ele>177</ele>
        <time>2016-06-30T10:16:53.015Z</time>
      </trkpt>
      <trkpt lat="44.18416" lon="5.00784">
        <ele>177</ele>
        <time>2016-06-30T10:16:54.015Z</time>
      </trkpt>
      <trkpt lat="44.18423" lon="5.00786">
        <ele>177</ele>
        <time>2016-06-30T10:16:55.015Z</time>
      </trkpt>
      <trkpt lat="44.1843" lon="5.00788">
        <ele>177</ele>
        <time>2016-06-30T10:16:56.015Z</time>
      </trkpt>
      <trkpt lat="44.18436" lon="5.0079">
        <ele>177</ele>
        <time>2016-06-30T10:16:57.015Z</time>
      </trkpt>
      <trkpt lat="44.18443" lon="5.00792">
        <ele>177</ele>
        <time>2016-06-30T10:16:58.015Z</time>
      </trkpt>
      <trkpt lat="44.18449" lon="5.00793">
        <ele>177</ele>
        <time>2016-06-30T10:16:59.015Z</time>
      </trkpt>
      <trkpt lat="44.18455" lon="5.00795">
        <ele>177</ele>
        <time>2016-06-30T10:17:00.015Z</time>
      </trkpt>
      <trkpt lat="44.18462" lon="5.00797">
        <ele>177</ele>
        <time>2016-06-30T10:17:01.015Z</time>
      </trkpt>
      <trkpt lat="44.18468" lon="5.00798">
        <ele>177</ele>
        <time>2016-06-30T10:17:02.015Z</time>
      </trkpt>
      <trkpt lat="44.18474" lon="5.008">
        <ele>177</ele>
        <time>2016-06-30T10:17:03.015Z</time>
      </trkpt>
      <trkpt lat="44.1848" lon="5.00802">
        <ele>177</ele>
        <time>2016-06-30T10:17:04.015Z</time>
      </trkpt>
      <trkpt lat="44.18486" lon="5.00804">
        <ele>178</ele>
        <time>2016-06-30T10:17:05.015Z</time>
      </trkpt>
      <trkpt lat="44.18492" lon="5.00806">
        <ele>178</ele>
        <time>2016-06-30T10:17:06.015Z</time>
      </trkpt>
      <trkpt lat="44.18497" lon="5.00808">
        <ele>177</ele>
        <time>2016-06-30T10:17:07.015Z</time>
      </trkpt>
      <trkpt lat="44.18503" lon="5.00811">
        <ele>177</ele>
        <time>2016-06-30T10:17:08.015Z</time>
      </trkpt>
      <trkpt lat="44.18509" lon="5.00814">
        <ele>177</ele>
        <time>2016-06-30T10:17:09.015Z</time>
      </trkpt>
      <trkpt lat="44.18514" lon="5.00817">
        <ele>177</ele>
        <time>2016-06-30T10:17:10.015Z</time>
      </trkpt>
      <trkpt lat="44.18519" lon="5.0082">
        <ele>177</ele>
        <time>2016-06-30T10:17:11.015Z</time>
      </trkpt>
      <trkpt lat="44.18525" lon="5.00823">
        <ele>177</ele>
        <time>2016-06-30T10:17:12.015Z</time>
      </trkpt>
      <trkpt lat="44.1853" lon="5.00826">
        <ele>177</ele>
        <time>2016-06-30T10:17:13.015Z</time>
      </trkpt>
      <trkpt lat="44.18536" lon="5.0083">
        <ele>177</ele>
        <time>2016-06-30T10:17:14.015Z</time>
      </trkpt>
      <trkpt lat="44.18542" lon="5.00834">
        <ele>176</ele>
        <time>2016-06-30T10:17:15.015Z</time>
      </trkpt>
      <trkpt lat="44.18547" lon="5.00838">
        <ele>176</ele>
        <time>2016-06-30T10:17:16.015Z</time>
      </trkpt>
      <trkpt lat="44.18553" lon="5.00842">
        <ele>175</ele>
        <time>2016-06-30T10:17:17.015Z</time>
      </trkpt>
      <trkpt lat="44.18559" lon="5.00846">
        <ele>175</ele>
        <time>2016-06-30T10:17:18.015Z</time>
      </trkpt>
      <trkpt lat="44.18565" lon="5.0085">
        <ele>175</ele>
        <time>2016-06-30T10:17:19.015Z</time>
      </trkpt>
      <trkpt lat="44.18571" lon="5.00854">
        <ele>175</ele>
        <time>2016-06-30T10:17:20.015Z</time>
      </trkpt>
      <trkpt lat="44.18577" lon="5.00858">
        <ele>174</ele>
        <time>2016-06-30T10:17:21.015Z</time>
      </trkpt>
      <trkpt lat="44.18584" lon="5.00862">
        <ele>174</ele>
        <time>2016-06-30T10:17:22.015Z</time>
      </trkpt>
      <trkpt lat="44.1859" lon="5.00866">
        <ele>174</ele>
        <time>2016-06-30T10:17:23.015Z</time>
      </trkpt>
      <trkpt lat="44.18596" lon="5.0087">
        <ele>174</ele>
        <time>2016-06-30T10:17:24.015Z</time>
      </trkpt>
      <trkpt lat="44.18602" lon="5.00875">
        <ele>173</ele>
        <time>2016-06-30T10:17:25.015Z</time>
      </trkpt>
      <trkpt lat="44.18609" lon="5.00879">
        <ele>173</ele>
        <time>2016-06-30T10:17:26.015Z</time>
      </trkpt>
      <trkpt lat="44.18615" lon="5.00883">
        <ele>173</ele>
        <time>2016-06-30T10:17:27.015Z</time>
      </trkpt>
      <trkpt lat="44.18621" lon="5.00887">
        <ele>173</ele>
        <time>2016-06-30T10:17:28.015Z</time>
      </trkpt>
      <trkpt lat="44.18627" lon="5.00891">
        <ele>173</ele>
        <time>2016-06-30T10:17:29.015Z</time>
      </trkpt>
      <trkpt lat="44.18634" lon="5.00896">
        <ele>173</ele>
        <time>2016-06-30T10:17:30.015Z</time>
      </trkpt>
      <trkpt lat="44.1864" lon="5.009">
        <ele>173</ele>
        <time>2016-06-30T10:17:31.015Z</time>
      </trkpt>
      <trkpt lat="44.18646" lon="5.00904">
        <ele>172</ele>
        <time>2016-06-30T10:17:32.015Z</time>
      </trkpt>
      <trkpt lat="44.18652" lon="5.00908">
        <ele>172</ele>
        <time>2016-06-30T10:17:33.015Z</time>
      </trkpt>
      <trkpt lat="44.18659" lon="5.00912">
        <ele>172</ele>
        <time>2016-06-30T10:17:34.015Z</time>
      </trkpt>
      <trkpt lat="44.18665" lon="5.00916">
        <ele>172</ele>
        <time>2016-06-30T10:17:35.015Z</time>
      </trkpt>
      <trkpt lat="44.18671" lon="5.0092">
        <ele>172</ele>
        <time>2016-06-30T10:17:36.015Z</time>
      </trkpt>
      <trkpt lat="44.18677" lon="5.00924">
        <ele>172</ele>
        <time>2016-06-30T10:17:37.015Z</time>
      </trkpt>
      <trkpt lat="44.18683" lon="5.00928">
        <ele>172</ele>
        <time>2016-06-30T10:17:38.015Z</time>
      </trkpt>
      <trkpt lat="44.18689" lon="5.00931">
        <ele>173</ele>
        <time>2016-06-30T10:17:39.015Z</time>
      </trkpt>
      <trkpt lat="44.18695" lon="5.00934">
        <ele>173</ele>
        <time>2016-06-30T10:17:40.015Z</time>
      </trkpt>
      <trkpt lat="44.18702" lon="5.00936">
        <ele>172</ele>
        <time>2016-06-30T10:17:41.015Z</time>
      </trkpt>
      <trkpt lat="44.18708" lon="5.00937">
        <ele>172</ele>
        <time>2016-06-30T10:17:42.015Z</time>
      </trkpt>
      <trkpt lat="44.18714" lon="5.00938">
        <ele>171</ele>
        <time>2016-06-30T10:17:43.015Z</time>
      </trkpt>
      <trkpt lat="44.1872" lon="5.00939">
        <ele>171</ele>
        <time>2016-06-30T10:17:44.015Z</time>
      </trkpt>
      <trkpt lat="44.18726" lon="5.0094">
        <ele>170</ele>
        <time>2016-06-30T10:17:45.015Z</time>
      </trkpt>
      <trkpt lat="44.18732" lon="5.0094">
        <ele>170</ele>
        <time>2016-06-30T10:17:46.015Z</time>
      </trkpt>
      <trkpt lat="44.18738" lon="5.00939">
        <ele>170</ele>
        <time>2016-06-30T10:17:47.015Z</time>
      </trkpt>
      <trkpt lat="44.18744" lon="5.00938">
        <ele>170</ele>
        <time>2016-06-30T10:17:48.015Z</time>
      </trkpt>
      <trkpt lat="44.1875" lon="5.00937">
        <ele>170</ele>
        <time>2016-06-30T10:17:49.015Z</time>
      </trkpt>
      <trkpt lat="44.18756" lon="5.00935">
        <ele>170</ele>
        <time>2016-06-30T10:17:50.015Z</time>
      </trkpt>
      <trkpt lat="44.18762" lon="5.00934">
        <ele>170</ele>
        <time>2016-06-30T10:17:51.015Z</time>
      </trkpt>
      <trkpt lat="44.18768" lon="5.00933">
        <ele>170</ele>
        <time>2016-06-30T10:17:52.015Z</time>
      </trkpt>
      <trkpt lat="44.18774" lon="5.00931">
        <ele>170</ele>
        <time>2016-06-30T10:17:53.015Z</time>
      </trkpt>
      <trkpt lat="44.1878" lon="5.0093">
        <ele>169</ele>
        <time>2016-06-30T10:17:54.015Z</time>
      </trkpt>
      <trkpt lat="44.18787" lon="5.00928">
        <ele>169</ele>
        <time>2016-06-30T10:17:55.015Z</time>
      </trkpt>
      <trkpt lat="44.18793" lon="5.00927">
        <ele>169</ele>
        <time>2016-06-30T10:17:56.015Z</time>
      </trkpt>
      <trkpt lat="44.18799" lon="5.00925">
        <ele>169</ele>
        <time>2016-06-30T10:17:57.015Z</time>
      </trkpt>
      <trkpt lat="44.18805" lon="5.00924">
        <ele>169</ele>
        <time>2016-06-30T10:17:58.015Z</time>
      </trkpt>
      <trkpt lat="44.18811" lon="5.00922">
        <ele>168</ele>
        <time>2016-06-30T10:17:59.015Z</time>
      </trkpt>
      <trkpt lat="44.18817" lon="5.00921">
        <ele>168</ele>
        <time>2016-06-30T10:18:00.015Z</time>
      </trkpt>
      <trkpt lat="44.18823" lon="5.00919">
        <ele>168</ele>
        <time>2016-06-30T10:18:01.015Z</time>
      </trkpt>
      <trkpt lat="44.18828" lon="5.00918">
        <ele>168</ele>
        <time>2016-06-30T10:18:02.015Z</time>
      </trkpt>
      <trkpt lat="44.18834" lon="5.00917">
        <ele>168</ele>
        <time>2016-06-30T10:18:03.015Z</time>
      </trkpt>
      <trkpt lat="44.1884" lon="5.00915">
        <ele>168</ele>
        <time>2016-06-30T10:18:04.015Z</time>
      </trkpt>
      <trkpt lat="44.18845" lon="5.00914">
        <ele>168</ele>
        <time>2016-06-30T10:18:05.015Z</time>
      </trkpt>
      <trkpt lat="44.1885" lon="5.00912">
        <ele>169</ele>
        <time>2016-06-30T10:18:06.015Z</time>
      </trkpt>
      <trkpt lat="44.18856" lon="5.0091">
        <ele>169</ele>
        <time>2016-06-30T10:18:07.015Z</time>
      </trkpt>
      <trkpt lat="44.1886" lon="5.00909">
        <ele>168</ele>
        <time>2016-06-30T10:18:08.015Z</time>
      </trkpt>
      <trkpt lat="44.18865" lon="5.00908">
        <ele>168</ele>
        <time>2016-06-30T10:18:09.015Z</time>
      </trkpt>
      <trkpt lat="44.18869" lon="5.00906">
        <ele>168</ele>
        <time>2016-06-30T10:18:10.015Z</time>
      </trkpt>
      <trkpt lat="44.18873" lon="5.00904">
        <ele>168</ele>
        <time>2016-06-30T10:18:11.015Z</time>
      </trkpt>
      <trkpt lat="44.18878" lon="5.00903">
        <ele>168</ele>
        <time>2016-06-30T10:18:12.015Z</time>
      </trkpt>
      <trkpt lat="44.18883" lon="5.00901">
        <ele>168</ele>
        <time>2016-06-30T10:18:13.015Z</time>
      </trkpt>
      <trkpt lat="44.18888" lon="5.00899">
        <ele>168</ele>
        <time>2016-06-30T10:18:14.015Z</time>
      </trkpt>
      <trkpt lat="44.18893" lon="5.00897">
        <ele>168</ele>
        <time>2016-06-30T10:18:15.015Z</time>
      </trkpt>
      <trkpt lat="44.18899" lon="5.00895">
        <ele>168</ele>
        <time>2016-06-30T10:18:16.015Z</time>
      </trkpt>
      <trkpt lat="44.18904" lon="5.00893">
        <ele>168</ele>
        <time>2016-06-30T10:18:17.015Z</time>
      </trkpt>
      <trkpt lat="44.1891" lon="5.00891">
        <ele>168</ele>
        <time>2016-06-30T10:18:18.015Z</time>
      </trkpt>
      <trkpt lat="44.18916" lon="5.00889">
        <ele>168</ele>
        <time>2016-06-30T10:18:19.015Z</time>
      </trkpt>
      <trkpt lat="44.18921" lon="5.00887">
        <ele>168</ele>
        <time>2016-06-30T10:18:20.015Z</time>
      </trkpt>
      <trkpt lat="44.18927" lon="5.00886">
        <ele>168</ele>
        <time>2016-06-30T10:18:21.015Z</time>
      </trkpt>
      <trkpt lat="44.18932" lon="5.00884">
        <ele>168</ele>
        <time>2016-06-30T10:18:22.015Z</time>
      </trkpt>
      <trkpt lat="44.18937" lon="5.00882">
        <ele>168</ele>
        <time>2016-06-30T10:18:23.015Z</time>
      </trkpt>
      <trkpt lat="44.18943" lon="5.0088">
        <ele>168</ele>
        <time>2016-06-30T10:18:24.015Z</time>
      </trkpt>
      <trkpt lat="44.18948" lon="5.00879">
        <ele>168</ele>
        <time>2016-06-30T10:18:25.015Z</time>
      </trkpt>
      <trkpt lat="44.18954" lon="5.00877">
        <ele>168</ele>
        <time>2016-06-30T10:18:26.015Z</time>
      </trkpt>
      <trkpt lat="44.18959" lon="5.00875">
        <ele>168</ele>
        <time>2016-06-30T10:18:27.015Z</time>
      </trkpt>
      <trkpt lat="44.18964" lon="5.00873">
        <ele>168</ele>
        <time>2016-06-30T10:18:28.015Z</time>
      </trkpt>
      <trkpt lat="44.1897" lon="5.00871">
        <ele>168</ele>
        <time>2016-06-30T10:18:29.015Z</time>
      </trkpt>
      <trkpt lat="44.18974" lon="5.00869">
        <ele>168</ele>
        <time>2016-06-30T10:18:30.015Z</time>
      </trkpt>
      <trkpt lat="44.18979" lon="5.00867">
        <ele>168</ele>
        <time>2016-06-30T10:18:31.015Z</time>
      </trkpt>
      <trkpt lat="44.18984" lon="5.00864">
        <ele>168</ele>
        <time>2016-06-30T10:18:32.015Z</time>
      </trkpt>
      <trkpt lat="44.18989" lon="5.00861">
        <ele>168</ele>
        <time>2016-06-30T10:18:33.015Z</time>
      </trkpt>
      <trkpt lat="44.18994" lon="5.00857">
        <ele>167</ele>
        <time>2016-06-30T10:18:34.015Z</time>
      </trkpt>
      <trkpt lat="44.18999" lon="5.00852">
        <ele>168</ele>
        <time>2016-06-30T10:18:35.015Z</time>
      </trkpt>
      <trkpt lat="44.19004" lon="5.00847">
        <ele>168</ele>
        <time>2016-06-30T10:18:36.015Z</time>
      </trkpt>
      <trkpt lat="44.19009" lon="5.00842">
        <ele>168</ele>
        <time>2016-06-30T10:18:37.015Z</time>
      </trkpt>
      <trkpt lat="44.19014" lon="5.00838">
        <ele>168</ele>
        <time>2016-06-30T10:18:38.015Z</time>
      </trkpt>
      <trkpt lat="44.19019" lon="5.00834">
        <ele>168</ele>
        <time>2016-06-30T10:18:39.015Z</time>
      </trkpt>
      <trkpt lat="44.19024" lon="5.00829">
        <ele>168</ele>
        <time>2016-06-30T10:18:40.015Z</time>
      </trkpt>
      <trkpt lat="44.19029" lon="5.00825">
        <ele>167</ele>
        <time>2016-06-30T10:18:41.015Z</time>
      </trkpt>
      <trkpt lat="44.19033" lon="5.00821">
        <ele>167</ele>
        <time>2016-06-30T10:18:42.015Z</time>
      </trkpt>
      <trkpt lat="44.19038" lon="5.00817">
        <ele>167</ele>
        <time>2016-06-30T10:18:43.015Z</time>
      </trkpt>
      <trkpt lat="44.19043" lon="5.00813">
        <ele>167</ele>
        <time>2016-06-30T10:18:44.015Z</time>
      </trkpt>
      <trkpt lat="44.19047" lon="5.00809">
        <ele>167</ele>
        <time>2016-06-30T10:18:45.015Z</time>
      </trkpt>
      <trkpt lat="44.19052" lon="5.00806">
        <ele>167</ele>
        <time>2016-06-30T10:18:46.015Z</time>
      </trkpt>
      <trkpt lat="44.19057" lon="5.00802">
        <ele>167</ele>
        <time>2016-06-30T10:18:47.015Z</time>
      </trkpt>
      <trkpt lat="44.19061" lon="5.00799">
        <ele>167</ele>
        <time>2016-06-30T10:18:48.015Z</time>
      </trkpt>
      <trkpt lat="44.19066" lon="5.00797">
        <ele>167</ele>
        <time>2016-06-30T10:18:49.015Z</time>
      </trkpt>
      <trkpt lat="44.19071" lon="5.00795">
        <ele>167</ele>
        <time>2016-06-30T10:18:50.015Z</time>
      </trkpt>
      <trkpt lat="44.19076" lon="5.00794">
        <ele>168</ele>
        <time>2016-06-30T10:18:51.015Z</time>
      </trkpt>
      <trkpt lat="44.1908" lon="5.00793">
        <ele>168</ele>
        <time>2016-06-30T10:18:52.015Z</time>
      </trkpt>
      <trkpt lat="44.19086" lon="5.00794">
        <ele>167</ele>
        <time>2016-06-30T10:18:53.015Z</time>
      </trkpt>
      <trkpt lat="44.19091" lon="5.00795">
        <ele>167</ele>
        <time>2016-06-30T10:18:54.015Z</time>
      </trkpt>
      <trkpt lat="44.19097" lon="5.00797">
        <ele>168</ele>
        <time>2016-06-30T10:18:55.015Z</time>
      </trkpt>
      <trkpt lat="44.19102" lon="5.00798">
        <ele>167</ele>
        <time>2016-06-30T10:18:56.015Z</time>
      </trkpt>
      <trkpt lat="44.19108" lon="5.00799">
        <ele>167</ele>
        <time>2016-06-30T10:18:57.015Z</time>
      </trkpt>
      <trkpt lat="44.19115" lon="5.00801">
        <ele>167</ele>
        <time>2016-06-30T10:18:58.015Z</time>
      </trkpt>
      <trkpt lat="44.1912" lon="5.00803">
        <ele>167</ele>
        <time>2016-06-30T10:18:59.015Z</time>
      </trkpt>
      <trkpt lat="44.19126" lon="5.00805">
        <ele>166</ele>
        <time>2016-06-30T10:19:00.015Z</time>
      </trkpt>
      <trkpt lat="44.19132" lon="5.00807">
        <ele>166</ele>
        <time>2016-06-30T10:19:01.015Z</time>
      </trkpt>
      <trkpt lat="44.19138" lon="5.00808">
        <ele>166</ele>
        <time>2016-06-30T10:19:02.015Z</time>
      </trkpt>
      <trkpt lat="44.19143" lon="5.00809">
        <ele>166</ele>
        <time>2016-06-30T10:19:03.015Z</time>
      </trkpt>
      <trkpt lat="44.19149" lon="5.0081">
        <ele>167</ele>
        <time>2016-06-30T10:19:04.015Z</time>
      </trkpt>
      <trkpt lat="44.19154" lon="5.00811">
        <ele>168</ele>
        <time>2016-06-30T10:19:05.015Z</time>
      </trkpt>
      <trkpt lat="44.1916" lon="5.00811">
        <ele>169</ele>
        <time>2016-06-30T10:19:06.015Z</time>
      </trkpt>
      <trkpt lat="44.19166" lon="5.00811">
        <ele>169</ele>
        <time>2016-06-30T10:19:07.015Z</time>
      </trkpt>
      <trkpt lat="44.19172" lon="5.0081">
        <ele>169</ele>
        <time>2016-06-30T10:19:08.015Z</time>
      </trkpt>
      <trkpt lat="44.19178" lon="5.00809">
        <ele>168</ele>
        <time>2016-06-30T10:19:09.015Z</time>
      </trkpt>
      <trkpt lat="44.19184" lon="5.00808">
        <ele>168</ele>
        <time>2016-06-30T10:19:10.015Z</time>
      </trkpt>
      <trkpt lat="44.1919" lon="5.00807">
        <ele>168</ele>
        <time>2016-06-30T10:19:11.015Z</time>
      </trkpt>
      <trkpt lat="44.19196" lon="5.00805">
        <ele>168</ele>
        <time>2016-06-30T10:19:12.015Z</time>
      </trkpt>
      <trkpt lat="44.19202" lon="5.00805">
        <ele>168</ele>
        <time>2016-06-30T10:19:13.015Z</time>
      </trkpt>
      <trkpt lat="44.19208" lon="5.00804">
        <ele>167</ele>
        <time>2016-06-30T10:19:14.015Z</time>
      </trkpt>
      <trkpt lat="44.19215" lon="5.00803">
        <ele>167</ele>
        <time>2016-06-30T10:19:15.015Z</time>
      </trkpt>
      <trkpt lat="44.19221" lon="5.00802">
        <ele>167</ele>
        <time>2016-06-30T10:19:16.015Z</time>
      </trkpt>
      <trkpt lat="44.19227" lon="5.00801">
        <ele>167</ele>
        <time>2016-06-30T10:19:17.015Z</time>
      </trkpt>
      <trkpt lat="44.19234" lon="5.008">
        <ele>167</ele>
        <time>2016-06-30T10:19:18.015Z</time>
      </trkpt>
      <trkpt lat="44.1924" lon="5.00799">
        <ele>166</ele>
        <time>2016-06-30T10:19:19.015Z</time>
      </trkpt>
      <trkpt lat="44.19247" lon="5.00798">
        <ele>166</ele>
        <time>2016-06-30T10:19:20.015Z</time>
      </trkpt>
      <trkpt lat="44.19253" lon="5.00797">
        <ele>165</ele>
        <time>2016-06-30T10:19:21.015Z</time>
      </trkpt>
      <trkpt lat="44.19259" lon="5.00796">
        <ele>165</ele>
        <time>2016-06-30T10:19:22.015Z</time>
      </trkpt>
      <trkpt lat="44.19266" lon="5.00795">
        <ele>165</ele>
        <time>2016-06-30T10:19:23.015Z</time>
      </trkpt>
      <trkpt lat="44.19272" lon="5.00794">
        <ele>164</ele>
        <time>2016-06-30T10:19:24.015Z</time>
      </trkpt>
      <trkpt lat="44.19279" lon="5.00793">
        <ele>163</ele>
        <time>2016-06-30T10:19:25.015Z</time>
      </trkpt>
      <trkpt lat="44.19285" lon="5.00792">
        <ele>163</ele>
        <time>2016-06-30T10:19:26.015Z</time>
      </trkpt>
      <trkpt lat="44.19292" lon="5.00791">
        <ele>163</ele>
        <time>2016-06-30T10:19:27.015Z</time>
      </trkpt>
      <trkpt lat="44.19298" lon="5.0079">
        <ele>162</ele>
        <time>2016-06-30T10:19:28.015Z</time>
      </trkpt>
      <trkpt lat="44.19305" lon="5.00788">
        <ele>162</ele>
        <time>2016-06-30T10:19:29.015Z</time>
      </trkpt>
      <trkpt lat="44.19311" lon="5.00785">
        <ele>161</ele>
        <time>2016-06-30T10:19:30.015Z</time>
      </trkpt>
      <trkpt lat="44.19317" lon="5.00782">
        <ele>161</ele>
        <time>2016-06-30T10:19:31.015Z</time>
      </trkpt>
      <trkpt lat="44.19324" lon="5.00778">
        <ele>161</ele>
        <time>2016-06-30T10:19:32.015Z</time>
      </trkpt>
      <trkpt lat="44.1933" lon="5.00774">
        <ele>160</ele>
        <time>2016-06-30T10:19:33.015Z</time>
      </trkpt>
      <trkpt lat="44.19336" lon="5.0077">
        <ele>160</ele>
        <time>2016-06-30T10:19:34.015Z</time>
      </trkpt>
      <trkpt lat="44.19343" lon="5.00766">
        <ele>160</ele>
        <time>2016-06-30T10:19:35.015Z</time>
      </trkpt>
      <trkpt lat="44.1935" lon="5.00761">
        <ele>159</ele>
        <time>2016-06-30T10:19:36.015Z</time>
      </trkpt>
      <trkpt lat="44.19356" lon="5.00757">
        <ele>159</ele>
        <time>2016-06-30T10:19:37.015Z</time>
      </trkpt>
      <trkpt lat="44.19363" lon="5.00752">
        <ele>158</ele>
        <time>2016-06-30T10:19:38.015Z</time>
      </trkpt>
      <trkpt lat="44.1937" lon="5.00748">
        <ele>158</ele>
        <time>2016-06-30T10:19:39.015Z</time>
      </trkpt>
      <trkpt lat="44.19376" lon="5.00743">
        <ele>158</ele>
        <time>2016-06-30T10:19:40.015Z</time>
      </trkpt>
      <trkpt lat="44.19382" lon="5.00739">
        <ele>157</ele>
        <time>2016-06-30T10:19:41.015Z</time>
      </trkpt>
      <trkpt lat="44.19387" lon="5.00736">
        <ele>158</ele>
        <time>2016-06-30T10:19:42.015Z</time>
      </trkpt>
      <trkpt lat="44.19392" lon="5.00732">
        <ele>157</ele>
        <time>2016-06-30T10:19:43.015Z</time>
      </trkpt>
      <trkpt lat="44.19397" lon="5.00729">
        <ele>157</ele>
        <time>2016-06-30T10:19:44.015Z</time>
      </trkpt>
      <trkpt lat="44.19402" lon="5.00725">
        <ele>157</ele>
        <time>2016-06-30T10:19:45.015Z</time>
      </trkpt>
      <trkpt lat="44.19408" lon="5.00722">
        <ele>156</ele>
        <time>2016-06-30T10:19:46.015Z</time>
      </trkpt>
      <trkpt lat="44.19413" lon="5.00718">
        <ele>156</ele>
        <time>2016-06-30T10:19:47.015Z</time>
      </trkpt>
      <trkpt lat="44.19418" lon="5.00715">
        <ele>155</ele>
        <time>2016-06-30T10:19:48.015Z</time>
      </trkpt>
      <trkpt lat="44.19424" lon="5.00711">
        <ele>155</ele>
        <time>2016-06-30T10:19:49.015Z</time>
      </trkpt>
      <trkpt lat="44.19429" lon="5.00707">
        <ele>154</ele>
        <time>2016-06-30T10:19:50.015Z</time>
      </trkpt>
      <trkpt lat="44.19435" lon="5.00703">
        <ele>153</ele>
        <time>2016-06-30T10:19:51.015Z</time>
      </trkpt>
      <trkpt lat="44.1944" lon="5.00699">
        <ele>152</ele>
        <time>2016-06-30T10:19:52.015Z</time>
      </trkpt>
      <trkpt lat="44.19446" lon="5.00696">
        <ele>152</ele>
        <time>2016-06-30T10:19:53.015Z</time>
      </trkpt>
      <trkpt lat="44.19451" lon="5.00693">
        <ele>152</ele>
        <time>2016-06-30T10:19:54.015Z</time>
      </trkpt>
      <trkpt lat="44.19456" lon="5.00691">
        <ele>151</ele>
        <time>2016-06-30T10:19:55.015Z</time>
      </trkpt>
      <trkpt lat="44.19461" lon="5.00691">
        <ele>149</ele>
        <time>2016-06-30T10:19:56.015Z</time>
      </trkpt>
      <trkpt lat="44.19466" lon="5.00692">
        <ele>151</ele>
        <time>2016-06-30T10:19:57.015Z</time>
      </trkpt>
      <trkpt lat="44.19471" lon="5.00694">
        <ele>152</ele>
        <time>2016-06-30T10:19:58.015Z</time>
      </trkpt>
      <trkpt lat="44.19477" lon="5.00696">
        <ele>152</ele>
        <time>2016-06-30T10:19:59.015Z</time>
      </trkpt>
      <trkpt lat="44.19482" lon="5.00699">
        <ele>152</ele>
        <time>2016-06-30T10:20:00.015Z</time>
      </trkpt>
      <trkpt lat="44.19487" lon="5.00702">
        <ele>152</ele>
        <time>2016-06-30T10:20:01.015Z</time>
      </trkpt>
      <trkpt lat="44.19491" lon="5.00707">
        <ele>152</ele>
        <time>2016-06-30T10:20:02.015Z</time>
      </trkpt>
      <trkpt lat="44.19495" lon="5.00711">
        <ele>153</ele>
        <time>2016-06-30T10:20:03.015Z</time>
      </trkpt>
      <trkpt lat="44.19499" lon="5.00717">
        <ele>153</ele>
        <time>2016-06-30T10:20:04.015Z</time>
      </trkpt>
      <trkpt lat="44.19502" lon="5.00723">
        <ele>154</ele>
        <time>2016-06-30T10:20:05.015Z</time>
      </trkpt>
      <trkpt lat="44.19505" lon="5.00729">
        <ele>154</ele>
        <time>2016-06-30T10:20:06.015Z</time>
      </trkpt>
      <trkpt lat="44.19507" lon="5.00736">
        <ele>154</ele>
        <time>2016-06-30T10:20:07.015Z</time>
      </trkpt>
      <trkpt lat="44.1951" lon="5.00744">
        <ele>154</ele>
        <time>2016-06-30T10:20:08.015Z</time>
      </trkpt>
      <trkpt lat="44.19512" lon="5.00751">
        <ele>154</ele>
        <time>2016-06-30T10:20:09.015Z</time>
      </trkpt>
      <trkpt lat="44.19515" lon="5.00758">
        <ele>154</ele>
        <time>2016-06-30T10:20:10.015Z</time>
      </trkpt>
      <trkpt lat="44.19517" lon="5.00766">
        <ele>154</ele>
        <time>2016-06-30T10:20:11.015Z</time>
      </trkpt>
      <trkpt lat="44.1952" lon="5.00773">
        <ele>154</ele>
        <time>2016-06-30T10:20:12.015Z</time>
      </trkpt>
      <trkpt lat="44.19522" lon="5.00779">
        <ele>154</ele>
        <time>2016-06-30T10:20:13.015Z</time>
      </trkpt>
      <trkpt lat="44.19524" lon="5.00786">
        <ele>154</ele>
        <time>2016-06-30T10:20:14.015Z</time>
      </trkpt>
      <trkpt lat="44.19526" lon="5.00793">
        <ele>155</ele>
        <time>2016-06-30T10:20:15.015Z</time>
      </trkpt>
      <trkpt lat="44.19528" lon="5.00799">
        <ele>155</ele>
        <time>2016-06-30T10:20:16.015Z</time>
      </trkpt>
      <trkpt lat="44.1953" lon="5.00805">
        <ele>154</ele>
        <time>2016-06-30T10:20:17.015Z</time>
      </trkpt>
      <trkpt lat="44.19533" lon="5.00811">
        <ele>154</ele>
        <time>2016-06-30T10:20:18.015Z</time>
      </trkpt>
      <trkpt lat="44.19536" lon="5.00817">
        <ele>154</ele>
        <time>2016-06-30T10:20:19.015Z</time>
      </trkpt>
      <trkpt lat="44.19538" lon="5.00823">
        <ele>154</ele>
        <time>2016-06-30T10:20:20.015Z</time>
      </trkpt>
      <trkpt lat="44.19541" lon="5.00829">
        <ele>153</ele>
        <time>2016-06-30T10:20:21.015Z</time>
      </trkpt>
      <trkpt lat="44.19544" lon="5.00835">
        <ele>153</ele>
        <time>2016-06-30T10:20:22.015Z</time>
      </trkpt>
      <trkpt lat="44.19548" lon="5.00841">
        <ele>153</ele>
        <time>2016-06-30T10:20:23.015Z</time>
      </trkpt>
      <trkpt lat="44.19551" lon="5.00847">
        <ele>153</ele>
        <time>2016-06-30T10:20:24.015Z</time>
      </trkpt>
      <trkpt lat="44.19554" lon="5.00853">
        <ele>153</ele>
        <time>2016-06-30T10:20:25.015Z</time>
      </trkpt>
      <trkpt lat="44.19558" lon="5.00858">
        <ele>153</ele>
        <time>2016-06-30T10:20:26.015Z</time>
      </trkpt>
      <trkpt lat="44.19561" lon="5.00864">
        <ele>153</ele>
        <time>2016-06-30T10:20:27.015Z</time>
      </trkpt>
      <trkpt lat="44.19565" lon="5.0087">
        <ele>153</ele>
        <time>2016-06-30T10:20:28.015Z</time>
      </trkpt>
      <trkpt lat="44.19568" lon="5.00876">
        <ele>152</ele>
        <time>2016-06-30T10:20:29.015Z</time>
      </trkpt>
      <trkpt lat="44.19572" lon="5.00882">
        <ele>152</ele>
        <time>2016-06-30T10:20:30.015Z</time>
      </trkpt>
      <trkpt lat="44.19575" lon="5.00888">
        <ele>152</ele>
        <time>2016-06-30T10:20:31.015Z</time>
      </trkpt>
      <trkpt lat="44.19579" lon="5.00894">
        <ele>152</ele>
        <time>2016-06-30T10:20:32.015Z</time>
      </trkpt>
      <trkpt lat="44.19583" lon="5.00899">
        <ele>152</ele>
        <time>2016-06-30T10:20:33.015Z</time>
      </trkpt>
      <trkpt lat="44.19588" lon="5.00904">
        <ele>152</ele>
        <time>2016-06-30T10:20:34.015Z</time>
      </trkpt>
      <trkpt lat="44.19592" lon="5.00908">
        <ele>152</ele>
        <time>2016-06-30T10:20:35.015Z</time>
      </trkpt>
      <trkpt lat="44.19597" lon="5.00912">
        <ele>152</ele>
        <time>2016-06-30T10:20:36.015Z</time>
      </trkpt>
      <trkpt lat="44.19602" lon="5.00915">
        <ele>152</ele>
        <time>2016-06-30T10:20:37.015Z</time>
      </trkpt>
      <trkpt lat="44.19607" lon="5.00918">
        <ele>152</ele>
        <time>2016-06-30T10:20:38.015Z</time>
      </trkpt>
      <trkpt lat="44.19612" lon="5.00921">
        <ele>151</ele>
        <time>2016-06-30T10:20:39.015Z</time>
      </trkpt>
      <trkpt lat="44.19618" lon="5.00924">
        <ele>151</ele>
        <time>2016-06-30T10:20:40.015Z</time>
      </trkpt>
      <trkpt lat="44.19623" lon="5.00927">
        <ele>150</ele>
        <time>2016-06-30T10:20:41.015Z</time>
      </trkpt>
      <trkpt lat="44.19628" lon="5.00929">
        <ele>150</ele>
        <time>2016-06-30T10:20:42.015Z</time>
      </trkpt>
      <trkpt lat="44.19633" lon="5.00931">
        <ele>150</ele>
        <time>2016-06-30T10:20:43.015Z</time>
      </trkpt>
      <trkpt lat="44.19638" lon="5.00933">
        <ele>150</ele>
        <time>2016-06-30T10:20:44.015Z</time>
      </trkpt>
      <trkpt lat="44.19643" lon="5.00935">
        <ele>150</ele>
        <time>2016-06-30T10:20:45.015Z</time>
      </trkpt>
      <trkpt lat="44.19648" lon="5.00936">
        <ele>150</ele>
        <time>2016-06-30T10:20:46.015Z</time>
      </trkpt>
      <trkpt lat="44.19653" lon="5.00937">
        <ele>149</ele>
        <time>2016-06-30T10:20:47.015Z</time>
      </trkpt>
      <trkpt lat="44.19658" lon="5.00938">
        <ele>150</ele>
        <time>2016-06-30T10:20:48.015Z</time>
      </trkpt>
      <trkpt lat="44.19664" lon="5.00939">
        <ele>150</ele>
        <time>2016-06-30T10:20:49.015Z</time>
      </trkpt>
      <trkpt lat="44.19669" lon="5.0094">
        <ele>150</ele>
        <time>2016-06-30T10:20:50.015Z</time>
      </trkpt>
      <trkpt lat="44.19675" lon="5.0094">
        <ele>150</ele>
        <time>2016-06-30T10:20:51.015Z</time>
      </trkpt>
      <trkpt lat="44.1968" lon="5.00941">
        <ele>150</ele>
        <time>2016-06-30T10:20:52.015Z</time>
      </trkpt>
      <trkpt lat="44.19686" lon="5.00942">
        <ele>150</ele>
        <time>2016-06-30T10:20:53.015Z</time>
      </trkpt>
      <trkpt lat="44.19691" lon="5.00943">
        <ele>150</ele>
        <time>2016-06-30T10:20:54.015Z</time>
      </trkpt>
      <trkpt lat="44.19697" lon="5.00944">
        <ele>150</ele>
        <time>2016-06-30T10:20:55.015Z</time>
      </trkpt>
      <trkpt lat="44.19702" lon="5.00946">
        <ele>150</ele>
        <time>2016-06-30T10:20:56.015Z</time>
      </trkpt>
      <trkpt lat="44.19708" lon="5.00947">
        <ele>150</ele>
        <time>2016-06-30T10:20:57.015Z</time>
      </trkpt>
      <trkpt lat="44.19713" lon="5.00948">
        <ele>150</ele>
        <time>2016-06-30T10:20:58.015Z</time>
      </trkpt>
      <trkpt lat="44.19719" lon="5.00949">
        <ele>150</ele>
        <time>2016-06-30T10:20:59.015Z</time>
      </trkpt>
      <trkpt lat="44.19724" lon="5.0095">
        <ele>150</ele>
        <time>2016-06-30T10:21:00.015Z</time>
      </trkpt>
      <trkpt lat="44.1973" lon="5.00952">
        <ele>150</ele>
        <time>2016-06-30T10:21:01.015Z</time>
      </trkpt>
      <trkpt lat="44.19736" lon="5.00953">
        <ele>150</ele>
        <time>2016-06-30T10:21:02.015Z</time>
      </trkpt>
      <trkpt lat="44.19742" lon="5.00955">
        <ele>150</ele>
        <time>2016-06-30T10:21:03.015Z</time>
      </trkpt>
      <trkpt lat="44.19748" lon="5.00957">
        <ele>150</ele>
        <time>2016-06-30T10:21:04.015Z</time>
      </trkpt>
      <trkpt lat="44.19753" lon="5.0096">
        <ele>150</ele>
        <time>2016-06-30T10:21:05.015Z</time>
      </trkpt>
      <trkpt lat="44.19759" lon="5.00962">
        <ele>150</ele>
        <time>2016-06-30T10:21:06.015Z</time>
      </trkpt>
      <trkpt lat="44.19764" lon="5.00965">
        <ele>150</ele>
        <time>2016-06-30T10:21:07.015Z</time>
      </trkpt>
      <trkpt lat="44.19769" lon="5.00968">
        <ele>150</ele>
        <time>2016-06-30T10:21:08.015Z</time>
      </trkpt>
      <trkpt lat="44.19773" lon="5.00971">
        <ele>150</ele>
        <time>2016-06-30T10:21:09.015Z</time>
      </trkpt>
      <trkpt lat="44.19778" lon="5.00974">
        <ele>150</ele>
        <time>2016-06-30T10:21:10.015Z</time>
      </trkpt>
      <trkpt lat="44.19782" lon="5.00977">
        <ele>150</ele>
        <time>2016-06-30T10:21:11.015Z</time>
      </trkpt>
      <trkpt lat="44.19786" lon="5.0098">
        <ele>150</ele>
        <time>2016-06-30T10:21:12.015Z</time>
      </trkpt>
      <trkpt lat="44.19791" lon="5.00983">
        <ele>150</ele>
        <time>2016-06-30T10:21:13.015Z</time>
      </trkpt>
      <trkpt lat="44.19795" lon="5.00986">
        <ele>151</ele>
        <time>2016-06-30T10:21:14.015Z</time>
      </trkpt>
      <trkpt lat="44.19799" lon="5.00989">
        <ele>151</ele>
        <time>2016-06-30T10:21:15.015Z</time>
      </trkpt>
      <trkpt lat="44.19804" lon="5.00992">
        <ele>151</ele>
        <time>2016-06-30T10:21:16.015Z</time>
      </trkpt>
      <trkpt lat="44.19808" lon="5.00995">
        <ele>151</ele>
        <time>2016-06-30T10:21:17.015Z</time>
      </trkpt>
      <trkpt lat="44.19813" lon="5.00998">
        <ele>151</ele>
        <time>2016-06-30T10:21:18.015Z</time>
      </trkpt>
      <trkpt lat="44.19817" lon="5.01001">
        <ele>151</ele>
        <time>2016-06-30T10:21:19.015Z</time>
      </trkpt>
      <trkpt lat="44.19822" lon="5.01004">
        <ele>151</ele>
        <time>2016-06-30T10:21:20.015Z</time>
      </trkpt>
      <trkpt lat="44.19826" lon="5.01006">
        <ele>151</ele>
        <time>2016-06-30T10:21:21.015Z</time>
      </trkpt>
      <trkpt lat="44.19831" lon="5.01009">
        <ele>152</ele>
        <time>2016-06-30T10:21:22.015Z</time>
      </trkpt>
      <trkpt lat="44.19835" lon="5.01012">
        <ele>152</ele>
        <time>2016-06-30T10:21:23.015Z</time>
      </trkpt>
      <trkpt lat="44.1984" lon="5.01015">
        <ele>152</ele>
        <time>2016-06-30T10:21:24.015Z</time>
      </trkpt>
      <trkpt lat="44.19844" lon="5.01017">
        <ele>152</ele>
        <time>2016-06-30T10:21:25.015Z</time>
      </trkpt>
      <trkpt lat="44.19848" lon="5.0102">
        <ele>152</ele>
        <time>2016-06-30T10:21:26.015Z</time>
      </trkpt>
      <trkpt lat="44.19853" lon="5.01022">
        <ele>153</ele>
        <time>2016-06-30T10:21:27.015Z</time>
      </trkpt>
      <trkpt lat="44.19857" lon="5.01025">
        <ele>153</ele>
        <time>2016-06-30T10:21:28.015Z</time>
      </trkpt>
      <trkpt lat="44.19862" lon="5.01027">
        <ele>153</ele>
        <time>2016-06-30T10:21:29.015Z</time>
      </trkpt>
      <trkpt lat="44.19867" lon="5.0103">
        <ele>153</ele>
        <time>2016-06-30T10:21:30.015Z</time>
      </trkpt>
      <trkpt lat="44.19871" lon="5.01032">
        <ele>153</ele>
        <time>2016-06-30T10:21:31.015Z</time>
      </trkpt>
      <trkpt lat="44.19876" lon="5.01034">
        <ele>153</ele>
        <time>2016-06-30T10:21:32.015Z</time>
      </trkpt>
      <trkpt lat="44.19881" lon="5.01037">
        <ele>153</ele>
        <time>2016-06-30T10:21:33.015Z</time>
      </trkpt>
      <trkpt lat="44.19885" lon="5.01039">
        <ele>153</ele>
        <time>2016-06-30T10:21:34.015Z</time>
      </trkpt>
      <trkpt lat="44.1989" lon="5.01041">
        <ele>153</ele>
        <time>2016-06-30T10:21:35.015Z</time>
      </trkpt>
      <trkpt lat="44.19894" lon="5.01044">
        <ele>153</ele>
        <time>2016-06-30T10:21:36.015Z</time>
      </trkpt>
      <trkpt lat="44.19899" lon="5.01046">
        <ele>153</ele>
        <time>2016-06-30T10:21:37.015Z</time>
      </trkpt>
      <trkpt lat="44.19903" lon="5.01048">
        <ele>154</ele>
        <time>2016-06-30T10:21:38.015Z</time>
      </trkpt>
      <trkpt lat="44.19908" lon="5.0105">
        <ele>154</ele>
        <time>2016-06-30T10:21:39.015Z</time>
      </trkpt>
      <trkpt lat="44.19913" lon="5.01053">
        <ele>154</ele>
        <time>2016-06-30T10:21:40.015Z</time>
      </trkpt>
      <trkpt lat="44.19917" lon="5.01055">
        <ele>154</ele>
        <time>2016-06-30T10:21:41.015Z</time>
      </trkpt>
      <trkpt lat="44.19922" lon="5.01057">
        <ele>154</ele>
        <time>2016-06-30T10:21:42.015Z</time>
      </trkpt>
      <trkpt lat="44.19927" lon="5.01059">
        <ele>154</ele>
        <time>2016-06-30T10:21:43.015Z</time>
      </trkpt>
      <trkpt lat="44.19932" lon="5.01061">
        <ele>154</ele>
        <time>2016-06-30T10:21:44.015Z</time>
      </trkpt>
      <trkpt lat="44.19936" lon="5.01063">
        <ele>154</ele>
        <time>2016-06-30T10:21:45.015Z</time>
      </trkpt>
      <trkpt lat="44.19941" lon="5.01065">
        <ele>154</ele>
        <time>2016-06-30T10:21:46.015Z</time>
      </trkpt>
      <trkpt lat="44.19946" lon="5.01067">
        <ele>154</ele>
        <time>2016-06-30T10:21:47.015Z</time>
      </trkpt>
      <trkpt lat="44.1995" lon="5.01069">
        <ele>154</ele>
        <time>2016-06-30T10:21:48.015Z</time>
      </trkpt>
      <trkpt lat="44.19955" lon="5.01071">
        <ele>155</ele>
        <time>2016-06-30T10:21:49.015Z</time>
      </trkpt>
      <trkpt lat="44.1996" lon="5.01073">
        <ele>155</ele>
        <time>2016-06-30T10:21:50.015Z</time>
      </trkpt>
      <trkpt lat="44.19965" lon="5.01075">
        <ele>155</ele>
        <time>2016-06-30T10:21:51.015Z</time>
      </trkpt>
      <trkpt lat="44.1997" lon="5.01077">
        <ele>155</ele>
        <time>2016-06-30T10:21:52.015Z</time>
      </trkpt>
      <trkpt lat="44.19975" lon="5.01079">
        <ele>155</ele>
        <time>2016-06-30T10:21:53.015Z</time>
      </trkpt>
      <trkpt lat="44.1998" lon="5.01082">
        <ele>155</ele>
        <time>2016-06-30T10:21:54.015Z</time>
      </trkpt>
      <trkpt lat="44.19985" lon="5.01084">
        <ele>155</ele>
        <time>2016-06-30T10:21:55.015Z</time>
      </trkpt>
      <trkpt lat="44.19989" lon="5.01086">
        <ele>156</ele>
        <time>2016-06-30T10:21:56.015Z</time>
      </trkpt>
      <trkpt lat="44.19994" lon="5.01088">
        <ele>156</ele>
        <time>2016-06-30T10:21:57.015Z</time>
      </trkpt>
      <trkpt lat="44.19999" lon="5.01089">
        <ele>156</ele>
        <time>2016-06-30T10:21:58.015Z</time>
      </trkpt>
      <trkpt lat="44.20003" lon="5.01091">
        <ele>156</ele>
        <time>2016-06-30T10:21:59.015Z</time>
      </trkpt>
      <trkpt lat="44.20007" lon="5.01093">
        <ele>156</ele>
        <time>2016-06-30T10:22:00.015Z</time>
      </trkpt>
      <trkpt lat="44.20011" lon="5.01095">
        <ele>156</ele>
        <time>2016-06-30T10:22:01.015Z</time>
      </trkpt>
      <trkpt lat="44.20015" lon="5.01097">
        <ele>157</ele>
        <time>2016-06-30T10:22:02.015Z</time>
      </trkpt>
      <trkpt lat="44.2002" lon="5.01099">
        <ele>157</ele>
        <time>2016-06-30T10:22:03.015Z</time>
      </trkpt>
      <trkpt lat="44.20025" lon="5.01101">
        <ele>157</ele>
        <time>2016-06-30T10:22:04.015Z</time>
      </trkpt>
      <trkpt lat="44.2003" lon="5.01103">
        <ele>157</ele>
        <time>2016-06-30T10:22:05.015Z</time>
      </trkpt>
      <trkpt lat="44.20034" lon="5.01105">
        <ele>156</ele>
        <time>2016-06-30T10:22:06.015Z</time>
      </trkpt>
      <trkpt lat="44.20039" lon="5.01107">
        <ele>156</ele>
        <time>2016-06-30T10:22:07.015Z</time>
      </trkpt>
      <trkpt lat="44.20043" lon="5.01109">
        <ele>156</ele>
        <time>2016-06-30T10:22:08.015Z</time>
      </trkpt>
      <trkpt lat="44.20048" lon="5.01111">
        <ele>157</ele>
        <time>2016-06-30T10:22:09.015Z</time>
      </trkpt>
      <trkpt lat="44.20053" lon="5.01114">
        <ele>157</ele>
        <time>2016-06-30T10:22:10.015Z</time>
      </trkpt>
      <trkpt lat="44.20058" lon="5.01115">
        <ele>157</ele>
        <time>2016-06-30T10:22:11.015Z</time>
      </trkpt>
      <trkpt lat="44.20063" lon="5.01117">
        <ele>157</ele>
        <time>2016-06-30T10:22:12.015Z</time>
      </trkpt>
      <trkpt lat="44.20068" lon="5.01119">
        <ele>157</ele>
        <time>2016-06-30T10:22:13.015Z</time>
      </trkpt>
      <trkpt lat="44.20073" lon="5.01121">
        <ele>158</ele>
        <time>2016-06-30T10:22:14.015Z</time>
      </trkpt>
      <trkpt lat="44.20078" lon="5.01124">
        <ele>158</ele>
        <time>2016-06-30T10:22:15.015Z</time>
      </trkpt>
      <trkpt lat="44.20082" lon="5.01126">
        <ele>158</ele>
        <time>2016-06-30T10:22:16.015Z</time>
      </trkpt>
      <trkpt lat="44.20087" lon="5.01128">
        <ele>158</ele>
        <time>2016-06-30T10:22:17.015Z</time>
      </trkpt>
      <trkpt lat="44.20092" lon="5.0113">
        <ele>158</ele>
        <time>2016-06-30T10:22:18.015Z</time>
      </trkpt>
      <trkpt lat="44.20097" lon="5.01132">
        <ele>158</ele>
        <time>2016-06-30T10:22:19.015Z</time>
      </trkpt>
      <trkpt lat="44.20102" lon="5.01134">
        <ele>159</ele>
        <time>2016-06-30T10:22:20.015Z</time>
      </trkpt>
      <trkpt lat="44.20106" lon="5.01137">
        <ele>159</ele>
        <time>2016-06-30T10:22:21.015Z</time>
      </trkpt>
      <trkpt lat="44.20111" lon="5.01139">
        <ele>159</ele>
        <time>2016-06-30T10:22:22.015Z</time>
      </trkpt>
      <trkpt lat="44.20116" lon="5.01142">
        <ele>159</ele>
        <time>2016-06-30T10:22:23.015Z</time>
      </trkpt>
      <trkpt lat="44.20121" lon="5.01144">
        <ele>159</ele>
        <time>2016-06-30T10:22:24.015Z</time>
      </trkpt>
      <trkpt lat="44.20126" lon="5.01147">
        <ele>159</ele>
        <time>2016-06-30T10:22:25.015Z</time>
      </trkpt>
      <trkpt lat="44.2013" lon="5.0115">
        <ele>160</ele>
        <time>2016-06-30T10:22:26.015Z</time>
      </trkpt>
      <trkpt lat="44.20135" lon="5.01153">
        <ele>160</ele>
        <time>2016-06-30T10:22:27.015Z</time>
      </trkpt>
      <trkpt lat="44.20139" lon="5.01156">
        <ele>160</ele>
        <time>2016-06-30T10:22:28.015Z</time>
      </trkpt>
      <trkpt lat="44.20143" lon="5.01159">
        <ele>160</ele>
        <time>2016-06-30T10:22:29.015Z</time>
      </trkpt>
      <trkpt lat="44.20147" lon="5.01163">
        <ele>161</ele>
        <time>2016-06-30T10:22:30.015Z</time>
      </trkpt>
      <trkpt lat="44.2015" lon="5.01166">
        <ele>161</ele>
        <time>2016-06-30T10:22:31.015Z</time>
      </trkpt>
      <trkpt lat="44.20154" lon="5.01169">
        <ele>161</ele>
        <time>2016-06-30T10:22:32.015Z</time>
      </trkpt>
      <trkpt lat="44.20158" lon="5.01172">
        <ele>162</ele>
        <time>2016-06-30T10:22:33.015Z</time>
      </trkpt>
      <trkpt lat="44.20161" lon="5.01175">
        <ele>162</ele>
        <time>2016-06-30T10:22:34.015Z</time>
      </trkpt>
      <trkpt lat="44.20165" lon="5.01179">
        <ele>162</ele>
        <time>2016-06-30T10:22:35.015Z</time>
      </trkpt>
      <trkpt lat="44.20168" lon="5.01183">
        <ele>162</ele>
        <time>2016-06-30T10:22:36.015Z</time>
      </trkpt>
      <trkpt lat="44.20172" lon="5.01186">
        <ele>162</ele>
        <time>2016-06-30T10:22:37.015Z</time>
      </trkpt>
      <trkpt lat="44.20175" lon="5.01189">
        <ele>163</ele>
        <time>2016-06-30T10:22:38.015Z</time>
      </trkpt>
      <trkpt lat="44.20179" lon="5.01193">
        <ele>163</ele>
        <time>2016-06-30T10:22:39.015Z</time>
      </trkpt>
      <trkpt lat="44.20183" lon="5.01196">
        <ele>163</ele>
        <time>2016-06-30T10:22:40.015Z</time>
      </trkpt>
      <trkpt lat="44.20186" lon="5.012">
        <ele>163</ele>
        <time>2016-06-30T10:22:41.015Z</time>
      </trkpt>
      <trkpt lat="44.2019" lon="5.01204">
        <ele>163</ele>
        <time>2016-06-30T10:22:42.015Z</time>
      </trkpt>
      <trkpt lat="44.20193" lon="5.01208">
        <ele>163</ele>
        <time>2016-06-30T10:22:43.015Z</time>
      </trkpt>
      <trkpt lat="44.20197" lon="5.01212">
        <ele>163</ele>
        <time>2016-06-30T10:22:44.015Z</time>
      </trkpt>
      <trkpt lat="44.20201" lon="5.01216">
        <ele>164</ele>
        <time>2016-06-30T10:22:45.015Z</time>
      </trkpt>
      <trkpt lat="44.20204" lon="5.01219">
        <ele>164</ele>
        <time>2016-06-30T10:22:46.015Z</time>
      </trkpt>
      <trkpt lat="44.20208" lon="5.01223">
        <ele>164</ele>
        <time>2016-06-30T10:22:47.015Z</time>
      </trkpt>
      <trkpt lat="44.20212" lon="5.01227">
        <ele>164</ele>
        <time>2016-06-30T10:22:48.015Z</time>
      </trkpt>
      <trkpt lat="44.20215" lon="5.0123">
        <ele>164</ele>
        <time>2016-06-30T10:22:49.015Z</time>
      </trkpt>
      <trkpt lat="44.20218" lon="5.01234">
        <ele>165</ele>
        <time>2016-06-30T10:22:50.015Z</time>
      </trkpt>
      <trkpt lat="44.20222" lon="5.01238">
        <ele>165</ele>
        <time>2016-06-30T10:22:51.015Z</time>
      </trkpt>
      <trkpt lat="44.20225" lon="5.01241">
        <ele>165</ele>
        <time>2016-06-30T10:22:52.015Z</time>
      </trkpt>
      <trkpt lat="44.20229" lon="5.01245">
        <ele>166</ele>
        <time>2016-06-30T10:22:53.015Z</time>
      </trkpt>
      <trkpt lat="44.20232" lon="5.01249">
        <ele>166</ele>
        <time>2016-06-30T10:22:54.015Z</time>
      </trkpt>
      <trkpt lat="44.20235" lon="5.01253">
        <ele>166</ele>
        <time>2016-06-30T10:22:55.015Z</time>
      </trkpt>
      <trkpt lat="44.20238" lon="5.01257">
        <ele>166</ele>
        <time>2016-06-30T10:22:56.015Z</time>
      </trkpt>
      <trkpt lat="44.20241" lon="5.01262">
        <ele>166</ele>
        <time>2016-06-30T10:22:57.015Z</time>
      </trkpt>
      <trkpt lat="44.20243" lon="5.01267">
        <ele>166</ele>
        <time>2016-06-30T10:22:58.015Z</time>
      </trkpt>
      <trkpt lat="44.20246" lon="5.01272">
        <ele>166</ele>
        <time>2016-06-30T10:22:59.015Z</time>
      </trkpt>
      <trkpt lat="44.20248" lon="5.01277">
        <ele>167</ele>
        <time>2016-06-30T10:23:00.015Z</time>
      </trkpt>
      <trkpt lat="44.2025" lon="5.01283">
        <ele>167</ele>
        <time>2016-06-30T10:23:01.015Z</time>
      </trkpt>
      <trkpt lat="44.20252" lon="5.01289">
        <ele>167</ele>
        <time>2016-06-30T10:23:02.015Z</time>
      </trkpt>
      <trkpt lat="44.20253" lon="5.01295">
        <ele>167</ele>
        <time>2016-06-30T10:23:03.015Z</time>
      </trkpt>
      <trkpt lat="44.20254" lon="5.01302">
        <ele>167</ele>
        <time>2016-06-30T10:23:04.015Z</time>
      </trkpt>
      <trkpt lat="44.20254" lon="5.01308">
        <ele>168</ele>
        <time>2016-06-30T10:23:05.015Z</time>
      </trkpt>
      <trkpt lat="44.20255" lon="5.01315">
        <ele>168</ele>
        <time>2016-06-30T10:23:06.015Z</time>
      </trkpt>
      <trkpt lat="44.20255" lon="5.01321">
        <ele>168</ele>
        <time>2016-06-30T10:23:07.015Z</time>
      </trkpt>
      <trkpt lat="44.20254" lon="5.01328">
        <ele>168</ele>
        <time>2016-06-30T10:23:08.015Z</time>
      </trkpt>
      <trkpt lat="44.20254" lon="5.01334">
        <ele>169</ele>
        <time>2016-06-30T10:23:09.015Z</time>
      </trkpt>
      <trkpt lat="44.20254" lon="5.01341">
        <ele>169</ele>
        <time>2016-06-30T10:23:10.015Z</time>
      </trkpt>
      <trkpt lat="44.20253" lon="5.01347">
        <ele>169</ele>
        <time>2016-06-30T10:23:11.015Z</time>
      </trkpt>
      <trkpt lat="44.20253" lon="5.01354">
        <ele>169</ele>
        <time>2016-06-30T10:23:12.015Z</time>
      </trkpt>
      <trkpt lat="44.20252" lon="5.01361">
        <ele>170</ele>
        <time>2016-06-30T10:23:13.015Z</time>
      </trkpt>
      <trkpt lat="44.20252" lon="5.01367">
        <ele>170</ele>
        <time>2016-06-30T10:23:14.015Z</time>
      </trkpt>
      <trkpt lat="44.20251" lon="5.01374">
        <ele>170</ele>
        <time>2016-06-30T10:23:15.015Z</time>
      </trkpt>
      <trkpt lat="44.20251" lon="5.0138">
        <ele>170</ele>
        <time>2016-06-30T10:23:16.015Z</time>
      </trkpt>
      <trkpt lat="44.2025" lon="5.01387">
        <ele>170</ele>
        <time>2016-06-30T10:23:17.015Z</time>
      </trkpt>
      <trkpt lat="44.2025" lon="5.01394">
        <ele>171</ele>
        <time>2016-06-30T10:23:18.015Z</time>
      </trkpt>
      <trkpt lat="44.20249" lon="5.014">
        <ele>171</ele>
        <time>2016-06-30T10:23:19.015Z</time>
      </trkpt>
      <trkpt lat="44.20249" lon="5.01407">
        <ele>171</ele>
        <time>2016-06-30T10:23:20.015Z</time>
      </trkpt>
      <trkpt lat="44.20248" lon="5.01413">
        <ele>171</ele>
        <time>2016-06-30T10:23:21.015Z</time>
      </trkpt>
      <trkpt lat="44.20248" lon="5.0142">
        <ele>171</ele>
        <time>2016-06-30T10:23:22.015Z</time>
      </trkpt>
      <trkpt lat="44.20248" lon="5.01427">
        <ele>172</ele>
        <time>2016-06-30T10:23:23.015Z</time>
      </trkpt>
      <trkpt lat="44.20249" lon="5.01433">
        <ele>172</ele>
        <time>2016-06-30T10:23:24.015Z</time>
      </trkpt>
      <trkpt lat="44.2025" lon="5.0144">
        <ele>172</ele>
        <time>2016-06-30T10:23:25.015Z</time>
      </trkpt>
      <trkpt lat="44.20251" lon="5.01446">
        <ele>172</ele>
        <time>2016-06-30T10:23:26.015Z</time>
      </trkpt>
      <trkpt lat="44.20253" lon="5.01452">
        <ele>172</ele>
        <time>2016-06-30T10:23:27.015Z</time>
      </trkpt>
      <trkpt lat="44.20255" lon="5.01458">
        <ele>172</ele>
        <time>2016-06-30T10:23:28.015Z</time>
      </trkpt>
      <trkpt lat="44.20257" lon="5.01464">
        <ele>172</ele>
        <time>2016-06-30T10:23:29.015Z</time>
      </trkpt>
      <trkpt lat="44.20259" lon="5.01469">
        <ele>172</ele>
        <time>2016-06-30T10:23:30.015Z</time>
      </trkpt>
      <trkpt lat="44.20262" lon="5.01473">
        <ele>172</ele>
        <time>2016-06-30T10:23:31.015Z</time>
      </trkpt>
      <trkpt lat="44.20265" lon="5.01476">
        <ele>172</ele>
        <time>2016-06-30T10:23:32.015Z</time>
      </trkpt>
      <trkpt lat="44.20268" lon="5.0148">
        <ele>172</ele>
        <time>2016-06-30T10:23:33.015Z</time>
      </trkpt>
      <trkpt lat="44.20272" lon="5.01482">
        <ele>172</ele>
        <time>2016-06-30T10:23:34.015Z</time>
      </trkpt>
      <trkpt lat="44.20276" lon="5.01485">
        <ele>173</ele>
        <time>2016-06-30T10:23:35.015Z</time>
      </trkpt>
      <trkpt lat="44.2028" lon="5.01487">
        <ele>174</ele>
        <time>2016-06-30T10:23:36.015Z</time>
      </trkpt>
      <trkpt lat="44.20284" lon="5.01489">
        <ele>174</ele>
        <time>2016-06-30T10:23:37.015Z</time>
      </trkpt>
      <trkpt lat="44.20289" lon="5.01491">
        <ele>174</ele>
        <time>2016-06-30T10:23:38.015Z</time>
      </trkpt>
      <trkpt lat="44.20293" lon="5.01493">
        <ele>174</ele>
        <time>2016-06-30T10:23:39.015Z</time>
      </trkpt>
      <trkpt lat="44.20297" lon="5.01494">
        <ele>174</ele>
        <time>2016-06-30T10:23:40.015Z</time>
      </trkpt>
      <trkpt lat="44.20301" lon="5.01496">
        <ele>174</ele>
        <time>2016-06-30T10:23:41.015Z</time>
      </trkpt>
      <trkpt lat="44.20306" lon="5.01498">
        <ele>174</ele>
        <time>2016-06-30T10:23:42.015Z</time>
      </trkpt>
      <trkpt lat="44.2031" lon="5.015">
        <ele>174</ele>
        <time>2016-06-30T10:23:43.015Z</time>
      </trkpt>
      <trkpt lat="44.20314" lon="5.01502">
        <ele>174</ele>
        <time>2016-06-30T10:23:44.015Z</time>
      </trkpt>
      <trkpt lat="44.20319" lon="5.01504">
        <ele>174</ele>
        <time>2016-06-30T10:23:45.015Z</time>
      </trkpt>
      <trkpt lat="44.20323" lon="5.01505">
        <ele>174</ele>
        <time>2016-06-30T10:23:46.015Z</time>
      </trkpt>
      <trkpt lat="44.20327" lon="5.01507">
        <ele>175</ele>
        <time>2016-06-30T10:23:47.015Z</time>
      </trkpt>
      <trkpt lat="44.20331" lon="5.01509">
        <ele>175</ele>
        <time>2016-06-30T10:23:48.015Z</time>
      </trkpt>
      <trkpt lat="44.20334" lon="5.0151">
        <ele>175</ele>
        <time>2016-06-30T10:23:49.015Z</time>
      </trkpt>
      <trkpt lat="44.20338" lon="5.01512">
        <ele>175</ele>
        <time>2016-06-30T10:23:50.015Z</time>
      </trkpt>
      <trkpt lat="44.20341" lon="5.01513">
        <ele>175</ele>
        <time>2016-06-30T10:23:51.015Z</time>
      </trkpt>
      <trkpt lat="44.20345" lon="5.01515">
        <ele>175</ele>
        <time>2016-06-30T10:23:52.015Z</time>
      </trkpt>
      <trkpt lat="44.20349" lon="5.01516">
        <ele>175</ele>
        <time>2016-06-30T10:23:53.015Z</time>
      </trkpt>
      <trkpt lat="44.20353" lon="5.01518">
        <ele>176</ele>
        <time>2016-06-30T10:23:54.015Z</time>
      </trkpt>
      <trkpt lat="44.20357" lon="5.01519">
        <ele>177</ele>
        <time>2016-06-30T10:23:55.015Z</time>
      </trkpt>
      <trkpt lat="44.20361" lon="5.01521">
        <ele>177</ele>
        <time>2016-06-30T10:23:56.015Z</time>
      </trkpt>
      <trkpt lat="44.20364" lon="5.01523">
        <ele>177</ele>
        <time>2016-06-30T10:23:57.015Z</time>
      </trkpt>
      <trkpt lat="44.20367" lon="5.01524">
        <ele>177</ele>
        <time>2016-06-30T10:23:58.015Z</time>
      </trkpt>
      <trkpt lat="44.2037" lon="5.01526">
        <ele>178</ele>
        <time>2016-06-30T10:23:59.015Z</time>
      </trkpt>
      <trkpt lat="44.20373" lon="5.01527">
        <ele>178</ele>
        <time>2016-06-30T10:24:00.015Z</time>
      </trkpt>
      <trkpt lat="44.20377" lon="5.01529">
        <ele>178</ele>
        <time>2016-06-30T10:24:01.015Z</time>
      </trkpt>
      <trkpt lat="44.20381" lon="5.0153">
        <ele>178</ele>
        <time>2016-06-30T10:24:02.015Z</time>
      </trkpt>
      <trkpt lat="44.20385" lon="5.01532">
        <ele>178</ele>
        <time>2016-06-30T10:24:03.015Z</time>
      </trkpt>
      <trkpt lat="44.20389" lon="5.01533">
        <ele>178</ele>
        <time>2016-06-30T10:24:04.015Z</time>
      </trkpt>
      <trkpt lat="44.20393" lon="5.01535">
        <ele>178</ele>
        <time>2016-06-30T10:24:05.015Z</time>
      </trkpt>
      <trkpt lat="44.20397" lon="5.01537">
        <ele>178</ele>
        <time>2016-06-30T10:24:06.015Z</time>
      </trkpt>
      <trkpt lat="44.20401" lon="5.01539">
        <ele>178</ele>
        <time>2016-06-30T10:24:07.015Z</time>
      </trkpt>
      <trkpt lat="44.20405" lon="5.01541">
        <ele>179</ele>
        <time>2016-06-30T10:24:08.015Z</time>
      </trkpt>
      <trkpt lat="44.20409" lon="5.01543">
        <ele>179</ele>
        <time>2016-06-30T10:24:09.015Z</time>
      </trkpt>
      <trkpt lat="44.20413" lon="5.01545">
        <ele>179</ele>
        <time>2016-06-30T10:24:10.015Z</time>
      </trkpt>
      <trkpt lat="44.20417" lon="5.01548">
        <ele>179</ele>
        <time>2016-06-30T10:24:11.015Z</time>
      </trkpt>
      <trkpt lat="44.20421" lon="5.01551">
        <ele>179</ele>
        <time>2016-06-30T10:24:12.015Z</time>
      </trkpt>
      <trkpt lat="44.20424" lon="5.01554">
        <ele>180</ele>
        <time>2016-06-30T10:24:13.015Z</time>
      </trkpt>
      <trkpt lat="44.20428" lon="5.01558">
        <ele>180</ele>
        <time>2016-06-30T10:24:14.015Z</time>
      </trkpt>
      <trkpt lat="44.20431" lon="5.01562">
        <ele>180</ele>
        <time>2016-06-30T10:24:15.015Z</time>
      </trkpt>
      <trkpt lat="44.20435" lon="5.01566">
        <ele>180</ele>
        <time>2016-06-30T10:24:16.015Z</time>
      </trkpt>
      <trkpt lat="44.20438" lon="5.0157">
        <ele>181</ele>
        <time>2016-06-30T10:24:17.015Z</time>
      </trkpt>
      <trkpt lat="44.2044" lon="5.01575">
        <ele>181</ele>
        <time>2016-06-30T10:24:18.015Z</time>
      </trkpt>
      <trkpt lat="44.20443" lon="5.01579">
        <ele>181</ele>
        <time>2016-06-30T10:24:19.015Z</time>
      </trkpt>
      <trkpt lat="44.20445" lon="5.01584">
        <ele>182</ele>
        <time>2016-06-30T10:24:20.015Z</time>
      </trkpt>
      <trkpt lat="44.20448" lon="5.01589">
        <ele>182</ele>
        <time>2016-06-30T10:24:21.015Z</time>
      </trkpt>
      <trkpt lat="44.2045" lon="5.01594">
        <ele>182</ele>
        <time>2016-06-30T10:24:22.015Z</time>
      </trkpt>
      <trkpt lat="44.20453" lon="5.01599">
        <ele>183</ele>
        <time>2016-06-30T10:24:23.015Z</time>
      </trkpt>
      <trkpt lat="44.20455" lon="5.01605">
        <ele>183</ele>
        <time>2016-06-30T10:24:24.015Z</time>
      </trkpt>
      <trkpt lat="44.20458" lon="5.0161">
        <ele>183</ele>
        <time>2016-06-30T10:24:25.015Z</time>
      </trkpt>
      <trkpt lat="44.2046" lon="5.01615">
        <ele>183</ele>
        <time>2016-06-30T10:24:26.015Z</time>
      </trkpt>
      <trkpt lat="44.20463" lon="5.01621">
        <ele>183</ele>
        <time>2016-06-30T10:24:27.015Z</time>
      </trkpt>
      <trkpt lat="44.20465" lon="5.01626">
        <ele>184</ele>
        <time>2016-06-30T10:24:28.015Z</time>
      </trkpt>
      <trkpt lat="44.20468" lon="5.01631">
        <ele>184</ele>
        <time>2016-06-30T10:24:29.015Z</time>
      </trkpt>
      <trkpt lat="44.2047" lon="5.01636">
        <ele>185</ele>
        <time>2016-06-30T10:24:30.015Z</time>
      </trkpt>
      <trkpt lat="44.20473" lon="5.01641">
        <ele>185</ele>
        <time>2016-06-30T10:24:31.015Z</time>
      </trkpt>
      <trkpt lat="44.20475" lon="5.01646">
        <ele>185</ele>
        <time>2016-06-30T10:24:32.015Z</time>
      </trkpt>
      <trkpt lat="44.20478" lon="5.01651">
        <ele>186</ele>
        <time>2016-06-30T10:24:33.015Z</time>
      </trkpt>
      <trkpt lat="44.20481" lon="5.01656">
        <ele>186</ele>
        <time>2016-06-30T10:24:34.015Z</time>
      </trkpt>
      <trkpt lat="44.20484" lon="5.0166">
        <ele>186</ele>
        <time>2016-06-30T10:24:35.015Z</time>
      </trkpt>
      <trkpt lat="44.20487" lon="5.01665">
        <ele>186</ele>
        <time>2016-06-30T10:24:36.015Z</time>
      </trkpt>
      <trkpt lat="44.2049" lon="5.01669">
        <ele>187</ele>
        <time>2016-06-30T10:24:37.015Z</time>
      </trkpt>
      <trkpt lat="44.20493" lon="5.01674">
        <ele>187</ele>
        <time>2016-06-30T10:24:38.015Z</time>
      </trkpt>
      <trkpt lat="44.20497" lon="5.01678">
        <ele>187</ele>
        <time>2016-06-30T10:24:39.015Z</time>
      </trkpt>
      <trkpt lat="44.20501" lon="5.01682">
        <ele>187</ele>
        <time>2016-06-30T10:24:40.015Z</time>
      </trkpt>
      <trkpt lat="44.20504" lon="5.01686">
        <ele>188</ele>
        <time>2016-06-30T10:24:41.015Z</time>
      </trkpt>
      <trkpt lat="44.20508" lon="5.0169">
        <ele>188</ele>
        <time>2016-06-30T10:24:42.015Z</time>
      </trkpt>
      <trkpt lat="44.20511" lon="5.01694">
        <ele>188</ele>
        <time>2016-06-30T10:24:43.015Z</time>
      </trkpt>
      <trkpt lat="44.20515" lon="5.01698">
        <ele>189</ele>
        <time>2016-06-30T10:24:44.015Z</time>
      </trkpt>
      <trkpt lat="44.20518" lon="5.01702">
        <ele>189</ele>
        <time>2016-06-30T10:24:45.015Z</time>
      </trkpt>
      <trkpt lat="44.20522" lon="5.01706">
        <ele>189</ele>
        <time>2016-06-30T10:24:46.015Z</time>
      </trkpt>
      <trkpt lat="44.20525" lon="5.01711">
        <ele>190</ele>
        <time>2016-06-30T10:24:47.015Z</time>
      </trkpt>
      <trkpt lat="44.20529" lon="5.01715">
        <ele>190</ele>
        <time>2016-06-30T10:24:48.015Z</time>
      </trkpt>
      <trkpt lat="44.20533" lon="5.01719">
        <ele>190</ele>
        <time>2016-06-30T10:24:49.015Z</time>
      </trkpt>
      <trkpt lat="44.20536" lon="5.01723">
        <ele>191</ele>
        <time>2016-06-30T10:24:50.015Z</time>
      </trkpt>
      <trkpt lat="44.2054" lon="5.01727">
        <ele>191</ele>
        <time>2016-06-30T10:24:51.015Z</time>
      </trkpt>
      <trkpt lat="44.20543" lon="5.01731">
        <ele>191</ele>
        <time>2016-06-30T10:24:52.015Z</time>
      </trkpt>
      <trkpt lat="44.20547" lon="5.01735">
        <ele>192</ele>
        <time>2016-06-30T10:24:53.015Z</time>
      </trkpt>
      <trkpt lat="44.2055" lon="5.01739">
        <ele>192</ele>
        <time>2016-06-30T10:24:54.015Z</time>
      </trkpt>
      <trkpt lat="44.20554" lon="5.01743">
        <ele>192</ele>
        <time>2016-06-30T10:24:55.015Z</time>
      </trkpt>
      <trkpt lat="44.20557" lon="5.01747">
        <ele>193</ele>
        <time>2016-06-30T10:24:56.015Z</time>
      </trkpt>
      <trkpt lat="44.20561" lon="5.01751">
        <ele>193</ele>
        <time>2016-06-30T10:24:57.015Z</time>
      </trkpt>
      <trkpt lat="44.20565" lon="5.01755">
        <ele>193</ele>
        <time>2016-06-30T10:24:58.015Z</time>
      </trkpt>
      <trkpt lat="44.20569" lon="5.01759">
        <ele>194</ele>
        <time>2016-06-30T10:24:59.015Z</time>
      </trkpt>
      <trkpt lat="44.20572" lon="5.01764">
        <ele>194</ele>
        <time>2016-06-30T10:25:00.015Z</time>
      </trkpt>
      <trkpt lat="44.20576" lon="5.01767">
        <ele>194</ele>
        <time>2016-06-30T10:25:01.015Z</time>
      </trkpt>
      <trkpt lat="44.2058" lon="5.01771">
        <ele>195</ele>
        <time>2016-06-30T10:25:02.015Z</time>
      </trkpt>
      <trkpt lat="44.20584" lon="5.01775">
        <ele>195</ele>
        <time>2016-06-30T10:25:03.015Z</time>
      </trkpt>
      <trkpt lat="44.20588" lon="5.01778">
        <ele>196</ele>
        <time>2016-06-30T10:25:04.015Z</time>
      </trkpt>
      <trkpt lat="44.20593" lon="5.01782">
        <ele>196</ele>
        <time>2016-06-30T10:25:05.015Z</time>
      </trkpt>
      <trkpt lat="44.20597" lon="5.01785">
        <ele>197</ele>
        <time>2016-06-30T10:25:06.015Z</time>
      </trkpt>
      <trkpt lat="44.20601" lon="5.01788">
        <ele>197</ele>
        <time>2016-06-30T10:25:07.015Z</time>
      </trkpt>
      <trkpt lat="44.20606" lon="5.01791">
        <ele>197</ele>
        <time>2016-06-30T10:25:08.015Z</time>
      </trkpt>
      <trkpt lat="44.2061" lon="5.01794">
        <ele>197</ele>
        <time>2016-06-30T10:25:09.015Z</time>
      </trkpt>
      <trkpt lat="44.20614" lon="5.01797">
        <ele>198</ele>
        <time>2016-06-30T10:25:10.015Z</time>
      </trkpt>
      <trkpt lat="44.20618" lon="5.018">
        <ele>198</ele>
        <time>2016-06-30T10:25:11.015Z</time>
      </trkpt>
      <trkpt lat="44.20622" lon="5.01802">
        <ele>199</ele>
        <time>2016-06-30T10:25:12.015Z</time>
      </trkpt>
      <trkpt lat="44.20626" lon="5.01805">
        <ele>199</ele>
        <time>2016-06-30T10:25:13.015Z</time>
      </trkpt>
      <trkpt lat="44.20629" lon="5.01808">
        <ele>200</ele>
        <time>2016-06-30T10:25:14.015Z</time>
      </trkpt>
      <trkpt lat="44.20633" lon="5.0181">
        <ele>200</ele>
        <time>2016-06-30T10:25:15.015Z</time>
      </trkpt>
      <trkpt lat="44.20637" lon="5.01813">
        <ele>200</ele>
        <time>2016-06-30T10:25:16.015Z</time>
      </trkpt>
      <trkpt lat="44.20641" lon="5.01815">
        <ele>200</ele>
        <time>2016-06-30T10:25:17.015Z</time>
      </trkpt>
      <trkpt lat="44.20645" lon="5.01818">
        <ele>200</ele>
        <time>2016-06-30T10:25:18.015Z</time>
      </trkpt>
      <trkpt lat="44.20649" lon="5.01821">
        <ele>201</ele>
        <time>2016-06-30T10:25:19.015Z</time>
      </trkpt>
      <trkpt lat="44.20653" lon="5.01824">
        <ele>201</ele>
        <time>2016-06-30T10:25:20.015Z</time>
      </trkpt>
      <trkpt lat="44.20657" lon="5.01826">
        <ele>201</ele>
        <time>2016-06-30T10:25:21.015Z</time>
      </trkpt>
      <trkpt lat="44.2066" lon="5.01829">
        <ele>201</ele>
        <time>2016-06-30T10:25:22.015Z</time>
      </trkpt>
      <trkpt lat="44.20664" lon="5.01832">
        <ele>201</ele>
        <time>2016-06-30T10:25:23.015Z</time>
      </trkpt>
      <trkpt lat="44.20668" lon="5.01834">
        <ele>202</ele>
        <time>2016-06-30T10:25:24.015Z</time>
      </trkpt>
      <trkpt lat="44.20672" lon="5.01837">
        <ele>202</ele>
        <time>2016-06-30T10:25:25.015Z</time>
      </trkpt>
      <trkpt lat="44.20676" lon="5.01839">
        <ele>202</ele>
        <time>2016-06-30T10:25:26.015Z</time>
      </trkpt>
      <trkpt lat="44.2068" lon="5.01842">
        <ele>202</ele>
        <time>2016-06-30T10:25:27.015Z</time>
      </trkpt>
      <trkpt lat="44.20684" lon="5.01845">
        <ele>202</ele>
        <time>2016-06-30T10:25:28.015Z</time>
      </trkpt>
      <trkpt lat="44.20688" lon="5.01849">
        <ele>202</ele>
        <time>2016-06-30T10:25:29.015Z</time>
      </trkpt>
      <trkpt lat="44.20692" lon="5.01853">
        <ele>202</ele>
        <time>2016-06-30T10:25:30.015Z</time>
      </trkpt>
      <trkpt lat="44.20696" lon="5.01857">
        <ele>202</ele>
        <time>2016-06-30T10:25:31.015Z</time>
      </trkpt>
      <trkpt lat="44.20699" lon="5.01862">
        <ele>203</ele>
        <time>2016-06-30T10:25:32.015Z</time>
      </trkpt>
      <trkpt lat="44.20702" lon="5.01867">
        <ele>203</ele>
        <time>2016-06-30T10:25:33.015Z</time>
      </trkpt>
      <trkpt lat="44.20705" lon="5.01873">
        <ele>204</ele>
        <time>2016-06-30T10:25:34.015Z</time>
      </trkpt>
      <trkpt lat="44.20707" lon="5.01878">
        <ele>204</ele>
        <time>2016-06-30T10:25:35.015Z</time>
      </trkpt>
      <trkpt lat="44.20709" lon="5.01884">
        <ele>204</ele>
        <time>2016-06-30T10:25:36.015Z</time>
      </trkpt>
      <trkpt lat="44.20711" lon="5.0189">
        <ele>204</ele>
        <time>2016-06-30T10:25:37.015Z</time>
      </trkpt>
      <trkpt lat="44.20713" lon="5.01895">
        <ele>204</ele>
        <time>2016-06-30T10:25:38.015Z</time>
      </trkpt>
      <trkpt lat="44.20715" lon="5.01901">
        <ele>204</ele>
        <time>2016-06-30T10:25:39.015Z</time>
      </trkpt>
      <trkpt lat="44.20717" lon="5.01906">
        <ele>204</ele>
        <time>2016-06-30T10:25:40.015Z</time>
      </trkpt>
      <trkpt lat="44.20719" lon="5.01912">
        <ele>205</ele>
        <time>2016-06-30T10:25:41.015Z</time>
      </trkpt>
      <trkpt lat="44.20721" lon="5.01917">
        <ele>205</ele>
        <time>2016-06-30T10:25:42.015Z</time>
      </trkpt>
      <trkpt lat="44.20723" lon="5.01923">
        <ele>205</ele>
        <time>2016-06-30T10:25:43.015Z</time>
      </trkpt>
      <trkpt lat="44.20726" lon="5.01928">
        <ele>205</ele>
        <time>2016-06-30T10:25:44.015Z</time>
      </trkpt>
      <trkpt lat="44.20728" lon="5.01932">
        <ele>205</ele>
        <time>2016-06-30T10:25:45.015Z</time>
      </trkpt>
      <trkpt lat="44.20732" lon="5.01935">
        <ele>204</ele>
        <time>2016-06-30T10:25:46.015Z</time>
      </trkpt>
      <trkpt lat="44.20736" lon="5.01937">
        <ele>204</ele>
        <time>2016-06-30T10:25:47.015Z</time>
      </trkpt>
      <trkpt lat="44.2074" lon="5.01938">
        <ele>204</ele>
        <time>2016-06-30T10:25:48.015Z</time>
      </trkpt>
      <trkpt lat="44.20745" lon="5.01939">
        <ele>203</ele>
        <time>2016-06-30T10:25:49.015Z</time>
      </trkpt>
      <trkpt lat="44.20749" lon="5.0194">
        <ele>203</ele>
        <time>2016-06-30T10:25:50.015Z</time>
      </trkpt>
      <trkpt lat="44.20754" lon="5.01942">
        <ele>203</ele>
        <time>2016-06-30T10:25:51.015Z</time>
      </trkpt>
      <trkpt lat="44.20758" lon="5.01944">
        <ele>203</ele>
        <time>2016-06-30T10:25:52.015Z</time>
      </trkpt>
      <trkpt lat="44.20763" lon="5.01946">
        <ele>203</ele>
        <time>2016-06-30T10:25:53.015Z</time>
      </trkpt>
      <trkpt lat="44.20768" lon="5.01947">
        <ele>203</ele>
        <time>2016-06-30T10:25:54.015Z</time>
      </trkpt>
      <trkpt lat="44.20772" lon="5.01949">
        <ele>203</ele>
        <time>2016-06-30T10:25:55.015Z</time>
      </trkpt>
      <trkpt lat="44.20777" lon="5.01951">
        <ele>203</ele>
        <time>2016-06-30T10:25:56.015Z</time>
      </trkpt>
      <trkpt lat="44.20782" lon="5.01952">
        <ele>202</ele>
        <time>2016-06-30T10:25:57.015Z</time>
      </trkpt>
      <trkpt lat="44.20786" lon="5.01954">
        <ele>202</ele>
        <time>2016-06-30T10:25:58.015Z</time>
      </trkpt>
      <trkpt lat="44.20791" lon="5.01955">
        <ele>202</ele>
        <time>2016-06-30T10:25:59.015Z</time>
      </trkpt>
      <trkpt lat="44.20796" lon="5.01957">
        <ele>202</ele>
        <time>2016-06-30T10:26:00.015Z</time>
      </trkpt>
      <trkpt lat="44.20801" lon="5.01958">
        <ele>201</ele>
        <time>2016-06-30T10:26:01.015Z</time>
      </trkpt>
      <trkpt lat="44.20806" lon="5.01959">
        <ele>202</ele>
        <time>2016-06-30T10:26:02.015Z</time>
      </trkpt>
      <trkpt lat="44.2081" lon="5.0196">
        <ele>202</ele>
        <time>2016-06-30T10:26:03.015Z</time>
      </trkpt>
      <trkpt lat="44.20815" lon="5.0196">
        <ele>201</ele>
        <time>2016-06-30T10:26:04.015Z</time>
      </trkpt>
      <trkpt lat="44.2082" lon="5.0196">
        <ele>200</ele>
        <time>2016-06-30T10:26:05.015Z</time>
      </trkpt>
      <trkpt lat="44.20825" lon="5.01959">
        <ele>201</ele>
        <time>2016-06-30T10:26:06.015Z</time>
      </trkpt>
      <trkpt lat="44.20831" lon="5.01958">
        <ele>201</ele>
        <time>2016-06-30T10:26:07.015Z</time>
      </trkpt>
      <trkpt lat="44.20836" lon="5.01956">
        <ele>201</ele>
        <time>2016-06-30T10:26:08.015Z</time>
      </trkpt>
      <trkpt lat="44.20841" lon="5.01955">
        <ele>201</ele>
        <time>2016-06-30T10:26:09.015Z</time>
      </trkpt>
      <trkpt lat="44.20846" lon="5.01953">
        <ele>200</ele>
        <time>2016-06-30T10:26:10.015Z</time>
      </trkpt>
      <trkpt lat="44.20851" lon="5.01951">
        <ele>200</ele>
        <time>2016-06-30T10:26:11.015Z</time>
      </trkpt>
      <trkpt lat="44.20856" lon="5.01949">
        <ele>200</ele>
        <time>2016-06-30T10:26:12.015Z</time>
      </trkpt>
      <trkpt lat="44.20861" lon="5.01947">
        <ele>200</ele>
        <time>2016-06-30T10:26:13.015Z</time>
      </trkpt>
      <trkpt lat="44.20867" lon="5.01944">
        <ele>199</ele>
        <time>2016-06-30T10:26:14.015Z</time>
      </trkpt>
      <trkpt lat="44.20872" lon="5.01941">
        <ele>199</ele>
        <time>2016-06-30T10:26:15.015Z</time>
      </trkpt>
      <trkpt lat="44.20878" lon="5.01938">
        <ele>198</ele>
        <time>2016-06-30T10:26:16.015Z</time>
      </trkpt>
      <trkpt lat="44.20884" lon="5.01933">
        <ele>198</ele>
        <time>2016-06-30T10:26:17.015Z</time>
      </trkpt>
      <trkpt lat="44.2089" lon="5.01929">
        <ele>197</ele>
        <time>2016-06-30T10:26:18.015Z</time>
      </trkpt>
      <trkpt lat="44.20897" lon="5.01924">
        <ele>197</ele>
        <time>2016-06-30T10:26:19.015Z</time>
      </trkpt>
      <trkpt lat="44.20903" lon="5.0192">
        <ele>196</ele>
        <time>2016-06-30T10:26:20.015Z</time>
      </trkpt>
      <trkpt lat="44.20911" lon="5.01915">
        <ele>196</ele>
        <time>2016-06-30T10:26:21.015Z</time>
      </trkpt>
      <trkpt lat="44.20918" lon="5.01911">
        <ele>196</ele>
        <time>2016-06-30T10:26:22.015Z</time>
      </trkpt>
      <trkpt lat="44.20925" lon="5.01906">
        <ele>195</ele>
        <time>2016-06-30T10:26:23.015Z</time>
      </trkpt>
      <trkpt lat="44.20933" lon="5.01901">
        <ele>195</ele>
        <time>2016-06-30T10:26:24.015Z</time>
      </trkpt>
      <trkpt lat="44.2094" lon="5.01895">
        <ele>194</ele>
        <time>2016-06-30T10:26:25.015Z</time>
      </trkpt>
      <trkpt lat="44.20948" lon="5.0189">
        <ele>194</ele>
        <time>2016-06-30T10:26:26.015Z</time>
      </trkpt>
      <trkpt lat="44.20955" lon="5.01884">
        <ele>194</ele>
        <time>2016-06-30T10:26:27.015Z</time>
      </trkpt>
      <trkpt lat="44.20962" lon="5.01879">
        <ele>194</ele>
        <time>2016-06-30T10:26:28.015Z</time>
      </trkpt>
      <trkpt lat="44.20969" lon="5.01874">
        <ele>194</ele>
        <time>2016-06-30T10:26:29.015Z</time>
      </trkpt>
      <trkpt lat="44.20976" lon="5.01871">
        <ele>194</ele>
        <time>2016-06-30T10:26:30.015Z</time>
      </trkpt>
      <trkpt lat="44.20982" lon="5.01868">
        <ele>194</ele>
        <time>2016-06-30T10:26:31.015Z</time>
      </trkpt>
      <trkpt lat="44.20989" lon="5.01866">
        <ele>194</ele>
        <time>2016-06-30T10:26:32.015Z</time>
      </trkpt>
      <trkpt lat="44.20996" lon="5.01866">
        <ele>195</ele>
        <time>2016-06-30T10:26:33.015Z</time>
      </trkpt>
      <trkpt lat="44.21002" lon="5.01866">
        <ele>195</ele>
        <time>2016-06-30T10:26:34.015Z</time>
      </trkpt>
      <trkpt lat="44.21008" lon="5.01867">
        <ele>195</ele>
        <time>2016-06-30T10:26:35.015Z</time>
      </trkpt>
      <trkpt lat="44.21014" lon="5.01868">
        <ele>196</ele>
        <time>2016-06-30T10:26:36.015Z</time>
      </trkpt>
      <trkpt lat="44.21019" lon="5.01869">
        <ele>196</ele>
        <time>2016-06-30T10:26:37.015Z</time>
      </trkpt>
      <trkpt lat="44.21025" lon="5.0187">
        <ele>196</ele>
        <time>2016-06-30T10:26:38.015Z</time>
      </trkpt>
      <trkpt lat="44.21031" lon="5.01871">
        <ele>196</ele>
        <time>2016-06-30T10:26:39.015Z</time>
      </trkpt>
      <trkpt lat="44.21037" lon="5.01872">
        <ele>196</ele>
        <time>2016-06-30T10:26:40.015Z</time>
      </trkpt>
      <trkpt lat="44.21043" lon="5.01873">
        <ele>196</ele>
        <time>2016-06-30T10:26:41.015Z</time>
      </trkpt>
      <trkpt lat="44.21049" lon="5.01873">
        <ele>196</ele>
        <time>2016-06-30T10:26:42.015Z</time>
      </trkpt>
      <trkpt lat="44.21055" lon="5.01874">
        <ele>196</ele>
        <time>2016-06-30T10:26:43.015Z</time>
      </trkpt>
      <trkpt lat="44.21062" lon="5.01874">
        <ele>195</ele>
        <time>2016-06-30T10:26:44.015Z</time>
      </trkpt>
      <trkpt lat="44.21068" lon="5.01874">
        <ele>195</ele>
        <time>2016-06-30T10:26:45.015Z</time>
      </trkpt>
      <trkpt lat="44.21075" lon="5.01873">
        <ele>195</ele>
        <time>2016-06-30T10:26:46.015Z</time>
      </trkpt>
      <trkpt lat="44.21081" lon="5.01873">
        <ele>195</ele>
        <time>2016-06-30T10:26:47.015Z</time>
      </trkpt>
      <trkpt lat="44.21087" lon="5.01873">
        <ele>195</ele>
        <time>2016-06-30T10:26:48.015Z</time>
      </trkpt>
      <trkpt lat="44.21094" lon="5.01873">
        <ele>194</ele>
        <time>2016-06-30T10:26:49.015Z</time>
      </trkpt>
      <trkpt lat="44.211" lon="5.01872">
        <ele>194</ele>
        <time>2016-06-30T10:26:50.015Z</time>
      </trkpt>
      <trkpt lat="44.21106" lon="5.01872">
        <ele>194</ele>
        <time>2016-06-30T10:26:51.015Z</time>
      </trkpt>
      <trkpt lat="44.21112" lon="5.01871">
        <ele>194</ele>
        <time>2016-06-30T10:26:52.015Z</time>
      </trkpt>
      <trkpt lat="44.21119" lon="5.0187">
        <ele>194</ele>
        <time>2016-06-30T10:26:53.015Z</time>
      </trkpt>
      <trkpt lat="44.21125" lon="5.01868">
        <ele>193</ele>
        <time>2016-06-30T10:26:54.015Z</time>
      </trkpt>
      <trkpt lat="44.21132" lon="5.01866">
        <ele>193</ele>
        <time>2016-06-30T10:26:55.015Z</time>
      </trkpt>
      <trkpt lat="44.21139" lon="5.01864">
        <ele>192</ele>
        <time>2016-06-30T10:26:56.015Z</time>
      </trkpt>
      <trkpt lat="44.21146" lon="5.01861">
        <ele>192</ele>
        <time>2016-06-30T10:26:57.015Z</time>
      </trkpt>
      <trkpt lat="44.21153" lon="5.01859">
        <ele>191</ele>
        <time>2016-06-30T10:26:58.015Z</time>
      </trkpt>
      <trkpt lat="44.2116" lon="5.01856">
        <ele>191</ele>
        <time>2016-06-30T10:26:59.015Z</time>
      </trkpt>
      <trkpt lat="44.21167" lon="5.01854">
        <ele>190</ele>
        <time>2016-06-30T10:27:00.015Z</time>
      </trkpt>
      <trkpt lat="44.21175" lon="5.01851">
        <ele>190</ele>
        <time>2016-06-30T10:27:01.015Z</time>
      </trkpt>
      <trkpt lat="44.21182" lon="5.01848">
        <ele>189</ele>
        <time>2016-06-30T10:27:02.015Z</time>
      </trkpt>
      <trkpt lat="44.2119" lon="5.01845">
        <ele>189</ele>
        <time>2016-06-30T10:27:03.015Z</time>
      </trkpt>
      <trkpt lat="44.21198" lon="5.01842">
        <ele>189</ele>
        <time>2016-06-30T10:27:04.015Z</time>
      </trkpt>
      <trkpt lat="44.21206" lon="5.0184">
        <ele>188</ele>
        <time>2016-06-30T10:27:05.015Z</time>
      </trkpt>
      <trkpt lat="44.21214" lon="5.01837">
        <ele>188</ele>
        <time>2016-06-30T10:27:06.015Z</time>
      </trkpt>
      <trkpt lat="44.21222" lon="5.01834">
        <ele>187</ele>
        <time>2016-06-30T10:27:07.015Z</time>
      </trkpt>
      <trkpt lat="44.2123" lon="5.01831">
        <ele>187</ele>
        <time>2016-06-30T10:27:08.015Z</time>
      </trkpt>
      <trkpt lat="44.21238" lon="5.01828">
        <ele>187</ele>
        <time>2016-06-30T10:27:09.015Z</time>
      </trkpt>
      <trkpt lat="44.21246" lon="5.01824">
        <ele>187</ele>
        <time>2016-06-30T10:27:10.015Z</time>
      </trkpt>
      <trkpt lat="44.21253" lon="5.01821">
        <ele>186</ele>
        <time>2016-06-30T10:27:11.015Z</time>
      </trkpt>
      <trkpt lat="44.21261" lon="5.01817">
        <ele>186</ele>
        <time>2016-06-30T10:27:12.015Z</time>
      </trkpt>
      <trkpt lat="44.21268" lon="5.01812">
        <ele>186</ele>
        <time>2016-06-30T10:27:13.015Z</time>
      </trkpt>
      <trkpt lat="44.21275" lon="5.01808">
        <ele>185</ele>
        <time>2016-06-30T10:27:14.015Z</time>
      </trkpt>
      <trkpt lat="44.21283" lon="5.01803">
        <ele>185</ele>
        <time>2016-06-30T10:27:15.015Z</time>
      </trkpt>
      <trkpt lat="44.2129" lon="5.01799">
        <ele>184</ele>
        <time>2016-06-30T10:27:16.015Z</time>
      </trkpt>
      <trkpt lat="44.21298" lon="5.01795">
        <ele>184</ele>
        <time>2016-06-30T10:27:17.015Z</time>
      </trkpt>
      <trkpt lat="44.21306" lon="5.01792">
        <ele>184</ele>
        <time>2016-06-30T10:27:18.015Z</time>
      </trkpt>
      <trkpt lat="44.21313" lon="5.01789">
        <ele>183</ele>
        <time>2016-06-30T10:27:19.015Z</time>
      </trkpt>
      <trkpt lat="44.21321" lon="5.01786">
        <ele>183</ele>
        <time>2016-06-30T10:27:20.015Z</time>
      </trkpt>
      <trkpt lat="44.21329" lon="5.01783">
        <ele>183</ele>
        <time>2016-06-30T10:27:21.015Z</time>
      </trkpt>
      <trkpt lat="44.21337" lon="5.0178">
        <ele>182</ele>
        <time>2016-06-30T10:27:22.015Z</time>
      </trkpt>
      <trkpt lat="44.21344" lon="5.01776">
        <ele>182</ele>
        <time>2016-06-30T10:27:23.015Z</time>
      </trkpt>
      <trkpt lat="44.21352" lon="5.01773">
        <ele>182</ele>
        <time>2016-06-30T10:27:24.015Z</time>
      </trkpt>
      <trkpt lat="44.2136" lon="5.0177">
        <ele>182</ele>
        <time>2016-06-30T10:27:25.015Z</time>
      </trkpt>
      <trkpt lat="44.21367" lon="5.01767">
        <ele>181</ele>
        <time>2016-06-30T10:27:26.015Z</time>
      </trkpt>
      <trkpt lat="44.21375" lon="5.01764">
        <ele>181</ele>
        <time>2016-06-30T10:27:27.015Z</time>
      </trkpt>
      <trkpt lat="44.21383" lon="5.01762">
        <ele>181</ele>
        <time>2016-06-30T10:27:28.015Z</time>
      </trkpt>
      <trkpt lat="44.2139" lon="5.01759">
        <ele>181</ele>
        <time>2016-06-30T10:27:29.015Z</time>
      </trkpt>
      <trkpt lat="44.21398" lon="5.01757">
        <ele>180</ele>
        <time>2016-06-30T10:27:30.015Z</time>
      </trkpt>
      <trkpt lat="44.21406" lon="5.01755">
        <ele>180</ele>
        <time>2016-06-30T10:27:31.015Z</time>
      </trkpt>
      <trkpt lat="44.21413" lon="5.01754">
        <ele>180</ele>
        <time>2016-06-30T10:27:32.015Z</time>
      </trkpt>
      <trkpt lat="44.21421" lon="5.01752">
        <ele>180</ele>
        <time>2016-06-30T10:27:33.015Z</time>
      </trkpt>
      <trkpt lat="44.21428" lon="5.0175">
        <ele>180</ele>
        <time>2016-06-30T10:27:34.015Z</time>
      </trkpt>
      <trkpt lat="44.21435" lon="5.01749">
        <ele>179</ele>
        <time>2016-06-30T10:27:35.015Z</time>
      </trkpt>
      <trkpt lat="44.21443" lon="5.01746">
        <ele>179</ele>
        <time>2016-06-30T10:27:36.015Z</time>
      </trkpt>
      <trkpt lat="44.2145" lon="5.01744">
        <ele>179</ele>
        <time>2016-06-30T10:27:37.015Z</time>
      </trkpt>
      <trkpt lat="44.21457" lon="5.01741">
        <ele>179</ele>
        <time>2016-06-30T10:27:38.015Z</time>
      </trkpt>
      <trkpt lat="44.21464" lon="5.01738">
        <ele>179</ele>
        <time>2016-06-30T10:27:39.015Z</time>
      </trkpt>
      <trkpt lat="44.21471" lon="5.01734">
        <ele>178</ele>
        <time>2016-06-30T10:27:40.015Z</time>
      </trkpt>
      <trkpt lat="44.21478" lon="5.01731">
        <ele>178</ele>
        <time>2016-06-30T10:27:41.015Z</time>
      </trkpt>
      <trkpt lat="44.21485" lon="5.01727">
        <ele>178</ele>
        <time>2016-06-30T10:27:42.015Z</time>
      </trkpt>
      <trkpt lat="44.21492" lon="5.01723">
        <ele>178</ele>
        <time>2016-06-30T10:27:43.015Z</time>
      </trkpt>
      <trkpt lat="44.21498" lon="5.0172">
        <ele>177</ele>
        <time>2016-06-30T10:27:44.015Z</time>
      </trkpt>
      <trkpt lat="44.21505" lon="5.01716">
        <ele>177</ele>
        <time>2016-06-30T10:27:45.015Z</time>
      </trkpt>
      <trkpt lat="44.21511" lon="5.01712">
        <ele>177</ele>
        <time>2016-06-30T10:27:46.015Z</time>
      </trkpt>
      <trkpt lat="44.21518" lon="5.01709">
        <ele>176</ele>
        <time>2016-06-30T10:27:47.015Z</time>
      </trkpt>
      <trkpt lat="44.21524" lon="5.01705">
        <ele>176</ele>
        <time>2016-06-30T10:27:48.015Z</time>
      </trkpt>
      <trkpt lat="44.2153" lon="5.01702">
        <ele>176</ele>
        <time>2016-06-30T10:27:49.015Z</time>
      </trkpt>
      <trkpt lat="44.21537" lon="5.01699">
        <ele>176</ele>
        <time>2016-06-30T10:27:50.015Z</time>
      </trkpt>
      <trkpt lat="44.21543" lon="5.01695">
        <ele>176</ele>
        <time>2016-06-30T10:27:51.015Z</time>
      </trkpt>
      <trkpt lat="44.21549" lon="5.01692">
        <ele>175</ele>
        <time>2016-06-30T10:27:52.015Z</time>
      </trkpt>
      <trkpt lat="44.21556" lon="5.01688">
        <ele>175</ele>
        <time>2016-06-30T10:27:53.015Z</time>
      </trkpt>
      <trkpt lat="44.21562" lon="5.01685">
        <ele>175</ele>
        <time>2016-06-30T10:27:54.015Z</time>
      </trkpt>
      <trkpt lat="44.21568" lon="5.01681">
        <ele>174</ele>
        <time>2016-06-30T10:27:55.015Z</time>
      </trkpt>
      <trkpt lat="44.21574" lon="5.01678">
        <ele>174</ele>
        <time>2016-06-30T10:27:56.015Z</time>
      </trkpt>
      <trkpt lat="44.2158" lon="5.01675">
        <ele>174</ele>
        <time>2016-06-30T10:27:57.015Z</time>
      </trkpt>
      <trkpt lat="44.21586" lon="5.01673">
        <ele>174</ele>
        <time>2016-06-30T10:27:58.015Z</time>
      </trkpt>
      <trkpt lat="44.21592" lon="5.01669">
        <ele>174</ele>
        <time>2016-06-30T10:27:59.015Z</time>
      </trkpt>
      <trkpt lat="44.21598" lon="5.01666">
        <ele>173</ele>
        <time>2016-06-30T10:28:00.015Z</time>
      </trkpt>
      <trkpt lat="44.21603" lon="5.01663">
        <ele>173</ele>
        <time>2016-06-30T10:28:01.015Z</time>
      </trkpt>
      <trkpt lat="44.21609" lon="5.01659">
        <ele>173</ele>
        <time>2016-06-30T10:28:02.015Z</time>
      </trkpt>
      <trkpt lat="44.21615" lon="5.01656">
        <ele>172</ele>
        <time>2016-06-30T10:28:03.015Z</time>
      </trkpt>
      <trkpt lat="44.21621" lon="5.01653">
        <ele>172</ele>
        <time>2016-06-30T10:28:04.015Z</time>
      </trkpt>
      <trkpt lat="44.21628" lon="5.0165">
        <ele>171</ele>
        <time>2016-06-30T10:28:05.015Z</time>
      </trkpt>
      <trkpt lat="44.21634" lon="5.01647">
        <ele>171</ele>
        <time>2016-06-30T10:28:06.015Z</time>
      </trkpt>
      <trkpt lat="44.2164" lon="5.01645">
        <ele>171</ele>
        <time>2016-06-30T10:28:07.015Z</time>
      </trkpt>
      <trkpt lat="44.21647" lon="5.01643">
        <ele>171</ele>
        <time>2016-06-30T10:28:08.015Z</time>
      </trkpt>
      <trkpt lat="44.21653" lon="5.01641">
        <ele>170</ele>
        <time>2016-06-30T10:28:09.015Z</time>
      </trkpt>
      <trkpt lat="44.2166" lon="5.01639">
        <ele>170</ele>
        <time>2016-06-30T10:28:10.015Z</time>
      </trkpt>
      <trkpt lat="44.21666" lon="5.01638">
        <ele>170</ele>
        <time>2016-06-30T10:28:11.015Z</time>
      </trkpt>
      <trkpt lat="44.21673" lon="5.01636">
        <ele>169</ele>
        <time>2016-06-30T10:28:12.015Z</time>
      </trkpt>
      <trkpt lat="44.2168" lon="5.01634">
        <ele>169</ele>
        <time>2016-06-30T10:28:13.015Z</time>
      </trkpt>
      <trkpt lat="44.21686" lon="5.01632">
        <ele>169</ele>
        <time>2016-06-30T10:28:14.015Z</time>
      </trkpt>
      <trkpt lat="44.21693" lon="5.0163">
        <ele>169</ele>
        <time>2016-06-30T10:28:15.015Z</time>
      </trkpt>
      <trkpt lat="44.21699" lon="5.01628">
        <ele>169</ele>
        <time>2016-06-30T10:28:16.015Z</time>
      </trkpt>
      <trkpt lat="44.21706" lon="5.01625">
        <ele>169</ele>
        <time>2016-06-30T10:28:17.015Z</time>
      </trkpt>
      <trkpt lat="44.21712" lon="5.01623">
        <ele>169</ele>
        <time>2016-06-30T10:28:18.015Z</time>
      </trkpt>
      <trkpt lat="44.21718" lon="5.01621">
        <ele>168</ele>
        <time>2016-06-30T10:28:19.015Z</time>
      </trkpt>
      <trkpt lat="44.21724" lon="5.01618">
        <ele>168</ele>
        <time>2016-06-30T10:28:20.015Z</time>
      </trkpt>
      <trkpt lat="44.2173" lon="5.01616">
        <ele>168</ele>
        <time>2016-06-30T10:28:21.015Z</time>
      </trkpt>
      <trkpt lat="44.21736" lon="5.01613">
        <ele>168</ele>
        <time>2016-06-30T10:28:22.015Z</time>
      </trkpt>
      <trkpt lat="44.21741" lon="5.01611">
        <ele>168</ele>
        <time>2016-06-30T10:28:23.015Z</time>
      </trkpt>
      <trkpt lat="44.21747" lon="5.01609">
        <ele>168</ele>
        <time>2016-06-30T10:28:24.015Z</time>
      </trkpt>
      <trkpt lat="44.21753" lon="5.01607">
        <ele>167</ele>
        <time>2016-06-30T10:28:25.015Z</time>
      </trkpt>
      <trkpt lat="44.21758" lon="5.01604">
        <ele>167</ele>
        <time>2016-06-30T10:28:26.015Z</time>
      </trkpt>
      <trkpt lat="44.21764" lon="5.01602">
        <ele>167</ele>
        <time>2016-06-30T10:28:27.015Z</time>
      </trkpt>
      <trkpt lat="44.2177" lon="5.016">
        <ele>167</ele>
        <time>2016-06-30T10:28:28.015Z</time>
      </trkpt>
      <trkpt lat="44.21775" lon="5.01598">
        <ele>166</ele>
        <time>2016-06-30T10:28:29.015Z</time>
      </trkpt>
      <trkpt lat="44.21781" lon="5.01596">
        <ele>166</ele>
        <time>2016-06-30T10:28:30.015Z</time>
      </trkpt>
      <trkpt lat="44.21786" lon="5.01594">
        <ele>166</ele>
        <time>2016-06-30T10:28:31.015Z</time>
      </trkpt>
      <trkpt lat="44.21791" lon="5.01593">
        <ele>166</ele>
        <time>2016-06-30T10:28:32.015Z</time>
      </trkpt>
      <trkpt lat="44.21797" lon="5.01591">
        <ele>166</ele>
        <time>2016-06-30T10:28:33.015Z</time>
      </trkpt>
      <trkpt lat="44.21802" lon="5.0159">
        <ele>166</ele>
        <time>2016-06-30T10:28:34.015Z</time>
      </trkpt>
      <trkpt lat="44.21807" lon="5.01589">
        <ele>166</ele>
        <time>2016-06-30T10:28:35.015Z</time>
      </trkpt>
      <trkpt lat="44.21813" lon="5.01588">
        <ele>166</ele>
        <time>2016-06-30T10:28:36.015Z</time>
      </trkpt>
      <trkpt lat="44.21818" lon="5.01587">
        <ele>166</ele>
        <time>2016-06-30T10:28:37.015Z</time>
      </trkpt>
      <trkpt lat="44.21823" lon="5.01587">
        <ele>166</ele>
        <time>2016-06-30T10:28:38.015Z</time>
      </trkpt>
      <trkpt lat="44.21828" lon="5.01587">
        <ele>166</ele>
        <time>2016-06-30T10:28:39.015Z</time>
      </trkpt>
      <trkpt lat="44.21833" lon="5.01588">
        <ele>166</ele>
        <time>2016-06-30T10:28:40.015Z</time>
      </trkpt>
      <trkpt lat="44.21839" lon="5.01588">
        <ele>166</ele>
        <time>2016-06-30T10:28:41.015Z</time>
      </trkpt>
      <trkpt lat="44.21844" lon="5.01589">
        <ele>166</ele>
        <time>2016-06-30T10:28:42.015Z</time>
      </trkpt>
      <trkpt lat="44.21849" lon="5.0159">
        <ele>166</ele>
        <time>2016-06-30T10:28:43.015Z</time>
      </trkpt>
      <trkpt lat="44.21854" lon="5.01592">
        <ele>166</ele>
        <time>2016-06-30T10:28:44.015Z</time>
      </trkpt>
      <trkpt lat="44.21859" lon="5.01593">
        <ele>166</ele>
        <time>2016-06-30T10:28:45.015Z</time>
      </trkpt>
      <trkpt lat="44.21864" lon="5.01595">
        <ele>166</ele>
        <time>2016-06-30T10:28:46.015Z</time>
      </trkpt>
      <trkpt lat="44.21869" lon="5.01597">
        <ele>166</ele>
        <time>2016-06-30T10:28:47.015Z</time>
      </trkpt>
      <trkpt lat="44.21873" lon="5.01598">
        <ele>166</ele>
        <time>2016-06-30T10:28:48.015Z</time>
      </trkpt>
      <trkpt lat="44.21878" lon="5.016">
        <ele>166</ele>
        <time>2016-06-30T10:28:49.015Z</time>
      </trkpt>
      <trkpt lat="44.21882" lon="5.01601">
        <ele>166</ele>
        <time>2016-06-30T10:28:50.015Z</time>
      </trkpt>
      <trkpt lat="44.21887" lon="5.01603">
        <ele>166</ele>
        <time>2016-06-30T10:28:51.015Z</time>
      </trkpt>
      <trkpt lat="44.21893" lon="5.01606">
        <ele>166</ele>
        <time>2016-06-30T10:28:52.015Z</time>
      </trkpt>
      <trkpt lat="44.21898" lon="5.01608">
        <ele>166</ele>
        <time>2016-06-30T10:28:53.015Z</time>
      </trkpt>
      <trkpt lat="44.21904" lon="5.01611">
        <ele>166</ele>
        <time>2016-06-30T10:28:54.015Z</time>
      </trkpt>
      <trkpt lat="44.2191" lon="5.01614">
        <ele>167</ele>
        <time>2016-06-30T10:28:55.015Z</time>
      </trkpt>
      <trkpt lat="44.21916" lon="5.01616">
        <ele>167</ele>
        <time>2016-06-30T10:28:56.015Z</time>
      </trkpt>
      <trkpt lat="44.21922" lon="5.01619">
        <ele>167</ele>
        <time>2016-06-30T10:28:57.015Z</time>
      </trkpt>
      <trkpt lat="44.21927" lon="5.01621">
        <ele>167</ele>
        <time>2016-06-30T10:28:58.015Z</time>
      </trkpt>
      <trkpt lat="44.21933" lon="5.01624">
        <ele>167</ele>
        <time>2016-06-30T10:28:59.015Z</time>
      </trkpt>
      <trkpt lat="44.21938" lon="5.01626">
        <ele>167</ele>
        <time>2016-06-30T10:29:00.015Z</time>
      </trkpt>
      <trkpt lat="44.21944" lon="5.01629">
        <ele>167</ele>
        <time>2016-06-30T10:29:01.015Z</time>
      </trkpt>
      <trkpt lat="44.2195" lon="5.01631">
        <ele>167</ele>
        <time>2016-06-30T10:29:02.015Z</time>
      </trkpt>
      <trkpt lat="44.21955" lon="5.01634">
        <ele>167</ele>
        <time>2016-06-30T10:29:03.015Z</time>
      </trkpt>
      <trkpt lat="44.21961" lon="5.01636">
        <ele>167</ele>
        <time>2016-06-30T10:29:04.015Z</time>
      </trkpt>
      <trkpt lat="44.21967" lon="5.01639">
        <ele>167</ele>
        <time>2016-06-30T10:29:05.015Z</time>
      </trkpt>
      <trkpt lat="44.21973" lon="5.01641">
        <ele>167</ele>
        <time>2016-06-30T10:29:06.015Z</time>
      </trkpt>
      <trkpt lat="44.21978" lon="5.01644">
        <ele>167</ele>
        <time>2016-06-30T10:29:07.015Z</time>
      </trkpt>
      <trkpt lat="44.21984" lon="5.01646">
        <ele>167</ele>
        <time>2016-06-30T10:29:08.015Z</time>
      </trkpt>
      <trkpt lat="44.21989" lon="5.01649">
        <ele>167</ele>
        <time>2016-06-30T10:29:09.015Z</time>
      </trkpt>
      <trkpt lat="44.21995" lon="5.01651">
        <ele>167</ele>
        <time>2016-06-30T10:29:10.015Z</time>
      </trkpt>
      <trkpt lat="44.22" lon="5.01653">
        <ele>167</ele>
        <time>2016-06-30T10:29:11.015Z</time>
      </trkpt>
      <trkpt lat="44.22006" lon="5.01656">
        <ele>168</ele>
        <time>2016-06-30T10:29:12.015Z</time>
      </trkpt>
      <trkpt lat="44.22011" lon="5.01658">
        <ele>168</ele>
        <time>2016-06-30T10:29:13.015Z</time>
      </trkpt>
      <trkpt lat="44.22017" lon="5.01661">
        <ele>168</ele>
        <time>2016-06-30T10:29:14.015Z</time>
      </trkpt>
      <trkpt lat="44.22023" lon="5.01663">
        <ele>167</ele>
        <time>2016-06-30T10:29:15.015Z</time>
      </trkpt>
      <trkpt lat="44.22028" lon="5.01666">
        <ele>168</ele>
        <time>2016-06-30T10:29:16.015Z</time>
      </trkpt>
      <trkpt lat="44.22034" lon="5.01669">
        <ele>168</ele>
        <time>2016-06-30T10:29:17.015Z</time>
      </trkpt>
      <trkpt lat="44.2204" lon="5.01671">
        <ele>168</ele>
        <time>2016-06-30T10:29:18.015Z</time>
      </trkpt>
      <trkpt lat="44.22046" lon="5.01674">
        <ele>168</ele>
        <time>2016-06-30T10:29:19.015Z</time>
      </trkpt>
      <trkpt lat="44.22051" lon="5.01676">
        <ele>168</ele>
        <time>2016-06-30T10:29:20.015Z</time>
      </trkpt>
      <trkpt lat="44.22057" lon="5.01679">
        <ele>168</ele>
        <time>2016-06-30T10:29:21.015Z</time>
      </trkpt>
      <trkpt lat="44.22063" lon="5.01681">
        <ele>168</ele>
        <time>2016-06-30T10:29:22.015Z</time>
      </trkpt>
      <trkpt lat="44.22068" lon="5.01684">
        <ele>168</ele>
        <time>2016-06-30T10:29:23.015Z</time>
      </trkpt>
      <trkpt lat="44.22074" lon="5.01687">
        <ele>168</ele>
        <time>2016-06-30T10:29:24.015Z</time>
      </trkpt>
      <trkpt lat="44.22079" lon="5.01689">
        <ele>168</ele>
        <time>2016-06-30T10:29:25.015Z</time>
      </trkpt>
      <trkpt lat="44.22085" lon="5.01692">
        <ele>169</ele>
        <time>2016-06-30T10:29:26.015Z</time>
      </trkpt>
      <trkpt lat="44.2209" lon="5.01694">
        <ele>168</ele>
        <time>2016-06-30T10:29:27.015Z</time>
      </trkpt>
      <trkpt lat="44.22096" lon="5.01696">
        <ele>169</ele>
        <time>2016-06-30T10:29:28.015Z</time>
      </trkpt>
      <trkpt lat="44.22101" lon="5.01699">
        <ele>168</ele>
        <time>2016-06-30T10:29:29.015Z</time>
      </trkpt>
      <trkpt lat="44.22107" lon="5.01701">
        <ele>169</ele>
        <time>2016-06-30T10:29:30.015Z</time>
      </trkpt>
      <trkpt lat="44.22112" lon="5.01703">
        <ele>169</ele>
        <time>2016-06-30T10:29:31.015Z</time>
      </trkpt>
      <trkpt lat="44.22118" lon="5.01706">
        <ele>169</ele>
        <time>2016-06-30T10:29:32.015Z</time>
      </trkpt>
      <trkpt lat="44.22123" lon="5.01708">
        <ele>169</ele>
        <time>2016-06-30T10:29:33.015Z</time>
      </trkpt>
      <trkpt lat="44.22129" lon="5.01711">
        <ele>169</ele>
        <time>2016-06-30T10:29:34.015Z</time>
      </trkpt>
      <trkpt lat="44.22135" lon="5.01713">
        <ele>169</ele>
        <time>2016-06-30T10:29:35.015Z</time>
      </trkpt>
      <trkpt lat="44.22141" lon="5.01716">
        <ele>169</ele>
        <time>2016-06-30T10:29:36.015Z</time>
      </trkpt>
      <trkpt lat="44.22148" lon="5.01719">
        <ele>169</ele>
        <time>2016-06-30T10:29:37.015Z</time>
      </trkpt>
      <trkpt lat="44.22155" lon="5.01721">
        <ele>169</ele>
        <time>2016-06-30T10:29:38.015Z</time>
      </trkpt>
      <trkpt lat="44.22162" lon="5.01723">
        <ele>169</ele>
        <time>2016-06-30T10:29:39.015Z</time>
      </trkpt>
      <trkpt lat="44.22168" lon="5.01725">
        <ele>169</ele>
        <time>2016-06-30T10:29:40.015Z</time>
      </trkpt>
      <trkpt lat="44.22175" lon="5.01727">
        <ele>169</ele>
        <time>2016-06-30T10:29:41.015Z</time>
      </trkpt>
      <trkpt lat="44.22181" lon="5.01728">
        <ele>169</ele>
        <time>2016-06-30T10:29:42.015Z</time>
      </trkpt>
      <trkpt lat="44.22187" lon="5.0173">
        <ele>169</ele>
        <time>2016-06-30T10:29:43.015Z</time>
      </trkpt>
      <trkpt lat="44.22193" lon="5.01731">
        <ele>169</ele>
        <time>2016-06-30T10:29:44.015Z</time>
      </trkpt>
      <trkpt lat="44.22199" lon="5.01731">
        <ele>169</ele>
        <time>2016-06-30T10:29:45.015Z</time>
      </trkpt>
      <trkpt lat="44.22204" lon="5.01732">
        <ele>169</ele>
        <time>2016-06-30T10:29:46.015Z</time>
      </trkpt>
      <trkpt lat="44.2221" lon="5.01732">
        <ele>169</ele>
        <time>2016-06-30T10:29:47.015Z</time>
      </trkpt>
      <trkpt lat="44.22216" lon="5.01732">
        <ele>169</ele>
        <time>2016-06-30T10:29:48.015Z</time>
      </trkpt>
      <trkpt lat="44.22222" lon="5.01733">
        <ele>169</ele>
        <time>2016-06-30T10:29:49.015Z</time>
      </trkpt>
      <trkpt lat="44.22227" lon="5.01733">
        <ele>169</ele>
        <time>2016-06-30T10:29:50.015Z</time>
      </trkpt>
      <trkpt lat="44.22233" lon="5.01733">
        <ele>169</ele>
        <time>2016-06-30T10:29:51.015Z</time>
      </trkpt>
      <trkpt lat="44.22239" lon="5.01732">
        <ele>169</ele>
        <time>2016-06-30T10:29:52.015Z</time>
      </trkpt>
      <trkpt lat="44.22244" lon="5.01732">
        <ele>169</ele>
        <time>2016-06-30T10:29:53.015Z</time>
      </trkpt>
      <trkpt lat="44.2225" lon="5.01732">
        <ele>170</ele>
        <time>2016-06-30T10:29:54.015Z</time>
      </trkpt>
      <trkpt lat="44.22255" lon="5.01731">
        <ele>170</ele>
        <time>2016-06-30T10:29:55.015Z</time>
      </trkpt>
      <trkpt lat="44.22261" lon="5.01731">
        <ele>170</ele>
        <time>2016-06-30T10:29:56.015Z</time>
      </trkpt>
      <trkpt lat="44.22267" lon="5.01731">
        <ele>170</ele>
        <time>2016-06-30T10:29:57.015Z</time>
      </trkpt>
      <trkpt lat="44.22272" lon="5.0173">
        <ele>170</ele>
        <time>2016-06-30T10:29:58.015Z</time>
      </trkpt>
      <trkpt lat="44.22277" lon="5.0173">
        <ele>170</ele>
        <time>2016-06-30T10:29:59.015Z</time>
      </trkpt>
      <trkpt lat="44.22283" lon="5.0173">
        <ele>170</ele>
        <time>2016-06-30T10:30:00.015Z</time>
      </trkpt>
      <trkpt lat="44.22288" lon="5.0173">
        <ele>170</ele>
        <time>2016-06-30T10:30:01.015Z</time>
      </trkpt>
      <trkpt lat="44.22294" lon="5.01729">
        <ele>170</ele>
        <time>2016-06-30T10:30:02.015Z</time>
      </trkpt>
      <trkpt lat="44.22299" lon="5.01729">
        <ele>170</ele>
        <time>2016-06-30T10:30:03.015Z</time>
      </trkpt>
      <trkpt lat="44.22305" lon="5.01729">
        <ele>170</ele>
        <time>2016-06-30T10:30:04.015Z</time>
      </trkpt>
      <trkpt lat="44.22311" lon="5.01729">
        <ele>170</ele>
        <time>2016-06-30T10:30:05.015Z</time>
      </trkpt>
      <trkpt lat="44.22318" lon="5.01729">
        <ele>171</ele>
        <time>2016-06-30T10:30:06.015Z</time>
      </trkpt>
      <trkpt lat="44.22324" lon="5.0173">
        <ele>171</ele>
        <time>2016-06-30T10:30:07.015Z</time>
      </trkpt>
      <trkpt lat="44.22331" lon="5.0173">
        <ele>171</ele>
        <time>2016-06-30T10:30:08.015Z</time>
      </trkpt>
      <trkpt lat="44.22338" lon="5.0173">
        <ele>171</ele>
        <time>2016-06-30T10:30:09.015Z</time>
      </trkpt>
      <trkpt lat="44.22345" lon="5.01731">
        <ele>171</ele>
        <time>2016-06-30T10:30:10.015Z</time>
      </trkpt>
      <trkpt lat="44.22352" lon="5.01731">
        <ele>171</ele>
        <time>2016-06-30T10:30:11.015Z</time>
      </trkpt>
      <trkpt lat="44.22359" lon="5.01732">
        <ele>171</ele>
        <time>2016-06-30T10:30:12.015Z</time>
      </trkpt>
      <trkpt lat="44.22365" lon="5.01732">
        <ele>172</ele>
        <time>2016-06-30T10:30:13.015Z</time>
      </trkpt>
      <trkpt lat="44.22372" lon="5.01732">
        <ele>172</ele>
        <time>2016-06-30T10:30:14.015Z</time>
      </trkpt>
      <trkpt lat="44.22378" lon="5.01732">
        <ele>173</ele>
        <time>2016-06-30T10:30:15.015Z</time>
      </trkpt>
      <trkpt lat="44.22384" lon="5.01733">
        <ele>173</ele>
        <time>2016-06-30T10:30:16.015Z</time>
      </trkpt>
      <trkpt lat="44.2239" lon="5.01733">
        <ele>173</ele>
        <time>2016-06-30T10:30:17.015Z</time>
      </trkpt>
      <trkpt lat="44.22395" lon="5.01734">
        <ele>173</ele>
        <time>2016-06-30T10:30:18.015Z</time>
      </trkpt>
      <trkpt lat="44.22401" lon="5.01734">
        <ele>173</ele>
        <time>2016-06-30T10:30:19.015Z</time>
      </trkpt>
      <trkpt lat="44.22406" lon="5.01734">
        <ele>173</ele>
        <time>2016-06-30T10:30:20.015Z</time>
      </trkpt>
      <trkpt lat="44.22411" lon="5.01735">
        <ele>174</ele>
        <time>2016-06-30T10:30:21.015Z</time>
      </trkpt>
      <trkpt lat="44.22416" lon="5.01735">
        <ele>174</ele>
        <time>2016-06-30T10:30:22.015Z</time>
      </trkpt>
      <trkpt lat="44.22421" lon="5.01735">
        <ele>174</ele>
        <time>2016-06-30T10:30:23.015Z</time>
      </trkpt>
      <trkpt lat="44.22427" lon="5.01736">
        <ele>174</ele>
        <time>2016-06-30T10:30:24.015Z</time>
      </trkpt>
      <trkpt lat="44.22432" lon="5.01736">
        <ele>174</ele>
        <time>2016-06-30T10:30:25.015Z</time>
      </trkpt>
      <trkpt lat="44.22437" lon="5.01736">
        <ele>174</ele>
        <time>2016-06-30T10:30:26.015Z</time>
      </trkpt>
      <trkpt lat="44.22443" lon="5.01736">
        <ele>174</ele>
        <time>2016-06-30T10:30:27.015Z</time>
      </trkpt>
      <trkpt lat="44.22448" lon="5.01737">
        <ele>174</ele>
        <time>2016-06-30T10:30:28.015Z</time>
      </trkpt>
      <trkpt lat="44.22453" lon="5.01737">
        <ele>174</ele>
        <time>2016-06-30T10:30:29.015Z</time>
      </trkpt>
      <trkpt lat="44.22458" lon="5.01737">
        <ele>175</ele>
        <time>2016-06-30T10:30:30.015Z</time>
      </trkpt>
      <trkpt lat="44.22463" lon="5.01738">
        <ele>175</ele>
        <time>2016-06-30T10:30:31.015Z</time>
      </trkpt>
      <trkpt lat="44.22469" lon="5.01738">
        <ele>175</ele>
        <time>2016-06-30T10:30:32.015Z</time>
      </trkpt>
      <trkpt lat="44.22474" lon="5.01738">
        <ele>175</ele>
        <time>2016-06-30T10:30:33.015Z</time>
      </trkpt>
      <trkpt lat="44.22479" lon="5.01739">
        <ele>175</ele>
        <time>2016-06-30T10:30:34.015Z</time>
      </trkpt>
      <trkpt lat="44.22484" lon="5.01739">
        <ele>175</ele>
        <time>2016-06-30T10:30:35.015Z</time>
      </trkpt>
      <trkpt lat="44.22489" lon="5.01739">
        <ele>175</ele>
        <time>2016-06-30T10:30:36.015Z</time>
      </trkpt>
      <trkpt lat="44.22494" lon="5.0174">
        <ele>175</ele>
        <time>2016-06-30T10:30:37.015Z</time>
      </trkpt>
      <trkpt lat="44.22498" lon="5.01741">
        <ele>175</ele>
        <time>2016-06-30T10:30:38.015Z</time>
      </trkpt>
      <trkpt lat="44.22503" lon="5.01742">
        <ele>175</ele>
        <time>2016-06-30T10:30:39.015Z</time>
      </trkpt>
      <trkpt lat="44.22508" lon="5.01743">
        <ele>175</ele>
        <time>2016-06-30T10:30:40.015Z</time>
      </trkpt>
      <trkpt lat="44.22513" lon="5.01745">
        <ele>175</ele>
        <time>2016-06-30T10:30:41.015Z</time>
      </trkpt>
      <trkpt lat="44.22518" lon="5.01746">
        <ele>175</ele>
        <time>2016-06-30T10:30:42.015Z</time>
      </trkpt>
      <trkpt lat="44.22522" lon="5.01748">
        <ele>175</ele>
        <time>2016-06-30T10:30:43.015Z</time>
      </trkpt>
      <trkpt lat="44.22527" lon="5.01749">
        <ele>175</ele>
        <time>2016-06-30T10:30:44.015Z</time>
      </trkpt>
      <trkpt lat="44.22531" lon="5.01751">
        <ele>175</ele>
        <time>2016-06-30T10:30:45.015Z</time>
      </trkpt>
      <trkpt lat="44.22536" lon="5.01753">
        <ele>175</ele>
        <time>2016-06-30T10:30:46.015Z</time>
      </trkpt>
      <trkpt lat="44.2254" lon="5.01755">
        <ele>175</ele>
        <time>2016-06-30T10:30:47.015Z</time>
      </trkpt>
      <trkpt lat="44.22545" lon="5.01757">
        <ele>176</ele>
        <time>2016-06-30T10:30:48.015Z</time>
      </trkpt>
      <trkpt lat="44.22549" lon="5.01759">
        <ele>176</ele>
        <time>2016-06-30T10:30:49.015Z</time>
      </trkpt>
      <trkpt lat="44.22553" lon="5.01761">
        <ele>175</ele>
        <time>2016-06-30T10:30:50.015Z</time>
      </trkpt>
      <trkpt lat="44.22557" lon="5.01763">
        <ele>175</ele>
        <time>2016-06-30T10:30:51.015Z</time>
      </trkpt>
      <trkpt lat="44.22561" lon="5.01765">
        <ele>175</ele>
        <time>2016-06-30T10:30:52.015Z</time>
      </trkpt>
      <trkpt lat="44.22566" lon="5.01767">
        <ele>175</ele>
        <time>2016-06-30T10:30:53.015Z</time>
      </trkpt>
      <trkpt lat="44.2257" lon="5.01769">
        <ele>175</ele>
        <time>2016-06-30T10:30:54.015Z</time>
      </trkpt>
      <trkpt lat="44.22575" lon="5.01772">
        <ele>175</ele>
        <time>2016-06-30T10:30:55.015Z</time>
      </trkpt>
      <trkpt lat="44.22579" lon="5.01774">
        <ele>175</ele>
        <time>2016-06-30T10:30:56.015Z</time>
      </trkpt>
      <trkpt lat="44.22584" lon="5.01777">
        <ele>175</ele>
        <time>2016-06-30T10:30:57.015Z</time>
      </trkpt>
      <trkpt lat="44.22589" lon="5.0178">
        <ele>175</ele>
        <time>2016-06-30T10:30:58.015Z</time>
      </trkpt>
      <trkpt lat="44.22593" lon="5.01782">
        <ele>174</ele>
        <time>2016-06-30T10:30:59.015Z</time>
      </trkpt>
      <trkpt lat="44.22598" lon="5.01785">
        <ele>174</ele>
        <time>2016-06-30T10:31:00.015Z</time>
      </trkpt>
      <trkpt lat="44.22603" lon="5.01787">
        <ele>174</ele>
        <time>2016-06-30T10:31:01.015Z</time>
      </trkpt>
      <trkpt lat="44.22607" lon="5.0179">
        <ele>174</ele>
        <time>2016-06-30T10:31:02.015Z</time>
      </trkpt>
      <trkpt lat="44.22612" lon="5.01793">
        <ele>174</ele>
        <time>2016-06-30T10:31:03.015Z</time>
      </trkpt>
      <trkpt lat="44.22616" lon="5.01795">
        <ele>174</ele>
        <time>2016-06-30T10:31:04.015Z</time>
      </trkpt>
      <trkpt lat="44.22621" lon="5.01798">
        <ele>174</ele>
        <time>2016-06-30T10:31:05.015Z</time>
      </trkpt>
      <trkpt lat="44.22625" lon="5.01801">
        <ele>174</ele>
        <time>2016-06-30T10:31:06.015Z</time>
      </trkpt>
      <trkpt lat="44.2263" lon="5.01804">
        <ele>174</ele>
        <time>2016-06-30T10:31:07.015Z</time>
      </trkpt>
      <trkpt lat="44.22634" lon="5.01807">
        <ele>174</ele>
        <time>2016-06-30T10:31:08.015Z</time>
      </trkpt>
      <trkpt lat="44.22639" lon="5.0181">
        <ele>174</ele>
        <time>2016-06-30T10:31:09.015Z</time>
      </trkpt>
      <trkpt lat="44.22644" lon="5.01813">
        <ele>174</ele>
        <time>2016-06-30T10:31:10.015Z</time>
      </trkpt>
      <trkpt lat="44.22648" lon="5.01816">
        <ele>174</ele>
        <time>2016-06-30T10:31:11.015Z</time>
      </trkpt>
      <trkpt lat="44.22653" lon="5.01819">
        <ele>174</ele>
        <time>2016-06-30T10:31:12.015Z</time>
      </trkpt>
      <trkpt lat="44.22658" lon="5.01822">
        <ele>174</ele>
        <time>2016-06-30T10:31:13.015Z</time>
      </trkpt>
      <trkpt lat="44.22662" lon="5.01825">
        <ele>174</ele>
        <time>2016-06-30T10:31:14.015Z</time>
      </trkpt>
      <trkpt lat="44.22667" lon="5.01828">
        <ele>174</ele>
        <time>2016-06-30T10:31:15.015Z</time>
      </trkpt>
      <trkpt lat="44.22672" lon="5.01831">
        <ele>174</ele>
        <time>2016-06-30T10:31:16.015Z</time>
      </trkpt>
      <trkpt lat="44.22676" lon="5.01834">
        <ele>174</ele>
        <time>2016-06-30T10:31:17.015Z</time>
      </trkpt>
      <trkpt lat="44.22681" lon="5.01836">
        <ele>174</ele>
        <time>2016-06-30T10:31:18.015Z</time>
      </trkpt>
      <trkpt lat="44.22686" lon="5.01839">
        <ele>174</ele>
        <time>2016-06-30T10:31:19.015Z</time>
      </trkpt>
      <trkpt lat="44.22691" lon="5.01842">
        <ele>174</ele>
        <time>2016-06-30T10:31:20.015Z</time>
      </trkpt>
      <trkpt lat="44.22696" lon="5.01845">
        <ele>174</ele>
        <time>2016-06-30T10:31:21.015Z</time>
      </trkpt>
      <trkpt lat="44.227" lon="5.01847">
        <ele>174</ele>
        <time>2016-06-30T10:31:22.015Z</time>
      </trkpt>
      <trkpt lat="44.22705" lon="5.0185">
        <ele>174</ele>
        <time>2016-06-30T10:31:23.015Z</time>
      </trkpt>
      <trkpt lat="44.2271" lon="5.01852">
        <ele>174</ele>
        <time>2016-06-30T10:31:24.015Z</time>
      </trkpt>
      <trkpt lat="44.22715" lon="5.01854">
        <ele>174</ele>
        <time>2016-06-30T10:31:25.015Z</time>
      </trkpt>
      <trkpt lat="44.2272" lon="5.01855">
        <ele>174</ele>
        <time>2016-06-30T10:31:26.015Z</time>
      </trkpt>
      <trkpt lat="44.22725" lon="5.01857">
        <ele>174</ele>
        <time>2016-06-30T10:31:27.015Z</time>
      </trkpt>
      <trkpt lat="44.2273" lon="5.01858">
        <ele>173</ele>
        <time>2016-06-30T10:31:28.015Z</time>
      </trkpt>
      <trkpt lat="44.22736" lon="5.01859">
        <ele>173</ele>
        <time>2016-06-30T10:31:29.015Z</time>
      </trkpt>
      <trkpt lat="44.22741" lon="5.0186">
        <ele>173</ele>
        <time>2016-06-30T10:31:30.015Z</time>
      </trkpt>
      <trkpt lat="44.22746" lon="5.0186">
        <ele>173</ele>
        <time>2016-06-30T10:31:31.015Z</time>
      </trkpt>
      <trkpt lat="44.22752" lon="5.01861">
        <ele>173</ele>
        <time>2016-06-30T10:31:32.015Z</time>
      </trkpt>
      <trkpt lat="44.22757" lon="5.01861">
        <ele>173</ele>
        <time>2016-06-30T10:31:33.015Z</time>
      </trkpt>
      <trkpt lat="44.22762" lon="5.01861">
        <ele>173</ele>
        <time>2016-06-30T10:31:34.015Z</time>
      </trkpt>
      <trkpt lat="44.22768" lon="5.01861">
        <ele>173</ele>
        <time>2016-06-30T10:31:35.015Z</time>
      </trkpt>
      <trkpt lat="44.22773" lon="5.0186">
        <ele>172</ele>
        <time>2016-06-30T10:31:36.015Z</time>
      </trkpt>
      <trkpt lat="44.22778" lon="5.0186">
        <ele>172</ele>
        <time>2016-06-30T10:31:37.015Z</time>
      </trkpt>
      <trkpt lat="44.22784" lon="5.01859">
        <ele>172</ele>
        <time>2016-06-30T10:31:38.015Z</time>
      </trkpt>
      <trkpt lat="44.22789" lon="5.01859">
        <ele>172</ele>
        <time>2016-06-30T10:31:39.015Z</time>
      </trkpt>
      <trkpt lat="44.22794" lon="5.01858">
        <ele>172</ele>
        <time>2016-06-30T10:31:40.015Z</time>
      </trkpt>
      <trkpt lat="44.228" lon="5.01857">
        <ele>172</ele>
        <time>2016-06-30T10:31:41.015Z</time>
      </trkpt>
      <trkpt lat="44.22805" lon="5.01857">
        <ele>172</ele>
        <time>2016-06-30T10:31:42.015Z</time>
      </trkpt>
      <trkpt lat="44.2281" lon="5.01856">
        <ele>172</ele>
        <time>2016-06-30T10:31:43.015Z</time>
      </trkpt>
      <trkpt lat="44.22816" lon="5.01855">
        <ele>172</ele>
        <time>2016-06-30T10:31:44.015Z</time>
      </trkpt>
      <trkpt lat="44.22821" lon="5.01854">
        <ele>171</ele>
        <time>2016-06-30T10:31:45.015Z</time>
      </trkpt>
      <trkpt lat="44.22827" lon="5.01854">
        <ele>171</ele>
        <time>2016-06-30T10:31:46.015Z</time>
      </trkpt>
      <trkpt lat="44.22832" lon="5.01853">
        <ele>171</ele>
        <time>2016-06-30T10:31:47.015Z</time>
      </trkpt>
      <trkpt lat="44.22838" lon="5.01852">
        <ele>171</ele>
        <time>2016-06-30T10:31:48.015Z</time>
      </trkpt>
      <trkpt lat="44.22843" lon="5.01851">
        <ele>171</ele>
        <time>2016-06-30T10:31:49.015Z</time>
      </trkpt>
      <trkpt lat="44.22849" lon="5.01851">
        <ele>171</ele>
        <time>2016-06-30T10:31:50.015Z</time>
      </trkpt>
      <trkpt lat="44.22854" lon="5.0185">
        <ele>171</ele>
        <time>2016-06-30T10:31:51.015Z</time>
      </trkpt>
      <trkpt lat="44.2286" lon="5.01849">
        <ele>171</ele>
        <time>2016-06-30T10:31:52.015Z</time>
      </trkpt>
      <trkpt lat="44.22865" lon="5.01848">
        <ele>171</ele>
        <time>2016-06-30T10:31:53.015Z</time>
      </trkpt>
      <trkpt lat="44.22871" lon="5.01847">
        <ele>171</ele>
        <time>2016-06-30T10:31:54.015Z</time>
      </trkpt>
      <trkpt lat="44.22877" lon="5.01846">
        <ele>171</ele>
        <time>2016-06-30T10:31:55.015Z</time>
      </trkpt>
      <trkpt lat="44.22883" lon="5.01845">
        <ele>171</ele>
        <time>2016-06-30T10:31:56.015Z</time>
      </trkpt>
      <trkpt lat="44.22888" lon="5.01844">
        <ele>170</ele>
        <time>2016-06-30T10:31:57.015Z</time>
      </trkpt>
      <trkpt lat="44.22894" lon="5.01843">
        <ele>170</ele>
        <time>2016-06-30T10:31:58.015Z</time>
      </trkpt>
      <trkpt lat="44.22899" lon="5.01842">
        <ele>170</ele>
        <time>2016-06-30T10:31:59.015Z</time>
      </trkpt>
      <trkpt lat="44.22905" lon="5.01841">
        <ele>170</ele>
        <time>2016-06-30T10:32:00.015Z</time>
      </trkpt>
      <trkpt lat="44.22911" lon="5.0184">
        <ele>170</ele>
        <time>2016-06-30T10:32:01.015Z</time>
      </trkpt>
      <trkpt lat="44.22916" lon="5.01839">
        <ele>170</ele>
        <time>2016-06-30T10:32:02.015Z</time>
      </trkpt>
      <trkpt lat="44.22922" lon="5.01838">
        <ele>170</ele>
        <time>2016-06-30T10:32:03.015Z</time>
      </trkpt>
      <trkpt lat="44.22927" lon="5.01837">
        <ele>170</ele>
        <time>2016-06-30T10:32:04.015Z</time>
      </trkpt>
      <trkpt lat="44.22933" lon="5.01836">
        <ele>170</ele>
        <time>2016-06-30T10:32:05.015Z</time>
      </trkpt>
      <trkpt lat="44.22938" lon="5.01835">
        <ele>169</ele>
        <time>2016-06-30T10:32:06.015Z</time>
      </trkpt>
      <trkpt lat="44.22944" lon="5.01835">
        <ele>169</ele>
        <time>2016-06-30T10:32:07.015Z</time>
      </trkpt>
      <trkpt lat="44.22949" lon="5.01834">
        <ele>169</ele>
        <time>2016-06-30T10:32:08.015Z</time>
      </trkpt>
      <trkpt lat="44.22955" lon="5.01833">
        <ele>169</ele>
        <time>2016-06-30T10:32:09.015Z</time>
      </trkpt>
      <trkpt lat="44.2296" lon="5.01833">
        <ele>169</ele>
        <time>2016-06-30T10:32:10.015Z</time>
      </trkpt>
      <trkpt lat="44.22965" lon="5.01832">
        <ele>169</ele>
        <time>2016-06-30T10:32:11.015Z</time>
      </trkpt>
      <trkpt lat="44.2297" lon="5.01831">
        <ele>169</ele>
        <time>2016-06-30T10:32:12.015Z</time>
      </trkpt>
      <trkpt lat="44.22976" lon="5.0183">
        <ele>169</ele>
        <time>2016-06-30T10:32:13.015Z</time>
      </trkpt>
      <trkpt lat="44.22981" lon="5.0183">
        <ele>168</ele>
        <time>2016-06-30T10:32:14.015Z</time>
      </trkpt>
      <trkpt lat="44.22986" lon="5.01829">
        <ele>168</ele>
        <time>2016-06-30T10:32:15.015Z</time>
      </trkpt>
      <trkpt lat="44.22991" lon="5.01828">
        <ele>169</ele>
        <time>2016-06-30T10:32:16.015Z</time>
      </trkpt>
      <trkpt lat="44.22997" lon="5.01827">
        <ele>168</ele>
        <time>2016-06-30T10:32:17.015Z</time>
      </trkpt>
      <trkpt lat="44.23002" lon="5.01826">
        <ele>168</ele>
        <time>2016-06-30T10:32:18.015Z</time>
      </trkpt>
      <trkpt lat="44.23007" lon="5.01825">
        <ele>168</ele>
        <time>2016-06-30T10:32:19.015Z</time>
      </trkpt>
      <trkpt lat="44.23013" lon="5.01825">
        <ele>168</ele>
        <time>2016-06-30T10:32:20.015Z</time>
      </trkpt>
      <trkpt lat="44.23018" lon="5.01824">
        <ele>168</ele>
        <time>2016-06-30T10:32:21.015Z</time>
      </trkpt>
      <trkpt lat="44.23023" lon="5.01823">
        <ele>168</ele>
        <time>2016-06-30T10:32:22.015Z</time>
      </trkpt>
      <trkpt lat="44.23028" lon="5.01822">
        <ele>168</ele>
        <time>2016-06-30T10:32:23.015Z</time>
      </trkpt>
      <trkpt lat="44.23033" lon="5.01821">
        <ele>168</ele>
        <time>2016-06-30T10:32:24.015Z</time>
      </trkpt>
      <trkpt lat="44.23038" lon="5.0182">
        <ele>168</ele>
        <time>2016-06-30T10:32:25.015Z</time>
      </trkpt>
      <trkpt lat="44.23044" lon="5.01819">
        <ele>168</ele>
        <time>2016-06-30T10:32:26.015Z</time>
      </trkpt>
      <trkpt lat="44.23049" lon="5.01818">
        <ele>168</ele>
        <time>2016-06-30T10:32:27.015Z</time>
      </trkpt>
      <trkpt lat="44.23054" lon="5.01817">
        <ele>168</ele>
        <time>2016-06-30T10:32:28.015Z</time>
      </trkpt>
      <trkpt lat="44.23059" lon="5.01816">
        <ele>168</ele>
        <time>2016-06-30T10:32:29.015Z</time>
      </trkpt>
      <trkpt lat="44.23064" lon="5.01815">
        <ele>168</ele>
        <time>2016-06-30T10:32:30.015Z</time>
      </trkpt>
      <trkpt lat="44.2307" lon="5.01814">
        <ele>168</ele>
        <time>2016-06-30T10:32:31.015Z</time>
      </trkpt>
      <trkpt lat="44.23075" lon="5.01812">
        <ele>168</ele>
        <time>2016-06-30T10:32:32.015Z</time>
      </trkpt>
      <trkpt lat="44.2308" lon="5.01811">
        <ele>168</ele>
        <time>2016-06-30T10:32:33.015Z</time>
      </trkpt>
      <trkpt lat="44.23085" lon="5.01809">
        <ele>168</ele>
        <time>2016-06-30T10:32:34.015Z</time>
      </trkpt>
      <trkpt lat="44.2309" lon="5.01807">
        <ele>168</ele>
        <time>2016-06-30T10:32:35.015Z</time>
      </trkpt>
      <trkpt lat="44.23095" lon="5.01806">
        <ele>168</ele>
        <time>2016-06-30T10:32:36.015Z</time>
      </trkpt>
      <trkpt lat="44.231" lon="5.01804">
        <ele>168</ele>
        <time>2016-06-30T10:32:37.015Z</time>
      </trkpt>
      <trkpt lat="44.23105" lon="5.01801">
        <ele>168</ele>
        <time>2016-06-30T10:32:38.015Z</time>
      </trkpt>
      <trkpt lat="44.2311" lon="5.01799">
        <ele>168</ele>
        <time>2016-06-30T10:32:39.015Z</time>
      </trkpt>
      <trkpt lat="44.23114" lon="5.01797">
        <ele>168</ele>
        <time>2016-06-30T10:32:40.015Z</time>
      </trkpt>
      <trkpt lat="44.23119" lon="5.01795">
        <ele>168</ele>
        <time>2016-06-30T10:32:41.015Z</time>
      </trkpt>
      <trkpt lat="44.23124" lon="5.01793">
        <ele>168</ele>
        <time>2016-06-30T10:32:42.015Z</time>
      </trkpt>
      <trkpt lat="44.23129" lon="5.01791">
        <ele>168</ele>
        <time>2016-06-30T10:32:43.015Z</time>
      </trkpt>
      <trkpt lat="44.23134" lon="5.01788">
        <ele>168</ele>
        <time>2016-06-30T10:32:44.015Z</time>
      </trkpt>
      <trkpt lat="44.23138" lon="5.01786">
        <ele>168</ele>
        <time>2016-06-30T10:32:45.015Z</time>
      </trkpt>
      <trkpt lat="44.23143" lon="5.01784">
        <ele>167</ele>
        <time>2016-06-30T10:32:46.015Z</time>
      </trkpt>
      <trkpt lat="44.23147" lon="5.01782">
        <ele>167</ele>
        <time>2016-06-30T10:32:47.015Z</time>
      </trkpt>
      <trkpt lat="44.23152" lon="5.0178">
        <ele>167</ele>
        <time>2016-06-30T10:32:48.015Z</time>
      </trkpt>
      <trkpt lat="44.23156" lon="5.01777">
        <ele>167</ele>
        <time>2016-06-30T10:32:49.015Z</time>
      </trkpt>
      <trkpt lat="44.23161" lon="5.01775">
        <ele>167</ele>
        <time>2016-06-30T10:32:50.015Z</time>
      </trkpt>
      <trkpt lat="44.23165" lon="5.01773">
        <ele>167</ele>
        <time>2016-06-30T10:32:51.015Z</time>
      </trkpt>
      <trkpt lat="44.2317" lon="5.01771">
        <ele>167</ele>
        <time>2016-06-30T10:32:52.015Z</time>
      </trkpt>
      <trkpt lat="44.23174" lon="5.01769">
        <ele>167</ele>
        <time>2016-06-30T10:32:53.015Z</time>
      </trkpt>
      <trkpt lat="44.23179" lon="5.01767">
        <ele>167</ele>
        <time>2016-06-30T10:32:54.015Z</time>
      </trkpt>
      <trkpt lat="44.23183" lon="5.01765">
        <ele>167</ele>
        <time>2016-06-30T10:32:55.015Z</time>
      </trkpt>
      <trkpt lat="44.23187" lon="5.01763">
        <ele>167</ele>
        <time>2016-06-30T10:32:56.015Z</time>
      </trkpt>
      <trkpt lat="44.23192" lon="5.01761">
        <ele>167</ele>
        <time>2016-06-30T10:32:57.015Z</time>
      </trkpt>
      <trkpt lat="44.23196" lon="5.01759">
        <ele>167</ele>
        <time>2016-06-30T10:32:58.015Z</time>
      </trkpt>
      <trkpt lat="44.23201" lon="5.01757">
        <ele>167</ele>
        <time>2016-06-30T10:32:59.015Z</time>
      </trkpt>
      <trkpt lat="44.23206" lon="5.01755">
        <ele>167</ele>
        <time>2016-06-30T10:33:00.015Z</time>
      </trkpt>
      <trkpt lat="44.2321" lon="5.01752">
        <ele>167</ele>
        <time>2016-06-30T10:33:01.015Z</time>
      </trkpt>
      <trkpt lat="44.23215" lon="5.0175">
        <ele>167</ele>
        <time>2016-06-30T10:33:02.015Z</time>
      </trkpt>
      <trkpt lat="44.2322" lon="5.01748">
        <ele>167</ele>
        <time>2016-06-30T10:33:03.015Z</time>
      </trkpt>
      <trkpt lat="44.23224" lon="5.01746">
        <ele>166</ele>
        <time>2016-06-30T10:33:04.015Z</time>
      </trkpt>
      <trkpt lat="44.23229" lon="5.01744">
        <ele>166</ele>
        <time>2016-06-30T10:33:05.015Z</time>
      </trkpt>
      <trkpt lat="44.23234" lon="5.01742">
        <ele>166</ele>
        <time>2016-06-30T10:33:06.015Z</time>
      </trkpt>
      <trkpt lat="44.23238" lon="5.0174">
        <ele>166</ele>
        <time>2016-06-30T10:33:07.015Z</time>
      </trkpt>
      <trkpt lat="44.23243" lon="5.0174">
        <ele>165</ele>
        <time>2016-06-30T10:33:08.015Z</time>
      </trkpt>
      <trkpt lat="44.23248" lon="5.0174">
        <ele>165</ele>
        <time>2016-06-30T10:33:09.015Z</time>
      </trkpt>
      <trkpt lat="44.23253" lon="5.01741">
        <ele>165</ele>
        <time>2016-06-30T10:33:10.015Z</time>
      </trkpt>
      <trkpt lat="44.23258" lon="5.01742">
        <ele>165</ele>
        <time>2016-06-30T10:33:11.015Z</time>
      </trkpt>
      <trkpt lat="44.23263" lon="5.01744">
        <ele>165</ele>
        <time>2016-06-30T10:33:12.015Z</time>
      </trkpt>
      <trkpt lat="44.23269" lon="5.01746">
        <ele>166</ele>
        <time>2016-06-30T10:33:13.015Z</time>
      </trkpt>
      <trkpt lat="44.23274" lon="5.01747">
        <ele>166</ele>
        <time>2016-06-30T10:33:14.015Z</time>
      </trkpt>
      <trkpt lat="44.23279" lon="5.01749">
        <ele>166</ele>
        <time>2016-06-30T10:33:15.015Z</time>
      </trkpt>
      <trkpt lat="44.23284" lon="5.01752">
        <ele>166</ele>
        <time>2016-06-30T10:33:16.015Z</time>
      </trkpt>
      <trkpt lat="44.23288" lon="5.01754">
        <ele>166</ele>
        <time>2016-06-30T10:33:17.015Z</time>
      </trkpt>
      <trkpt lat="44.23293" lon="5.01755">
        <ele>166</ele>
        <time>2016-06-30T10:33:18.015Z</time>
      </trkpt>
      <trkpt lat="44.23298" lon="5.01757">
        <ele>166</ele>
        <time>2016-06-30T10:33:19.015Z</time>
      </trkpt>
      <trkpt lat="44.23304" lon="5.01758">
        <ele>166</ele>
        <time>2016-06-30T10:33:20.015Z</time>
      </trkpt>
      <trkpt lat="44.23309" lon="5.01758">
        <ele>167</ele>
        <time>2016-06-30T10:33:21.015Z</time>
      </trkpt>
      <trkpt lat="44.23315" lon="5.01757">
        <ele>167</ele>
        <time>2016-06-30T10:33:22.015Z</time>
      </trkpt>
      <trkpt lat="44.2332" lon="5.01756">
        <ele>167</ele>
        <time>2016-06-30T10:33:23.015Z</time>
      </trkpt>
      <trkpt lat="44.23325" lon="5.01754">
        <ele>167</ele>
        <time>2016-06-30T10:33:24.015Z</time>
      </trkpt>
      <trkpt lat="44.23329" lon="5.01752">
        <ele>167</ele>
        <time>2016-06-30T10:33:25.015Z</time>
      </trkpt>
      <trkpt lat="44.23333" lon="5.0175">
        <ele>167</ele>
        <time>2016-06-30T10:33:26.015Z</time>
      </trkpt>
      <trkpt lat="44.23337" lon="5.01748">
        <ele>167</ele>
        <time>2016-06-30T10:33:27.015Z</time>
      </trkpt>
      <trkpt lat="44.23342" lon="5.01747">
        <ele>167</ele>
        <time>2016-06-30T10:33:28.015Z</time>
      </trkpt>
      <trkpt lat="44.23346" lon="5.01746">
        <ele>168</ele>
        <time>2016-06-30T10:33:29.015Z</time>
      </trkpt>
      <trkpt lat="44.2335" lon="5.01746">
        <ele>168</ele>
        <time>2016-06-30T10:33:30.015Z</time>
      </trkpt>
      <trkpt lat="44.23355" lon="5.01747">
        <ele>168</ele>
        <time>2016-06-30T10:33:31.015Z</time>
      </trkpt>
      <trkpt lat="44.2336" lon="5.01747">
        <ele>168</ele>
        <time>2016-06-30T10:33:32.015Z</time>
      </trkpt>
      <trkpt lat="44.23364" lon="5.01748">
        <ele>168</ele>
        <time>2016-06-30T10:33:33.015Z</time>
      </trkpt>
      <trkpt lat="44.23369" lon="5.01751">
        <ele>168</ele>
        <time>2016-06-30T10:33:34.015Z</time>
      </trkpt>
      <trkpt lat="44.23374" lon="5.01754">
        <ele>169</ele>
        <time>2016-06-30T10:33:35.015Z</time>
      </trkpt>
      <trkpt lat="44.23378" lon="5.01758">
        <ele>169</ele>
        <time>2016-06-30T10:33:36.015Z</time>
      </trkpt>
      <trkpt lat="44.23383" lon="5.01761">
        <ele>169</ele>
        <time>2016-06-30T10:33:37.015Z</time>
      </trkpt>
      <trkpt lat="44.23387" lon="5.01765">
        <ele>169</ele>
        <time>2016-06-30T10:33:38.015Z</time>
      </trkpt>
      <trkpt lat="44.23391" lon="5.01768">
        <ele>169</ele>
        <time>2016-06-30T10:33:39.015Z</time>
      </trkpt>
      <trkpt lat="44.23395" lon="5.01772">
        <ele>169</ele>
        <time>2016-06-30T10:33:40.015Z</time>
      </trkpt>
      <trkpt lat="44.23399" lon="5.01776">
        <ele>169</ele>
        <time>2016-06-30T10:33:41.015Z</time>
      </trkpt>
      <trkpt lat="44.23403" lon="5.0178">
        <ele>169</ele>
        <time>2016-06-30T10:33:42.015Z</time>
      </trkpt>
      <trkpt lat="44.23407" lon="5.01785">
        <ele>169</ele>
        <time>2016-06-30T10:33:43.015Z</time>
      </trkpt>
      <trkpt lat="44.23411" lon="5.01789">
        <ele>169</ele>
        <time>2016-06-30T10:33:44.015Z</time>
      </trkpt>
      <trkpt lat="44.23414" lon="5.01794">
        <ele>169</ele>
        <time>2016-06-30T10:33:45.015Z</time>
      </trkpt>
      <trkpt lat="44.23418" lon="5.01799">
        <ele>169</ele>
        <time>2016-06-30T10:33:46.015Z</time>
      </trkpt>
      <trkpt lat="44.23422" lon="5.01803">
        <ele>169</ele>
        <time>2016-06-30T10:33:47.015Z</time>
      </trkpt>
      <trkpt lat="44.23425" lon="5.01808">
        <ele>169</ele>
        <time>2016-06-30T10:33:48.015Z</time>
      </trkpt>
      <trkpt lat="44.23429" lon="5.01813">
        <ele>169</ele>
        <time>2016-06-30T10:33:49.015Z</time>
      </trkpt>
      <trkpt lat="44.23433" lon="5.01818">
        <ele>169</ele>
        <time>2016-06-30T10:33:50.015Z</time>
      </trkpt>
      <trkpt lat="44.23436" lon="5.01823">
        <ele>169</ele>
        <time>2016-06-30T10:33:51.015Z</time>
      </trkpt>
      <trkpt lat="44.2344" lon="5.01828">
        <ele>169</ele>
        <time>2016-06-30T10:33:52.015Z</time>
      </trkpt>
      <trkpt lat="44.23444" lon="5.01833">
        <ele>169</ele>
        <time>2016-06-30T10:33:53.015Z</time>
      </trkpt>
      <trkpt lat="44.23448" lon="5.01839">
        <ele>169</ele>
        <time>2016-06-30T10:33:54.015Z</time>
      </trkpt>
      <trkpt lat="44.23452" lon="5.01844">
        <ele>169</ele>
        <time>2016-06-30T10:33:55.015Z</time>
      </trkpt>
      <trkpt lat="44.23455" lon="5.0185">
        <ele>169</ele>
        <time>2016-06-30T10:33:56.015Z</time>
      </trkpt>
      <trkpt lat="44.23459" lon="5.01855">
        <ele>169</ele>
        <time>2016-06-30T10:33:57.015Z</time>
      </trkpt>
      <trkpt lat="44.23462" lon="5.01861">
        <ele>169</ele>
        <time>2016-06-30T10:33:58.015Z</time>
      </trkpt>
      <trkpt lat="44.23466" lon="5.01866">
        <ele>169</ele>
        <time>2016-06-30T10:33:59.015Z</time>
      </trkpt>
      <trkpt lat="44.2347" lon="5.01872">
        <ele>169</ele>
        <time>2016-06-30T10:34:00.015Z</time>
      </trkpt>
      <trkpt lat="44.23473" lon="5.01878">
        <ele>169</ele>
        <time>2016-06-30T10:34:01.015Z</time>
      </trkpt>
      <trkpt lat="44.23477" lon="5.01884">
        <ele>169</ele>
        <time>2016-06-30T10:34:02.015Z</time>
      </trkpt>
      <trkpt lat="44.23481" lon="5.0189">
        <ele>169</ele>
        <time>2016-06-30T10:34:03.015Z</time>
      </trkpt>
      <trkpt lat="44.23484" lon="5.01895">
        <ele>170</ele>
        <time>2016-06-30T10:34:04.015Z</time>
      </trkpt>
      <trkpt lat="44.23488" lon="5.01901">
        <ele>170</ele>
        <time>2016-06-30T10:34:05.015Z</time>
      </trkpt>
      <trkpt lat="44.23492" lon="5.01906">
        <ele>170</ele>
        <time>2016-06-30T10:34:06.015Z</time>
      </trkpt>
      <trkpt lat="44.23495" lon="5.01912">
        <ele>170</ele>
        <time>2016-06-30T10:34:07.015Z</time>
      </trkpt>
      <trkpt lat="44.23499" lon="5.01918">
        <ele>170</ele>
        <time>2016-06-30T10:34:08.015Z</time>
      </trkpt>
      <trkpt lat="44.23502" lon="5.01924">
        <ele>170</ele>
        <time>2016-06-30T10:34:09.015Z</time>
      </trkpt>
      <trkpt lat="44.23506" lon="5.0193">
        <ele>170</ele>
        <time>2016-06-30T10:34:10.015Z</time>
      </trkpt>
      <trkpt lat="44.23509" lon="5.01935">
        <ele>170</ele>
        <time>2016-06-30T10:34:11.015Z</time>
      </trkpt>
      <trkpt lat="44.23513" lon="5.01941">
        <ele>170</ele>
        <time>2016-06-30T10:34:12.015Z</time>
      </trkpt>
      <trkpt lat="44.23516" lon="5.01947">
        <ele>170</ele>
        <time>2016-06-30T10:34:13.015Z</time>
      </trkpt>
      <trkpt lat="44.23519" lon="5.01952">
        <ele>170</ele>
        <time>2016-06-30T10:34:14.015Z</time>
      </trkpt>
      <trkpt lat="44.23523" lon="5.01958">
        <ele>170</ele>
        <time>2016-06-30T10:34:15.015Z</time>
      </trkpt>
      <trkpt lat="44.23526" lon="5.01964">
        <ele>170</ele>
        <time>2016-06-30T10:34:16.015Z</time>
      </trkpt>
      <trkpt lat="44.2353" lon="5.01969">
        <ele>170</ele>
        <time>2016-06-30T10:34:17.015Z</time>
      </trkpt>
      <trkpt lat="44.23533" lon="5.01975">
        <ele>171</ele>
        <time>2016-06-30T10:34:18.015Z</time>
      </trkpt>
      <trkpt lat="44.23536" lon="5.01981">
        <ele>171</ele>
        <time>2016-06-30T10:34:19.015Z</time>
      </trkpt>
      <trkpt lat="44.2354" lon="5.01987">
        <ele>171</ele>
        <time>2016-06-30T10:34:20.015Z</time>
      </trkpt>
      <trkpt lat="44.23543" lon="5.01994">
        <ele>171</ele>
        <time>2016-06-30T10:34:21.015Z</time>
      </trkpt>
      <trkpt lat="44.23546" lon="5.02">
        <ele>171</ele>
        <time>2016-06-30T10:34:22.015Z</time>
      </trkpt>
      <trkpt lat="44.2355" lon="5.02006">
        <ele>171</ele>
        <time>2016-06-30T10:34:23.015Z</time>
      </trkpt>
      <trkpt lat="44.23553" lon="5.02013">
        <ele>171</ele>
        <time>2016-06-30T10:34:24.015Z</time>
      </trkpt>
      <trkpt lat="44.23557" lon="5.02019">
        <ele>172</ele>
        <time>2016-06-30T10:34:25.015Z</time>
      </trkpt>
      <trkpt lat="44.2356" lon="5.02026">
        <ele>172</ele>
        <time>2016-06-30T10:34:26.015Z</time>
      </trkpt>
      <trkpt lat="44.23563" lon="5.02032">
        <ele>172</ele>
        <time>2016-06-30T10:34:27.015Z</time>
      </trkpt>
      <trkpt lat="44.23566" lon="5.02038">
        <ele>172</ele>
        <time>2016-06-30T10:34:28.015Z</time>
      </trkpt>
      <trkpt lat="44.2357" lon="5.02045">
        <ele>172</ele>
        <time>2016-06-30T10:34:29.015Z</time>
      </trkpt>
      <trkpt lat="44.23573" lon="5.02052">
        <ele>172</ele>
        <time>2016-06-30T10:34:30.015Z</time>
      </trkpt>
      <trkpt lat="44.23577" lon="5.02058">
        <ele>172</ele>
        <time>2016-06-30T10:34:31.015Z</time>
      </trkpt>
      <trkpt lat="44.2358" lon="5.02064">
        <ele>172</ele>
        <time>2016-06-30T10:34:32.015Z</time>
      </trkpt>
      <trkpt lat="44.23583" lon="5.0207">
        <ele>173</ele>
        <time>2016-06-30T10:34:33.015Z</time>
      </trkpt>
      <trkpt lat="44.23586" lon="5.02076">
        <ele>173</ele>
        <time>2016-06-30T10:34:34.015Z</time>
      </trkpt>
      <trkpt lat="44.2359" lon="5.02083">
        <ele>173</ele>
        <time>2016-06-30T10:34:35.015Z</time>
      </trkpt>
      <trkpt lat="44.23593" lon="5.02089">
        <ele>173</ele>
        <time>2016-06-30T10:34:36.015Z</time>
      </trkpt>
      <trkpt lat="44.23596" lon="5.02095">
        <ele>173</ele>
        <time>2016-06-30T10:34:37.015Z</time>
      </trkpt>
      <trkpt lat="44.236" lon="5.02101">
        <ele>173</ele>
        <time>2016-06-30T10:34:38.015Z</time>
      </trkpt>
      <trkpt lat="44.23603" lon="5.02108">
        <ele>174</ele>
        <time>2016-06-30T10:34:39.015Z</time>
      </trkpt>
      <trkpt lat="44.23606" lon="5.02114">
        <ele>173</ele>
        <time>2016-06-30T10:34:40.015Z</time>
      </trkpt>
      <trkpt lat="44.23609" lon="5.02121">
        <ele>174</ele>
        <time>2016-06-30T10:34:41.015Z</time>
      </trkpt>
      <trkpt lat="44.23613" lon="5.02127">
        <ele>174</ele>
        <time>2016-06-30T10:34:42.015Z</time>
      </trkpt>
      <trkpt lat="44.23616" lon="5.02133">
        <ele>174</ele>
        <time>2016-06-30T10:34:43.015Z</time>
      </trkpt>
      <trkpt lat="44.23619" lon="5.0214">
        <ele>174</ele>
        <time>2016-06-30T10:34:44.015Z</time>
      </trkpt>
      <trkpt lat="44.23622" lon="5.02146">
        <ele>174</ele>
        <time>2016-06-30T10:34:45.015Z</time>
      </trkpt>
      <trkpt lat="44.23625" lon="5.02152">
        <ele>174</ele>
        <time>2016-06-30T10:34:46.015Z</time>
      </trkpt>
      <trkpt lat="44.23628" lon="5.02158">
        <ele>174</ele>
        <time>2016-06-30T10:34:47.015Z</time>
      </trkpt>
      <trkpt lat="44.23632" lon="5.02164">
        <ele>174</ele>
        <time>2016-06-30T10:34:48.015Z</time>
      </trkpt>
      <trkpt lat="44.23635" lon="5.02171">
        <ele>174</ele>
        <time>2016-06-30T10:34:49.015Z</time>
      </trkpt>
      <trkpt lat="44.23638" lon="5.02177">
        <ele>175</ele>
        <time>2016-06-30T10:34:50.015Z</time>
      </trkpt>
      <trkpt lat="44.23641" lon="5.02183">
        <ele>175</ele>
        <time>2016-06-30T10:34:51.015Z</time>
      </trkpt>
      <trkpt lat="44.23643" lon="5.0219">
        <ele>175</ele>
        <time>2016-06-30T10:34:52.015Z</time>
      </trkpt>
      <trkpt lat="44.23646" lon="5.02196">
        <ele>175</ele>
        <time>2016-06-30T10:34:53.015Z</time>
      </trkpt>
      <trkpt lat="44.23649" lon="5.02203">
        <ele>175</ele>
        <time>2016-06-30T10:34:54.015Z</time>
      </trkpt>
      <trkpt lat="44.23651" lon="5.02209">
        <ele>175</ele>
        <time>2016-06-30T10:34:55.015Z</time>
      </trkpt>
      <trkpt lat="44.23654" lon="5.02216">
        <ele>175</ele>
        <time>2016-06-30T10:34:56.015Z</time>
      </trkpt>
      <trkpt lat="44.23656" lon="5.02223">
        <ele>175</ele>
        <time>2016-06-30T10:34:57.015Z</time>
      </trkpt>
      <trkpt lat="44.23659" lon="5.0223">
        <ele>175</ele>
        <time>2016-06-30T10:34:58.015Z</time>
      </trkpt>
      <trkpt lat="44.23661" lon="5.02237">
        <ele>176</ele>
        <time>2016-06-30T10:34:59.015Z</time>
      </trkpt>
      <trkpt lat="44.23664" lon="5.02244">
        <ele>176</ele>
        <time>2016-06-30T10:35:00.015Z</time>
      </trkpt>
      <trkpt lat="44.23666" lon="5.02251">
        <ele>176</ele>
        <time>2016-06-30T10:35:01.015Z</time>
      </trkpt>
      <trkpt lat="44.23668" lon="5.02258">
        <ele>176</ele>
        <time>2016-06-30T10:35:02.015Z</time>
      </trkpt>
      <trkpt lat="44.23671" lon="5.02265">
        <ele>176</ele>
        <time>2016-06-30T10:35:03.015Z</time>
      </trkpt>
      <trkpt lat="44.23673" lon="5.02272">
        <ele>176</ele>
        <time>2016-06-30T10:35:04.015Z</time>
      </trkpt>
      <trkpt lat="44.23675" lon="5.02279">
        <ele>176</ele>
        <time>2016-06-30T10:35:05.015Z</time>
      </trkpt>
      <trkpt lat="44.23678" lon="5.02287">
        <ele>176</ele>
        <time>2016-06-30T10:35:06.015Z</time>
      </trkpt>
      <trkpt lat="44.2368" lon="5.02294">
        <ele>176</ele>
        <time>2016-06-30T10:35:07.015Z</time>
      </trkpt>
      <trkpt lat="44.23682" lon="5.02301">
        <ele>176</ele>
        <time>2016-06-30T10:35:08.015Z</time>
      </trkpt>
      <trkpt lat="44.23685" lon="5.02308">
        <ele>177</ele>
        <time>2016-06-30T10:35:09.015Z</time>
      </trkpt>
      <trkpt lat="44.23687" lon="5.02315">
        <ele>177</ele>
        <time>2016-06-30T10:35:10.015Z</time>
      </trkpt>
      <trkpt lat="44.23689" lon="5.02322">
        <ele>177</ele>
        <time>2016-06-30T10:35:11.015Z</time>
      </trkpt>
      <trkpt lat="44.23692" lon="5.0233">
        <ele>177</ele>
        <time>2016-06-30T10:35:12.015Z</time>
      </trkpt>
      <trkpt lat="44.23695" lon="5.02338">
        <ele>177</ele>
        <time>2016-06-30T10:35:13.015Z</time>
      </trkpt>
      <trkpt lat="44.23697" lon="5.02346">
        <ele>177</ele>
        <time>2016-06-30T10:35:14.015Z</time>
      </trkpt>
      <trkpt lat="44.237" lon="5.02353">
        <ele>178</ele>
        <time>2016-06-30T10:35:15.015Z</time>
      </trkpt>
      <trkpt lat="44.23703" lon="5.0236">
        <ele>178</ele>
        <time>2016-06-30T10:35:16.015Z</time>
      </trkpt>
      <trkpt lat="44.23705" lon="5.02366">
        <ele>178</ele>
        <time>2016-06-30T10:35:17.015Z</time>
      </trkpt>
      <trkpt lat="44.23707" lon="5.02373">
        <ele>178</ele>
        <time>2016-06-30T10:35:18.015Z</time>
      </trkpt>
      <trkpt lat="44.2371" lon="5.0238">
        <ele>178</ele>
        <time>2016-06-30T10:35:19.015Z</time>
      </trkpt>
      <trkpt lat="44.23713" lon="5.02386">
        <ele>178</ele>
        <time>2016-06-30T10:35:20.015Z</time>
      </trkpt>
      <trkpt lat="44.23715" lon="5.02393">
        <ele>178</ele>
        <time>2016-06-30T10:35:21.015Z</time>
      </trkpt>
      <trkpt lat="44.23717" lon="5.02399">
        <ele>178</ele>
        <time>2016-06-30T10:35:22.015Z</time>
      </trkpt>
      <trkpt lat="44.2372" lon="5.02405">
        <ele>179</ele>
        <time>2016-06-30T10:35:23.015Z</time>
      </trkpt>
      <trkpt lat="44.23722" lon="5.02411">
        <ele>179</ele>
        <time>2016-06-30T10:35:24.015Z</time>
      </trkpt>
      <trkpt lat="44.23725" lon="5.02418">
        <ele>179</ele>
        <time>2016-06-30T10:35:25.015Z</time>
      </trkpt>
      <trkpt lat="44.23728" lon="5.02424">
        <ele>180</ele>
        <time>2016-06-30T10:35:26.015Z</time>
      </trkpt>
      <trkpt lat="44.2373" lon="5.0243">
        <ele>179</ele>
        <time>2016-06-30T10:35:27.015Z</time>
      </trkpt>
      <trkpt lat="44.23733" lon="5.02437">
        <ele>180</ele>
        <time>2016-06-30T10:35:28.015Z</time>
      </trkpt>
      <trkpt lat="44.23736" lon="5.02444">
        <ele>180</ele>
        <time>2016-06-30T10:35:29.015Z</time>
      </trkpt>
      <trkpt lat="44.23738" lon="5.0245">
        <ele>180</ele>
        <time>2016-06-30T10:35:30.015Z</time>
      </trkpt>
      <trkpt lat="44.23741" lon="5.02457">
        <ele>180</ele>
        <time>2016-06-30T10:35:31.015Z</time>
      </trkpt>
      <trkpt lat="44.23744" lon="5.02464">
        <ele>180</ele>
        <time>2016-06-30T10:35:32.015Z</time>
      </trkpt>
      <trkpt lat="44.23747" lon="5.0247">
        <ele>180</ele>
        <time>2016-06-30T10:35:33.015Z</time>
      </trkpt>
      <trkpt lat="44.2375" lon="5.02477">
        <ele>180</ele>
        <time>2016-06-30T10:35:34.015Z</time>
      </trkpt>
      <trkpt lat="44.23753" lon="5.02483">
        <ele>180</ele>
        <time>2016-06-30T10:35:35.015Z</time>
      </trkpt>
      <trkpt lat="44.23755" lon="5.0249">
        <ele>180</ele>
        <time>2016-06-30T10:35:36.015Z</time>
      </trkpt>
      <trkpt lat="44.23758" lon="5.02497">
        <ele>181</ele>
        <time>2016-06-30T10:35:37.015Z</time>
      </trkpt>
      <trkpt lat="44.23761" lon="5.02503">
        <ele>181</ele>
        <time>2016-06-30T10:35:38.015Z</time>
      </trkpt>
      <trkpt lat="44.23763" lon="5.0251">
        <ele>181</ele>
        <time>2016-06-30T10:35:39.015Z</time>
      </trkpt>
      <trkpt lat="44.23766" lon="5.02517">
        <ele>181</ele>
        <time>2016-06-30T10:35:40.015Z</time>
      </trkpt>
      <trkpt lat="44.23769" lon="5.02524">
        <ele>181</ele>
        <time>2016-06-30T10:35:41.015Z</time>
      </trkpt>
      <trkpt lat="44.23772" lon="5.02531">
        <ele>181</ele>
        <time>2016-06-30T10:35:42.015Z</time>
      </trkpt>
      <trkpt lat="44.23774" lon="5.02538">
        <ele>181</ele>
        <time>2016-06-30T10:35:43.015Z</time>
      </trkpt>
      <trkpt lat="44.23777" lon="5.02545">
        <ele>181</ele>
        <time>2016-06-30T10:35:44.015Z</time>
      </trkpt>
      <trkpt lat="44.2378" lon="5.02551">
        <ele>181</ele>
        <time>2016-06-30T10:35:45.015Z</time>
      </trkpt>
      <trkpt lat="44.23783" lon="5.02558">
        <ele>181</ele>
        <time>2016-06-30T10:35:46.015Z</time>
      </trkpt>
      <trkpt lat="44.23786" lon="5.02566">
        <ele>181</ele>
        <time>2016-06-30T10:35:47.015Z</time>
      </trkpt>
      <trkpt lat="44.23789" lon="5.02573">
        <ele>181</ele>
        <time>2016-06-30T10:35:48.015Z</time>
      </trkpt>
      <trkpt lat="44.23792" lon="5.0258">
        <ele>182</ele>
        <time>2016-06-30T10:35:49.015Z</time>
      </trkpt>
      <trkpt lat="44.23795" lon="5.02587">
        <ele>182</ele>
        <time>2016-06-30T10:35:50.015Z</time>
      </trkpt>
      <trkpt lat="44.23798" lon="5.02594">
        <ele>182</ele>
        <time>2016-06-30T10:35:51.015Z</time>
      </trkpt>
      <trkpt lat="44.238" lon="5.026">
        <ele>182</ele>
        <time>2016-06-30T10:35:52.015Z</time>
      </trkpt>
      <trkpt lat="44.23803" lon="5.02606">
        <ele>182</ele>
        <time>2016-06-30T10:35:53.015Z</time>
      </trkpt>
      <trkpt lat="44.23805" lon="5.02612">
        <ele>182</ele>
        <time>2016-06-30T10:35:54.015Z</time>
      </trkpt>
      <trkpt lat="44.23808" lon="5.02619">
        <ele>182</ele>
        <time>2016-06-30T10:35:55.015Z</time>
      </trkpt>
      <trkpt lat="44.23811" lon="5.02625">
        <ele>182</ele>
        <time>2016-06-30T10:35:56.015Z</time>
      </trkpt>
      <trkpt lat="44.23814" lon="5.02632">
        <ele>182</ele>
        <time>2016-06-30T10:35:57.015Z</time>
      </trkpt>
      <trkpt lat="44.23816" lon="5.02639">
        <ele>182</ele>
        <time>2016-06-30T10:35:58.015Z</time>
      </trkpt>
      <trkpt lat="44.23819" lon="5.02646">
        <ele>183</ele>
        <time>2016-06-30T10:35:59.015Z</time>
      </trkpt>
      <trkpt lat="44.23822" lon="5.02653">
        <ele>183</ele>
        <time>2016-06-30T10:36:00.015Z</time>
      </trkpt>
      <trkpt lat="44.23825" lon="5.02659">
        <ele>183</ele>
        <time>2016-06-30T10:36:01.015Z</time>
      </trkpt>
      <trkpt lat="44.23828" lon="5.02666">
        <ele>184</ele>
        <time>2016-06-30T10:36:02.015Z</time>
      </trkpt>
      <trkpt lat="44.2383" lon="5.02673">
        <ele>184</ele>
        <time>2016-06-30T10:36:03.015Z</time>
      </trkpt>
      <trkpt lat="44.23833" lon="5.0268">
        <ele>184</ele>
        <time>2016-06-30T10:36:04.015Z</time>
      </trkpt>
      <trkpt lat="44.23836" lon="5.02687">
        <ele>184</ele>
        <time>2016-06-30T10:36:05.015Z</time>
      </trkpt>
      <trkpt lat="44.23839" lon="5.02694">
        <ele>185</ele>
        <time>2016-06-30T10:36:06.015Z</time>
      </trkpt>
      <trkpt lat="44.23842" lon="5.027">
        <ele>184</ele>
        <time>2016-06-30T10:36:07.015Z</time>
      </trkpt>
      <trkpt lat="44.23845" lon="5.02707">
        <ele>184</ele>
        <time>2016-06-30T10:36:08.015Z</time>
      </trkpt>
      <trkpt lat="44.23848" lon="5.02714">
        <ele>184</ele>
        <time>2016-06-30T10:36:09.015Z</time>
      </trkpt>
      <trkpt lat="44.23851" lon="5.0272">
        <ele>185</ele>
        <time>2016-06-30T10:36:10.015Z</time>
      </trkpt>
      <trkpt lat="44.23853" lon="5.02727">
        <ele>185</ele>
        <time>2016-06-30T10:36:11.015Z</time>
      </trkpt>
      <trkpt lat="44.23856" lon="5.02734">
        <ele>185</ele>
        <time>2016-06-30T10:36:12.015Z</time>
      </trkpt>
      <trkpt lat="44.23859" lon="5.0274">
        <ele>185</ele>
        <time>2016-06-30T10:36:13.015Z</time>
      </trkpt>
      <trkpt lat="44.23861" lon="5.02746">
        <ele>185</ele>
        <time>2016-06-30T10:36:14.015Z</time>
      </trkpt>
      <trkpt lat="44.23864" lon="5.02753">
        <ele>185</ele>
        <time>2016-06-30T10:36:15.015Z</time>
      </trkpt>
      <trkpt lat="44.23867" lon="5.02759">
        <ele>185</ele>
        <time>2016-06-30T10:36:16.015Z</time>
      </trkpt>
      <trkpt lat="44.2387" lon="5.02766">
        <ele>185</ele>
        <time>2016-06-30T10:36:17.015Z</time>
      </trkpt>
      <trkpt lat="44.23873" lon="5.02773">
        <ele>185</ele>
        <time>2016-06-30T10:36:18.015Z</time>
      </trkpt>
      <trkpt lat="44.23876" lon="5.02779">
        <ele>185</ele>
        <time>2016-06-30T10:36:19.015Z</time>
      </trkpt>
      <trkpt lat="44.23879" lon="5.02786">
        <ele>185</ele>
        <time>2016-06-30T10:36:20.015Z</time>
      </trkpt>
      <trkpt lat="44.23882" lon="5.02792">
        <ele>186</ele>
        <time>2016-06-30T10:36:21.015Z</time>
      </trkpt>
      <trkpt lat="44.23885" lon="5.02799">
        <ele>186</ele>
        <time>2016-06-30T10:36:22.015Z</time>
      </trkpt>
      <trkpt lat="44.23888" lon="5.02805">
        <ele>186</ele>
        <time>2016-06-30T10:36:23.015Z</time>
      </trkpt>
      <trkpt lat="44.23891" lon="5.02811">
        <ele>186</ele>
        <time>2016-06-30T10:36:24.015Z</time>
      </trkpt>
      <trkpt lat="44.23893" lon="5.02818">
        <ele>186</ele>
        <time>2016-06-30T10:36:25.015Z</time>
      </trkpt>
      <trkpt lat="44.23896" lon="5.02824">
        <ele>186</ele>
        <time>2016-06-30T10:36:26.015Z</time>
      </trkpt>
      <trkpt lat="44.23899" lon="5.0283">
        <ele>186</ele>
        <time>2016-06-30T10:36:27.015Z</time>
      </trkpt>
      <trkpt lat="44.23902" lon="5.02836">
        <ele>186</ele>
        <time>2016-06-30T10:36:28.015Z</time>
      </trkpt>
      <trkpt lat="44.23905" lon="5.02842">
        <ele>186</ele>
        <time>2016-06-30T10:36:29.015Z</time>
      </trkpt>
      <trkpt lat="44.23907" lon="5.02849">
        <ele>186</ele>
        <time>2016-06-30T10:36:30.015Z</time>
      </trkpt>
      <trkpt lat="44.2391" lon="5.02855">
        <ele>186</ele>
        <time>2016-06-30T10:36:31.015Z</time>
      </trkpt>
      <trkpt lat="44.23913" lon="5.02862">
        <ele>186</ele>
        <time>2016-06-30T10:36:32.015Z</time>
      </trkpt>
      <trkpt lat="44.23916" lon="5.02868">
        <ele>186</ele>
        <time>2016-06-30T10:36:33.015Z</time>
      </trkpt>
      <trkpt lat="44.23919" lon="5.02875">
        <ele>186</ele>
        <time>2016-06-30T10:36:34.015Z</time>
      </trkpt>
      <trkpt lat="44.23922" lon="5.02881">
        <ele>186</ele>
        <time>2016-06-30T10:36:35.015Z</time>
      </trkpt>
      <trkpt lat="44.23924" lon="5.02888">
        <ele>187</ele>
        <time>2016-06-30T10:36:36.015Z</time>
      </trkpt>
      <trkpt lat="44.23927" lon="5.02893">
        <ele>187</ele>
        <time>2016-06-30T10:36:37.015Z</time>
      </trkpt>
      <trkpt lat="44.23929" lon="5.02899">
        <ele>187</ele>
        <time>2016-06-30T10:36:38.015Z</time>
      </trkpt>
      <trkpt lat="44.23932" lon="5.02905">
        <ele>187</ele>
        <time>2016-06-30T10:36:39.015Z</time>
      </trkpt>
      <trkpt lat="44.23934" lon="5.0291">
        <ele>187</ele>
        <time>2016-06-30T10:36:40.015Z</time>
      </trkpt>
      <trkpt lat="44.23937" lon="5.02917">
        <ele>187</ele>
        <time>2016-06-30T10:36:41.015Z</time>
      </trkpt>
      <trkpt lat="44.23941" lon="5.02923">
        <ele>187</ele>
        <time>2016-06-30T10:36:42.015Z</time>
      </trkpt>
      <trkpt lat="44.23944" lon="5.0293">
        <ele>187</ele>
        <time>2016-06-30T10:36:43.015Z</time>
      </trkpt>
      <trkpt lat="44.23948" lon="5.02937">
        <ele>187</ele>
        <time>2016-06-30T10:36:44.015Z</time>
      </trkpt>
      <trkpt lat="44.23951" lon="5.02944">
        <ele>187</ele>
        <time>2016-06-30T10:36:45.015Z</time>
      </trkpt>
      <trkpt lat="44.23955" lon="5.0295">
        <ele>187</ele>
        <time>2016-06-30T10:36:46.015Z</time>
      </trkpt>
      <trkpt lat="44.23958" lon="5.02957">
        <ele>187</ele>
        <time>2016-06-30T10:36:47.015Z</time>
      </trkpt>
      <trkpt lat="44.23962" lon="5.02963">
        <ele>187</ele>
        <time>2016-06-30T10:36:48.015Z</time>
      </trkpt>
      <trkpt lat="44.23965" lon="5.02969">
        <ele>187</ele>
        <time>2016-06-30T10:36:49.015Z</time>
      </trkpt>
      <trkpt lat="44.23968" lon="5.02975">
        <ele>187</ele>
        <time>2016-06-30T10:36:50.015Z</time>
      </trkpt>
      <trkpt lat="44.23972" lon="5.0298">
        <ele>187</ele>
        <time>2016-06-30T10:36:51.015Z</time>
      </trkpt>
      <trkpt lat="44.23975" lon="5.02986">
        <ele>187</ele>
        <time>2016-06-30T10:36:52.015Z</time>
      </trkpt>
      <trkpt lat="44.23978" lon="5.02991">
        <ele>187</ele>
        <time>2016-06-30T10:36:53.015Z</time>
      </trkpt>
      <trkpt lat="44.23981" lon="5.02997">
        <ele>188</ele>
        <time>2016-06-30T10:36:54.015Z</time>
      </trkpt>
      <trkpt lat="44.23984" lon="5.03003">
        <ele>188</ele>
        <time>2016-06-30T10:36:55.015Z</time>
      </trkpt>
      <trkpt lat="44.23988" lon="5.03009">
        <ele>187</ele>
        <time>2016-06-30T10:36:56.015Z</time>
      </trkpt>
      <trkpt lat="44.23991" lon="5.03015">
        <ele>187</ele>
        <time>2016-06-30T10:36:57.015Z</time>
      </trkpt>
      <trkpt lat="44.23994" lon="5.03022">
        <ele>187</ele>
        <time>2016-06-30T10:36:58.015Z</time>
      </trkpt>
      <trkpt lat="44.23998" lon="5.03029">
        <ele>186</ele>
        <time>2016-06-30T10:36:59.015Z</time>
      </trkpt>
      <trkpt lat="44.24002" lon="5.03036">
        <ele>186</ele>
        <time>2016-06-30T10:37:00.015Z</time>
      </trkpt>
      <trkpt lat="44.24005" lon="5.03043">
        <ele>186</ele>
        <time>2016-06-30T10:37:01.015Z</time>
      </trkpt>
      <trkpt lat="44.24009" lon="5.0305">
        <ele>186</ele>
        <time>2016-06-30T10:37:02.015Z</time>
      </trkpt>
      <trkpt lat="44.24013" lon="5.03056">
        <ele>186</ele>
        <time>2016-06-30T10:37:03.015Z</time>
      </trkpt>
      <trkpt lat="44.24017" lon="5.03063">
        <ele>186</ele>
        <time>2016-06-30T10:37:04.015Z</time>
      </trkpt>
      <trkpt lat="44.24021" lon="5.0307">
        <ele>187</ele>
        <time>2016-06-30T10:37:05.015Z</time>
      </trkpt>
      <trkpt lat="44.24025" lon="5.03076">
        <ele>187</ele>
        <time>2016-06-30T10:37:06.015Z</time>
      </trkpt>
      <trkpt lat="44.24029" lon="5.03082">
        <ele>187</ele>
        <time>2016-06-30T10:37:07.015Z</time>
      </trkpt>
      <trkpt lat="44.24033" lon="5.03088">
        <ele>187</ele>
        <time>2016-06-30T10:37:08.015Z</time>
      </trkpt>
      <trkpt lat="44.24037" lon="5.03094">
        <ele>187</ele>
        <time>2016-06-30T10:37:09.015Z</time>
      </trkpt>
      <trkpt lat="44.2404" lon="5.031">
        <ele>187</ele>
        <time>2016-06-30T10:37:10.015Z</time>
      </trkpt>
      <trkpt lat="44.24044" lon="5.03107">
        <ele>187</ele>
        <time>2016-06-30T10:37:11.015Z</time>
      </trkpt>
      <trkpt lat="44.24048" lon="5.03113">
        <ele>187</ele>
        <time>2016-06-30T10:37:12.015Z</time>
      </trkpt>
      <trkpt lat="44.24051" lon="5.03119">
        <ele>187</ele>
        <time>2016-06-30T10:37:13.015Z</time>
      </trkpt>
      <trkpt lat="44.24055" lon="5.03125">
        <ele>187</ele>
        <time>2016-06-30T10:37:14.015Z</time>
      </trkpt>
      <trkpt lat="44.24058" lon="5.03131">
        <ele>187</ele>
        <time>2016-06-30T10:37:15.015Z</time>
      </trkpt>
      <trkpt lat="44.24062" lon="5.03137">
        <ele>187</ele>
        <time>2016-06-30T10:37:16.015Z</time>
      </trkpt>
      <trkpt lat="44.24065" lon="5.03143">
        <ele>187</ele>
        <time>2016-06-30T10:37:17.015Z</time>
      </trkpt>
      <trkpt lat="44.24069" lon="5.03149">
        <ele>187</ele>
        <time>2016-06-30T10:37:18.015Z</time>
      </trkpt>
      <trkpt lat="44.24072" lon="5.03156">
        <ele>186</ele>
        <time>2016-06-30T10:37:19.015Z</time>
      </trkpt>
      <trkpt lat="44.24076" lon="5.03162">
        <ele>186</ele>
        <time>2016-06-30T10:37:20.015Z</time>
      </trkpt>
      <trkpt lat="44.24079" lon="5.03168">
        <ele>186</ele>
        <time>2016-06-30T10:37:21.015Z</time>
      </trkpt>
      <trkpt lat="44.24082" lon="5.03174">
        <ele>186</ele>
        <time>2016-06-30T10:37:22.015Z</time>
      </trkpt>
      <trkpt lat="44.24086" lon="5.0318">
        <ele>186</ele>
        <time>2016-06-30T10:37:23.015Z</time>
      </trkpt>
      <trkpt lat="44.24089" lon="5.03187">
        <ele>186</ele>
        <time>2016-06-30T10:37:24.015Z</time>
      </trkpt>
      <trkpt lat="44.24092" lon="5.03193">
        <ele>187</ele>
        <time>2016-06-30T10:37:25.015Z</time>
      </trkpt>
      <trkpt lat="44.24095" lon="5.03199">
        <ele>187</ele>
        <time>2016-06-30T10:37:26.015Z</time>
      </trkpt>
      <trkpt lat="44.24098" lon="5.03206">
        <ele>187</ele>
        <time>2016-06-30T10:37:27.015Z</time>
      </trkpt>
      <trkpt lat="44.24101" lon="5.03212">
        <ele>187</ele>
        <time>2016-06-30T10:37:28.015Z</time>
      </trkpt>
      <trkpt lat="44.24104" lon="5.03219">
        <ele>187</ele>
        <time>2016-06-30T10:37:29.015Z</time>
      </trkpt>
      <trkpt lat="44.24107" lon="5.03226">
        <ele>187</ele>
        <time>2016-06-30T10:37:30.015Z</time>
      </trkpt>
      <trkpt lat="44.2411" lon="5.03233">
        <ele>187</ele>
        <time>2016-06-30T10:37:31.015Z</time>
      </trkpt>
      <trkpt lat="44.24113" lon="5.0324">
        <ele>187</ele>
        <time>2016-06-30T10:37:32.015Z</time>
      </trkpt>
      <trkpt lat="44.24115" lon="5.03246">
        <ele>187</ele>
        <time>2016-06-30T10:37:33.015Z</time>
      </trkpt>
      <trkpt lat="44.24118" lon="5.03253">
        <ele>187</ele>
        <time>2016-06-30T10:37:34.015Z</time>
      </trkpt>
      <trkpt lat="44.24121" lon="5.0326">
        <ele>187</ele>
        <time>2016-06-30T10:37:35.015Z</time>
      </trkpt>
      <trkpt lat="44.24123" lon="5.03266">
        <ele>187</ele>
        <time>2016-06-30T10:37:36.015Z</time>
      </trkpt>
      <trkpt lat="44.24126" lon="5.03273">
        <ele>187</ele>
        <time>2016-06-30T10:37:37.015Z</time>
      </trkpt>
      <trkpt lat="44.24128" lon="5.0328">
        <ele>187</ele>
        <time>2016-06-30T10:37:38.015Z</time>
      </trkpt>
      <trkpt lat="44.24131" lon="5.03287">
        <ele>187</ele>
        <time>2016-06-30T10:37:39.015Z</time>
      </trkpt>
      <trkpt lat="44.24133" lon="5.03294">
        <ele>187</ele>
        <time>2016-06-30T10:37:40.015Z</time>
      </trkpt>
      <trkpt lat="44.24136" lon="5.03301">
        <ele>187</ele>
        <time>2016-06-30T10:37:41.015Z</time>
      </trkpt>
      <trkpt lat="44.24138" lon="5.03307">
        <ele>187</ele>
        <time>2016-06-30T10:37:42.015Z</time>
      </trkpt>
      <trkpt lat="44.24141" lon="5.03314">
        <ele>188</ele>
        <time>2016-06-30T10:37:43.015Z</time>
      </trkpt>
      <trkpt lat="44.24144" lon="5.03321">
        <ele>188</ele>
        <time>2016-06-30T10:37:44.015Z</time>
      </trkpt>
      <trkpt lat="44.24146" lon="5.03328">
        <ele>188</ele>
        <time>2016-06-30T10:37:45.015Z</time>
      </trkpt>
      <trkpt lat="44.24149" lon="5.03335">
        <ele>188</ele>
        <time>2016-06-30T10:37:46.015Z</time>
      </trkpt>
      <trkpt lat="44.24152" lon="5.03341">
        <ele>188</ele>
        <time>2016-06-30T10:37:47.015Z</time>
      </trkpt>
      <trkpt lat="44.24154" lon="5.03347">
        <ele>188</ele>
        <time>2016-06-30T10:37:48.015Z</time>
      </trkpt>
      <trkpt lat="44.24157" lon="5.03353">
        <ele>188</ele>
        <time>2016-06-30T10:37:49.015Z</time>
      </trkpt>
      <trkpt lat="44.24159" lon="5.0336">
        <ele>188</ele>
        <time>2016-06-30T10:37:50.015Z</time>
      </trkpt>
      <trkpt lat="44.24162" lon="5.03367">
        <ele>188</ele>
        <time>2016-06-30T10:37:51.015Z</time>
      </trkpt>
      <trkpt lat="44.24164" lon="5.03374">
        <ele>188</ele>
        <time>2016-06-30T10:37:52.015Z</time>
      </trkpt>
      <trkpt lat="44.24167" lon="5.0338">
        <ele>188</ele>
        <time>2016-06-30T10:37:53.015Z</time>
      </trkpt>
      <trkpt lat="44.24169" lon="5.03387">
        <ele>188</ele>
        <time>2016-06-30T10:37:54.015Z</time>
      </trkpt>
      <trkpt lat="44.24172" lon="5.03394">
        <ele>187</ele>
        <time>2016-06-30T10:37:55.015Z</time>
      </trkpt>
      <trkpt lat="44.24174" lon="5.03401">
        <ele>187</ele>
        <time>2016-06-30T10:37:56.015Z</time>
      </trkpt>
      <trkpt lat="44.24177" lon="5.03407">
        <ele>187</ele>
        <time>2016-06-30T10:37:57.015Z</time>
      </trkpt>
      <trkpt lat="44.24179" lon="5.03414">
        <ele>187</ele>
        <time>2016-06-30T10:37:58.015Z</time>
      </trkpt>
      <trkpt lat="44.24182" lon="5.03421">
        <ele>187</ele>
        <time>2016-06-30T10:37:59.015Z</time>
      </trkpt>
      <trkpt lat="44.24184" lon="5.03428">
        <ele>187</ele>
        <time>2016-06-30T10:38:00.015Z</time>
      </trkpt>
      <trkpt lat="44.24187" lon="5.03435">
        <ele>187</ele>
        <time>2016-06-30T10:38:01.015Z</time>
      </trkpt>
      <trkpt lat="44.2419" lon="5.03442">
        <ele>187</ele>
        <time>2016-06-30T10:38:02.015Z</time>
      </trkpt>
      <trkpt lat="44.24193" lon="5.03449">
        <ele>187</ele>
        <time>2016-06-30T10:38:03.015Z</time>
      </trkpt>
      <trkpt lat="44.24196" lon="5.03456">
        <ele>187</ele>
        <time>2016-06-30T10:38:04.015Z</time>
      </trkpt>
      <trkpt lat="44.242" lon="5.03463">
        <ele>187</ele>
        <time>2016-06-30T10:38:05.015Z</time>
      </trkpt>
      <trkpt lat="44.24203" lon="5.03469">
        <ele>187</ele>
        <time>2016-06-30T10:38:06.015Z</time>
      </trkpt>
      <trkpt lat="44.24206" lon="5.03476">
        <ele>187</ele>
        <time>2016-06-30T10:38:07.015Z</time>
      </trkpt>
      <trkpt lat="44.2421" lon="5.03482">
        <ele>187</ele>
        <time>2016-06-30T10:38:08.015Z</time>
      </trkpt>
      <trkpt lat="44.24213" lon="5.03488">
        <ele>187</ele>
        <time>2016-06-30T10:38:09.015Z</time>
      </trkpt>
      <trkpt lat="44.24216" lon="5.03495">
        <ele>187</ele>
        <time>2016-06-30T10:38:10.015Z</time>
      </trkpt>
      <trkpt lat="44.2422" lon="5.03501">
        <ele>187</ele>
        <time>2016-06-30T10:38:11.015Z</time>
      </trkpt>
      <trkpt lat="44.24223" lon="5.03508">
        <ele>187</ele>
        <time>2016-06-30T10:38:12.015Z</time>
      </trkpt>
      <trkpt lat="44.24226" lon="5.03514">
        <ele>187</ele>
        <time>2016-06-30T10:38:13.015Z</time>
      </trkpt>
      <trkpt lat="44.24229" lon="5.03521">
        <ele>187</ele>
        <time>2016-06-30T10:38:14.015Z</time>
      </trkpt>
      <trkpt lat="44.24233" lon="5.03527">
        <ele>187</ele>
        <time>2016-06-30T10:38:15.015Z</time>
      </trkpt>
      <trkpt lat="44.24236" lon="5.03533">
        <ele>187</ele>
        <time>2016-06-30T10:38:16.015Z</time>
      </trkpt>
      <trkpt lat="44.24239" lon="5.03539">
        <ele>187</ele>
        <time>2016-06-30T10:38:17.015Z</time>
      </trkpt>
      <trkpt lat="44.24242" lon="5.03545">
        <ele>187</ele>
        <time>2016-06-30T10:38:18.015Z</time>
      </trkpt>
      <trkpt lat="44.24245" lon="5.03551">
        <ele>187</ele>
        <time>2016-06-30T10:38:19.015Z</time>
      </trkpt>
      <trkpt lat="44.24249" lon="5.03558">
        <ele>186</ele>
        <time>2016-06-30T10:38:20.015Z</time>
      </trkpt>
      <trkpt lat="44.24252" lon="5.03564">
        <ele>187</ele>
        <time>2016-06-30T10:38:21.015Z</time>
      </trkpt>
      <trkpt lat="44.24256" lon="5.03571">
        <ele>187</ele>
        <time>2016-06-30T10:38:22.015Z</time>
      </trkpt>
      <trkpt lat="44.2426" lon="5.03577">
        <ele>187</ele>
        <time>2016-06-30T10:38:23.015Z</time>
      </trkpt>
      <trkpt lat="44.24263" lon="5.03584">
        <ele>187</ele>
        <time>2016-06-30T10:38:24.015Z</time>
      </trkpt>
      <trkpt lat="44.24266" lon="5.0359">
        <ele>187</ele>
        <time>2016-06-30T10:38:25.015Z</time>
      </trkpt>
      <trkpt lat="44.24269" lon="5.03597">
        <ele>187</ele>
        <time>2016-06-30T10:38:26.015Z</time>
      </trkpt>
      <trkpt lat="44.24272" lon="5.03604">
        <ele>187</ele>
        <time>2016-06-30T10:38:27.015Z</time>
      </trkpt>
      <trkpt lat="44.24275" lon="5.0361">
        <ele>187</ele>
        <time>2016-06-30T10:38:28.015Z</time>
      </trkpt>
      <trkpt lat="44.24278" lon="5.03617">
        <ele>187</ele>
        <time>2016-06-30T10:38:29.015Z</time>
      </trkpt>
      <trkpt lat="44.24281" lon="5.03624">
        <ele>187</ele>
        <time>2016-06-30T10:38:30.015Z</time>
      </trkpt>
      <trkpt lat="44.24284" lon="5.03631">
        <ele>187</ele>
        <time>2016-06-30T10:38:31.015Z</time>
      </trkpt>
      <trkpt lat="44.24286" lon="5.03638">
        <ele>187</ele>
        <time>2016-06-30T10:38:32.015Z</time>
      </trkpt>
      <trkpt lat="44.24289" lon="5.03645">
        <ele>187</ele>
        <time>2016-06-30T10:38:33.015Z</time>
      </trkpt>
      <trkpt lat="44.24292" lon="5.03652">
        <ele>188</ele>
        <time>2016-06-30T10:38:34.015Z</time>
      </trkpt>
      <trkpt lat="44.24294" lon="5.0366">
        <ele>188</ele>
        <time>2016-06-30T10:38:35.015Z</time>
      </trkpt>
      <trkpt lat="44.24297" lon="5.03668">
        <ele>188</ele>
        <time>2016-06-30T10:38:36.015Z</time>
      </trkpt>
      <trkpt lat="44.24299" lon="5.03676">
        <ele>188</ele>
        <time>2016-06-30T10:38:37.015Z</time>
      </trkpt>
      <trkpt lat="44.24301" lon="5.03684">
        <ele>188</ele>
        <time>2016-06-30T10:38:38.015Z</time>
      </trkpt>
      <trkpt lat="44.24302" lon="5.03691">
        <ele>189</ele>
        <time>2016-06-30T10:38:39.015Z</time>
      </trkpt>
      <trkpt lat="44.24304" lon="5.03699">
        <ele>190</ele>
        <time>2016-06-30T10:38:40.015Z</time>
      </trkpt>
      <trkpt lat="44.24305" lon="5.03706">
        <ele>189</ele>
        <time>2016-06-30T10:38:41.015Z</time>
      </trkpt>
      <trkpt lat="44.24306" lon="5.03714">
        <ele>189</ele>
        <time>2016-06-30T10:38:42.015Z</time>
      </trkpt>
      <trkpt lat="44.24307" lon="5.03721">
        <ele>189</ele>
        <time>2016-06-30T10:38:43.015Z</time>
      </trkpt>
      <trkpt lat="44.24307" lon="5.03728">
        <ele>189</ele>
        <time>2016-06-30T10:38:44.015Z</time>
      </trkpt>
      <trkpt lat="44.24308" lon="5.03735">
        <ele>189</ele>
        <time>2016-06-30T10:38:45.015Z</time>
      </trkpt>
      <trkpt lat="44.24308" lon="5.03743">
        <ele>189</ele>
        <time>2016-06-30T10:38:46.015Z</time>
      </trkpt>
      <trkpt lat="44.24308" lon="5.03751">
        <ele>189</ele>
        <time>2016-06-30T10:38:47.015Z</time>
      </trkpt>
      <trkpt lat="44.24308" lon="5.03759">
        <ele>189</ele>
        <time>2016-06-30T10:38:48.015Z</time>
      </trkpt>
      <trkpt lat="44.24309" lon="5.03767">
        <ele>189</ele>
        <time>2016-06-30T10:38:49.015Z</time>
      </trkpt>
      <trkpt lat="44.24309" lon="5.03775">
        <ele>189</ele>
        <time>2016-06-30T10:38:50.015Z</time>
      </trkpt>
      <trkpt lat="44.24309" lon="5.03783">
        <ele>189</ele>
        <time>2016-06-30T10:38:51.015Z</time>
      </trkpt>
      <trkpt lat="44.24309" lon="5.03791">
        <ele>189</ele>
        <time>2016-06-30T10:38:52.015Z</time>
      </trkpt>
      <trkpt lat="44.24309" lon="5.03798">
        <ele>189</ele>
        <time>2016-06-30T10:38:53.015Z</time>
      </trkpt>
      <trkpt lat="44.2431" lon="5.03806">
        <ele>189</ele>
        <time>2016-06-30T10:38:54.015Z</time>
      </trkpt>
      <trkpt lat="44.2431" lon="5.03813">
        <ele>189</ele>
        <time>2016-06-30T10:38:55.015Z</time>
      </trkpt>
      <trkpt lat="44.2431" lon="5.03821">
        <ele>189</ele>
        <time>2016-06-30T10:38:56.015Z</time>
      </trkpt>
      <trkpt lat="44.2431" lon="5.03829">
        <ele>189</ele>
        <time>2016-06-30T10:38:57.015Z</time>
      </trkpt>
      <trkpt lat="44.2431" lon="5.03837">
        <ele>189</ele>
        <time>2016-06-30T10:38:58.015Z</time>
      </trkpt>
      <trkpt lat="44.2431" lon="5.03845">
        <ele>189</ele>
        <time>2016-06-30T10:38:59.015Z</time>
      </trkpt>
      <trkpt lat="44.2431" lon="5.03853">
        <ele>189</ele>
        <time>2016-06-30T10:39:00.015Z</time>
      </trkpt>
      <trkpt lat="44.2431" lon="5.03861">
        <ele>189</ele>
        <time>2016-06-30T10:39:01.015Z</time>
      </trkpt>
      <trkpt lat="44.2431" lon="5.03869">
        <ele>189</ele>
        <time>2016-06-30T10:39:02.015Z</time>
      </trkpt>
      <trkpt lat="44.2431" lon="5.03877">
        <ele>190</ele>
        <time>2016-06-30T10:39:03.015Z</time>
      </trkpt>
      <trkpt lat="44.2431" lon="5.03885">
        <ele>190</ele>
        <time>2016-06-30T10:39:04.015Z</time>
      </trkpt>
      <trkpt lat="44.24309" lon="5.03892">
        <ele>190</ele>
        <time>2016-06-30T10:39:05.015Z</time>
      </trkpt>
      <trkpt lat="44.24309" lon="5.039">
        <ele>190</ele>
        <time>2016-06-30T10:39:06.015Z</time>
      </trkpt>
      <trkpt lat="44.24308" lon="5.03907">
        <ele>190</ele>
        <time>2016-06-30T10:39:07.015Z</time>
      </trkpt>
      <trkpt lat="44.24308" lon="5.03915">
        <ele>190</ele>
        <time>2016-06-30T10:39:08.015Z</time>
      </trkpt>
      <trkpt lat="44.24307" lon="5.03923">
        <ele>191</ele>
        <time>2016-06-30T10:39:09.015Z</time>
      </trkpt>
      <trkpt lat="44.24306" lon="5.03931">
        <ele>191</ele>
        <time>2016-06-30T10:39:10.015Z</time>
      </trkpt>
      <trkpt lat="44.24305" lon="5.03939">
        <ele>191</ele>
        <time>2016-06-30T10:39:11.015Z</time>
      </trkpt>
      <trkpt lat="44.24304" lon="5.03947">
        <ele>192</ele>
        <time>2016-06-30T10:39:12.015Z</time>
      </trkpt>
      <trkpt lat="44.24302" lon="5.03955">
        <ele>192</ele>
        <time>2016-06-30T10:39:13.015Z</time>
      </trkpt>
      <trkpt lat="44.24301" lon="5.03962">
        <ele>192</ele>
        <time>2016-06-30T10:39:14.015Z</time>
      </trkpt>
      <trkpt lat="44.24299" lon="5.03969">
        <ele>192</ele>
        <time>2016-06-30T10:39:15.015Z</time>
      </trkpt>
      <trkpt lat="44.24298" lon="5.03976">
        <ele>192</ele>
        <time>2016-06-30T10:39:16.015Z</time>
      </trkpt>
      <trkpt lat="44.24296" lon="5.03983">
        <ele>193</ele>
        <time>2016-06-30T10:39:17.015Z</time>
      </trkpt>
      <trkpt lat="44.24294" lon="5.0399">
        <ele>193</ele>
        <time>2016-06-30T10:39:18.015Z</time>
      </trkpt>
      <trkpt lat="44.24292" lon="5.03997">
        <ele>193</ele>
        <time>2016-06-30T10:39:19.015Z</time>
      </trkpt>
      <trkpt lat="44.24289" lon="5.04003">
        <ele>193</ele>
        <time>2016-06-30T10:39:20.015Z</time>
      </trkpt>
      <trkpt lat="44.24287" lon="5.0401">
        <ele>193</ele>
        <time>2016-06-30T10:39:21.015Z</time>
      </trkpt>
      <trkpt lat="44.24284" lon="5.04017">
        <ele>193</ele>
        <time>2016-06-30T10:39:22.015Z</time>
      </trkpt>
      <trkpt lat="44.24282" lon="5.04023">
        <ele>194</ele>
        <time>2016-06-30T10:39:23.015Z</time>
      </trkpt>
      <trkpt lat="44.24279" lon="5.04029">
        <ele>194</ele>
        <time>2016-06-30T10:39:24.015Z</time>
      </trkpt>
      <trkpt lat="44.24276" lon="5.04035">
        <ele>194</ele>
        <time>2016-06-30T10:39:25.015Z</time>
      </trkpt>
      <trkpt lat="44.24274" lon="5.0404">
        <ele>195</ele>
        <time>2016-06-30T10:39:26.015Z</time>
      </trkpt>
      <trkpt lat="44.24271" lon="5.04046">
        <ele>195</ele>
        <time>2016-06-30T10:39:27.015Z</time>
      </trkpt>
      <trkpt lat="44.24268" lon="5.04052">
        <ele>195</ele>
        <time>2016-06-30T10:39:28.015Z</time>
      </trkpt>
      <trkpt lat="44.24265" lon="5.04058">
        <ele>196</ele>
        <time>2016-06-30T10:39:29.015Z</time>
      </trkpt>
      <trkpt lat="44.24263" lon="5.04064">
        <ele>196</ele>
        <time>2016-06-30T10:39:30.015Z</time>
      </trkpt>
      <trkpt lat="44.24261" lon="5.0407">
        <ele>196</ele>
        <time>2016-06-30T10:39:31.015Z</time>
      </trkpt>
      <trkpt lat="44.24259" lon="5.04076">
        <ele>196</ele>
        <time>2016-06-30T10:39:32.015Z</time>
      </trkpt>
      <trkpt lat="44.24257" lon="5.04082">
        <ele>197</ele>
        <time>2016-06-30T10:39:33.015Z</time>
      </trkpt>
      <trkpt lat="44.24255" lon="5.04089">
        <ele>197</ele>
        <time>2016-06-30T10:39:34.015Z</time>
      </trkpt>
      <trkpt lat="44.24254" lon="5.04095">
        <ele>197</ele>
        <time>2016-06-30T10:39:35.015Z</time>
      </trkpt>
      <trkpt lat="44.24253" lon="5.04101">
        <ele>197</ele>
        <time>2016-06-30T10:39:36.015Z</time>
      </trkpt>
      <trkpt lat="44.24252" lon="5.04107">
        <ele>196</ele>
        <time>2016-06-30T10:39:37.015Z</time>
      </trkpt>
      <trkpt lat="44.24251" lon="5.04113">
        <ele>196</ele>
        <time>2016-06-30T10:39:38.015Z</time>
      </trkpt>
      <trkpt lat="44.2425" lon="5.04119">
        <ele>196</ele>
        <time>2016-06-30T10:39:39.015Z</time>
      </trkpt>
      <trkpt lat="44.2425" lon="5.04126">
        <ele>196</ele>
        <time>2016-06-30T10:39:40.015Z</time>
      </trkpt>
      <trkpt lat="44.2425" lon="5.04132">
        <ele>196</ele>
        <time>2016-06-30T10:39:41.015Z</time>
      </trkpt>
      <trkpt lat="44.24251" lon="5.0414">
        <ele>195</ele>
        <time>2016-06-30T10:39:42.015Z</time>
      </trkpt>
      <trkpt lat="44.24251" lon="5.04147">
        <ele>195</ele>
        <time>2016-06-30T10:39:43.015Z</time>
      </trkpt>
      <trkpt lat="44.24251" lon="5.04155">
        <ele>195</ele>
        <time>2016-06-30T10:39:44.015Z</time>
      </trkpt>
      <trkpt lat="44.24252" lon="5.04164">
        <ele>195</ele>
        <time>2016-06-30T10:39:45.015Z</time>
      </trkpt>
      <trkpt lat="44.24252" lon="5.04172">
        <ele>195</ele>
        <time>2016-06-30T10:39:46.015Z</time>
      </trkpt>
      <trkpt lat="44.24252" lon="5.04181">
        <ele>194</ele>
        <time>2016-06-30T10:39:47.015Z</time>
      </trkpt>
      <trkpt lat="44.24251" lon="5.04191">
        <ele>194</ele>
        <time>2016-06-30T10:39:48.015Z</time>
      </trkpt>
      <trkpt lat="44.2425" lon="5.042">
        <ele>193</ele>
        <time>2016-06-30T10:39:49.015Z</time>
      </trkpt>
      <trkpt lat="44.24249" lon="5.0421">
        <ele>193</ele>
        <time>2016-06-30T10:39:50.015Z</time>
      </trkpt>
      <trkpt lat="44.24249" lon="5.04219">
        <ele>192</ele>
        <time>2016-06-30T10:39:51.015Z</time>
      </trkpt>
      <trkpt lat="44.24248" lon="5.04228">
        <ele>192</ele>
        <time>2016-06-30T10:39:52.015Z</time>
      </trkpt>
      <trkpt lat="44.24247" lon="5.04238">
        <ele>192</ele>
        <time>2016-06-30T10:39:53.015Z</time>
      </trkpt>
      <trkpt lat="44.24246" lon="5.04248">
        <ele>192</ele>
        <time>2016-06-30T10:39:54.015Z</time>
      </trkpt>
      <trkpt lat="44.24245" lon="5.04257">
        <ele>191</ele>
        <time>2016-06-30T10:39:55.015Z</time>
      </trkpt>
      <trkpt lat="44.24244" lon="5.04267">
        <ele>191</ele>
        <time>2016-06-30T10:39:56.015Z</time>
      </trkpt>
      <trkpt lat="44.24243" lon="5.04276">
        <ele>191</ele>
        <time>2016-06-30T10:39:57.015Z</time>
      </trkpt>
      <trkpt lat="44.24242" lon="5.04286">
        <ele>191</ele>
        <time>2016-06-30T10:39:58.015Z</time>
      </trkpt>
      <trkpt lat="44.24241" lon="5.04295">
        <ele>191</ele>
        <time>2016-06-30T10:39:59.015Z</time>
      </trkpt>
      <trkpt lat="44.2424" lon="5.04304">
        <ele>190</ele>
        <time>2016-06-30T10:40:00.015Z</time>
      </trkpt>
      <trkpt lat="44.24239" lon="5.04314">
        <ele>190</ele>
        <time>2016-06-30T10:40:01.015Z</time>
      </trkpt>
      <trkpt lat="44.24238" lon="5.04323">
        <ele>190</ele>
        <time>2016-06-30T10:40:02.015Z</time>
      </trkpt>
      <trkpt lat="44.24237" lon="5.04332">
        <ele>190</ele>
        <time>2016-06-30T10:40:03.015Z</time>
      </trkpt>
      <trkpt lat="44.24236" lon="5.04342">
        <ele>190</ele>
        <time>2016-06-30T10:40:04.015Z</time>
      </trkpt>
      <trkpt lat="44.24235" lon="5.04351">
        <ele>190</ele>
        <time>2016-06-30T10:40:05.015Z</time>
      </trkpt>
      <trkpt lat="44.24234" lon="5.0436">
        <ele>189</ele>
        <time>2016-06-30T10:40:06.015Z</time>
      </trkpt>
      <trkpt lat="44.24233" lon="5.04369">
        <ele>189</ele>
        <time>2016-06-30T10:40:07.015Z</time>
      </trkpt>
      <trkpt lat="44.24232" lon="5.04378">
        <ele>190</ele>
        <time>2016-06-30T10:40:08.015Z</time>
      </trkpt>
      <trkpt lat="44.24231" lon="5.04387">
        <ele>190</ele>
        <time>2016-06-30T10:40:09.015Z</time>
      </trkpt>
      <trkpt lat="44.2423" lon="5.04395">
        <ele>189</ele>
        <time>2016-06-30T10:40:10.015Z</time>
      </trkpt>
      <trkpt lat="44.24229" lon="5.04404">
        <ele>189</ele>
        <time>2016-06-30T10:40:11.015Z</time>
      </trkpt>
      <trkpt lat="44.24228" lon="5.04412">
        <ele>189</ele>
        <time>2016-06-30T10:40:12.015Z</time>
      </trkpt>
      <trkpt lat="44.24227" lon="5.0442">
        <ele>189</ele>
        <time>2016-06-30T10:40:13.015Z</time>
      </trkpt>
      <trkpt lat="44.24226" lon="5.04428">
        <ele>189</ele>
        <time>2016-06-30T10:40:14.015Z</time>
      </trkpt>
      <trkpt lat="44.24225" lon="5.04436">
        <ele>189</ele>
        <time>2016-06-30T10:40:15.015Z</time>
      </trkpt>
      <trkpt lat="44.24224" lon="5.04444">
        <ele>189</ele>
        <time>2016-06-30T10:40:16.015Z</time>
      </trkpt>
      <trkpt lat="44.24223" lon="5.04451">
        <ele>189</ele>
        <time>2016-06-30T10:40:17.015Z</time>
      </trkpt>
      <trkpt lat="44.24221" lon="5.04458">
        <ele>189</ele>
        <time>2016-06-30T10:40:18.015Z</time>
      </trkpt>
      <trkpt lat="44.2422" lon="5.04466">
        <ele>189</ele>
        <time>2016-06-30T10:40:19.015Z</time>
      </trkpt>
      <trkpt lat="44.24219" lon="5.04473">
        <ele>189</ele>
        <time>2016-06-30T10:40:20.015Z</time>
      </trkpt>
      <trkpt lat="44.24218" lon="5.0448">
        <ele>189</ele>
        <time>2016-06-30T10:40:21.015Z</time>
      </trkpt>
      <trkpt lat="44.24216" lon="5.04487">
        <ele>189</ele>
        <time>2016-06-30T10:40:22.015Z</time>
      </trkpt>
      <trkpt lat="44.24215" lon="5.04494">
        <ele>189</ele>
        <time>2016-06-30T10:40:23.015Z</time>
      </trkpt>
      <trkpt lat="44.24213" lon="5.04501">
        <ele>189</ele>
        <time>2016-06-30T10:40:24.015Z</time>
      </trkpt>
      <trkpt lat="44.24211" lon="5.04509">
        <ele>189</ele>
        <time>2016-06-30T10:40:25.015Z</time>
      </trkpt>
      <trkpt lat="44.24209" lon="5.04516">
        <ele>189</ele>
        <time>2016-06-30T10:40:26.015Z</time>
      </trkpt>
      <trkpt lat="44.24207" lon="5.04523">
        <ele>189</ele>
        <time>2016-06-30T10:40:27.015Z</time>
      </trkpt>
      <trkpt lat="44.24205" lon="5.0453">
        <ele>189</ele>
        <time>2016-06-30T10:40:28.015Z</time>
      </trkpt>
      <trkpt lat="44.24203" lon="5.04537">
        <ele>189</ele>
        <time>2016-06-30T10:40:29.015Z</time>
      </trkpt>
      <trkpt lat="44.24201" lon="5.04544">
        <ele>189</ele>
        <time>2016-06-30T10:40:30.015Z</time>
      </trkpt>
      <trkpt lat="44.24198" lon="5.04551">
        <ele>189</ele>
        <time>2016-06-30T10:40:31.015Z</time>
      </trkpt>
      <trkpt lat="44.24196" lon="5.04559">
        <ele>189</ele>
        <time>2016-06-30T10:40:32.015Z</time>
      </trkpt>
      <trkpt lat="44.24193" lon="5.04566">
        <ele>189</ele>
        <time>2016-06-30T10:40:33.015Z</time>
      </trkpt>
      <trkpt lat="44.24191" lon="5.04573">
        <ele>189</ele>
        <time>2016-06-30T10:40:34.015Z</time>
      </trkpt>
      <trkpt lat="44.24188" lon="5.04581">
        <ele>189</ele>
        <time>2016-06-30T10:40:35.015Z</time>
      </trkpt>
      <trkpt lat="44.24185" lon="5.04588">
        <ele>189</ele>
        <time>2016-06-30T10:40:36.015Z</time>
      </trkpt>
      <trkpt lat="44.24182" lon="5.04596">
        <ele>189</ele>
        <time>2016-06-30T10:40:37.015Z</time>
      </trkpt>
      <trkpt lat="44.2418" lon="5.04603">
        <ele>189</ele>
        <time>2016-06-30T10:40:38.015Z</time>
      </trkpt>
      <trkpt lat="44.24177" lon="5.0461">
        <ele>189</ele>
        <time>2016-06-30T10:40:39.015Z</time>
      </trkpt>
      <trkpt lat="44.24174" lon="5.04618">
        <ele>189</ele>
        <time>2016-06-30T10:40:40.015Z</time>
      </trkpt>
      <trkpt lat="44.24172" lon="5.04625">
        <ele>189</ele>
        <time>2016-06-30T10:40:41.015Z</time>
      </trkpt>
      <trkpt lat="44.24169" lon="5.04632">
        <ele>189</ele>
        <time>2016-06-30T10:40:42.015Z</time>
      </trkpt>
      <trkpt lat="44.24167" lon="5.04639">
        <ele>189</ele>
        <time>2016-06-30T10:40:43.015Z</time>
      </trkpt>
      <trkpt lat="44.24164" lon="5.04647">
        <ele>189</ele>
        <time>2016-06-30T10:40:44.015Z</time>
      </trkpt>
      <trkpt lat="44.24162" lon="5.04654">
        <ele>189</ele>
        <time>2016-06-30T10:40:45.015Z</time>
      </trkpt>
      <trkpt lat="44.24159" lon="5.04661">
        <ele>189</ele>
        <time>2016-06-30T10:40:46.015Z</time>
      </trkpt>
      <trkpt lat="44.24157" lon="5.04668">
        <ele>189</ele>
        <time>2016-06-30T10:40:47.015Z</time>
      </trkpt>
      <trkpt lat="44.24154" lon="5.04675">
        <ele>189</ele>
        <time>2016-06-30T10:40:48.015Z</time>
      </trkpt>
      <trkpt lat="44.24151" lon="5.04682">
        <ele>189</ele>
        <time>2016-06-30T10:40:49.015Z</time>
      </trkpt>
      <trkpt lat="44.24148" lon="5.04689">
        <ele>189</ele>
        <time>2016-06-30T10:40:50.015Z</time>
      </trkpt>
      <trkpt lat="44.24145" lon="5.04695">
        <ele>189</ele>
        <time>2016-06-30T10:40:51.015Z</time>
      </trkpt>
      <trkpt lat="44.24142" lon="5.04701">
        <ele>189</ele>
        <time>2016-06-30T10:40:52.015Z</time>
      </trkpt>
      <trkpt lat="44.24139" lon="5.04707">
        <ele>189</ele>
        <time>2016-06-30T10:40:53.015Z</time>
      </trkpt>
      <trkpt lat="44.24135" lon="5.04712">
        <ele>189</ele>
        <time>2016-06-30T10:40:54.015Z</time>
      </trkpt>
      <trkpt lat="44.2413" lon="5.04717">
        <ele>188</ele>
        <time>2016-06-30T10:40:55.015Z</time>
      </trkpt>
      <trkpt lat="44.24126" lon="5.04721">
        <ele>188</ele>
        <time>2016-06-30T10:40:56.015Z</time>
      </trkpt>
      <trkpt lat="44.24121" lon="5.04725">
        <ele>188</ele>
        <time>2016-06-30T10:40:57.015Z</time>
      </trkpt>
      <trkpt lat="44.24116" lon="5.04728">
        <ele>188</ele>
        <time>2016-06-30T10:40:58.015Z</time>
      </trkpt>
      <trkpt lat="44.24111" lon="5.04732">
        <ele>188</ele>
        <time>2016-06-30T10:40:59.015Z</time>
      </trkpt>
      <trkpt lat="44.24106" lon="5.04735">
        <ele>188</ele>
        <time>2016-06-30T10:41:00.015Z</time>
      </trkpt>
      <trkpt lat="44.241" lon="5.04738">
        <ele>188</ele>
        <time>2016-06-30T10:41:01.015Z</time>
      </trkpt>
      <trkpt lat="44.24095" lon="5.04741">
        <ele>188</ele>
        <time>2016-06-30T10:41:02.015Z</time>
      </trkpt>
      <trkpt lat="44.24089" lon="5.04744">
        <ele>188</ele>
        <time>2016-06-30T10:41:03.015Z</time>
      </trkpt>
      <trkpt lat="44.24083" lon="5.04748">
        <ele>188</ele>
        <time>2016-06-30T10:41:04.015Z</time>
      </trkpt>
      <trkpt lat="44.24077" lon="5.04751">
        <ele>188</ele>
        <time>2016-06-30T10:41:05.015Z</time>
      </trkpt>
      <trkpt lat="44.24071" lon="5.04755">
        <ele>188</ele>
        <time>2016-06-30T10:41:06.015Z</time>
      </trkpt>
      <trkpt lat="44.24065" lon="5.04758">
        <ele>188</ele>
        <time>2016-06-30T10:41:07.015Z</time>
      </trkpt>
      <trkpt lat="44.24059" lon="5.04762">
        <ele>188</ele>
        <time>2016-06-30T10:41:08.015Z</time>
      </trkpt>
      <trkpt lat="44.24052" lon="5.04766">
        <ele>188</ele>
        <time>2016-06-30T10:41:09.015Z</time>
      </trkpt>
      <trkpt lat="44.24046" lon="5.0477">
        <ele>188</ele>
        <time>2016-06-30T10:41:10.015Z</time>
      </trkpt>
      <trkpt lat="44.2404" lon="5.04775">
        <ele>188</ele>
        <time>2016-06-30T10:41:11.015Z</time>
      </trkpt>
      <trkpt lat="44.24034" lon="5.04779">
        <ele>188</ele>
        <time>2016-06-30T10:41:12.015Z</time>
      </trkpt>
      <trkpt lat="44.24027" lon="5.04783">
        <ele>188</ele>
        <time>2016-06-30T10:41:13.015Z</time>
      </trkpt>
      <trkpt lat="44.24021" lon="5.04788">
        <ele>188</ele>
        <time>2016-06-30T10:41:14.015Z</time>
      </trkpt>
      <trkpt lat="44.24015" lon="5.04792">
        <ele>188</ele>
        <time>2016-06-30T10:41:15.015Z</time>
      </trkpt>
      <trkpt lat="44.24009" lon="5.04797">
        <ele>187</ele>
        <time>2016-06-30T10:41:16.015Z</time>
      </trkpt>
      <trkpt lat="44.24003" lon="5.04801">
        <ele>187</ele>
        <time>2016-06-30T10:41:17.015Z</time>
      </trkpt>
      <trkpt lat="44.23997" lon="5.04806">
        <ele>187</ele>
        <time>2016-06-30T10:41:18.015Z</time>
      </trkpt>
      <trkpt lat="44.23991" lon="5.0481">
        <ele>187</ele>
        <time>2016-06-30T10:41:19.015Z</time>
      </trkpt>
      <trkpt lat="44.23985" lon="5.04814">
        <ele>187</ele>
        <time>2016-06-30T10:41:20.015Z</time>
      </trkpt>
      <trkpt lat="44.23979" lon="5.04819">
        <ele>187</ele>
        <time>2016-06-30T10:41:21.015Z</time>
      </trkpt>
      <trkpt lat="44.23973" lon="5.04823">
        <ele>187</ele>
        <time>2016-06-30T10:41:22.015Z</time>
      </trkpt>
      <trkpt lat="44.23967" lon="5.04827">
        <ele>187</ele>
        <time>2016-06-30T10:41:23.015Z</time>
      </trkpt>
      <trkpt lat="44.23962" lon="5.04832">
        <ele>187</ele>
        <time>2016-06-30T10:41:24.015Z</time>
      </trkpt>
      <trkpt lat="44.23956" lon="5.04836">
        <ele>187</ele>
        <time>2016-06-30T10:41:25.015Z</time>
      </trkpt>
      <trkpt lat="44.2395" lon="5.0484">
        <ele>187</ele>
        <time>2016-06-30T10:41:26.015Z</time>
      </trkpt>
      <trkpt lat="44.23944" lon="5.04845">
        <ele>187</ele>
        <time>2016-06-30T10:41:27.015Z</time>
      </trkpt>
      <trkpt lat="44.23938" lon="5.04849">
        <ele>188</ele>
        <time>2016-06-30T10:41:28.015Z</time>
      </trkpt>
      <trkpt lat="44.23932" lon="5.04854">
        <ele>188</ele>
        <time>2016-06-30T10:41:29.015Z</time>
      </trkpt>
      <trkpt lat="44.23927" lon="5.04859">
        <ele>188</ele>
        <time>2016-06-30T10:41:30.015Z</time>
      </trkpt>
      <trkpt lat="44.23921" lon="5.04863">
        <ele>188</ele>
        <time>2016-06-30T10:41:31.015Z</time>
      </trkpt>
      <trkpt lat="44.23915" lon="5.04868">
        <ele>188</ele>
        <time>2016-06-30T10:41:32.015Z</time>
      </trkpt>
      <trkpt lat="44.23909" lon="5.04872">
        <ele>188</ele>
        <time>2016-06-30T10:41:33.015Z</time>
      </trkpt>
      <trkpt lat="44.23904" lon="5.04876">
        <ele>189</ele>
        <time>2016-06-30T10:41:34.015Z</time>
      </trkpt>
      <trkpt lat="44.23899" lon="5.0488">
        <ele>189</ele>
        <time>2016-06-30T10:41:35.015Z</time>
      </trkpt>
      <trkpt lat="44.23894" lon="5.04884">
        <ele>189</ele>
        <time>2016-06-30T10:41:36.015Z</time>
      </trkpt>
      <trkpt lat="44.23889" lon="5.04888">
        <ele>188</ele>
        <time>2016-06-30T10:41:37.015Z</time>
      </trkpt>
      <trkpt lat="44.23885" lon="5.04891">
        <ele>188</ele>
        <time>2016-06-30T10:41:38.015Z</time>
      </trkpt>
      <trkpt lat="44.2388" lon="5.04896">
        <ele>188</ele>
        <time>2016-06-30T10:41:39.015Z</time>
      </trkpt>
      <trkpt lat="44.23876" lon="5.049">
        <ele>188</ele>
        <time>2016-06-30T10:41:40.015Z</time>
      </trkpt>
      <trkpt lat="44.23871" lon="5.04903">
        <ele>188</ele>
        <time>2016-06-30T10:41:41.015Z</time>
      </trkpt>
      <trkpt lat="44.23867" lon="5.04907">
        <ele>188</ele>
        <time>2016-06-30T10:41:42.015Z</time>
      </trkpt>
      <trkpt lat="44.23862" lon="5.04911">
        <ele>188</ele>
        <time>2016-06-30T10:41:43.015Z</time>
      </trkpt>
      <trkpt lat="44.23858" lon="5.04915">
        <ele>188</ele>
        <time>2016-06-30T10:41:44.015Z</time>
      </trkpt>
      <trkpt lat="44.23854" lon="5.0492">
        <ele>188</ele>
        <time>2016-06-30T10:41:45.015Z</time>
      </trkpt>
      <trkpt lat="44.23849" lon="5.04924">
        <ele>188</ele>
        <time>2016-06-30T10:41:46.015Z</time>
      </trkpt>
      <trkpt lat="44.23845" lon="5.04928">
        <ele>188</ele>
        <time>2016-06-30T10:41:47.015Z</time>
      </trkpt>
      <trkpt lat="44.23841" lon="5.04932">
        <ele>188</ele>
        <time>2016-06-30T10:41:48.015Z</time>
      </trkpt>
      <trkpt lat="44.23837" lon="5.04936">
        <ele>188</ele>
        <time>2016-06-30T10:41:49.015Z</time>
      </trkpt>
      <trkpt lat="44.23833" lon="5.0494">
        <ele>188</ele>
        <time>2016-06-30T10:41:50.015Z</time>
      </trkpt>
      <trkpt lat="44.23828" lon="5.04944">
        <ele>188</ele>
        <time>2016-06-30T10:41:51.015Z</time>
      </trkpt>
      <trkpt lat="44.23824" lon="5.04948">
        <ele>188</ele>
        <time>2016-06-30T10:41:52.015Z</time>
      </trkpt>
      <trkpt lat="44.23819" lon="5.04953">
        <ele>188</ele>
        <time>2016-06-30T10:41:53.015Z</time>
      </trkpt>
      <trkpt lat="44.23814" lon="5.04958">
        <ele>188</ele>
        <time>2016-06-30T10:41:54.015Z</time>
      </trkpt>
      <trkpt lat="44.23809" lon="5.04963">
        <ele>188</ele>
        <time>2016-06-30T10:41:55.015Z</time>
      </trkpt>
      <trkpt lat="44.23803" lon="5.04968">
        <ele>188</ele>
        <time>2016-06-30T10:41:56.015Z</time>
      </trkpt>
      <trkpt lat="44.23798" lon="5.04973">
        <ele>188</ele>
        <time>2016-06-30T10:41:57.015Z</time>
      </trkpt>
      <trkpt lat="44.23793" lon="5.04978">
        <ele>188</ele>
        <time>2016-06-30T10:41:58.015Z</time>
      </trkpt>
      <trkpt lat="44.23787" lon="5.04983">
        <ele>189</ele>
        <time>2016-06-30T10:41:59.015Z</time>
      </trkpt>
      <trkpt lat="44.23782" lon="5.04988">
        <ele>189</ele>
        <time>2016-06-30T10:42:00.015Z</time>
      </trkpt>
      <trkpt lat="44.23777" lon="5.04993">
        <ele>189</ele>
        <time>2016-06-30T10:42:01.015Z</time>
      </trkpt>
      <trkpt lat="44.23772" lon="5.04998">
        <ele>189</ele>
        <time>2016-06-30T10:42:02.015Z</time>
      </trkpt>
      <trkpt lat="44.23767" lon="5.05003">
        <ele>189</ele>
        <time>2016-06-30T10:42:03.015Z</time>
      </trkpt>
      <trkpt lat="44.23761" lon="5.05008">
        <ele>189</ele>
        <time>2016-06-30T10:42:04.015Z</time>
      </trkpt>
      <trkpt lat="44.23756" lon="5.05013">
        <ele>190</ele>
        <time>2016-06-30T10:42:05.015Z</time>
      </trkpt>
      <trkpt lat="44.2375" lon="5.05018">
        <ele>190</ele>
        <time>2016-06-30T10:42:06.015Z</time>
      </trkpt>
      <trkpt lat="44.23745" lon="5.05023">
        <ele>190</ele>
        <time>2016-06-30T10:42:07.015Z</time>
      </trkpt>
      <trkpt lat="44.23739" lon="5.05028">
        <ele>190</ele>
        <time>2016-06-30T10:42:08.015Z</time>
      </trkpt>
      <trkpt lat="44.23734" lon="5.05033">
        <ele>190</ele>
        <time>2016-06-30T10:42:09.015Z</time>
      </trkpt>
      <trkpt lat="44.23728" lon="5.05037">
        <ele>190</ele>
        <time>2016-06-30T10:42:10.015Z</time>
      </trkpt>
      <trkpt lat="44.23723" lon="5.05042">
        <ele>190</ele>
        <time>2016-06-30T10:42:11.015Z</time>
      </trkpt>
      <trkpt lat="44.23717" lon="5.05047">
        <ele>191</ele>
        <time>2016-06-30T10:42:12.015Z</time>
      </trkpt>
      <trkpt lat="44.23712" lon="5.05052">
        <ele>190</ele>
        <time>2016-06-30T10:42:13.015Z</time>
      </trkpt>
      <trkpt lat="44.23707" lon="5.05056">
        <ele>190</ele>
        <time>2016-06-30T10:42:14.015Z</time>
      </trkpt>
      <trkpt lat="44.23701" lon="5.05061">
        <ele>189</ele>
        <time>2016-06-30T10:42:15.015Z</time>
      </trkpt>
      <trkpt lat="44.23696" lon="5.05065">
        <ele>189</ele>
        <time>2016-06-30T10:42:16.015Z</time>
      </trkpt>
      <trkpt lat="44.23691" lon="5.0507">
        <ele>188</ele>
        <time>2016-06-30T10:42:17.015Z</time>
      </trkpt>
      <trkpt lat="44.23686" lon="5.05074">
        <ele>187</ele>
        <time>2016-06-30T10:42:18.015Z</time>
      </trkpt>
      <trkpt lat="44.23682" lon="5.05078">
        <ele>187</ele>
        <time>2016-06-30T10:42:19.015Z</time>
      </trkpt>
      <trkpt lat="44.23678" lon="5.05082">
        <ele>187</ele>
        <time>2016-06-30T10:42:20.015Z</time>
      </trkpt>
      <trkpt lat="44.23674" lon="5.05086">
        <ele>186</ele>
        <time>2016-06-30T10:42:21.015Z</time>
      </trkpt>
      <trkpt lat="44.23671" lon="5.0509">
        <ele>186</ele>
        <time>2016-06-30T10:42:22.015Z</time>
      </trkpt>
      <trkpt lat="44.23667" lon="5.05095">
        <ele>186</ele>
        <time>2016-06-30T10:42:23.015Z</time>
      </trkpt>
      <trkpt lat="44.23664" lon="5.05099">
        <ele>184</ele>
        <time>2016-06-30T10:42:24.015Z</time>
      </trkpt>
      <trkpt lat="44.2366" lon="5.05103">
        <ele>183</ele>
        <time>2016-06-30T10:42:25.015Z</time>
      </trkpt>
      <trkpt lat="44.23657" lon="5.05108">
        <ele>182</ele>
        <time>2016-06-30T10:42:26.015Z</time>
      </trkpt>
      <trkpt lat="44.23653" lon="5.05115">
        <ele>187</ele>
        <time>2016-06-30T10:42:27.015Z</time>
      </trkpt>
      <trkpt lat="44.2365" lon="5.05122">
        <ele>188</ele>
        <time>2016-06-30T10:42:28.015Z</time>
      </trkpt>
      <trkpt lat="44.23646" lon="5.05131">
        <ele>189</ele>
        <time>2016-06-30T10:42:29.015Z</time>
      </trkpt>
      <trkpt lat="44.23642" lon="5.05139">
        <ele>190</ele>
        <time>2016-06-30T10:42:30.015Z</time>
      </trkpt>
      <trkpt lat="44.23639" lon="5.05146">
        <ele>191</ele>
        <time>2016-06-30T10:42:31.015Z</time>
      </trkpt>
      <trkpt lat="44.23636" lon="5.05154">
        <ele>192</ele>
        <time>2016-06-30T10:42:32.015Z</time>
      </trkpt>
      <trkpt lat="44.23633" lon="5.05162">
        <ele>192</ele>
        <time>2016-06-30T10:42:33.015Z</time>
      </trkpt>
      <trkpt lat="44.23631" lon="5.05169">
        <ele>193</ele>
        <time>2016-06-30T10:42:34.015Z</time>
      </trkpt>
      <trkpt lat="44.23629" lon="5.05177">
        <ele>193</ele>
        <time>2016-06-30T10:42:35.015Z</time>
      </trkpt>
      <trkpt lat="44.23627" lon="5.05184">
        <ele>193</ele>
        <time>2016-06-30T10:42:36.015Z</time>
      </trkpt>
      <trkpt lat="44.23625" lon="5.05191">
        <ele>194</ele>
        <time>2016-06-30T10:42:37.015Z</time>
      </trkpt>
      <trkpt lat="44.23623" lon="5.05199">
        <ele>194</ele>
        <time>2016-06-30T10:42:38.015Z</time>
      </trkpt>
      <trkpt lat="44.23621" lon="5.05206">
        <ele>194</ele>
        <time>2016-06-30T10:42:39.015Z</time>
      </trkpt>
      <trkpt lat="44.23619" lon="5.05213">
        <ele>194</ele>
        <time>2016-06-30T10:42:40.015Z</time>
      </trkpt>
      <trkpt lat="44.23617" lon="5.0522">
        <ele>193</ele>
        <time>2016-06-30T10:42:41.015Z</time>
      </trkpt>
      <trkpt lat="44.23615" lon="5.05227">
        <ele>193</ele>
        <time>2016-06-30T10:42:42.015Z</time>
      </trkpt>
      <trkpt lat="44.23613" lon="5.05234">
        <ele>193</ele>
        <time>2016-06-30T10:42:43.015Z</time>
      </trkpt>
      <trkpt lat="44.23611" lon="5.05241">
        <ele>193</ele>
        <time>2016-06-30T10:42:44.015Z</time>
      </trkpt>
      <trkpt lat="44.23609" lon="5.05248">
        <ele>194</ele>
        <time>2016-06-30T10:42:45.015Z</time>
      </trkpt>
      <trkpt lat="44.23607" lon="5.05255">
        <ele>194</ele>
        <time>2016-06-30T10:42:46.015Z</time>
      </trkpt>
      <trkpt lat="44.23605" lon="5.05261">
        <ele>194</ele>
        <time>2016-06-30T10:42:47.015Z</time>
      </trkpt>
      <trkpt lat="44.23604" lon="5.05268">
        <ele>194</ele>
        <time>2016-06-30T10:42:48.015Z</time>
      </trkpt>
      <trkpt lat="44.23602" lon="5.05274">
        <ele>194</ele>
        <time>2016-06-30T10:42:49.015Z</time>
      </trkpt>
      <trkpt lat="44.236" lon="5.0528">
        <ele>194</ele>
        <time>2016-06-30T10:42:50.015Z</time>
      </trkpt>
      <trkpt lat="44.23599" lon="5.05287">
        <ele>195</ele>
        <time>2016-06-30T10:42:51.015Z</time>
      </trkpt>
      <trkpt lat="44.23597" lon="5.05294">
        <ele>195</ele>
        <time>2016-06-30T10:42:52.015Z</time>
      </trkpt>
      <trkpt lat="44.23595" lon="5.05301">
        <ele>195</ele>
        <time>2016-06-30T10:42:53.015Z</time>
      </trkpt>
      <trkpt lat="44.23593" lon="5.05309">
        <ele>195</ele>
        <time>2016-06-30T10:42:54.015Z</time>
      </trkpt>
      <trkpt lat="44.23591" lon="5.05316">
        <ele>195</ele>
        <time>2016-06-30T10:42:55.015Z</time>
      </trkpt>
      <trkpt lat="44.23589" lon="5.05323">
        <ele>195</ele>
        <time>2016-06-30T10:42:56.015Z</time>
      </trkpt>
      <trkpt lat="44.23587" lon="5.0533">
        <ele>195</ele>
        <time>2016-06-30T10:42:57.015Z</time>
      </trkpt>
      <trkpt lat="44.23586" lon="5.05337">
        <ele>195</ele>
        <time>2016-06-30T10:42:58.015Z</time>
      </trkpt>
      <trkpt lat="44.23584" lon="5.05344">
        <ele>195</ele>
        <time>2016-06-30T10:42:59.015Z</time>
      </trkpt>
      <trkpt lat="44.23583" lon="5.05351">
        <ele>195</ele>
        <time>2016-06-30T10:43:00.015Z</time>
      </trkpt>
      <trkpt lat="44.23581" lon="5.05357">
        <ele>195</ele>
        <time>2016-06-30T10:43:01.015Z</time>
      </trkpt>
      <trkpt lat="44.2358" lon="5.05364">
        <ele>195</ele>
        <time>2016-06-30T10:43:02.015Z</time>
      </trkpt>
      <trkpt lat="44.23579" lon="5.05371">
        <ele>195</ele>
        <time>2016-06-30T10:43:03.015Z</time>
      </trkpt>
      <trkpt lat="44.23578" lon="5.05379">
        <ele>195</ele>
        <time>2016-06-30T10:43:04.015Z</time>
      </trkpt>
      <trkpt lat="44.23577" lon="5.05387">
        <ele>195</ele>
        <time>2016-06-30T10:43:05.015Z</time>
      </trkpt>
      <trkpt lat="44.23576" lon="5.05395">
        <ele>195</ele>
        <time>2016-06-30T10:43:06.015Z</time>
      </trkpt>
      <trkpt lat="44.23575" lon="5.05404">
        <ele>195</ele>
        <time>2016-06-30T10:43:07.015Z</time>
      </trkpt>
      <trkpt lat="44.23574" lon="5.05412">
        <ele>195</ele>
        <time>2016-06-30T10:43:08.015Z</time>
      </trkpt>
      <trkpt lat="44.23573" lon="5.05421">
        <ele>195</ele>
        <time>2016-06-30T10:43:09.015Z</time>
      </trkpt>
      <trkpt lat="44.23572" lon="5.0543">
        <ele>195</ele>
        <time>2016-06-30T10:43:10.015Z</time>
      </trkpt>
      <trkpt lat="44.23571" lon="5.05439">
        <ele>195</ele>
        <time>2016-06-30T10:43:11.015Z</time>
      </trkpt>
      <trkpt lat="44.2357" lon="5.05447">
        <ele>196</ele>
        <time>2016-06-30T10:43:12.015Z</time>
      </trkpt>
      <trkpt lat="44.23569" lon="5.05456">
        <ele>196</ele>
        <time>2016-06-30T10:43:13.015Z</time>
      </trkpt>
      <trkpt lat="44.23568" lon="5.05465">
        <ele>195</ele>
        <time>2016-06-30T10:43:14.015Z</time>
      </trkpt>
      <trkpt lat="44.23567" lon="5.05473">
        <ele>195</ele>
        <time>2016-06-30T10:43:15.015Z</time>
      </trkpt>
      <trkpt lat="44.23566" lon="5.05482">
        <ele>195</ele>
        <time>2016-06-30T10:43:16.015Z</time>
      </trkpt>
      <trkpt lat="44.23565" lon="5.0549">
        <ele>195</ele>
        <time>2016-06-30T10:43:17.015Z</time>
      </trkpt>
      <trkpt lat="44.23564" lon="5.05498">
        <ele>195</ele>
        <time>2016-06-30T10:43:18.015Z</time>
      </trkpt>
      <trkpt lat="44.23563" lon="5.05507">
        <ele>194</ele>
        <time>2016-06-30T10:43:19.015Z</time>
      </trkpt>
      <trkpt lat="44.23562" lon="5.05515">
        <ele>195</ele>
        <time>2016-06-30T10:43:20.015Z</time>
      </trkpt>
      <trkpt lat="44.2356" lon="5.05523">
        <ele>195</ele>
        <time>2016-06-30T10:43:21.015Z</time>
      </trkpt>
      <trkpt lat="44.23559" lon="5.05531">
        <ele>194</ele>
        <time>2016-06-30T10:43:22.015Z</time>
      </trkpt>
      <trkpt lat="44.23558" lon="5.05539">
        <ele>194</ele>
        <time>2016-06-30T10:43:23.015Z</time>
      </trkpt>
      <trkpt lat="44.23557" lon="5.05547">
        <ele>194</ele>
        <time>2016-06-30T10:43:24.015Z</time>
      </trkpt>
      <trkpt lat="44.23556" lon="5.05555">
        <ele>195</ele>
        <time>2016-06-30T10:43:25.015Z</time>
      </trkpt>
      <trkpt lat="44.23555" lon="5.05563">
        <ele>195</ele>
        <time>2016-06-30T10:43:26.015Z</time>
      </trkpt>
      <trkpt lat="44.23554" lon="5.05571">
        <ele>195</ele>
        <time>2016-06-30T10:43:27.015Z</time>
      </trkpt>
      <trkpt lat="44.23553" lon="5.05579">
        <ele>195</ele>
        <time>2016-06-30T10:43:28.015Z</time>
      </trkpt>
      <trkpt lat="44.23552" lon="5.05587">
        <ele>195</ele>
        <time>2016-06-30T10:43:29.015Z</time>
      </trkpt>
      <trkpt lat="44.23551" lon="5.05595">
        <ele>195</ele>
        <time>2016-06-30T10:43:30.015Z</time>
      </trkpt>
      <trkpt lat="44.2355" lon="5.05603">
        <ele>195</ele>
        <time>2016-06-30T10:43:31.015Z</time>
      </trkpt>
      <trkpt lat="44.23549" lon="5.05611">
        <ele>195</ele>
        <time>2016-06-30T10:43:32.015Z</time>
      </trkpt>
      <trkpt lat="44.23548" lon="5.05619">
        <ele>195</ele>
        <time>2016-06-30T10:43:33.015Z</time>
      </trkpt>
      <trkpt lat="44.23547" lon="5.05627">
        <ele>195</ele>
        <time>2016-06-30T10:43:34.015Z</time>
      </trkpt>
      <trkpt lat="44.23546" lon="5.05634">
        <ele>195</ele>
        <time>2016-06-30T10:43:35.015Z</time>
      </trkpt>
      <trkpt lat="44.23545" lon="5.05642">
        <ele>195</ele>
        <time>2016-06-30T10:43:36.015Z</time>
      </trkpt>
      <trkpt lat="44.23544" lon="5.0565">
        <ele>195</ele>
        <time>2016-06-30T10:43:37.015Z</time>
      </trkpt>
      <trkpt lat="44.23543" lon="5.05657">
        <ele>195</ele>
        <time>2016-06-30T10:43:38.015Z</time>
      </trkpt>
      <trkpt lat="44.23542" lon="5.05665">
        <ele>195</ele>
        <time>2016-06-30T10:43:39.015Z</time>
      </trkpt>
      <trkpt lat="44.23541" lon="5.05673">
        <ele>195</ele>
        <time>2016-06-30T10:43:40.015Z</time>
      </trkpt>
      <trkpt lat="44.2354" lon="5.05681">
        <ele>196</ele>
        <time>2016-06-30T10:43:41.015Z</time>
      </trkpt>
      <trkpt lat="44.23539" lon="5.05688">
        <ele>195</ele>
        <time>2016-06-30T10:43:42.015Z</time>
      </trkpt>
      <trkpt lat="44.23538" lon="5.05695">
        <ele>195</ele>
        <time>2016-06-30T10:43:43.015Z</time>
      </trkpt>
      <trkpt lat="44.23537" lon="5.05703">
        <ele>196</ele>
        <time>2016-06-30T10:43:44.015Z</time>
      </trkpt>
      <trkpt lat="44.23536" lon="5.0571">
        <ele>196</ele>
        <time>2016-06-30T10:43:45.015Z</time>
      </trkpt>
      <trkpt lat="44.23535" lon="5.05718">
        <ele>196</ele>
        <time>2016-06-30T10:43:46.015Z</time>
      </trkpt>
      <trkpt lat="44.23534" lon="5.05725">
        <ele>196</ele>
        <time>2016-06-30T10:43:47.015Z</time>
      </trkpt>
      <trkpt lat="44.23533" lon="5.05732">
        <ele>196</ele>
        <time>2016-06-30T10:43:48.015Z</time>
      </trkpt>
      <trkpt lat="44.23533" lon="5.05739">
        <ele>196</ele>
        <time>2016-06-30T10:43:49.015Z</time>
      </trkpt>
      <trkpt lat="44.23532" lon="5.05747">
        <ele>196</ele>
        <time>2016-06-30T10:43:50.015Z</time>
      </trkpt>
      <trkpt lat="44.23532" lon="5.05754">
        <ele>196</ele>
        <time>2016-06-30T10:43:51.015Z</time>
      </trkpt>
      <trkpt lat="44.23532" lon="5.05762">
        <ele>196</ele>
        <time>2016-06-30T10:43:52.015Z</time>
      </trkpt>
      <trkpt lat="44.23532" lon="5.0577">
        <ele>197</ele>
        <time>2016-06-30T10:43:53.015Z</time>
      </trkpt>
      <trkpt lat="44.23533" lon="5.05777">
        <ele>197</ele>
        <time>2016-06-30T10:43:54.015Z</time>
      </trkpt>
      <trkpt lat="44.23533" lon="5.05785">
        <ele>196</ele>
        <time>2016-06-30T10:43:55.015Z</time>
      </trkpt>
      <trkpt lat="44.23534" lon="5.05792">
        <ele>197</ele>
        <time>2016-06-30T10:43:56.015Z</time>
      </trkpt>
      <trkpt lat="44.23534" lon="5.05799">
        <ele>197</ele>
        <time>2016-06-30T10:43:57.015Z</time>
      </trkpt>
      <trkpt lat="44.23535" lon="5.05806">
        <ele>196</ele>
        <time>2016-06-30T10:43:58.015Z</time>
      </trkpt>
      <trkpt lat="44.23535" lon="5.05813">
        <ele>196</ele>
        <time>2016-06-30T10:43:59.015Z</time>
      </trkpt>
      <trkpt lat="44.23536" lon="5.05821">
        <ele>196</ele>
        <time>2016-06-30T10:44:00.015Z</time>
      </trkpt>
      <trkpt lat="44.23536" lon="5.05828">
        <ele>197</ele>
        <time>2016-06-30T10:44:01.015Z</time>
      </trkpt>
      <trkpt lat="44.23537" lon="5.05835">
        <ele>197</ele>
        <time>2016-06-30T10:44:02.015Z</time>
      </trkpt>
      <trkpt lat="44.23538" lon="5.05843">
        <ele>197</ele>
        <time>2016-06-30T10:44:03.015Z</time>
      </trkpt>
      <trkpt lat="44.23539" lon="5.0585">
        <ele>197</ele>
        <time>2016-06-30T10:44:04.015Z</time>
      </trkpt>
      <trkpt lat="44.2354" lon="5.05857">
        <ele>197</ele>
        <time>2016-06-30T10:44:05.015Z</time>
      </trkpt>
      <trkpt lat="44.2354" lon="5.05864">
        <ele>197</ele>
        <time>2016-06-30T10:44:06.015Z</time>
      </trkpt>
      <trkpt lat="44.23541" lon="5.05872">
        <ele>197</ele>
        <time>2016-06-30T10:44:07.015Z</time>
      </trkpt>
      <trkpt lat="44.23543" lon="5.05879">
        <ele>197</ele>
        <time>2016-06-30T10:44:08.015Z</time>
      </trkpt>
      <trkpt lat="44.23544" lon="5.05886">
        <ele>196</ele>
        <time>2016-06-30T10:44:09.015Z</time>
      </trkpt>
      <trkpt lat="44.23546" lon="5.05893">
        <ele>197</ele>
        <time>2016-06-30T10:44:10.015Z</time>
      </trkpt>
      <trkpt lat="44.23547" lon="5.059">
        <ele>197</ele>
        <time>2016-06-30T10:44:11.015Z</time>
      </trkpt>
      <trkpt lat="44.23549" lon="5.05908">
        <ele>197</ele>
        <time>2016-06-30T10:44:12.015Z</time>
      </trkpt>
      <trkpt lat="44.23551" lon="5.05915">
        <ele>197</ele>
        <time>2016-06-30T10:44:13.015Z</time>
      </trkpt>
      <trkpt lat="44.23552" lon="5.05922">
        <ele>197</ele>
        <time>2016-06-30T10:44:14.015Z</time>
      </trkpt>
      <trkpt lat="44.23554" lon="5.05929">
        <ele>197</ele>
        <time>2016-06-30T10:44:15.015Z</time>
      </trkpt>
      <trkpt lat="44.23556" lon="5.05936">
        <ele>197</ele>
        <time>2016-06-30T10:44:16.015Z</time>
      </trkpt>
      <trkpt lat="44.23558" lon="5.05943">
        <ele>197</ele>
        <time>2016-06-30T10:44:17.015Z</time>
      </trkpt>
      <trkpt lat="44.2356" lon="5.0595">
        <ele>197</ele>
        <time>2016-06-30T10:44:18.015Z</time>
      </trkpt>
      <trkpt lat="44.23562" lon="5.05957">
        <ele>197</ele>
        <time>2016-06-30T10:44:19.015Z</time>
      </trkpt>
      <trkpt lat="44.23565" lon="5.05964">
        <ele>197</ele>
        <time>2016-06-30T10:44:20.015Z</time>
      </trkpt>
      <trkpt lat="44.23567" lon="5.05971">
        <ele>197</ele>
        <time>2016-06-30T10:44:21.015Z</time>
      </trkpt>
      <trkpt lat="44.23569" lon="5.05978">
        <ele>197</ele>
        <time>2016-06-30T10:44:22.015Z</time>
      </trkpt>
      <trkpt lat="44.23571" lon="5.05984">
        <ele>197</ele>
        <time>2016-06-30T10:44:23.015Z</time>
      </trkpt>
      <trkpt lat="44.23573" lon="5.0599">
        <ele>198</ele>
        <time>2016-06-30T10:44:24.015Z</time>
      </trkpt>
      <trkpt lat="44.23575" lon="5.05996">
        <ele>198</ele>
        <time>2016-06-30T10:44:25.015Z</time>
      </trkpt>
      <trkpt lat="44.23578" lon="5.06002">
        <ele>198</ele>
        <time>2016-06-30T10:44:26.015Z</time>
      </trkpt>
      <trkpt lat="44.2358" lon="5.06008">
        <ele>198</ele>
        <time>2016-06-30T10:44:27.015Z</time>
      </trkpt>
      <trkpt lat="44.23583" lon="5.06015">
        <ele>198</ele>
        <time>2016-06-30T10:44:28.015Z</time>
      </trkpt>
      <trkpt lat="44.23586" lon="5.06021">
        <ele>198</ele>
        <time>2016-06-30T10:44:29.015Z</time>
      </trkpt>
      <trkpt lat="44.23588" lon="5.06028">
        <ele>198</ele>
        <time>2016-06-30T10:44:30.015Z</time>
      </trkpt>
      <trkpt lat="44.23591" lon="5.06034">
        <ele>198</ele>
        <time>2016-06-30T10:44:31.015Z</time>
      </trkpt>
      <trkpt lat="44.23595" lon="5.06041">
        <ele>198</ele>
        <time>2016-06-30T10:44:32.015Z</time>
      </trkpt>
      <trkpt lat="44.23598" lon="5.06048">
        <ele>198</ele>
        <time>2016-06-30T10:44:33.015Z</time>
      </trkpt>
      <trkpt lat="44.23601" lon="5.06054">
        <ele>197</ele>
        <time>2016-06-30T10:44:34.015Z</time>
      </trkpt>
      <trkpt lat="44.23605" lon="5.0606">
        <ele>198</ele>
        <time>2016-06-30T10:44:35.015Z</time>
      </trkpt>
      <trkpt lat="44.23608" lon="5.06066">
        <ele>198</ele>
        <time>2016-06-30T10:44:36.015Z</time>
      </trkpt>
      <trkpt lat="44.23612" lon="5.06072">
        <ele>198</ele>
        <time>2016-06-30T10:44:37.015Z</time>
      </trkpt>
      <trkpt lat="44.23616" lon="5.06078">
        <ele>198</ele>
        <time>2016-06-30T10:44:38.015Z</time>
      </trkpt>
      <trkpt lat="44.2362" lon="5.06085">
        <ele>199</ele>
        <time>2016-06-30T10:44:39.015Z</time>
      </trkpt>
      <trkpt lat="44.23624" lon="5.06091">
        <ele>199</ele>
        <time>2016-06-30T10:44:40.015Z</time>
      </trkpt>
      <trkpt lat="44.23627" lon="5.06096">
        <ele>199</ele>
        <time>2016-06-30T10:44:41.015Z</time>
      </trkpt>
      <trkpt lat="44.23631" lon="5.06102">
        <ele>200</ele>
        <time>2016-06-30T10:44:42.015Z</time>
      </trkpt>
      <trkpt lat="44.23635" lon="5.06107">
        <ele>199</ele>
        <time>2016-06-30T10:44:43.015Z</time>
      </trkpt>
      <trkpt lat="44.23639" lon="5.06112">
        <ele>199</ele>
        <time>2016-06-30T10:44:44.015Z</time>
      </trkpt>
      <trkpt lat="44.23643" lon="5.06117">
        <ele>199</ele>
        <time>2016-06-30T10:44:45.015Z</time>
      </trkpt>
      <trkpt lat="44.23647" lon="5.06122">
        <ele>199</ele>
        <time>2016-06-30T10:44:46.015Z</time>
      </trkpt>
      <trkpt lat="44.23651" lon="5.06128">
        <ele>199</ele>
        <time>2016-06-30T10:44:47.015Z</time>
      </trkpt>
      <trkpt lat="44.23655" lon="5.06133">
        <ele>199</ele>
        <time>2016-06-30T10:44:48.015Z</time>
      </trkpt>
      <trkpt lat="44.2366" lon="5.06138">
        <ele>199</ele>
        <time>2016-06-30T10:44:49.015Z</time>
      </trkpt>
      <trkpt lat="44.23664" lon="5.06143">
        <ele>199</ele>
        <time>2016-06-30T10:44:50.015Z</time>
      </trkpt>
      <trkpt lat="44.23668" lon="5.06148">
        <ele>199</ele>
        <time>2016-06-30T10:44:51.015Z</time>
      </trkpt>
      <trkpt lat="44.23672" lon="5.06153">
        <ele>200</ele>
        <time>2016-06-30T10:44:52.015Z</time>
      </trkpt>
      <trkpt lat="44.23676" lon="5.06157">
        <ele>199</ele>
        <time>2016-06-30T10:44:53.015Z</time>
      </trkpt>
      <trkpt lat="44.23681" lon="5.06161">
        <ele>200</ele>
        <time>2016-06-30T10:44:54.015Z</time>
      </trkpt>
      <trkpt lat="44.23686" lon="5.06165">
        <ele>200</ele>
        <time>2016-06-30T10:44:55.015Z</time>
      </trkpt>
      <trkpt lat="44.23691" lon="5.06168">
        <ele>200</ele>
        <time>2016-06-30T10:44:56.015Z</time>
      </trkpt>
      <trkpt lat="44.23696" lon="5.06172">
        <ele>199</ele>
        <time>2016-06-30T10:44:57.015Z</time>
      </trkpt>
      <trkpt lat="44.23701" lon="5.06176">
        <ele>199</ele>
        <time>2016-06-30T10:44:58.015Z</time>
      </trkpt>
      <trkpt lat="44.23706" lon="5.06179">
        <ele>199</ele>
        <time>2016-06-30T10:44:59.015Z</time>
      </trkpt>
      <trkpt lat="44.23711" lon="5.06183">
        <ele>199</ele>
        <time>2016-06-30T10:45:00.015Z</time>
      </trkpt>
      <trkpt lat="44.23717" lon="5.06186">
        <ele>199</ele>
        <time>2016-06-30T10:45:01.015Z</time>
      </trkpt>
      <trkpt lat="44.23723" lon="5.06189">
        <ele>198</ele>
        <time>2016-06-30T10:45:02.015Z</time>
      </trkpt>
      <trkpt lat="44.23728" lon="5.06192">
        <ele>198</ele>
        <time>2016-06-30T10:45:03.015Z</time>
      </trkpt>
      <trkpt lat="44.23734" lon="5.06195">
        <ele>198</ele>
        <time>2016-06-30T10:45:04.015Z</time>
      </trkpt>
      <trkpt lat="44.2374" lon="5.06199">
        <ele>198</ele>
        <time>2016-06-30T10:45:05.015Z</time>
      </trkpt>
      <trkpt lat="44.23745" lon="5.06202">
        <ele>198</ele>
        <time>2016-06-30T10:45:06.015Z</time>
      </trkpt>
      <trkpt lat="44.23751" lon="5.06205">
        <ele>198</ele>
        <time>2016-06-30T10:45:07.015Z</time>
      </trkpt>
      <trkpt lat="44.23757" lon="5.06208">
        <ele>197</ele>
        <time>2016-06-30T10:45:08.015Z</time>
      </trkpt>
      <trkpt lat="44.23763" lon="5.06212">
        <ele>197</ele>
        <time>2016-06-30T10:45:09.015Z</time>
      </trkpt>
      <trkpt lat="44.23769" lon="5.06215">
        <ele>197</ele>
        <time>2016-06-30T10:45:10.015Z</time>
      </trkpt>
      <trkpt lat="44.23775" lon="5.06219">
        <ele>197</ele>
        <time>2016-06-30T10:45:11.015Z</time>
      </trkpt>
      <trkpt lat="44.23781" lon="5.06222">
        <ele>197</ele>
        <time>2016-06-30T10:45:12.015Z</time>
      </trkpt>
      <trkpt lat="44.23787" lon="5.06226">
        <ele>197</ele>
        <time>2016-06-30T10:45:13.015Z</time>
      </trkpt>
      <trkpt lat="44.23793" lon="5.06229">
        <ele>197</ele>
        <time>2016-06-30T10:45:14.015Z</time>
      </trkpt>
      <trkpt lat="44.23799" lon="5.06232">
        <ele>197</ele>
        <time>2016-06-30T10:45:15.015Z</time>
      </trkpt>
      <trkpt lat="44.23804" lon="5.06236">
        <ele>197</ele>
        <time>2016-06-30T10:45:16.015Z</time>
      </trkpt>
      <trkpt lat="44.2381" lon="5.06239">
        <ele>197</ele>
        <time>2016-06-30T10:45:17.015Z</time>
      </trkpt>
      <trkpt lat="44.23816" lon="5.06243">
        <ele>197</ele>
        <time>2016-06-30T10:45:18.015Z</time>
      </trkpt>
      <trkpt lat="44.23821" lon="5.06248">
        <ele>196</ele>
        <time>2016-06-30T10:45:19.015Z</time>
      </trkpt>
      <trkpt lat="44.23826" lon="5.06253">
        <ele>196</ele>
        <time>2016-06-30T10:45:20.015Z</time>
      </trkpt>
      <trkpt lat="44.23831" lon="5.06259">
        <ele>196</ele>
        <time>2016-06-30T10:45:21.015Z</time>
      </trkpt>
      <trkpt lat="44.23835" lon="5.06266">
        <ele>196</ele>
        <time>2016-06-30T10:45:22.015Z</time>
      </trkpt>
      <trkpt lat="44.23839" lon="5.06273">
        <ele>197</ele>
        <time>2016-06-30T10:45:23.015Z</time>
      </trkpt>
      <trkpt lat="44.23843" lon="5.0628">
        <ele>197</ele>
        <time>2016-06-30T10:45:24.015Z</time>
      </trkpt>
      <trkpt lat="44.23846" lon="5.06288">
        <ele>197</ele>
        <time>2016-06-30T10:45:25.015Z</time>
      </trkpt>
      <trkpt lat="44.23848" lon="5.06296">
        <ele>197</ele>
        <time>2016-06-30T10:45:26.015Z</time>
      </trkpt>
      <trkpt lat="44.23851" lon="5.06304">
        <ele>197</ele>
        <time>2016-06-30T10:45:27.015Z</time>
      </trkpt>
      <trkpt lat="44.23853" lon="5.06312">
        <ele>197</ele>
        <time>2016-06-30T10:45:28.015Z</time>
      </trkpt>
      <trkpt lat="44.23855" lon="5.0632">
        <ele>197</ele>
        <time>2016-06-30T10:45:29.015Z</time>
      </trkpt>
      <trkpt lat="44.23857" lon="5.06328">
        <ele>197</ele>
        <time>2016-06-30T10:45:30.015Z</time>
      </trkpt>
      <trkpt lat="44.23859" lon="5.06337">
        <ele>197</ele>
        <time>2016-06-30T10:45:31.015Z</time>
      </trkpt>
      <trkpt lat="44.23862" lon="5.06345">
        <ele>197</ele>
        <time>2016-06-30T10:45:32.015Z</time>
      </trkpt>
      <trkpt lat="44.23864" lon="5.06353">
        <ele>197</ele>
        <time>2016-06-30T10:45:33.015Z</time>
      </trkpt>
      <trkpt lat="44.23866" lon="5.06362">
        <ele>197</ele>
        <time>2016-06-30T10:45:34.015Z</time>
      </trkpt>
      <trkpt lat="44.23868" lon="5.0637">
        <ele>197</ele>
        <time>2016-06-30T10:45:35.015Z</time>
      </trkpt>
      <trkpt lat="44.2387" lon="5.06378">
        <ele>197</ele>
        <time>2016-06-30T10:45:36.015Z</time>
      </trkpt>
      <trkpt lat="44.23872" lon="5.06386">
        <ele>197</ele>
        <time>2016-06-30T10:45:37.015Z</time>
      </trkpt>
      <trkpt lat="44.23874" lon="5.06394">
        <ele>197</ele>
        <time>2016-06-30T10:45:38.015Z</time>
      </trkpt>
      <trkpt lat="44.23876" lon="5.06402">
        <ele>197</ele>
        <time>2016-06-30T10:45:39.015Z</time>
      </trkpt>
      <trkpt lat="44.23878" lon="5.0641">
        <ele>197</ele>
        <time>2016-06-30T10:45:40.015Z</time>
      </trkpt>
      <trkpt lat="44.2388" lon="5.06417">
        <ele>198</ele>
        <time>2016-06-30T10:45:41.015Z</time>
      </trkpt>
      <trkpt lat="44.23881" lon="5.06425">
        <ele>198</ele>
        <time>2016-06-30T10:45:42.015Z</time>
      </trkpt>
      <trkpt lat="44.23883" lon="5.06432">
        <ele>198</ele>
        <time>2016-06-30T10:45:43.015Z</time>
      </trkpt>
      <trkpt lat="44.23884" lon="5.06439">
        <ele>198</ele>
        <time>2016-06-30T10:45:44.015Z</time>
      </trkpt>
      <trkpt lat="44.23885" lon="5.06446">
        <ele>197</ele>
        <time>2016-06-30T10:45:45.015Z</time>
      </trkpt>
      <trkpt lat="44.23887" lon="5.06453">
        <ele>197</ele>
        <time>2016-06-30T10:45:46.015Z</time>
      </trkpt>
      <trkpt lat="44.23888" lon="5.0646">
        <ele>197</ele>
        <time>2016-06-30T10:45:47.015Z</time>
      </trkpt>
      <trkpt lat="44.2389" lon="5.06467">
        <ele>197</ele>
        <time>2016-06-30T10:45:48.015Z</time>
      </trkpt>
      <trkpt lat="44.23891" lon="5.06475">
        <ele>197</ele>
        <time>2016-06-30T10:45:49.015Z</time>
      </trkpt>
      <trkpt lat="44.23892" lon="5.06483">
        <ele>197</ele>
        <time>2016-06-30T10:45:50.015Z</time>
      </trkpt>
      <trkpt lat="44.23894" lon="5.06491">
        <ele>197</ele>
        <time>2016-06-30T10:45:51.015Z</time>
      </trkpt>
      <trkpt lat="44.23895" lon="5.06499">
        <ele>198</ele>
        <time>2016-06-30T10:45:52.015Z</time>
      </trkpt>
      <trkpt lat="44.23897" lon="5.06507">
        <ele>197</ele>
        <time>2016-06-30T10:45:53.015Z</time>
      </trkpt>
      <trkpt lat="44.23897" lon="5.06515">
        <ele>198</ele>
        <time>2016-06-30T10:45:54.015Z</time>
      </trkpt>
      <trkpt lat="44.23898" lon="5.06522">
        <ele>198</ele>
        <time>2016-06-30T10:45:55.015Z</time>
      </trkpt>
      <trkpt lat="44.23898" lon="5.0653">
        <ele>198</ele>
        <time>2016-06-30T10:45:56.015Z</time>
      </trkpt>
      <trkpt lat="44.23899" lon="5.06538">
        <ele>198</ele>
        <time>2016-06-30T10:45:57.015Z</time>
      </trkpt>
      <trkpt lat="44.23899" lon="5.06545">
        <ele>198</ele>
        <time>2016-06-30T10:45:58.015Z</time>
      </trkpt>
      <trkpt lat="44.23899" lon="5.06553">
        <ele>198</ele>
        <time>2016-06-30T10:45:59.015Z</time>
      </trkpt>
      <trkpt lat="44.23899" lon="5.06561">
        <ele>198</ele>
        <time>2016-06-30T10:46:00.015Z</time>
      </trkpt>
      <trkpt lat="44.23898" lon="5.06569">
        <ele>198</ele>
        <time>2016-06-30T10:46:01.015Z</time>
      </trkpt>
      <trkpt lat="44.23897" lon="5.06578">
        <ele>198</ele>
        <time>2016-06-30T10:46:02.015Z</time>
      </trkpt>
      <trkpt lat="44.23897" lon="5.06586">
        <ele>198</ele>
        <time>2016-06-30T10:46:03.015Z</time>
      </trkpt>
      <trkpt lat="44.23896" lon="5.06595">
        <ele>198</ele>
        <time>2016-06-30T10:46:04.015Z</time>
      </trkpt>
      <trkpt lat="44.23896" lon="5.06603">
        <ele>198</ele>
        <time>2016-06-30T10:46:05.015Z</time>
      </trkpt>
      <trkpt lat="44.23895" lon="5.0661">
        <ele>198</ele>
        <time>2016-06-30T10:46:06.015Z</time>
      </trkpt>
      <trkpt lat="44.23894" lon="5.06618">
        <ele>198</ele>
        <time>2016-06-30T10:46:07.015Z</time>
      </trkpt>
      <trkpt lat="44.23894" lon="5.06626">
        <ele>198</ele>
        <time>2016-06-30T10:46:08.015Z</time>
      </trkpt>
      <trkpt lat="44.23893" lon="5.06633">
        <ele>198</ele>
        <time>2016-06-30T10:46:09.015Z</time>
      </trkpt>
      <trkpt lat="44.23892" lon="5.0664">
        <ele>198</ele>
        <time>2016-06-30T10:46:10.015Z</time>
      </trkpt>
      <trkpt lat="44.23892" lon="5.06648">
        <ele>198</ele>
        <time>2016-06-30T10:46:11.015Z</time>
      </trkpt>
      <trkpt lat="44.23891" lon="5.06655">
        <ele>198</ele>
        <time>2016-06-30T10:46:12.015Z</time>
      </trkpt>
      <trkpt lat="44.2389" lon="5.06662">
        <ele>198</ele>
        <time>2016-06-30T10:46:13.015Z</time>
      </trkpt>
      <trkpt lat="44.2389" lon="5.0667">
        <ele>198</ele>
        <time>2016-06-30T10:46:14.015Z</time>
      </trkpt>
      <trkpt lat="44.23889" lon="5.06677">
        <ele>198</ele>
        <time>2016-06-30T10:46:15.015Z</time>
      </trkpt>
      <trkpt lat="44.23888" lon="5.06684">
        <ele>198</ele>
        <time>2016-06-30T10:46:16.015Z</time>
      </trkpt>
      <trkpt lat="44.23887" lon="5.06691">
        <ele>198</ele>
        <time>2016-06-30T10:46:17.015Z</time>
      </trkpt>
      <trkpt lat="44.23886" lon="5.06698">
        <ele>198</ele>
        <time>2016-06-30T10:46:18.015Z</time>
      </trkpt>
      <trkpt lat="44.23885" lon="5.06705">
        <ele>198</ele>
        <time>2016-06-30T10:46:19.015Z</time>
      </trkpt>
      <trkpt lat="44.23885" lon="5.06712">
        <ele>198</ele>
        <time>2016-06-30T10:46:20.015Z</time>
      </trkpt>
      <trkpt lat="44.23884" lon="5.06719">
        <ele>198</ele>
        <time>2016-06-30T10:46:21.015Z</time>
      </trkpt>
      <trkpt lat="44.23883" lon="5.06725">
        <ele>198</ele>
        <time>2016-06-30T10:46:22.015Z</time>
      </trkpt>
      <trkpt lat="44.23882" lon="5.06732">
        <ele>198</ele>
        <time>2016-06-30T10:46:23.015Z</time>
      </trkpt>
      <trkpt lat="44.23882" lon="5.06738">
        <ele>198</ele>
        <time>2016-06-30T10:46:24.015Z</time>
      </trkpt>
      <trkpt lat="44.23882" lon="5.06745">
        <ele>198</ele>
        <time>2016-06-30T10:46:25.015Z</time>
      </trkpt>
      <trkpt lat="44.23882" lon="5.0675">
        <ele>198</ele>
        <time>2016-06-30T10:46:26.015Z</time>
      </trkpt>
      <trkpt lat="44.23883" lon="5.06755">
        <ele>198</ele>
        <time>2016-06-30T10:46:27.015Z</time>
      </trkpt>
      <trkpt lat="44.23883" lon="5.0676">
        <ele>198</ele>
        <time>2016-06-30T10:46:28.015Z</time>
      </trkpt>
      <trkpt lat="44.23883" lon="5.06764">
        <ele>198</ele>
        <time>2016-06-30T10:46:29.015Z</time>
      </trkpt>
      <trkpt lat="44.23883" lon="5.06767">
        <ele>199</ele>
        <time>2016-06-30T10:46:30.015Z</time>
      </trkpt>
      <trkpt lat="44.23883" lon="5.06769">
        <ele>199</ele>
        <time>2016-06-30T10:46:31.015Z</time>
      </trkpt>
      <trkpt lat="44.23883" lon="5.06771">
        <ele>199</ele>
        <time>2016-06-30T10:46:32.015Z</time>
      </trkpt>
      <trkpt lat="44.23883" lon="5.06772">
        <ele>198</ele>
        <time>2016-06-30T10:46:33.015Z</time>
      </trkpt>
      <trkpt lat="44.23883" lon="5.06772">
        <ele>198</ele>
        <time>2016-06-30T10:46:34.015Z</time>
      </trkpt>
      <trkpt lat="44.23883" lon="5.06772">
        <ele>198</ele>
        <time>2016-06-30T10:46:35.015Z</time>
      </trkpt>
      <trkpt lat="44.23883" lon="5.06771">
        <ele>199</ele>
        <time>2016-06-30T10:46:36.015Z</time>
      </trkpt>
      <trkpt lat="44.23884" lon="5.06772">
        <ele>200</ele>
        <time>2016-06-30T10:46:37.015Z</time>
      </trkpt>
      <trkpt lat="44.23884" lon="5.06772">
        <ele>200</ele>
        <time>2016-06-30T10:46:38.015Z</time>
      </trkpt>
      <trkpt lat="44.23884" lon="5.06772">
        <ele>200</ele>
        <time>2016-06-30T10:46:39.015Z</time>
      </trkpt>
      <trkpt lat="44.23884" lon="5.06772">
        <ele>200</ele>
        <time>2016-06-30T10:46:40.015Z</time>
      </trkpt>
      <trkpt lat="44.23884" lon="5.06772">
        <ele>200</ele>
        <time>2016-06-30T10:46:41.015Z</time>
      </trkpt>
      <trkpt lat="44.23884" lon="5.06772">
        <ele>200</ele>
        <time>2016-06-30T10:46:42.015Z</time>
      </trkpt>
      <trkpt lat="44.23884" lon="5.06772">
        <ele>200</ele>
        <time>2016-06-30T10:46:43.015Z</time>
      </trkpt>
      <trkpt lat="44.23884" lon="5.06772">
        <ele>200</ele>
        <time>2016-06-30T10:46:44.015Z</time>
      </trkpt>
      <trkpt lat="44.23884" lon="5.06772">
        <ele>200</ele>
        <time>2016-06-30T10:46:45.015Z</time>
      </trkpt>
      <trkpt lat="44.23884" lon="5.06772">
        <ele>200</ele>
        <time>2016-06-30T10:46:46.015Z</time>
      </trkpt>
      <trkpt lat="44.23884" lon="5.06772">
        <ele>200</ele>
        <time>2016-06-30T10:46:47.015Z</time>
      </trkpt>
      <trkpt lat="44.23884" lon="5.06772">
        <ele>201</ele>
        <time>2016-06-30T10:46:48.015Z</time>
      </trkpt>
      <trkpt lat="44.23884" lon="5.06772">
        <ele>200</ele>
        <time>2016-06-30T10:46:49.015Z</time>
      </trkpt>
      <trkpt lat="44.23884" lon="5.06772">
        <ele>201</ele>
        <time>2016-06-30T10:46:50.015Z</time>
      </trkpt>
      <trkpt lat="44.23885" lon="5.06772">
        <ele>201</ele>
        <time>2016-06-30T10:46:51.015Z</time>
      </trkpt>
      <trkpt lat="44.23885" lon="5.06772">
        <ele>201</ele>
        <time>2016-06-30T10:46:52.015Z</time>
      </trkpt>
      <trkpt lat="44.23885" lon="5.06772">
        <ele>201</ele>
        <time>2016-06-30T10:46:53.015Z</time>
      </trkpt>
      <trkpt lat="44.23884" lon="5.06772">
        <ele>201</ele>
        <time>2016-06-30T10:46:54.015Z</time>
      </trkpt>
      <trkpt lat="44.23884" lon="5.06772">
        <ele>201</ele>
        <time>2016-06-30T10:46:55.015Z</time>
      </trkpt>
      <trkpt lat="44.23884" lon="5.06772">
        <ele>201</ele>
        <time>2016-06-30T10:46:56.015Z</time>
      </trkpt>
      <trkpt lat="44.23884" lon="5.06772">
        <ele>201</ele>
        <time>2016-06-30T10:46:57.015Z</time>
      </trkpt>
      <trkpt lat="44.23884" lon="5.06772">
        <ele>201</ele>
        <time>2016-06-30T10:46:58.015Z</time>
      </trkpt>
      <trkpt lat="44.23884" lon="5.06772">
        <ele>201</ele>
        <time>2016-06-30T10:46:59.015Z</time>
      </trkpt>
      <trkpt lat="44.23884" lon="5.06772">
        <ele>201</ele>
        <time>2016-06-30T10:47:00.015Z</time>
      </trkpt>
      <trkpt lat="44.23884" lon="5.06772">
        <ele>201</ele>
        <time>2016-06-30T10:47:01.015Z</time>
      </trkpt>
      <trkpt lat="44.23884" lon="5.06772">
        <ele>201</ele>
        <time>2016-06-30T10:47:02.015Z</time>
      </trkpt>
      <trkpt lat="44.23884" lon="5.06772">
        <ele>201</ele>
        <time>2016-06-30T10:47:03.015Z</time>
      </trkpt>
      <trkpt lat="44.23884" lon="5.06772">
        <ele>201</ele>
        <time>2016-06-30T10:47:04.015Z</time>
      </trkpt>
      <trkpt lat="44.23884" lon="5.06772">
        <ele>200</ele>
        <time>2016-06-30T10:47:05.015Z</time>
      </trkpt>
      <trkpt lat="44.23884" lon="5.06772">
        <ele>200</ele>
        <time>2016-06-30T10:47:06.015Z</time>
      </trkpt>
      <trkpt lat="44.23884" lon="5.06772">
        <ele>200</ele>
        <time>2016-06-30T10:47:07.015Z</time>
      </trkpt>
      <trkpt lat="44.23884" lon="5.06772">
        <ele>200</ele>
        <time>2016-06-30T10:47:08.015Z</time>
      </trkpt>
      <trkpt lat="44.23884" lon="5.06772">
        <ele>200</ele>
        <time>2016-06-30T10:47:09.015Z</time>
      </trkpt>
      <trkpt lat="44.23884" lon="5.06773">
        <ele>200</ele>
        <time>2016-06-30T10:47:10.015Z</time>
      </trkpt>
      <trkpt lat="44.23884" lon="5.06773">
        <ele>200</ele>
        <time>2016-06-30T10:47:11.015Z</time>
      </trkpt>
      <trkpt lat="44.23884" lon="5.06773">
        <ele>201</ele>
        <time>2016-06-30T10:47:12.015Z</time>
      </trkpt>
      <trkpt lat="44.23884" lon="5.06773">
        <ele>201</ele>
        <time>2016-06-30T10:47:13.015Z</time>
      </trkpt>
      <trkpt lat="44.23884" lon="5.06773">
        <ele>201</ele>
        <time>2016-06-30T10:47:14.015Z</time>
      </trkpt>
      <trkpt lat="44.23884" lon="5.06773">
        <ele>201</ele>
        <time>2016-06-30T10:47:15.015Z</time>
      </trkpt>
      <trkpt lat="44.23884" lon="5.06772">
        <ele>201</ele>
        <time>2016-06-30T10:47:16.015Z</time>
      </trkpt>
      <trkpt lat="44.23884" lon="5.06772">
        <ele>201</ele>
        <time>2016-06-30T10:47:17.015Z</time>
      </trkpt>
      <trkpt lat="44.23885" lon="5.06772">
        <ele>201</ele>
        <time>2016-06-30T10:47:18.015Z</time>
      </trkpt>
      <trkpt lat="44.23885" lon="5.06772">
        <ele>201</ele>
        <time>2016-06-30T10:47:19.015Z</time>
      </trkpt>
      <trkpt lat="44.23884" lon="5.06772">
        <ele>201</ele>
        <time>2016-06-30T10:47:20.015Z</time>
      </trkpt>
      <trkpt lat="44.23884" lon="5.06772">
        <ele>201</ele>
        <time>2016-06-30T10:47:21.015Z</time>
      </trkpt>
      <trkpt lat="44.23884" lon="5.06772">
        <ele>201</ele>
        <time>2016-06-30T10:47:22.015Z</time>
      </trkpt>
      <trkpt lat="44.23884" lon="5.06772">
        <ele>201</ele>
        <time>2016-06-30T10:47:23.015Z</time>
      </trkpt>
      <trkpt lat="44.23884" lon="5.06772">
        <ele>201</ele>
        <time>2016-06-30T10:47:24.015Z</time>
      </trkpt>
      <trkpt lat="44.23884" lon="5.06772">
        <ele>202</ele>
        <time>2016-06-30T10:47:25.015Z</time>
      </trkpt>
      <trkpt lat="44.23884" lon="5.06772">
        <ele>202</ele>
        <time>2016-06-30T10:47:26.015Z</time>
      </trkpt>
      <trkpt lat="44.23884" lon="5.06772">
        <ele>201</ele>
        <time>2016-06-30T10:47:27.015Z</time>
      </trkpt>
      <trkpt lat="44.23884" lon="5.06772">
        <ele>201</ele>
        <time>2016-06-30T10:47:28.015Z</time>
      </trkpt>
      <trkpt lat="44.23884" lon="5.06772">
        <ele>201</ele>
        <time>2016-06-30T10:47:29.015Z</time>
      </trkpt>
      <trkpt lat="44.23884" lon="5.06772">
        <ele>201</ele>
        <time>2016-06-30T10:47:30.015Z</time>
      </trkpt>
      <trkpt lat="44.23884" lon="5.06772">
        <ele>201</ele>
        <time>2016-06-30T10:47:31.015Z</time>
      </trkpt>
      <trkpt lat="44.23884" lon="5.06772">
        <ele>201</ele>
        <time>2016-06-30T10:47:32.015Z</time>
      </trkpt>
      <trkpt lat="44.23884" lon="5.06772">
        <ele>201</ele>
        <time>2016-06-30T10:47:33.015Z</time>
      </trkpt>
      <trkpt lat="44.23884" lon="5.06772">
        <ele>201</ele>
        <time>2016-06-30T10:47:34.015Z</time>
      </trkpt>
      <trkpt lat="44.23884" lon="5.06772">
        <ele>201</ele>
        <time>2016-06-30T10:47:35.015Z</time>
      </trkpt>
      <trkpt lat="44.23884" lon="5.06772">
        <ele>200</ele>
        <time>2016-06-30T10:47:36.015Z</time>
      </trkpt>
      <trkpt lat="44.23884" lon="5.06772">
        <ele>200</ele>
        <time>2016-06-30T10:47:37.015Z</time>
      </trkpt>
      <trkpt lat="44.23884" lon="5.06772">
        <ele>200</ele>
        <time>2016-06-30T10:47:38.015Z</time>
      </trkpt>
      <trkpt lat="44.23884" lon="5.06772">
        <ele>201</ele>
        <time>2016-06-30T10:47:39.015Z</time>
      </trkpt>
      <trkpt lat="44.23884" lon="5.06772">
        <ele>201</ele>
        <time>2016-06-30T10:47:40.015Z</time>
      </trkpt>
      <trkpt lat="44.23885" lon="5.06772">
        <ele>201</ele>
        <time>2016-06-30T10:47:41.015Z</time>
      </trkpt>
      <trkpt lat="44.23885" lon="5.06772">
        <ele>201</ele>
        <time>2016-06-30T10:47:42.015Z</time>
      </trkpt>
      <trkpt lat="44.23885" lon="5.06773">
        <ele>202</ele>
        <time>2016-06-30T10:47:43.015Z</time>
      </trkpt>
      <trkpt lat="44.23885" lon="5.06773">
        <ele>202</ele>
        <time>2016-06-30T10:47:44.015Z</time>
      </trkpt>
      <trkpt lat="44.23885" lon="5.06773">
        <ele>201</ele>
        <time>2016-06-30T10:47:45.015Z</time>
      </trkpt>
      <trkpt lat="44.23885" lon="5.06774">
        <ele>201</ele>
        <time>2016-06-30T10:47:46.015Z</time>
      </trkpt>
      <trkpt lat="44.23886" lon="5.06776">
        <ele>202</ele>
        <time>2016-06-30T10:47:47.015Z</time>
      </trkpt>
      <trkpt lat="44.23887" lon="5.06778">
        <ele>201</ele>
        <time>2016-06-30T10:47:48.015Z</time>
      </trkpt>
      <trkpt lat="44.23888" lon="5.06779">
        <ele>201</ele>
        <time>2016-06-30T10:47:49.015Z</time>
      </trkpt>
      <trkpt lat="44.23889" lon="5.06781">
        <ele>201</ele>
        <time>2016-06-30T10:47:50.015Z</time>
      </trkpt>
      <trkpt lat="44.2389" lon="5.06783">
        <ele>201</ele>
        <time>2016-06-30T10:47:51.015Z</time>
      </trkpt>
      <trkpt lat="44.23891" lon="5.06786">
        <ele>201</ele>
        <time>2016-06-30T10:47:52.015Z</time>
      </trkpt>
      <trkpt lat="44.23892" lon="5.06789">
        <ele>201</ele>
        <time>2016-06-30T10:47:53.015Z</time>
      </trkpt>
      <trkpt lat="44.23892" lon="5.06792">
        <ele>201</ele>
        <time>2016-06-30T10:47:54.015Z</time>
      </trkpt>
      <trkpt lat="44.23892" lon="5.06797">
        <ele>201</ele>
        <time>2016-06-30T10:47:55.015Z</time>
      </trkpt>
      <trkpt lat="44.23892" lon="5.06801">
        <ele>201</ele>
        <time>2016-06-30T10:47:56.015Z</time>
      </trkpt>
      <trkpt lat="44.23893" lon="5.06806">
        <ele>201</ele>
        <time>2016-06-30T10:47:57.015Z</time>
      </trkpt>
      <trkpt lat="44.23895" lon="5.06811">
        <ele>200</ele>
        <time>2016-06-30T10:47:58.015Z</time>
      </trkpt>
      <trkpt lat="44.23898" lon="5.06815">
        <ele>200</ele>
        <time>2016-06-30T10:47:59.015Z</time>
      </trkpt>
      <trkpt lat="44.239" lon="5.06819">
        <ele>200</ele>
        <time>2016-06-30T10:48:00.015Z</time>
      </trkpt>
      <trkpt lat="44.23904" lon="5.06824">
        <ele>200</ele>
        <time>2016-06-30T10:48:01.015Z</time>
      </trkpt>
      <trkpt lat="44.23906" lon="5.0683">
        <ele>200</ele>
        <time>2016-06-30T10:48:02.015Z</time>
      </trkpt>
      <trkpt lat="44.23908" lon="5.06836">
        <ele>200</ele>
        <time>2016-06-30T10:48:03.015Z</time>
      </trkpt>
      <trkpt lat="44.23909" lon="5.06843">
        <ele>200</ele>
        <time>2016-06-30T10:48:04.015Z</time>
      </trkpt>
      <trkpt lat="44.2391" lon="5.0685">
        <ele>200</ele>
        <time>2016-06-30T10:48:05.015Z</time>
      </trkpt>
      <trkpt lat="44.23912" lon="5.06857">
        <ele>200</ele>
        <time>2016-06-30T10:48:06.015Z</time>
      </trkpt>
      <trkpt lat="44.23913" lon="5.06864">
        <ele>200</ele>
        <time>2016-06-30T10:48:07.015Z</time>
      </trkpt>
      <trkpt lat="44.23914" lon="5.06871">
        <ele>200</ele>
        <time>2016-06-30T10:48:08.015Z</time>
      </trkpt>
      <trkpt lat="44.23916" lon="5.06878">
        <ele>200</ele>
        <time>2016-06-30T10:48:09.015Z</time>
      </trkpt>
      <trkpt lat="44.23918" lon="5.06885">
        <ele>200</ele>
        <time>2016-06-30T10:48:10.015Z</time>
      </trkpt>
      <trkpt lat="44.2392" lon="5.06891">
        <ele>200</ele>
        <time>2016-06-30T10:48:11.015Z</time>
      </trkpt>
      <trkpt lat="44.23922" lon="5.06899">
        <ele>200</ele>
        <time>2016-06-30T10:48:12.015Z</time>
      </trkpt>
      <trkpt lat="44.23923" lon="5.06906">
        <ele>200</ele>
        <time>2016-06-30T10:48:13.015Z</time>
      </trkpt>
      <trkpt lat="44.23925" lon="5.06913">
        <ele>200</ele>
        <time>2016-06-30T10:48:14.015Z</time>
      </trkpt>
      <trkpt lat="44.23927" lon="5.0692">
        <ele>200</ele>
        <time>2016-06-30T10:48:15.015Z</time>
      </trkpt>
      <trkpt lat="44.23929" lon="5.06928">
        <ele>201</ele>
        <time>2016-06-30T10:48:16.015Z</time>
      </trkpt>
      <trkpt lat="44.2393" lon="5.06935">
        <ele>201</ele>
        <time>2016-06-30T10:48:17.015Z</time>
      </trkpt>
      <trkpt lat="44.23932" lon="5.06942">
        <ele>201</ele>
        <time>2016-06-30T10:48:18.015Z</time>
      </trkpt>
      <trkpt lat="44.23933" lon="5.0695">
        <ele>201</ele>
        <time>2016-06-30T10:48:19.015Z</time>
      </trkpt>
      <trkpt lat="44.23934" lon="5.06958">
        <ele>201</ele>
        <time>2016-06-30T10:48:20.015Z</time>
      </trkpt>
      <trkpt lat="44.23935" lon="5.06966">
        <ele>201</ele>
        <time>2016-06-30T10:48:21.015Z</time>
      </trkpt>
      <trkpt lat="44.23936" lon="5.06974">
        <ele>201</ele>
        <time>2016-06-30T10:48:22.015Z</time>
      </trkpt>
      <trkpt lat="44.23936" lon="5.06982">
        <ele>201</ele>
        <time>2016-06-30T10:48:23.015Z</time>
      </trkpt>
      <trkpt lat="44.23937" lon="5.0699">
        <ele>201</ele>
        <time>2016-06-30T10:48:24.015Z</time>
      </trkpt>
      <trkpt lat="44.23937" lon="5.06998">
        <ele>201</ele>
        <time>2016-06-30T10:48:25.015Z</time>
      </trkpt>
      <trkpt lat="44.23937" lon="5.07006">
        <ele>201</ele>
        <time>2016-06-30T10:48:26.015Z</time>
      </trkpt>
      <trkpt lat="44.23936" lon="5.07014">
        <ele>201</ele>
        <time>2016-06-30T10:48:27.015Z</time>
      </trkpt>
      <trkpt lat="44.23936" lon="5.07021">
        <ele>201</ele>
        <time>2016-06-30T10:48:28.015Z</time>
      </trkpt>
      <trkpt lat="44.23936" lon="5.07029">
        <ele>201</ele>
        <time>2016-06-30T10:48:29.015Z</time>
      </trkpt>
      <trkpt lat="44.23935" lon="5.07037">
        <ele>201</ele>
        <time>2016-06-30T10:48:30.015Z</time>
      </trkpt>
      <trkpt lat="44.23935" lon="5.07045">
        <ele>202</ele>
        <time>2016-06-30T10:48:31.015Z</time>
      </trkpt>
      <trkpt lat="44.23934" lon="5.07052">
        <ele>202</ele>
        <time>2016-06-30T10:48:32.015Z</time>
      </trkpt>
      <trkpt lat="44.23934" lon="5.0706">
        <ele>202</ele>
        <time>2016-06-30T10:48:33.015Z</time>
      </trkpt>
      <trkpt lat="44.23934" lon="5.07067">
        <ele>202</ele>
        <time>2016-06-30T10:48:34.015Z</time>
      </trkpt>
      <trkpt lat="44.23933" lon="5.07074">
        <ele>202</ele>
        <time>2016-06-30T10:48:35.015Z</time>
      </trkpt>
      <trkpt lat="44.23933" lon="5.07082">
        <ele>202</ele>
        <time>2016-06-30T10:48:36.015Z</time>
      </trkpt>
      <trkpt lat="44.23932" lon="5.0709">
        <ele>202</ele>
        <time>2016-06-30T10:48:37.015Z</time>
      </trkpt>
      <trkpt lat="44.23932" lon="5.07099">
        <ele>203</ele>
        <time>2016-06-30T10:48:38.015Z</time>
      </trkpt>
      <trkpt lat="44.23931" lon="5.07106">
        <ele>203</ele>
        <time>2016-06-30T10:48:39.015Z</time>
      </trkpt>
      <trkpt lat="44.23931" lon="5.07114">
        <ele>203</ele>
        <time>2016-06-30T10:48:40.015Z</time>
      </trkpt>
      <trkpt lat="44.2393" lon="5.07121">
        <ele>203</ele>
        <time>2016-06-30T10:48:41.015Z</time>
      </trkpt>
      <trkpt lat="44.2393" lon="5.07128">
        <ele>203</ele>
        <time>2016-06-30T10:48:42.015Z</time>
      </trkpt>
      <trkpt lat="44.23929" lon="5.07135">
        <ele>203</ele>
        <time>2016-06-30T10:48:43.015Z</time>
      </trkpt>
      <trkpt lat="44.23929" lon="5.07142">
        <ele>203</ele>
        <time>2016-06-30T10:48:44.015Z</time>
      </trkpt>
      <trkpt lat="44.23929" lon="5.0715">
        <ele>203</ele>
        <time>2016-06-30T10:48:45.015Z</time>
      </trkpt>
      <trkpt lat="44.23928" lon="5.07157">
        <ele>203</ele>
        <time>2016-06-30T10:48:46.015Z</time>
      </trkpt>
      <trkpt lat="44.23928" lon="5.07164">
        <ele>203</ele>
        <time>2016-06-30T10:48:47.015Z</time>
      </trkpt>
      <trkpt lat="44.23927" lon="5.07172">
        <ele>203</ele>
        <time>2016-06-30T10:48:48.015Z</time>
      </trkpt>
      <trkpt lat="44.23927" lon="5.07179">
        <ele>203</ele>
        <time>2016-06-30T10:48:49.015Z</time>
      </trkpt>
      <trkpt lat="44.23926" lon="5.07186">
        <ele>203</ele>
        <time>2016-06-30T10:48:50.015Z</time>
      </trkpt>
      <trkpt lat="44.23926" lon="5.07194">
        <ele>204</ele>
        <time>2016-06-30T10:48:51.015Z</time>
      </trkpt>
      <trkpt lat="44.23925" lon="5.07201">
        <ele>204</ele>
        <time>2016-06-30T10:48:52.015Z</time>
      </trkpt>
      <trkpt lat="44.23925" lon="5.07208">
        <ele>204</ele>
        <time>2016-06-30T10:48:53.015Z</time>
      </trkpt>
      <trkpt lat="44.23924" lon="5.07215">
        <ele>204</ele>
        <time>2016-06-30T10:48:54.015Z</time>
      </trkpt>
      <trkpt lat="44.23924" lon="5.07222">
        <ele>204</ele>
        <time>2016-06-30T10:48:55.015Z</time>
      </trkpt>
      <trkpt lat="44.23923" lon="5.07229">
        <ele>204</ele>
        <time>2016-06-30T10:48:56.015Z</time>
      </trkpt>
      <trkpt lat="44.23922" lon="5.07236">
        <ele>204</ele>
        <time>2016-06-30T10:48:57.015Z</time>
      </trkpt>
      <trkpt lat="44.23922" lon="5.07243">
        <ele>204</ele>
        <time>2016-06-30T10:48:58.015Z</time>
      </trkpt>
      <trkpt lat="44.23921" lon="5.07251">
        <ele>204</ele>
        <time>2016-06-30T10:48:59.015Z</time>
      </trkpt>
      <trkpt lat="44.2392" lon="5.07258">
        <ele>204</ele>
        <time>2016-06-30T10:49:00.015Z</time>
      </trkpt>
      <trkpt lat="44.23918" lon="5.07266">
        <ele>204</ele>
        <time>2016-06-30T10:49:01.015Z</time>
      </trkpt>
      <trkpt lat="44.23917" lon="5.07273">
        <ele>204</ele>
        <time>2016-06-30T10:49:02.015Z</time>
      </trkpt>
      <trkpt lat="44.23916" lon="5.0728">
        <ele>204</ele>
        <time>2016-06-30T10:49:03.015Z</time>
      </trkpt>
      <trkpt lat="44.23915" lon="5.07287">
        <ele>204</ele>
        <time>2016-06-30T10:49:04.015Z</time>
      </trkpt>
      <trkpt lat="44.23913" lon="5.07294">
        <ele>205</ele>
        <time>2016-06-30T10:49:05.015Z</time>
      </trkpt>
      <trkpt lat="44.23912" lon="5.07301">
        <ele>205</ele>
        <time>2016-06-30T10:49:06.015Z</time>
      </trkpt>
      <trkpt lat="44.23911" lon="5.07307">
        <ele>205</ele>
        <time>2016-06-30T10:49:07.015Z</time>
      </trkpt>
      <trkpt lat="44.23909" lon="5.07314">
        <ele>205</ele>
        <time>2016-06-30T10:49:08.015Z</time>
      </trkpt>
      <trkpt lat="44.23908" lon="5.07321">
        <ele>205</ele>
        <time>2016-06-30T10:49:09.015Z</time>
      </trkpt>
      <trkpt lat="44.23907" lon="5.07328">
        <ele>205</ele>
        <time>2016-06-30T10:49:10.015Z</time>
      </trkpt>
      <trkpt lat="44.23905" lon="5.07336">
        <ele>205</ele>
        <time>2016-06-30T10:49:11.015Z</time>
      </trkpt>
      <trkpt lat="44.23904" lon="5.07343">
        <ele>205</ele>
        <time>2016-06-30T10:49:12.015Z</time>
      </trkpt>
      <trkpt lat="44.23902" lon="5.0735">
        <ele>205</ele>
        <time>2016-06-30T10:49:13.015Z</time>
      </trkpt>
      <trkpt lat="44.23901" lon="5.07358">
        <ele>205</ele>
        <time>2016-06-30T10:49:14.015Z</time>
      </trkpt>
      <trkpt lat="44.23899" lon="5.07365">
        <ele>205</ele>
        <time>2016-06-30T10:49:15.015Z</time>
      </trkpt>
      <trkpt lat="44.23898" lon="5.07372">
        <ele>205</ele>
        <time>2016-06-30T10:49:16.015Z</time>
      </trkpt>
      <trkpt lat="44.23897" lon="5.07379">
        <ele>206</ele>
        <time>2016-06-30T10:49:17.015Z</time>
      </trkpt>
      <trkpt lat="44.23895" lon="5.07386">
        <ele>206</ele>
        <time>2016-06-30T10:49:18.015Z</time>
      </trkpt>
      <trkpt lat="44.23894" lon="5.07394">
        <ele>206</ele>
        <time>2016-06-30T10:49:19.015Z</time>
      </trkpt>
      <trkpt lat="44.23892" lon="5.07401">
        <ele>206</ele>
        <time>2016-06-30T10:49:20.015Z</time>
      </trkpt>
      <trkpt lat="44.23891" lon="5.07408">
        <ele>206</ele>
        <time>2016-06-30T10:49:21.015Z</time>
      </trkpt>
      <trkpt lat="44.2389" lon="5.07414">
        <ele>206</ele>
        <time>2016-06-30T10:49:22.015Z</time>
      </trkpt>
      <trkpt lat="44.2389" lon="5.07419">
        <ele>206</ele>
        <time>2016-06-30T10:49:23.015Z</time>
      </trkpt>
      <trkpt lat="44.23889" lon="5.07424">
        <ele>206</ele>
        <time>2016-06-30T10:49:24.015Z</time>
      </trkpt>
      <trkpt lat="44.23888" lon="5.07429">
        <ele>206</ele>
        <time>2016-06-30T10:49:25.015Z</time>
      </trkpt>
      <trkpt lat="44.23887" lon="5.07435">
        <ele>206</ele>
        <time>2016-06-30T10:49:26.015Z</time>
      </trkpt>
      <trkpt lat="44.23886" lon="5.0744">
        <ele>206</ele>
        <time>2016-06-30T10:49:27.015Z</time>
      </trkpt>
      <trkpt lat="44.23886" lon="5.07445">
        <ele>205</ele>
        <time>2016-06-30T10:49:28.015Z</time>
      </trkpt>
      <trkpt lat="44.23885" lon="5.0745">
        <ele>205</ele>
        <time>2016-06-30T10:49:29.015Z</time>
      </trkpt>
      <trkpt lat="44.23886" lon="5.07455">
        <ele>205</ele>
        <time>2016-06-30T10:49:30.015Z</time>
      </trkpt>
      <trkpt lat="44.23887" lon="5.07459">
        <ele>206</ele>
        <time>2016-06-30T10:49:31.015Z</time>
      </trkpt>
      <trkpt lat="44.23888" lon="5.07462">
        <ele>207</ele>
        <time>2016-06-30T10:49:32.015Z</time>
      </trkpt>
      <trkpt lat="44.2389" lon="5.07465">
        <ele>207</ele>
        <time>2016-06-30T10:49:33.015Z</time>
      </trkpt>
      <trkpt lat="44.23892" lon="5.07467">
        <ele>207</ele>
        <time>2016-06-30T10:49:34.015Z</time>
      </trkpt>
      <trkpt lat="44.23893" lon="5.07469">
        <ele>207</ele>
        <time>2016-06-30T10:49:35.015Z</time>
      </trkpt>
      <trkpt lat="44.23895" lon="5.07471">
        <ele>207</ele>
        <time>2016-06-30T10:49:36.015Z</time>
      </trkpt>
      <trkpt lat="44.23896" lon="5.07473">
        <ele>207</ele>
        <time>2016-06-30T10:49:37.015Z</time>
      </trkpt>
      <trkpt lat="44.23897" lon="5.07477">
        <ele>207</ele>
        <time>2016-06-30T10:49:38.015Z</time>
      </trkpt>
      <trkpt lat="44.23897" lon="5.0748">
        <ele>207</ele>
        <time>2016-06-30T10:49:39.015Z</time>
      </trkpt>
      <trkpt lat="44.23897" lon="5.07484">
        <ele>206</ele>
        <time>2016-06-30T10:49:40.015Z</time>
      </trkpt>
      <trkpt lat="44.23895" lon="5.07489">
        <ele>206</ele>
        <time>2016-06-30T10:49:41.015Z</time>
      </trkpt>
      <trkpt lat="44.23893" lon="5.07493">
        <ele>206</ele>
        <time>2016-06-30T10:49:42.015Z</time>
      </trkpt>
      <trkpt lat="44.23891" lon="5.07498">
        <ele>206</ele>
        <time>2016-06-30T10:49:43.015Z</time>
      </trkpt>
      <trkpt lat="44.23888" lon="5.07503">
        <ele>206</ele>
        <time>2016-06-30T10:49:44.015Z</time>
      </trkpt>
      <trkpt lat="44.23885" lon="5.07509">
        <ele>205</ele>
        <time>2016-06-30T10:49:45.015Z</time>
      </trkpt>
      <trkpt lat="44.23881" lon="5.07516">
        <ele>205</ele>
        <time>2016-06-30T10:49:46.015Z</time>
      </trkpt>
      <trkpt lat="44.23878" lon="5.07522">
        <ele>204</ele>
        <time>2016-06-30T10:49:47.015Z</time>
      </trkpt>
      <trkpt lat="44.23874" lon="5.07528">
        <ele>204</ele>
        <time>2016-06-30T10:49:48.015Z</time>
      </trkpt>
      <trkpt lat="44.2387" lon="5.07535">
        <ele>204</ele>
        <time>2016-06-30T10:49:49.015Z</time>
      </trkpt>
      <trkpt lat="44.23866" lon="5.07542">
        <ele>204</ele>
        <time>2016-06-30T10:49:50.015Z</time>
      </trkpt>
      <trkpt lat="44.23863" lon="5.07549">
        <ele>203</ele>
        <time>2016-06-30T10:49:51.015Z</time>
      </trkpt>
      <trkpt lat="44.23859" lon="5.07556">
        <ele>203</ele>
        <time>2016-06-30T10:49:52.015Z</time>
      </trkpt>
      <trkpt lat="44.23857" lon="5.07565">
        <ele>203</ele>
        <time>2016-06-30T10:49:53.015Z</time>
      </trkpt>
      <trkpt lat="44.23854" lon="5.07574">
        <ele>202</ele>
        <time>2016-06-30T10:49:54.015Z</time>
      </trkpt>
      <trkpt lat="44.23852" lon="5.07583">
        <ele>202</ele>
        <time>2016-06-30T10:49:55.015Z</time>
      </trkpt>
      <trkpt lat="44.23849" lon="5.07592">
        <ele>202</ele>
        <time>2016-06-30T10:49:56.015Z</time>
      </trkpt>
      <trkpt lat="44.23846" lon="5.07601">
        <ele>202</ele>
        <time>2016-06-30T10:49:57.015Z</time>
      </trkpt>
      <trkpt lat="44.23844" lon="5.07609">
        <ele>202</ele>
        <time>2016-06-30T10:49:58.015Z</time>
      </trkpt>
      <trkpt lat="44.23841" lon="5.07618">
        <ele>202</ele>
        <time>2016-06-30T10:49:59.015Z</time>
      </trkpt>
      <trkpt lat="44.23839" lon="5.07626">
        <ele>202</ele>
        <time>2016-06-30T10:50:00.015Z</time>
      </trkpt>
      <trkpt lat="44.23836" lon="5.07634">
        <ele>202</ele>
        <time>2016-06-30T10:50:01.015Z</time>
      </trkpt>
      <trkpt lat="44.23834" lon="5.07642">
        <ele>202</ele>
        <time>2016-06-30T10:50:02.015Z</time>
      </trkpt>
      <trkpt lat="44.23832" lon="5.07649">
        <ele>202</ele>
        <time>2016-06-30T10:50:03.015Z</time>
      </trkpt>
      <trkpt lat="44.23829" lon="5.07657">
        <ele>203</ele>
        <time>2016-06-30T10:50:04.015Z</time>
      </trkpt>
      <trkpt lat="44.23827" lon="5.07665">
        <ele>203</ele>
        <time>2016-06-30T10:50:05.015Z</time>
      </trkpt>
      <trkpt lat="44.23825" lon="5.07672">
        <ele>203</ele>
        <time>2016-06-30T10:50:06.015Z</time>
      </trkpt>
      <trkpt lat="44.23822" lon="5.07679">
        <ele>203</ele>
        <time>2016-06-30T10:50:07.015Z</time>
      </trkpt>
      <trkpt lat="44.2382" lon="5.07685">
        <ele>204</ele>
        <time>2016-06-30T10:50:08.015Z</time>
      </trkpt>
      <trkpt lat="44.23817" lon="5.07692">
        <ele>204</ele>
        <time>2016-06-30T10:50:09.015Z</time>
      </trkpt>
      <trkpt lat="44.23815" lon="5.07698">
        <ele>204</ele>
        <time>2016-06-30T10:50:10.015Z</time>
      </trkpt>
      <trkpt lat="44.23812" lon="5.07705">
        <ele>204</ele>
        <time>2016-06-30T10:50:11.015Z</time>
      </trkpt>
      <trkpt lat="44.23809" lon="5.07712">
        <ele>204</ele>
        <time>2016-06-30T10:50:12.015Z</time>
      </trkpt>
      <trkpt lat="44.23806" lon="5.07719">
        <ele>204</ele>
        <time>2016-06-30T10:50:13.015Z</time>
      </trkpt>
      <trkpt lat="44.23803" lon="5.07726">
        <ele>204</ele>
        <time>2016-06-30T10:50:14.015Z</time>
      </trkpt>
      <trkpt lat="44.238" lon="5.07732">
        <ele>204</ele>
        <time>2016-06-30T10:50:15.015Z</time>
      </trkpt>
      <trkpt lat="44.23797" lon="5.07739">
        <ele>204</ele>
        <time>2016-06-30T10:50:16.015Z</time>
      </trkpt>
      <trkpt lat="44.23794" lon="5.07746">
        <ele>204</ele>
        <time>2016-06-30T10:50:17.015Z</time>
      </trkpt>
      <trkpt lat="44.23792" lon="5.07753">
        <ele>204</ele>
        <time>2016-06-30T10:50:18.015Z</time>
      </trkpt>
      <trkpt lat="44.23789" lon="5.0776">
        <ele>204</ele>
        <time>2016-06-30T10:50:19.015Z</time>
      </trkpt>
      <trkpt lat="44.23787" lon="5.07766">
        <ele>204</ele>
        <time>2016-06-30T10:50:20.015Z</time>
      </trkpt>
      <trkpt lat="44.23785" lon="5.07773">
        <ele>204</ele>
        <time>2016-06-30T10:50:21.015Z</time>
      </trkpt>
      <trkpt lat="44.23784" lon="5.0778">
        <ele>204</ele>
        <time>2016-06-30T10:50:22.015Z</time>
      </trkpt>
      <trkpt lat="44.23783" lon="5.07788">
        <ele>204</ele>
        <time>2016-06-30T10:50:23.015Z</time>
      </trkpt>
      <trkpt lat="44.23783" lon="5.07797">
        <ele>204</ele>
        <time>2016-06-30T10:50:24.015Z</time>
      </trkpt>
      <trkpt lat="44.23782" lon="5.07805">
        <ele>205</ele>
        <time>2016-06-30T10:50:25.015Z</time>
      </trkpt>
      <trkpt lat="44.23782" lon="5.07813">
        <ele>205</ele>
        <time>2016-06-30T10:50:26.015Z</time>
      </trkpt>
      <trkpt lat="44.23782" lon="5.07821">
        <ele>205</ele>
        <time>2016-06-30T10:50:27.015Z</time>
      </trkpt>
      <trkpt lat="44.23782" lon="5.07829">
        <ele>205</ele>
        <time>2016-06-30T10:50:28.015Z</time>
      </trkpt>
      <trkpt lat="44.23783" lon="5.07838">
        <ele>205</ele>
        <time>2016-06-30T10:50:29.015Z</time>
      </trkpt>
      <trkpt lat="44.23784" lon="5.07846">
        <ele>205</ele>
        <time>2016-06-30T10:50:30.015Z</time>
      </trkpt>
      <trkpt lat="44.23784" lon="5.07854">
        <ele>205</ele>
        <time>2016-06-30T10:50:31.015Z</time>
      </trkpt>
      <trkpt lat="44.23785" lon="5.07862">
        <ele>205</ele>
        <time>2016-06-30T10:50:32.015Z</time>
      </trkpt>
      <trkpt lat="44.23786" lon="5.07871">
        <ele>205</ele>
        <time>2016-06-30T10:50:33.015Z</time>
      </trkpt>
      <trkpt lat="44.23786" lon="5.07879">
        <ele>205</ele>
        <time>2016-06-30T10:50:34.015Z</time>
      </trkpt>
      <trkpt lat="44.23786" lon="5.07887">
        <ele>206</ele>
        <time>2016-06-30T10:50:35.015Z</time>
      </trkpt>
      <trkpt lat="44.23785" lon="5.07895">
        <ele>206</ele>
        <time>2016-06-30T10:50:36.015Z</time>
      </trkpt>
      <trkpt lat="44.23785" lon="5.07903">
        <ele>206</ele>
        <time>2016-06-30T10:50:37.015Z</time>
      </trkpt>
      <trkpt lat="44.23785" lon="5.0791">
        <ele>206</ele>
        <time>2016-06-30T10:50:38.015Z</time>
      </trkpt>
      <trkpt lat="44.23785" lon="5.07918">
        <ele>205</ele>
        <time>2016-06-30T10:50:39.015Z</time>
      </trkpt>
      <trkpt lat="44.23785" lon="5.07926">
        <ele>205</ele>
        <time>2016-06-30T10:50:40.015Z</time>
      </trkpt>
      <trkpt lat="44.23787" lon="5.07934">
        <ele>205</ele>
        <time>2016-06-30T10:50:41.015Z</time>
      </trkpt>
      <trkpt lat="44.23788" lon="5.07941">
        <ele>205</ele>
        <time>2016-06-30T10:50:42.015Z</time>
      </trkpt>
      <trkpt lat="44.23789" lon="5.07949">
        <ele>205</ele>
        <time>2016-06-30T10:50:43.015Z</time>
      </trkpt>
      <trkpt lat="44.23791" lon="5.07956">
        <ele>205</ele>
        <time>2016-06-30T10:50:44.015Z</time>
      </trkpt>
      <trkpt lat="44.23792" lon="5.07964">
        <ele>205</ele>
        <time>2016-06-30T10:50:45.015Z</time>
      </trkpt>
      <trkpt lat="44.23793" lon="5.07971">
        <ele>205</ele>
        <time>2016-06-30T10:50:46.015Z</time>
      </trkpt>
      <trkpt lat="44.23793" lon="5.07978">
        <ele>206</ele>
        <time>2016-06-30T10:50:47.015Z</time>
      </trkpt>
      <trkpt lat="44.23793" lon="5.07984">
        <ele>206</ele>
        <time>2016-06-30T10:50:48.015Z</time>
      </trkpt>
      <trkpt lat="44.23793" lon="5.07991">
        <ele>206</ele>
        <time>2016-06-30T10:50:49.015Z</time>
      </trkpt>
      <trkpt lat="44.23793" lon="5.07997">
        <ele>206</ele>
        <time>2016-06-30T10:50:50.015Z</time>
      </trkpt>
      <trkpt lat="44.23792" lon="5.08004">
        <ele>206</ele>
        <time>2016-06-30T10:50:51.015Z</time>
      </trkpt>
      <trkpt lat="44.2379" lon="5.08012">
        <ele>207</ele>
        <time>2016-06-30T10:50:52.015Z</time>
      </trkpt>
      <trkpt lat="44.23789" lon="5.08019">
        <ele>207</ele>
        <time>2016-06-30T10:50:53.015Z</time>
      </trkpt>
      <trkpt lat="44.23787" lon="5.08026">
        <ele>208</ele>
        <time>2016-06-30T10:50:54.015Z</time>
      </trkpt>
      <trkpt lat="44.23786" lon="5.08034">
        <ele>208</ele>
        <time>2016-06-30T10:50:55.015Z</time>
      </trkpt>
      <trkpt lat="44.23785" lon="5.08041">
        <ele>208</ele>
        <time>2016-06-30T10:50:56.015Z</time>
      </trkpt>
      <trkpt lat="44.23783" lon="5.08049">
        <ele>208</ele>
        <time>2016-06-30T10:50:57.015Z</time>
      </trkpt>
      <trkpt lat="44.23781" lon="5.08056">
        <ele>208</ele>
        <time>2016-06-30T10:50:58.015Z</time>
      </trkpt>
      <trkpt lat="44.23778" lon="5.08063">
        <ele>208</ele>
        <time>2016-06-30T10:50:59.015Z</time>
      </trkpt>
      <trkpt lat="44.23775" lon="5.0807">
        <ele>209</ele>
        <time>2016-06-30T10:51:00.015Z</time>
      </trkpt>
      <trkpt lat="44.23772" lon="5.08076">
        <ele>208</ele>
        <time>2016-06-30T10:51:01.015Z</time>
      </trkpt>
      <trkpt lat="44.23769" lon="5.08083">
        <ele>208</ele>
        <time>2016-06-30T10:51:02.015Z</time>
      </trkpt>
      <trkpt lat="44.23766" lon="5.0809">
        <ele>208</ele>
        <time>2016-06-30T10:51:03.015Z</time>
      </trkpt>
      <trkpt lat="44.23762" lon="5.08096">
        <ele>208</ele>
        <time>2016-06-30T10:51:04.015Z</time>
      </trkpt>
      <trkpt lat="44.23759" lon="5.08102">
        <ele>208</ele>
        <time>2016-06-30T10:51:05.015Z</time>
      </trkpt>
      <trkpt lat="44.23756" lon="5.08107">
        <ele>208</ele>
        <time>2016-06-30T10:51:06.015Z</time>
      </trkpt>
      <trkpt lat="44.23753" lon="5.08111">
        <ele>208</ele>
        <time>2016-06-30T10:51:07.015Z</time>
      </trkpt>
      <trkpt lat="44.23749" lon="5.08116">
        <ele>207</ele>
        <time>2016-06-30T10:51:08.015Z</time>
      </trkpt>
      <trkpt lat="44.23745" lon="5.0812">
        <ele>207</ele>
        <time>2016-06-30T10:51:09.015Z</time>
      </trkpt>
      <trkpt lat="44.23741" lon="5.08125">
        <ele>207</ele>
        <time>2016-06-30T10:51:10.015Z</time>
      </trkpt>
      <trkpt lat="44.23737" lon="5.08131">
        <ele>207</ele>
        <time>2016-06-30T10:51:11.015Z</time>
      </trkpt>
      <trkpt lat="44.23733" lon="5.08136">
        <ele>207</ele>
        <time>2016-06-30T10:51:12.015Z</time>
      </trkpt>
      <trkpt lat="44.23728" lon="5.08142">
        <ele>207</ele>
        <time>2016-06-30T10:51:13.015Z</time>
      </trkpt>
      <trkpt lat="44.23724" lon="5.08147">
        <ele>207</ele>
        <time>2016-06-30T10:51:14.015Z</time>
      </trkpt>
      <trkpt lat="44.2372" lon="5.08152">
        <ele>207</ele>
        <time>2016-06-30T10:51:15.015Z</time>
      </trkpt>
      <trkpt lat="44.23715" lon="5.08157">
        <ele>207</ele>
        <time>2016-06-30T10:51:16.015Z</time>
      </trkpt>
      <trkpt lat="44.23711" lon="5.08163">
        <ele>207</ele>
        <time>2016-06-30T10:51:17.015Z</time>
      </trkpt>
      <trkpt lat="44.23707" lon="5.08168">
        <ele>207</ele>
        <time>2016-06-30T10:51:18.015Z</time>
      </trkpt>
      <trkpt lat="44.23704" lon="5.08174">
        <ele>207</ele>
        <time>2016-06-30T10:51:19.015Z</time>
      </trkpt>
      <trkpt lat="44.237" lon="5.08179">
        <ele>206</ele>
        <time>2016-06-30T10:51:20.015Z</time>
      </trkpt>
      <trkpt lat="44.23697" lon="5.08185">
        <ele>206</ele>
        <time>2016-06-30T10:51:21.015Z</time>
      </trkpt>
      <trkpt lat="44.23694" lon="5.08191">
        <ele>207</ele>
        <time>2016-06-30T10:51:22.015Z</time>
      </trkpt>
      <trkpt lat="44.23692" lon="5.08197">
        <ele>206</ele>
        <time>2016-06-30T10:51:23.015Z</time>
      </trkpt>
      <trkpt lat="44.2369" lon="5.08204">
        <ele>206</ele>
        <time>2016-06-30T10:51:24.015Z</time>
      </trkpt>
      <trkpt lat="44.23688" lon="5.08211">
        <ele>207</ele>
        <time>2016-06-30T10:51:25.015Z</time>
      </trkpt>
      <trkpt lat="44.23687" lon="5.08218">
        <ele>207</ele>
        <time>2016-06-30T10:51:26.015Z</time>
      </trkpt>
      <trkpt lat="44.23687" lon="5.08226">
        <ele>208</ele>
        <time>2016-06-30T10:51:27.015Z</time>
      </trkpt>
      <trkpt lat="44.23687" lon="5.08234">
        <ele>208</ele>
        <time>2016-06-30T10:51:28.015Z</time>
      </trkpt>
      <trkpt lat="44.23687" lon="5.08242">
        <ele>208</ele>
        <time>2016-06-30T10:51:29.015Z</time>
      </trkpt>
      <trkpt lat="44.23687" lon="5.08249">
        <ele>208</ele>
        <time>2016-06-30T10:51:30.015Z</time>
      </trkpt>
      <trkpt lat="44.23688" lon="5.08257">
        <ele>208</ele>
        <time>2016-06-30T10:51:31.015Z</time>
      </trkpt>
      <trkpt lat="44.23688" lon="5.08264">
        <ele>208</ele>
        <time>2016-06-30T10:51:32.015Z</time>
      </trkpt>
      <trkpt lat="44.2369" lon="5.08271">
        <ele>208</ele>
        <time>2016-06-30T10:51:33.015Z</time>
      </trkpt>
      <trkpt lat="44.23691" lon="5.08278">
        <ele>208</ele>
        <time>2016-06-30T10:51:34.015Z</time>
      </trkpt>
      <trkpt lat="44.23692" lon="5.08285">
        <ele>208</ele>
        <time>2016-06-30T10:51:35.015Z</time>
      </trkpt>
      <trkpt lat="44.23694" lon="5.08292">
        <ele>208</ele>
        <time>2016-06-30T10:51:36.015Z</time>
      </trkpt>
      <trkpt lat="44.23695" lon="5.083">
        <ele>208</ele>
        <time>2016-06-30T10:51:37.015Z</time>
      </trkpt>
      <trkpt lat="44.23696" lon="5.08307">
        <ele>208</ele>
        <time>2016-06-30T10:51:38.015Z</time>
      </trkpt>
      <trkpt lat="44.23697" lon="5.08315">
        <ele>208</ele>
        <time>2016-06-30T10:51:39.015Z</time>
      </trkpt>
      <trkpt lat="44.23698" lon="5.08322">
        <ele>208</ele>
        <time>2016-06-30T10:51:40.015Z</time>
      </trkpt>
      <trkpt lat="44.23697" lon="5.08328">
        <ele>208</ele>
        <time>2016-06-30T10:51:41.015Z</time>
      </trkpt>
      <trkpt lat="44.23695" lon="5.08335">
        <ele>209</ele>
        <time>2016-06-30T10:51:42.015Z</time>
      </trkpt>
      <trkpt lat="44.23692" lon="5.08342">
        <ele>209</ele>
        <time>2016-06-30T10:51:43.015Z</time>
      </trkpt>
      <trkpt lat="44.23689" lon="5.08349">
        <ele>209</ele>
        <time>2016-06-30T10:51:44.015Z</time>
      </trkpt>
      <trkpt lat="44.23686" lon="5.08355">
        <ele>209</ele>
        <time>2016-06-30T10:51:45.015Z</time>
      </trkpt>
      <trkpt lat="44.23683" lon="5.08362">
        <ele>209</ele>
        <time>2016-06-30T10:51:46.015Z</time>
      </trkpt>
      <trkpt lat="44.2368" lon="5.08369">
        <ele>209</ele>
        <time>2016-06-30T10:51:47.015Z</time>
      </trkpt>
      <trkpt lat="44.23678" lon="5.08377">
        <ele>209</ele>
        <time>2016-06-30T10:51:48.015Z</time>
      </trkpt>
      <trkpt lat="44.23678" lon="5.08386">
        <ele>208</ele>
        <time>2016-06-30T10:51:49.015Z</time>
      </trkpt>
      <trkpt lat="44.23677" lon="5.08394">
        <ele>208</ele>
        <time>2016-06-30T10:51:50.015Z</time>
      </trkpt>
      <trkpt lat="44.23678" lon="5.08403">
        <ele>208</ele>
        <time>2016-06-30T10:51:51.015Z</time>
      </trkpt>
      <trkpt lat="44.23678" lon="5.08412">
        <ele>208</ele>
        <time>2016-06-30T10:51:52.015Z</time>
      </trkpt>
      <trkpt lat="44.23679" lon="5.08421">
        <ele>208</ele>
        <time>2016-06-30T10:51:53.015Z</time>
      </trkpt>
      <trkpt lat="44.23679" lon="5.0843">
        <ele>208</ele>
        <time>2016-06-30T10:51:54.015Z</time>
      </trkpt>
      <trkpt lat="44.23679" lon="5.08438">
        <ele>209</ele>
        <time>2016-06-30T10:51:55.015Z</time>
      </trkpt>
      <trkpt lat="44.23678" lon="5.08447">
        <ele>209</ele>
        <time>2016-06-30T10:51:56.015Z</time>
      </trkpt>
      <trkpt lat="44.23677" lon="5.08454">
        <ele>209</ele>
        <time>2016-06-30T10:51:57.015Z</time>
      </trkpt>
      <trkpt lat="44.23676" lon="5.08462">
        <ele>210</ele>
        <time>2016-06-30T10:51:58.015Z</time>
      </trkpt>
      <trkpt lat="44.23674" lon="5.08468">
        <ele>210</ele>
        <time>2016-06-30T10:51:59.015Z</time>
      </trkpt>
      <trkpt lat="44.23671" lon="5.08474">
        <ele>210</ele>
        <time>2016-06-30T10:52:00.015Z</time>
      </trkpt>
      <trkpt lat="44.23668" lon="5.0848">
        <ele>210</ele>
        <time>2016-06-30T10:52:01.015Z</time>
      </trkpt>
      <trkpt lat="44.23665" lon="5.08486">
        <ele>211</ele>
        <time>2016-06-30T10:52:02.015Z</time>
      </trkpt>
      <trkpt lat="44.23662" lon="5.08492">
        <ele>211</ele>
        <time>2016-06-30T10:52:03.015Z</time>
      </trkpt>
      <trkpt lat="44.23658" lon="5.08498">
        <ele>211</ele>
        <time>2016-06-30T10:52:04.015Z</time>
      </trkpt>
      <trkpt lat="44.23654" lon="5.08504">
        <ele>211</ele>
        <time>2016-06-30T10:52:05.015Z</time>
      </trkpt>
      <trkpt lat="44.2365" lon="5.0851">
        <ele>211</ele>
        <time>2016-06-30T10:52:06.015Z</time>
      </trkpt>
      <trkpt lat="44.23647" lon="5.08516">
        <ele>211</ele>
        <time>2016-06-30T10:52:07.015Z</time>
      </trkpt>
      <trkpt lat="44.23643" lon="5.08522">
        <ele>211</ele>
        <time>2016-06-30T10:52:08.015Z</time>
      </trkpt>
      <trkpt lat="44.2364" lon="5.08528">
        <ele>211</ele>
        <time>2016-06-30T10:52:09.015Z</time>
      </trkpt>
      <trkpt lat="44.23636" lon="5.08533">
        <ele>212</ele>
        <time>2016-06-30T10:52:10.015Z</time>
      </trkpt>
      <trkpt lat="44.23633" lon="5.08539">
        <ele>212</ele>
        <time>2016-06-30T10:52:11.015Z</time>
      </trkpt>
      <trkpt lat="44.23629" lon="5.08544">
        <ele>212</ele>
        <time>2016-06-30T10:52:12.015Z</time>
      </trkpt>
      <trkpt lat="44.23626" lon="5.08549">
        <ele>212</ele>
        <time>2016-06-30T10:52:13.015Z</time>
      </trkpt>
      <trkpt lat="44.23623" lon="5.08555">
        <ele>212</ele>
        <time>2016-06-30T10:52:14.015Z</time>
      </trkpt>
      <trkpt lat="44.2362" lon="5.08561">
        <ele>213</ele>
        <time>2016-06-30T10:52:15.015Z</time>
      </trkpt>
      <trkpt lat="44.23616" lon="5.08567">
        <ele>213</ele>
        <time>2016-06-30T10:52:16.015Z</time>
      </trkpt>
      <trkpt lat="44.23613" lon="5.08572">
        <ele>213</ele>
        <time>2016-06-30T10:52:17.015Z</time>
      </trkpt>
      <trkpt lat="44.2361" lon="5.08578">
        <ele>214</ele>
        <time>2016-06-30T10:52:18.015Z</time>
      </trkpt>
      <trkpt lat="44.23607" lon="5.08583">
        <ele>214</ele>
        <time>2016-06-30T10:52:19.015Z</time>
      </trkpt>
      <trkpt lat="44.23605" lon="5.08588">
        <ele>214</ele>
        <time>2016-06-30T10:52:20.015Z</time>
      </trkpt>
      <trkpt lat="44.23602" lon="5.08594">
        <ele>213</ele>
        <time>2016-06-30T10:52:21.015Z</time>
      </trkpt>
      <trkpt lat="44.236" lon="5.086">
        <ele>214</ele>
        <time>2016-06-30T10:52:22.015Z</time>
      </trkpt>
      <trkpt lat="44.23597" lon="5.08607">
        <ele>213</ele>
        <time>2016-06-30T10:52:23.015Z</time>
      </trkpt>
      <trkpt lat="44.23595" lon="5.08614">
        <ele>213</ele>
        <time>2016-06-30T10:52:24.015Z</time>
      </trkpt>
      <trkpt lat="44.23592" lon="5.0862">
        <ele>213</ele>
        <time>2016-06-30T10:52:25.015Z</time>
      </trkpt>
      <trkpt lat="44.2359" lon="5.08627">
        <ele>213</ele>
        <time>2016-06-30T10:52:26.015Z</time>
      </trkpt>
      <trkpt lat="44.23587" lon="5.08633">
        <ele>213</ele>
        <time>2016-06-30T10:52:27.015Z</time>
      </trkpt>
      <trkpt lat="44.23585" lon="5.0864">
        <ele>212</ele>
        <time>2016-06-30T10:52:28.015Z</time>
      </trkpt>
      <trkpt lat="44.23583" lon="5.08646">
        <ele>212</ele>
        <time>2016-06-30T10:52:29.015Z</time>
      </trkpt>
      <trkpt lat="44.23581" lon="5.08652">
        <ele>212</ele>
        <time>2016-06-30T10:52:30.015Z</time>
      </trkpt>
      <trkpt lat="44.23579" lon="5.08657">
        <ele>212</ele>
        <time>2016-06-30T10:52:31.015Z</time>
      </trkpt>
      <trkpt lat="44.23576" lon="5.08663">
        <ele>212</ele>
        <time>2016-06-30T10:52:32.015Z</time>
      </trkpt>
      <trkpt lat="44.23573" lon="5.08667">
        <ele>212</ele>
        <time>2016-06-30T10:52:33.015Z</time>
      </trkpt>
      <trkpt lat="44.23569" lon="5.08672">
        <ele>211</ele>
        <time>2016-06-30T10:52:34.015Z</time>
      </trkpt>
      <trkpt lat="44.23564" lon="5.08676">
        <ele>211</ele>
        <time>2016-06-30T10:52:35.015Z</time>
      </trkpt>
      <trkpt lat="44.2356" lon="5.0868">
        <ele>211</ele>
        <time>2016-06-30T10:52:36.015Z</time>
      </trkpt>
      <trkpt lat="44.23555" lon="5.08683">
        <ele>211</ele>
        <time>2016-06-30T10:52:37.015Z</time>
      </trkpt>
      <trkpt lat="44.23551" lon="5.08688">
        <ele>211</ele>
        <time>2016-06-30T10:52:38.015Z</time>
      </trkpt>
      <trkpt lat="44.23546" lon="5.08692">
        <ele>211</ele>
        <time>2016-06-30T10:52:39.015Z</time>
      </trkpt>
      <trkpt lat="44.23542" lon="5.08697">
        <ele>211</ele>
        <time>2016-06-30T10:52:40.015Z</time>
      </trkpt>
      <trkpt lat="44.23537" lon="5.08701">
        <ele>211</ele>
        <time>2016-06-30T10:52:41.015Z</time>
      </trkpt>
      <trkpt lat="44.23532" lon="5.08706">
        <ele>211</ele>
        <time>2016-06-30T10:52:42.015Z</time>
      </trkpt>
      <trkpt lat="44.23527" lon="5.08711">
        <ele>211</ele>
        <time>2016-06-30T10:52:43.015Z</time>
      </trkpt>
      <trkpt lat="44.23522" lon="5.08716">
        <ele>211</ele>
        <time>2016-06-30T10:52:44.015Z</time>
      </trkpt>
      <trkpt lat="44.23518" lon="5.08721">
        <ele>211</ele>
        <time>2016-06-30T10:52:45.015Z</time>
      </trkpt>
      <trkpt lat="44.23513" lon="5.08726">
        <ele>211</ele>
        <time>2016-06-30T10:52:46.015Z</time>
      </trkpt>
      <trkpt lat="44.23509" lon="5.08731">
        <ele>211</ele>
        <time>2016-06-30T10:52:47.015Z</time>
      </trkpt>
      <trkpt lat="44.23504" lon="5.08736">
        <ele>210</ele>
        <time>2016-06-30T10:52:48.015Z</time>
      </trkpt>
      <trkpt lat="44.235" lon="5.08741">
        <ele>210</ele>
        <time>2016-06-30T10:52:49.015Z</time>
      </trkpt>
      <trkpt lat="44.23495" lon="5.08746">
        <ele>210</ele>
        <time>2016-06-30T10:52:50.015Z</time>
      </trkpt>
      <trkpt lat="44.2349" lon="5.08751">
        <ele>210</ele>
        <time>2016-06-30T10:52:51.015Z</time>
      </trkpt>
      <trkpt lat="44.23485" lon="5.08756">
        <ele>210</ele>
        <time>2016-06-30T10:52:52.015Z</time>
      </trkpt>
      <trkpt lat="44.23481" lon="5.08761">
        <ele>210</ele>
        <time>2016-06-30T10:52:53.015Z</time>
      </trkpt>
      <trkpt lat="44.23476" lon="5.08766">
        <ele>210</ele>
        <time>2016-06-30T10:52:54.015Z</time>
      </trkpt>
      <trkpt lat="44.23471" lon="5.08771">
        <ele>210</ele>
        <time>2016-06-30T10:52:55.015Z</time>
      </trkpt>
      <trkpt lat="44.23466" lon="5.08776">
        <ele>210</ele>
        <time>2016-06-30T10:52:56.015Z</time>
      </trkpt>
      <trkpt lat="44.23461" lon="5.08781">
        <ele>210</ele>
        <time>2016-06-30T10:52:57.015Z</time>
      </trkpt>
      <trkpt lat="44.23457" lon="5.08786">
        <ele>210</ele>
        <time>2016-06-30T10:52:58.015Z</time>
      </trkpt>
      <trkpt lat="44.23452" lon="5.08791">
        <ele>210</ele>
        <time>2016-06-30T10:52:59.015Z</time>
      </trkpt>
      <trkpt lat="44.23447" lon="5.08796">
        <ele>210</ele>
        <time>2016-06-30T10:53:00.015Z</time>
      </trkpt>
      <trkpt lat="44.23442" lon="5.08801">
        <ele>210</ele>
        <time>2016-06-30T10:53:01.015Z</time>
      </trkpt>
      <trkpt lat="44.23438" lon="5.08806">
        <ele>210</ele>
        <time>2016-06-30T10:53:02.015Z</time>
      </trkpt>
      <trkpt lat="44.23433" lon="5.08811">
        <ele>210</ele>
        <time>2016-06-30T10:53:03.015Z</time>
      </trkpt>
      <trkpt lat="44.23429" lon="5.08816">
        <ele>210</ele>
        <time>2016-06-30T10:53:04.015Z</time>
      </trkpt>
      <trkpt lat="44.23425" lon="5.0882">
        <ele>210</ele>
        <time>2016-06-30T10:53:05.015Z</time>
      </trkpt>
      <trkpt lat="44.23421" lon="5.08825">
        <ele>210</ele>
        <time>2016-06-30T10:53:06.015Z</time>
      </trkpt>
      <trkpt lat="44.23417" lon="5.08829">
        <ele>210</ele>
        <time>2016-06-30T10:53:07.015Z</time>
      </trkpt>
      <trkpt lat="44.23413" lon="5.08834">
        <ele>210</ele>
        <time>2016-06-30T10:53:08.015Z</time>
      </trkpt>
      <trkpt lat="44.23409" lon="5.08838">
        <ele>210</ele>
        <time>2016-06-30T10:53:09.015Z</time>
      </trkpt>
      <trkpt lat="44.23406" lon="5.08842">
        <ele>210</ele>
        <time>2016-06-30T10:53:10.015Z</time>
      </trkpt>
      <trkpt lat="44.23403" lon="5.08847">
        <ele>210</ele>
        <time>2016-06-30T10:53:11.015Z</time>
      </trkpt>
      <trkpt lat="44.23399" lon="5.08852">
        <ele>210</ele>
        <time>2016-06-30T10:53:12.015Z</time>
      </trkpt>
      <trkpt lat="44.23395" lon="5.08857">
        <ele>210</ele>
        <time>2016-06-30T10:53:13.015Z</time>
      </trkpt>
      <trkpt lat="44.23391" lon="5.08861">
        <ele>210</ele>
        <time>2016-06-30T10:53:14.015Z</time>
      </trkpt>
      <trkpt lat="44.23387" lon="5.08866">
        <ele>210</ele>
        <time>2016-06-30T10:53:15.015Z</time>
      </trkpt>
      <trkpt lat="44.23384" lon="5.08871">
        <ele>210</ele>
        <time>2016-06-30T10:53:16.015Z</time>
      </trkpt>
      <trkpt lat="44.2338" lon="5.08876">
        <ele>210</ele>
        <time>2016-06-30T10:53:17.015Z</time>
      </trkpt>
      <trkpt lat="44.23376" lon="5.08881">
        <ele>210</ele>
        <time>2016-06-30T10:53:18.015Z</time>
      </trkpt>
      <trkpt lat="44.23372" lon="5.08886">
        <ele>210</ele>
        <time>2016-06-30T10:53:19.015Z</time>
      </trkpt>
      <trkpt lat="44.23368" lon="5.0889">
        <ele>210</ele>
        <time>2016-06-30T10:53:20.015Z</time>
      </trkpt>
      <trkpt lat="44.23364" lon="5.08894">
        <ele>210</ele>
        <time>2016-06-30T10:53:21.015Z</time>
      </trkpt>
      <trkpt lat="44.2336" lon="5.08898">
        <ele>210</ele>
        <time>2016-06-30T10:53:22.015Z</time>
      </trkpt>
      <trkpt lat="44.23356" lon="5.08902">
        <ele>210</ele>
        <time>2016-06-30T10:53:23.015Z</time>
      </trkpt>
      <trkpt lat="44.23352" lon="5.08906">
        <ele>210</ele>
        <time>2016-06-30T10:53:24.015Z</time>
      </trkpt>
      <trkpt lat="44.23349" lon="5.0891">
        <ele>210</ele>
        <time>2016-06-30T10:53:25.015Z</time>
      </trkpt>
      <trkpt lat="44.23346" lon="5.08915">
        <ele>210</ele>
        <time>2016-06-30T10:53:26.015Z</time>
      </trkpt>
      <trkpt lat="44.23343" lon="5.0892">
        <ele>209</ele>
        <time>2016-06-30T10:53:27.015Z</time>
      </trkpt>
      <trkpt lat="44.23342" lon="5.08926">
        <ele>209</ele>
        <time>2016-06-30T10:53:28.015Z</time>
      </trkpt>
      <trkpt lat="44.23343" lon="5.08932">
        <ele>210</ele>
        <time>2016-06-30T10:53:29.015Z</time>
      </trkpt>
      <trkpt lat="44.23345" lon="5.08937">
        <ele>210</ele>
        <time>2016-06-30T10:53:30.015Z</time>
      </trkpt>
      <trkpt lat="44.23348" lon="5.08942">
        <ele>209</ele>
        <time>2016-06-30T10:53:31.015Z</time>
      </trkpt>
      <trkpt lat="44.23353" lon="5.08945">
        <ele>208</ele>
        <time>2016-06-30T10:53:32.015Z</time>
      </trkpt>
      <trkpt lat="44.23358" lon="5.08945">
        <ele>209</ele>
        <time>2016-06-30T10:53:33.015Z</time>
      </trkpt>
      <trkpt lat="44.23363" lon="5.08943">
        <ele>211</ele>
        <time>2016-06-30T10:53:34.015Z</time>
      </trkpt>
      <trkpt lat="44.23367" lon="5.08939">
        <ele>211</ele>
        <time>2016-06-30T10:53:35.015Z</time>
      </trkpt>
      <trkpt lat="44.2337" lon="5.08935">
        <ele>211</ele>
        <time>2016-06-30T10:53:36.015Z</time>
      </trkpt>
      <trkpt lat="44.23374" lon="5.08931">
        <ele>212</ele>
        <time>2016-06-30T10:53:37.015Z</time>
      </trkpt>
      <trkpt lat="44.23378" lon="5.08927">
        <ele>212</ele>
        <time>2016-06-30T10:53:38.015Z</time>
      </trkpt>
      <trkpt lat="44.23382" lon="5.08923">
        <ele>212</ele>
        <time>2016-06-30T10:53:39.015Z</time>
      </trkpt>
      <trkpt lat="44.23386" lon="5.08919">
        <ele>212</ele>
        <time>2016-06-30T10:53:40.015Z</time>
      </trkpt>
      <trkpt lat="44.2339" lon="5.08916">
        <ele>212</ele>
        <time>2016-06-30T10:53:41.015Z</time>
      </trkpt>
      <trkpt lat="44.23394" lon="5.08914">
        <ele>213</ele>
        <time>2016-06-30T10:53:42.015Z</time>
      </trkpt>
      <trkpt lat="44.23399" lon="5.08913">
        <ele>214</ele>
        <time>2016-06-30T10:53:43.015Z</time>
      </trkpt>
      <trkpt lat="44.23403" lon="5.08914">
        <ele>215</ele>
        <time>2016-06-30T10:53:44.015Z</time>
      </trkpt>
      <trkpt lat="44.23407" lon="5.08915">
        <ele>215</ele>
        <time>2016-06-30T10:53:45.015Z</time>
      </trkpt>
      <trkpt lat="44.23411" lon="5.08917">
        <ele>215</ele>
        <time>2016-06-30T10:53:46.015Z</time>
      </trkpt>
      <trkpt lat="44.23414" lon="5.0892">
        <ele>215</ele>
        <time>2016-06-30T10:53:47.015Z</time>
      </trkpt>
      <trkpt lat="44.23416" lon="5.08924">
        <ele>215</ele>
        <time>2016-06-30T10:53:48.015Z</time>
      </trkpt>
      <trkpt lat="44.23419" lon="5.08928">
        <ele>216</ele>
        <time>2016-06-30T10:53:49.015Z</time>
      </trkpt>
      <trkpt lat="44.23421" lon="5.08932">
        <ele>216</ele>
        <time>2016-06-30T10:53:50.015Z</time>
      </trkpt>
      <trkpt lat="44.23423" lon="5.08936">
        <ele>216</ele>
        <time>2016-06-30T10:53:51.015Z</time>
      </trkpt>
      <trkpt lat="44.23425" lon="5.0894">
        <ele>216</ele>
        <time>2016-06-30T10:53:52.015Z</time>
      </trkpt>
      <trkpt lat="44.23427" lon="5.08944">
        <ele>217</ele>
        <time>2016-06-30T10:53:53.015Z</time>
      </trkpt>
      <trkpt lat="44.23429" lon="5.08949">
        <ele>217</ele>
        <time>2016-06-30T10:53:54.015Z</time>
      </trkpt>
      <trkpt lat="44.2343" lon="5.08953">
        <ele>217</ele>
        <time>2016-06-30T10:53:55.015Z</time>
      </trkpt>
      <trkpt lat="44.2343" lon="5.08957">
        <ele>217</ele>
        <time>2016-06-30T10:53:56.015Z</time>
      </trkpt>
      <trkpt lat="44.2343" lon="5.0896">
        <ele>217</ele>
        <time>2016-06-30T10:53:57.015Z</time>
      </trkpt>
      <trkpt lat="44.23431" lon="5.08963">
        <ele>217</ele>
        <time>2016-06-30T10:53:58.015Z</time>
      </trkpt>
      <trkpt lat="44.23431" lon="5.08965">
        <ele>217</ele>
        <time>2016-06-30T10:53:59.015Z</time>
      </trkpt>
      <trkpt lat="44.23431" lon="5.08967">
        <ele>218</ele>
        <time>2016-06-30T10:54:00.015Z</time>
      </trkpt>
      <trkpt lat="44.23431" lon="5.08968">
        <ele>218</ele>
        <time>2016-06-30T10:54:01.015Z</time>
      </trkpt>
      <trkpt lat="44.23431" lon="5.08968">
        <ele>218</ele>
        <time>2016-06-30T10:54:02.015Z</time>
      </trkpt>
      <trkpt lat="44.23431" lon="5.08968">
        <ele>218</ele>
        <time>2016-06-30T10:54:03.015Z</time>
      </trkpt>
      <trkpt lat="44.23431" lon="5.08968">
        <ele>218</ele>
        <time>2016-06-30T10:54:04.015Z</time>
      </trkpt>
      <trkpt lat="44.23431" lon="5.08969">
        <ele>218</ele>
        <time>2016-06-30T10:54:05.015Z</time>
      </trkpt>
      <trkpt lat="44.23432" lon="5.08969">
        <ele>218</ele>
        <time>2016-06-30T10:54:06.015Z</time>
      </trkpt>
      <trkpt lat="44.23432" lon="5.0897">
        <ele>218</ele>
        <time>2016-06-30T10:54:07.015Z</time>
      </trkpt>
      <trkpt lat="44.23432" lon="5.08971">
        <ele>218</ele>
        <time>2016-06-30T10:54:08.015Z</time>
      </trkpt>
      <trkpt lat="44.23433" lon="5.08971">
        <ele>218</ele>
        <time>2016-06-30T10:54:09.015Z</time>
      </trkpt>
      <trkpt lat="44.23433" lon="5.08971">
        <ele>218</ele>
        <time>2016-06-30T10:54:10.015Z</time>
      </trkpt>
      <trkpt lat="44.23433" lon="5.08971">
        <ele>218</ele>
        <time>2016-06-30T10:54:11.015Z</time>
      </trkpt>
      <trkpt lat="44.23433" lon="5.08971">
        <ele>218</ele>
        <time>2016-06-30T10:54:12.015Z</time>
      </trkpt>
      <trkpt lat="44.23433" lon="5.08971">
        <ele>218</ele>
        <time>2016-06-30T10:54:13.015Z</time>
      </trkpt>
      <trkpt lat="44.23433" lon="5.08972">
        <ele>218</ele>
        <time>2016-06-30T10:54:14.015Z</time>
      </trkpt>
      <trkpt lat="44.23434" lon="5.08972">
        <ele>219</ele>
        <time>2016-06-30T10:54:15.015Z</time>
      </trkpt>
      <trkpt lat="44.23434" lon="5.08973">
        <ele>219</ele>
        <time>2016-06-30T10:54:16.015Z</time>
      </trkpt>
      <trkpt lat="44.23434" lon="5.08973">
        <ele>219</ele>
        <time>2016-06-30T10:54:17.015Z</time>
      </trkpt>
      <trkpt lat="44.23435" lon="5.08974">
        <ele>219</ele>
        <time>2016-06-30T10:54:18.015Z</time>
      </trkpt>
      <trkpt lat="44.23435" lon="5.08974">
        <ele>219</ele>
        <time>2016-06-30T10:54:19.015Z</time>
      </trkpt>
      <trkpt lat="44.23436" lon="5.08976">
        <ele>219</ele>
        <time>2016-06-30T10:54:20.015Z</time>
      </trkpt>
      <trkpt lat="44.23438" lon="5.08978">
        <ele>219</ele>
        <time>2016-06-30T10:54:21.015Z</time>
      </trkpt>
      <trkpt lat="44.23439" lon="5.08983">
        <ele>219</ele>
        <time>2016-06-30T10:54:22.015Z</time>
      </trkpt>
      <trkpt lat="44.2344" lon="5.08988">
        <ele>219</ele>
        <time>2016-06-30T10:54:23.015Z</time>
      </trkpt>
      <trkpt lat="44.23439" lon="5.08994">
        <ele>220</ele>
        <time>2016-06-30T10:54:24.015Z</time>
      </trkpt>
      <trkpt lat="44.23438" lon="5.09">
        <ele>221</ele>
        <time>2016-06-30T10:54:25.015Z</time>
      </trkpt>
      <trkpt lat="44.23437" lon="5.09006">
        <ele>221</ele>
        <time>2016-06-30T10:54:26.015Z</time>
      </trkpt>
      <trkpt lat="44.23436" lon="5.09013">
        <ele>221</ele>
        <time>2016-06-30T10:54:27.015Z</time>
      </trkpt>
      <trkpt lat="44.23437" lon="5.09018">
        <ele>222</ele>
        <time>2016-06-30T10:54:28.015Z</time>
      </trkpt>
      <trkpt lat="44.2344" lon="5.09023">
        <ele>222</ele>
        <time>2016-06-30T10:54:29.015Z</time>
      </trkpt>
      <trkpt lat="44.23444" lon="5.09026">
        <ele>223</ele>
        <time>2016-06-30T10:54:30.015Z</time>
      </trkpt>
      <trkpt lat="44.23447" lon="5.0903">
        <ele>224</ele>
        <time>2016-06-30T10:54:31.015Z</time>
      </trkpt>
      <trkpt lat="44.23449" lon="5.09034">
        <ele>224</ele>
        <time>2016-06-30T10:54:32.015Z</time>
      </trkpt>
      <trkpt lat="44.2345" lon="5.0904">
        <ele>225</ele>
        <time>2016-06-30T10:54:33.015Z</time>
      </trkpt>
      <trkpt lat="44.2345" lon="5.09046">
        <ele>226</ele>
        <time>2016-06-30T10:54:34.015Z</time>
      </trkpt>
      <trkpt lat="44.2345" lon="5.09052">
        <ele>227</ele>
        <time>2016-06-30T10:54:35.015Z</time>
      </trkpt>
      <trkpt lat="44.23449" lon="5.09057">
        <ele>227</ele>
        <time>2016-06-30T10:54:36.015Z</time>
      </trkpt>
      <trkpt lat="44.23449" lon="5.09063">
        <ele>228</ele>
        <time>2016-06-30T10:54:37.015Z</time>
      </trkpt>
      <trkpt lat="44.2345" lon="5.09069">
        <ele>229</ele>
        <time>2016-06-30T10:54:38.015Z</time>
      </trkpt>
      <trkpt lat="44.23451" lon="5.09074">
        <ele>229</ele>
        <time>2016-06-30T10:54:39.015Z</time>
      </trkpt>
      <trkpt lat="44.23453" lon="5.09078">
        <ele>229</ele>
        <time>2016-06-30T10:54:40.015Z</time>
      </trkpt>
      <trkpt lat="44.23457" lon="5.0908">
        <ele>228</ele>
        <time>2016-06-30T10:54:41.015Z</time>
      </trkpt>
      <trkpt lat="44.23462" lon="5.09081">
        <ele>228</ele>
        <time>2016-06-30T10:54:42.015Z</time>
      </trkpt>
      <trkpt lat="44.23468" lon="5.09082">
        <ele>227</ele>
        <time>2016-06-30T10:54:43.015Z</time>
      </trkpt>
      <trkpt lat="44.23473" lon="5.09081">
        <ele>226</ele>
        <time>2016-06-30T10:54:44.015Z</time>
      </trkpt>
      <trkpt lat="44.23479" lon="5.09079">
        <ele>227</ele>
        <time>2016-06-30T10:54:45.015Z</time>
      </trkpt>
      <trkpt lat="44.23484" lon="5.09076">
        <ele>227</ele>
        <time>2016-06-30T10:54:46.015Z</time>
      </trkpt>
      <trkpt lat="44.23488" lon="5.09073">
        <ele>227</ele>
        <time>2016-06-30T10:54:47.015Z</time>
      </trkpt>
      <trkpt lat="44.23492" lon="5.0907">
        <ele>227</ele>
        <time>2016-06-30T10:54:48.015Z</time>
      </trkpt>
      <trkpt lat="44.23496" lon="5.09067">
        <ele>226</ele>
        <time>2016-06-30T10:54:49.015Z</time>
      </trkpt>
      <trkpt lat="44.235" lon="5.09064">
        <ele>226</ele>
        <time>2016-06-30T10:54:50.015Z</time>
      </trkpt>
      <trkpt lat="44.23503" lon="5.0906">
        <ele>226</ele>
        <time>2016-06-30T10:54:51.015Z</time>
      </trkpt>
      <trkpt lat="44.23505" lon="5.09056">
        <ele>226</ele>
        <time>2016-06-30T10:54:52.015Z</time>
      </trkpt>
      <trkpt lat="44.23507" lon="5.09051">
        <ele>227</ele>
        <time>2016-06-30T10:54:53.015Z</time>
      </trkpt>
      <trkpt lat="44.23508" lon="5.09046">
        <ele>227</ele>
        <time>2016-06-30T10:54:54.015Z</time>
      </trkpt>
      <trkpt lat="44.23509" lon="5.09041">
        <ele>227</ele>
        <time>2016-06-30T10:54:55.015Z</time>
      </trkpt>
      <trkpt lat="44.23509" lon="5.09036">
        <ele>227</ele>
        <time>2016-06-30T10:54:56.015Z</time>
      </trkpt>
      <trkpt lat="44.23508" lon="5.09032">
        <ele>228</ele>
        <time>2016-06-30T10:54:57.015Z</time>
      </trkpt>
      <trkpt lat="44.23506" lon="5.09027">
        <ele>228</ele>
        <time>2016-06-30T10:54:58.015Z</time>
      </trkpt>
      <trkpt lat="44.23505" lon="5.09022">
        <ele>228</ele>
        <time>2016-06-30T10:54:59.015Z</time>
      </trkpt>
      <trkpt lat="44.23504" lon="5.09017">
        <ele>227</ele>
        <time>2016-06-30T10:55:00.015Z</time>
      </trkpt>
      <trkpt lat="44.23504" lon="5.09012">
        <ele>227</ele>
        <time>2016-06-30T10:55:01.015Z</time>
      </trkpt>
      <trkpt lat="44.23505" lon="5.09006">
        <ele>227</ele>
        <time>2016-06-30T10:55:02.015Z</time>
      </trkpt>
      <trkpt lat="44.23507" lon="5.09002">
        <ele>227</ele>
        <time>2016-06-30T10:55:03.015Z</time>
      </trkpt>
      <trkpt lat="44.2351" lon="5.08997">
        <ele>227</ele>
        <time>2016-06-30T10:55:04.015Z</time>
      </trkpt>
      <trkpt lat="44.23513" lon="5.08994">
        <ele>227</ele>
        <time>2016-06-30T10:55:05.015Z</time>
      </trkpt>
      <trkpt lat="44.23517" lon="5.08991">
        <ele>227</ele>
        <time>2016-06-30T10:55:06.015Z</time>
      </trkpt>
      <trkpt lat="44.23521" lon="5.08988">
        <ele>227</ele>
        <time>2016-06-30T10:55:07.015Z</time>
      </trkpt>
      <trkpt lat="44.23525" lon="5.08986">
        <ele>227</ele>
        <time>2016-06-30T10:55:08.015Z</time>
      </trkpt>
      <trkpt lat="44.23529" lon="5.08984">
        <ele>227</ele>
        <time>2016-06-30T10:55:09.015Z</time>
      </trkpt>
      <trkpt lat="44.23533" lon="5.08982">
        <ele>227</ele>
        <time>2016-06-30T10:55:10.015Z</time>
      </trkpt>
      <trkpt lat="44.23537" lon="5.0898">
        <ele>227</ele>
        <time>2016-06-30T10:55:11.015Z</time>
      </trkpt>
      <trkpt lat="44.23541" lon="5.08978">
        <ele>227</ele>
        <time>2016-06-30T10:55:12.015Z</time>
      </trkpt>
      <trkpt lat="44.23545" lon="5.08976">
        <ele>227</ele>
        <time>2016-06-30T10:55:13.015Z</time>
      </trkpt>
      <trkpt lat="44.23549" lon="5.08973">
        <ele>227</ele>
        <time>2016-06-30T10:55:14.015Z</time>
      </trkpt>
      <trkpt lat="44.23553" lon="5.08971">
        <ele>226</ele>
        <time>2016-06-30T10:55:15.015Z</time>
      </trkpt>
      <trkpt lat="44.23557" lon="5.08969">
        <ele>226</ele>
        <time>2016-06-30T10:55:16.015Z</time>
      </trkpt>
      <trkpt lat="44.23561" lon="5.08966">
        <ele>225</ele>
        <time>2016-06-30T10:55:17.015Z</time>
      </trkpt>
      <trkpt lat="44.23564" lon="5.08964">
        <ele>224</ele>
        <time>2016-06-30T10:55:18.015Z</time>
      </trkpt>
      <trkpt lat="44.23568" lon="5.08962">
        <ele>224</ele>
        <time>2016-06-30T10:55:19.015Z</time>
      </trkpt>
      <trkpt lat="44.23571" lon="5.0896">
        <ele>223</ele>
        <time>2016-06-30T10:55:20.015Z</time>
      </trkpt>
      <trkpt lat="44.23575" lon="5.08958">
        <ele>223</ele>
        <time>2016-06-30T10:55:21.015Z</time>
      </trkpt>
      <trkpt lat="44.23579" lon="5.08956">
        <ele>222</ele>
        <time>2016-06-30T10:55:22.015Z</time>
      </trkpt>
      <trkpt lat="44.23583" lon="5.08954">
        <ele>221</ele>
        <time>2016-06-30T10:55:23.015Z</time>
      </trkpt>
      <trkpt lat="44.23586" lon="5.08952">
        <ele>221</ele>
        <time>2016-06-30T10:55:24.015Z</time>
      </trkpt>
      <trkpt lat="44.2359" lon="5.0895">
        <ele>222</ele>
        <time>2016-06-30T10:55:25.015Z</time>
      </trkpt>
      <trkpt lat="44.23594" lon="5.08948">
        <ele>222</ele>
        <time>2016-06-30T10:55:26.015Z</time>
      </trkpt>
      <trkpt lat="44.23598" lon="5.08946">
        <ele>223</ele>
        <time>2016-06-30T10:55:27.015Z</time>
      </trkpt>
      <trkpt lat="44.23601" lon="5.08944">
        <ele>224</ele>
        <time>2016-06-30T10:55:28.015Z</time>
      </trkpt>
      <trkpt lat="44.23605" lon="5.08943">
        <ele>224</ele>
        <time>2016-06-30T10:55:29.015Z</time>
      </trkpt>
      <trkpt lat="44.23607" lon="5.08942">
        <ele>225</ele>
        <time>2016-06-30T10:55:30.015Z</time>
      </trkpt>
      <trkpt lat="44.2361" lon="5.08942">
        <ele>227</ele>
        <time>2016-06-30T10:55:31.015Z</time>
      </trkpt>
      <trkpt lat="44.23612" lon="5.08942">
        <ele>228</ele>
        <time>2016-06-30T10:55:32.015Z</time>
      </trkpt>
      <trkpt lat="44.23615" lon="5.08942">
        <ele>229</ele>
        <time>2016-06-30T10:55:33.015Z</time>
      </trkpt>
      <trkpt lat="44.23618" lon="5.08943">
        <ele>230</ele>
        <time>2016-06-30T10:55:34.015Z</time>
      </trkpt>
      <trkpt lat="44.2362" lon="5.08944">
        <ele>229</ele>
        <time>2016-06-30T10:55:35.015Z</time>
      </trkpt>
      <trkpt lat="44.23622" lon="5.08947">
        <ele>229</ele>
        <time>2016-06-30T10:55:36.015Z</time>
      </trkpt>
      <trkpt lat="44.23623" lon="5.08949">
        <ele>229</ele>
        <time>2016-06-30T10:55:37.015Z</time>
      </trkpt>
      <trkpt lat="44.23625" lon="5.08951">
        <ele>230</ele>
        <time>2016-06-30T10:55:38.015Z</time>
      </trkpt>
      <trkpt lat="44.23627" lon="5.08953">
        <ele>230</ele>
        <time>2016-06-30T10:55:39.015Z</time>
      </trkpt>
      <trkpt lat="44.23629" lon="5.08955">
        <ele>231</ele>
        <time>2016-06-30T10:55:40.015Z</time>
      </trkpt>
      <trkpt lat="44.23631" lon="5.08956">
        <ele>231</ele>
        <time>2016-06-30T10:55:41.015Z</time>
      </trkpt>
      <trkpt lat="44.23633" lon="5.08958">
        <ele>231</ele>
        <time>2016-06-30T10:55:42.015Z</time>
      </trkpt>
      <trkpt lat="44.23634" lon="5.0896">
        <ele>231</ele>
        <time>2016-06-30T10:55:43.015Z</time>
      </trkpt>
      <trkpt lat="44.23636" lon="5.08962">
        <ele>231</ele>
        <time>2016-06-30T10:55:44.015Z</time>
      </trkpt>
      <trkpt lat="44.23637" lon="5.08965">
        <ele>231</ele>
        <time>2016-06-30T10:55:45.015Z</time>
      </trkpt>
      <trkpt lat="44.23638" lon="5.08968">
        <ele>231</ele>
        <time>2016-06-30T10:55:46.015Z</time>
      </trkpt>
      <trkpt lat="44.23639" lon="5.08971">
        <ele>232</ele>
        <time>2016-06-30T10:55:47.015Z</time>
      </trkpt>
      <trkpt lat="44.23639" lon="5.08974">
        <ele>232</ele>
        <time>2016-06-30T10:55:48.015Z</time>
      </trkpt>
      <trkpt lat="44.23639" lon="5.08978">
        <ele>232</ele>
        <time>2016-06-30T10:55:49.015Z</time>
      </trkpt>
      <trkpt lat="44.23639" lon="5.0898">
        <ele>232</ele>
        <time>2016-06-30T10:55:50.015Z</time>
      </trkpt>
      <trkpt lat="44.2364" lon="5.08983">
        <ele>231</ele>
        <time>2016-06-30T10:55:51.015Z</time>
      </trkpt>
      <trkpt lat="44.2364" lon="5.08985">
        <ele>231</ele>
        <time>2016-06-30T10:55:52.015Z</time>
      </trkpt>
      <trkpt lat="44.23641" lon="5.08986">
        <ele>231</ele>
        <time>2016-06-30T10:55:53.015Z</time>
      </trkpt>
      <trkpt lat="44.23643" lon="5.08987">
        <ele>231</ele>
        <time>2016-06-30T10:55:54.015Z</time>
      </trkpt>
      <trkpt lat="44.23645" lon="5.08988">
        <ele>231</ele>
        <time>2016-06-30T10:55:55.015Z</time>
      </trkpt>
      <trkpt lat="44.23647" lon="5.08989">
        <ele>230</ele>
        <time>2016-06-30T10:55:56.015Z</time>
      </trkpt>
      <trkpt lat="44.23649" lon="5.08991">
        <ele>230</ele>
        <time>2016-06-30T10:55:57.015Z</time>
      </trkpt>
      <trkpt lat="44.2365" lon="5.08992">
        <ele>231</ele>
        <time>2016-06-30T10:55:58.015Z</time>
      </trkpt>
      <trkpt lat="44.23651" lon="5.08994">
        <ele>231</ele>
        <time>2016-06-30T10:55:59.015Z</time>
      </trkpt>
      <trkpt lat="44.23651" lon="5.08997">
        <ele>232</ele>
        <time>2016-06-30T10:56:00.015Z</time>
      </trkpt>
      <trkpt lat="44.2365" lon="5.09">
        <ele>232</ele>
        <time>2016-06-30T10:56:01.015Z</time>
      </trkpt>
      <trkpt lat="44.2365" lon="5.09002">
        <ele>232</ele>
        <time>2016-06-30T10:56:02.015Z</time>
      </trkpt>
      <trkpt lat="44.23649" lon="5.09003">
        <ele>232</ele>
        <time>2016-06-30T10:56:03.015Z</time>
      </trkpt>
      <trkpt lat="44.23649" lon="5.09004">
        <ele>232</ele>
        <time>2016-06-30T10:56:04.015Z</time>
      </trkpt>
      <trkpt lat="44.23648" lon="5.09004">
        <ele>233</ele>
        <time>2016-06-30T10:56:05.015Z</time>
      </trkpt>
      <trkpt lat="44.23648" lon="5.09004">
        <ele>233</ele>
        <time>2016-06-30T10:56:06.015Z</time>
      </trkpt>
      <trkpt lat="44.23648" lon="5.09004">
        <ele>232</ele>
        <time>2016-06-30T10:56:07.015Z</time>
      </trkpt>
      <trkpt lat="44.23648" lon="5.09005">
        <ele>233</ele>
        <time>2016-06-30T10:56:08.015Z</time>
      </trkpt>
      <trkpt lat="44.23647" lon="5.09005">
        <ele>233</ele>
        <time>2016-06-30T10:56:09.015Z</time>
      </trkpt>
      <trkpt lat="44.23647" lon="5.09005">
        <ele>233</ele>
        <time>2016-06-30T10:56:10.015Z</time>
      </trkpt>
      <trkpt lat="44.23647" lon="5.09005">
        <ele>233</ele>
        <time>2016-06-30T10:56:11.015Z</time>
      </trkpt>
      <trkpt lat="44.23647" lon="5.09005">
        <ele>233</ele>
        <time>2016-06-30T10:56:12.015Z</time>
      </trkpt>
      <trkpt lat="44.23647" lon="5.09005">
        <ele>233</ele>
        <time>2016-06-30T10:56:13.015Z</time>
      </trkpt>
      <trkpt lat="44.23647" lon="5.09005">
        <ele>233</ele>
        <time>2016-06-30T10:56:14.015Z</time>
      </trkpt>
      <trkpt lat="44.23647" lon="5.09005">
        <ele>233</ele>
        <time>2016-06-30T10:56:15.015Z</time>
      </trkpt>
      <trkpt lat="44.23647" lon="5.09005">
        <ele>233</ele>
        <time>2016-06-30T10:56:16.015Z</time>
      </trkpt>
      <trkpt lat="44.23647" lon="5.09005">
        <ele>234</ele>
        <time>2016-06-30T10:56:17.015Z</time>
      </trkpt>
      <trkpt lat="44.23647" lon="5.09005">
        <ele>234</ele>
        <time>2016-06-30T10:56:18.015Z</time>
      </trkpt>
      <trkpt lat="44.23647" lon="5.09005">
        <ele>234</ele>
        <time>2016-06-30T10:56:19.015Z</time>
      </trkpt>
      <trkpt lat="44.23647" lon="5.09005">
        <ele>234</ele>
        <time>2016-06-30T10:56:20.015Z</time>
      </trkpt>
      <trkpt lat="44.23647" lon="5.09005">
        <ele>234</ele>
        <time>2016-06-30T10:56:21.015Z</time>
      </trkpt>
      <trkpt lat="44.23647" lon="5.09004">
        <ele>234</ele>
        <time>2016-06-30T10:56:22.015Z</time>
      </trkpt>
      <trkpt lat="44.23647" lon="5.09004">
        <ele>235</ele>
        <time>2016-06-30T10:56:23.015Z</time>
      </trkpt>
      <trkpt lat="44.23648" lon="5.09004">
        <ele>235</ele>
        <time>2016-06-30T10:56:24.015Z</time>
      </trkpt>
      <trkpt lat="44.23648" lon="5.09004">
        <ele>234</ele>
        <time>2016-06-30T10:56:25.015Z</time>
      </trkpt>
      <trkpt lat="44.23649" lon="5.09003">
        <ele>233</ele>
        <time>2016-06-30T10:56:26.015Z</time>
      </trkpt>
      <trkpt lat="44.23649" lon="5.09002">
        <ele>233</ele>
        <time>2016-06-30T10:56:27.015Z</time>
      </trkpt>
    </trkseg>
  </trk>
</gpx>